<?xml version="1.0" encoding="UTF-8" standalone="no" ?>
<gpx xmlns="http://www.topografix.com/GPX/1/1" xmlns:xsi="http://www.w3.org/2001/XMLSchema-instance" xsi:schemaLocation="http://www.topografix.com/GPX/1/1 http://www.topografix.com/GPX/1/1/gpx.xsd" version="1.1" creator="VisuGPX - https://www.visugpx.com">
  <metadata>
    <name>VTT_06062020_Mtp_Teyran_Castries</name>
  </metadata>
  <trk>
    <name><![CDATA[Move]]></name>
    <trkseg>
      <trkpt lat="43.61127" lon="3.87726">
        <ele>81.699996948242</ele>
        <time>2020-06-06T11:35:44.000Z</time>
      </trkpt>
      <trkpt lat="43.61126" lon="3.87725">
        <ele>47</ele>
        <time>2020-06-06T11:35:45.000Z</time>
      </trkpt>
      <trkpt lat="43.61124" lon="3.87722">
        <ele>47</ele>
        <time>2020-06-06T11:35:46.000Z</time>
      </trkpt>
      <trkpt lat="43.61121" lon="3.8772">
        <ele>47</ele>
        <time>2020-06-06T11:35:47.000Z</time>
      </trkpt>
      <trkpt lat="43.61119" lon="3.87718">
        <ele>47</ele>
        <time>2020-06-06T11:35:48.000Z</time>
      </trkpt>
      <trkpt lat="43.61117" lon="3.87717">
        <ele>47</ele>
        <time>2020-06-06T11:35:49.000Z</time>
      </trkpt>
      <trkpt lat="43.61115" lon="3.87717">
        <ele>47</ele>
        <time>2020-06-06T11:35:50.000Z</time>
      </trkpt>
      <trkpt lat="43.61112" lon="3.87716">
        <ele>47</ele>
        <time>2020-06-06T11:35:52.000Z</time>
      </trkpt>
      <trkpt lat="43.6111" lon="3.87715">
        <ele>75.935795797665</ele>
        <time>2020-06-06T11:35:53.000Z</time>
      </trkpt>
      <trkpt lat="43.61107" lon="3.87712">
        <ele>74.768480622568</ele>
        <time>2020-06-06T11:35:55.000Z</time>
      </trkpt>
      <trkpt lat="43.61105" lon="3.8771">
        <ele>74.184823035019</ele>
        <time>2020-06-06T11:35:56.000Z</time>
      </trkpt>
      <trkpt lat="43.61103" lon="3.87709">
        <ele>73.601165447471</ele>
        <time>2020-06-06T11:35:57.000Z</time>
      </trkpt>
      <trkpt lat="43.611" lon="3.87708">
        <ele>73.017507859922</ele>
        <time>2020-06-06T11:35:58.000Z</time>
      </trkpt>
      <trkpt lat="43.61097" lon="3.87706">
        <ele>72.433850272374</ele>
        <time>2020-06-06T11:35:59.000Z</time>
      </trkpt>
      <trkpt lat="43.61094" lon="3.87703">
        <ele>71.850192684825</ele>
        <time>2020-06-06T11:36:00.000Z</time>
      </trkpt>
      <trkpt lat="43.61092" lon="3.87699">
        <ele>71.266535097276</ele>
        <time>2020-06-06T11:36:01.000Z</time>
      </trkpt>
      <trkpt lat="43.6109" lon="3.87695">
        <ele>70.682877509728</ele>
        <time>2020-06-06T11:36:02.000Z</time>
      </trkpt>
      <trkpt lat="43.61089" lon="3.87691">
        <ele>70.099219922179</ele>
        <time>2020-06-06T11:36:03.000Z</time>
      </trkpt>
      <trkpt lat="43.61089" lon="3.87686">
        <ele>69.658434897119</ele>
        <time>2020-06-06T11:36:04.000Z</time>
      </trkpt>
      <trkpt lat="43.6109" lon="3.87681">
        <ele>69.246912263374</ele>
        <time>2020-06-06T11:36:05.000Z</time>
      </trkpt>
      <trkpt lat="43.6109" lon="3.87676">
        <ele>68.83538962963</ele>
        <time>2020-06-06T11:36:06.000Z</time>
      </trkpt>
      <trkpt lat="43.61091" lon="3.87671">
        <ele>68.423866995885</ele>
        <time>2020-06-06T11:36:07.000Z</time>
      </trkpt>
      <trkpt lat="43.61091" lon="3.87667">
        <ele>68.01234436214</ele>
        <time>2020-06-06T11:36:08.000Z</time>
      </trkpt>
      <trkpt lat="43.61091" lon="3.87662">
        <ele>67.600821728395</ele>
        <time>2020-06-06T11:36:09.000Z</time>
      </trkpt>
      <trkpt lat="43.61092" lon="3.87658">
        <ele>67.18929909465</ele>
        <time>2020-06-06T11:36:10.000Z</time>
      </trkpt>
      <trkpt lat="43.61092" lon="3.87653">
        <ele>66.777776460905</ele>
        <time>2020-06-06T11:36:11.000Z</time>
      </trkpt>
      <trkpt lat="43.61092" lon="3.87649">
        <ele>66.366253827161</ele>
        <time>2020-06-06T11:36:12.000Z</time>
      </trkpt>
      <trkpt lat="43.61092" lon="3.87645">
        <ele>65.967582574408</ele>
        <time>2020-06-06T11:36:13.000Z</time>
      </trkpt>
      <trkpt lat="43.61092" lon="3.8764">
        <ele>65.672887278342</ele>
        <time>2020-06-06T11:36:14.000Z</time>
      </trkpt>
      <trkpt lat="43.61091" lon="3.87636">
        <ele>65.378191982276</ele>
        <time>2020-06-06T11:36:15.000Z</time>
      </trkpt>
      <trkpt lat="43.61091" lon="3.87632">
        <ele>65.08349668621</ele>
        <time>2020-06-06T11:36:16.000Z</time>
      </trkpt>
      <trkpt lat="43.6109" lon="3.87628">
        <ele>64.788801390144</ele>
        <time>2020-06-06T11:36:17.000Z</time>
      </trkpt>
      <trkpt lat="43.61089" lon="3.87624">
        <ele>64.494106094079</ele>
        <time>2020-06-06T11:36:18.000Z</time>
      </trkpt>
      <trkpt lat="43.61088" lon="3.8762">
        <ele>64.199410798013</ele>
        <time>2020-06-06T11:36:19.000Z</time>
      </trkpt>
      <trkpt lat="43.61088" lon="3.87616">
        <ele>63.904715501947</ele>
        <time>2020-06-06T11:36:20.000Z</time>
      </trkpt>
      <trkpt lat="43.61087" lon="3.87612">
        <ele>63.610020205881</ele>
        <time>2020-06-06T11:36:21.000Z</time>
      </trkpt>
      <trkpt lat="43.61087" lon="3.87609">
        <ele>63.315324909815</ele>
        <time>2020-06-06T11:36:22.000Z</time>
      </trkpt>
      <trkpt lat="43.61087" lon="3.87605">
        <ele>63.02062961375</ele>
        <time>2020-06-06T11:36:23.000Z</time>
      </trkpt>
      <trkpt lat="43.61087" lon="3.87601">
        <ele>62.810591159652</ele>
        <time>2020-06-06T11:36:24.000Z</time>
      </trkpt>
      <trkpt lat="43.61087" lon="3.87597">
        <ele>62.606925039136</ele>
        <time>2020-06-06T11:36:25.000Z</time>
      </trkpt>
      <trkpt lat="43.61088" lon="3.87593">
        <ele>62.403258918621</ele>
        <time>2020-06-06T11:36:26.000Z</time>
      </trkpt>
      <trkpt lat="43.61088" lon="3.87589">
        <ele>62.199592798105</ele>
        <time>2020-06-06T11:36:27.000Z</time>
      </trkpt>
      <trkpt lat="43.61089" lon="3.87584">
        <ele>61.99592667759</ele>
        <time>2020-06-06T11:36:28.000Z</time>
      </trkpt>
      <trkpt lat="43.61089" lon="3.8758">
        <ele>61.792260557074</ele>
        <time>2020-06-06T11:36:29.000Z</time>
      </trkpt>
      <trkpt lat="43.6109" lon="3.87575">
        <ele>61.588594436559</ele>
        <time>2020-06-06T11:36:30.000Z</time>
      </trkpt>
      <trkpt lat="43.6109" lon="3.87571">
        <ele>61.384928316043</ele>
        <time>2020-06-06T11:36:31.000Z</time>
      </trkpt>
      <trkpt lat="43.61091" lon="3.87567">
        <ele>61.181262195527</ele>
        <time>2020-06-06T11:36:32.000Z</time>
      </trkpt>
      <trkpt lat="43.61092" lon="3.87562">
        <ele>60.97799936</ele>
        <time>2020-06-06T11:36:33.000Z</time>
      </trkpt>
      <trkpt lat="43.61092" lon="3.87557">
        <ele>60.77799936</ele>
        <time>2020-06-06T11:36:34.000Z</time>
      </trkpt>
      <trkpt lat="43.61092" lon="3.87552">
        <ele>60.57799936</ele>
        <time>2020-06-06T11:36:35.000Z</time>
      </trkpt>
      <trkpt lat="43.61093" lon="3.87548">
        <ele>60.37799936</ele>
        <time>2020-06-06T11:36:36.000Z</time>
      </trkpt>
      <trkpt lat="43.61094" lon="3.87543">
        <ele>60.17799936</ele>
        <time>2020-06-06T11:36:37.000Z</time>
      </trkpt>
      <trkpt lat="43.61094" lon="3.87539">
        <ele>59.97799936</ele>
        <time>2020-06-06T11:36:38.000Z</time>
      </trkpt>
      <trkpt lat="43.61095" lon="3.87534">
        <ele>59.77799936</ele>
        <time>2020-06-06T11:36:39.000Z</time>
      </trkpt>
      <trkpt lat="43.61095" lon="3.8753">
        <ele>59.57799936</ele>
        <time>2020-06-06T11:36:40.000Z</time>
      </trkpt>
      <trkpt lat="43.61096" lon="3.87526">
        <ele>59.37799936</ele>
        <time>2020-06-06T11:36:41.000Z</time>
      </trkpt>
      <trkpt lat="43.61097" lon="3.87521">
        <ele>59.17799936</ele>
        <time>2020-06-06T11:36:42.000Z</time>
      </trkpt>
      <trkpt lat="43.61097" lon="3.87516">
        <ele>59</ele>
        <time>2020-06-06T11:36:43.000Z</time>
      </trkpt>
      <trkpt lat="43.61098" lon="3.87512">
        <ele>59</ele>
        <time>2020-06-06T11:36:44.000Z</time>
      </trkpt>
      <trkpt lat="43.61099" lon="3.87509">
        <ele>59</ele>
        <time>2020-06-06T11:36:45.000Z</time>
      </trkpt>
      <trkpt lat="43.611" lon="3.87505">
        <ele>59</ele>
        <time>2020-06-06T11:36:47.000Z</time>
      </trkpt>
      <trkpt lat="43.61099" lon="3.875">
        <ele>59</ele>
        <time>2020-06-06T11:36:49.000Z</time>
      </trkpt>
      <trkpt lat="43.61099" lon="3.87497">
        <ele>59</ele>
        <time>2020-06-06T11:36:50.000Z</time>
      </trkpt>
      <trkpt lat="43.61098" lon="3.87493">
        <ele>59</ele>
        <time>2020-06-06T11:36:51.000Z</time>
      </trkpt>
      <trkpt lat="43.61098" lon="3.87489">
        <ele>59</ele>
        <time>2020-06-06T11:36:52.000Z</time>
      </trkpt>
      <trkpt lat="43.61097" lon="3.87484">
        <ele>59</ele>
        <time>2020-06-06T11:36:53.000Z</time>
      </trkpt>
      <trkpt lat="43.61097" lon="3.87479">
        <ele>59.083504879838</ele>
        <time>2020-06-06T11:36:54.000Z</time>
      </trkpt>
      <trkpt lat="43.61097" lon="3.87475">
        <ele>59.186597731363</ele>
        <time>2020-06-06T11:36:55.000Z</time>
      </trkpt>
      <trkpt lat="43.61098" lon="3.8747">
        <ele>59.289690582889</ele>
        <time>2020-06-06T11:36:56.000Z</time>
      </trkpt>
      <trkpt lat="43.61098" lon="3.87466">
        <ele>59.392783434414</ele>
        <time>2020-06-06T11:36:57.000Z</time>
      </trkpt>
      <trkpt lat="43.61098" lon="3.87461">
        <ele>59.495876285939</ele>
        <time>2020-06-06T11:36:58.000Z</time>
      </trkpt>
      <trkpt lat="43.61099" lon="3.87456">
        <ele>59.598969137464</ele>
        <time>2020-06-06T11:36:59.000Z</time>
      </trkpt>
      <trkpt lat="43.61099" lon="3.87452">
        <ele>59.702061988989</ele>
        <time>2020-06-06T11:37:00.000Z</time>
      </trkpt>
      <trkpt lat="43.611" lon="3.87447">
        <ele>59.805154840514</ele>
        <time>2020-06-06T11:37:01.000Z</time>
      </trkpt>
      <trkpt lat="43.611" lon="3.87442">
        <ele>59.90824769204</ele>
        <time>2020-06-06T11:37:02.000Z</time>
      </trkpt>
      <trkpt lat="43.611" lon="3.87437">
        <ele>59.97799936</ele>
        <time>2020-06-06T11:37:03.000Z</time>
      </trkpt>
      <trkpt lat="43.611" lon="3.87432">
        <ele>59.77799936</ele>
        <time>2020-06-06T11:37:04.000Z</time>
      </trkpt>
      <trkpt lat="43.61101" lon="3.87428">
        <ele>59.57799936</ele>
        <time>2020-06-06T11:37:05.000Z</time>
      </trkpt>
      <trkpt lat="43.61101" lon="3.87423">
        <ele>59.37799936</ele>
        <time>2020-06-06T11:37:06.000Z</time>
      </trkpt>
      <trkpt lat="43.61102" lon="3.87417">
        <ele>59.17799936</ele>
        <time>2020-06-06T11:37:07.000Z</time>
      </trkpt>
      <trkpt lat="43.61102" lon="3.87412">
        <ele>58.97799936</ele>
        <time>2020-06-06T11:37:08.000Z</time>
      </trkpt>
      <trkpt lat="43.61102" lon="3.87405">
        <ele>58.77799936</ele>
        <time>2020-06-06T11:37:09.000Z</time>
      </trkpt>
      <trkpt lat="43.61102" lon="3.87399">
        <ele>58.57799936</ele>
        <time>2020-06-06T11:37:10.000Z</time>
      </trkpt>
      <trkpt lat="43.61102" lon="3.87393">
        <ele>58.37799936</ele>
        <time>2020-06-06T11:37:11.000Z</time>
      </trkpt>
      <trkpt lat="43.61103" lon="3.87387">
        <ele>58.17799936</ele>
        <time>2020-06-06T11:37:12.000Z</time>
      </trkpt>
      <trkpt lat="43.61103" lon="3.87381">
        <ele>57.97799936</ele>
        <time>2020-06-06T11:37:13.000Z</time>
      </trkpt>
      <trkpt lat="43.61104" lon="3.87376">
        <ele>57.77799936</ele>
        <time>2020-06-06T11:37:14.000Z</time>
      </trkpt>
      <trkpt lat="43.61104" lon="3.8737">
        <ele>57.57799936</ele>
        <time>2020-06-06T11:37:15.000Z</time>
      </trkpt>
      <trkpt lat="43.61105" lon="3.87365">
        <ele>57.37799936</ele>
        <time>2020-06-06T11:37:16.000Z</time>
      </trkpt>
      <trkpt lat="43.61106" lon="3.8736">
        <ele>57.17799936</ele>
        <time>2020-06-06T11:37:17.000Z</time>
      </trkpt>
      <trkpt lat="43.61106" lon="3.87354">
        <ele>56.97799936</ele>
        <time>2020-06-06T11:37:18.000Z</time>
      </trkpt>
      <trkpt lat="43.61106" lon="3.87349">
        <ele>56.77799936</ele>
        <time>2020-06-06T11:37:19.000Z</time>
      </trkpt>
      <trkpt lat="43.61106" lon="3.87344">
        <ele>56.57799936</ele>
        <time>2020-06-06T11:37:20.000Z</time>
      </trkpt>
      <trkpt lat="43.61105" lon="3.87339">
        <ele>56.37799936</ele>
        <time>2020-06-06T11:37:21.000Z</time>
      </trkpt>
      <trkpt lat="43.61105" lon="3.87333">
        <ele>56.17799936</ele>
        <time>2020-06-06T11:37:22.000Z</time>
      </trkpt>
      <trkpt lat="43.61105" lon="3.87328">
        <ele>56</ele>
        <time>2020-06-06T11:37:23.000Z</time>
      </trkpt>
      <trkpt lat="43.61106" lon="3.87322">
        <ele>56</ele>
        <time>2020-06-06T11:37:24.000Z</time>
      </trkpt>
      <trkpt lat="43.61107" lon="3.87317">
        <ele>56</ele>
        <time>2020-06-06T11:37:25.000Z</time>
      </trkpt>
      <trkpt lat="43.61108" lon="3.87312">
        <ele>56</ele>
        <time>2020-06-06T11:37:26.000Z</time>
      </trkpt>
      <trkpt lat="43.61109" lon="3.87307">
        <ele>56</ele>
        <time>2020-06-06T11:37:27.000Z</time>
      </trkpt>
      <trkpt lat="43.6111" lon="3.87302">
        <ele>56</ele>
        <time>2020-06-06T11:37:28.000Z</time>
      </trkpt>
      <trkpt lat="43.6111" lon="3.87297">
        <ele>56</ele>
        <time>2020-06-06T11:37:29.000Z</time>
      </trkpt>
      <trkpt lat="43.61111" lon="3.87291">
        <ele>56</ele>
        <time>2020-06-06T11:37:30.000Z</time>
      </trkpt>
      <trkpt lat="43.61111" lon="3.87286">
        <ele>56</ele>
        <time>2020-06-06T11:37:31.000Z</time>
      </trkpt>
      <trkpt lat="43.61112" lon="3.8728">
        <ele>56</ele>
        <time>2020-06-06T11:37:32.000Z</time>
      </trkpt>
      <trkpt lat="43.61112" lon="3.87275">
        <ele>55.98899968</ele>
        <time>2020-06-06T11:37:33.000Z</time>
      </trkpt>
      <trkpt lat="43.61112" lon="3.87269">
        <ele>55.88899968</ele>
        <time>2020-06-06T11:37:34.000Z</time>
      </trkpt>
      <trkpt lat="43.61113" lon="3.87263">
        <ele>55.78899968</ele>
        <time>2020-06-06T11:37:35.000Z</time>
      </trkpt>
      <trkpt lat="43.61113" lon="3.87258">
        <ele>55.68899968</ele>
        <time>2020-06-06T11:37:36.000Z</time>
      </trkpt>
      <trkpt lat="43.61114" lon="3.87253">
        <ele>55.58899968</ele>
        <time>2020-06-06T11:37:37.000Z</time>
      </trkpt>
      <trkpt lat="43.61114" lon="3.87247">
        <ele>55.48899968</ele>
        <time>2020-06-06T11:37:38.000Z</time>
      </trkpt>
      <trkpt lat="43.61114" lon="3.87243">
        <ele>55.38899968</ele>
        <time>2020-06-06T11:37:39.000Z</time>
      </trkpt>
      <trkpt lat="43.61114" lon="3.87238">
        <ele>55.28899968</ele>
        <time>2020-06-06T11:37:40.000Z</time>
      </trkpt>
      <trkpt lat="43.61115" lon="3.87234">
        <ele>55.18899968</ele>
        <time>2020-06-06T11:37:41.000Z</time>
      </trkpt>
      <trkpt lat="43.61117" lon="3.8723">
        <ele>55.08899968</ele>
        <time>2020-06-06T11:37:42.000Z</time>
      </trkpt>
      <trkpt lat="43.61118" lon="3.87226">
        <ele>54.96729015241</ele>
        <time>2020-06-06T11:37:43.000Z</time>
      </trkpt>
      <trkpt lat="43.6112" lon="3.87222">
        <ele>54.669936551878</ele>
        <time>2020-06-06T11:37:44.000Z</time>
      </trkpt>
      <trkpt lat="43.61121" lon="3.87218">
        <ele>54.372582951346</ele>
        <time>2020-06-06T11:37:45.000Z</time>
      </trkpt>
      <trkpt lat="43.61123" lon="3.87214">
        <ele>54.075229350814</ele>
        <time>2020-06-06T11:37:46.000Z</time>
      </trkpt>
      <trkpt lat="43.61124" lon="3.87211">
        <ele>53.777875750283</ele>
        <time>2020-06-06T11:37:47.000Z</time>
      </trkpt>
      <trkpt lat="43.61125" lon="3.87208">
        <ele>53.480522149751</ele>
        <time>2020-06-06T11:37:48.000Z</time>
      </trkpt>
      <trkpt lat="43.61127" lon="3.87206">
        <ele>53.183168549219</ele>
        <time>2020-06-06T11:37:49.000Z</time>
      </trkpt>
      <trkpt lat="43.61129" lon="3.87205">
        <ele>52.885814948687</ele>
        <time>2020-06-06T11:37:50.000Z</time>
      </trkpt>
      <trkpt lat="43.61131" lon="3.87205">
        <ele>52.588461348155</ele>
        <time>2020-06-06T11:37:51.000Z</time>
      </trkpt>
      <trkpt lat="43.61134" lon="3.87204">
        <ele>52.291107747623</ele>
        <time>2020-06-06T11:37:52.000Z</time>
      </trkpt>
      <trkpt lat="43.61138" lon="3.87204">
        <ele>51.993641974591</ele>
        <time>2020-06-06T11:37:53.000Z</time>
      </trkpt>
      <trkpt lat="43.61142" lon="3.87204">
        <ele>51.690948047067</ele>
        <time>2020-06-06T11:37:54.000Z</time>
      </trkpt>
      <trkpt lat="43.61147" lon="3.87204">
        <ele>51.388254119543</ele>
        <time>2020-06-06T11:37:55.000Z</time>
      </trkpt>
      <trkpt lat="43.61152" lon="3.87205">
        <ele>51.085560192019</ele>
        <time>2020-06-06T11:37:56.000Z</time>
      </trkpt>
      <trkpt lat="43.61158" lon="3.87205">
        <ele>50.782866264495</ele>
        <time>2020-06-06T11:37:57.000Z</time>
      </trkpt>
      <trkpt lat="43.61162" lon="3.87206">
        <ele>50.480172336971</ele>
        <time>2020-06-06T11:37:58.000Z</time>
      </trkpt>
      <trkpt lat="43.61165" lon="3.87206">
        <ele>50.177478409448</ele>
        <time>2020-06-06T11:37:59.000Z</time>
      </trkpt>
      <trkpt lat="43.61169" lon="3.87206">
        <ele>49.874784481924</ele>
        <time>2020-06-06T11:38:00.000Z</time>
      </trkpt>
      <trkpt lat="43.61173" lon="3.87205">
        <ele>49.5720905544</ele>
        <time>2020-06-06T11:38:01.000Z</time>
      </trkpt>
      <trkpt lat="43.61178" lon="3.87205">
        <ele>49.269396626876</ele>
        <time>2020-06-06T11:38:02.000Z</time>
      </trkpt>
      <trkpt lat="43.61183" lon="3.87204">
        <ele>48.967031997453</ele>
        <time>2020-06-06T11:38:03.000Z</time>
      </trkpt>
      <trkpt lat="43.61187" lon="3.87202">
        <ele>48.667331601944</ele>
        <time>2020-06-06T11:38:04.000Z</time>
      </trkpt>
      <trkpt lat="43.61191" lon="3.872">
        <ele>48.367631206435</ele>
        <time>2020-06-06T11:38:05.000Z</time>
      </trkpt>
      <trkpt lat="43.61194" lon="3.87196">
        <ele>48.067930810927</ele>
        <time>2020-06-06T11:38:06.000Z</time>
      </trkpt>
      <trkpt lat="43.61197" lon="3.8719">
        <ele>47.768230415418</ele>
        <time>2020-06-06T11:38:07.000Z</time>
      </trkpt>
      <trkpt lat="43.61198" lon="3.87183">
        <ele>47.46853001991</ele>
        <time>2020-06-06T11:38:08.000Z</time>
      </trkpt>
      <trkpt lat="43.61199" lon="3.87176">
        <ele>47.168829624401</ele>
        <time>2020-06-06T11:38:09.000Z</time>
      </trkpt>
      <trkpt lat="43.61199" lon="3.87168">
        <ele>46.869129228892</ele>
        <time>2020-06-06T11:38:10.000Z</time>
      </trkpt>
      <trkpt lat="43.612" lon="3.87161">
        <ele>46.569428833384</ele>
        <time>2020-06-06T11:38:11.000Z</time>
      </trkpt>
      <trkpt lat="43.612" lon="3.87153">
        <ele>46.269728437875</ele>
        <time>2020-06-06T11:38:12.000Z</time>
      </trkpt>
      <trkpt lat="43.61201" lon="3.87145">
        <ele>45.979978705112</ele>
        <time>2020-06-06T11:38:13.000Z</time>
      </trkpt>
      <trkpt lat="43.61202" lon="3.87138">
        <ele>45.77977856904</ele>
        <time>2020-06-06T11:38:14.000Z</time>
      </trkpt>
      <trkpt lat="43.61203" lon="3.8713">
        <ele>45.579578432968</ele>
        <time>2020-06-06T11:38:15.000Z</time>
      </trkpt>
      <trkpt lat="43.61203" lon="3.87122">
        <ele>45.379378296896</ele>
        <time>2020-06-06T11:38:16.000Z</time>
      </trkpt>
      <trkpt lat="43.61204" lon="3.87114">
        <ele>45.179178160824</ele>
        <time>2020-06-06T11:38:17.000Z</time>
      </trkpt>
      <trkpt lat="43.61204" lon="3.87105">
        <ele>44.978978024752</ele>
        <time>2020-06-06T11:38:18.000Z</time>
      </trkpt>
      <trkpt lat="43.61205" lon="3.87097">
        <ele>44.77877788868</ele>
        <time>2020-06-06T11:38:19.000Z</time>
      </trkpt>
      <trkpt lat="43.61205" lon="3.87089">
        <ele>44.578577752608</ele>
        <time>2020-06-06T11:38:20.000Z</time>
      </trkpt>
      <trkpt lat="43.61206" lon="3.87081">
        <ele>44.378377616536</ele>
        <time>2020-06-06T11:38:21.000Z</time>
      </trkpt>
      <trkpt lat="43.61206" lon="3.87073">
        <ele>44.178177480464</ele>
        <time>2020-06-06T11:38:22.000Z</time>
      </trkpt>
      <trkpt lat="43.61207" lon="3.87065">
        <ele>43.98899968</ele>
        <time>2020-06-06T11:38:23.000Z</time>
      </trkpt>
      <trkpt lat="43.61208" lon="3.87057">
        <ele>43.88899968</ele>
        <time>2020-06-06T11:38:24.000Z</time>
      </trkpt>
      <trkpt lat="43.61208" lon="3.87049">
        <ele>43.78899968</ele>
        <time>2020-06-06T11:38:25.000Z</time>
      </trkpt>
      <trkpt lat="43.61209" lon="3.87041">
        <ele>43.68899968</ele>
        <time>2020-06-06T11:38:26.000Z</time>
      </trkpt>
      <trkpt lat="43.61209" lon="3.87033">
        <ele>43.58899968</ele>
        <time>2020-06-06T11:38:27.000Z</time>
      </trkpt>
      <trkpt lat="43.61209" lon="3.87025">
        <ele>43.48899968</ele>
        <time>2020-06-06T11:38:28.000Z</time>
      </trkpt>
      <trkpt lat="43.6121" lon="3.87017">
        <ele>43.38899968</ele>
        <time>2020-06-06T11:38:29.000Z</time>
      </trkpt>
      <trkpt lat="43.6121" lon="3.87009">
        <ele>43.28899968</ele>
        <time>2020-06-06T11:38:30.000Z</time>
      </trkpt>
      <trkpt lat="43.61211" lon="3.87">
        <ele>43.18899968</ele>
        <time>2020-06-06T11:38:31.000Z</time>
      </trkpt>
      <trkpt lat="43.61212" lon="3.86992">
        <ele>43.08899968</ele>
        <time>2020-06-06T11:38:32.000Z</time>
      </trkpt>
      <trkpt lat="43.61212" lon="3.86984">
        <ele>43</ele>
        <time>2020-06-06T11:38:33.000Z</time>
      </trkpt>
      <trkpt lat="43.61213" lon="3.86975">
        <ele>43</ele>
        <time>2020-06-06T11:38:34.000Z</time>
      </trkpt>
      <trkpt lat="43.61214" lon="3.86967">
        <ele>43</ele>
        <time>2020-06-06T11:38:35.000Z</time>
      </trkpt>
      <trkpt lat="43.61215" lon="3.86959">
        <ele>43</ele>
        <time>2020-06-06T11:38:36.000Z</time>
      </trkpt>
      <trkpt lat="43.61215" lon="3.86951">
        <ele>43</ele>
        <time>2020-06-06T11:38:37.000Z</time>
      </trkpt>
      <trkpt lat="43.61216" lon="3.86942">
        <ele>43</ele>
        <time>2020-06-06T11:38:38.000Z</time>
      </trkpt>
      <trkpt lat="43.61216" lon="3.86934">
        <ele>43</ele>
        <time>2020-06-06T11:38:39.000Z</time>
      </trkpt>
      <trkpt lat="43.61217" lon="3.86926">
        <ele>43</ele>
        <time>2020-06-06T11:38:40.000Z</time>
      </trkpt>
      <trkpt lat="43.61218" lon="3.86918">
        <ele>43</ele>
        <time>2020-06-06T11:38:41.000Z</time>
      </trkpt>
      <trkpt lat="43.61218" lon="3.8691">
        <ele>43</ele>
        <time>2020-06-06T11:38:42.000Z</time>
      </trkpt>
      <trkpt lat="43.61218" lon="3.86902">
        <ele>43</ele>
        <time>2020-06-06T11:38:43.000Z</time>
      </trkpt>
      <trkpt lat="43.61219" lon="3.86894">
        <ele>43</ele>
        <time>2020-06-06T11:38:44.000Z</time>
      </trkpt>
      <trkpt lat="43.61219" lon="3.86886">
        <ele>43</ele>
        <time>2020-06-06T11:38:45.000Z</time>
      </trkpt>
      <trkpt lat="43.6122" lon="3.86879">
        <ele>43</ele>
        <time>2020-06-06T11:38:46.000Z</time>
      </trkpt>
      <trkpt lat="43.6122" lon="3.86872">
        <ele>43</ele>
        <time>2020-06-06T11:38:47.000Z</time>
      </trkpt>
      <trkpt lat="43.6122" lon="3.86865">
        <ele>43</ele>
        <time>2020-06-06T11:38:48.000Z</time>
      </trkpt>
      <trkpt lat="43.6122" lon="3.86858">
        <ele>43</ele>
        <time>2020-06-06T11:38:49.000Z</time>
      </trkpt>
      <trkpt lat="43.6122" lon="3.86852">
        <ele>43</ele>
        <time>2020-06-06T11:38:50.000Z</time>
      </trkpt>
      <trkpt lat="43.6122" lon="3.86846">
        <ele>43</ele>
        <time>2020-06-06T11:38:51.000Z</time>
      </trkpt>
      <trkpt lat="43.61221" lon="3.86841">
        <ele>43</ele>
        <time>2020-06-06T11:38:52.000Z</time>
      </trkpt>
      <trkpt lat="43.61222" lon="3.86837">
        <ele>43</ele>
        <time>2020-06-06T11:38:53.000Z</time>
      </trkpt>
      <trkpt lat="43.61223" lon="3.86833">
        <ele>42.702129315141</ele>
        <time>2020-06-06T11:38:54.000Z</time>
      </trkpt>
      <trkpt lat="43.61224" lon="3.86829">
        <ele>42.398177651723</ele>
        <time>2020-06-06T11:38:55.000Z</time>
      </trkpt>
      <trkpt lat="43.61226" lon="3.86824">
        <ele>42.094225988305</ele>
        <time>2020-06-06T11:38:56.000Z</time>
      </trkpt>
      <trkpt lat="43.61227" lon="3.86819">
        <ele>41.790274324887</ele>
        <time>2020-06-06T11:38:57.000Z</time>
      </trkpt>
      <trkpt lat="43.61226" lon="3.86812">
        <ele>41.486322661469</ele>
        <time>2020-06-06T11:38:58.000Z</time>
      </trkpt>
      <trkpt lat="43.61224" lon="3.86806">
        <ele>41.182370998051</ele>
        <time>2020-06-06T11:38:59.000Z</time>
      </trkpt>
      <trkpt lat="43.6122" lon="3.868">
        <ele>40.878419334633</ele>
        <time>2020-06-06T11:39:00.000Z</time>
      </trkpt>
      <trkpt lat="43.61215" lon="3.86794">
        <ele>40.574467671215</ele>
        <time>2020-06-06T11:39:01.000Z</time>
      </trkpt>
      <trkpt lat="43.61211" lon="3.86788">
        <ele>40.270516007797</ele>
        <time>2020-06-06T11:39:02.000Z</time>
      </trkpt>
      <trkpt lat="43.61209" lon="3.8678">
        <ele>39.979264260044</ele>
        <time>2020-06-06T11:39:03.000Z</time>
      </trkpt>
      <trkpt lat="43.61207" lon="3.86771">
        <ele>39.79076301684</ele>
        <time>2020-06-06T11:39:04.000Z</time>
      </trkpt>
      <trkpt lat="43.61207" lon="3.86762">
        <ele>39.602261773637</ele>
        <time>2020-06-06T11:39:05.000Z</time>
      </trkpt>
      <trkpt lat="43.61208" lon="3.86755">
        <ele>39.413760530433</ele>
        <time>2020-06-06T11:39:06.000Z</time>
      </trkpt>
      <trkpt lat="43.61209" lon="3.86747">
        <ele>39.22525928723</ele>
        <time>2020-06-06T11:39:07.000Z</time>
      </trkpt>
      <trkpt lat="43.61209" lon="3.86738">
        <ele>39.036758044027</ele>
        <time>2020-06-06T11:39:08.000Z</time>
      </trkpt>
      <trkpt lat="43.61209" lon="3.86729">
        <ele>38.848256800823</ele>
        <time>2020-06-06T11:39:09.000Z</time>
      </trkpt>
      <trkpt lat="43.61209" lon="3.8672">
        <ele>38.65975555762</ele>
        <time>2020-06-06T11:39:10.000Z</time>
      </trkpt>
      <trkpt lat="43.6121" lon="3.8671">
        <ele>38.471254314416</ele>
        <time>2020-06-06T11:39:11.000Z</time>
      </trkpt>
      <trkpt lat="43.6121" lon="3.86701">
        <ele>38.282753071213</ele>
        <time>2020-06-06T11:39:12.000Z</time>
      </trkpt>
      <trkpt lat="43.6121" lon="3.86692">
        <ele>38.09425182801</ele>
        <time>2020-06-06T11:39:13.000Z</time>
      </trkpt>
      <trkpt lat="43.61209" lon="3.86684">
        <ele>37.94753475678</ele>
        <time>2020-06-06T11:39:14.000Z</time>
      </trkpt>
      <trkpt lat="43.61209" lon="3.86675">
        <ele>37.842602927212</ele>
        <time>2020-06-06T11:39:15.000Z</time>
      </trkpt>
      <trkpt lat="43.61208" lon="3.86668">
        <ele>37.737671097644</ele>
        <time>2020-06-06T11:39:16.000Z</time>
      </trkpt>
      <trkpt lat="43.61208" lon="3.86661">
        <ele>37.632739268076</ele>
        <time>2020-06-06T11:39:17.000Z</time>
      </trkpt>
      <trkpt lat="43.61209" lon="3.86655">
        <ele>37.527807438508</ele>
        <time>2020-06-06T11:39:18.000Z</time>
      </trkpt>
      <trkpt lat="43.61209" lon="3.86649">
        <ele>37.42287560894</ele>
        <time>2020-06-06T11:39:19.000Z</time>
      </trkpt>
      <trkpt lat="43.6121" lon="3.86643">
        <ele>37.317943779372</ele>
        <time>2020-06-06T11:39:20.000Z</time>
      </trkpt>
      <trkpt lat="43.6121" lon="3.86636">
        <ele>37.213011949805</ele>
        <time>2020-06-06T11:39:21.000Z</time>
      </trkpt>
      <trkpt lat="43.61209" lon="3.8663">
        <ele>37.108080120237</ele>
        <time>2020-06-06T11:39:22.000Z</time>
      </trkpt>
      <trkpt lat="43.61208" lon="3.86624">
        <ele>37.003148290669</ele>
        <time>2020-06-06T11:39:23.000Z</time>
      </trkpt>
      <trkpt lat="43.61206" lon="3.86617">
        <ele>37</ele>
        <time>2020-06-06T11:39:24.000Z</time>
      </trkpt>
      <trkpt lat="43.61205" lon="3.86611">
        <ele>37</ele>
        <time>2020-06-06T11:39:25.000Z</time>
      </trkpt>
      <trkpt lat="43.61204" lon="3.86605">
        <ele>37</ele>
        <time>2020-06-06T11:39:26.000Z</time>
      </trkpt>
      <trkpt lat="43.61202" lon="3.86599">
        <ele>37</ele>
        <time>2020-06-06T11:39:27.000Z</time>
      </trkpt>
      <trkpt lat="43.61201" lon="3.86593">
        <ele>37</ele>
        <time>2020-06-06T11:39:28.000Z</time>
      </trkpt>
      <trkpt lat="43.61199" lon="3.86587">
        <ele>37</ele>
        <time>2020-06-06T11:39:29.000Z</time>
      </trkpt>
      <trkpt lat="43.61198" lon="3.86581">
        <ele>37</ele>
        <time>2020-06-06T11:39:30.000Z</time>
      </trkpt>
      <trkpt lat="43.61196" lon="3.86575">
        <ele>37</ele>
        <time>2020-06-06T11:39:31.000Z</time>
      </trkpt>
      <trkpt lat="43.61194" lon="3.8657">
        <ele>37</ele>
        <time>2020-06-06T11:39:32.000Z</time>
      </trkpt>
      <trkpt lat="43.61193" lon="3.86565">
        <ele>37.01100032</ele>
        <time>2020-06-06T11:39:33.000Z</time>
      </trkpt>
      <trkpt lat="43.61191" lon="3.8656">
        <ele>37.11100032</ele>
        <time>2020-06-06T11:39:34.000Z</time>
      </trkpt>
      <trkpt lat="43.61189" lon="3.86555">
        <ele>37.21100032</ele>
        <time>2020-06-06T11:39:35.000Z</time>
      </trkpt>
      <trkpt lat="43.61187" lon="3.8655">
        <ele>37.31100032</ele>
        <time>2020-06-06T11:39:36.000Z</time>
      </trkpt>
      <trkpt lat="43.61185" lon="3.86545">
        <ele>37.41100032</ele>
        <time>2020-06-06T11:39:37.000Z</time>
      </trkpt>
      <trkpt lat="43.61185" lon="3.8654">
        <ele>37.51100032</ele>
        <time>2020-06-06T11:39:38.000Z</time>
      </trkpt>
      <trkpt lat="43.61185" lon="3.86534">
        <ele>37.61100032</ele>
        <time>2020-06-06T11:39:39.000Z</time>
      </trkpt>
      <trkpt lat="43.61186" lon="3.86528">
        <ele>37.71100032</ele>
        <time>2020-06-06T11:39:40.000Z</time>
      </trkpt>
      <trkpt lat="43.61186" lon="3.86522">
        <ele>37.81100032</ele>
        <time>2020-06-06T11:39:41.000Z</time>
      </trkpt>
      <trkpt lat="43.61187" lon="3.86516">
        <ele>37.91100032</ele>
        <time>2020-06-06T11:39:42.000Z</time>
      </trkpt>
      <trkpt lat="43.61187" lon="3.86511">
        <ele>38</ele>
        <time>2020-06-06T11:39:43.000Z</time>
      </trkpt>
      <trkpt lat="43.61188" lon="3.86506">
        <ele>38</ele>
        <time>2020-06-06T11:39:44.000Z</time>
      </trkpt>
      <trkpt lat="43.61188" lon="3.865">
        <ele>38</ele>
        <time>2020-06-06T11:39:45.000Z</time>
      </trkpt>
      <trkpt lat="43.61188" lon="3.86494">
        <ele>38</ele>
        <time>2020-06-06T11:39:46.000Z</time>
      </trkpt>
      <trkpt lat="43.61188" lon="3.86488">
        <ele>38</ele>
        <time>2020-06-06T11:39:47.000Z</time>
      </trkpt>
      <trkpt lat="43.61189" lon="3.86483">
        <ele>38</ele>
        <time>2020-06-06T11:39:48.000Z</time>
      </trkpt>
      <trkpt lat="43.6119" lon="3.86477">
        <ele>38</ele>
        <time>2020-06-06T11:39:49.000Z</time>
      </trkpt>
      <trkpt lat="43.6119" lon="3.86471">
        <ele>38</ele>
        <time>2020-06-06T11:39:50.000Z</time>
      </trkpt>
      <trkpt lat="43.61191" lon="3.86465">
        <ele>38</ele>
        <time>2020-06-06T11:39:51.000Z</time>
      </trkpt>
      <trkpt lat="43.61191" lon="3.8646">
        <ele>38</ele>
        <time>2020-06-06T11:39:52.000Z</time>
      </trkpt>
      <trkpt lat="43.61192" lon="3.86454">
        <ele>38.01100032</ele>
        <time>2020-06-06T11:39:53.000Z</time>
      </trkpt>
      <trkpt lat="43.61192" lon="3.86449">
        <ele>38.11100032</ele>
        <time>2020-06-06T11:39:54.000Z</time>
      </trkpt>
      <trkpt lat="43.61192" lon="3.86443">
        <ele>38.21100032</ele>
        <time>2020-06-06T11:39:55.000Z</time>
      </trkpt>
      <trkpt lat="43.61193" lon="3.86437">
        <ele>38.31100032</ele>
        <time>2020-06-06T11:39:56.000Z</time>
      </trkpt>
      <trkpt lat="43.61193" lon="3.86431">
        <ele>38.41100032</ele>
        <time>2020-06-06T11:39:57.000Z</time>
      </trkpt>
      <trkpt lat="43.61194" lon="3.86425">
        <ele>38.51100032</ele>
        <time>2020-06-06T11:39:58.000Z</time>
      </trkpt>
      <trkpt lat="43.61195" lon="3.8642">
        <ele>38.61100032</ele>
        <time>2020-06-06T11:39:59.000Z</time>
      </trkpt>
      <trkpt lat="43.61195" lon="3.86414">
        <ele>38.71100032</ele>
        <time>2020-06-06T11:40:00.000Z</time>
      </trkpt>
      <trkpt lat="43.61196" lon="3.86408">
        <ele>38.81100032</ele>
        <time>2020-06-06T11:40:01.000Z</time>
      </trkpt>
      <trkpt lat="43.61196" lon="3.86402">
        <ele>38.91100032</ele>
        <time>2020-06-06T11:40:02.000Z</time>
      </trkpt>
      <trkpt lat="43.61196" lon="3.86396">
        <ele>39.01100032</ele>
        <time>2020-06-06T11:40:03.000Z</time>
      </trkpt>
      <trkpt lat="43.61197" lon="3.86391">
        <ele>39.11100032</ele>
        <time>2020-06-06T11:40:04.000Z</time>
      </trkpt>
      <trkpt lat="43.61197" lon="3.86385">
        <ele>39.21100032</ele>
        <time>2020-06-06T11:40:05.000Z</time>
      </trkpt>
      <trkpt lat="43.61197" lon="3.8638">
        <ele>39.31100032</ele>
        <time>2020-06-06T11:40:06.000Z</time>
      </trkpt>
      <trkpt lat="43.61198" lon="3.86376">
        <ele>39.41100032</ele>
        <time>2020-06-06T11:40:07.000Z</time>
      </trkpt>
      <trkpt lat="43.61198" lon="3.86371">
        <ele>39.51100032</ele>
        <time>2020-06-06T11:40:08.000Z</time>
      </trkpt>
      <trkpt lat="43.61199" lon="3.86365">
        <ele>39.61100032</ele>
        <time>2020-06-06T11:40:09.000Z</time>
      </trkpt>
      <trkpt lat="43.612" lon="3.86359">
        <ele>39.71100032</ele>
        <time>2020-06-06T11:40:10.000Z</time>
      </trkpt>
      <trkpt lat="43.61201" lon="3.86353">
        <ele>39.81100032</ele>
        <time>2020-06-06T11:40:11.000Z</time>
      </trkpt>
      <trkpt lat="43.61202" lon="3.86347">
        <ele>39.91100032</ele>
        <time>2020-06-06T11:40:12.000Z</time>
      </trkpt>
      <trkpt lat="43.61202" lon="3.86341">
        <ele>40</ele>
        <time>2020-06-06T11:40:13.000Z</time>
      </trkpt>
      <trkpt lat="43.61203" lon="3.86335">
        <ele>40</ele>
        <time>2020-06-06T11:40:14.000Z</time>
      </trkpt>
      <trkpt lat="43.61203" lon="3.86329">
        <ele>40</ele>
        <time>2020-06-06T11:40:15.000Z</time>
      </trkpt>
      <trkpt lat="43.61204" lon="3.86323">
        <ele>40</ele>
        <time>2020-06-06T11:40:16.000Z</time>
      </trkpt>
      <trkpt lat="43.61204" lon="3.86317">
        <ele>40</ele>
        <time>2020-06-06T11:40:17.000Z</time>
      </trkpt>
      <trkpt lat="43.61205" lon="3.86311">
        <ele>40</ele>
        <time>2020-06-06T11:40:18.000Z</time>
      </trkpt>
      <trkpt lat="43.61205" lon="3.86306">
        <ele>40</ele>
        <time>2020-06-06T11:40:19.000Z</time>
      </trkpt>
      <trkpt lat="43.61205" lon="3.863">
        <ele>40</ele>
        <time>2020-06-06T11:40:20.000Z</time>
      </trkpt>
      <trkpt lat="43.61206" lon="3.86294">
        <ele>40</ele>
        <time>2020-06-06T11:40:21.000Z</time>
      </trkpt>
      <trkpt lat="43.61206" lon="3.86288">
        <ele>40</ele>
        <time>2020-06-06T11:40:22.000Z</time>
      </trkpt>
      <trkpt lat="43.61207" lon="3.86283">
        <ele>40.01100032</ele>
        <time>2020-06-06T11:40:23.000Z</time>
      </trkpt>
      <trkpt lat="43.61207" lon="3.86277">
        <ele>40.11100032</ele>
        <time>2020-06-06T11:40:24.000Z</time>
      </trkpt>
      <trkpt lat="43.61208" lon="3.86271">
        <ele>40.21100032</ele>
        <time>2020-06-06T11:40:25.000Z</time>
      </trkpt>
      <trkpt lat="43.61208" lon="3.86266">
        <ele>40.31100032</ele>
        <time>2020-06-06T11:40:26.000Z</time>
      </trkpt>
      <trkpt lat="43.61209" lon="3.8626">
        <ele>40.41100032</ele>
        <time>2020-06-06T11:40:27.000Z</time>
      </trkpt>
      <trkpt lat="43.61209" lon="3.86254">
        <ele>40.51100032</ele>
        <time>2020-06-06T11:40:28.000Z</time>
      </trkpt>
      <trkpt lat="43.61209" lon="3.86248">
        <ele>40.61100032</ele>
        <time>2020-06-06T11:40:29.000Z</time>
      </trkpt>
      <trkpt lat="43.61209" lon="3.86242">
        <ele>40.71100032</ele>
        <time>2020-06-06T11:40:30.000Z</time>
      </trkpt>
      <trkpt lat="43.61209" lon="3.86237">
        <ele>40.81100032</ele>
        <time>2020-06-06T11:40:31.000Z</time>
      </trkpt>
      <trkpt lat="43.6121" lon="3.86231">
        <ele>40.91100032</ele>
        <time>2020-06-06T11:40:32.000Z</time>
      </trkpt>
      <trkpt lat="43.6121" lon="3.86225">
        <ele>41.010859140746</ele>
        <time>2020-06-06T11:40:33.000Z</time>
      </trkpt>
      <trkpt lat="43.6121" lon="3.8622">
        <ele>41.109575730313</ele>
        <time>2020-06-06T11:40:34.000Z</time>
      </trkpt>
      <trkpt lat="43.6121" lon="3.86214">
        <ele>41.208292319881</ele>
        <time>2020-06-06T11:40:35.000Z</time>
      </trkpt>
      <trkpt lat="43.61211" lon="3.86208">
        <ele>41.307008909449</ele>
        <time>2020-06-06T11:40:36.000Z</time>
      </trkpt>
      <trkpt lat="43.61211" lon="3.86203">
        <ele>41.405725499016</ele>
        <time>2020-06-06T11:40:37.000Z</time>
      </trkpt>
      <trkpt lat="43.61211" lon="3.86198">
        <ele>41.504442088584</ele>
        <time>2020-06-06T11:40:38.000Z</time>
      </trkpt>
      <trkpt lat="43.61211" lon="3.86193">
        <ele>41.603158678152</ele>
        <time>2020-06-06T11:40:39.000Z</time>
      </trkpt>
      <trkpt lat="43.61211" lon="3.86187">
        <ele>41.701875267719</ele>
        <time>2020-06-06T11:40:40.000Z</time>
      </trkpt>
      <trkpt lat="43.61211" lon="3.86183">
        <ele>41.800591857287</ele>
        <time>2020-06-06T11:40:41.000Z</time>
      </trkpt>
      <trkpt lat="43.61211" lon="3.86178">
        <ele>41.899308446855</ele>
        <time>2020-06-06T11:40:42.000Z</time>
      </trkpt>
      <trkpt lat="43.61212" lon="3.86173">
        <ele>41.998025036422</ele>
        <time>2020-06-06T11:40:43.000Z</time>
      </trkpt>
      <trkpt lat="43.61212" lon="3.86168">
        <ele>42</ele>
        <time>2020-06-06T11:40:44.000Z</time>
      </trkpt>
      <trkpt lat="43.61212" lon="3.86163">
        <ele>42</ele>
        <time>2020-06-06T11:40:45.000Z</time>
      </trkpt>
      <trkpt lat="43.61212" lon="3.86158">
        <ele>42</ele>
        <time>2020-06-06T11:40:46.000Z</time>
      </trkpt>
      <trkpt lat="43.61212" lon="3.86153">
        <ele>42</ele>
        <time>2020-06-06T11:40:47.000Z</time>
      </trkpt>
      <trkpt lat="43.61212" lon="3.86148">
        <ele>42</ele>
        <time>2020-06-06T11:40:48.000Z</time>
      </trkpt>
      <trkpt lat="43.61213" lon="3.86143">
        <ele>42</ele>
        <time>2020-06-06T11:40:49.000Z</time>
      </trkpt>
      <trkpt lat="43.61215" lon="3.86139">
        <ele>42</ele>
        <time>2020-06-06T11:40:50.000Z</time>
      </trkpt>
      <trkpt lat="43.61216" lon="3.86134">
        <ele>42</ele>
        <time>2020-06-06T11:40:51.000Z</time>
      </trkpt>
      <trkpt lat="43.61217" lon="3.86129">
        <ele>42</ele>
        <time>2020-06-06T11:40:52.000Z</time>
      </trkpt>
      <trkpt lat="43.61218" lon="3.86124">
        <ele>42</ele>
        <time>2020-06-06T11:40:53.000Z</time>
      </trkpt>
      <trkpt lat="43.61219" lon="3.86118">
        <ele>42</ele>
        <time>2020-06-06T11:40:54.000Z</time>
      </trkpt>
      <trkpt lat="43.6122" lon="3.86112">
        <ele>42</ele>
        <time>2020-06-06T11:40:55.000Z</time>
      </trkpt>
      <trkpt lat="43.6122" lon="3.86107">
        <ele>42</ele>
        <time>2020-06-06T11:40:56.000Z</time>
      </trkpt>
      <trkpt lat="43.61221" lon="3.86101">
        <ele>42</ele>
        <time>2020-06-06T11:40:57.000Z</time>
      </trkpt>
      <trkpt lat="43.61222" lon="3.86095">
        <ele>42</ele>
        <time>2020-06-06T11:40:58.000Z</time>
      </trkpt>
      <trkpt lat="43.61223" lon="3.86089">
        <ele>42</ele>
        <time>2020-06-06T11:40:59.000Z</time>
      </trkpt>
      <trkpt lat="43.61224" lon="3.86084">
        <ele>42</ele>
        <time>2020-06-06T11:41:00.000Z</time>
      </trkpt>
      <trkpt lat="43.61225" lon="3.86079">
        <ele>42</ele>
        <time>2020-06-06T11:41:01.000Z</time>
      </trkpt>
      <trkpt lat="43.61226" lon="3.86074">
        <ele>42</ele>
        <time>2020-06-06T11:41:02.000Z</time>
      </trkpt>
      <trkpt lat="43.61228" lon="3.86069">
        <ele>42</ele>
        <time>2020-06-06T11:41:03.000Z</time>
      </trkpt>
      <trkpt lat="43.61229" lon="3.86064">
        <ele>42</ele>
        <time>2020-06-06T11:41:04.000Z</time>
      </trkpt>
      <trkpt lat="43.61231" lon="3.8606">
        <ele>42</ele>
        <time>2020-06-06T11:41:05.000Z</time>
      </trkpt>
      <trkpt lat="43.61233" lon="3.86055">
        <ele>42</ele>
        <time>2020-06-06T11:41:06.000Z</time>
      </trkpt>
      <trkpt lat="43.61235" lon="3.86048">
        <ele>42</ele>
        <time>2020-06-06T11:41:07.000Z</time>
      </trkpt>
      <trkpt lat="43.61237" lon="3.86043">
        <ele>42</ele>
        <time>2020-06-06T11:41:08.000Z</time>
      </trkpt>
      <trkpt lat="43.61239" lon="3.86037">
        <ele>42</ele>
        <time>2020-06-06T11:41:09.000Z</time>
      </trkpt>
      <trkpt lat="43.61241" lon="3.86033">
        <ele>42</ele>
        <time>2020-06-06T11:41:10.000Z</time>
      </trkpt>
      <trkpt lat="43.61244" lon="3.86028">
        <ele>42</ele>
        <time>2020-06-06T11:41:11.000Z</time>
      </trkpt>
      <trkpt lat="43.61246" lon="3.86024">
        <ele>42</ele>
        <time>2020-06-06T11:41:12.000Z</time>
      </trkpt>
      <trkpt lat="43.61248" lon="3.86019">
        <ele>42.01100032</ele>
        <time>2020-06-06T11:41:13.000Z</time>
      </trkpt>
      <trkpt lat="43.6125" lon="3.86014">
        <ele>42.11100032</ele>
        <time>2020-06-06T11:41:14.000Z</time>
      </trkpt>
      <trkpt lat="43.61253" lon="3.8601">
        <ele>42.21100032</ele>
        <time>2020-06-06T11:41:15.000Z</time>
      </trkpt>
      <trkpt lat="43.61255" lon="3.86005">
        <ele>42.31100032</ele>
        <time>2020-06-06T11:41:16.000Z</time>
      </trkpt>
      <trkpt lat="43.61257" lon="3.86">
        <ele>42.41100032</ele>
        <time>2020-06-06T11:41:17.000Z</time>
      </trkpt>
      <trkpt lat="43.6126" lon="3.85995">
        <ele>42.51100032</ele>
        <time>2020-06-06T11:41:18.000Z</time>
      </trkpt>
      <trkpt lat="43.61263" lon="3.8599">
        <ele>42.61100032</ele>
        <time>2020-06-06T11:41:19.000Z</time>
      </trkpt>
      <trkpt lat="43.61265" lon="3.85986">
        <ele>42.71100032</ele>
        <time>2020-06-06T11:41:20.000Z</time>
      </trkpt>
      <trkpt lat="43.61268" lon="3.85982">
        <ele>42.81100032</ele>
        <time>2020-06-06T11:41:21.000Z</time>
      </trkpt>
      <trkpt lat="43.61271" lon="3.85978">
        <ele>42.91100032</ele>
        <time>2020-06-06T11:41:22.000Z</time>
      </trkpt>
      <trkpt lat="43.61273" lon="3.85974">
        <ele>43.01100032</ele>
        <time>2020-06-06T11:41:23.000Z</time>
      </trkpt>
      <trkpt lat="43.61276" lon="3.8597">
        <ele>43.11100032</ele>
        <time>2020-06-06T11:41:24.000Z</time>
      </trkpt>
      <trkpt lat="43.6128" lon="3.85966">
        <ele>43.21100032</ele>
        <time>2020-06-06T11:41:25.000Z</time>
      </trkpt>
      <trkpt lat="43.61283" lon="3.85962">
        <ele>43.31100032</ele>
        <time>2020-06-06T11:41:26.000Z</time>
      </trkpt>
      <trkpt lat="43.61287" lon="3.85958">
        <ele>43.41100032</ele>
        <time>2020-06-06T11:41:27.000Z</time>
      </trkpt>
      <trkpt lat="43.6129" lon="3.85954">
        <ele>43.51100032</ele>
        <time>2020-06-06T11:41:28.000Z</time>
      </trkpt>
      <trkpt lat="43.61293" lon="3.8595">
        <ele>43.61100032</ele>
        <time>2020-06-06T11:41:29.000Z</time>
      </trkpt>
      <trkpt lat="43.61296" lon="3.85946">
        <ele>43.71100032</ele>
        <time>2020-06-06T11:41:30.000Z</time>
      </trkpt>
      <trkpt lat="43.61299" lon="3.85942">
        <ele>43.81100032</ele>
        <time>2020-06-06T11:41:31.000Z</time>
      </trkpt>
      <trkpt lat="43.61302" lon="3.85938">
        <ele>43.91100032</ele>
        <time>2020-06-06T11:41:32.000Z</time>
      </trkpt>
      <trkpt lat="43.61306" lon="3.85934">
        <ele>43.989278447234</ele>
        <time>2020-06-06T11:41:33.000Z</time>
      </trkpt>
      <trkpt lat="43.61309" lon="3.8593">
        <ele>43.891812621092</ele>
        <time>2020-06-06T11:41:34.000Z</time>
      </trkpt>
      <trkpt lat="43.61313" lon="3.85926">
        <ele>43.794346794949</ele>
        <time>2020-06-06T11:41:35.000Z</time>
      </trkpt>
      <trkpt lat="43.61316" lon="3.85922">
        <ele>43.696880968807</ele>
        <time>2020-06-06T11:41:36.000Z</time>
      </trkpt>
      <trkpt lat="43.61319" lon="3.85918">
        <ele>43.599415142665</ele>
        <time>2020-06-06T11:41:37.000Z</time>
      </trkpt>
      <trkpt lat="43.61322" lon="3.85914">
        <ele>43.501949316523</ele>
        <time>2020-06-06T11:41:38.000Z</time>
      </trkpt>
      <trkpt lat="43.61325" lon="3.8591">
        <ele>43.404483490381</ele>
        <time>2020-06-06T11:41:39.000Z</time>
      </trkpt>
      <trkpt lat="43.61328" lon="3.85906">
        <ele>43.307017664239</ele>
        <time>2020-06-06T11:41:40.000Z</time>
      </trkpt>
      <trkpt lat="43.61331" lon="3.85901">
        <ele>43.209551838096</ele>
        <time>2020-06-06T11:41:41.000Z</time>
      </trkpt>
      <trkpt lat="43.61335" lon="3.85897">
        <ele>43.112086011954</ele>
        <time>2020-06-06T11:41:42.000Z</time>
      </trkpt>
      <trkpt lat="43.61338" lon="3.85894">
        <ele>43.014620185812</ele>
        <time>2020-06-06T11:41:43.000Z</time>
      </trkpt>
      <trkpt lat="43.61341" lon="3.8589">
        <ele>43</ele>
        <time>2020-06-06T11:41:44.000Z</time>
      </trkpt>
      <trkpt lat="43.61345" lon="3.85886">
        <ele>43</ele>
        <time>2020-06-06T11:41:45.000Z</time>
      </trkpt>
      <trkpt lat="43.61348" lon="3.85882">
        <ele>43</ele>
        <time>2020-06-06T11:41:46.000Z</time>
      </trkpt>
      <trkpt lat="43.61351" lon="3.85878">
        <ele>43</ele>
        <time>2020-06-06T11:41:47.000Z</time>
      </trkpt>
      <trkpt lat="43.61355" lon="3.85875">
        <ele>43</ele>
        <time>2020-06-06T11:41:48.000Z</time>
      </trkpt>
      <trkpt lat="43.61358" lon="3.8587">
        <ele>43</ele>
        <time>2020-06-06T11:41:49.000Z</time>
      </trkpt>
      <trkpt lat="43.61361" lon="3.85867">
        <ele>43</ele>
        <time>2020-06-06T11:41:50.000Z</time>
      </trkpt>
      <trkpt lat="43.61365" lon="3.85863">
        <ele>43</ele>
        <time>2020-06-06T11:41:51.000Z</time>
      </trkpt>
      <trkpt lat="43.61368" lon="3.85859">
        <ele>43</ele>
        <time>2020-06-06T11:41:52.000Z</time>
      </trkpt>
      <trkpt lat="43.61371" lon="3.85855">
        <ele>43.01100032</ele>
        <time>2020-06-06T11:41:53.000Z</time>
      </trkpt>
      <trkpt lat="43.61374" lon="3.85851">
        <ele>43.11100032</ele>
        <time>2020-06-06T11:41:54.000Z</time>
      </trkpt>
      <trkpt lat="43.61377" lon="3.85847">
        <ele>43.21100032</ele>
        <time>2020-06-06T11:41:55.000Z</time>
      </trkpt>
      <trkpt lat="43.61381" lon="3.85844">
        <ele>43.31100032</ele>
        <time>2020-06-06T11:41:56.000Z</time>
      </trkpt>
      <trkpt lat="43.61383" lon="3.8584">
        <ele>43.41100032</ele>
        <time>2020-06-06T11:41:57.000Z</time>
      </trkpt>
      <trkpt lat="43.61386" lon="3.85836">
        <ele>43.51100032</ele>
        <time>2020-06-06T11:41:58.000Z</time>
      </trkpt>
      <trkpt lat="43.61389" lon="3.85833">
        <ele>43.61100032</ele>
        <time>2020-06-06T11:41:59.000Z</time>
      </trkpt>
      <trkpt lat="43.61392" lon="3.85829">
        <ele>43.71100032</ele>
        <time>2020-06-06T11:42:00.000Z</time>
      </trkpt>
      <trkpt lat="43.61395" lon="3.85826">
        <ele>43.81100032</ele>
        <time>2020-06-06T11:42:01.000Z</time>
      </trkpt>
      <trkpt lat="43.61398" lon="3.85822">
        <ele>43.91100032</ele>
        <time>2020-06-06T11:42:02.000Z</time>
      </trkpt>
      <trkpt lat="43.61401" lon="3.85819">
        <ele>44</ele>
        <time>2020-06-06T11:42:03.000Z</time>
      </trkpt>
      <trkpt lat="43.61404" lon="3.85814">
        <ele>44</ele>
        <time>2020-06-06T11:42:04.000Z</time>
      </trkpt>
      <trkpt lat="43.61407" lon="3.85811">
        <ele>44</ele>
        <time>2020-06-06T11:42:05.000Z</time>
      </trkpt>
      <trkpt lat="43.61411" lon="3.85807">
        <ele>44</ele>
        <time>2020-06-06T11:42:06.000Z</time>
      </trkpt>
      <trkpt lat="43.61414" lon="3.85804">
        <ele>44</ele>
        <time>2020-06-06T11:42:07.000Z</time>
      </trkpt>
      <trkpt lat="43.61417" lon="3.85801">
        <ele>44</ele>
        <time>2020-06-06T11:42:08.000Z</time>
      </trkpt>
      <trkpt lat="43.61421" lon="3.85797">
        <ele>44</ele>
        <time>2020-06-06T11:42:09.000Z</time>
      </trkpt>
      <trkpt lat="43.61424" lon="3.85794">
        <ele>44</ele>
        <time>2020-06-06T11:42:10.000Z</time>
      </trkpt>
      <trkpt lat="43.61427" lon="3.8579">
        <ele>44</ele>
        <time>2020-06-06T11:42:11.000Z</time>
      </trkpt>
      <trkpt lat="43.6143" lon="3.85787">
        <ele>44</ele>
        <time>2020-06-06T11:42:12.000Z</time>
      </trkpt>
      <trkpt lat="43.61433" lon="3.85783">
        <ele>44</ele>
        <time>2020-06-06T11:42:13.000Z</time>
      </trkpt>
      <trkpt lat="43.61436" lon="3.85779">
        <ele>44.097441259842</ele>
        <time>2020-06-06T11:42:14.000Z</time>
      </trkpt>
      <trkpt lat="43.61438" lon="3.85776">
        <ele>44.195866456693</ele>
        <time>2020-06-06T11:42:15.000Z</time>
      </trkpt>
      <trkpt lat="43.61441" lon="3.85772">
        <ele>44.294291653543</ele>
        <time>2020-06-06T11:42:16.000Z</time>
      </trkpt>
      <trkpt lat="43.61444" lon="3.85768">
        <ele>44.392716850394</ele>
        <time>2020-06-06T11:42:17.000Z</time>
      </trkpt>
      <trkpt lat="43.61447" lon="3.85765">
        <ele>44.491142047244</ele>
        <time>2020-06-06T11:42:18.000Z</time>
      </trkpt>
      <trkpt lat="43.61449" lon="3.85761">
        <ele>44.589567244095</ele>
        <time>2020-06-06T11:42:19.000Z</time>
      </trkpt>
      <trkpt lat="43.61452" lon="3.85757">
        <ele>44.687992440945</ele>
        <time>2020-06-06T11:42:20.000Z</time>
      </trkpt>
      <trkpt lat="43.61455" lon="3.85754">
        <ele>44.786417637795</ele>
        <time>2020-06-06T11:42:21.000Z</time>
      </trkpt>
      <trkpt lat="43.61458" lon="3.8575">
        <ele>44.884842834646</ele>
        <time>2020-06-06T11:42:22.000Z</time>
      </trkpt>
      <trkpt lat="43.61461" lon="3.85747">
        <ele>44.983268031496</ele>
        <time>2020-06-06T11:42:23.000Z</time>
      </trkpt>
      <trkpt lat="43.61464" lon="3.85743">
        <ele>45</ele>
        <time>2020-06-06T11:42:24.000Z</time>
      </trkpt>
      <trkpt lat="43.61467" lon="3.8574">
        <ele>45</ele>
        <time>2020-06-06T11:42:25.000Z</time>
      </trkpt>
      <trkpt lat="43.61469" lon="3.85736">
        <ele>45</ele>
        <time>2020-06-06T11:42:26.000Z</time>
      </trkpt>
      <trkpt lat="43.61472" lon="3.85733">
        <ele>45</ele>
        <time>2020-06-06T11:42:27.000Z</time>
      </trkpt>
      <trkpt lat="43.61475" lon="3.85729">
        <ele>45</ele>
        <time>2020-06-06T11:42:28.000Z</time>
      </trkpt>
      <trkpt lat="43.61477" lon="3.85725">
        <ele>45</ele>
        <time>2020-06-06T11:42:29.000Z</time>
      </trkpt>
      <trkpt lat="43.6148" lon="3.85721">
        <ele>45</ele>
        <time>2020-06-06T11:42:30.000Z</time>
      </trkpt>
      <trkpt lat="43.61483" lon="3.85718">
        <ele>45</ele>
        <time>2020-06-06T11:42:31.000Z</time>
      </trkpt>
      <trkpt lat="43.61486" lon="3.85715">
        <ele>45</ele>
        <time>2020-06-06T11:42:32.000Z</time>
      </trkpt>
      <trkpt lat="43.61489" lon="3.85711">
        <ele>45.02200064</ele>
        <time>2020-06-06T11:42:33.000Z</time>
      </trkpt>
      <trkpt lat="43.61492" lon="3.85709">
        <ele>45.22200064</ele>
        <time>2020-06-06T11:42:34.000Z</time>
      </trkpt>
      <trkpt lat="43.61494" lon="3.85707">
        <ele>45.42200064</ele>
        <time>2020-06-06T11:42:35.000Z</time>
      </trkpt>
      <trkpt lat="43.61498" lon="3.85704">
        <ele>45.62200064</ele>
        <time>2020-06-06T11:42:36.000Z</time>
      </trkpt>
      <trkpt lat="43.61501" lon="3.85701">
        <ele>45.82200064</ele>
        <time>2020-06-06T11:42:37.000Z</time>
      </trkpt>
      <trkpt lat="43.61504" lon="3.85698">
        <ele>46.02200064</ele>
        <time>2020-06-06T11:42:38.000Z</time>
      </trkpt>
      <trkpt lat="43.61507" lon="3.85694">
        <ele>46.22200064</ele>
        <time>2020-06-06T11:42:39.000Z</time>
      </trkpt>
      <trkpt lat="43.61509" lon="3.8569">
        <ele>46.42200064</ele>
        <time>2020-06-06T11:42:40.000Z</time>
      </trkpt>
      <trkpt lat="43.61512" lon="3.85686">
        <ele>46.62200064</ele>
        <time>2020-06-06T11:42:41.000Z</time>
      </trkpt>
      <trkpt lat="43.61515" lon="3.85682">
        <ele>46.82200064</ele>
        <time>2020-06-06T11:42:42.000Z</time>
      </trkpt>
      <trkpt lat="43.61518" lon="3.85678">
        <ele>47.01100032</ele>
        <time>2020-06-06T11:42:43.000Z</time>
      </trkpt>
      <trkpt lat="43.61521" lon="3.85674">
        <ele>47.11100032</ele>
        <time>2020-06-06T11:42:44.000Z</time>
      </trkpt>
      <trkpt lat="43.61524" lon="3.85669">
        <ele>47.21100032</ele>
        <time>2020-06-06T11:42:45.000Z</time>
      </trkpt>
      <trkpt lat="43.61527" lon="3.85666">
        <ele>47.31100032</ele>
        <time>2020-06-06T11:42:46.000Z</time>
      </trkpt>
      <trkpt lat="43.6153" lon="3.85663">
        <ele>47.41100032</ele>
        <time>2020-06-06T11:42:47.000Z</time>
      </trkpt>
      <trkpt lat="43.61533" lon="3.85659">
        <ele>47.51100032</ele>
        <time>2020-06-06T11:42:48.000Z</time>
      </trkpt>
      <trkpt lat="43.61536" lon="3.85656">
        <ele>47.61100032</ele>
        <time>2020-06-06T11:42:49.000Z</time>
      </trkpt>
      <trkpt lat="43.61539" lon="3.85654">
        <ele>47.71100032</ele>
        <time>2020-06-06T11:42:50.000Z</time>
      </trkpt>
      <trkpt lat="43.61541" lon="3.85651">
        <ele>47.81100032</ele>
        <time>2020-06-06T11:42:51.000Z</time>
      </trkpt>
      <trkpt lat="43.61544" lon="3.85648">
        <ele>47.91100032</ele>
        <time>2020-06-06T11:42:52.000Z</time>
      </trkpt>
      <trkpt lat="43.61546" lon="3.85645">
        <ele>47.98899968</ele>
        <time>2020-06-06T11:42:53.000Z</time>
      </trkpt>
      <trkpt lat="43.61548" lon="3.85643">
        <ele>47.88899968</ele>
        <time>2020-06-06T11:42:54.000Z</time>
      </trkpt>
      <trkpt lat="43.6155" lon="3.85641">
        <ele>47.78899968</ele>
        <time>2020-06-06T11:42:55.000Z</time>
      </trkpt>
      <trkpt lat="43.61552" lon="3.85639">
        <ele>47.68899968</ele>
        <time>2020-06-06T11:42:56.000Z</time>
      </trkpt>
      <trkpt lat="43.61554" lon="3.85638">
        <ele>47.48899968</ele>
        <time>2020-06-06T11:42:58.000Z</time>
      </trkpt>
      <trkpt lat="43.61556" lon="3.85636">
        <ele>47.28899968</ele>
        <time>2020-06-06T11:43:00.000Z</time>
      </trkpt>
      <trkpt lat="43.61559" lon="3.85634">
        <ele>47</ele>
        <time>2020-06-06T11:43:03.000Z</time>
      </trkpt>
      <trkpt lat="43.6156" lon="3.85633">
        <ele>47</ele>
        <time>2020-06-06T11:43:04.000Z</time>
      </trkpt>
      <trkpt lat="43.61562" lon="3.85631">
        <ele>47</ele>
        <time>2020-06-06T11:43:05.000Z</time>
      </trkpt>
      <trkpt lat="43.61564" lon="3.85628">
        <ele>47</ele>
        <time>2020-06-06T11:43:06.000Z</time>
      </trkpt>
      <trkpt lat="43.61566" lon="3.85625">
        <ele>47</ele>
        <time>2020-06-06T11:43:07.000Z</time>
      </trkpt>
      <trkpt lat="43.61568" lon="3.85621">
        <ele>47</ele>
        <time>2020-06-06T11:43:08.000Z</time>
      </trkpt>
      <trkpt lat="43.61571" lon="3.85618">
        <ele>47</ele>
        <time>2020-06-06T11:43:09.000Z</time>
      </trkpt>
      <trkpt lat="43.61573" lon="3.85615">
        <ele>47</ele>
        <time>2020-06-06T11:43:10.000Z</time>
      </trkpt>
      <trkpt lat="43.61576" lon="3.85611">
        <ele>47</ele>
        <time>2020-06-06T11:43:11.000Z</time>
      </trkpt>
      <trkpt lat="43.61579" lon="3.85608">
        <ele>47</ele>
        <time>2020-06-06T11:43:12.000Z</time>
      </trkpt>
      <trkpt lat="43.61581" lon="3.85606">
        <ele>47</ele>
        <time>2020-06-06T11:43:13.000Z</time>
      </trkpt>
      <trkpt lat="43.61584" lon="3.85603">
        <ele>47</ele>
        <time>2020-06-06T11:43:14.000Z</time>
      </trkpt>
      <trkpt lat="43.61587" lon="3.85599">
        <ele>47</ele>
        <time>2020-06-06T11:43:15.000Z</time>
      </trkpt>
      <trkpt lat="43.6159" lon="3.85596">
        <ele>47</ele>
        <time>2020-06-06T11:43:16.000Z</time>
      </trkpt>
      <trkpt lat="43.61593" lon="3.85592">
        <ele>47</ele>
        <time>2020-06-06T11:43:17.000Z</time>
      </trkpt>
      <trkpt lat="43.61595" lon="3.85589">
        <ele>47</ele>
        <time>2020-06-06T11:43:18.000Z</time>
      </trkpt>
      <trkpt lat="43.61598" lon="3.85586">
        <ele>47</ele>
        <time>2020-06-06T11:43:19.000Z</time>
      </trkpt>
      <trkpt lat="43.61601" lon="3.85583">
        <ele>47</ele>
        <time>2020-06-06T11:43:20.000Z</time>
      </trkpt>
      <trkpt lat="43.61604" lon="3.8558">
        <ele>47</ele>
        <time>2020-06-06T11:43:21.000Z</time>
      </trkpt>
      <trkpt lat="43.61607" lon="3.85576">
        <ele>47</ele>
        <time>2020-06-06T11:43:22.000Z</time>
      </trkpt>
      <trkpt lat="43.6161" lon="3.85573">
        <ele>47</ele>
        <time>2020-06-06T11:43:23.000Z</time>
      </trkpt>
      <trkpt lat="43.61612" lon="3.8557">
        <ele>47</ele>
        <time>2020-06-06T11:43:24.000Z</time>
      </trkpt>
      <trkpt lat="43.61615" lon="3.85566">
        <ele>47</ele>
        <time>2020-06-06T11:43:25.000Z</time>
      </trkpt>
      <trkpt lat="43.61618" lon="3.85562">
        <ele>47</ele>
        <time>2020-06-06T11:43:26.000Z</time>
      </trkpt>
      <trkpt lat="43.6162" lon="3.85559">
        <ele>47</ele>
        <time>2020-06-06T11:43:27.000Z</time>
      </trkpt>
      <trkpt lat="43.61623" lon="3.85555">
        <ele>47</ele>
        <time>2020-06-06T11:43:28.000Z</time>
      </trkpt>
      <trkpt lat="43.61626" lon="3.85552">
        <ele>47</ele>
        <time>2020-06-06T11:43:29.000Z</time>
      </trkpt>
      <trkpt lat="43.61628" lon="3.85549">
        <ele>47</ele>
        <time>2020-06-06T11:43:30.000Z</time>
      </trkpt>
      <trkpt lat="43.61631" lon="3.85545">
        <ele>47</ele>
        <time>2020-06-06T11:43:31.000Z</time>
      </trkpt>
      <trkpt lat="43.61634" lon="3.85542">
        <ele>47</ele>
        <time>2020-06-06T11:43:32.000Z</time>
      </trkpt>
      <trkpt lat="43.61637" lon="3.8554">
        <ele>47.010752997614</ele>
        <time>2020-06-06T11:43:33.000Z</time>
      </trkpt>
      <trkpt lat="43.6164" lon="3.85536">
        <ele>47.108504677692</ele>
        <time>2020-06-06T11:43:34.000Z</time>
      </trkpt>
      <trkpt lat="43.61643" lon="3.85533">
        <ele>47.206256357769</ele>
        <time>2020-06-06T11:43:35.000Z</time>
      </trkpt>
      <trkpt lat="43.61646" lon="3.8553">
        <ele>47.304008037847</ele>
        <time>2020-06-06T11:43:36.000Z</time>
      </trkpt>
      <trkpt lat="43.61648" lon="3.85527">
        <ele>47.401759717925</ele>
        <time>2020-06-06T11:43:37.000Z</time>
      </trkpt>
      <trkpt lat="43.61651" lon="3.85523">
        <ele>47.499511398002</ele>
        <time>2020-06-06T11:43:38.000Z</time>
      </trkpt>
      <trkpt lat="43.61654" lon="3.8552">
        <ele>47.59726307808</ele>
        <time>2020-06-06T11:43:39.000Z</time>
      </trkpt>
      <trkpt lat="43.61657" lon="3.85516">
        <ele>47.695014758158</ele>
        <time>2020-06-06T11:43:40.000Z</time>
      </trkpt>
      <trkpt lat="43.6166" lon="3.85513">
        <ele>47.792766438235</ele>
        <time>2020-06-06T11:43:41.000Z</time>
      </trkpt>
      <trkpt lat="43.61663" lon="3.8551">
        <ele>47.890518118313</ele>
        <time>2020-06-06T11:43:42.000Z</time>
      </trkpt>
      <trkpt lat="43.61666" lon="3.85507">
        <ele>47.988269798391</ele>
        <time>2020-06-06T11:43:43.000Z</time>
      </trkpt>
      <trkpt lat="43.61669" lon="3.85503">
        <ele>48</ele>
        <time>2020-06-06T11:43:44.000Z</time>
      </trkpt>
      <trkpt lat="43.61672" lon="3.855">
        <ele>48</ele>
        <time>2020-06-06T11:43:45.000Z</time>
      </trkpt>
      <trkpt lat="43.61675" lon="3.85497">
        <ele>48</ele>
        <time>2020-06-06T11:43:46.000Z</time>
      </trkpt>
      <trkpt lat="43.61677" lon="3.85494">
        <ele>48</ele>
        <time>2020-06-06T11:43:47.000Z</time>
      </trkpt>
      <trkpt lat="43.6168" lon="3.85491">
        <ele>48</ele>
        <time>2020-06-06T11:43:48.000Z</time>
      </trkpt>
      <trkpt lat="43.61682" lon="3.85487">
        <ele>48</ele>
        <time>2020-06-06T11:43:49.000Z</time>
      </trkpt>
      <trkpt lat="43.61685" lon="3.85484">
        <ele>48</ele>
        <time>2020-06-06T11:43:50.000Z</time>
      </trkpt>
      <trkpt lat="43.61688" lon="3.8548">
        <ele>48</ele>
        <time>2020-06-06T11:43:51.000Z</time>
      </trkpt>
      <trkpt lat="43.61691" lon="3.85477">
        <ele>48</ele>
        <time>2020-06-06T11:43:52.000Z</time>
      </trkpt>
      <trkpt lat="43.61694" lon="3.85473">
        <ele>48.01100032</ele>
        <time>2020-06-06T11:43:53.000Z</time>
      </trkpt>
      <trkpt lat="43.61697" lon="3.8547">
        <ele>48.11100032</ele>
        <time>2020-06-06T11:43:54.000Z</time>
      </trkpt>
      <trkpt lat="43.61699" lon="3.85466">
        <ele>48.21100032</ele>
        <time>2020-06-06T11:43:55.000Z</time>
      </trkpt>
      <trkpt lat="43.61702" lon="3.85463">
        <ele>48.31100032</ele>
        <time>2020-06-06T11:43:56.000Z</time>
      </trkpt>
      <trkpt lat="43.61705" lon="3.85459">
        <ele>48.41100032</ele>
        <time>2020-06-06T11:43:57.000Z</time>
      </trkpt>
      <trkpt lat="43.61707" lon="3.85456">
        <ele>48.51100032</ele>
        <time>2020-06-06T11:43:58.000Z</time>
      </trkpt>
      <trkpt lat="43.6171" lon="3.85452">
        <ele>48.61100032</ele>
        <time>2020-06-06T11:43:59.000Z</time>
      </trkpt>
      <trkpt lat="43.61713" lon="3.85448">
        <ele>48.71100032</ele>
        <time>2020-06-06T11:44:00.000Z</time>
      </trkpt>
      <trkpt lat="43.61715" lon="3.85445">
        <ele>48.81100032</ele>
        <time>2020-06-06T11:44:01.000Z</time>
      </trkpt>
      <trkpt lat="43.61718" lon="3.85441">
        <ele>48.91100032</ele>
        <time>2020-06-06T11:44:02.000Z</time>
      </trkpt>
      <trkpt lat="43.61721" lon="3.85438">
        <ele>49.010880629593</ele>
        <time>2020-06-06T11:44:03.000Z</time>
      </trkpt>
      <trkpt lat="43.61724" lon="3.85435">
        <ele>49.109792566633</ele>
        <time>2020-06-06T11:44:04.000Z</time>
      </trkpt>
      <trkpt lat="43.61726" lon="3.85431">
        <ele>49.208704503674</ele>
        <time>2020-06-06T11:44:05.000Z</time>
      </trkpt>
      <trkpt lat="43.61729" lon="3.85428">
        <ele>49.307616440715</ele>
        <time>2020-06-06T11:44:06.000Z</time>
      </trkpt>
      <trkpt lat="43.61732" lon="3.85425">
        <ele>49.406528377756</ele>
        <time>2020-06-06T11:44:07.000Z</time>
      </trkpt>
      <trkpt lat="43.61735" lon="3.85422">
        <ele>49.505440314796</ele>
        <time>2020-06-06T11:44:08.000Z</time>
      </trkpt>
      <trkpt lat="43.61737" lon="3.85419">
        <ele>49.604352251837</ele>
        <time>2020-06-06T11:44:09.000Z</time>
      </trkpt>
      <trkpt lat="43.6174" lon="3.85416">
        <ele>49.703264188878</ele>
        <time>2020-06-06T11:44:10.000Z</time>
      </trkpt>
      <trkpt lat="43.61743" lon="3.85412">
        <ele>49.802176125918</ele>
        <time>2020-06-06T11:44:11.000Z</time>
      </trkpt>
      <trkpt lat="43.61745" lon="3.85409">
        <ele>49.901088062959</ele>
        <time>2020-06-06T11:44:12.000Z</time>
      </trkpt>
      <trkpt lat="43.61748" lon="3.85406">
        <ele>50</ele>
        <time>2020-06-06T11:44:13.000Z</time>
      </trkpt>
      <trkpt lat="43.6175" lon="3.85402">
        <ele>50</ele>
        <time>2020-06-06T11:44:14.000Z</time>
      </trkpt>
      <trkpt lat="43.61752" lon="3.85398">
        <ele>50</ele>
        <time>2020-06-06T11:44:15.000Z</time>
      </trkpt>
      <trkpt lat="43.61754" lon="3.85394">
        <ele>50</ele>
        <time>2020-06-06T11:44:16.000Z</time>
      </trkpt>
      <trkpt lat="43.61756" lon="3.8539">
        <ele>50</ele>
        <time>2020-06-06T11:44:17.000Z</time>
      </trkpt>
      <trkpt lat="43.61759" lon="3.85386">
        <ele>50</ele>
        <time>2020-06-06T11:44:18.000Z</time>
      </trkpt>
      <trkpt lat="43.61761" lon="3.85381">
        <ele>50</ele>
        <time>2020-06-06T11:44:19.000Z</time>
      </trkpt>
      <trkpt lat="43.61763" lon="3.85377">
        <ele>50</ele>
        <time>2020-06-06T11:44:20.000Z</time>
      </trkpt>
      <trkpt lat="43.61765" lon="3.85372">
        <ele>50</ele>
        <time>2020-06-06T11:44:21.000Z</time>
      </trkpt>
      <trkpt lat="43.61768" lon="3.85368">
        <ele>50</ele>
        <time>2020-06-06T11:44:22.000Z</time>
      </trkpt>
      <trkpt lat="43.61771" lon="3.85363">
        <ele>50</ele>
        <time>2020-06-06T11:44:23.000Z</time>
      </trkpt>
      <trkpt lat="43.61774" lon="3.8536">
        <ele>50</ele>
        <time>2020-06-06T11:44:24.000Z</time>
      </trkpt>
      <trkpt lat="43.61778" lon="3.85357">
        <ele>50</ele>
        <time>2020-06-06T11:44:25.000Z</time>
      </trkpt>
      <trkpt lat="43.61782" lon="3.85354">
        <ele>50</ele>
        <time>2020-06-06T11:44:26.000Z</time>
      </trkpt>
      <trkpt lat="43.61786" lon="3.85352">
        <ele>50</ele>
        <time>2020-06-06T11:44:27.000Z</time>
      </trkpt>
      <trkpt lat="43.6179" lon="3.8535">
        <ele>50</ele>
        <time>2020-06-06T11:44:28.000Z</time>
      </trkpt>
      <trkpt lat="43.61794" lon="3.85347">
        <ele>50</ele>
        <time>2020-06-06T11:44:29.000Z</time>
      </trkpt>
      <trkpt lat="43.61798" lon="3.85344">
        <ele>50</ele>
        <time>2020-06-06T11:44:30.000Z</time>
      </trkpt>
      <trkpt lat="43.61803" lon="3.85341">
        <ele>50</ele>
        <time>2020-06-06T11:44:31.000Z</time>
      </trkpt>
      <trkpt lat="43.61807" lon="3.85338">
        <ele>50</ele>
        <time>2020-06-06T11:44:32.000Z</time>
      </trkpt>
      <trkpt lat="43.61812" lon="3.85336">
        <ele>50</ele>
        <time>2020-06-06T11:44:33.000Z</time>
      </trkpt>
      <trkpt lat="43.61816" lon="3.85333">
        <ele>50</ele>
        <time>2020-06-06T11:44:34.000Z</time>
      </trkpt>
      <trkpt lat="43.61821" lon="3.8533">
        <ele>50</ele>
        <time>2020-06-06T11:44:35.000Z</time>
      </trkpt>
      <trkpt lat="43.61825" lon="3.85327">
        <ele>50</ele>
        <time>2020-06-06T11:44:36.000Z</time>
      </trkpt>
      <trkpt lat="43.6183" lon="3.85323">
        <ele>50</ele>
        <time>2020-06-06T11:44:37.000Z</time>
      </trkpt>
      <trkpt lat="43.61834" lon="3.8532">
        <ele>50</ele>
        <time>2020-06-06T11:44:38.000Z</time>
      </trkpt>
      <trkpt lat="43.61838" lon="3.85316">
        <ele>50</ele>
        <time>2020-06-06T11:44:39.000Z</time>
      </trkpt>
      <trkpt lat="43.61843" lon="3.85313">
        <ele>50</ele>
        <time>2020-06-06T11:44:40.000Z</time>
      </trkpt>
      <trkpt lat="43.61847" lon="3.85309">
        <ele>50</ele>
        <time>2020-06-06T11:44:41.000Z</time>
      </trkpt>
      <trkpt lat="43.61851" lon="3.85305">
        <ele>50</ele>
        <time>2020-06-06T11:44:42.000Z</time>
      </trkpt>
      <trkpt lat="43.61856" lon="3.85302">
        <ele>50</ele>
        <time>2020-06-06T11:44:43.000Z</time>
      </trkpt>
      <trkpt lat="43.6186" lon="3.85298">
        <ele>50</ele>
        <time>2020-06-06T11:44:44.000Z</time>
      </trkpt>
      <trkpt lat="43.61864" lon="3.85293">
        <ele>50</ele>
        <time>2020-06-06T11:44:45.000Z</time>
      </trkpt>
      <trkpt lat="43.61867" lon="3.85289">
        <ele>50</ele>
        <time>2020-06-06T11:44:46.000Z</time>
      </trkpt>
      <trkpt lat="43.61871" lon="3.85284">
        <ele>50</ele>
        <time>2020-06-06T11:44:47.000Z</time>
      </trkpt>
      <trkpt lat="43.61875" lon="3.85279">
        <ele>50</ele>
        <time>2020-06-06T11:44:48.000Z</time>
      </trkpt>
      <trkpt lat="43.61878" lon="3.85274">
        <ele>50</ele>
        <time>2020-06-06T11:44:49.000Z</time>
      </trkpt>
      <trkpt lat="43.61882" lon="3.85269">
        <ele>50</ele>
        <time>2020-06-06T11:44:50.000Z</time>
      </trkpt>
      <trkpt lat="43.61885" lon="3.85264">
        <ele>50</ele>
        <time>2020-06-06T11:44:51.000Z</time>
      </trkpt>
      <trkpt lat="43.61888" lon="3.85259">
        <ele>50</ele>
        <time>2020-06-06T11:44:52.000Z</time>
      </trkpt>
      <trkpt lat="43.61891" lon="3.85253">
        <ele>50</ele>
        <time>2020-06-06T11:44:53.000Z</time>
      </trkpt>
      <trkpt lat="43.61895" lon="3.85248">
        <ele>50</ele>
        <time>2020-06-06T11:44:54.000Z</time>
      </trkpt>
      <trkpt lat="43.61898" lon="3.85243">
        <ele>50</ele>
        <time>2020-06-06T11:44:55.000Z</time>
      </trkpt>
      <trkpt lat="43.61901" lon="3.85238">
        <ele>50</ele>
        <time>2020-06-06T11:44:56.000Z</time>
      </trkpt>
      <trkpt lat="43.61905" lon="3.85233">
        <ele>50</ele>
        <time>2020-06-06T11:44:57.000Z</time>
      </trkpt>
      <trkpt lat="43.61908" lon="3.85228">
        <ele>50</ele>
        <time>2020-06-06T11:44:58.000Z</time>
      </trkpt>
      <trkpt lat="43.61911" lon="3.85222">
        <ele>50</ele>
        <time>2020-06-06T11:44:59.000Z</time>
      </trkpt>
      <trkpt lat="43.61915" lon="3.85217">
        <ele>50</ele>
        <time>2020-06-06T11:45:00.000Z</time>
      </trkpt>
      <trkpt lat="43.61918" lon="3.85212">
        <ele>50</ele>
        <time>2020-06-06T11:45:01.000Z</time>
      </trkpt>
      <trkpt lat="43.61921" lon="3.85207">
        <ele>50</ele>
        <time>2020-06-06T11:45:02.000Z</time>
      </trkpt>
      <trkpt lat="43.61925" lon="3.85201">
        <ele>50</ele>
        <time>2020-06-06T11:45:03.000Z</time>
      </trkpt>
      <trkpt lat="43.61928" lon="3.85196">
        <ele>50</ele>
        <time>2020-06-06T11:45:04.000Z</time>
      </trkpt>
      <trkpt lat="43.61932" lon="3.85191">
        <ele>50</ele>
        <time>2020-06-06T11:45:05.000Z</time>
      </trkpt>
      <trkpt lat="43.61935" lon="3.85186">
        <ele>50</ele>
        <time>2020-06-06T11:45:06.000Z</time>
      </trkpt>
      <trkpt lat="43.61939" lon="3.8518">
        <ele>50</ele>
        <time>2020-06-06T11:45:07.000Z</time>
      </trkpt>
      <trkpt lat="43.61942" lon="3.85175">
        <ele>50</ele>
        <time>2020-06-06T11:45:08.000Z</time>
      </trkpt>
      <trkpt lat="43.61945" lon="3.8517">
        <ele>50</ele>
        <time>2020-06-06T11:45:09.000Z</time>
      </trkpt>
      <trkpt lat="43.61949" lon="3.85165">
        <ele>50</ele>
        <time>2020-06-06T11:45:10.000Z</time>
      </trkpt>
      <trkpt lat="43.61953" lon="3.85161">
        <ele>50</ele>
        <time>2020-06-06T11:45:11.000Z</time>
      </trkpt>
      <trkpt lat="43.61956" lon="3.85156">
        <ele>50</ele>
        <time>2020-06-06T11:45:12.000Z</time>
      </trkpt>
      <trkpt lat="43.6196" lon="3.85152">
        <ele>50</ele>
        <time>2020-06-06T11:45:13.000Z</time>
      </trkpt>
      <trkpt lat="43.61963" lon="3.85148">
        <ele>49.907142530612</ele>
        <time>2020-06-06T11:45:14.000Z</time>
      </trkpt>
      <trkpt lat="43.61966" lon="3.85144">
        <ele>49.805101714286</ele>
        <time>2020-06-06T11:45:15.000Z</time>
      </trkpt>
      <trkpt lat="43.61969" lon="3.85141">
        <ele>49.703060897959</ele>
        <time>2020-06-06T11:45:16.000Z</time>
      </trkpt>
      <trkpt lat="43.61972" lon="3.85137">
        <ele>49.601020081633</ele>
        <time>2020-06-06T11:45:17.000Z</time>
      </trkpt>
      <trkpt lat="43.61976" lon="3.85134">
        <ele>49.498979265306</ele>
        <time>2020-06-06T11:45:18.000Z</time>
      </trkpt>
      <trkpt lat="43.61979" lon="3.8513">
        <ele>49.39693844898</ele>
        <time>2020-06-06T11:45:19.000Z</time>
      </trkpt>
      <trkpt lat="43.61983" lon="3.85126">
        <ele>49.294897632653</ele>
        <time>2020-06-06T11:45:20.000Z</time>
      </trkpt>
      <trkpt lat="43.61986" lon="3.85122">
        <ele>49.192856816326</ele>
        <time>2020-06-06T11:45:21.000Z</time>
      </trkpt>
      <trkpt lat="43.61991" lon="3.85119">
        <ele>49.090816</ele>
        <time>2020-06-06T11:45:22.000Z</time>
      </trkpt>
      <trkpt lat="43.61995" lon="3.85116">
        <ele>49</ele>
        <time>2020-06-06T11:45:23.000Z</time>
      </trkpt>
      <trkpt lat="43.61999" lon="3.85113">
        <ele>49</ele>
        <time>2020-06-06T11:45:24.000Z</time>
      </trkpt>
      <trkpt lat="43.62003" lon="3.85109">
        <ele>49</ele>
        <time>2020-06-06T11:45:25.000Z</time>
      </trkpt>
      <trkpt lat="43.62006" lon="3.85104">
        <ele>49</ele>
        <time>2020-06-06T11:45:26.000Z</time>
      </trkpt>
      <trkpt lat="43.62007" lon="3.85098">
        <ele>49</ele>
        <time>2020-06-06T11:45:27.000Z</time>
      </trkpt>
      <trkpt lat="43.62008" lon="3.85092">
        <ele>49</ele>
        <time>2020-06-06T11:45:28.000Z</time>
      </trkpt>
      <trkpt lat="43.62009" lon="3.85086">
        <ele>49</ele>
        <time>2020-06-06T11:45:29.000Z</time>
      </trkpt>
      <trkpt lat="43.62009" lon="3.8508">
        <ele>49</ele>
        <time>2020-06-06T11:45:30.000Z</time>
      </trkpt>
      <trkpt lat="43.6201" lon="3.85074">
        <ele>49</ele>
        <time>2020-06-06T11:45:31.000Z</time>
      </trkpt>
      <trkpt lat="43.62009" lon="3.85069">
        <ele>49</ele>
        <time>2020-06-06T11:45:32.000Z</time>
      </trkpt>
      <trkpt lat="43.62009" lon="3.85063">
        <ele>49</ele>
        <time>2020-06-06T11:45:33.000Z</time>
      </trkpt>
      <trkpt lat="43.6201" lon="3.85058">
        <ele>49</ele>
        <time>2020-06-06T11:45:34.000Z</time>
      </trkpt>
      <trkpt lat="43.6201" lon="3.85053">
        <ele>49</ele>
        <time>2020-06-06T11:45:35.000Z</time>
      </trkpt>
      <trkpt lat="43.62011" lon="3.85048">
        <ele>49</ele>
        <time>2020-06-06T11:45:36.000Z</time>
      </trkpt>
      <trkpt lat="43.62013" lon="3.85043">
        <ele>49</ele>
        <time>2020-06-06T11:45:37.000Z</time>
      </trkpt>
      <trkpt lat="43.62015" lon="3.85039">
        <ele>49</ele>
        <time>2020-06-06T11:45:38.000Z</time>
      </trkpt>
      <trkpt lat="43.62017" lon="3.85034">
        <ele>49</ele>
        <time>2020-06-06T11:45:39.000Z</time>
      </trkpt>
      <trkpt lat="43.6202" lon="3.85029">
        <ele>49</ele>
        <time>2020-06-06T11:45:40.000Z</time>
      </trkpt>
      <trkpt lat="43.62022" lon="3.85025">
        <ele>49</ele>
        <time>2020-06-06T11:45:41.000Z</time>
      </trkpt>
      <trkpt lat="43.62025" lon="3.8502">
        <ele>49</ele>
        <time>2020-06-06T11:45:42.000Z</time>
      </trkpt>
      <trkpt lat="43.62028" lon="3.85015">
        <ele>49</ele>
        <time>2020-06-06T11:45:43.000Z</time>
      </trkpt>
      <trkpt lat="43.6203" lon="3.8501">
        <ele>49.088205755666</ele>
        <time>2020-06-06T11:45:44.000Z</time>
      </trkpt>
      <trkpt lat="43.62033" lon="3.85005">
        <ele>49.190769824568</ele>
        <time>2020-06-06T11:45:45.000Z</time>
      </trkpt>
      <trkpt lat="43.62036" lon="3.85">
        <ele>49.29333389347</ele>
        <time>2020-06-06T11:45:46.000Z</time>
      </trkpt>
      <trkpt lat="43.62039" lon="3.84996">
        <ele>49.395897962372</ele>
        <time>2020-06-06T11:45:47.000Z</time>
      </trkpt>
      <trkpt lat="43.62041" lon="3.84991">
        <ele>49.498462031274</ele>
        <time>2020-06-06T11:45:48.000Z</time>
      </trkpt>
      <trkpt lat="43.62044" lon="3.84986">
        <ele>49.601026100176</ele>
        <time>2020-06-06T11:45:49.000Z</time>
      </trkpt>
      <trkpt lat="43.62047" lon="3.84981">
        <ele>49.703590169078</ele>
        <time>2020-06-06T11:45:50.000Z</time>
      </trkpt>
      <trkpt lat="43.62049" lon="3.84976">
        <ele>49.80615423798</ele>
        <time>2020-06-06T11:45:51.000Z</time>
      </trkpt>
      <trkpt lat="43.62052" lon="3.84971">
        <ele>49.908718306882</ele>
        <time>2020-06-06T11:45:52.000Z</time>
      </trkpt>
      <trkpt lat="43.62054" lon="3.84966">
        <ele>50</ele>
        <time>2020-06-06T11:45:53.000Z</time>
      </trkpt>
      <trkpt lat="43.62057" lon="3.84962">
        <ele>50</ele>
        <time>2020-06-06T11:45:54.000Z</time>
      </trkpt>
      <trkpt lat="43.62059" lon="3.84957">
        <ele>50</ele>
        <time>2020-06-06T11:45:55.000Z</time>
      </trkpt>
      <trkpt lat="43.62062" lon="3.84952">
        <ele>50</ele>
        <time>2020-06-06T11:45:56.000Z</time>
      </trkpt>
      <trkpt lat="43.62065" lon="3.84947">
        <ele>50</ele>
        <time>2020-06-06T11:45:57.000Z</time>
      </trkpt>
      <trkpt lat="43.62068" lon="3.84942">
        <ele>50</ele>
        <time>2020-06-06T11:45:58.000Z</time>
      </trkpt>
      <trkpt lat="43.62071" lon="3.84937">
        <ele>50</ele>
        <time>2020-06-06T11:45:59.000Z</time>
      </trkpt>
      <trkpt lat="43.62074" lon="3.84931">
        <ele>50</ele>
        <time>2020-06-06T11:46:00.000Z</time>
      </trkpt>
      <trkpt lat="43.62077" lon="3.84926">
        <ele>50</ele>
        <time>2020-06-06T11:46:01.000Z</time>
      </trkpt>
      <trkpt lat="43.6208" lon="3.8492">
        <ele>50</ele>
        <time>2020-06-06T11:46:02.000Z</time>
      </trkpt>
      <trkpt lat="43.62084" lon="3.84915">
        <ele>49.98899968</ele>
        <time>2020-06-06T11:46:03.000Z</time>
      </trkpt>
      <trkpt lat="43.62087" lon="3.84909">
        <ele>49.88899968</ele>
        <time>2020-06-06T11:46:04.000Z</time>
      </trkpt>
      <trkpt lat="43.6209" lon="3.84903">
        <ele>49.78899968</ele>
        <time>2020-06-06T11:46:05.000Z</time>
      </trkpt>
      <trkpt lat="43.62094" lon="3.84897">
        <ele>49.68899968</ele>
        <time>2020-06-06T11:46:06.000Z</time>
      </trkpt>
      <trkpt lat="43.62097" lon="3.84891">
        <ele>49.58899968</ele>
        <time>2020-06-06T11:46:07.000Z</time>
      </trkpt>
      <trkpt lat="43.621" lon="3.84885">
        <ele>49.48899968</ele>
        <time>2020-06-06T11:46:08.000Z</time>
      </trkpt>
      <trkpt lat="43.62104" lon="3.84879">
        <ele>49.38899968</ele>
        <time>2020-06-06T11:46:09.000Z</time>
      </trkpt>
      <trkpt lat="43.62107" lon="3.84873">
        <ele>49.28899968</ele>
        <time>2020-06-06T11:46:10.000Z</time>
      </trkpt>
      <trkpt lat="43.62111" lon="3.84867">
        <ele>49.18899968</ele>
        <time>2020-06-06T11:46:11.000Z</time>
      </trkpt>
      <trkpt lat="43.62114" lon="3.84861">
        <ele>49.08899968</ele>
        <time>2020-06-06T11:46:12.000Z</time>
      </trkpt>
      <trkpt lat="43.62118" lon="3.84855">
        <ele>49</ele>
        <time>2020-06-06T11:46:13.000Z</time>
      </trkpt>
      <trkpt lat="43.62121" lon="3.84849">
        <ele>49</ele>
        <time>2020-06-06T11:46:14.000Z</time>
      </trkpt>
      <trkpt lat="43.62124" lon="3.84843">
        <ele>49</ele>
        <time>2020-06-06T11:46:15.000Z</time>
      </trkpt>
      <trkpt lat="43.62128" lon="3.84837">
        <ele>49</ele>
        <time>2020-06-06T11:46:16.000Z</time>
      </trkpt>
      <trkpt lat="43.62131" lon="3.84831">
        <ele>49</ele>
        <time>2020-06-06T11:46:17.000Z</time>
      </trkpt>
      <trkpt lat="43.62134" lon="3.84826">
        <ele>49</ele>
        <time>2020-06-06T11:46:18.000Z</time>
      </trkpt>
      <trkpt lat="43.62137" lon="3.84821">
        <ele>49</ele>
        <time>2020-06-06T11:46:19.000Z</time>
      </trkpt>
      <trkpt lat="43.6214" lon="3.84816">
        <ele>49</ele>
        <time>2020-06-06T11:46:20.000Z</time>
      </trkpt>
      <trkpt lat="43.62143" lon="3.84811">
        <ele>49</ele>
        <time>2020-06-06T11:46:21.000Z</time>
      </trkpt>
      <trkpt lat="43.62146" lon="3.84807">
        <ele>49</ele>
        <time>2020-06-06T11:46:22.000Z</time>
      </trkpt>
      <trkpt lat="43.62148" lon="3.84802">
        <ele>48.98899968</ele>
        <time>2020-06-06T11:46:23.000Z</time>
      </trkpt>
      <trkpt lat="43.62151" lon="3.84798">
        <ele>48.88899968</ele>
        <time>2020-06-06T11:46:24.000Z</time>
      </trkpt>
      <trkpt lat="43.62153" lon="3.84793">
        <ele>48.78899968</ele>
        <time>2020-06-06T11:46:25.000Z</time>
      </trkpt>
      <trkpt lat="43.62155" lon="3.84789">
        <ele>48.68899968</ele>
        <time>2020-06-06T11:46:26.000Z</time>
      </trkpt>
      <trkpt lat="43.62158" lon="3.84785">
        <ele>48.58899968</ele>
        <time>2020-06-06T11:46:27.000Z</time>
      </trkpt>
      <trkpt lat="43.6216" lon="3.84781">
        <ele>48.48899968</ele>
        <time>2020-06-06T11:46:28.000Z</time>
      </trkpt>
      <trkpt lat="43.62162" lon="3.84776">
        <ele>48.38899968</ele>
        <time>2020-06-06T11:46:29.000Z</time>
      </trkpt>
      <trkpt lat="43.62164" lon="3.84771">
        <ele>48.28899968</ele>
        <time>2020-06-06T11:46:30.000Z</time>
      </trkpt>
      <trkpt lat="43.62166" lon="3.84766">
        <ele>48.18899968</ele>
        <time>2020-06-06T11:46:31.000Z</time>
      </trkpt>
      <trkpt lat="43.62169" lon="3.84761">
        <ele>48.08899968</ele>
        <time>2020-06-06T11:46:32.000Z</time>
      </trkpt>
      <trkpt lat="43.62171" lon="3.84755">
        <ele>48</ele>
        <time>2020-06-06T11:46:33.000Z</time>
      </trkpt>
      <trkpt lat="43.62173" lon="3.8475">
        <ele>48</ele>
        <time>2020-06-06T11:46:34.000Z</time>
      </trkpt>
      <trkpt lat="43.62175" lon="3.84744">
        <ele>48</ele>
        <time>2020-06-06T11:46:35.000Z</time>
      </trkpt>
      <trkpt lat="43.62176" lon="3.84738">
        <ele>48</ele>
        <time>2020-06-06T11:46:36.000Z</time>
      </trkpt>
      <trkpt lat="43.62178" lon="3.84732">
        <ele>48</ele>
        <time>2020-06-06T11:46:37.000Z</time>
      </trkpt>
      <trkpt lat="43.6218" lon="3.84726">
        <ele>48</ele>
        <time>2020-06-06T11:46:38.000Z</time>
      </trkpt>
      <trkpt lat="43.62182" lon="3.84721">
        <ele>48</ele>
        <time>2020-06-06T11:46:39.000Z</time>
      </trkpt>
      <trkpt lat="43.62183" lon="3.84715">
        <ele>48</ele>
        <time>2020-06-06T11:46:40.000Z</time>
      </trkpt>
      <trkpt lat="43.62185" lon="3.84709">
        <ele>48</ele>
        <time>2020-06-06T11:46:41.000Z</time>
      </trkpt>
      <trkpt lat="43.62186" lon="3.84703">
        <ele>48</ele>
        <time>2020-06-06T11:46:42.000Z</time>
      </trkpt>
      <trkpt lat="43.62188" lon="3.84698">
        <ele>48</ele>
        <time>2020-06-06T11:46:43.000Z</time>
      </trkpt>
      <trkpt lat="43.62189" lon="3.84692">
        <ele>48</ele>
        <time>2020-06-06T11:46:44.000Z</time>
      </trkpt>
      <trkpt lat="43.62191" lon="3.84687">
        <ele>48</ele>
        <time>2020-06-06T11:46:45.000Z</time>
      </trkpt>
      <trkpt lat="43.62192" lon="3.84682">
        <ele>48</ele>
        <time>2020-06-06T11:46:46.000Z</time>
      </trkpt>
      <trkpt lat="43.62193" lon="3.84677">
        <ele>48</ele>
        <time>2020-06-06T11:46:47.000Z</time>
      </trkpt>
      <trkpt lat="43.62195" lon="3.84672">
        <ele>48</ele>
        <time>2020-06-06T11:46:48.000Z</time>
      </trkpt>
      <trkpt lat="43.62197" lon="3.84667">
        <ele>48</ele>
        <time>2020-06-06T11:46:49.000Z</time>
      </trkpt>
      <trkpt lat="43.62198" lon="3.84663">
        <ele>48</ele>
        <time>2020-06-06T11:46:50.000Z</time>
      </trkpt>
      <trkpt lat="43.622" lon="3.84658">
        <ele>48</ele>
        <time>2020-06-06T11:46:51.000Z</time>
      </trkpt>
      <trkpt lat="43.62201" lon="3.84654">
        <ele>48</ele>
        <time>2020-06-06T11:46:52.000Z</time>
      </trkpt>
      <trkpt lat="43.62203" lon="3.84649">
        <ele>48</ele>
        <time>2020-06-06T11:46:53.000Z</time>
      </trkpt>
      <trkpt lat="43.62204" lon="3.84645">
        <ele>48</ele>
        <time>2020-06-06T11:46:54.000Z</time>
      </trkpt>
      <trkpt lat="43.62205" lon="3.8464">
        <ele>48</ele>
        <time>2020-06-06T11:46:55.000Z</time>
      </trkpt>
      <trkpt lat="43.62207" lon="3.84636">
        <ele>48</ele>
        <time>2020-06-06T11:46:56.000Z</time>
      </trkpt>
      <trkpt lat="43.62209" lon="3.84632">
        <ele>48</ele>
        <time>2020-06-06T11:46:57.000Z</time>
      </trkpt>
      <trkpt lat="43.6221" lon="3.84628">
        <ele>48</ele>
        <time>2020-06-06T11:46:58.000Z</time>
      </trkpt>
      <trkpt lat="43.62212" lon="3.84624">
        <ele>48</ele>
        <time>2020-06-06T11:46:59.000Z</time>
      </trkpt>
      <trkpt lat="43.62213" lon="3.84621">
        <ele>48</ele>
        <time>2020-06-06T11:47:00.000Z</time>
      </trkpt>
      <trkpt lat="43.62215" lon="3.84617">
        <ele>48</ele>
        <time>2020-06-06T11:47:01.000Z</time>
      </trkpt>
      <trkpt lat="43.62216" lon="3.84614">
        <ele>48</ele>
        <time>2020-06-06T11:47:02.000Z</time>
      </trkpt>
      <trkpt lat="43.62217" lon="3.84611">
        <ele>48</ele>
        <time>2020-06-06T11:47:03.000Z</time>
      </trkpt>
      <trkpt lat="43.62218" lon="3.84609">
        <ele>48</ele>
        <time>2020-06-06T11:47:04.000Z</time>
      </trkpt>
      <trkpt lat="43.62219" lon="3.84606">
        <ele>48</ele>
        <time>2020-06-06T11:47:05.000Z</time>
      </trkpt>
      <trkpt lat="43.6222" lon="3.84604">
        <ele>48</ele>
        <time>2020-06-06T11:47:06.000Z</time>
      </trkpt>
      <trkpt lat="43.62221" lon="3.84601">
        <ele>48</ele>
        <time>2020-06-06T11:47:07.000Z</time>
      </trkpt>
      <trkpt lat="43.62223" lon="3.84598">
        <ele>48</ele>
        <time>2020-06-06T11:47:08.000Z</time>
      </trkpt>
      <trkpt lat="43.62224" lon="3.84595">
        <ele>48</ele>
        <time>2020-06-06T11:47:09.000Z</time>
      </trkpt>
      <trkpt lat="43.62225" lon="3.84592">
        <ele>48</ele>
        <time>2020-06-06T11:47:10.000Z</time>
      </trkpt>
      <trkpt lat="43.62227" lon="3.8459">
        <ele>48</ele>
        <time>2020-06-06T11:47:11.000Z</time>
      </trkpt>
      <trkpt lat="43.62228" lon="3.84587">
        <ele>48</ele>
        <time>2020-06-06T11:47:12.000Z</time>
      </trkpt>
      <trkpt lat="43.6223" lon="3.84584">
        <ele>48.02200064</ele>
        <time>2020-06-06T11:47:13.000Z</time>
      </trkpt>
      <trkpt lat="43.62231" lon="3.84581">
        <ele>48.22200064</ele>
        <time>2020-06-06T11:47:14.000Z</time>
      </trkpt>
      <trkpt lat="43.62232" lon="3.84578">
        <ele>48.42200064</ele>
        <time>2020-06-06T11:47:15.000Z</time>
      </trkpt>
      <trkpt lat="43.62233" lon="3.84575">
        <ele>48.62200064</ele>
        <time>2020-06-06T11:47:16.000Z</time>
      </trkpt>
      <trkpt lat="43.62234" lon="3.84572">
        <ele>48.82200064</ele>
        <time>2020-06-06T11:47:17.000Z</time>
      </trkpt>
      <trkpt lat="43.62235" lon="3.84569">
        <ele>49.02200064</ele>
        <time>2020-06-06T11:47:18.000Z</time>
      </trkpt>
      <trkpt lat="43.62236" lon="3.84566">
        <ele>49.22200064</ele>
        <time>2020-06-06T11:47:19.000Z</time>
      </trkpt>
      <trkpt lat="43.62238" lon="3.84563">
        <ele>49.42200064</ele>
        <time>2020-06-06T11:47:20.000Z</time>
      </trkpt>
      <trkpt lat="43.62239" lon="3.84561">
        <ele>49.62200064</ele>
        <time>2020-06-06T11:47:21.000Z</time>
      </trkpt>
      <trkpt lat="43.62241" lon="3.84558">
        <ele>49.82200064</ele>
        <time>2020-06-06T11:47:22.000Z</time>
      </trkpt>
      <trkpt lat="43.62242" lon="3.84555">
        <ele>50</ele>
        <time>2020-06-06T11:47:23.000Z</time>
      </trkpt>
      <trkpt lat="43.62244" lon="3.84553">
        <ele>50</ele>
        <time>2020-06-06T11:47:24.000Z</time>
      </trkpt>
      <trkpt lat="43.62246" lon="3.8455">
        <ele>50</ele>
        <time>2020-06-06T11:47:25.000Z</time>
      </trkpt>
      <trkpt lat="43.62247" lon="3.84547">
        <ele>50</ele>
        <time>2020-06-06T11:47:26.000Z</time>
      </trkpt>
      <trkpt lat="43.62249" lon="3.84545">
        <ele>50</ele>
        <time>2020-06-06T11:47:27.000Z</time>
      </trkpt>
      <trkpt lat="43.62251" lon="3.84542">
        <ele>50</ele>
        <time>2020-06-06T11:47:28.000Z</time>
      </trkpt>
      <trkpt lat="43.62253" lon="3.84539">
        <ele>50</ele>
        <time>2020-06-06T11:47:29.000Z</time>
      </trkpt>
      <trkpt lat="43.62254" lon="3.84536">
        <ele>50</ele>
        <time>2020-06-06T11:47:30.000Z</time>
      </trkpt>
      <trkpt lat="43.62256" lon="3.84533">
        <ele>50</ele>
        <time>2020-06-06T11:47:31.000Z</time>
      </trkpt>
      <trkpt lat="43.62258" lon="3.8453">
        <ele>50</ele>
        <time>2020-06-06T11:47:32.000Z</time>
      </trkpt>
      <trkpt lat="43.6226" lon="3.84527">
        <ele>50.007028433735</ele>
        <time>2020-06-06T11:47:33.000Z</time>
      </trkpt>
      <trkpt lat="43.62262" lon="3.84523">
        <ele>50.107430040161</ele>
        <time>2020-06-06T11:47:34.000Z</time>
      </trkpt>
      <trkpt lat="43.62264" lon="3.8452">
        <ele>50.207831646586</ele>
        <time>2020-06-06T11:47:35.000Z</time>
      </trkpt>
      <trkpt lat="43.62267" lon="3.84517">
        <ele>50.308233253012</ele>
        <time>2020-06-06T11:47:36.000Z</time>
      </trkpt>
      <trkpt lat="43.62269" lon="3.84513">
        <ele>50.408634859438</ele>
        <time>2020-06-06T11:47:37.000Z</time>
      </trkpt>
      <trkpt lat="43.62271" lon="3.8451">
        <ele>50.509036465864</ele>
        <time>2020-06-06T11:47:38.000Z</time>
      </trkpt>
      <trkpt lat="43.62273" lon="3.84506">
        <ele>50.609438072289</ele>
        <time>2020-06-06T11:47:39.000Z</time>
      </trkpt>
      <trkpt lat="43.62275" lon="3.84502">
        <ele>50.709839678715</ele>
        <time>2020-06-06T11:47:40.000Z</time>
      </trkpt>
      <trkpt lat="43.62277" lon="3.84499">
        <ele>50.810241285141</ele>
        <time>2020-06-06T11:47:41.000Z</time>
      </trkpt>
      <trkpt lat="43.62279" lon="3.84495">
        <ele>50.910642891566</ele>
        <time>2020-06-06T11:47:42.000Z</time>
      </trkpt>
      <trkpt lat="43.62281" lon="3.84491">
        <ele>51.01100032</ele>
        <time>2020-06-06T11:47:43.000Z</time>
      </trkpt>
      <trkpt lat="43.62283" lon="3.84488">
        <ele>51.11100032</ele>
        <time>2020-06-06T11:47:44.000Z</time>
      </trkpt>
      <trkpt lat="43.62285" lon="3.84484">
        <ele>51.21100032</ele>
        <time>2020-06-06T11:47:45.000Z</time>
      </trkpt>
      <trkpt lat="43.62287" lon="3.84481">
        <ele>51.31100032</ele>
        <time>2020-06-06T11:47:46.000Z</time>
      </trkpt>
      <trkpt lat="43.62289" lon="3.84477">
        <ele>51.41100032</ele>
        <time>2020-06-06T11:47:47.000Z</time>
      </trkpt>
      <trkpt lat="43.62292" lon="3.84474">
        <ele>51.51100032</ele>
        <time>2020-06-06T11:47:48.000Z</time>
      </trkpt>
      <trkpt lat="43.62294" lon="3.8447">
        <ele>51.61100032</ele>
        <time>2020-06-06T11:47:49.000Z</time>
      </trkpt>
      <trkpt lat="43.62296" lon="3.84466">
        <ele>51.71100032</ele>
        <time>2020-06-06T11:47:50.000Z</time>
      </trkpt>
      <trkpt lat="43.62298" lon="3.84463">
        <ele>51.81100032</ele>
        <time>2020-06-06T11:47:51.000Z</time>
      </trkpt>
      <trkpt lat="43.62301" lon="3.84459">
        <ele>51.91100032</ele>
        <time>2020-06-06T11:47:52.000Z</time>
      </trkpt>
      <trkpt lat="43.62303" lon="3.84456">
        <ele>52</ele>
        <time>2020-06-06T11:47:53.000Z</time>
      </trkpt>
      <trkpt lat="43.62305" lon="3.84452">
        <ele>52</ele>
        <time>2020-06-06T11:47:54.000Z</time>
      </trkpt>
      <trkpt lat="43.62307" lon="3.84448">
        <ele>52</ele>
        <time>2020-06-06T11:47:55.000Z</time>
      </trkpt>
      <trkpt lat="43.6231" lon="3.84445">
        <ele>52</ele>
        <time>2020-06-06T11:47:56.000Z</time>
      </trkpt>
      <trkpt lat="43.62312" lon="3.84441">
        <ele>52</ele>
        <time>2020-06-06T11:47:57.000Z</time>
      </trkpt>
      <trkpt lat="43.62313" lon="3.84437">
        <ele>52</ele>
        <time>2020-06-06T11:47:58.000Z</time>
      </trkpt>
      <trkpt lat="43.62312" lon="3.84433">
        <ele>52</ele>
        <time>2020-06-06T11:47:59.000Z</time>
      </trkpt>
      <trkpt lat="43.62313" lon="3.84428">
        <ele>52</ele>
        <time>2020-06-06T11:48:00.000Z</time>
      </trkpt>
      <trkpt lat="43.62314" lon="3.84424">
        <ele>52</ele>
        <time>2020-06-06T11:48:01.000Z</time>
      </trkpt>
      <trkpt lat="43.62316" lon="3.8442">
        <ele>52</ele>
        <time>2020-06-06T11:48:02.000Z</time>
      </trkpt>
      <trkpt lat="43.62318" lon="3.84417">
        <ele>52.010700700389</ele>
        <time>2020-06-06T11:48:03.000Z</time>
      </trkpt>
      <trkpt lat="43.6232" lon="3.84413">
        <ele>52.107976964981</ele>
        <time>2020-06-06T11:48:04.000Z</time>
      </trkpt>
      <trkpt lat="43.62323" lon="3.8441">
        <ele>52.205253229572</ele>
        <time>2020-06-06T11:48:05.000Z</time>
      </trkpt>
      <trkpt lat="43.62326" lon="3.84406">
        <ele>52.302529494163</ele>
        <time>2020-06-06T11:48:06.000Z</time>
      </trkpt>
      <trkpt lat="43.62329" lon="3.84402">
        <ele>52.399805758755</ele>
        <time>2020-06-06T11:48:07.000Z</time>
      </trkpt>
      <trkpt lat="43.62331" lon="3.84399">
        <ele>52.497082023346</ele>
        <time>2020-06-06T11:48:08.000Z</time>
      </trkpt>
      <trkpt lat="43.62334" lon="3.84395">
        <ele>52.594358287938</ele>
        <time>2020-06-06T11:48:09.000Z</time>
      </trkpt>
      <trkpt lat="43.62336" lon="3.84392">
        <ele>52.691634552529</ele>
        <time>2020-06-06T11:48:10.000Z</time>
      </trkpt>
      <trkpt lat="43.62339" lon="3.84388">
        <ele>52.788910817121</ele>
        <time>2020-06-06T11:48:11.000Z</time>
      </trkpt>
      <trkpt lat="43.62342" lon="3.84385">
        <ele>52.886187081712</ele>
        <time>2020-06-06T11:48:12.000Z</time>
      </trkpt>
      <trkpt lat="43.62344" lon="3.84382">
        <ele>52.983463346304</ele>
        <time>2020-06-06T11:48:13.000Z</time>
      </trkpt>
      <trkpt lat="43.62346" lon="3.84379">
        <ele>53</ele>
        <time>2020-06-06T11:48:14.000Z</time>
      </trkpt>
      <trkpt lat="43.62349" lon="3.84376">
        <ele>53</ele>
        <time>2020-06-06T11:48:15.000Z</time>
      </trkpt>
      <trkpt lat="43.62351" lon="3.84373">
        <ele>53</ele>
        <time>2020-06-06T11:48:16.000Z</time>
      </trkpt>
      <trkpt lat="43.62354" lon="3.8437">
        <ele>53</ele>
        <time>2020-06-06T11:48:17.000Z</time>
      </trkpt>
      <trkpt lat="43.62356" lon="3.84367">
        <ele>53</ele>
        <time>2020-06-06T11:48:18.000Z</time>
      </trkpt>
      <trkpt lat="43.62357" lon="3.84364">
        <ele>53</ele>
        <time>2020-06-06T11:48:19.000Z</time>
      </trkpt>
      <trkpt lat="43.62359" lon="3.8436">
        <ele>53</ele>
        <time>2020-06-06T11:48:20.000Z</time>
      </trkpt>
      <trkpt lat="43.6236" lon="3.84356">
        <ele>53</ele>
        <time>2020-06-06T11:48:21.000Z</time>
      </trkpt>
      <trkpt lat="43.62361" lon="3.84353">
        <ele>53</ele>
        <time>2020-06-06T11:48:22.000Z</time>
      </trkpt>
      <trkpt lat="43.62361" lon="3.84349">
        <ele>53.01100032</ele>
        <time>2020-06-06T11:48:23.000Z</time>
      </trkpt>
      <trkpt lat="43.62361" lon="3.84345">
        <ele>53.11100032</ele>
        <time>2020-06-06T11:48:24.000Z</time>
      </trkpt>
      <trkpt lat="43.62361" lon="3.84341">
        <ele>53.21100032</ele>
        <time>2020-06-06T11:48:25.000Z</time>
      </trkpt>
      <trkpt lat="43.6236" lon="3.84337">
        <ele>53.31100032</ele>
        <time>2020-06-06T11:48:26.000Z</time>
      </trkpt>
      <trkpt lat="43.6236" lon="3.84334">
        <ele>53.41100032</ele>
        <time>2020-06-06T11:48:27.000Z</time>
      </trkpt>
      <trkpt lat="43.6236" lon="3.8433">
        <ele>53.51100032</ele>
        <time>2020-06-06T11:48:28.000Z</time>
      </trkpt>
      <trkpt lat="43.62361" lon="3.84327">
        <ele>53.61100032</ele>
        <time>2020-06-06T11:48:29.000Z</time>
      </trkpt>
      <trkpt lat="43.62364" lon="3.84325">
        <ele>53.71100032</ele>
        <time>2020-06-06T11:48:30.000Z</time>
      </trkpt>
      <trkpt lat="43.62366" lon="3.84322">
        <ele>53.81100032</ele>
        <time>2020-06-06T11:48:31.000Z</time>
      </trkpt>
      <trkpt lat="43.62368" lon="3.84319">
        <ele>53.91100032</ele>
        <time>2020-06-06T11:48:32.000Z</time>
      </trkpt>
      <trkpt lat="43.6237" lon="3.84315">
        <ele>54.010700700389</ele>
        <time>2020-06-06T11:48:33.000Z</time>
      </trkpt>
      <trkpt lat="43.62372" lon="3.84312">
        <ele>54.107976964981</ele>
        <time>2020-06-06T11:48:34.000Z</time>
      </trkpt>
      <trkpt lat="43.62374" lon="3.84308">
        <ele>54.205253229572</ele>
        <time>2020-06-06T11:48:35.000Z</time>
      </trkpt>
      <trkpt lat="43.62376" lon="3.84305">
        <ele>54.302529494163</ele>
        <time>2020-06-06T11:48:36.000Z</time>
      </trkpt>
      <trkpt lat="43.62379" lon="3.84301">
        <ele>54.399805758755</ele>
        <time>2020-06-06T11:48:37.000Z</time>
      </trkpt>
      <trkpt lat="43.62381" lon="3.84298">
        <ele>54.497082023346</ele>
        <time>2020-06-06T11:48:38.000Z</time>
      </trkpt>
      <trkpt lat="43.62383" lon="3.84294">
        <ele>54.594358287938</ele>
        <time>2020-06-06T11:48:39.000Z</time>
      </trkpt>
      <trkpt lat="43.62385" lon="3.84291">
        <ele>54.691634552529</ele>
        <time>2020-06-06T11:48:40.000Z</time>
      </trkpt>
      <trkpt lat="43.62386" lon="3.84287">
        <ele>54.788910817121</ele>
        <time>2020-06-06T11:48:41.000Z</time>
      </trkpt>
      <trkpt lat="43.62388" lon="3.84284">
        <ele>54.886187081712</ele>
        <time>2020-06-06T11:48:42.000Z</time>
      </trkpt>
      <trkpt lat="43.62389" lon="3.84279">
        <ele>54.983463346304</ele>
        <time>2020-06-06T11:48:43.000Z</time>
      </trkpt>
      <trkpt lat="43.62388" lon="3.84273">
        <ele>55</ele>
        <time>2020-06-06T11:48:44.000Z</time>
      </trkpt>
      <trkpt lat="43.62388" lon="3.84266">
        <ele>55</ele>
        <time>2020-06-06T11:48:45.000Z</time>
      </trkpt>
      <trkpt lat="43.62387" lon="3.84257">
        <ele>55</ele>
        <time>2020-06-06T11:48:46.000Z</time>
      </trkpt>
      <trkpt lat="43.62386" lon="3.84248">
        <ele>55</ele>
        <time>2020-06-06T11:48:47.000Z</time>
      </trkpt>
      <trkpt lat="43.62385" lon="3.84238">
        <ele>55</ele>
        <time>2020-06-06T11:48:48.000Z</time>
      </trkpt>
      <trkpt lat="43.62385" lon="3.84232">
        <ele>55</ele>
        <time>2020-06-06T11:48:49.000Z</time>
      </trkpt>
      <trkpt lat="43.62384" lon="3.84228">
        <ele>55</ele>
        <time>2020-06-06T11:48:50.000Z</time>
      </trkpt>
      <trkpt lat="43.62386" lon="3.84227">
        <ele>55</ele>
        <time>2020-06-06T11:48:51.000Z</time>
      </trkpt>
      <trkpt lat="43.62389" lon="3.84226">
        <ele>55</ele>
        <time>2020-06-06T11:48:52.000Z</time>
      </trkpt>
      <trkpt lat="43.62391" lon="3.84225">
        <ele>55.02200064</ele>
        <time>2020-06-06T11:48:53.000Z</time>
      </trkpt>
      <trkpt lat="43.62393" lon="3.84224">
        <ele>55.22200064</ele>
        <time>2020-06-06T11:48:54.000Z</time>
      </trkpt>
      <trkpt lat="43.62395" lon="3.8422">
        <ele>55.62200064</ele>
        <time>2020-06-06T11:48:56.000Z</time>
      </trkpt>
      <trkpt lat="43.62395" lon="3.84217">
        <ele>56.02200064</ele>
        <time>2020-06-06T11:48:58.000Z</time>
      </trkpt>
      <trkpt lat="43.62395" lon="3.84212">
        <ele>56.42200064</ele>
        <time>2020-06-06T11:49:00.000Z</time>
      </trkpt>
      <trkpt lat="43.62394" lon="3.84209">
        <ele>56.62200064</ele>
        <time>2020-06-06T11:49:01.000Z</time>
      </trkpt>
      <trkpt lat="43.62394" lon="3.84206">
        <ele>56.82200064</ele>
        <time>2020-06-06T11:49:02.000Z</time>
      </trkpt>
      <trkpt lat="43.62393" lon="3.84203">
        <ele>57</ele>
        <time>2020-06-06T11:49:03.000Z</time>
      </trkpt>
      <trkpt lat="43.62392" lon="3.84199">
        <ele>57</ele>
        <time>2020-06-06T11:49:04.000Z</time>
      </trkpt>
      <trkpt lat="43.62391" lon="3.84196">
        <ele>57</ele>
        <time>2020-06-06T11:49:05.000Z</time>
      </trkpt>
      <trkpt lat="43.6239" lon="3.84192">
        <ele>57</ele>
        <time>2020-06-06T11:49:06.000Z</time>
      </trkpt>
      <trkpt lat="43.6239" lon="3.84189">
        <ele>57</ele>
        <time>2020-06-06T11:49:07.000Z</time>
      </trkpt>
      <trkpt lat="43.62389" lon="3.84185">
        <ele>57</ele>
        <time>2020-06-06T11:49:08.000Z</time>
      </trkpt>
      <trkpt lat="43.62388" lon="3.84181">
        <ele>57</ele>
        <time>2020-06-06T11:49:09.000Z</time>
      </trkpt>
      <trkpt lat="43.62388" lon="3.84178">
        <ele>57</ele>
        <time>2020-06-06T11:49:10.000Z</time>
      </trkpt>
      <trkpt lat="43.62387" lon="3.84174">
        <ele>57</ele>
        <time>2020-06-06T11:49:11.000Z</time>
      </trkpt>
      <trkpt lat="43.62386" lon="3.84171">
        <ele>57</ele>
        <time>2020-06-06T11:49:12.000Z</time>
      </trkpt>
      <trkpt lat="43.62386" lon="3.84168">
        <ele>57</ele>
        <time>2020-06-06T11:49:13.000Z</time>
      </trkpt>
      <trkpt lat="43.62386" lon="3.84164">
        <ele>57</ele>
        <time>2020-06-06T11:49:14.000Z</time>
      </trkpt>
      <trkpt lat="43.62386" lon="3.84162">
        <ele>57</ele>
        <time>2020-06-06T11:49:15.000Z</time>
      </trkpt>
      <trkpt lat="43.62386" lon="3.84159">
        <ele>57</ele>
        <time>2020-06-06T11:49:16.000Z</time>
      </trkpt>
      <trkpt lat="43.62386" lon="3.84156">
        <ele>57</ele>
        <time>2020-06-06T11:49:17.000Z</time>
      </trkpt>
      <trkpt lat="43.62386" lon="3.84153">
        <ele>57</ele>
        <time>2020-06-06T11:49:18.000Z</time>
      </trkpt>
      <trkpt lat="43.62385" lon="3.8415">
        <ele>57</ele>
        <time>2020-06-06T11:49:19.000Z</time>
      </trkpt>
      <trkpt lat="43.62384" lon="3.84148">
        <ele>57</ele>
        <time>2020-06-06T11:49:20.000Z</time>
      </trkpt>
      <trkpt lat="43.62383" lon="3.84145">
        <ele>57</ele>
        <time>2020-06-06T11:49:21.000Z</time>
      </trkpt>
      <trkpt lat="43.62381" lon="3.84143">
        <ele>57</ele>
        <time>2020-06-06T11:49:22.000Z</time>
      </trkpt>
      <trkpt lat="43.6238" lon="3.84142">
        <ele>57.011815592072</ele>
        <time>2020-06-06T11:49:23.000Z</time>
      </trkpt>
      <trkpt lat="43.62378" lon="3.8414">
        <ele>57.11922694076</ele>
        <time>2020-06-06T11:49:24.000Z</time>
      </trkpt>
      <trkpt lat="43.62376" lon="3.84138">
        <ele>57.334049638135</ele>
        <time>2020-06-06T11:49:26.000Z</time>
      </trkpt>
      <trkpt lat="43.62374" lon="3.84138">
        <ele>57.548872335511</ele>
        <time>2020-06-06T11:49:28.000Z</time>
      </trkpt>
      <trkpt lat="43.62374" lon="3.84138">
        <ele>57.978517730262</ele>
        <time>2020-06-06T11:49:32.000Z</time>
      </trkpt>
      <trkpt lat="43.62384" lon="3.8414">
        <ele>65.999122782979</ele>
        <time>2020-06-06T11:55:37.000Z</time>
      </trkpt>
      <trkpt lat="43.62384" lon="3.8414">
        <ele>66</ele>
        <time>2020-06-06T11:55:40.000Z</time>
      </trkpt>
      <trkpt lat="43.62381" lon="3.84133">
        <ele>64.006065003114</ele>
        <time>2020-06-06T11:57:29.000Z</time>
      </trkpt>
      <trkpt lat="43.62382" lon="3.84134">
        <ele>63.930890653042</ele>
        <time>2020-06-06T11:57:30.000Z</time>
      </trkpt>
      <trkpt lat="43.62381" lon="3.84137">
        <ele>63.616754211606</ele>
        <time>2020-06-06T11:57:33.000Z</time>
      </trkpt>
      <trkpt lat="43.6238" lon="3.8414">
        <ele>63.09319347588</ele>
        <time>2020-06-06T11:57:38.000Z</time>
      </trkpt>
      <trkpt lat="43.6238" lon="3.84144">
        <ele>62.89212806954</ele>
        <time>2020-06-06T11:57:40.000Z</time>
      </trkpt>
      <trkpt lat="43.6238" lon="3.84147">
        <ele>62.794946430371</ele>
        <time>2020-06-06T11:57:41.000Z</time>
      </trkpt>
      <trkpt lat="43.6238" lon="3.8415">
        <ele>62.697764791201</ele>
        <time>2020-06-06T11:57:42.000Z</time>
      </trkpt>
      <trkpt lat="43.62381" lon="3.84153">
        <ele>62.600583152031</ele>
        <time>2020-06-06T11:57:43.000Z</time>
      </trkpt>
      <trkpt lat="43.62382" lon="3.84156">
        <ele>62.503401512862</ele>
        <time>2020-06-06T11:57:44.000Z</time>
      </trkpt>
      <trkpt lat="43.62382" lon="3.84159">
        <ele>62.406219873692</ele>
        <time>2020-06-06T11:57:45.000Z</time>
      </trkpt>
      <trkpt lat="43.62383" lon="3.84161">
        <ele>62.309038234522</ele>
        <time>2020-06-06T11:57:46.000Z</time>
      </trkpt>
      <trkpt lat="43.62384" lon="3.84164">
        <ele>62.211856595352</ele>
        <time>2020-06-06T11:57:47.000Z</time>
      </trkpt>
      <trkpt lat="43.62385" lon="3.84166">
        <ele>62.114674956183</ele>
        <time>2020-06-06T11:57:48.000Z</time>
      </trkpt>
      <trkpt lat="43.62386" lon="3.8417">
        <ele>61.915551553995</ele>
        <time>2020-06-06T11:57:50.000Z</time>
      </trkpt>
      <trkpt lat="43.62388" lon="3.84174">
        <ele>61.709578126874</ele>
        <time>2020-06-06T11:57:52.000Z</time>
      </trkpt>
      <trkpt lat="43.62388" lon="3.84177">
        <ele>61.606591413314</ele>
        <time>2020-06-06T11:57:53.000Z</time>
      </trkpt>
      <trkpt lat="43.62389" lon="3.84179">
        <ele>61.503604699753</ele>
        <time>2020-06-06T11:57:54.000Z</time>
      </trkpt>
      <trkpt lat="43.6239" lon="3.84184">
        <ele>61.297631272632</ele>
        <time>2020-06-06T11:57:56.000Z</time>
      </trkpt>
      <trkpt lat="43.62391" lon="3.84188">
        <ele>61.091657845511</ele>
        <time>2020-06-06T11:57:58.000Z</time>
      </trkpt>
      <trkpt lat="43.62392" lon="3.84192">
        <ele>61</ele>
        <time>2020-06-06T11:58:00.000Z</time>
      </trkpt>
      <trkpt lat="43.62393" lon="3.84196">
        <ele>61</ele>
        <time>2020-06-06T11:58:02.000Z</time>
      </trkpt>
      <trkpt lat="43.62393" lon="3.842">
        <ele>61</ele>
        <time>2020-06-06T11:58:04.000Z</time>
      </trkpt>
      <trkpt lat="43.62394" lon="3.84203">
        <ele>61</ele>
        <time>2020-06-06T11:58:06.000Z</time>
      </trkpt>
      <trkpt lat="43.62394" lon="3.84203">
        <ele>61</ele>
        <time>2020-06-06T11:58:12.000Z</time>
      </trkpt>
      <trkpt lat="43.62395" lon="3.84209">
        <ele>61.997981558076</ele>
        <time>2020-06-06T11:58:37.000Z</time>
      </trkpt>
      <trkpt lat="43.62396" lon="3.84211">
        <ele>61.906560059445</ele>
        <time>2020-06-06T11:58:38.000Z</time>
      </trkpt>
      <trkpt lat="43.62397" lon="3.84214">
        <ele>61.807156544155</ele>
        <time>2020-06-06T11:58:39.000Z</time>
      </trkpt>
      <trkpt lat="43.62398" lon="3.84216">
        <ele>61.707753028865</ele>
        <time>2020-06-06T11:58:40.000Z</time>
      </trkpt>
      <trkpt lat="43.62398" lon="3.84219">
        <ele>61.608349513575</ele>
        <time>2020-06-06T11:58:41.000Z</time>
      </trkpt>
      <trkpt lat="43.62397" lon="3.84222">
        <ele>61.508945998285</ele>
        <time>2020-06-06T11:58:42.000Z</time>
      </trkpt>
      <trkpt lat="43.62395" lon="3.84224">
        <ele>61.409542482995</ele>
        <time>2020-06-06T11:58:43.000Z</time>
      </trkpt>
      <trkpt lat="43.62393" lon="3.84227">
        <ele>61.310138967705</ele>
        <time>2020-06-06T11:58:44.000Z</time>
      </trkpt>
      <trkpt lat="43.62391" lon="3.84229">
        <ele>61.210735452415</ele>
        <time>2020-06-06T11:58:45.000Z</time>
      </trkpt>
      <trkpt lat="43.62391" lon="3.84234">
        <ele>61.111331937125</ele>
        <time>2020-06-06T11:58:46.000Z</time>
      </trkpt>
      <trkpt lat="43.6239" lon="3.84241">
        <ele>61.011928421835</ele>
        <time>2020-06-06T11:58:47.000Z</time>
      </trkpt>
      <trkpt lat="43.6239" lon="3.84249">
        <ele>60.912524906545</ele>
        <time>2020-06-06T11:58:48.000Z</time>
      </trkpt>
      <trkpt lat="43.6239" lon="3.84257">
        <ele>60.813121391255</ele>
        <time>2020-06-06T11:58:49.000Z</time>
      </trkpt>
      <trkpt lat="43.6239" lon="3.84274">
        <ele>60.514910845385</ele>
        <time>2020-06-06T11:58:52.000Z</time>
      </trkpt>
      <trkpt lat="43.62385" lon="3.84282">
        <ele>60.316103814805</ele>
        <time>2020-06-06T11:58:54.000Z</time>
      </trkpt>
      <trkpt lat="43.62383" lon="3.84285">
        <ele>60.216700299515</ele>
        <time>2020-06-06T11:58:55.000Z</time>
      </trkpt>
      <trkpt lat="43.62381" lon="3.84288">
        <ele>60.117296784225</ele>
        <time>2020-06-06T11:58:56.000Z</time>
      </trkpt>
      <trkpt lat="43.6238" lon="3.84292">
        <ele>60.017893268935</ele>
        <time>2020-06-06T11:58:57.000Z</time>
      </trkpt>
      <trkpt lat="43.62378" lon="3.84296">
        <ele>60</ele>
        <time>2020-06-06T11:58:58.000Z</time>
      </trkpt>
      <trkpt lat="43.62376" lon="3.84301">
        <ele>60</ele>
        <time>2020-06-06T11:58:59.000Z</time>
      </trkpt>
      <trkpt lat="43.62373" lon="3.84305">
        <ele>60</ele>
        <time>2020-06-06T11:59:00.000Z</time>
      </trkpt>
      <trkpt lat="43.62371" lon="3.84309">
        <ele>60</ele>
        <time>2020-06-06T11:59:01.000Z</time>
      </trkpt>
      <trkpt lat="43.62368" lon="3.84314">
        <ele>60</ele>
        <time>2020-06-06T11:59:02.000Z</time>
      </trkpt>
      <trkpt lat="43.62366" lon="3.84318">
        <ele>60</ele>
        <time>2020-06-06T11:59:03.000Z</time>
      </trkpt>
      <trkpt lat="43.62363" lon="3.84322">
        <ele>60</ele>
        <time>2020-06-06T11:59:04.000Z</time>
      </trkpt>
      <trkpt lat="43.62361" lon="3.84326">
        <ele>60</ele>
        <time>2020-06-06T11:59:05.000Z</time>
      </trkpt>
      <trkpt lat="43.6236" lon="3.84328">
        <ele>60</ele>
        <time>2020-06-06T11:59:06.000Z</time>
      </trkpt>
      <trkpt lat="43.62358" lon="3.84331">
        <ele>60</ele>
        <time>2020-06-06T11:59:08.000Z</time>
      </trkpt>
      <trkpt lat="43.62359" lon="3.84332">
        <ele>60</ele>
        <time>2020-06-06T11:59:14.000Z</time>
      </trkpt>
      <trkpt lat="43.62358" lon="3.84327">
        <ele>59.00950999599</ele>
        <time>2020-06-06T11:59:49.000Z</time>
      </trkpt>
      <trkpt lat="43.62359" lon="3.84325">
        <ele>59</ele>
        <time>2020-06-06T11:59:50.000Z</time>
      </trkpt>
      <trkpt lat="43.62361" lon="3.84323">
        <ele>59</ele>
        <time>2020-06-06T11:59:51.000Z</time>
      </trkpt>
      <trkpt lat="43.62363" lon="3.84322">
        <ele>59</ele>
        <time>2020-06-06T11:59:52.000Z</time>
      </trkpt>
      <trkpt lat="43.62365" lon="3.8432">
        <ele>59</ele>
        <time>2020-06-06T11:59:53.000Z</time>
      </trkpt>
      <trkpt lat="43.62366" lon="3.84318">
        <ele>59</ele>
        <time>2020-06-06T11:59:54.000Z</time>
      </trkpt>
      <trkpt lat="43.62368" lon="3.84317">
        <ele>59</ele>
        <time>2020-06-06T11:59:55.000Z</time>
      </trkpt>
      <trkpt lat="43.62369" lon="3.84315">
        <ele>59</ele>
        <time>2020-06-06T11:59:56.000Z</time>
      </trkpt>
      <trkpt lat="43.62371" lon="3.84313">
        <ele>59</ele>
        <time>2020-06-06T11:59:57.000Z</time>
      </trkpt>
      <trkpt lat="43.62372" lon="3.8431">
        <ele>59</ele>
        <time>2020-06-06T11:59:58.000Z</time>
      </trkpt>
      <trkpt lat="43.62374" lon="3.84307">
        <ele>59</ele>
        <time>2020-06-06T11:59:59.000Z</time>
      </trkpt>
      <trkpt lat="43.62375" lon="3.84305">
        <ele>59</ele>
        <time>2020-06-06T12:00:00.000Z</time>
      </trkpt>
      <trkpt lat="43.62376" lon="3.84303">
        <ele>59</ele>
        <time>2020-06-06T12:00:01.000Z</time>
      </trkpt>
      <trkpt lat="43.62378" lon="3.843">
        <ele>59</ele>
        <time>2020-06-06T12:00:02.000Z</time>
      </trkpt>
      <trkpt lat="43.62379" lon="3.84298">
        <ele>59</ele>
        <time>2020-06-06T12:00:03.000Z</time>
      </trkpt>
      <trkpt lat="43.6238" lon="3.84296">
        <ele>59</ele>
        <time>2020-06-06T12:00:04.000Z</time>
      </trkpt>
      <trkpt lat="43.62382" lon="3.84292">
        <ele>59</ele>
        <time>2020-06-06T12:00:05.000Z</time>
      </trkpt>
      <trkpt lat="43.62383" lon="3.8429">
        <ele>59</ele>
        <time>2020-06-06T12:00:06.000Z</time>
      </trkpt>
      <trkpt lat="43.62385" lon="3.84287">
        <ele>59</ele>
        <time>2020-06-06T12:00:07.000Z</time>
      </trkpt>
      <trkpt lat="43.62388" lon="3.84285">
        <ele>59</ele>
        <time>2020-06-06T12:00:08.000Z</time>
      </trkpt>
      <trkpt lat="43.6239" lon="3.84283">
        <ele>59</ele>
        <time>2020-06-06T12:00:09.000Z</time>
      </trkpt>
      <trkpt lat="43.62392" lon="3.8428">
        <ele>59.084448446005</ele>
        <time>2020-06-06T12:00:10.000Z</time>
      </trkpt>
      <trkpt lat="43.62395" lon="3.84278">
        <ele>59.187435159565</ele>
        <time>2020-06-06T12:00:11.000Z</time>
      </trkpt>
      <trkpt lat="43.62398" lon="3.84276">
        <ele>59.290421873126</ele>
        <time>2020-06-06T12:00:12.000Z</time>
      </trkpt>
      <trkpt lat="43.624" lon="3.84273">
        <ele>59.393408586686</ele>
        <time>2020-06-06T12:00:13.000Z</time>
      </trkpt>
      <trkpt lat="43.62403" lon="3.84271">
        <ele>59.496395300247</ele>
        <time>2020-06-06T12:00:14.000Z</time>
      </trkpt>
      <trkpt lat="43.62405" lon="3.84269">
        <ele>59.599382013807</ele>
        <time>2020-06-06T12:00:15.000Z</time>
      </trkpt>
      <trkpt lat="43.62408" lon="3.84266">
        <ele>59.702368727368</ele>
        <time>2020-06-06T12:00:16.000Z</time>
      </trkpt>
      <trkpt lat="43.6241" lon="3.84264">
        <ele>59.805355440928</ele>
        <time>2020-06-06T12:00:17.000Z</time>
      </trkpt>
      <trkpt lat="43.62413" lon="3.84261">
        <ele>59.908342154489</ele>
        <time>2020-06-06T12:00:18.000Z</time>
      </trkpt>
      <trkpt lat="43.62415" lon="3.84259">
        <ele>60</ele>
        <time>2020-06-06T12:00:19.000Z</time>
      </trkpt>
      <trkpt lat="43.62417" lon="3.84257">
        <ele>60</ele>
        <time>2020-06-06T12:00:20.000Z</time>
      </trkpt>
      <trkpt lat="43.62419" lon="3.84255">
        <ele>60</ele>
        <time>2020-06-06T12:00:21.000Z</time>
      </trkpt>
      <trkpt lat="43.62426" lon="3.84245">
        <ele>60</ele>
        <time>2020-06-06T12:00:25.000Z</time>
      </trkpt>
      <trkpt lat="43.62429" lon="3.84242">
        <ele>60</ele>
        <time>2020-06-06T12:00:26.000Z</time>
      </trkpt>
      <trkpt lat="43.62433" lon="3.8424">
        <ele>60</ele>
        <time>2020-06-06T12:00:27.000Z</time>
      </trkpt>
      <trkpt lat="43.62436" lon="3.84238">
        <ele>60</ele>
        <time>2020-06-06T12:00:28.000Z</time>
      </trkpt>
      <trkpt lat="43.6244" lon="3.84237">
        <ele>60</ele>
        <time>2020-06-06T12:00:29.000Z</time>
      </trkpt>
      <trkpt lat="43.62443" lon="3.84237">
        <ele>60</ele>
        <time>2020-06-06T12:00:30.000Z</time>
      </trkpt>
      <trkpt lat="43.62447" lon="3.84237">
        <ele>60</ele>
        <time>2020-06-06T12:00:31.000Z</time>
      </trkpt>
      <trkpt lat="43.6245" lon="3.84237">
        <ele>60</ele>
        <time>2020-06-06T12:00:32.000Z</time>
      </trkpt>
      <trkpt lat="43.62454" lon="3.84237">
        <ele>60</ele>
        <time>2020-06-06T12:00:33.000Z</time>
      </trkpt>
      <trkpt lat="43.62457" lon="3.84235">
        <ele>60</ele>
        <time>2020-06-06T12:00:34.000Z</time>
      </trkpt>
      <trkpt lat="43.6246" lon="3.84232">
        <ele>60</ele>
        <time>2020-06-06T12:00:35.000Z</time>
      </trkpt>
      <trkpt lat="43.62462" lon="3.84229">
        <ele>60</ele>
        <time>2020-06-06T12:00:36.000Z</time>
      </trkpt>
      <trkpt lat="43.62464" lon="3.84225">
        <ele>60</ele>
        <time>2020-06-06T12:00:37.000Z</time>
      </trkpt>
      <trkpt lat="43.62466" lon="3.84221">
        <ele>60</ele>
        <time>2020-06-06T12:00:38.000Z</time>
      </trkpt>
      <trkpt lat="43.62468" lon="3.84217">
        <ele>60</ele>
        <time>2020-06-06T12:00:39.000Z</time>
      </trkpt>
      <trkpt lat="43.62469" lon="3.84212">
        <ele>60</ele>
        <time>2020-06-06T12:00:40.000Z</time>
      </trkpt>
      <trkpt lat="43.62471" lon="3.84208">
        <ele>60</ele>
        <time>2020-06-06T12:00:41.000Z</time>
      </trkpt>
      <trkpt lat="43.62473" lon="3.84203">
        <ele>60</ele>
        <time>2020-06-06T12:00:42.000Z</time>
      </trkpt>
      <trkpt lat="43.62475" lon="3.84199">
        <ele>60</ele>
        <time>2020-06-06T12:00:43.000Z</time>
      </trkpt>
      <trkpt lat="43.62477" lon="3.84194">
        <ele>60</ele>
        <time>2020-06-06T12:00:44.000Z</time>
      </trkpt>
      <trkpt lat="43.62478" lon="3.8419">
        <ele>60</ele>
        <time>2020-06-06T12:00:45.000Z</time>
      </trkpt>
      <trkpt lat="43.6248" lon="3.84186">
        <ele>60</ele>
        <time>2020-06-06T12:00:46.000Z</time>
      </trkpt>
      <trkpt lat="43.62481" lon="3.84181">
        <ele>60</ele>
        <time>2020-06-06T12:00:47.000Z</time>
      </trkpt>
      <trkpt lat="43.62483" lon="3.84177">
        <ele>60</ele>
        <time>2020-06-06T12:00:48.000Z</time>
      </trkpt>
      <trkpt lat="43.62485" lon="3.84172">
        <ele>60.02200064</ele>
        <time>2020-06-06T12:00:49.000Z</time>
      </trkpt>
      <trkpt lat="43.62486" lon="3.84168">
        <ele>60.22200064</ele>
        <time>2020-06-06T12:00:50.000Z</time>
      </trkpt>
      <trkpt lat="43.62488" lon="3.84163">
        <ele>60.42200064</ele>
        <time>2020-06-06T12:00:51.000Z</time>
      </trkpt>
      <trkpt lat="43.62489" lon="3.84158">
        <ele>60.62200064</ele>
        <time>2020-06-06T12:00:52.000Z</time>
      </trkpt>
      <trkpt lat="43.62491" lon="3.84154">
        <ele>60.82200064</ele>
        <time>2020-06-06T12:00:53.000Z</time>
      </trkpt>
      <trkpt lat="43.62493" lon="3.84149">
        <ele>61.02200064</ele>
        <time>2020-06-06T12:00:54.000Z</time>
      </trkpt>
      <trkpt lat="43.62494" lon="3.84144">
        <ele>61.22200064</ele>
        <time>2020-06-06T12:00:55.000Z</time>
      </trkpt>
      <trkpt lat="43.62496" lon="3.84139">
        <ele>61.42200064</ele>
        <time>2020-06-06T12:00:56.000Z</time>
      </trkpt>
      <trkpt lat="43.62498" lon="3.84135">
        <ele>61.62200064</ele>
        <time>2020-06-06T12:00:57.000Z</time>
      </trkpt>
      <trkpt lat="43.62499" lon="3.8413">
        <ele>61.82200064</ele>
        <time>2020-06-06T12:00:58.000Z</time>
      </trkpt>
      <trkpt lat="43.62501" lon="3.84126">
        <ele>62.01100032</ele>
        <time>2020-06-06T12:00:59.000Z</time>
      </trkpt>
      <trkpt lat="43.62503" lon="3.84122">
        <ele>62.11100032</ele>
        <time>2020-06-06T12:01:00.000Z</time>
      </trkpt>
      <trkpt lat="43.62506" lon="3.84117">
        <ele>62.21100032</ele>
        <time>2020-06-06T12:01:01.000Z</time>
      </trkpt>
      <trkpt lat="43.62508" lon="3.84113">
        <ele>62.31100032</ele>
        <time>2020-06-06T12:01:02.000Z</time>
      </trkpt>
      <trkpt lat="43.62511" lon="3.84109">
        <ele>62.41100032</ele>
        <time>2020-06-06T12:01:03.000Z</time>
      </trkpt>
      <trkpt lat="43.62513" lon="3.84104">
        <ele>62.51100032</ele>
        <time>2020-06-06T12:01:04.000Z</time>
      </trkpt>
      <trkpt lat="43.62516" lon="3.841">
        <ele>62.61100032</ele>
        <time>2020-06-06T12:01:05.000Z</time>
      </trkpt>
      <trkpt lat="43.62519" lon="3.84096">
        <ele>62.71100032</ele>
        <time>2020-06-06T12:01:06.000Z</time>
      </trkpt>
      <trkpt lat="43.62521" lon="3.84091">
        <ele>62.81100032</ele>
        <time>2020-06-06T12:01:07.000Z</time>
      </trkpt>
      <trkpt lat="43.62524" lon="3.84087">
        <ele>62.91100032</ele>
        <time>2020-06-06T12:01:08.000Z</time>
      </trkpt>
      <trkpt lat="43.62526" lon="3.84083">
        <ele>63.01100032</ele>
        <time>2020-06-06T12:01:09.000Z</time>
      </trkpt>
      <trkpt lat="43.62528" lon="3.84079">
        <ele>63.11100032</ele>
        <time>2020-06-06T12:01:10.000Z</time>
      </trkpt>
      <trkpt lat="43.6253" lon="3.84074">
        <ele>63.21100032</ele>
        <time>2020-06-06T12:01:11.000Z</time>
      </trkpt>
      <trkpt lat="43.62533" lon="3.8407">
        <ele>63.31100032</ele>
        <time>2020-06-06T12:01:12.000Z</time>
      </trkpt>
      <trkpt lat="43.62535" lon="3.84066">
        <ele>63.41100032</ele>
        <time>2020-06-06T12:01:13.000Z</time>
      </trkpt>
      <trkpt lat="43.62538" lon="3.84062">
        <ele>63.51100032</ele>
        <time>2020-06-06T12:01:14.000Z</time>
      </trkpt>
      <trkpt lat="43.6254" lon="3.84057">
        <ele>63.61100032</ele>
        <time>2020-06-06T12:01:15.000Z</time>
      </trkpt>
      <trkpt lat="43.62543" lon="3.84053">
        <ele>63.71100032</ele>
        <time>2020-06-06T12:01:16.000Z</time>
      </trkpt>
      <trkpt lat="43.62545" lon="3.84049">
        <ele>63.81100032</ele>
        <time>2020-06-06T12:01:17.000Z</time>
      </trkpt>
      <trkpt lat="43.62548" lon="3.84045">
        <ele>63.91100032</ele>
        <time>2020-06-06T12:01:18.000Z</time>
      </trkpt>
      <trkpt lat="43.6255" lon="3.84041">
        <ele>64</ele>
        <time>2020-06-06T12:01:19.000Z</time>
      </trkpt>
      <trkpt lat="43.62553" lon="3.84037">
        <ele>64</ele>
        <time>2020-06-06T12:01:20.000Z</time>
      </trkpt>
      <trkpt lat="43.62555" lon="3.84033">
        <ele>64</ele>
        <time>2020-06-06T12:01:21.000Z</time>
      </trkpt>
      <trkpt lat="43.62558" lon="3.84029">
        <ele>64</ele>
        <time>2020-06-06T12:01:22.000Z</time>
      </trkpt>
      <trkpt lat="43.6256" lon="3.84025">
        <ele>64</ele>
        <time>2020-06-06T12:01:23.000Z</time>
      </trkpt>
      <trkpt lat="43.62562" lon="3.84021">
        <ele>64</ele>
        <time>2020-06-06T12:01:24.000Z</time>
      </trkpt>
      <trkpt lat="43.62565" lon="3.84017">
        <ele>64</ele>
        <time>2020-06-06T12:01:25.000Z</time>
      </trkpt>
      <trkpt lat="43.62567" lon="3.84013">
        <ele>64</ele>
        <time>2020-06-06T12:01:26.000Z</time>
      </trkpt>
      <trkpt lat="43.62569" lon="3.84009">
        <ele>64</ele>
        <time>2020-06-06T12:01:27.000Z</time>
      </trkpt>
      <trkpt lat="43.62571" lon="3.84005">
        <ele>64</ele>
        <time>2020-06-06T12:01:28.000Z</time>
      </trkpt>
      <trkpt lat="43.62573" lon="3.84002">
        <ele>64</ele>
        <time>2020-06-06T12:01:29.000Z</time>
      </trkpt>
      <trkpt lat="43.62574" lon="3.83999">
        <ele>64</ele>
        <time>2020-06-06T12:01:30.000Z</time>
      </trkpt>
      <trkpt lat="43.62575" lon="3.83995">
        <ele>64</ele>
        <time>2020-06-06T12:01:32.000Z</time>
      </trkpt>
      <trkpt lat="43.62577" lon="3.83991">
        <ele>64</ele>
        <time>2020-06-06T12:01:34.000Z</time>
      </trkpt>
      <trkpt lat="43.62579" lon="3.8399">
        <ele>64</ele>
        <time>2020-06-06T12:01:35.000Z</time>
      </trkpt>
      <trkpt lat="43.62581" lon="3.83989">
        <ele>64</ele>
        <time>2020-06-06T12:01:36.000Z</time>
      </trkpt>
      <trkpt lat="43.62584" lon="3.83989">
        <ele>64</ele>
        <time>2020-06-06T12:01:37.000Z</time>
      </trkpt>
      <trkpt lat="43.62587" lon="3.83989">
        <ele>64</ele>
        <time>2020-06-06T12:01:38.000Z</time>
      </trkpt>
      <trkpt lat="43.6259" lon="3.83991">
        <ele>63.978021331635</ele>
        <time>2020-06-06T12:01:39.000Z</time>
      </trkpt>
      <trkpt lat="43.62593" lon="3.83992">
        <ele>63.778221067963</ele>
        <time>2020-06-06T12:01:40.000Z</time>
      </trkpt>
      <trkpt lat="43.62597" lon="3.83994">
        <ele>63.57842080429</ele>
        <time>2020-06-06T12:01:41.000Z</time>
      </trkpt>
      <trkpt lat="43.62601" lon="3.83997">
        <ele>63.378620540618</ele>
        <time>2020-06-06T12:01:42.000Z</time>
      </trkpt>
      <trkpt lat="43.62606" lon="3.84001">
        <ele>63.178820276946</ele>
        <time>2020-06-06T12:01:43.000Z</time>
      </trkpt>
      <trkpt lat="43.6261" lon="3.84004">
        <ele>62.979020013273</ele>
        <time>2020-06-06T12:01:44.000Z</time>
      </trkpt>
      <trkpt lat="43.62615" lon="3.84006">
        <ele>62.779219749601</ele>
        <time>2020-06-06T12:01:45.000Z</time>
      </trkpt>
      <trkpt lat="43.62619" lon="3.84009">
        <ele>62.579419485928</ele>
        <time>2020-06-06T12:01:46.000Z</time>
      </trkpt>
      <trkpt lat="43.62624" lon="3.84011">
        <ele>62.379619222256</ele>
        <time>2020-06-06T12:01:47.000Z</time>
      </trkpt>
      <trkpt lat="43.62628" lon="3.84014">
        <ele>62.179818958584</ele>
        <time>2020-06-06T12:01:48.000Z</time>
      </trkpt>
      <trkpt lat="43.62632" lon="3.84016">
        <ele>61.989989352556</ele>
        <time>2020-06-06T12:01:49.000Z</time>
      </trkpt>
      <trkpt lat="43.62636" lon="3.84018">
        <ele>61.88988928452</ele>
        <time>2020-06-06T12:01:50.000Z</time>
      </trkpt>
      <trkpt lat="43.6264" lon="3.8402">
        <ele>61.789789216484</ele>
        <time>2020-06-06T12:01:51.000Z</time>
      </trkpt>
      <trkpt lat="43.62643" lon="3.84023">
        <ele>61.689689148448</ele>
        <time>2020-06-06T12:01:52.000Z</time>
      </trkpt>
      <trkpt lat="43.62645" lon="3.84029">
        <ele>61.589589080412</ele>
        <time>2020-06-06T12:01:53.000Z</time>
      </trkpt>
      <trkpt lat="43.62647" lon="3.84033">
        <ele>61.489489012376</ele>
        <time>2020-06-06T12:01:54.000Z</time>
      </trkpt>
      <trkpt lat="43.62649" lon="3.84036">
        <ele>61.38938894434</ele>
        <time>2020-06-06T12:01:55.000Z</time>
      </trkpt>
      <trkpt lat="43.62652" lon="3.84039">
        <ele>61.289288876304</ele>
        <time>2020-06-06T12:01:56.000Z</time>
      </trkpt>
      <trkpt lat="43.62654" lon="3.84041">
        <ele>61.189188808268</ele>
        <time>2020-06-06T12:01:57.000Z</time>
      </trkpt>
      <trkpt lat="43.62657" lon="3.84041">
        <ele>61.089088740232</ele>
        <time>2020-06-06T12:01:58.000Z</time>
      </trkpt>
      <trkpt lat="43.6266" lon="3.8404">
        <ele>61</ele>
        <time>2020-06-06T12:01:59.000Z</time>
      </trkpt>
      <trkpt lat="43.62663" lon="3.84041">
        <ele>61</ele>
        <time>2020-06-06T12:02:00.000Z</time>
      </trkpt>
      <trkpt lat="43.62666" lon="3.84043">
        <ele>61</ele>
        <time>2020-06-06T12:02:01.000Z</time>
      </trkpt>
      <trkpt lat="43.62669" lon="3.84046">
        <ele>61</ele>
        <time>2020-06-06T12:02:02.000Z</time>
      </trkpt>
      <trkpt lat="43.62671" lon="3.84048">
        <ele>61</ele>
        <time>2020-06-06T12:02:03.000Z</time>
      </trkpt>
      <trkpt lat="43.62673" lon="3.84049">
        <ele>61</ele>
        <time>2020-06-06T12:02:04.000Z</time>
      </trkpt>
      <trkpt lat="43.62676" lon="3.84051">
        <ele>61</ele>
        <time>2020-06-06T12:02:05.000Z</time>
      </trkpt>
      <trkpt lat="43.62679" lon="3.84053">
        <ele>61</ele>
        <time>2020-06-06T12:02:06.000Z</time>
      </trkpt>
      <trkpt lat="43.62682" lon="3.84055">
        <ele>61</ele>
        <time>2020-06-06T12:02:07.000Z</time>
      </trkpt>
      <trkpt lat="43.62686" lon="3.84056">
        <ele>61</ele>
        <time>2020-06-06T12:02:08.000Z</time>
      </trkpt>
      <trkpt lat="43.6269" lon="3.84057">
        <ele>60.989010665818</ele>
        <time>2020-06-06T12:02:09.000Z</time>
      </trkpt>
      <trkpt lat="43.62694" lon="3.84058">
        <ele>60.889110533981</ele>
        <time>2020-06-06T12:02:10.000Z</time>
      </trkpt>
      <trkpt lat="43.62698" lon="3.84058">
        <ele>60.789210402145</ele>
        <time>2020-06-06T12:02:11.000Z</time>
      </trkpt>
      <trkpt lat="43.62702" lon="3.84057">
        <ele>60.689310270309</ele>
        <time>2020-06-06T12:02:12.000Z</time>
      </trkpt>
      <trkpt lat="43.62706" lon="3.84057">
        <ele>60.589410138473</ele>
        <time>2020-06-06T12:02:13.000Z</time>
      </trkpt>
      <trkpt lat="43.6271" lon="3.84057">
        <ele>60.489510006637</ele>
        <time>2020-06-06T12:02:14.000Z</time>
      </trkpt>
      <trkpt lat="43.62715" lon="3.84058">
        <ele>60.3896098748</ele>
        <time>2020-06-06T12:02:15.000Z</time>
      </trkpt>
      <trkpt lat="43.62719" lon="3.8406">
        <ele>60.289709742964</ele>
        <time>2020-06-06T12:02:16.000Z</time>
      </trkpt>
      <trkpt lat="43.62723" lon="3.84062">
        <ele>60.189809611128</ele>
        <time>2020-06-06T12:02:17.000Z</time>
      </trkpt>
      <trkpt lat="43.62727" lon="3.84066">
        <ele>60.089909479292</ele>
        <time>2020-06-06T12:02:18.000Z</time>
      </trkpt>
      <trkpt lat="43.62731" lon="3.8407">
        <ele>59.979978705112</ele>
        <time>2020-06-06T12:02:19.000Z</time>
      </trkpt>
      <trkpt lat="43.62735" lon="3.84074">
        <ele>59.77977856904</ele>
        <time>2020-06-06T12:02:20.000Z</time>
      </trkpt>
      <trkpt lat="43.62738" lon="3.84079">
        <ele>59.579578432968</ele>
        <time>2020-06-06T12:02:21.000Z</time>
      </trkpt>
      <trkpt lat="43.62742" lon="3.84083">
        <ele>59.379378296896</ele>
        <time>2020-06-06T12:02:22.000Z</time>
      </trkpt>
      <trkpt lat="43.62746" lon="3.84088">
        <ele>59.179178160824</ele>
        <time>2020-06-06T12:02:23.000Z</time>
      </trkpt>
      <trkpt lat="43.6275" lon="3.84093">
        <ele>58.978978024752</ele>
        <time>2020-06-06T12:02:24.000Z</time>
      </trkpt>
      <trkpt lat="43.62753" lon="3.84098">
        <ele>58.77877788868</ele>
        <time>2020-06-06T12:02:25.000Z</time>
      </trkpt>
      <trkpt lat="43.62757" lon="3.84103">
        <ele>58.578577752608</ele>
        <time>2020-06-06T12:02:26.000Z</time>
      </trkpt>
      <trkpt lat="43.6276" lon="3.84108">
        <ele>58.378377616536</ele>
        <time>2020-06-06T12:02:27.000Z</time>
      </trkpt>
      <trkpt lat="43.62763" lon="3.84114">
        <ele>58.178177480464</ele>
        <time>2020-06-06T12:02:28.000Z</time>
      </trkpt>
      <trkpt lat="43.62766" lon="3.84119">
        <ele>57.98899968</ele>
        <time>2020-06-06T12:02:29.000Z</time>
      </trkpt>
      <trkpt lat="43.62769" lon="3.84125">
        <ele>57.88899968</ele>
        <time>2020-06-06T12:02:30.000Z</time>
      </trkpt>
      <trkpt lat="43.62772" lon="3.84131">
        <ele>57.78899968</ele>
        <time>2020-06-06T12:02:31.000Z</time>
      </trkpt>
      <trkpt lat="43.62774" lon="3.84136">
        <ele>57.68899968</ele>
        <time>2020-06-06T12:02:32.000Z</time>
      </trkpt>
      <trkpt lat="43.62777" lon="3.84142">
        <ele>57.58899968</ele>
        <time>2020-06-06T12:02:33.000Z</time>
      </trkpt>
      <trkpt lat="43.6278" lon="3.84148">
        <ele>57.48899968</ele>
        <time>2020-06-06T12:02:34.000Z</time>
      </trkpt>
      <trkpt lat="43.62782" lon="3.84154">
        <ele>57.38899968</ele>
        <time>2020-06-06T12:02:35.000Z</time>
      </trkpt>
      <trkpt lat="43.62785" lon="3.8416">
        <ele>57.28899968</ele>
        <time>2020-06-06T12:02:36.000Z</time>
      </trkpt>
      <trkpt lat="43.62788" lon="3.84166">
        <ele>57.18899968</ele>
        <time>2020-06-06T12:02:37.000Z</time>
      </trkpt>
      <trkpt lat="43.62791" lon="3.84172">
        <ele>57.08899968</ele>
        <time>2020-06-06T12:02:38.000Z</time>
      </trkpt>
      <trkpt lat="43.62794" lon="3.84178">
        <ele>56.98899968</ele>
        <time>2020-06-06T12:02:39.000Z</time>
      </trkpt>
      <trkpt lat="43.62798" lon="3.84184">
        <ele>56.88899968</ele>
        <time>2020-06-06T12:02:40.000Z</time>
      </trkpt>
      <trkpt lat="43.62802" lon="3.8419">
        <ele>56.78899968</ele>
        <time>2020-06-06T12:02:41.000Z</time>
      </trkpt>
      <trkpt lat="43.62806" lon="3.84196">
        <ele>56.68899968</ele>
        <time>2020-06-06T12:02:42.000Z</time>
      </trkpt>
      <trkpt lat="43.62809" lon="3.84202">
        <ele>56.58899968</ele>
        <time>2020-06-06T12:02:43.000Z</time>
      </trkpt>
      <trkpt lat="43.62813" lon="3.84207">
        <ele>56.48899968</ele>
        <time>2020-06-06T12:02:44.000Z</time>
      </trkpt>
      <trkpt lat="43.62817" lon="3.84213">
        <ele>56.38899968</ele>
        <time>2020-06-06T12:02:45.000Z</time>
      </trkpt>
      <trkpt lat="43.62821" lon="3.84218">
        <ele>56.28899968</ele>
        <time>2020-06-06T12:02:46.000Z</time>
      </trkpt>
      <trkpt lat="43.62825" lon="3.84224">
        <ele>56.18899968</ele>
        <time>2020-06-06T12:02:47.000Z</time>
      </trkpt>
      <trkpt lat="43.62828" lon="3.8423">
        <ele>56.08899968</ele>
        <time>2020-06-06T12:02:48.000Z</time>
      </trkpt>
      <trkpt lat="43.62832" lon="3.84235">
        <ele>55.98899968</ele>
        <time>2020-06-06T12:02:49.000Z</time>
      </trkpt>
      <trkpt lat="43.62836" lon="3.84241">
        <ele>55.88899968</ele>
        <time>2020-06-06T12:02:50.000Z</time>
      </trkpt>
      <trkpt lat="43.6284" lon="3.84247">
        <ele>55.78899968</ele>
        <time>2020-06-06T12:02:51.000Z</time>
      </trkpt>
      <trkpt lat="43.62844" lon="3.84252">
        <ele>55.68899968</ele>
        <time>2020-06-06T12:02:52.000Z</time>
      </trkpt>
      <trkpt lat="43.62848" lon="3.84258">
        <ele>55.58899968</ele>
        <time>2020-06-06T12:02:53.000Z</time>
      </trkpt>
      <trkpt lat="43.62852" lon="3.84263">
        <ele>55.48899968</ele>
        <time>2020-06-06T12:02:54.000Z</time>
      </trkpt>
      <trkpt lat="43.62855" lon="3.84269">
        <ele>55.38899968</ele>
        <time>2020-06-06T12:02:55.000Z</time>
      </trkpt>
      <trkpt lat="43.62859" lon="3.84274">
        <ele>55.28899968</ele>
        <time>2020-06-06T12:02:56.000Z</time>
      </trkpt>
      <trkpt lat="43.62862" lon="3.8428">
        <ele>55.18899968</ele>
        <time>2020-06-06T12:02:57.000Z</time>
      </trkpt>
      <trkpt lat="43.62866" lon="3.84285">
        <ele>55.08899968</ele>
        <time>2020-06-06T12:02:58.000Z</time>
      </trkpt>
      <trkpt lat="43.6287" lon="3.8429">
        <ele>54.98899968</ele>
        <time>2020-06-06T12:02:59.000Z</time>
      </trkpt>
      <trkpt lat="43.62873" lon="3.84295">
        <ele>54.88899968</ele>
        <time>2020-06-06T12:03:00.000Z</time>
      </trkpt>
      <trkpt lat="43.62877" lon="3.843">
        <ele>54.78899968</ele>
        <time>2020-06-06T12:03:01.000Z</time>
      </trkpt>
      <trkpt lat="43.62881" lon="3.84305">
        <ele>54.68899968</ele>
        <time>2020-06-06T12:03:02.000Z</time>
      </trkpt>
      <trkpt lat="43.62885" lon="3.84311">
        <ele>54.58899968</ele>
        <time>2020-06-06T12:03:03.000Z</time>
      </trkpt>
      <trkpt lat="43.62888" lon="3.84316">
        <ele>54.48899968</ele>
        <time>2020-06-06T12:03:04.000Z</time>
      </trkpt>
      <trkpt lat="43.62892" lon="3.8432">
        <ele>54.38899968</ele>
        <time>2020-06-06T12:03:05.000Z</time>
      </trkpt>
      <trkpt lat="43.62896" lon="3.84325">
        <ele>54.28899968</ele>
        <time>2020-06-06T12:03:06.000Z</time>
      </trkpt>
      <trkpt lat="43.62899" lon="3.8433">
        <ele>54.18899968</ele>
        <time>2020-06-06T12:03:07.000Z</time>
      </trkpt>
      <trkpt lat="43.62903" lon="3.84334">
        <ele>54.08899968</ele>
        <time>2020-06-06T12:03:08.000Z</time>
      </trkpt>
      <trkpt lat="43.62907" lon="3.84338">
        <ele>53.98930970871</ele>
        <time>2020-06-06T12:03:09.000Z</time>
      </trkpt>
      <trkpt lat="43.62911" lon="3.84342">
        <ele>53.89212806954</ele>
        <time>2020-06-06T12:03:10.000Z</time>
      </trkpt>
      <trkpt lat="43.62915" lon="3.84346">
        <ele>53.794946430371</ele>
        <time>2020-06-06T12:03:11.000Z</time>
      </trkpt>
      <trkpt lat="43.62918" lon="3.84351">
        <ele>53.697764791201</ele>
        <time>2020-06-06T12:03:12.000Z</time>
      </trkpt>
      <trkpt lat="43.62922" lon="3.84355">
        <ele>53.600583152031</ele>
        <time>2020-06-06T12:03:13.000Z</time>
      </trkpt>
      <trkpt lat="43.62926" lon="3.8436">
        <ele>53.503401512862</ele>
        <time>2020-06-06T12:03:14.000Z</time>
      </trkpt>
      <trkpt lat="43.6293" lon="3.84364">
        <ele>53.406219873692</ele>
        <time>2020-06-06T12:03:15.000Z</time>
      </trkpt>
      <trkpt lat="43.62934" lon="3.84368">
        <ele>53.309038234522</ele>
        <time>2020-06-06T12:03:16.000Z</time>
      </trkpt>
      <trkpt lat="43.62938" lon="3.84372">
        <ele>53.211856595352</ele>
        <time>2020-06-06T12:03:17.000Z</time>
      </trkpt>
      <trkpt lat="43.62943" lon="3.84376">
        <ele>53.114674956183</ele>
        <time>2020-06-06T12:03:18.000Z</time>
      </trkpt>
      <trkpt lat="43.62946" lon="3.8438">
        <ele>53.017493317013</ele>
        <time>2020-06-06T12:03:19.000Z</time>
      </trkpt>
      <trkpt lat="43.62949" lon="3.84384">
        <ele>52.915551553995</ele>
        <time>2020-06-06T12:03:20.000Z</time>
      </trkpt>
      <trkpt lat="43.62952" lon="3.84387">
        <ele>52.812564840435</ele>
        <time>2020-06-06T12:03:21.000Z</time>
      </trkpt>
      <trkpt lat="43.62954" lon="3.84389">
        <ele>52.709578126874</ele>
        <time>2020-06-06T12:03:22.000Z</time>
      </trkpt>
      <trkpt lat="43.62956" lon="3.84391">
        <ele>52.606591413314</ele>
        <time>2020-06-06T12:03:23.000Z</time>
      </trkpt>
      <trkpt lat="43.62958" lon="3.84393">
        <ele>52.503604699753</ele>
        <time>2020-06-06T12:03:24.000Z</time>
      </trkpt>
      <trkpt lat="43.6296" lon="3.84394">
        <ele>52.400617986193</ele>
        <time>2020-06-06T12:03:25.000Z</time>
      </trkpt>
      <trkpt lat="43.62963" lon="3.84395">
        <ele>52.297631272632</ele>
        <time>2020-06-06T12:03:26.000Z</time>
      </trkpt>
      <trkpt lat="43.62967" lon="3.84395">
        <ele>52.194644559072</ele>
        <time>2020-06-06T12:03:27.000Z</time>
      </trkpt>
      <trkpt lat="43.6297" lon="3.84393">
        <ele>52.091657845511</ele>
        <time>2020-06-06T12:03:28.000Z</time>
      </trkpt>
      <trkpt lat="43.62973" lon="3.8439">
        <ele>51.98899968</ele>
        <time>2020-06-06T12:03:29.000Z</time>
      </trkpt>
      <trkpt lat="43.62976" lon="3.84385">
        <ele>51.88899968</ele>
        <time>2020-06-06T12:03:30.000Z</time>
      </trkpt>
      <trkpt lat="43.62979" lon="3.8438">
        <ele>51.78899968</ele>
        <time>2020-06-06T12:03:31.000Z</time>
      </trkpt>
      <trkpt lat="43.62982" lon="3.84376">
        <ele>51.68899968</ele>
        <time>2020-06-06T12:03:32.000Z</time>
      </trkpt>
      <trkpt lat="43.62985" lon="3.84372">
        <ele>51.58899968</ele>
        <time>2020-06-06T12:03:33.000Z</time>
      </trkpt>
      <trkpt lat="43.62988" lon="3.84368">
        <ele>51.48899968</ele>
        <time>2020-06-06T12:03:34.000Z</time>
      </trkpt>
      <trkpt lat="43.62991" lon="3.84365">
        <ele>51.38899968</ele>
        <time>2020-06-06T12:03:35.000Z</time>
      </trkpt>
      <trkpt lat="43.62994" lon="3.84361">
        <ele>51.28899968</ele>
        <time>2020-06-06T12:03:36.000Z</time>
      </trkpt>
      <trkpt lat="43.62998" lon="3.84357">
        <ele>51.18899968</ele>
        <time>2020-06-06T12:03:37.000Z</time>
      </trkpt>
      <trkpt lat="43.63001" lon="3.84354">
        <ele>51.08899968</ele>
        <time>2020-06-06T12:03:38.000Z</time>
      </trkpt>
      <trkpt lat="43.63005" lon="3.84351">
        <ele>51</ele>
        <time>2020-06-06T12:03:39.000Z</time>
      </trkpt>
      <trkpt lat="43.63008" lon="3.84348">
        <ele>51</ele>
        <time>2020-06-06T12:03:40.000Z</time>
      </trkpt>
      <trkpt lat="43.63012" lon="3.84345">
        <ele>51</ele>
        <time>2020-06-06T12:03:41.000Z</time>
      </trkpt>
      <trkpt lat="43.63015" lon="3.84342">
        <ele>51</ele>
        <time>2020-06-06T12:03:42.000Z</time>
      </trkpt>
      <trkpt lat="43.63018" lon="3.84339">
        <ele>51</ele>
        <time>2020-06-06T12:03:43.000Z</time>
      </trkpt>
      <trkpt lat="43.63022" lon="3.84335">
        <ele>51</ele>
        <time>2020-06-06T12:03:44.000Z</time>
      </trkpt>
      <trkpt lat="43.63024" lon="3.84332">
        <ele>51</ele>
        <time>2020-06-06T12:03:45.000Z</time>
      </trkpt>
      <trkpt lat="43.63027" lon="3.84328">
        <ele>51</ele>
        <time>2020-06-06T12:03:46.000Z</time>
      </trkpt>
      <trkpt lat="43.63031" lon="3.84324">
        <ele>51</ele>
        <time>2020-06-06T12:03:47.000Z</time>
      </trkpt>
      <trkpt lat="43.63034" lon="3.84321">
        <ele>51</ele>
        <time>2020-06-06T12:03:48.000Z</time>
      </trkpt>
      <trkpt lat="43.63037" lon="3.84318">
        <ele>51.003024516129</ele>
        <time>2020-06-06T12:03:49.000Z</time>
      </trkpt>
      <trkpt lat="43.6304" lon="3.84315">
        <ele>51.103830967742</ele>
        <time>2020-06-06T12:03:50.000Z</time>
      </trkpt>
      <trkpt lat="43.63044" lon="3.84312">
        <ele>51.204637419355</ele>
        <time>2020-06-06T12:03:51.000Z</time>
      </trkpt>
      <trkpt lat="43.63047" lon="3.8431">
        <ele>51.305443870968</ele>
        <time>2020-06-06T12:03:52.000Z</time>
      </trkpt>
      <trkpt lat="43.6305" lon="3.84307">
        <ele>51.406250322581</ele>
        <time>2020-06-06T12:03:53.000Z</time>
      </trkpt>
      <trkpt lat="43.63053" lon="3.84305">
        <ele>51.507056774194</ele>
        <time>2020-06-06T12:03:54.000Z</time>
      </trkpt>
      <trkpt lat="43.63057" lon="3.84304">
        <ele>51.607863225806</ele>
        <time>2020-06-06T12:03:55.000Z</time>
      </trkpt>
      <trkpt lat="43.6306" lon="3.84303">
        <ele>51.708669677419</ele>
        <time>2020-06-06T12:03:56.000Z</time>
      </trkpt>
      <trkpt lat="43.63064" lon="3.84303">
        <ele>51.809476129032</ele>
        <time>2020-06-06T12:03:57.000Z</time>
      </trkpt>
      <trkpt lat="43.63067" lon="3.84304">
        <ele>51.910282580645</ele>
        <time>2020-06-06T12:03:58.000Z</time>
      </trkpt>
      <trkpt lat="43.6307" lon="3.84307">
        <ele>51.98899968</ele>
        <time>2020-06-06T12:03:59.000Z</time>
      </trkpt>
      <trkpt lat="43.63074" lon="3.84311">
        <ele>51.88899968</ele>
        <time>2020-06-06T12:04:00.000Z</time>
      </trkpt>
      <trkpt lat="43.63078" lon="3.84314">
        <ele>51.78899968</ele>
        <time>2020-06-06T12:04:01.000Z</time>
      </trkpt>
      <trkpt lat="43.63082" lon="3.84316">
        <ele>51.68899968</ele>
        <time>2020-06-06T12:04:02.000Z</time>
      </trkpt>
      <trkpt lat="43.63087" lon="3.84319">
        <ele>51.58899968</ele>
        <time>2020-06-06T12:04:03.000Z</time>
      </trkpt>
      <trkpt lat="43.63092" lon="3.8432">
        <ele>51.48899968</ele>
        <time>2020-06-06T12:04:04.000Z</time>
      </trkpt>
      <trkpt lat="43.63096" lon="3.84321">
        <ele>51.38899968</ele>
        <time>2020-06-06T12:04:05.000Z</time>
      </trkpt>
      <trkpt lat="43.63101" lon="3.84321">
        <ele>51.28899968</ele>
        <time>2020-06-06T12:04:06.000Z</time>
      </trkpt>
      <trkpt lat="43.63106" lon="3.84321">
        <ele>51.18899968</ele>
        <time>2020-06-06T12:04:07.000Z</time>
      </trkpt>
      <trkpt lat="43.6311" lon="3.84322">
        <ele>51.08899968</ele>
        <time>2020-06-06T12:04:08.000Z</time>
      </trkpt>
      <trkpt lat="43.63115" lon="3.84322">
        <ele>51.01100032</ele>
        <time>2020-06-06T12:04:09.000Z</time>
      </trkpt>
      <trkpt lat="43.6312" lon="3.84321">
        <ele>51.11100032</ele>
        <time>2020-06-06T12:04:10.000Z</time>
      </trkpt>
      <trkpt lat="43.63124" lon="3.84321">
        <ele>51.21100032</ele>
        <time>2020-06-06T12:04:11.000Z</time>
      </trkpt>
      <trkpt lat="43.63128" lon="3.8432">
        <ele>51.31100032</ele>
        <time>2020-06-06T12:04:12.000Z</time>
      </trkpt>
      <trkpt lat="43.63132" lon="3.84319">
        <ele>51.41100032</ele>
        <time>2020-06-06T12:04:13.000Z</time>
      </trkpt>
      <trkpt lat="43.63136" lon="3.84318">
        <ele>51.51100032</ele>
        <time>2020-06-06T12:04:14.000Z</time>
      </trkpt>
      <trkpt lat="43.6314" lon="3.84318">
        <ele>51.61100032</ele>
        <time>2020-06-06T12:04:15.000Z</time>
      </trkpt>
      <trkpt lat="43.63144" lon="3.84318">
        <ele>51.71100032</ele>
        <time>2020-06-06T12:04:16.000Z</time>
      </trkpt>
      <trkpt lat="43.63148" lon="3.84318">
        <ele>51.81100032</ele>
        <time>2020-06-06T12:04:17.000Z</time>
      </trkpt>
      <trkpt lat="43.63153" lon="3.84317">
        <ele>51.91100032</ele>
        <time>2020-06-06T12:04:18.000Z</time>
      </trkpt>
      <trkpt lat="43.63157" lon="3.84317">
        <ele>51.98899968</ele>
        <time>2020-06-06T12:04:19.000Z</time>
      </trkpt>
      <trkpt lat="43.63161" lon="3.84316">
        <ele>51.88899968</ele>
        <time>2020-06-06T12:04:20.000Z</time>
      </trkpt>
      <trkpt lat="43.63166" lon="3.84316">
        <ele>51.78899968</ele>
        <time>2020-06-06T12:04:21.000Z</time>
      </trkpt>
      <trkpt lat="43.6317" lon="3.84315">
        <ele>51.68899968</ele>
        <time>2020-06-06T12:04:22.000Z</time>
      </trkpt>
      <trkpt lat="43.63175" lon="3.84315">
        <ele>51.58899968</ele>
        <time>2020-06-06T12:04:23.000Z</time>
      </trkpt>
      <trkpt lat="43.63179" lon="3.84314">
        <ele>51.48899968</ele>
        <time>2020-06-06T12:04:24.000Z</time>
      </trkpt>
      <trkpt lat="43.63183" lon="3.84314">
        <ele>51.38899968</ele>
        <time>2020-06-06T12:04:25.000Z</time>
      </trkpt>
      <trkpt lat="43.63187" lon="3.84313">
        <ele>51.28899968</ele>
        <time>2020-06-06T12:04:26.000Z</time>
      </trkpt>
      <trkpt lat="43.63191" lon="3.84311">
        <ele>51.18899968</ele>
        <time>2020-06-06T12:04:27.000Z</time>
      </trkpt>
      <trkpt lat="43.63195" lon="3.8431">
        <ele>51.08899968</ele>
        <time>2020-06-06T12:04:28.000Z</time>
      </trkpt>
      <trkpt lat="43.632" lon="3.84308">
        <ele>51.01100032</ele>
        <time>2020-06-06T12:04:29.000Z</time>
      </trkpt>
      <trkpt lat="43.63204" lon="3.84308">
        <ele>51.11100032</ele>
        <time>2020-06-06T12:04:30.000Z</time>
      </trkpt>
      <trkpt lat="43.63209" lon="3.84308">
        <ele>51.21100032</ele>
        <time>2020-06-06T12:04:31.000Z</time>
      </trkpt>
      <trkpt lat="43.63214" lon="3.84307">
        <ele>51.31100032</ele>
        <time>2020-06-06T12:04:32.000Z</time>
      </trkpt>
      <trkpt lat="43.63218" lon="3.84307">
        <ele>51.41100032</ele>
        <time>2020-06-06T12:04:33.000Z</time>
      </trkpt>
      <trkpt lat="43.63223" lon="3.84307">
        <ele>51.51100032</ele>
        <time>2020-06-06T12:04:34.000Z</time>
      </trkpt>
      <trkpt lat="43.63228" lon="3.84307">
        <ele>51.61100032</ele>
        <time>2020-06-06T12:04:35.000Z</time>
      </trkpt>
      <trkpt lat="43.63233" lon="3.84308">
        <ele>51.71100032</ele>
        <time>2020-06-06T12:04:36.000Z</time>
      </trkpt>
      <trkpt lat="43.63237" lon="3.84309">
        <ele>51.81100032</ele>
        <time>2020-06-06T12:04:37.000Z</time>
      </trkpt>
      <trkpt lat="43.63242" lon="3.8431">
        <ele>51.91100032</ele>
        <time>2020-06-06T12:04:38.000Z</time>
      </trkpt>
      <trkpt lat="43.63247" lon="3.84312">
        <ele>52.01100032</ele>
        <time>2020-06-06T12:04:39.000Z</time>
      </trkpt>
      <trkpt lat="43.63252" lon="3.84313">
        <ele>52.11100032</ele>
        <time>2020-06-06T12:04:40.000Z</time>
      </trkpt>
      <trkpt lat="43.63256" lon="3.84315">
        <ele>52.21100032</ele>
        <time>2020-06-06T12:04:41.000Z</time>
      </trkpt>
      <trkpt lat="43.63261" lon="3.84317">
        <ele>52.31100032</ele>
        <time>2020-06-06T12:04:42.000Z</time>
      </trkpt>
      <trkpt lat="43.63265" lon="3.84318">
        <ele>52.41100032</ele>
        <time>2020-06-06T12:04:43.000Z</time>
      </trkpt>
      <trkpt lat="43.63269" lon="3.8432">
        <ele>52.51100032</ele>
        <time>2020-06-06T12:04:44.000Z</time>
      </trkpt>
      <trkpt lat="43.63273" lon="3.84321">
        <ele>52.61100032</ele>
        <time>2020-06-06T12:04:45.000Z</time>
      </trkpt>
      <trkpt lat="43.63277" lon="3.84323">
        <ele>52.71100032</ele>
        <time>2020-06-06T12:04:46.000Z</time>
      </trkpt>
      <trkpt lat="43.63281" lon="3.84324">
        <ele>52.81100032</ele>
        <time>2020-06-06T12:04:47.000Z</time>
      </trkpt>
      <trkpt lat="43.63286" lon="3.84325">
        <ele>52.91100032</ele>
        <time>2020-06-06T12:04:48.000Z</time>
      </trkpt>
      <trkpt lat="43.6329" lon="3.84327">
        <ele>53</ele>
        <time>2020-06-06T12:04:49.000Z</time>
      </trkpt>
      <trkpt lat="43.63294" lon="3.84328">
        <ele>53</ele>
        <time>2020-06-06T12:04:50.000Z</time>
      </trkpt>
      <trkpt lat="43.63298" lon="3.8433">
        <ele>53</ele>
        <time>2020-06-06T12:04:51.000Z</time>
      </trkpt>
      <trkpt lat="43.63302" lon="3.84331">
        <ele>53</ele>
        <time>2020-06-06T12:04:52.000Z</time>
      </trkpt>
      <trkpt lat="43.63306" lon="3.84333">
        <ele>53</ele>
        <time>2020-06-06T12:04:53.000Z</time>
      </trkpt>
      <trkpt lat="43.6331" lon="3.84334">
        <ele>53</ele>
        <time>2020-06-06T12:04:54.000Z</time>
      </trkpt>
      <trkpt lat="43.63314" lon="3.84335">
        <ele>53</ele>
        <time>2020-06-06T12:04:55.000Z</time>
      </trkpt>
      <trkpt lat="43.63318" lon="3.84336">
        <ele>53</ele>
        <time>2020-06-06T12:04:56.000Z</time>
      </trkpt>
      <trkpt lat="43.63321" lon="3.84338">
        <ele>53</ele>
        <time>2020-06-06T12:04:57.000Z</time>
      </trkpt>
      <trkpt lat="43.63325" lon="3.84339">
        <ele>53</ele>
        <time>2020-06-06T12:04:58.000Z</time>
      </trkpt>
      <trkpt lat="43.63329" lon="3.8434">
        <ele>53</ele>
        <time>2020-06-06T12:04:59.000Z</time>
      </trkpt>
      <trkpt lat="43.63332" lon="3.84341">
        <ele>53.084448446005</ele>
        <time>2020-06-06T12:05:00.000Z</time>
      </trkpt>
      <trkpt lat="43.63335" lon="3.84342">
        <ele>53.187435159565</ele>
        <time>2020-06-06T12:05:01.000Z</time>
      </trkpt>
      <trkpt lat="43.63338" lon="3.84342">
        <ele>53.290421873126</ele>
        <time>2020-06-06T12:05:02.000Z</time>
      </trkpt>
      <trkpt lat="43.6334" lon="3.84342">
        <ele>53.393408586686</ele>
        <time>2020-06-06T12:05:03.000Z</time>
      </trkpt>
      <trkpt lat="43.63342" lon="3.84342">
        <ele>53.599382013807</ele>
        <time>2020-06-06T12:05:05.000Z</time>
      </trkpt>
      <trkpt lat="43.63345" lon="3.84344">
        <ele>53.805355440928</ele>
        <time>2020-06-06T12:05:07.000Z</time>
      </trkpt>
      <trkpt lat="43.63347" lon="3.84346">
        <ele>53.908342154489</ele>
        <time>2020-06-06T12:05:08.000Z</time>
      </trkpt>
      <trkpt lat="43.63351" lon="3.84347">
        <ele>54.01100032</ele>
        <time>2020-06-06T12:05:09.000Z</time>
      </trkpt>
      <trkpt lat="43.63354" lon="3.84348">
        <ele>54.11100032</ele>
        <time>2020-06-06T12:05:10.000Z</time>
      </trkpt>
      <trkpt lat="43.63357" lon="3.84349">
        <ele>54.21100032</ele>
        <time>2020-06-06T12:05:11.000Z</time>
      </trkpt>
      <trkpt lat="43.63362" lon="3.8435">
        <ele>54.31100032</ele>
        <time>2020-06-06T12:05:12.000Z</time>
      </trkpt>
      <trkpt lat="43.63366" lon="3.84351">
        <ele>54.41100032</ele>
        <time>2020-06-06T12:05:13.000Z</time>
      </trkpt>
      <trkpt lat="43.6337" lon="3.84352">
        <ele>54.51100032</ele>
        <time>2020-06-06T12:05:14.000Z</time>
      </trkpt>
      <trkpt lat="43.63374" lon="3.84353">
        <ele>54.61100032</ele>
        <time>2020-06-06T12:05:15.000Z</time>
      </trkpt>
      <trkpt lat="43.63378" lon="3.84354">
        <ele>54.71100032</ele>
        <time>2020-06-06T12:05:16.000Z</time>
      </trkpt>
      <trkpt lat="43.63382" lon="3.84355">
        <ele>54.81100032</ele>
        <time>2020-06-06T12:05:17.000Z</time>
      </trkpt>
      <trkpt lat="43.63386" lon="3.84355">
        <ele>54.91100032</ele>
        <time>2020-06-06T12:05:18.000Z</time>
      </trkpt>
      <trkpt lat="43.6339" lon="3.84355">
        <ele>55</ele>
        <time>2020-06-06T12:05:19.000Z</time>
      </trkpt>
      <trkpt lat="43.63395" lon="3.84356">
        <ele>55</ele>
        <time>2020-06-06T12:05:20.000Z</time>
      </trkpt>
      <trkpt lat="43.63399" lon="3.84357">
        <ele>55</ele>
        <time>2020-06-06T12:05:21.000Z</time>
      </trkpt>
      <trkpt lat="43.63403" lon="3.84358">
        <ele>55</ele>
        <time>2020-06-06T12:05:22.000Z</time>
      </trkpt>
      <trkpt lat="43.63408" lon="3.84359">
        <ele>55</ele>
        <time>2020-06-06T12:05:23.000Z</time>
      </trkpt>
      <trkpt lat="43.63412" lon="3.8436">
        <ele>55</ele>
        <time>2020-06-06T12:05:24.000Z</time>
      </trkpt>
      <trkpt lat="43.63416" lon="3.84361">
        <ele>55</ele>
        <time>2020-06-06T12:05:25.000Z</time>
      </trkpt>
      <trkpt lat="43.63421" lon="3.84362">
        <ele>55</ele>
        <time>2020-06-06T12:05:26.000Z</time>
      </trkpt>
      <trkpt lat="43.63426" lon="3.84363">
        <ele>55</ele>
        <time>2020-06-06T12:05:27.000Z</time>
      </trkpt>
      <trkpt lat="43.63431" lon="3.84365">
        <ele>55</ele>
        <time>2020-06-06T12:05:28.000Z</time>
      </trkpt>
      <trkpt lat="43.63435" lon="3.84367">
        <ele>54.991975925208</ele>
        <time>2020-06-06T12:05:29.000Z</time>
      </trkpt>
      <trkpt lat="43.6344" lon="3.84369">
        <ele>54.891674990307</ele>
        <time>2020-06-06T12:05:30.000Z</time>
      </trkpt>
      <trkpt lat="43.63444" lon="3.84371">
        <ele>54.791374055406</ele>
        <time>2020-06-06T12:05:31.000Z</time>
      </trkpt>
      <trkpt lat="43.63448" lon="3.84373">
        <ele>54.691073120505</ele>
        <time>2020-06-06T12:05:32.000Z</time>
      </trkpt>
      <trkpt lat="43.63452" lon="3.84375">
        <ele>54.590772185604</ele>
        <time>2020-06-06T12:05:33.000Z</time>
      </trkpt>
      <trkpt lat="43.63456" lon="3.84377">
        <ele>54.490471250703</ele>
        <time>2020-06-06T12:05:34.000Z</time>
      </trkpt>
      <trkpt lat="43.6346" lon="3.84379">
        <ele>54.390170315802</ele>
        <time>2020-06-06T12:05:35.000Z</time>
      </trkpt>
      <trkpt lat="43.63464" lon="3.84381">
        <ele>54.289869380901</ele>
        <time>2020-06-06T12:05:36.000Z</time>
      </trkpt>
      <trkpt lat="43.63468" lon="3.84384">
        <ele>54.189568446</ele>
        <time>2020-06-06T12:05:37.000Z</time>
      </trkpt>
      <trkpt lat="43.63472" lon="3.84386">
        <ele>54.089267511099</ele>
        <time>2020-06-06T12:05:38.000Z</time>
      </trkpt>
      <trkpt lat="43.63476" lon="3.84389">
        <ele>53.989299299611</ele>
        <time>2020-06-06T12:05:39.000Z</time>
      </trkpt>
      <trkpt lat="43.6348" lon="3.84393">
        <ele>53.892023035019</ele>
        <time>2020-06-06T12:05:40.000Z</time>
      </trkpt>
      <trkpt lat="43.63484" lon="3.84397">
        <ele>53.794746770428</ele>
        <time>2020-06-06T12:05:41.000Z</time>
      </trkpt>
      <trkpt lat="43.63487" lon="3.84401">
        <ele>53.697470505837</ele>
        <time>2020-06-06T12:05:42.000Z</time>
      </trkpt>
      <trkpt lat="43.63491" lon="3.84406">
        <ele>53.600194241245</ele>
        <time>2020-06-06T12:05:43.000Z</time>
      </trkpt>
      <trkpt lat="43.63495" lon="3.84408">
        <ele>53.502917976654</ele>
        <time>2020-06-06T12:05:44.000Z</time>
      </trkpt>
      <trkpt lat="43.63499" lon="3.84407">
        <ele>53.405641712062</ele>
        <time>2020-06-06T12:05:45.000Z</time>
      </trkpt>
      <trkpt lat="43.63503" lon="3.84405">
        <ele>53.308365447471</ele>
        <time>2020-06-06T12:05:46.000Z</time>
      </trkpt>
      <trkpt lat="43.63507" lon="3.84404">
        <ele>53.211089182879</ele>
        <time>2020-06-06T12:05:47.000Z</time>
      </trkpt>
      <trkpt lat="43.63512" lon="3.84405">
        <ele>53.113812918288</ele>
        <time>2020-06-06T12:05:48.000Z</time>
      </trkpt>
      <trkpt lat="43.63516" lon="3.84408">
        <ele>53.016536653696</ele>
        <time>2020-06-06T12:05:49.000Z</time>
      </trkpt>
      <trkpt lat="43.63521" lon="3.84411">
        <ele>52.829392914086</ele>
        <time>2020-06-06T12:05:50.000Z</time>
      </trkpt>
      <trkpt lat="43.63526" lon="3.84413">
        <ele>52.623843000647</ele>
        <time>2020-06-06T12:05:51.000Z</time>
      </trkpt>
      <trkpt lat="43.63531" lon="3.84415">
        <ele>52.418293087208</ele>
        <time>2020-06-06T12:05:52.000Z</time>
      </trkpt>
      <trkpt lat="43.63536" lon="3.84417">
        <ele>52.21274317377</ele>
        <time>2020-06-06T12:05:53.000Z</time>
      </trkpt>
      <trkpt lat="43.63541" lon="3.8442">
        <ele>52.007193260331</ele>
        <time>2020-06-06T12:05:54.000Z</time>
      </trkpt>
      <trkpt lat="43.63546" lon="3.84423">
        <ele>51.801643346892</ele>
        <time>2020-06-06T12:05:55.000Z</time>
      </trkpt>
      <trkpt lat="43.63551" lon="3.84426">
        <ele>51.596093433453</ele>
        <time>2020-06-06T12:05:56.000Z</time>
      </trkpt>
      <trkpt lat="43.63557" lon="3.84428">
        <ele>51.390543520014</ele>
        <time>2020-06-06T12:05:57.000Z</time>
      </trkpt>
      <trkpt lat="43.63562" lon="3.84431">
        <ele>51.184993606576</ele>
        <time>2020-06-06T12:05:58.000Z</time>
      </trkpt>
      <trkpt lat="43.63567" lon="3.84434">
        <ele>50.989989352556</ele>
        <time>2020-06-06T12:05:59.000Z</time>
      </trkpt>
      <trkpt lat="43.63572" lon="3.84437">
        <ele>50.88988928452</ele>
        <time>2020-06-06T12:06:00.000Z</time>
      </trkpt>
      <trkpt lat="43.63577" lon="3.8444">
        <ele>50.789789216484</ele>
        <time>2020-06-06T12:06:01.000Z</time>
      </trkpt>
      <trkpt lat="43.63582" lon="3.84442">
        <ele>50.689689148448</ele>
        <time>2020-06-06T12:06:02.000Z</time>
      </trkpt>
      <trkpt lat="43.63587" lon="3.84445">
        <ele>50.589589080412</ele>
        <time>2020-06-06T12:06:03.000Z</time>
      </trkpt>
      <trkpt lat="43.63592" lon="3.84448">
        <ele>50.489489012376</ele>
        <time>2020-06-06T12:06:04.000Z</time>
      </trkpt>
      <trkpt lat="43.63597" lon="3.8445">
        <ele>50.38938894434</ele>
        <time>2020-06-06T12:06:05.000Z</time>
      </trkpt>
      <trkpt lat="43.63601" lon="3.84453">
        <ele>50.289288876304</ele>
        <time>2020-06-06T12:06:06.000Z</time>
      </trkpt>
      <trkpt lat="43.63606" lon="3.84455">
        <ele>50.189188808268</ele>
        <time>2020-06-06T12:06:07.000Z</time>
      </trkpt>
      <trkpt lat="43.6361" lon="3.84458">
        <ele>50.089088740232</ele>
        <time>2020-06-06T12:06:08.000Z</time>
      </trkpt>
      <trkpt lat="43.63614" lon="3.84461">
        <ele>50.010700700389</ele>
        <time>2020-06-06T12:06:09.000Z</time>
      </trkpt>
      <trkpt lat="43.63618" lon="3.84464">
        <ele>50.107976964981</ele>
        <time>2020-06-06T12:06:10.000Z</time>
      </trkpt>
      <trkpt lat="43.63622" lon="3.84467">
        <ele>50.205253229572</ele>
        <time>2020-06-06T12:06:11.000Z</time>
      </trkpt>
      <trkpt lat="43.63627" lon="3.8447">
        <ele>50.302529494163</ele>
        <time>2020-06-06T12:06:12.000Z</time>
      </trkpt>
      <trkpt lat="43.63631" lon="3.84473">
        <ele>50.399805758755</ele>
        <time>2020-06-06T12:06:13.000Z</time>
      </trkpt>
      <trkpt lat="43.63635" lon="3.84477">
        <ele>50.497082023346</ele>
        <time>2020-06-06T12:06:14.000Z</time>
      </trkpt>
      <trkpt lat="43.6364" lon="3.84479">
        <ele>50.594358287938</ele>
        <time>2020-06-06T12:06:15.000Z</time>
      </trkpt>
      <trkpt lat="43.63644" lon="3.84482">
        <ele>50.691634552529</ele>
        <time>2020-06-06T12:06:16.000Z</time>
      </trkpt>
      <trkpt lat="43.63647" lon="3.84484">
        <ele>50.788910817121</ele>
        <time>2020-06-06T12:06:17.000Z</time>
      </trkpt>
      <trkpt lat="43.63651" lon="3.84487">
        <ele>50.886187081712</ele>
        <time>2020-06-06T12:06:18.000Z</time>
      </trkpt>
      <trkpt lat="43.63655" lon="3.84489">
        <ele>50.983463346304</ele>
        <time>2020-06-06T12:06:19.000Z</time>
      </trkpt>
      <trkpt lat="43.63659" lon="3.84491">
        <ele>51.08300032</ele>
        <time>2020-06-06T12:06:20.000Z</time>
      </trkpt>
      <trkpt lat="43.63663" lon="3.84493">
        <ele>51.18300032</ele>
        <time>2020-06-06T12:06:21.000Z</time>
      </trkpt>
      <trkpt lat="43.63667" lon="3.84496">
        <ele>51.28300032</ele>
        <time>2020-06-06T12:06:22.000Z</time>
      </trkpt>
      <trkpt lat="43.63671" lon="3.845">
        <ele>51.38300032</ele>
        <time>2020-06-06T12:06:23.000Z</time>
      </trkpt>
      <trkpt lat="43.63674" lon="3.84503">
        <ele>51.48300032</ele>
        <time>2020-06-06T12:06:24.000Z</time>
      </trkpt>
      <trkpt lat="43.63678" lon="3.84506">
        <ele>51.58300032</ele>
        <time>2020-06-06T12:06:25.000Z</time>
      </trkpt>
      <trkpt lat="43.63681" lon="3.84509">
        <ele>51.68300032</ele>
        <time>2020-06-06T12:06:26.000Z</time>
      </trkpt>
      <trkpt lat="43.63683" lon="3.84512">
        <ele>51.78300032</ele>
        <time>2020-06-06T12:06:27.000Z</time>
      </trkpt>
      <trkpt lat="43.63686" lon="3.84516">
        <ele>51.88300032</ele>
        <time>2020-06-06T12:06:28.000Z</time>
      </trkpt>
      <trkpt lat="43.63689" lon="3.84519">
        <ele>51.98300032</ele>
        <time>2020-06-06T12:06:29.000Z</time>
      </trkpt>
      <trkpt lat="43.63692" lon="3.84521">
        <ele>52.08539127572</ele>
        <time>2020-06-06T12:06:30.000Z</time>
      </trkpt>
      <trkpt lat="43.63694" lon="3.84524">
        <ele>52.188271934156</ele>
        <time>2020-06-06T12:06:31.000Z</time>
      </trkpt>
      <trkpt lat="43.63697" lon="3.84526">
        <ele>52.291152592593</ele>
        <time>2020-06-06T12:06:32.000Z</time>
      </trkpt>
      <trkpt lat="43.637" lon="3.84528">
        <ele>52.394033251029</ele>
        <time>2020-06-06T12:06:33.000Z</time>
      </trkpt>
      <trkpt lat="43.63704" lon="3.84531">
        <ele>52.496913909465</ele>
        <time>2020-06-06T12:06:34.000Z</time>
      </trkpt>
      <trkpt lat="43.63707" lon="3.84534">
        <ele>52.599794567901</ele>
        <time>2020-06-06T12:06:35.000Z</time>
      </trkpt>
      <trkpt lat="43.6371" lon="3.84536">
        <ele>52.702675226337</ele>
        <time>2020-06-06T12:06:36.000Z</time>
      </trkpt>
      <trkpt lat="43.63713" lon="3.84538">
        <ele>52.805555884774</ele>
        <time>2020-06-06T12:06:37.000Z</time>
      </trkpt>
      <trkpt lat="43.63716" lon="3.84541">
        <ele>52.90843654321</ele>
        <time>2020-06-06T12:06:38.000Z</time>
      </trkpt>
      <trkpt lat="43.63719" lon="3.84544">
        <ele>53.01100032</ele>
        <time>2020-06-06T12:06:39.000Z</time>
      </trkpt>
      <trkpt lat="43.63721" lon="3.84546">
        <ele>53.11100032</ele>
        <time>2020-06-06T12:06:40.000Z</time>
      </trkpt>
      <trkpt lat="43.63724" lon="3.84549">
        <ele>53.21100032</ele>
        <time>2020-06-06T12:06:41.000Z</time>
      </trkpt>
      <trkpt lat="43.63726" lon="3.84551">
        <ele>53.31100032</ele>
        <time>2020-06-06T12:06:42.000Z</time>
      </trkpt>
      <trkpt lat="43.63728" lon="3.84553">
        <ele>53.41100032</ele>
        <time>2020-06-06T12:06:43.000Z</time>
      </trkpt>
      <trkpt lat="43.63729" lon="3.84555">
        <ele>53.51100032</ele>
        <time>2020-06-06T12:06:44.000Z</time>
      </trkpt>
      <trkpt lat="43.63731" lon="3.84556">
        <ele>53.61100032</ele>
        <time>2020-06-06T12:06:45.000Z</time>
      </trkpt>
      <trkpt lat="43.63734" lon="3.84558">
        <ele>53.71100032</ele>
        <time>2020-06-06T12:06:46.000Z</time>
      </trkpt>
      <trkpt lat="43.63736" lon="3.8456">
        <ele>53.81100032</ele>
        <time>2020-06-06T12:06:47.000Z</time>
      </trkpt>
      <trkpt lat="43.6374" lon="3.84563">
        <ele>53.91100032</ele>
        <time>2020-06-06T12:06:48.000Z</time>
      </trkpt>
      <trkpt lat="43.63743" lon="3.84567">
        <ele>54</ele>
        <time>2020-06-06T12:06:49.000Z</time>
      </trkpt>
      <trkpt lat="43.63746" lon="3.84571">
        <ele>54</ele>
        <time>2020-06-06T12:06:50.000Z</time>
      </trkpt>
      <trkpt lat="43.6375" lon="3.84574">
        <ele>54</ele>
        <time>2020-06-06T12:06:51.000Z</time>
      </trkpt>
      <trkpt lat="43.63754" lon="3.84578">
        <ele>54</ele>
        <time>2020-06-06T12:06:52.000Z</time>
      </trkpt>
      <trkpt lat="43.63759" lon="3.84583">
        <ele>54</ele>
        <time>2020-06-06T12:06:53.000Z</time>
      </trkpt>
      <trkpt lat="43.63763" lon="3.84587">
        <ele>54</ele>
        <time>2020-06-06T12:06:54.000Z</time>
      </trkpt>
      <trkpt lat="43.63768" lon="3.84592">
        <ele>54</ele>
        <time>2020-06-06T12:06:55.000Z</time>
      </trkpt>
      <trkpt lat="43.63772" lon="3.84597">
        <ele>54</ele>
        <time>2020-06-06T12:06:56.000Z</time>
      </trkpt>
      <trkpt lat="43.63776" lon="3.84601">
        <ele>54</ele>
        <time>2020-06-06T12:06:57.000Z</time>
      </trkpt>
      <trkpt lat="43.6378" lon="3.84606">
        <ele>54</ele>
        <time>2020-06-06T12:06:58.000Z</time>
      </trkpt>
      <trkpt lat="43.63785" lon="3.8461">
        <ele>53.98899968</ele>
        <time>2020-06-06T12:06:59.000Z</time>
      </trkpt>
      <trkpt lat="43.63789" lon="3.84615">
        <ele>53.88899968</ele>
        <time>2020-06-06T12:07:00.000Z</time>
      </trkpt>
      <trkpt lat="43.63793" lon="3.8462">
        <ele>53.78899968</ele>
        <time>2020-06-06T12:07:01.000Z</time>
      </trkpt>
      <trkpt lat="43.63797" lon="3.84624">
        <ele>53.68899968</ele>
        <time>2020-06-06T12:07:02.000Z</time>
      </trkpt>
      <trkpt lat="43.63802" lon="3.84629">
        <ele>53.58899968</ele>
        <time>2020-06-06T12:07:03.000Z</time>
      </trkpt>
      <trkpt lat="43.63805" lon="3.84635">
        <ele>53.48899968</ele>
        <time>2020-06-06T12:07:04.000Z</time>
      </trkpt>
      <trkpt lat="43.63808" lon="3.84642">
        <ele>53.38899968</ele>
        <time>2020-06-06T12:07:05.000Z</time>
      </trkpt>
      <trkpt lat="43.63811" lon="3.84648">
        <ele>53.28899968</ele>
        <time>2020-06-06T12:07:06.000Z</time>
      </trkpt>
      <trkpt lat="43.63814" lon="3.84655">
        <ele>53.18899968</ele>
        <time>2020-06-06T12:07:07.000Z</time>
      </trkpt>
      <trkpt lat="43.63816" lon="3.84662">
        <ele>53.08899968</ele>
        <time>2020-06-06T12:07:08.000Z</time>
      </trkpt>
      <trkpt lat="43.63818" lon="3.84669">
        <ele>53.02200064</ele>
        <time>2020-06-06T12:07:09.000Z</time>
      </trkpt>
      <trkpt lat="43.6382" lon="3.84676">
        <ele>53.22200064</ele>
        <time>2020-06-06T12:07:10.000Z</time>
      </trkpt>
      <trkpt lat="43.63823" lon="3.84684">
        <ele>53.42200064</ele>
        <time>2020-06-06T12:07:11.000Z</time>
      </trkpt>
      <trkpt lat="43.63825" lon="3.8469">
        <ele>53.62200064</ele>
        <time>2020-06-06T12:07:12.000Z</time>
      </trkpt>
      <trkpt lat="43.63828" lon="3.84696">
        <ele>53.82200064</ele>
        <time>2020-06-06T12:07:13.000Z</time>
      </trkpt>
      <trkpt lat="43.6383" lon="3.84701">
        <ele>54.02200064</ele>
        <time>2020-06-06T12:07:14.000Z</time>
      </trkpt>
      <trkpt lat="43.63832" lon="3.84706">
        <ele>54.22200064</ele>
        <time>2020-06-06T12:07:15.000Z</time>
      </trkpt>
      <trkpt lat="43.63835" lon="3.84709">
        <ele>54.42200064</ele>
        <time>2020-06-06T12:07:16.000Z</time>
      </trkpt>
      <trkpt lat="43.63838" lon="3.84713">
        <ele>54.62200064</ele>
        <time>2020-06-06T12:07:17.000Z</time>
      </trkpt>
      <trkpt lat="43.63841" lon="3.84715">
        <ele>54.82200064</ele>
        <time>2020-06-06T12:07:18.000Z</time>
      </trkpt>
      <trkpt lat="43.63844" lon="3.84718">
        <ele>55.010978356261</ele>
        <time>2020-06-06T12:07:19.000Z</time>
      </trkpt>
      <trkpt lat="43.63847" lon="3.8472">
        <ele>55.110778691718</ele>
        <time>2020-06-06T12:07:20.000Z</time>
      </trkpt>
      <trkpt lat="43.63851" lon="3.84722">
        <ele>55.210579027175</ele>
        <time>2020-06-06T12:07:21.000Z</time>
      </trkpt>
      <trkpt lat="43.63855" lon="3.84725">
        <ele>55.310379362632</ele>
        <time>2020-06-06T12:07:22.000Z</time>
      </trkpt>
      <trkpt lat="43.63859" lon="3.8473">
        <ele>55.410179698089</ele>
        <time>2020-06-06T12:07:23.000Z</time>
      </trkpt>
      <trkpt lat="43.63862" lon="3.84735">
        <ele>55.509980033546</ele>
        <time>2020-06-06T12:07:24.000Z</time>
      </trkpt>
      <trkpt lat="43.63866" lon="3.8474">
        <ele>55.609780369003</ele>
        <time>2020-06-06T12:07:25.000Z</time>
      </trkpt>
      <trkpt lat="43.63869" lon="3.84744">
        <ele>55.709580704459</ele>
        <time>2020-06-06T12:07:26.000Z</time>
      </trkpt>
      <trkpt lat="43.63871" lon="3.8475">
        <ele>55.809381039916</ele>
        <time>2020-06-06T12:07:27.000Z</time>
      </trkpt>
      <trkpt lat="43.63875" lon="3.84754">
        <ele>55.909181375373</ele>
        <time>2020-06-06T12:07:28.000Z</time>
      </trkpt>
      <trkpt lat="43.63879" lon="3.84756">
        <ele>56</ele>
        <time>2020-06-06T12:07:29.000Z</time>
      </trkpt>
      <trkpt lat="43.63884" lon="3.84756">
        <ele>56</ele>
        <time>2020-06-06T12:07:30.000Z</time>
      </trkpt>
      <trkpt lat="43.63888" lon="3.84757">
        <ele>56</ele>
        <time>2020-06-06T12:07:31.000Z</time>
      </trkpt>
      <trkpt lat="43.63893" lon="3.84757">
        <ele>56</ele>
        <time>2020-06-06T12:07:32.000Z</time>
      </trkpt>
      <trkpt lat="43.63898" lon="3.84758">
        <ele>56</ele>
        <time>2020-06-06T12:07:33.000Z</time>
      </trkpt>
      <trkpt lat="43.63902" lon="3.84758">
        <ele>56</ele>
        <time>2020-06-06T12:07:34.000Z</time>
      </trkpt>
      <trkpt lat="43.63907" lon="3.84757">
        <ele>56</ele>
        <time>2020-06-06T12:07:35.000Z</time>
      </trkpt>
      <trkpt lat="43.63912" lon="3.84758">
        <ele>56</ele>
        <time>2020-06-06T12:07:36.000Z</time>
      </trkpt>
      <trkpt lat="43.63916" lon="3.84759">
        <ele>56</ele>
        <time>2020-06-06T12:07:37.000Z</time>
      </trkpt>
      <trkpt lat="43.63919" lon="3.8476">
        <ele>56</ele>
        <time>2020-06-06T12:07:38.000Z</time>
      </trkpt>
      <trkpt lat="43.63923" lon="3.8476">
        <ele>56</ele>
        <time>2020-06-06T12:07:39.000Z</time>
      </trkpt>
      <trkpt lat="43.63927" lon="3.8476">
        <ele>56.08064516129</ele>
        <time>2020-06-06T12:07:40.000Z</time>
      </trkpt>
      <trkpt lat="43.63931" lon="3.8476">
        <ele>56.181451612903</ele>
        <time>2020-06-06T12:07:41.000Z</time>
      </trkpt>
      <trkpt lat="43.63935" lon="3.8476">
        <ele>56.282258064516</ele>
        <time>2020-06-06T12:07:42.000Z</time>
      </trkpt>
      <trkpt lat="43.63939" lon="3.8476">
        <ele>56.383064516129</ele>
        <time>2020-06-06T12:07:43.000Z</time>
      </trkpt>
      <trkpt lat="43.63943" lon="3.8476">
        <ele>56.483870967742</ele>
        <time>2020-06-06T12:07:44.000Z</time>
      </trkpt>
      <trkpt lat="43.63946" lon="3.8476">
        <ele>56.584677419355</ele>
        <time>2020-06-06T12:07:45.000Z</time>
      </trkpt>
      <trkpt lat="43.6395" lon="3.84761">
        <ele>56.685483870968</ele>
        <time>2020-06-06T12:07:46.000Z</time>
      </trkpt>
      <trkpt lat="43.63954" lon="3.84761">
        <ele>56.786290322581</ele>
        <time>2020-06-06T12:07:47.000Z</time>
      </trkpt>
      <trkpt lat="43.63958" lon="3.84761">
        <ele>56.887096774194</ele>
        <time>2020-06-06T12:07:48.000Z</time>
      </trkpt>
      <trkpt lat="43.63961" lon="3.84761">
        <ele>56.987903225806</ele>
        <time>2020-06-06T12:07:49.000Z</time>
      </trkpt>
      <trkpt lat="43.63965" lon="3.84761">
        <ele>57.090071677403</ele>
        <time>2020-06-06T12:07:50.000Z</time>
      </trkpt>
      <trkpt lat="43.63969" lon="3.84761">
        <ele>57.192425856271</ele>
        <time>2020-06-06T12:07:51.000Z</time>
      </trkpt>
      <trkpt lat="43.63973" lon="3.8476">
        <ele>57.294780035138</ele>
        <time>2020-06-06T12:07:52.000Z</time>
      </trkpt>
      <trkpt lat="43.63977" lon="3.84759">
        <ele>57.397134214005</ele>
        <time>2020-06-06T12:07:53.000Z</time>
      </trkpt>
      <trkpt lat="43.63981" lon="3.8476">
        <ele>57.499488392872</ele>
        <time>2020-06-06T12:07:54.000Z</time>
      </trkpt>
      <trkpt lat="43.63984" lon="3.8476">
        <ele>57.60184257174</ele>
        <time>2020-06-06T12:07:55.000Z</time>
      </trkpt>
      <trkpt lat="43.63988" lon="3.8476">
        <ele>57.704196750607</ele>
        <time>2020-06-06T12:07:56.000Z</time>
      </trkpt>
      <trkpt lat="43.63991" lon="3.8476">
        <ele>57.806550929474</ele>
        <time>2020-06-06T12:07:57.000Z</time>
      </trkpt>
      <trkpt lat="43.63995" lon="3.8476">
        <ele>57.908905108342</ele>
        <time>2020-06-06T12:07:58.000Z</time>
      </trkpt>
      <trkpt lat="43.63998" lon="3.8476">
        <ele>58.021956712523</ele>
        <time>2020-06-06T12:07:59.000Z</time>
      </trkpt>
      <trkpt lat="43.64001" lon="3.84761">
        <ele>58.221557383436</ele>
        <time>2020-06-06T12:08:00.000Z</time>
      </trkpt>
      <trkpt lat="43.64004" lon="3.84761">
        <ele>58.42115805435</ele>
        <time>2020-06-06T12:08:01.000Z</time>
      </trkpt>
      <trkpt lat="43.64008" lon="3.84761">
        <ele>58.620758725264</ele>
        <time>2020-06-06T12:08:02.000Z</time>
      </trkpt>
      <trkpt lat="43.64011" lon="3.84761">
        <ele>58.820359396178</ele>
        <time>2020-06-06T12:08:03.000Z</time>
      </trkpt>
      <trkpt lat="43.64014" lon="3.84762">
        <ele>59.019960067091</ele>
        <time>2020-06-06T12:08:04.000Z</time>
      </trkpt>
      <trkpt lat="43.64017" lon="3.84762">
        <ele>59.219560738005</ele>
        <time>2020-06-06T12:08:05.000Z</time>
      </trkpt>
      <trkpt lat="43.64021" lon="3.84761">
        <ele>59.419161408919</ele>
        <time>2020-06-06T12:08:06.000Z</time>
      </trkpt>
      <trkpt lat="43.64024" lon="3.84762">
        <ele>59.618762079833</ele>
        <time>2020-06-06T12:08:07.000Z</time>
      </trkpt>
      <trkpt lat="43.64027" lon="3.84764">
        <ele>59.818362750746</ele>
        <time>2020-06-06T12:08:08.000Z</time>
      </trkpt>
      <trkpt lat="43.6403" lon="3.84767">
        <ele>60</ele>
        <time>2020-06-06T12:08:09.000Z</time>
      </trkpt>
      <trkpt lat="43.64033" lon="3.84769">
        <ele>60</ele>
        <time>2020-06-06T12:08:10.000Z</time>
      </trkpt>
      <trkpt lat="43.64036" lon="3.84771">
        <ele>60</ele>
        <time>2020-06-06T12:08:11.000Z</time>
      </trkpt>
      <trkpt lat="43.6404" lon="3.84773">
        <ele>60</ele>
        <time>2020-06-06T12:08:12.000Z</time>
      </trkpt>
      <trkpt lat="43.64043" lon="3.84775">
        <ele>60</ele>
        <time>2020-06-06T12:08:13.000Z</time>
      </trkpt>
      <trkpt lat="43.64047" lon="3.84778">
        <ele>60</ele>
        <time>2020-06-06T12:08:14.000Z</time>
      </trkpt>
      <trkpt lat="43.6405" lon="3.84781">
        <ele>60</ele>
        <time>2020-06-06T12:08:15.000Z</time>
      </trkpt>
      <trkpt lat="43.64054" lon="3.84785">
        <ele>60</ele>
        <time>2020-06-06T12:08:16.000Z</time>
      </trkpt>
      <trkpt lat="43.64056" lon="3.84789">
        <ele>60</ele>
        <time>2020-06-06T12:08:17.000Z</time>
      </trkpt>
      <trkpt lat="43.64059" lon="3.84793">
        <ele>60</ele>
        <time>2020-06-06T12:08:18.000Z</time>
      </trkpt>
      <trkpt lat="43.64061" lon="3.84797">
        <ele>60.01100032</ele>
        <time>2020-06-06T12:08:19.000Z</time>
      </trkpt>
      <trkpt lat="43.64064" lon="3.84799">
        <ele>60.11100032</ele>
        <time>2020-06-06T12:08:20.000Z</time>
      </trkpt>
      <trkpt lat="43.64068" lon="3.848">
        <ele>60.21100032</ele>
        <time>2020-06-06T12:08:21.000Z</time>
      </trkpt>
      <trkpt lat="43.64071" lon="3.84799">
        <ele>60.31100032</ele>
        <time>2020-06-06T12:08:22.000Z</time>
      </trkpt>
      <trkpt lat="43.64075" lon="3.84797">
        <ele>60.41100032</ele>
        <time>2020-06-06T12:08:23.000Z</time>
      </trkpt>
      <trkpt lat="43.64077" lon="3.84794">
        <ele>60.51100032</ele>
        <time>2020-06-06T12:08:24.000Z</time>
      </trkpt>
      <trkpt lat="43.6408" lon="3.8479">
        <ele>60.61100032</ele>
        <time>2020-06-06T12:08:25.000Z</time>
      </trkpt>
      <trkpt lat="43.64082" lon="3.84787">
        <ele>60.71100032</ele>
        <time>2020-06-06T12:08:26.000Z</time>
      </trkpt>
      <trkpt lat="43.64085" lon="3.84785">
        <ele>60.81100032</ele>
        <time>2020-06-06T12:08:27.000Z</time>
      </trkpt>
      <trkpt lat="43.64087" lon="3.84783">
        <ele>60.91100032</ele>
        <time>2020-06-06T12:08:28.000Z</time>
      </trkpt>
      <trkpt lat="43.6409" lon="3.84781">
        <ele>61.010859140746</ele>
        <time>2020-06-06T12:08:29.000Z</time>
      </trkpt>
      <trkpt lat="43.64093" lon="3.8478">
        <ele>61.109575730313</ele>
        <time>2020-06-06T12:08:30.000Z</time>
      </trkpt>
      <trkpt lat="43.64095" lon="3.84778">
        <ele>61.208292319881</ele>
        <time>2020-06-06T12:08:31.000Z</time>
      </trkpt>
      <trkpt lat="43.64098" lon="3.84776">
        <ele>61.307008909449</ele>
        <time>2020-06-06T12:08:32.000Z</time>
      </trkpt>
      <trkpt lat="43.64102" lon="3.84774">
        <ele>61.405725499016</ele>
        <time>2020-06-06T12:08:33.000Z</time>
      </trkpt>
      <trkpt lat="43.64105" lon="3.84772">
        <ele>61.504442088584</ele>
        <time>2020-06-06T12:08:34.000Z</time>
      </trkpt>
      <trkpt lat="43.64108" lon="3.8477">
        <ele>61.603158678152</ele>
        <time>2020-06-06T12:08:35.000Z</time>
      </trkpt>
      <trkpt lat="43.64111" lon="3.84769">
        <ele>61.701875267719</ele>
        <time>2020-06-06T12:08:36.000Z</time>
      </trkpt>
      <trkpt lat="43.64115" lon="3.84768">
        <ele>61.800591857287</ele>
        <time>2020-06-06T12:08:37.000Z</time>
      </trkpt>
      <trkpt lat="43.64119" lon="3.84767">
        <ele>61.899308446855</ele>
        <time>2020-06-06T12:08:38.000Z</time>
      </trkpt>
      <trkpt lat="43.64122" lon="3.84767">
        <ele>61.998025036422</ele>
        <time>2020-06-06T12:08:39.000Z</time>
      </trkpt>
      <trkpt lat="43.64126" lon="3.84767">
        <ele>62</ele>
        <time>2020-06-06T12:08:40.000Z</time>
      </trkpt>
      <trkpt lat="43.6413" lon="3.84767">
        <ele>62</ele>
        <time>2020-06-06T12:08:41.000Z</time>
      </trkpt>
      <trkpt lat="43.64134" lon="3.84767">
        <ele>62</ele>
        <time>2020-06-06T12:08:42.000Z</time>
      </trkpt>
      <trkpt lat="43.64139" lon="3.84768">
        <ele>62</ele>
        <time>2020-06-06T12:08:43.000Z</time>
      </trkpt>
      <trkpt lat="43.64143" lon="3.84768">
        <ele>62</ele>
        <time>2020-06-06T12:08:44.000Z</time>
      </trkpt>
      <trkpt lat="43.64147" lon="3.84769">
        <ele>62</ele>
        <time>2020-06-06T12:08:45.000Z</time>
      </trkpt>
      <trkpt lat="43.64152" lon="3.84769">
        <ele>62</ele>
        <time>2020-06-06T12:08:46.000Z</time>
      </trkpt>
      <trkpt lat="43.64156" lon="3.8477">
        <ele>62</ele>
        <time>2020-06-06T12:08:47.000Z</time>
      </trkpt>
      <trkpt lat="43.64161" lon="3.84772">
        <ele>62</ele>
        <time>2020-06-06T12:08:48.000Z</time>
      </trkpt>
      <trkpt lat="43.64165" lon="3.84774">
        <ele>62.01100032</ele>
        <time>2020-06-06T12:08:49.000Z</time>
      </trkpt>
      <trkpt lat="43.64169" lon="3.84775">
        <ele>62.11100032</ele>
        <time>2020-06-06T12:08:50.000Z</time>
      </trkpt>
      <trkpt lat="43.64173" lon="3.84775">
        <ele>62.21100032</ele>
        <time>2020-06-06T12:08:51.000Z</time>
      </trkpt>
      <trkpt lat="43.64177" lon="3.84775">
        <ele>62.31100032</ele>
        <time>2020-06-06T12:08:52.000Z</time>
      </trkpt>
      <trkpt lat="43.64181" lon="3.84776">
        <ele>62.41100032</ele>
        <time>2020-06-06T12:08:53.000Z</time>
      </trkpt>
      <trkpt lat="43.64184" lon="3.84776">
        <ele>62.51100032</ele>
        <time>2020-06-06T12:08:54.000Z</time>
      </trkpt>
      <trkpt lat="43.64188" lon="3.84776">
        <ele>62.61100032</ele>
        <time>2020-06-06T12:08:55.000Z</time>
      </trkpt>
      <trkpt lat="43.64191" lon="3.84777">
        <ele>62.71100032</ele>
        <time>2020-06-06T12:08:56.000Z</time>
      </trkpt>
      <trkpt lat="43.64194" lon="3.84778">
        <ele>62.81100032</ele>
        <time>2020-06-06T12:08:57.000Z</time>
      </trkpt>
      <trkpt lat="43.64198" lon="3.84779">
        <ele>62.91100032</ele>
        <time>2020-06-06T12:08:58.000Z</time>
      </trkpt>
      <trkpt lat="43.64201" lon="3.8478">
        <ele>63.02200064</ele>
        <time>2020-06-06T12:08:59.000Z</time>
      </trkpt>
      <trkpt lat="43.64204" lon="3.84781">
        <ele>63.22200064</ele>
        <time>2020-06-06T12:09:00.000Z</time>
      </trkpt>
      <trkpt lat="43.64207" lon="3.84782">
        <ele>63.42200064</ele>
        <time>2020-06-06T12:09:01.000Z</time>
      </trkpt>
      <trkpt lat="43.6421" lon="3.84783">
        <ele>63.62200064</ele>
        <time>2020-06-06T12:09:02.000Z</time>
      </trkpt>
      <trkpt lat="43.64213" lon="3.84784">
        <ele>63.82200064</ele>
        <time>2020-06-06T12:09:03.000Z</time>
      </trkpt>
      <trkpt lat="43.64216" lon="3.84786">
        <ele>64.02200064</ele>
        <time>2020-06-06T12:09:04.000Z</time>
      </trkpt>
      <trkpt lat="43.64218" lon="3.84787">
        <ele>64.22200064</ele>
        <time>2020-06-06T12:09:05.000Z</time>
      </trkpt>
      <trkpt lat="43.64221" lon="3.84789">
        <ele>64.42200064</ele>
        <time>2020-06-06T12:09:06.000Z</time>
      </trkpt>
      <trkpt lat="43.64224" lon="3.84791">
        <ele>64.62200064</ele>
        <time>2020-06-06T12:09:07.000Z</time>
      </trkpt>
      <trkpt lat="43.64227" lon="3.84793">
        <ele>64.82200064</ele>
        <time>2020-06-06T12:09:08.000Z</time>
      </trkpt>
      <trkpt lat="43.64229" lon="3.84795">
        <ele>65.02200064</ele>
        <time>2020-06-06T12:09:09.000Z</time>
      </trkpt>
      <trkpt lat="43.64232" lon="3.84797">
        <ele>65.22200064</ele>
        <time>2020-06-06T12:09:10.000Z</time>
      </trkpt>
      <trkpt lat="43.64235" lon="3.84799">
        <ele>65.42200064</ele>
        <time>2020-06-06T12:09:11.000Z</time>
      </trkpt>
      <trkpt lat="43.64237" lon="3.84801">
        <ele>65.62200064</ele>
        <time>2020-06-06T12:09:12.000Z</time>
      </trkpt>
      <trkpt lat="43.6424" lon="3.84804">
        <ele>65.82200064</ele>
        <time>2020-06-06T12:09:13.000Z</time>
      </trkpt>
      <trkpt lat="43.64243" lon="3.84806">
        <ele>66.02200064</ele>
        <time>2020-06-06T12:09:14.000Z</time>
      </trkpt>
      <trkpt lat="43.64245" lon="3.84808">
        <ele>66.22200064</ele>
        <time>2020-06-06T12:09:15.000Z</time>
      </trkpt>
      <trkpt lat="43.64248" lon="3.84811">
        <ele>66.42200064</ele>
        <time>2020-06-06T12:09:16.000Z</time>
      </trkpt>
      <trkpt lat="43.6425" lon="3.84813">
        <ele>66.62200064</ele>
        <time>2020-06-06T12:09:17.000Z</time>
      </trkpt>
      <trkpt lat="43.64253" lon="3.84815">
        <ele>66.82200064</ele>
        <time>2020-06-06T12:09:18.000Z</time>
      </trkpt>
      <trkpt lat="43.64255" lon="3.84817">
        <ele>67.010989334182</ele>
        <time>2020-06-06T12:09:19.000Z</time>
      </trkpt>
      <trkpt lat="43.64258" lon="3.8482">
        <ele>67.110889466019</ele>
        <time>2020-06-06T12:09:20.000Z</time>
      </trkpt>
      <trkpt lat="43.64261" lon="3.84823">
        <ele>67.210789597855</ele>
        <time>2020-06-06T12:09:21.000Z</time>
      </trkpt>
      <trkpt lat="43.64264" lon="3.84825">
        <ele>67.310689729691</ele>
        <time>2020-06-06T12:09:22.000Z</time>
      </trkpt>
      <trkpt lat="43.64267" lon="3.84828">
        <ele>67.410589861527</ele>
        <time>2020-06-06T12:09:23.000Z</time>
      </trkpt>
      <trkpt lat="43.64269" lon="3.8483">
        <ele>67.510489993363</ele>
        <time>2020-06-06T12:09:24.000Z</time>
      </trkpt>
      <trkpt lat="43.64272" lon="3.84833">
        <ele>67.6103901252</ele>
        <time>2020-06-06T12:09:25.000Z</time>
      </trkpt>
      <trkpt lat="43.64275" lon="3.84836">
        <ele>67.710290257036</ele>
        <time>2020-06-06T12:09:26.000Z</time>
      </trkpt>
      <trkpt lat="43.64277" lon="3.84839">
        <ele>67.810190388872</ele>
        <time>2020-06-06T12:09:27.000Z</time>
      </trkpt>
      <trkpt lat="43.6428" lon="3.84842">
        <ele>67.910090520708</ele>
        <time>2020-06-06T12:09:28.000Z</time>
      </trkpt>
      <trkpt lat="43.64283" lon="3.84845">
        <ele>68.01947543697</ele>
        <time>2020-06-06T12:09:29.000Z</time>
      </trkpt>
      <trkpt lat="43.64285" lon="3.84848">
        <ele>68.214217343185</ele>
        <time>2020-06-06T12:09:30.000Z</time>
      </trkpt>
      <trkpt lat="43.64288" lon="3.84851">
        <ele>68.408959249399</ele>
        <time>2020-06-06T12:09:31.000Z</time>
      </trkpt>
      <trkpt lat="43.6429" lon="3.84854">
        <ele>68.603701155614</ele>
        <time>2020-06-06T12:09:32.000Z</time>
      </trkpt>
      <trkpt lat="43.64293" lon="3.84857">
        <ele>68.798443061829</ele>
        <time>2020-06-06T12:09:33.000Z</time>
      </trkpt>
      <trkpt lat="43.64295" lon="3.84861">
        <ele>68.993184968044</ele>
        <time>2020-06-06T12:09:34.000Z</time>
      </trkpt>
      <trkpt lat="43.64297" lon="3.84864">
        <ele>69.187926874258</ele>
        <time>2020-06-06T12:09:35.000Z</time>
      </trkpt>
      <trkpt lat="43.64299" lon="3.84867">
        <ele>69.382668780473</ele>
        <time>2020-06-06T12:09:36.000Z</time>
      </trkpt>
      <trkpt lat="43.64301" lon="3.84871">
        <ele>69.577410686688</ele>
        <time>2020-06-06T12:09:37.000Z</time>
      </trkpt>
      <trkpt lat="43.64303" lon="3.84874">
        <ele>69.772152592903</ele>
        <time>2020-06-06T12:09:38.000Z</time>
      </trkpt>
      <trkpt lat="43.64305" lon="3.84878">
        <ele>69.966894499118</ele>
        <time>2020-06-06T12:09:39.000Z</time>
      </trkpt>
      <trkpt lat="43.64307" lon="3.84881">
        <ele>70.17078255144</ele>
        <time>2020-06-06T12:09:40.000Z</time>
      </trkpt>
      <trkpt lat="43.64309" lon="3.84885">
        <ele>70.376543868313</ele>
        <time>2020-06-06T12:09:41.000Z</time>
      </trkpt>
      <trkpt lat="43.64311" lon="3.84889">
        <ele>70.582305185185</ele>
        <time>2020-06-06T12:09:42.000Z</time>
      </trkpt>
      <trkpt lat="43.64313" lon="3.84892">
        <ele>70.788066502058</ele>
        <time>2020-06-06T12:09:43.000Z</time>
      </trkpt>
      <trkpt lat="43.64315" lon="3.84896">
        <ele>70.99382781893</ele>
        <time>2020-06-06T12:09:44.000Z</time>
      </trkpt>
      <trkpt lat="43.64317" lon="3.849">
        <ele>71.199589135802</ele>
        <time>2020-06-06T12:09:45.000Z</time>
      </trkpt>
      <trkpt lat="43.64319" lon="3.84904">
        <ele>71.405350452675</ele>
        <time>2020-06-06T12:09:46.000Z</time>
      </trkpt>
      <trkpt lat="43.64321" lon="3.84907">
        <ele>71.611111769547</ele>
        <time>2020-06-06T12:09:47.000Z</time>
      </trkpt>
      <trkpt lat="43.64323" lon="3.84911">
        <ele>71.81687308642</ele>
        <time>2020-06-06T12:09:48.000Z</time>
      </trkpt>
      <trkpt lat="43.64324" lon="3.84915">
        <ele>72.022002836763</ele>
        <time>2020-06-06T12:09:49.000Z</time>
      </trkpt>
      <trkpt lat="43.64326" lon="3.84919">
        <ele>72.222022806757</ele>
        <time>2020-06-06T12:09:50.000Z</time>
      </trkpt>
      <trkpt lat="43.64328" lon="3.84923">
        <ele>72.422042776751</ele>
        <time>2020-06-06T12:09:51.000Z</time>
      </trkpt>
      <trkpt lat="43.64329" lon="3.84927">
        <ele>72.622062746745</ele>
        <time>2020-06-06T12:09:52.000Z</time>
      </trkpt>
      <trkpt lat="43.64331" lon="3.8493">
        <ele>72.822082716738</ele>
        <time>2020-06-06T12:09:53.000Z</time>
      </trkpt>
      <trkpt lat="43.64332" lon="3.84934">
        <ele>73.022102686732</ele>
        <time>2020-06-06T12:09:54.000Z</time>
      </trkpt>
      <trkpt lat="43.64333" lon="3.84938">
        <ele>73.222122656726</ele>
        <time>2020-06-06T12:09:55.000Z</time>
      </trkpt>
      <trkpt lat="43.64335" lon="3.84942">
        <ele>73.42214262672</ele>
        <time>2020-06-06T12:09:56.000Z</time>
      </trkpt>
      <trkpt lat="43.64336" lon="3.84945">
        <ele>73.622162596714</ele>
        <time>2020-06-06T12:09:57.000Z</time>
      </trkpt>
      <trkpt lat="43.64337" lon="3.84949">
        <ele>73.822182566707</ele>
        <time>2020-06-06T12:09:58.000Z</time>
      </trkpt>
      <trkpt lat="43.64339" lon="3.84952">
        <ele>74.01110016</ele>
        <time>2020-06-06T12:09:59.000Z</time>
      </trkpt>
      <trkpt lat="43.6434" lon="3.84956">
        <ele>74.11110016</ele>
        <time>2020-06-06T12:10:00.000Z</time>
      </trkpt>
      <trkpt lat="43.64341" lon="3.8496">
        <ele>74.21110016</ele>
        <time>2020-06-06T12:10:01.000Z</time>
      </trkpt>
      <trkpt lat="43.64343" lon="3.84963">
        <ele>74.31110016</ele>
        <time>2020-06-06T12:10:02.000Z</time>
      </trkpt>
      <trkpt lat="43.64344" lon="3.84967">
        <ele>74.41110016</ele>
        <time>2020-06-06T12:10:03.000Z</time>
      </trkpt>
      <trkpt lat="43.64346" lon="3.84971">
        <ele>74.51110016</ele>
        <time>2020-06-06T12:10:04.000Z</time>
      </trkpt>
      <trkpt lat="43.64347" lon="3.84975">
        <ele>74.61110016</ele>
        <time>2020-06-06T12:10:05.000Z</time>
      </trkpt>
      <trkpt lat="43.64349" lon="3.84979">
        <ele>74.71110016</ele>
        <time>2020-06-06T12:10:06.000Z</time>
      </trkpt>
      <trkpt lat="43.6435" lon="3.84983">
        <ele>74.81110016</ele>
        <time>2020-06-06T12:10:07.000Z</time>
      </trkpt>
      <trkpt lat="43.64352" lon="3.84987">
        <ele>74.91110016</ele>
        <time>2020-06-06T12:10:08.000Z</time>
      </trkpt>
      <trkpt lat="43.64354" lon="3.84991">
        <ele>75</ele>
        <time>2020-06-06T12:10:09.000Z</time>
      </trkpt>
      <trkpt lat="43.64355" lon="3.84995">
        <ele>75</ele>
        <time>2020-06-06T12:10:10.000Z</time>
      </trkpt>
      <trkpt lat="43.64357" lon="3.84999">
        <ele>75</ele>
        <time>2020-06-06T12:10:11.000Z</time>
      </trkpt>
      <trkpt lat="43.64359" lon="3.85003">
        <ele>75</ele>
        <time>2020-06-06T12:10:12.000Z</time>
      </trkpt>
      <trkpt lat="43.64361" lon="3.85007">
        <ele>75</ele>
        <time>2020-06-06T12:10:13.000Z</time>
      </trkpt>
      <trkpt lat="43.64363" lon="3.85012">
        <ele>75</ele>
        <time>2020-06-06T12:10:14.000Z</time>
      </trkpt>
      <trkpt lat="43.64365" lon="3.85016">
        <ele>75</ele>
        <time>2020-06-06T12:10:15.000Z</time>
      </trkpt>
      <trkpt lat="43.64368" lon="3.85021">
        <ele>75</ele>
        <time>2020-06-06T12:10:16.000Z</time>
      </trkpt>
      <trkpt lat="43.6437" lon="3.85027">
        <ele>75</ele>
        <time>2020-06-06T12:10:17.000Z</time>
      </trkpt>
      <trkpt lat="43.64373" lon="3.85033">
        <ele>75</ele>
        <time>2020-06-06T12:10:18.000Z</time>
      </trkpt>
      <trkpt lat="43.64376" lon="3.85039">
        <ele>74.97779968</ele>
        <time>2020-06-06T12:10:19.000Z</time>
      </trkpt>
      <trkpt lat="43.6438" lon="3.85046">
        <ele>74.77779968</ele>
        <time>2020-06-06T12:10:20.000Z</time>
      </trkpt>
      <trkpt lat="43.64383" lon="3.85052">
        <ele>74.57779968</ele>
        <time>2020-06-06T12:10:21.000Z</time>
      </trkpt>
      <trkpt lat="43.64387" lon="3.85059">
        <ele>74.37779968</ele>
        <time>2020-06-06T12:10:22.000Z</time>
      </trkpt>
      <trkpt lat="43.64391" lon="3.85067">
        <ele>74.17779968</ele>
        <time>2020-06-06T12:10:23.000Z</time>
      </trkpt>
      <trkpt lat="43.64396" lon="3.85074">
        <ele>73.97779968</ele>
        <time>2020-06-06T12:10:24.000Z</time>
      </trkpt>
      <trkpt lat="43.644" lon="3.85082">
        <ele>73.77779968</ele>
        <time>2020-06-06T12:10:25.000Z</time>
      </trkpt>
      <trkpt lat="43.64405" lon="3.8509">
        <ele>73.57779968</ele>
        <time>2020-06-06T12:10:26.000Z</time>
      </trkpt>
      <trkpt lat="43.6441" lon="3.85098">
        <ele>73.37779968</ele>
        <time>2020-06-06T12:10:27.000Z</time>
      </trkpt>
      <trkpt lat="43.64414" lon="3.85107">
        <ele>73.17779968</ele>
        <time>2020-06-06T12:10:28.000Z</time>
      </trkpt>
      <trkpt lat="43.64419" lon="3.85116">
        <ele>72.98889984</ele>
        <time>2020-06-06T12:10:29.000Z</time>
      </trkpt>
      <trkpt lat="43.64424" lon="3.85125">
        <ele>72.88889984</ele>
        <time>2020-06-06T12:10:30.000Z</time>
      </trkpt>
      <trkpt lat="43.64429" lon="3.85134">
        <ele>72.78889984</ele>
        <time>2020-06-06T12:10:31.000Z</time>
      </trkpt>
      <trkpt lat="43.64434" lon="3.85142">
        <ele>72.68889984</ele>
        <time>2020-06-06T12:10:32.000Z</time>
      </trkpt>
      <trkpt lat="43.64439" lon="3.85151">
        <ele>72.58889984</ele>
        <time>2020-06-06T12:10:33.000Z</time>
      </trkpt>
      <trkpt lat="43.64445" lon="3.8516">
        <ele>72.48889984</ele>
        <time>2020-06-06T12:10:34.000Z</time>
      </trkpt>
      <trkpt lat="43.6445" lon="3.85169">
        <ele>72.38889984</ele>
        <time>2020-06-06T12:10:35.000Z</time>
      </trkpt>
      <trkpt lat="43.64455" lon="3.85177">
        <ele>72.28889984</ele>
        <time>2020-06-06T12:10:36.000Z</time>
      </trkpt>
      <trkpt lat="43.6446" lon="3.85186">
        <ele>72.18889984</ele>
        <time>2020-06-06T12:10:37.000Z</time>
      </trkpt>
      <trkpt lat="43.64465" lon="3.85195">
        <ele>72.08889984</ele>
        <time>2020-06-06T12:10:38.000Z</time>
      </trkpt>
      <trkpt lat="43.64469" lon="3.85204">
        <ele>72</ele>
        <time>2020-06-06T12:10:39.000Z</time>
      </trkpt>
      <trkpt lat="43.64473" lon="3.85213">
        <ele>72</ele>
        <time>2020-06-06T12:10:40.000Z</time>
      </trkpt>
      <trkpt lat="43.64477" lon="3.85222">
        <ele>72</ele>
        <time>2020-06-06T12:10:41.000Z</time>
      </trkpt>
      <trkpt lat="43.6448" lon="3.8523">
        <ele>72</ele>
        <time>2020-06-06T12:10:42.000Z</time>
      </trkpt>
      <trkpt lat="43.64482" lon="3.85239">
        <ele>72</ele>
        <time>2020-06-06T12:10:43.000Z</time>
      </trkpt>
      <trkpt lat="43.64483" lon="3.85248">
        <ele>72</ele>
        <time>2020-06-06T12:10:44.000Z</time>
      </trkpt>
      <trkpt lat="43.64483" lon="3.85256">
        <ele>72</ele>
        <time>2020-06-06T12:10:45.000Z</time>
      </trkpt>
      <trkpt lat="43.64484" lon="3.85264">
        <ele>72</ele>
        <time>2020-06-06T12:10:46.000Z</time>
      </trkpt>
      <trkpt lat="43.64485" lon="3.8527">
        <ele>72</ele>
        <time>2020-06-06T12:10:47.000Z</time>
      </trkpt>
      <trkpt lat="43.64486" lon="3.85277">
        <ele>72</ele>
        <time>2020-06-06T12:10:48.000Z</time>
      </trkpt>
      <trkpt lat="43.64486" lon="3.85283">
        <ele>71.997981191368</ele>
        <time>2020-06-06T12:10:49.000Z</time>
      </trkpt>
      <trkpt lat="43.64486" lon="3.85289">
        <ele>71.89707305039</ele>
        <time>2020-06-06T12:10:50.000Z</time>
      </trkpt>
      <trkpt lat="43.64488" lon="3.85294">
        <ele>71.796164909412</ele>
        <time>2020-06-06T12:10:51.000Z</time>
      </trkpt>
      <trkpt lat="43.64491" lon="3.85298">
        <ele>71.695256768434</ele>
        <time>2020-06-06T12:10:52.000Z</time>
      </trkpt>
      <trkpt lat="43.64495" lon="3.85301">
        <ele>71.594348627456</ele>
        <time>2020-06-06T12:10:53.000Z</time>
      </trkpt>
      <trkpt lat="43.645" lon="3.85301">
        <ele>71.493440486477</ele>
        <time>2020-06-06T12:10:54.000Z</time>
      </trkpt>
      <trkpt lat="43.64505" lon="3.853">
        <ele>71.392532345499</ele>
        <time>2020-06-06T12:10:55.000Z</time>
      </trkpt>
      <trkpt lat="43.64511" lon="3.85299">
        <ele>71.291624204521</ele>
        <time>2020-06-06T12:10:56.000Z</time>
      </trkpt>
      <trkpt lat="43.64517" lon="3.85299">
        <ele>71.190716063543</ele>
        <time>2020-06-06T12:10:57.000Z</time>
      </trkpt>
      <trkpt lat="43.64522" lon="3.85302">
        <ele>71.089807922565</ele>
        <time>2020-06-06T12:10:58.000Z</time>
      </trkpt>
      <trkpt lat="43.64527" lon="3.85307">
        <ele>70.98899968</ele>
        <time>2020-06-06T12:10:59.000Z</time>
      </trkpt>
      <trkpt lat="43.64532" lon="3.85314">
        <ele>70.88899968</ele>
        <time>2020-06-06T12:11:00.000Z</time>
      </trkpt>
      <trkpt lat="43.64536" lon="3.8532">
        <ele>70.78899968</ele>
        <time>2020-06-06T12:11:01.000Z</time>
      </trkpt>
      <trkpt lat="43.6454" lon="3.85327">
        <ele>70.68899968</ele>
        <time>2020-06-06T12:11:02.000Z</time>
      </trkpt>
      <trkpt lat="43.64544" lon="3.85333">
        <ele>70.58899968</ele>
        <time>2020-06-06T12:11:03.000Z</time>
      </trkpt>
      <trkpt lat="43.64549" lon="3.8534">
        <ele>70.48899968</ele>
        <time>2020-06-06T12:11:04.000Z</time>
      </trkpt>
      <trkpt lat="43.64553" lon="3.85347">
        <ele>70.38899968</ele>
        <time>2020-06-06T12:11:05.000Z</time>
      </trkpt>
      <trkpt lat="43.64558" lon="3.85353">
        <ele>70.28899968</ele>
        <time>2020-06-06T12:11:06.000Z</time>
      </trkpt>
      <trkpt lat="43.64562" lon="3.8536">
        <ele>70.18899968</ele>
        <time>2020-06-06T12:11:07.000Z</time>
      </trkpt>
      <trkpt lat="43.64568" lon="3.85366">
        <ele>70.08899968</ele>
        <time>2020-06-06T12:11:08.000Z</time>
      </trkpt>
      <trkpt lat="43.64573" lon="3.85372">
        <ele>69.97799936</ele>
        <time>2020-06-06T12:11:09.000Z</time>
      </trkpt>
      <trkpt lat="43.64579" lon="3.85378">
        <ele>69.77799936</ele>
        <time>2020-06-06T12:11:10.000Z</time>
      </trkpt>
      <trkpt lat="43.64585" lon="3.85383">
        <ele>69.57799936</ele>
        <time>2020-06-06T12:11:11.000Z</time>
      </trkpt>
      <trkpt lat="43.64591" lon="3.85389">
        <ele>69.37799936</ele>
        <time>2020-06-06T12:11:12.000Z</time>
      </trkpt>
      <trkpt lat="43.64597" lon="3.85395">
        <ele>69.17799936</ele>
        <time>2020-06-06T12:11:13.000Z</time>
      </trkpt>
      <trkpt lat="43.64604" lon="3.85401">
        <ele>68.97799936</ele>
        <time>2020-06-06T12:11:14.000Z</time>
      </trkpt>
      <trkpt lat="43.64611" lon="3.85406">
        <ele>68.77799936</ele>
        <time>2020-06-06T12:11:15.000Z</time>
      </trkpt>
      <trkpt lat="43.64618" lon="3.8541">
        <ele>68.57799936</ele>
        <time>2020-06-06T12:11:16.000Z</time>
      </trkpt>
      <trkpt lat="43.64625" lon="3.85414">
        <ele>68.37799936</ele>
        <time>2020-06-06T12:11:17.000Z</time>
      </trkpt>
      <trkpt lat="43.64633" lon="3.85418">
        <ele>68.17799936</ele>
        <time>2020-06-06T12:11:18.000Z</time>
      </trkpt>
      <trkpt lat="43.6464" lon="3.85422">
        <ele>67.97799936</ele>
        <time>2020-06-06T12:11:19.000Z</time>
      </trkpt>
      <trkpt lat="43.64647" lon="3.85425">
        <ele>67.77799936</ele>
        <time>2020-06-06T12:11:20.000Z</time>
      </trkpt>
      <trkpt lat="43.64654" lon="3.85429">
        <ele>67.57799936</ele>
        <time>2020-06-06T12:11:21.000Z</time>
      </trkpt>
      <trkpt lat="43.64661" lon="3.85432">
        <ele>67.37799936</ele>
        <time>2020-06-06T12:11:22.000Z</time>
      </trkpt>
      <trkpt lat="43.64667" lon="3.85435">
        <ele>67.17799936</ele>
        <time>2020-06-06T12:11:23.000Z</time>
      </trkpt>
      <trkpt lat="43.64674" lon="3.85439">
        <ele>66.97799936</ele>
        <time>2020-06-06T12:11:24.000Z</time>
      </trkpt>
      <trkpt lat="43.6468" lon="3.85443">
        <ele>66.77799936</ele>
        <time>2020-06-06T12:11:25.000Z</time>
      </trkpt>
      <trkpt lat="43.64686" lon="3.85445">
        <ele>66.57799936</ele>
        <time>2020-06-06T12:11:26.000Z</time>
      </trkpt>
      <trkpt lat="43.64693" lon="3.85448">
        <ele>66.37799936</ele>
        <time>2020-06-06T12:11:27.000Z</time>
      </trkpt>
      <trkpt lat="43.64699" lon="3.85451">
        <ele>66.17799936</ele>
        <time>2020-06-06T12:11:28.000Z</time>
      </trkpt>
      <trkpt lat="43.64705" lon="3.85454">
        <ele>65.967960252918</ele>
        <time>2020-06-06T12:11:29.000Z</time>
      </trkpt>
      <trkpt lat="43.64711" lon="3.85457">
        <ele>65.676698297974</ele>
        <time>2020-06-06T12:11:30.000Z</time>
      </trkpt>
      <trkpt lat="43.64718" lon="3.8546">
        <ele>65.38543634303</ele>
        <time>2020-06-06T12:11:31.000Z</time>
      </trkpt>
      <trkpt lat="43.64725" lon="3.85463">
        <ele>65.094174388086</ele>
        <time>2020-06-06T12:11:32.000Z</time>
      </trkpt>
      <trkpt lat="43.64731" lon="3.85466">
        <ele>64.802912433142</ele>
        <time>2020-06-06T12:11:33.000Z</time>
      </trkpt>
      <trkpt lat="43.64738" lon="3.85469">
        <ele>64.511650478198</ele>
        <time>2020-06-06T12:11:34.000Z</time>
      </trkpt>
      <trkpt lat="43.64745" lon="3.85472">
        <ele>64.220388523254</ele>
        <time>2020-06-06T12:11:35.000Z</time>
      </trkpt>
      <trkpt lat="43.64753" lon="3.85475">
        <ele>63.92912656831</ele>
        <time>2020-06-06T12:11:36.000Z</time>
      </trkpt>
      <trkpt lat="43.6476" lon="3.85479">
        <ele>63.637864613366</ele>
        <time>2020-06-06T12:11:37.000Z</time>
      </trkpt>
      <trkpt lat="43.64767" lon="3.85482">
        <ele>63.346602658422</ele>
        <time>2020-06-06T12:11:38.000Z</time>
      </trkpt>
      <trkpt lat="43.64775" lon="3.85487">
        <ele>63.055340703478</ele>
        <time>2020-06-06T12:11:39.000Z</time>
      </trkpt>
      <trkpt lat="43.64782" lon="3.85491">
        <ele>62.582475600809</ele>
        <time>2020-06-06T12:11:40.000Z</time>
      </trkpt>
      <trkpt lat="43.6479" lon="3.85496">
        <ele>62.067011343183</ele>
        <time>2020-06-06T12:11:41.000Z</time>
      </trkpt>
      <trkpt lat="43.64798" lon="3.85502">
        <ele>61.551547085557</ele>
        <time>2020-06-06T12:11:42.000Z</time>
      </trkpt>
      <trkpt lat="43.64806" lon="3.85507">
        <ele>61.036082827931</ele>
        <time>2020-06-06T12:11:43.000Z</time>
      </trkpt>
      <trkpt lat="43.64813" lon="3.85512">
        <ele>60.520618570305</ele>
        <time>2020-06-06T12:11:44.000Z</time>
      </trkpt>
      <trkpt lat="43.6482" lon="3.85518">
        <ele>60.005154312679</ele>
        <time>2020-06-06T12:11:45.000Z</time>
      </trkpt>
      <trkpt lat="43.64827" lon="3.85524">
        <ele>59.489690055053</ele>
        <time>2020-06-06T12:11:46.000Z</time>
      </trkpt>
      <trkpt lat="43.64833" lon="3.85531">
        <ele>58.974225797427</ele>
        <time>2020-06-06T12:11:47.000Z</time>
      </trkpt>
      <trkpt lat="43.64839" lon="3.85538">
        <ele>58.458761539801</ele>
        <time>2020-06-06T12:11:48.000Z</time>
      </trkpt>
      <trkpt lat="43.64845" lon="3.85545">
        <ele>57.98899968</ele>
        <time>2020-06-06T12:11:49.000Z</time>
      </trkpt>
      <trkpt lat="43.64852" lon="3.85551">
        <ele>57.88899968</ele>
        <time>2020-06-06T12:11:50.000Z</time>
      </trkpt>
      <trkpt lat="43.64858" lon="3.85557">
        <ele>57.78899968</ele>
        <time>2020-06-06T12:11:51.000Z</time>
      </trkpt>
      <trkpt lat="43.64863" lon="3.85563">
        <ele>57.68899968</ele>
        <time>2020-06-06T12:11:52.000Z</time>
      </trkpt>
      <trkpt lat="43.64869" lon="3.85569">
        <ele>57.58899968</ele>
        <time>2020-06-06T12:11:53.000Z</time>
      </trkpt>
      <trkpt lat="43.64875" lon="3.85576">
        <ele>57.48899968</ele>
        <time>2020-06-06T12:11:54.000Z</time>
      </trkpt>
      <trkpt lat="43.6488" lon="3.85582">
        <ele>57.38899968</ele>
        <time>2020-06-06T12:11:55.000Z</time>
      </trkpt>
      <trkpt lat="43.64885" lon="3.85589">
        <ele>57.28899968</ele>
        <time>2020-06-06T12:11:56.000Z</time>
      </trkpt>
      <trkpt lat="43.6489" lon="3.85596">
        <ele>57.18899968</ele>
        <time>2020-06-06T12:11:57.000Z</time>
      </trkpt>
      <trkpt lat="43.64895" lon="3.85603">
        <ele>57.08899968</ele>
        <time>2020-06-06T12:11:58.000Z</time>
      </trkpt>
      <trkpt lat="43.64899" lon="3.8561">
        <ele>57</ele>
        <time>2020-06-06T12:11:59.000Z</time>
      </trkpt>
      <trkpt lat="43.64904" lon="3.85616">
        <ele>57</ele>
        <time>2020-06-06T12:12:00.000Z</time>
      </trkpt>
      <trkpt lat="43.64908" lon="3.85623">
        <ele>57</ele>
        <time>2020-06-06T12:12:01.000Z</time>
      </trkpt>
      <trkpt lat="43.64911" lon="3.8563">
        <ele>57</ele>
        <time>2020-06-06T12:12:02.000Z</time>
      </trkpt>
      <trkpt lat="43.64915" lon="3.85636">
        <ele>57</ele>
        <time>2020-06-06T12:12:03.000Z</time>
      </trkpt>
      <trkpt lat="43.64918" lon="3.85642">
        <ele>57</ele>
        <time>2020-06-06T12:12:04.000Z</time>
      </trkpt>
      <trkpt lat="43.64921" lon="3.85648">
        <ele>57</ele>
        <time>2020-06-06T12:12:05.000Z</time>
      </trkpt>
      <trkpt lat="43.64924" lon="3.85654">
        <ele>57</ele>
        <time>2020-06-06T12:12:06.000Z</time>
      </trkpt>
      <trkpt lat="43.64927" lon="3.8566">
        <ele>57</ele>
        <time>2020-06-06T12:12:07.000Z</time>
      </trkpt>
      <trkpt lat="43.6493" lon="3.85666">
        <ele>57</ele>
        <time>2020-06-06T12:12:08.000Z</time>
      </trkpt>
      <trkpt lat="43.64933" lon="3.85672">
        <ele>57</ele>
        <time>2020-06-06T12:12:09.000Z</time>
      </trkpt>
      <trkpt lat="43.64936" lon="3.85678">
        <ele>57</ele>
        <time>2020-06-06T12:12:10.000Z</time>
      </trkpt>
      <trkpt lat="43.64938" lon="3.85684">
        <ele>57</ele>
        <time>2020-06-06T12:12:11.000Z</time>
      </trkpt>
      <trkpt lat="43.64941" lon="3.8569">
        <ele>57</ele>
        <time>2020-06-06T12:12:12.000Z</time>
      </trkpt>
      <trkpt lat="43.64943" lon="3.85696">
        <ele>57</ele>
        <time>2020-06-06T12:12:13.000Z</time>
      </trkpt>
      <trkpt lat="43.64945" lon="3.85702">
        <ele>57</ele>
        <time>2020-06-06T12:12:14.000Z</time>
      </trkpt>
      <trkpt lat="43.64948" lon="3.85708">
        <ele>57</ele>
        <time>2020-06-06T12:12:15.000Z</time>
      </trkpt>
      <trkpt lat="43.6495" lon="3.85714">
        <ele>57</ele>
        <time>2020-06-06T12:12:16.000Z</time>
      </trkpt>
      <trkpt lat="43.64952" lon="3.8572">
        <ele>57</ele>
        <time>2020-06-06T12:12:17.000Z</time>
      </trkpt>
      <trkpt lat="43.64954" lon="3.85726">
        <ele>57</ele>
        <time>2020-06-06T12:12:18.000Z</time>
      </trkpt>
      <trkpt lat="43.64956" lon="3.85732">
        <ele>57</ele>
        <time>2020-06-06T12:12:19.000Z</time>
      </trkpt>
      <trkpt lat="43.64958" lon="3.85738">
        <ele>57</ele>
        <time>2020-06-06T12:12:20.000Z</time>
      </trkpt>
      <trkpt lat="43.6496" lon="3.85745">
        <ele>57</ele>
        <time>2020-06-06T12:12:21.000Z</time>
      </trkpt>
      <trkpt lat="43.64962" lon="3.85751">
        <ele>57</ele>
        <time>2020-06-06T12:12:22.000Z</time>
      </trkpt>
      <trkpt lat="43.64963" lon="3.85758">
        <ele>57</ele>
        <time>2020-06-06T12:12:23.000Z</time>
      </trkpt>
      <trkpt lat="43.64965" lon="3.85765">
        <ele>57</ele>
        <time>2020-06-06T12:12:24.000Z</time>
      </trkpt>
      <trkpt lat="43.64967" lon="3.85771">
        <ele>57</ele>
        <time>2020-06-06T12:12:25.000Z</time>
      </trkpt>
      <trkpt lat="43.64969" lon="3.85778">
        <ele>57</ele>
        <time>2020-06-06T12:12:26.000Z</time>
      </trkpt>
      <trkpt lat="43.6497" lon="3.85785">
        <ele>57</ele>
        <time>2020-06-06T12:12:27.000Z</time>
      </trkpt>
      <trkpt lat="43.64972" lon="3.85791">
        <ele>57</ele>
        <time>2020-06-06T12:12:28.000Z</time>
      </trkpt>
      <trkpt lat="43.64973" lon="3.85798">
        <ele>56.98899968</ele>
        <time>2020-06-06T12:12:29.000Z</time>
      </trkpt>
      <trkpt lat="43.64975" lon="3.85804">
        <ele>56.88899968</ele>
        <time>2020-06-06T12:12:30.000Z</time>
      </trkpt>
      <trkpt lat="43.64977" lon="3.85811">
        <ele>56.78899968</ele>
        <time>2020-06-06T12:12:31.000Z</time>
      </trkpt>
      <trkpt lat="43.64979" lon="3.85818">
        <ele>56.68899968</ele>
        <time>2020-06-06T12:12:32.000Z</time>
      </trkpt>
      <trkpt lat="43.64981" lon="3.85825">
        <ele>56.58899968</ele>
        <time>2020-06-06T12:12:33.000Z</time>
      </trkpt>
      <trkpt lat="43.64982" lon="3.85832">
        <ele>56.48899968</ele>
        <time>2020-06-06T12:12:34.000Z</time>
      </trkpt>
      <trkpt lat="43.64984" lon="3.85839">
        <ele>56.38899968</ele>
        <time>2020-06-06T12:12:35.000Z</time>
      </trkpt>
      <trkpt lat="43.64986" lon="3.85846">
        <ele>56.28899968</ele>
        <time>2020-06-06T12:12:36.000Z</time>
      </trkpt>
      <trkpt lat="43.64987" lon="3.85853">
        <ele>56.18899968</ele>
        <time>2020-06-06T12:12:37.000Z</time>
      </trkpt>
      <trkpt lat="43.64989" lon="3.8586">
        <ele>56.08899968</ele>
        <time>2020-06-06T12:12:38.000Z</time>
      </trkpt>
      <trkpt lat="43.64991" lon="3.85867">
        <ele>55.989299299611</ele>
        <time>2020-06-06T12:12:39.000Z</time>
      </trkpt>
      <trkpt lat="43.64992" lon="3.85873">
        <ele>55.892023035019</ele>
        <time>2020-06-06T12:12:40.000Z</time>
      </trkpt>
      <trkpt lat="43.64994" lon="3.8588">
        <ele>55.794746770428</ele>
        <time>2020-06-06T12:12:41.000Z</time>
      </trkpt>
      <trkpt lat="43.64996" lon="3.85887">
        <ele>55.697470505837</ele>
        <time>2020-06-06T12:12:42.000Z</time>
      </trkpt>
      <trkpt lat="43.64998" lon="3.85893">
        <ele>55.600194241245</ele>
        <time>2020-06-06T12:12:43.000Z</time>
      </trkpt>
      <trkpt lat="43.65" lon="3.859">
        <ele>55.502917976654</ele>
        <time>2020-06-06T12:12:44.000Z</time>
      </trkpt>
      <trkpt lat="43.65001" lon="3.85907">
        <ele>55.405641712062</ele>
        <time>2020-06-06T12:12:45.000Z</time>
      </trkpt>
      <trkpt lat="43.65003" lon="3.85914">
        <ele>55.308365447471</ele>
        <time>2020-06-06T12:12:46.000Z</time>
      </trkpt>
      <trkpt lat="43.65004" lon="3.85921">
        <ele>55.211089182879</ele>
        <time>2020-06-06T12:12:47.000Z</time>
      </trkpt>
      <trkpt lat="43.65006" lon="3.85928">
        <ele>55.113812918288</ele>
        <time>2020-06-06T12:12:48.000Z</time>
      </trkpt>
      <trkpt lat="43.65007" lon="3.85935">
        <ele>55.016536653696</ele>
        <time>2020-06-06T12:12:49.000Z</time>
      </trkpt>
      <trkpt lat="43.65009" lon="3.85943">
        <ele>54.91460872428</ele>
        <time>2020-06-06T12:12:50.000Z</time>
      </trkpt>
      <trkpt lat="43.65011" lon="3.8595">
        <ele>54.811728065844</ele>
        <time>2020-06-06T12:12:51.000Z</time>
      </trkpt>
      <trkpt lat="43.65012" lon="3.85958">
        <ele>54.708847407407</ele>
        <time>2020-06-06T12:12:52.000Z</time>
      </trkpt>
      <trkpt lat="43.65014" lon="3.85966">
        <ele>54.605966748971</ele>
        <time>2020-06-06T12:12:53.000Z</time>
      </trkpt>
      <trkpt lat="43.65015" lon="3.85974">
        <ele>54.503086090535</ele>
        <time>2020-06-06T12:12:54.000Z</time>
      </trkpt>
      <trkpt lat="43.65016" lon="3.85982">
        <ele>54.400205432099</ele>
        <time>2020-06-06T12:12:55.000Z</time>
      </trkpt>
      <trkpt lat="43.65017" lon="3.85991">
        <ele>54.297324773663</ele>
        <time>2020-06-06T12:12:56.000Z</time>
      </trkpt>
      <trkpt lat="43.65018" lon="3.85999">
        <ele>54.194444115226</ele>
        <time>2020-06-06T12:12:57.000Z</time>
      </trkpt>
      <trkpt lat="43.6502" lon="3.86008">
        <ele>54.09156345679</ele>
        <time>2020-06-06T12:12:58.000Z</time>
      </trkpt>
      <trkpt lat="43.65021" lon="3.86017">
        <ele>53.95599872</ele>
        <time>2020-06-06T12:12:59.000Z</time>
      </trkpt>
      <trkpt lat="43.65022" lon="3.86027">
        <ele>53.55599872</ele>
        <time>2020-06-06T12:13:00.000Z</time>
      </trkpt>
      <trkpt lat="43.65022" lon="3.86036">
        <ele>53.15599872</ele>
        <time>2020-06-06T12:13:01.000Z</time>
      </trkpt>
      <trkpt lat="43.65023" lon="3.86046">
        <ele>52.75599872</ele>
        <time>2020-06-06T12:13:02.000Z</time>
      </trkpt>
      <trkpt lat="43.65024" lon="3.86055">
        <ele>52.35599872</ele>
        <time>2020-06-06T12:13:03.000Z</time>
      </trkpt>
      <trkpt lat="43.65024" lon="3.86065">
        <ele>51.95599872</ele>
        <time>2020-06-06T12:13:04.000Z</time>
      </trkpt>
      <trkpt lat="43.65025" lon="3.86076">
        <ele>51.55599872</ele>
        <time>2020-06-06T12:13:05.000Z</time>
      </trkpt>
      <trkpt lat="43.65026" lon="3.86086">
        <ele>51.15599872</ele>
        <time>2020-06-06T12:13:06.000Z</time>
      </trkpt>
      <trkpt lat="43.65027" lon="3.86097">
        <ele>50.75599872</ele>
        <time>2020-06-06T12:13:07.000Z</time>
      </trkpt>
      <trkpt lat="43.65028" lon="3.86107">
        <ele>50.35599872</ele>
        <time>2020-06-06T12:13:08.000Z</time>
      </trkpt>
      <trkpt lat="43.65029" lon="3.86118">
        <ele>49.96699904</ele>
        <time>2020-06-06T12:13:09.000Z</time>
      </trkpt>
      <trkpt lat="43.6503" lon="3.86129">
        <ele>49.66699904</ele>
        <time>2020-06-06T12:13:10.000Z</time>
      </trkpt>
      <trkpt lat="43.65031" lon="3.86141">
        <ele>49.36699904</ele>
        <time>2020-06-06T12:13:11.000Z</time>
      </trkpt>
      <trkpt lat="43.65032" lon="3.86152">
        <ele>49.06699904</ele>
        <time>2020-06-06T12:13:12.000Z</time>
      </trkpt>
      <trkpt lat="43.65033" lon="3.86164">
        <ele>48.76699904</ele>
        <time>2020-06-06T12:13:13.000Z</time>
      </trkpt>
      <trkpt lat="43.65034" lon="3.86176">
        <ele>48.46699904</ele>
        <time>2020-06-06T12:13:14.000Z</time>
      </trkpt>
      <trkpt lat="43.65036" lon="3.86189">
        <ele>48.16699904</ele>
        <time>2020-06-06T12:13:15.000Z</time>
      </trkpt>
      <trkpt lat="43.65037" lon="3.86201">
        <ele>47.86699904</ele>
        <time>2020-06-06T12:13:16.000Z</time>
      </trkpt>
      <trkpt lat="43.65038" lon="3.86213">
        <ele>47.56699904</ele>
        <time>2020-06-06T12:13:17.000Z</time>
      </trkpt>
      <trkpt lat="43.65039" lon="3.86226">
        <ele>47.26699904</ele>
        <time>2020-06-06T12:13:18.000Z</time>
      </trkpt>
      <trkpt lat="43.6504" lon="3.86238">
        <ele>46.97799936</ele>
        <time>2020-06-06T12:13:19.000Z</time>
      </trkpt>
      <trkpt lat="43.65041" lon="3.86251">
        <ele>46.77799936</ele>
        <time>2020-06-06T12:13:20.000Z</time>
      </trkpt>
      <trkpt lat="43.65041" lon="3.86264">
        <ele>46.57799936</ele>
        <time>2020-06-06T12:13:21.000Z</time>
      </trkpt>
      <trkpt lat="43.65042" lon="3.86276">
        <ele>46.37799936</ele>
        <time>2020-06-06T12:13:22.000Z</time>
      </trkpt>
      <trkpt lat="43.65043" lon="3.86289">
        <ele>46.17799936</ele>
        <time>2020-06-06T12:13:23.000Z</time>
      </trkpt>
      <trkpt lat="43.65044" lon="3.86301">
        <ele>45.97799936</ele>
        <time>2020-06-06T12:13:24.000Z</time>
      </trkpt>
      <trkpt lat="43.65045" lon="3.86313">
        <ele>45.77799936</ele>
        <time>2020-06-06T12:13:25.000Z</time>
      </trkpt>
      <trkpt lat="43.65046" lon="3.86324">
        <ele>45.57799936</ele>
        <time>2020-06-06T12:13:26.000Z</time>
      </trkpt>
      <trkpt lat="43.65047" lon="3.86336">
        <ele>45.37799936</ele>
        <time>2020-06-06T12:13:27.000Z</time>
      </trkpt>
      <trkpt lat="43.65047" lon="3.86347">
        <ele>45.17799936</ele>
        <time>2020-06-06T12:13:28.000Z</time>
      </trkpt>
      <trkpt lat="43.65048" lon="3.86357">
        <ele>45.010628325216</ele>
        <time>2020-06-06T12:13:29.000Z</time>
      </trkpt>
      <trkpt lat="43.65049" lon="3.86368">
        <ele>45.107246652832</ele>
        <time>2020-06-06T12:13:30.000Z</time>
      </trkpt>
      <trkpt lat="43.6505" lon="3.86378">
        <ele>45.203864980447</ele>
        <time>2020-06-06T12:13:31.000Z</time>
      </trkpt>
      <trkpt lat="43.65051" lon="3.86388">
        <ele>45.300483308063</ele>
        <time>2020-06-06T12:13:32.000Z</time>
      </trkpt>
      <trkpt lat="43.65052" lon="3.86398">
        <ele>45.397101635679</ele>
        <time>2020-06-06T12:13:33.000Z</time>
      </trkpt>
      <trkpt lat="43.65052" lon="3.86407">
        <ele>45.493719963294</ele>
        <time>2020-06-06T12:13:34.000Z</time>
      </trkpt>
      <trkpt lat="43.65053" lon="3.86416">
        <ele>45.59033829091</ele>
        <time>2020-06-06T12:13:35.000Z</time>
      </trkpt>
      <trkpt lat="43.65054" lon="3.86425">
        <ele>45.686956618525</ele>
        <time>2020-06-06T12:13:36.000Z</time>
      </trkpt>
      <trkpt lat="43.65055" lon="3.86434">
        <ele>45.783574946141</ele>
        <time>2020-06-06T12:13:37.000Z</time>
      </trkpt>
      <trkpt lat="43.65056" lon="3.86443">
        <ele>45.880193273757</ele>
        <time>2020-06-06T12:13:38.000Z</time>
      </trkpt>
      <trkpt lat="43.65057" lon="3.86452">
        <ele>45.976811601372</ele>
        <time>2020-06-06T12:13:39.000Z</time>
      </trkpt>
      <trkpt lat="43.65057" lon="3.86461">
        <ele>45.9212434972</ele>
        <time>2020-06-06T12:13:40.000Z</time>
      </trkpt>
      <trkpt lat="43.65058" lon="3.86469">
        <ele>45.817616519831</ele>
        <time>2020-06-06T12:13:41.000Z</time>
      </trkpt>
      <trkpt lat="43.65059" lon="3.86478">
        <ele>45.713989542463</ele>
        <time>2020-06-06T12:13:42.000Z</time>
      </trkpt>
      <trkpt lat="43.6506" lon="3.86487">
        <ele>45.610362565094</ele>
        <time>2020-06-06T12:13:43.000Z</time>
      </trkpt>
      <trkpt lat="43.6506" lon="3.86495">
        <ele>45.506735587726</ele>
        <time>2020-06-06T12:13:44.000Z</time>
      </trkpt>
      <trkpt lat="43.65061" lon="3.86502">
        <ele>45.403108610357</ele>
        <time>2020-06-06T12:13:45.000Z</time>
      </trkpt>
      <trkpt lat="43.65062" lon="3.8651">
        <ele>45.299481632989</ele>
        <time>2020-06-06T12:13:46.000Z</time>
      </trkpt>
      <trkpt lat="43.65063" lon="3.86518">
        <ele>45.19585465562</ele>
        <time>2020-06-06T12:13:47.000Z</time>
      </trkpt>
      <trkpt lat="43.65064" lon="3.86526">
        <ele>45.092227678252</ele>
        <time>2020-06-06T12:13:48.000Z</time>
      </trkpt>
      <trkpt lat="43.65065" lon="3.86533">
        <ele>45.01100032</ele>
        <time>2020-06-06T12:13:49.000Z</time>
      </trkpt>
      <trkpt lat="43.65066" lon="3.8654">
        <ele>45.11100032</ele>
        <time>2020-06-06T12:13:50.000Z</time>
      </trkpt>
      <trkpt lat="43.65066" lon="3.86547">
        <ele>45.21100032</ele>
        <time>2020-06-06T12:13:51.000Z</time>
      </trkpt>
      <trkpt lat="43.65066" lon="3.86555">
        <ele>45.31100032</ele>
        <time>2020-06-06T12:13:52.000Z</time>
      </trkpt>
      <trkpt lat="43.65067" lon="3.86562">
        <ele>45.41100032</ele>
        <time>2020-06-06T12:13:53.000Z</time>
      </trkpt>
      <trkpt lat="43.65067" lon="3.86569">
        <ele>45.51100032</ele>
        <time>2020-06-06T12:13:54.000Z</time>
      </trkpt>
      <trkpt lat="43.65066" lon="3.86575">
        <ele>45.61100032</ele>
        <time>2020-06-06T12:13:55.000Z</time>
      </trkpt>
      <trkpt lat="43.65064" lon="3.86581">
        <ele>45.71100032</ele>
        <time>2020-06-06T12:13:56.000Z</time>
      </trkpt>
      <trkpt lat="43.6506" lon="3.86586">
        <ele>45.81100032</ele>
        <time>2020-06-06T12:13:57.000Z</time>
      </trkpt>
      <trkpt lat="43.65057" lon="3.86589">
        <ele>45.91100032</ele>
        <time>2020-06-06T12:13:58.000Z</time>
      </trkpt>
      <trkpt lat="43.65053" lon="3.86593">
        <ele>46</ele>
        <time>2020-06-06T12:13:59.000Z</time>
      </trkpt>
      <trkpt lat="43.65049" lon="3.86596">
        <ele>46</ele>
        <time>2020-06-06T12:14:00.000Z</time>
      </trkpt>
      <trkpt lat="43.65047" lon="3.86601">
        <ele>46</ele>
        <time>2020-06-06T12:14:01.000Z</time>
      </trkpt>
      <trkpt lat="43.65045" lon="3.86607">
        <ele>46</ele>
        <time>2020-06-06T12:14:02.000Z</time>
      </trkpt>
      <trkpt lat="43.65045" lon="3.86614">
        <ele>46</ele>
        <time>2020-06-06T12:14:03.000Z</time>
      </trkpt>
      <trkpt lat="43.65044" lon="3.86621">
        <ele>46</ele>
        <time>2020-06-06T12:14:04.000Z</time>
      </trkpt>
      <trkpt lat="43.65045" lon="3.86628">
        <ele>46</ele>
        <time>2020-06-06T12:14:05.000Z</time>
      </trkpt>
      <trkpt lat="43.65047" lon="3.86634">
        <ele>46</ele>
        <time>2020-06-06T12:14:06.000Z</time>
      </trkpt>
      <trkpt lat="43.65049" lon="3.86641">
        <ele>46</ele>
        <time>2020-06-06T12:14:07.000Z</time>
      </trkpt>
      <trkpt lat="43.65052" lon="3.86646">
        <ele>46</ele>
        <time>2020-06-06T12:14:08.000Z</time>
      </trkpt>
      <trkpt lat="43.65056" lon="3.8665">
        <ele>46</ele>
        <time>2020-06-06T12:14:09.000Z</time>
      </trkpt>
      <trkpt lat="43.6506" lon="3.86653">
        <ele>46</ele>
        <time>2020-06-06T12:14:10.000Z</time>
      </trkpt>
      <trkpt lat="43.65065" lon="3.86655">
        <ele>46</ele>
        <time>2020-06-06T12:14:11.000Z</time>
      </trkpt>
      <trkpt lat="43.65068" lon="3.86658">
        <ele>46</ele>
        <time>2020-06-06T12:14:12.000Z</time>
      </trkpt>
      <trkpt lat="43.65072" lon="3.86663">
        <ele>46</ele>
        <time>2020-06-06T12:14:13.000Z</time>
      </trkpt>
      <trkpt lat="43.65074" lon="3.86669">
        <ele>46</ele>
        <time>2020-06-06T12:14:14.000Z</time>
      </trkpt>
      <trkpt lat="43.65076" lon="3.86675">
        <ele>46</ele>
        <time>2020-06-06T12:14:15.000Z</time>
      </trkpt>
      <trkpt lat="43.65077" lon="3.86682">
        <ele>46</ele>
        <time>2020-06-06T12:14:16.000Z</time>
      </trkpt>
      <trkpt lat="43.65078" lon="3.86689">
        <ele>46</ele>
        <time>2020-06-06T12:14:17.000Z</time>
      </trkpt>
      <trkpt lat="43.65079" lon="3.86695">
        <ele>46</ele>
        <time>2020-06-06T12:14:18.000Z</time>
      </trkpt>
      <trkpt lat="43.6508" lon="3.86702">
        <ele>46</ele>
        <time>2020-06-06T12:14:19.000Z</time>
      </trkpt>
      <trkpt lat="43.65081" lon="3.86709">
        <ele>46</ele>
        <time>2020-06-06T12:14:20.000Z</time>
      </trkpt>
      <trkpt lat="43.65082" lon="3.86715">
        <ele>46</ele>
        <time>2020-06-06T12:14:21.000Z</time>
      </trkpt>
      <trkpt lat="43.65082" lon="3.86721">
        <ele>46</ele>
        <time>2020-06-06T12:14:22.000Z</time>
      </trkpt>
      <trkpt lat="43.65083" lon="3.86727">
        <ele>46</ele>
        <time>2020-06-06T12:14:23.000Z</time>
      </trkpt>
      <trkpt lat="43.65083" lon="3.86733">
        <ele>46</ele>
        <time>2020-06-06T12:14:24.000Z</time>
      </trkpt>
      <trkpt lat="43.65084" lon="3.86739">
        <ele>46</ele>
        <time>2020-06-06T12:14:25.000Z</time>
      </trkpt>
      <trkpt lat="43.65085" lon="3.86745">
        <ele>46</ele>
        <time>2020-06-06T12:14:26.000Z</time>
      </trkpt>
      <trkpt lat="43.65085" lon="3.86751">
        <ele>46</ele>
        <time>2020-06-06T12:14:27.000Z</time>
      </trkpt>
      <trkpt lat="43.65085" lon="3.86757">
        <ele>46</ele>
        <time>2020-06-06T12:14:28.000Z</time>
      </trkpt>
      <trkpt lat="43.65086" lon="3.86763">
        <ele>46</ele>
        <time>2020-06-06T12:14:29.000Z</time>
      </trkpt>
      <trkpt lat="43.65086" lon="3.86768">
        <ele>46</ele>
        <time>2020-06-06T12:14:30.000Z</time>
      </trkpt>
      <trkpt lat="43.65087" lon="3.86774">
        <ele>46</ele>
        <time>2020-06-06T12:14:31.000Z</time>
      </trkpt>
      <trkpt lat="43.65088" lon="3.86781">
        <ele>46</ele>
        <time>2020-06-06T12:14:32.000Z</time>
      </trkpt>
      <trkpt lat="43.65089" lon="3.86787">
        <ele>46</ele>
        <time>2020-06-06T12:14:33.000Z</time>
      </trkpt>
      <trkpt lat="43.65089" lon="3.86793">
        <ele>46</ele>
        <time>2020-06-06T12:14:34.000Z</time>
      </trkpt>
      <trkpt lat="43.6509" lon="3.86799">
        <ele>46</ele>
        <time>2020-06-06T12:14:35.000Z</time>
      </trkpt>
      <trkpt lat="43.65091" lon="3.86805">
        <ele>46</ele>
        <time>2020-06-06T12:14:36.000Z</time>
      </trkpt>
      <trkpt lat="43.65092" lon="3.86811">
        <ele>46</ele>
        <time>2020-06-06T12:14:37.000Z</time>
      </trkpt>
      <trkpt lat="43.65093" lon="3.86817">
        <ele>46</ele>
        <time>2020-06-06T12:14:38.000Z</time>
      </trkpt>
      <trkpt lat="43.65094" lon="3.86823">
        <ele>46</ele>
        <time>2020-06-06T12:14:39.000Z</time>
      </trkpt>
      <trkpt lat="43.65096" lon="3.86828">
        <ele>46</ele>
        <time>2020-06-06T12:14:40.000Z</time>
      </trkpt>
      <trkpt lat="43.65097" lon="3.86834">
        <ele>46</ele>
        <time>2020-06-06T12:14:41.000Z</time>
      </trkpt>
      <trkpt lat="43.65099" lon="3.8684">
        <ele>46</ele>
        <time>2020-06-06T12:14:42.000Z</time>
      </trkpt>
      <trkpt lat="43.651" lon="3.86846">
        <ele>46</ele>
        <time>2020-06-06T12:14:43.000Z</time>
      </trkpt>
      <trkpt lat="43.65101" lon="3.86852">
        <ele>46</ele>
        <time>2020-06-06T12:14:44.000Z</time>
      </trkpt>
      <trkpt lat="43.65103" lon="3.86857">
        <ele>46</ele>
        <time>2020-06-06T12:14:45.000Z</time>
      </trkpt>
      <trkpt lat="43.65104" lon="3.86863">
        <ele>46</ele>
        <time>2020-06-06T12:14:46.000Z</time>
      </trkpt>
      <trkpt lat="43.65105" lon="3.86868">
        <ele>46</ele>
        <time>2020-06-06T12:14:47.000Z</time>
      </trkpt>
      <trkpt lat="43.65107" lon="3.86873">
        <ele>46</ele>
        <time>2020-06-06T12:14:48.000Z</time>
      </trkpt>
      <trkpt lat="43.65108" lon="3.86878">
        <ele>46</ele>
        <time>2020-06-06T12:14:49.000Z</time>
      </trkpt>
      <trkpt lat="43.65109" lon="3.86883">
        <ele>46</ele>
        <time>2020-06-06T12:14:50.000Z</time>
      </trkpt>
      <trkpt lat="43.65111" lon="3.86888">
        <ele>46</ele>
        <time>2020-06-06T12:14:51.000Z</time>
      </trkpt>
      <trkpt lat="43.65112" lon="3.86893">
        <ele>46</ele>
        <time>2020-06-06T12:14:52.000Z</time>
      </trkpt>
      <trkpt lat="43.65113" lon="3.86898">
        <ele>46</ele>
        <time>2020-06-06T12:14:53.000Z</time>
      </trkpt>
      <trkpt lat="43.65114" lon="3.86903">
        <ele>46</ele>
        <time>2020-06-06T12:14:54.000Z</time>
      </trkpt>
      <trkpt lat="43.65115" lon="3.86909">
        <ele>46</ele>
        <time>2020-06-06T12:14:55.000Z</time>
      </trkpt>
      <trkpt lat="43.65117" lon="3.86914">
        <ele>46</ele>
        <time>2020-06-06T12:14:56.000Z</time>
      </trkpt>
      <trkpt lat="43.65119" lon="3.8692">
        <ele>46</ele>
        <time>2020-06-06T12:14:57.000Z</time>
      </trkpt>
      <trkpt lat="43.65121" lon="3.86925">
        <ele>46</ele>
        <time>2020-06-06T12:14:58.000Z</time>
      </trkpt>
      <trkpt lat="43.65123" lon="3.86931">
        <ele>45.989130118577</ele>
        <time>2020-06-06T12:14:59.000Z</time>
      </trkpt>
      <trkpt lat="43.65124" lon="3.86936">
        <ele>45.890315889328</ele>
        <time>2020-06-06T12:15:00.000Z</time>
      </trkpt>
      <trkpt lat="43.65126" lon="3.86941">
        <ele>45.791501660079</ele>
        <time>2020-06-06T12:15:01.000Z</time>
      </trkpt>
      <trkpt lat="43.65128" lon="3.86947">
        <ele>45.69268743083</ele>
        <time>2020-06-06T12:15:02.000Z</time>
      </trkpt>
      <trkpt lat="43.6513" lon="3.86952">
        <ele>45.593873201581</ele>
        <time>2020-06-06T12:15:03.000Z</time>
      </trkpt>
      <trkpt lat="43.65132" lon="3.86957">
        <ele>45.495058972332</ele>
        <time>2020-06-06T12:15:04.000Z</time>
      </trkpt>
      <trkpt lat="43.65134" lon="3.86962">
        <ele>45.396244743083</ele>
        <time>2020-06-06T12:15:05.000Z</time>
      </trkpt>
      <trkpt lat="43.65136" lon="3.86968">
        <ele>45.297430513834</ele>
        <time>2020-06-06T12:15:06.000Z</time>
      </trkpt>
      <trkpt lat="43.65138" lon="3.86973">
        <ele>45.198616284585</ele>
        <time>2020-06-06T12:15:07.000Z</time>
      </trkpt>
      <trkpt lat="43.6514" lon="3.86978">
        <ele>45.099802055336</ele>
        <time>2020-06-06T12:15:08.000Z</time>
      </trkpt>
      <trkpt lat="43.65142" lon="3.86982">
        <ele>45.000987826087</ele>
        <time>2020-06-06T12:15:09.000Z</time>
      </trkpt>
      <trkpt lat="43.65144" lon="3.86987">
        <ele>45</ele>
        <time>2020-06-06T12:15:10.000Z</time>
      </trkpt>
      <trkpt lat="43.65146" lon="3.86992">
        <ele>45</ele>
        <time>2020-06-06T12:15:11.000Z</time>
      </trkpt>
      <trkpt lat="43.65148" lon="3.86997">
        <ele>45</ele>
        <time>2020-06-06T12:15:12.000Z</time>
      </trkpt>
      <trkpt lat="43.6515" lon="3.87002">
        <ele>45</ele>
        <time>2020-06-06T12:15:13.000Z</time>
      </trkpt>
      <trkpt lat="43.65152" lon="3.87007">
        <ele>45</ele>
        <time>2020-06-06T12:15:14.000Z</time>
      </trkpt>
      <trkpt lat="43.65154" lon="3.87013">
        <ele>45</ele>
        <time>2020-06-06T12:15:15.000Z</time>
      </trkpt>
      <trkpt lat="43.65156" lon="3.8702">
        <ele>45</ele>
        <time>2020-06-06T12:15:16.000Z</time>
      </trkpt>
      <trkpt lat="43.65159" lon="3.87026">
        <ele>45</ele>
        <time>2020-06-06T12:15:17.000Z</time>
      </trkpt>
      <trkpt lat="43.65161" lon="3.87033">
        <ele>45</ele>
        <time>2020-06-06T12:15:18.000Z</time>
      </trkpt>
      <trkpt lat="43.65164" lon="3.87039">
        <ele>44.989320084306</ele>
        <time>2020-06-06T12:15:19.000Z</time>
      </trkpt>
      <trkpt lat="43.65166" lon="3.87045">
        <ele>44.892232765991</ele>
        <time>2020-06-06T12:15:20.000Z</time>
      </trkpt>
      <trkpt lat="43.65168" lon="3.8705">
        <ele>44.795145447677</ele>
        <time>2020-06-06T12:15:21.000Z</time>
      </trkpt>
      <trkpt lat="43.65171" lon="3.87056">
        <ele>44.698058129362</ele>
        <time>2020-06-06T12:15:22.000Z</time>
      </trkpt>
      <trkpt lat="43.65172" lon="3.87061">
        <ele>44.600970811047</ele>
        <time>2020-06-06T12:15:23.000Z</time>
      </trkpt>
      <trkpt lat="43.65174" lon="3.87065">
        <ele>44.503883492733</ele>
        <time>2020-06-06T12:15:24.000Z</time>
      </trkpt>
      <trkpt lat="43.65175" lon="3.87068">
        <ele>44.406796174418</ele>
        <time>2020-06-06T12:15:25.000Z</time>
      </trkpt>
      <trkpt lat="43.65176" lon="3.87071">
        <ele>44.309708856103</ele>
        <time>2020-06-06T12:15:26.000Z</time>
      </trkpt>
      <trkpt lat="43.65177" lon="3.87073">
        <ele>44.212621537789</ele>
        <time>2020-06-06T12:15:27.000Z</time>
      </trkpt>
      <trkpt lat="43.65178" lon="3.87075">
        <ele>44.115534219474</ele>
        <time>2020-06-06T12:15:28.000Z</time>
      </trkpt>
      <trkpt lat="43.65179" lon="3.87078">
        <ele>44.018446901159</ele>
        <time>2020-06-06T12:15:29.000Z</time>
      </trkpt>
      <trkpt lat="43.65181" lon="3.87082">
        <ele>44</ele>
        <time>2020-06-06T12:15:30.000Z</time>
      </trkpt>
      <trkpt lat="43.65183" lon="3.87086">
        <ele>44</ele>
        <time>2020-06-06T12:15:31.000Z</time>
      </trkpt>
      <trkpt lat="43.65185" lon="3.8709">
        <ele>44</ele>
        <time>2020-06-06T12:15:32.000Z</time>
      </trkpt>
      <trkpt lat="43.65187" lon="3.87094">
        <ele>44</ele>
        <time>2020-06-06T12:15:33.000Z</time>
      </trkpt>
      <trkpt lat="43.65189" lon="3.87099">
        <ele>44</ele>
        <time>2020-06-06T12:15:34.000Z</time>
      </trkpt>
      <trkpt lat="43.65191" lon="3.87103">
        <ele>44</ele>
        <time>2020-06-06T12:15:35.000Z</time>
      </trkpt>
      <trkpt lat="43.65192" lon="3.87108">
        <ele>44</ele>
        <time>2020-06-06T12:15:36.000Z</time>
      </trkpt>
      <trkpt lat="43.65194" lon="3.87113">
        <ele>44</ele>
        <time>2020-06-06T12:15:37.000Z</time>
      </trkpt>
      <trkpt lat="43.65197" lon="3.87118">
        <ele>44</ele>
        <time>2020-06-06T12:15:38.000Z</time>
      </trkpt>
      <trkpt lat="43.65199" lon="3.87122">
        <ele>44</ele>
        <time>2020-06-06T12:15:39.000Z</time>
      </trkpt>
      <trkpt lat="43.65201" lon="3.87126">
        <ele>44</ele>
        <time>2020-06-06T12:15:40.000Z</time>
      </trkpt>
      <trkpt lat="43.65204" lon="3.8713">
        <ele>44</ele>
        <time>2020-06-06T12:15:41.000Z</time>
      </trkpt>
      <trkpt lat="43.65206" lon="3.87134">
        <ele>44</ele>
        <time>2020-06-06T12:15:42.000Z</time>
      </trkpt>
      <trkpt lat="43.65207" lon="3.87137">
        <ele>44</ele>
        <time>2020-06-06T12:15:43.000Z</time>
      </trkpt>
      <trkpt lat="43.65207" lon="3.8714">
        <ele>44</ele>
        <time>2020-06-06T12:15:44.000Z</time>
      </trkpt>
      <trkpt lat="43.65205" lon="3.87142">
        <ele>44</ele>
        <time>2020-06-06T12:15:46.000Z</time>
      </trkpt>
      <trkpt lat="43.65203" lon="3.87145">
        <ele>44</ele>
        <time>2020-06-06T12:15:48.000Z</time>
      </trkpt>
      <trkpt lat="43.65202" lon="3.87148">
        <ele>43.989299299611</ele>
        <time>2020-06-06T12:15:49.000Z</time>
      </trkpt>
      <trkpt lat="43.65201" lon="3.87153">
        <ele>43.892023035019</ele>
        <time>2020-06-06T12:15:50.000Z</time>
      </trkpt>
      <trkpt lat="43.65202" lon="3.87158">
        <ele>43.794746770428</ele>
        <time>2020-06-06T12:15:51.000Z</time>
      </trkpt>
      <trkpt lat="43.65205" lon="3.87164">
        <ele>43.697470505837</ele>
        <time>2020-06-06T12:15:52.000Z</time>
      </trkpt>
      <trkpt lat="43.65207" lon="3.8717">
        <ele>43.600194241245</ele>
        <time>2020-06-06T12:15:53.000Z</time>
      </trkpt>
      <trkpt lat="43.6521" lon="3.87175">
        <ele>43.502917976654</ele>
        <time>2020-06-06T12:15:54.000Z</time>
      </trkpt>
      <trkpt lat="43.65213" lon="3.87181">
        <ele>43.405641712062</ele>
        <time>2020-06-06T12:15:55.000Z</time>
      </trkpt>
      <trkpt lat="43.65216" lon="3.87187">
        <ele>43.308365447471</ele>
        <time>2020-06-06T12:15:56.000Z</time>
      </trkpt>
      <trkpt lat="43.65219" lon="3.87193">
        <ele>43.211089182879</ele>
        <time>2020-06-06T12:15:57.000Z</time>
      </trkpt>
      <trkpt lat="43.65223" lon="3.87198">
        <ele>43.113812918288</ele>
        <time>2020-06-06T12:15:58.000Z</time>
      </trkpt>
      <trkpt lat="43.65228" lon="3.87203">
        <ele>43.016536653696</ele>
        <time>2020-06-06T12:15:59.000Z</time>
      </trkpt>
      <trkpt lat="43.65232" lon="3.87208">
        <ele>42.91460872428</ele>
        <time>2020-06-06T12:16:00.000Z</time>
      </trkpt>
      <trkpt lat="43.65236" lon="3.87213">
        <ele>42.811728065844</ele>
        <time>2020-06-06T12:16:01.000Z</time>
      </trkpt>
      <trkpt lat="43.65239" lon="3.87219">
        <ele>42.708847407407</ele>
        <time>2020-06-06T12:16:02.000Z</time>
      </trkpt>
      <trkpt lat="43.65241" lon="3.87225">
        <ele>42.605966748971</ele>
        <time>2020-06-06T12:16:03.000Z</time>
      </trkpt>
      <trkpt lat="43.65243" lon="3.87232">
        <ele>42.503086090535</ele>
        <time>2020-06-06T12:16:04.000Z</time>
      </trkpt>
      <trkpt lat="43.65243" lon="3.87239">
        <ele>42.400205432099</ele>
        <time>2020-06-06T12:16:05.000Z</time>
      </trkpt>
      <trkpt lat="43.65242" lon="3.87246">
        <ele>42.297324773663</ele>
        <time>2020-06-06T12:16:06.000Z</time>
      </trkpt>
      <trkpt lat="43.6524" lon="3.87253">
        <ele>42.194444115226</ele>
        <time>2020-06-06T12:16:07.000Z</time>
      </trkpt>
      <trkpt lat="43.65235" lon="3.87258">
        <ele>42.09156345679</ele>
        <time>2020-06-06T12:16:08.000Z</time>
      </trkpt>
      <trkpt lat="43.6523" lon="3.87262">
        <ele>41.967031997453</ele>
        <time>2020-06-06T12:16:09.000Z</time>
      </trkpt>
      <trkpt lat="43.65224" lon="3.87264">
        <ele>41.667331601944</ele>
        <time>2020-06-06T12:16:10.000Z</time>
      </trkpt>
      <trkpt lat="43.65217" lon="3.87263">
        <ele>41.367631206435</ele>
        <time>2020-06-06T12:16:11.000Z</time>
      </trkpt>
      <trkpt lat="43.65211" lon="3.8726">
        <ele>41.067930810927</ele>
        <time>2020-06-06T12:16:12.000Z</time>
      </trkpt>
      <trkpt lat="43.65205" lon="3.87254">
        <ele>40.768230415418</ele>
        <time>2020-06-06T12:16:13.000Z</time>
      </trkpt>
      <trkpt lat="43.652" lon="3.87248">
        <ele>40.46853001991</ele>
        <time>2020-06-06T12:16:14.000Z</time>
      </trkpt>
      <trkpt lat="43.65195" lon="3.87242">
        <ele>40.168829624401</ele>
        <time>2020-06-06T12:16:15.000Z</time>
      </trkpt>
      <trkpt lat="43.6519" lon="3.87236">
        <ele>39.869129228892</ele>
        <time>2020-06-06T12:16:16.000Z</time>
      </trkpt>
      <trkpt lat="43.65186" lon="3.87229">
        <ele>39.569428833384</ele>
        <time>2020-06-06T12:16:17.000Z</time>
      </trkpt>
      <trkpt lat="43.65182" lon="3.87222">
        <ele>39.269728437875</ele>
        <time>2020-06-06T12:16:18.000Z</time>
      </trkpt>
      <trkpt lat="43.65178" lon="3.87215">
        <ele>39</ele>
        <time>2020-06-06T12:16:19.000Z</time>
      </trkpt>
      <trkpt lat="43.65175" lon="3.87208">
        <ele>39</ele>
        <time>2020-06-06T12:16:20.000Z</time>
      </trkpt>
      <trkpt lat="43.65172" lon="3.87201">
        <ele>39</ele>
        <time>2020-06-06T12:16:21.000Z</time>
      </trkpt>
      <trkpt lat="43.65169" lon="3.87194">
        <ele>39</ele>
        <time>2020-06-06T12:16:22.000Z</time>
      </trkpt>
      <trkpt lat="43.65167" lon="3.87187">
        <ele>39</ele>
        <time>2020-06-06T12:16:23.000Z</time>
      </trkpt>
      <trkpt lat="43.65165" lon="3.8718">
        <ele>39</ele>
        <time>2020-06-06T12:16:24.000Z</time>
      </trkpt>
      <trkpt lat="43.65163" lon="3.87173">
        <ele>39</ele>
        <time>2020-06-06T12:16:25.000Z</time>
      </trkpt>
      <trkpt lat="43.65162" lon="3.87167">
        <ele>39</ele>
        <time>2020-06-06T12:16:26.000Z</time>
      </trkpt>
      <trkpt lat="43.65161" lon="3.8716">
        <ele>39</ele>
        <time>2020-06-06T12:16:27.000Z</time>
      </trkpt>
      <trkpt lat="43.6516" lon="3.87153">
        <ele>39</ele>
        <time>2020-06-06T12:16:28.000Z</time>
      </trkpt>
      <trkpt lat="43.65159" lon="3.87146">
        <ele>38.98899968</ele>
        <time>2020-06-06T12:16:29.000Z</time>
      </trkpt>
      <trkpt lat="43.65158" lon="3.87139">
        <ele>38.88899968</ele>
        <time>2020-06-06T12:16:30.000Z</time>
      </trkpt>
      <trkpt lat="43.65158" lon="3.87131">
        <ele>38.78899968</ele>
        <time>2020-06-06T12:16:31.000Z</time>
      </trkpt>
      <trkpt lat="43.65157" lon="3.87125">
        <ele>38.68899968</ele>
        <time>2020-06-06T12:16:32.000Z</time>
      </trkpt>
      <trkpt lat="43.65156" lon="3.87119">
        <ele>38.58899968</ele>
        <time>2020-06-06T12:16:33.000Z</time>
      </trkpt>
      <trkpt lat="43.65157" lon="3.87113">
        <ele>38.48899968</ele>
        <time>2020-06-06T12:16:34.000Z</time>
      </trkpt>
      <trkpt lat="43.65157" lon="3.87106">
        <ele>38.38899968</ele>
        <time>2020-06-06T12:16:35.000Z</time>
      </trkpt>
      <trkpt lat="43.65159" lon="3.87101">
        <ele>38.28899968</ele>
        <time>2020-06-06T12:16:36.000Z</time>
      </trkpt>
      <trkpt lat="43.65162" lon="3.87095">
        <ele>38.18899968</ele>
        <time>2020-06-06T12:16:37.000Z</time>
      </trkpt>
      <trkpt lat="43.65166" lon="3.87089">
        <ele>38.08899968</ele>
        <time>2020-06-06T12:16:38.000Z</time>
      </trkpt>
      <trkpt lat="43.6517" lon="3.87084">
        <ele>38.01100032</ele>
        <time>2020-06-06T12:16:39.000Z</time>
      </trkpt>
      <trkpt lat="43.65174" lon="3.8708">
        <ele>38.11100032</ele>
        <time>2020-06-06T12:16:40.000Z</time>
      </trkpt>
      <trkpt lat="43.65178" lon="3.87076">
        <ele>38.21100032</ele>
        <time>2020-06-06T12:16:41.000Z</time>
      </trkpt>
      <trkpt lat="43.65181" lon="3.87073">
        <ele>38.31100032</ele>
        <time>2020-06-06T12:16:42.000Z</time>
      </trkpt>
      <trkpt lat="43.65194" lon="3.87064">
        <ele>38.61100032</ele>
        <time>2020-06-06T12:16:45.000Z</time>
      </trkpt>
      <trkpt lat="43.65204" lon="3.87056">
        <ele>38.81100032</ele>
        <time>2020-06-06T12:16:47.000Z</time>
      </trkpt>
      <trkpt lat="43.65214" lon="3.8705">
        <ele>39</ele>
        <time>2020-06-06T12:16:49.000Z</time>
      </trkpt>
      <trkpt lat="43.65222" lon="3.87042">
        <ele>39</ele>
        <time>2020-06-06T12:16:51.000Z</time>
      </trkpt>
      <trkpt lat="43.65226" lon="3.87038">
        <ele>39</ele>
        <time>2020-06-06T12:16:52.000Z</time>
      </trkpt>
      <trkpt lat="43.6523" lon="3.87034">
        <ele>39</ele>
        <time>2020-06-06T12:16:53.000Z</time>
      </trkpt>
      <trkpt lat="43.65234" lon="3.87029">
        <ele>39</ele>
        <time>2020-06-06T12:16:54.000Z</time>
      </trkpt>
      <trkpt lat="43.65237" lon="3.87024">
        <ele>39</ele>
        <time>2020-06-06T12:16:55.000Z</time>
      </trkpt>
      <trkpt lat="43.6524" lon="3.8702">
        <ele>39</ele>
        <time>2020-06-06T12:16:56.000Z</time>
      </trkpt>
      <trkpt lat="43.65243" lon="3.87015">
        <ele>39</ele>
        <time>2020-06-06T12:16:57.000Z</time>
      </trkpt>
      <trkpt lat="43.65246" lon="3.87011">
        <ele>39</ele>
        <time>2020-06-06T12:16:58.000Z</time>
      </trkpt>
      <trkpt lat="43.65249" lon="3.87007">
        <ele>39</ele>
        <time>2020-06-06T12:16:59.000Z</time>
      </trkpt>
      <trkpt lat="43.65252" lon="3.87002">
        <ele>39</ele>
        <time>2020-06-06T12:17:00.000Z</time>
      </trkpt>
      <trkpt lat="43.65255" lon="3.86997">
        <ele>39</ele>
        <time>2020-06-06T12:17:01.000Z</time>
      </trkpt>
      <trkpt lat="43.65258" lon="3.86993">
        <ele>39</ele>
        <time>2020-06-06T12:17:02.000Z</time>
      </trkpt>
      <trkpt lat="43.65261" lon="3.86988">
        <ele>39</ele>
        <time>2020-06-06T12:17:03.000Z</time>
      </trkpt>
      <trkpt lat="43.65264" lon="3.86983">
        <ele>39</ele>
        <time>2020-06-06T12:17:04.000Z</time>
      </trkpt>
      <trkpt lat="43.65266" lon="3.86977">
        <ele>39</ele>
        <time>2020-06-06T12:17:05.000Z</time>
      </trkpt>
      <trkpt lat="43.65268" lon="3.86972">
        <ele>39</ele>
        <time>2020-06-06T12:17:06.000Z</time>
      </trkpt>
      <trkpt lat="43.65271" lon="3.8696">
        <ele>39</ele>
        <time>2020-06-06T12:17:08.000Z</time>
      </trkpt>
      <trkpt lat="43.65272" lon="3.86954">
        <ele>39</ele>
        <time>2020-06-06T12:17:09.000Z</time>
      </trkpt>
      <trkpt lat="43.65273" lon="3.86947">
        <ele>39</ele>
        <time>2020-06-06T12:17:10.000Z</time>
      </trkpt>
      <trkpt lat="43.65273" lon="3.86941">
        <ele>39</ele>
        <time>2020-06-06T12:17:11.000Z</time>
      </trkpt>
      <trkpt lat="43.65273" lon="3.86935">
        <ele>39</ele>
        <time>2020-06-06T12:17:12.000Z</time>
      </trkpt>
      <trkpt lat="43.65273" lon="3.86929">
        <ele>39</ele>
        <time>2020-06-06T12:17:13.000Z</time>
      </trkpt>
      <trkpt lat="43.65273" lon="3.86922">
        <ele>39</ele>
        <time>2020-06-06T12:17:14.000Z</time>
      </trkpt>
      <trkpt lat="43.65273" lon="3.86916">
        <ele>39</ele>
        <time>2020-06-06T12:17:15.000Z</time>
      </trkpt>
      <trkpt lat="43.65273" lon="3.8691">
        <ele>39</ele>
        <time>2020-06-06T12:17:16.000Z</time>
      </trkpt>
      <trkpt lat="43.65273" lon="3.86903">
        <ele>39</ele>
        <time>2020-06-06T12:17:17.000Z</time>
      </trkpt>
      <trkpt lat="43.65273" lon="3.86896">
        <ele>39</ele>
        <time>2020-06-06T12:17:18.000Z</time>
      </trkpt>
      <trkpt lat="43.65272" lon="3.86889">
        <ele>39.01100032</ele>
        <time>2020-06-06T12:17:19.000Z</time>
      </trkpt>
      <trkpt lat="43.65272" lon="3.86882">
        <ele>39.11100032</ele>
        <time>2020-06-06T12:17:20.000Z</time>
      </trkpt>
      <trkpt lat="43.65272" lon="3.86875">
        <ele>39.21100032</ele>
        <time>2020-06-06T12:17:21.000Z</time>
      </trkpt>
      <trkpt lat="43.65271" lon="3.86868">
        <ele>39.31100032</ele>
        <time>2020-06-06T12:17:22.000Z</time>
      </trkpt>
      <trkpt lat="43.6527" lon="3.86861">
        <ele>39.41100032</ele>
        <time>2020-06-06T12:17:23.000Z</time>
      </trkpt>
      <trkpt lat="43.65271" lon="3.86854">
        <ele>39.51100032</ele>
        <time>2020-06-06T12:17:24.000Z</time>
      </trkpt>
      <trkpt lat="43.65271" lon="3.86848">
        <ele>39.61100032</ele>
        <time>2020-06-06T12:17:25.000Z</time>
      </trkpt>
      <trkpt lat="43.65272" lon="3.86842">
        <ele>39.71100032</ele>
        <time>2020-06-06T12:17:26.000Z</time>
      </trkpt>
      <trkpt lat="43.65273" lon="3.86836">
        <ele>39.81100032</ele>
        <time>2020-06-06T12:17:27.000Z</time>
      </trkpt>
      <trkpt lat="43.65275" lon="3.86831">
        <ele>39.91100032</ele>
        <time>2020-06-06T12:17:28.000Z</time>
      </trkpt>
      <trkpt lat="43.65276" lon="3.86824">
        <ele>39.98899968</ele>
        <time>2020-06-06T12:17:29.000Z</time>
      </trkpt>
      <trkpt lat="43.65278" lon="3.86818">
        <ele>39.88899968</ele>
        <time>2020-06-06T12:17:30.000Z</time>
      </trkpt>
      <trkpt lat="43.65281" lon="3.86813">
        <ele>39.78899968</ele>
        <time>2020-06-06T12:17:31.000Z</time>
      </trkpt>
      <trkpt lat="43.65284" lon="3.86807">
        <ele>39.68899968</ele>
        <time>2020-06-06T12:17:32.000Z</time>
      </trkpt>
      <trkpt lat="43.65287" lon="3.86802">
        <ele>39.58899968</ele>
        <time>2020-06-06T12:17:33.000Z</time>
      </trkpt>
      <trkpt lat="43.65291" lon="3.86798">
        <ele>39.48899968</ele>
        <time>2020-06-06T12:17:34.000Z</time>
      </trkpt>
      <trkpt lat="43.65296" lon="3.86797">
        <ele>39.38899968</ele>
        <time>2020-06-06T12:17:35.000Z</time>
      </trkpt>
      <trkpt lat="43.653" lon="3.86797">
        <ele>39.28899968</ele>
        <time>2020-06-06T12:17:36.000Z</time>
      </trkpt>
      <trkpt lat="43.65304" lon="3.86795">
        <ele>39.18899968</ele>
        <time>2020-06-06T12:17:37.000Z</time>
      </trkpt>
      <trkpt lat="43.65315" lon="3.86786">
        <ele>39.11100032</ele>
        <time>2020-06-06T12:17:40.000Z</time>
      </trkpt>
      <trkpt lat="43.65322" lon="3.86777">
        <ele>39.41100032</ele>
        <time>2020-06-06T12:17:43.000Z</time>
      </trkpt>
      <trkpt lat="43.65325" lon="3.86772">
        <ele>39.71100032</ele>
        <time>2020-06-06T12:17:46.000Z</time>
      </trkpt>
      <trkpt lat="43.65327" lon="3.86769">
        <ele>39.91100032</ele>
        <time>2020-06-06T12:17:48.000Z</time>
      </trkpt>
      <trkpt lat="43.65335" lon="3.86761">
        <ele>40.51100032</ele>
        <time>2020-06-06T12:17:54.000Z</time>
      </trkpt>
      <trkpt lat="43.65339" lon="3.8675">
        <ele>40.91100032</ele>
        <time>2020-06-06T12:17:58.000Z</time>
      </trkpt>
      <trkpt lat="43.65348" lon="3.86742">
        <ele>40.795145447677</ele>
        <time>2020-06-06T12:18:01.000Z</time>
      </trkpt>
      <trkpt lat="43.65352" lon="3.8674">
        <ele>40.698058129362</ele>
        <time>2020-06-06T12:18:02.000Z</time>
      </trkpt>
      <trkpt lat="43.65356" lon="3.86739">
        <ele>40.600970811047</ele>
        <time>2020-06-06T12:18:03.000Z</time>
      </trkpt>
      <trkpt lat="43.65359" lon="3.86738">
        <ele>40.503883492733</ele>
        <time>2020-06-06T12:18:04.000Z</time>
      </trkpt>
      <trkpt lat="43.65363" lon="3.86738">
        <ele>40.406796174418</ele>
        <time>2020-06-06T12:18:05.000Z</time>
      </trkpt>
      <trkpt lat="43.65367" lon="3.86738">
        <ele>40.309708856103</ele>
        <time>2020-06-06T12:18:06.000Z</time>
      </trkpt>
      <trkpt lat="43.65372" lon="3.86739">
        <ele>40.212621537789</ele>
        <time>2020-06-06T12:18:07.000Z</time>
      </trkpt>
      <trkpt lat="43.65375" lon="3.86739">
        <ele>40.115534219474</ele>
        <time>2020-06-06T12:18:08.000Z</time>
      </trkpt>
      <trkpt lat="43.65379" lon="3.86739">
        <ele>40.018446901159</ele>
        <time>2020-06-06T12:18:09.000Z</time>
      </trkpt>
      <trkpt lat="43.65383" lon="3.8674">
        <ele>40</ele>
        <time>2020-06-06T12:18:10.000Z</time>
      </trkpt>
      <trkpt lat="43.65386" lon="3.86739">
        <ele>40</ele>
        <time>2020-06-06T12:18:11.000Z</time>
      </trkpt>
      <trkpt lat="43.65389" lon="3.8674">
        <ele>40</ele>
        <time>2020-06-06T12:18:12.000Z</time>
      </trkpt>
      <trkpt lat="43.65395" lon="3.86742">
        <ele>40</ele>
        <time>2020-06-06T12:18:14.000Z</time>
      </trkpt>
      <trkpt lat="43.65398" lon="3.86744">
        <ele>40</ele>
        <time>2020-06-06T12:18:15.000Z</time>
      </trkpt>
      <trkpt lat="43.65401" lon="3.86746">
        <ele>40</ele>
        <time>2020-06-06T12:18:16.000Z</time>
      </trkpt>
      <trkpt lat="43.65412" lon="3.86752">
        <ele>40</ele>
        <time>2020-06-06T12:18:19.000Z</time>
      </trkpt>
      <trkpt lat="43.65422" lon="3.86758">
        <ele>40</ele>
        <time>2020-06-06T12:18:22.000Z</time>
      </trkpt>
      <trkpt lat="43.65434" lon="3.86765">
        <ele>40</ele>
        <time>2020-06-06T12:18:25.000Z</time>
      </trkpt>
      <trkpt lat="43.65444" lon="3.86772">
        <ele>40</ele>
        <time>2020-06-06T12:18:27.000Z</time>
      </trkpt>
      <trkpt lat="43.65449" lon="3.86775">
        <ele>40</ele>
        <time>2020-06-06T12:18:28.000Z</time>
      </trkpt>
      <trkpt lat="43.65454" lon="3.86778">
        <ele>40.01100032</ele>
        <time>2020-06-06T12:18:29.000Z</time>
      </trkpt>
      <trkpt lat="43.65461" lon="3.86788">
        <ele>40.21100032</ele>
        <time>2020-06-06T12:18:31.000Z</time>
      </trkpt>
      <trkpt lat="43.65464" lon="3.86794">
        <ele>40.31100032</ele>
        <time>2020-06-06T12:18:32.000Z</time>
      </trkpt>
      <trkpt lat="43.65467" lon="3.86799">
        <ele>40.41100032</ele>
        <time>2020-06-06T12:18:33.000Z</time>
      </trkpt>
      <trkpt lat="43.65474" lon="3.86808">
        <ele>40.61100032</ele>
        <time>2020-06-06T12:18:35.000Z</time>
      </trkpt>
      <trkpt lat="43.65477" lon="3.8682">
        <ele>40.81100032</ele>
        <time>2020-06-06T12:18:37.000Z</time>
      </trkpt>
      <trkpt lat="43.65486" lon="3.86811">
        <ele>41.51100032</ele>
        <time>2020-06-06T12:18:44.000Z</time>
      </trkpt>
      <trkpt lat="43.65488" lon="3.86807">
        <ele>41.61100032</ele>
        <time>2020-06-06T12:18:45.000Z</time>
      </trkpt>
      <trkpt lat="43.65494" lon="3.86794">
        <ele>42</ele>
        <time>2020-06-06T12:18:49.000Z</time>
      </trkpt>
      <trkpt lat="43.655" lon="3.86794">
        <ele>42</ele>
        <time>2020-06-06T12:18:51.000Z</time>
      </trkpt>
      <trkpt lat="43.6551" lon="3.86791">
        <ele>42</ele>
        <time>2020-06-06T12:18:54.000Z</time>
      </trkpt>
      <trkpt lat="43.65519" lon="3.86788">
        <ele>42</ele>
        <time>2020-06-06T12:18:56.000Z</time>
      </trkpt>
      <trkpt lat="43.65524" lon="3.86789">
        <ele>42</ele>
        <time>2020-06-06T12:18:57.000Z</time>
      </trkpt>
      <trkpt lat="43.65528" lon="3.8679">
        <ele>42</ele>
        <time>2020-06-06T12:18:58.000Z</time>
      </trkpt>
      <trkpt lat="43.65533" lon="3.86792">
        <ele>41.989299299611</ele>
        <time>2020-06-06T12:18:59.000Z</time>
      </trkpt>
      <trkpt lat="43.65537" lon="3.86793">
        <ele>41.892023035019</ele>
        <time>2020-06-06T12:19:00.000Z</time>
      </trkpt>
      <trkpt lat="43.65542" lon="3.86793">
        <ele>41.794746770428</ele>
        <time>2020-06-06T12:19:01.000Z</time>
      </trkpt>
      <trkpt lat="43.65546" lon="3.86794">
        <ele>41.697470505837</ele>
        <time>2020-06-06T12:19:02.000Z</time>
      </trkpt>
      <trkpt lat="43.65549" lon="3.86795">
        <ele>41.600194241245</ele>
        <time>2020-06-06T12:19:03.000Z</time>
      </trkpt>
      <trkpt lat="43.65551" lon="3.86796">
        <ele>41.502917976654</ele>
        <time>2020-06-06T12:19:04.000Z</time>
      </trkpt>
      <trkpt lat="43.65553" lon="3.86796">
        <ele>41.405641712062</ele>
        <time>2020-06-06T12:19:05.000Z</time>
      </trkpt>
      <trkpt lat="43.65555" lon="3.86795">
        <ele>41.308365447471</ele>
        <time>2020-06-06T12:19:06.000Z</time>
      </trkpt>
      <trkpt lat="43.65557" lon="3.86794">
        <ele>41.211089182879</ele>
        <time>2020-06-06T12:19:07.000Z</time>
      </trkpt>
      <trkpt lat="43.65559" lon="3.86792">
        <ele>41.113812918288</ele>
        <time>2020-06-06T12:19:08.000Z</time>
      </trkpt>
      <trkpt lat="43.65561" lon="3.86789">
        <ele>41.016536653696</ele>
        <time>2020-06-06T12:19:09.000Z</time>
      </trkpt>
      <trkpt lat="43.65562" lon="3.86786">
        <ele>41</ele>
        <time>2020-06-06T12:19:10.000Z</time>
      </trkpt>
      <trkpt lat="43.65563" lon="3.86783">
        <ele>41</ele>
        <time>2020-06-06T12:19:11.000Z</time>
      </trkpt>
      <trkpt lat="43.65565" lon="3.86781">
        <ele>41</ele>
        <time>2020-06-06T12:19:12.000Z</time>
      </trkpt>
      <trkpt lat="43.65566" lon="3.8678">
        <ele>41</ele>
        <time>2020-06-06T12:19:13.000Z</time>
      </trkpt>
      <trkpt lat="43.65568" lon="3.86778">
        <ele>41</ele>
        <time>2020-06-06T12:19:14.000Z</time>
      </trkpt>
      <trkpt lat="43.6557" lon="3.86776">
        <ele>41</ele>
        <time>2020-06-06T12:19:17.000Z</time>
      </trkpt>
      <trkpt lat="43.65572" lon="3.86775">
        <ele>41.110778691718</ele>
        <time>2020-06-06T12:19:20.000Z</time>
      </trkpt>
      <trkpt lat="43.65574" lon="3.86773">
        <ele>41.410179698089</ele>
        <time>2020-06-06T12:19:23.000Z</time>
      </trkpt>
      <trkpt lat="43.65575" lon="3.86772">
        <ele>42</ele>
        <time>2020-06-06T12:19:29.000Z</time>
      </trkpt>
      <trkpt lat="43.65575" lon="3.8676">
        <ele>42</ele>
        <time>2020-06-06T12:19:40.000Z</time>
      </trkpt>
      <trkpt lat="43.65576" lon="3.86756">
        <ele>42</ele>
        <time>2020-06-06T12:19:41.000Z</time>
      </trkpt>
      <trkpt lat="43.65578" lon="3.86753">
        <ele>42</ele>
        <time>2020-06-06T12:19:42.000Z</time>
      </trkpt>
      <trkpt lat="43.65587" lon="3.86743">
        <ele>42</ele>
        <time>2020-06-06T12:19:45.000Z</time>
      </trkpt>
      <trkpt lat="43.65594" lon="3.86732">
        <ele>42</ele>
        <time>2020-06-06T12:19:48.000Z</time>
      </trkpt>
      <trkpt lat="43.65602" lon="3.86725">
        <ele>42</ele>
        <time>2020-06-06T12:19:51.000Z</time>
      </trkpt>
      <trkpt lat="43.65612" lon="3.8672">
        <ele>42</ele>
        <time>2020-06-06T12:19:54.000Z</time>
      </trkpt>
      <trkpt lat="43.6562" lon="3.86709">
        <ele>42</ele>
        <time>2020-06-06T12:19:57.000Z</time>
      </trkpt>
      <trkpt lat="43.65629" lon="3.86704">
        <ele>42</ele>
        <time>2020-06-06T12:20:01.000Z</time>
      </trkpt>
      <trkpt lat="43.65638" lon="3.86698">
        <ele>42</ele>
        <time>2020-06-06T12:20:06.000Z</time>
      </trkpt>
      <trkpt lat="43.65641" lon="3.86698">
        <ele>42</ele>
        <time>2020-06-06T12:20:07.000Z</time>
      </trkpt>
      <trkpt lat="43.65643" lon="3.86696">
        <ele>42</ele>
        <time>2020-06-06T12:20:08.000Z</time>
      </trkpt>
      <trkpt lat="43.65645" lon="3.86693">
        <ele>42</ele>
        <time>2020-06-06T12:20:09.000Z</time>
      </trkpt>
      <trkpt lat="43.65648" lon="3.8669">
        <ele>42</ele>
        <time>2020-06-06T12:20:10.000Z</time>
      </trkpt>
      <trkpt lat="43.6565" lon="3.86688">
        <ele>42</ele>
        <time>2020-06-06T12:20:11.000Z</time>
      </trkpt>
      <trkpt lat="43.65659" lon="3.86684">
        <ele>42</ele>
        <time>2020-06-06T12:20:15.000Z</time>
      </trkpt>
      <trkpt lat="43.65668" lon="3.86687">
        <ele>42</ele>
        <time>2020-06-06T12:20:18.000Z</time>
      </trkpt>
      <trkpt lat="43.65679" lon="3.86693">
        <ele>42</ele>
        <time>2020-06-06T12:20:22.000Z</time>
      </trkpt>
      <trkpt lat="43.65689" lon="3.86692">
        <ele>42</ele>
        <time>2020-06-06T12:20:25.000Z</time>
      </trkpt>
      <trkpt lat="43.65698" lon="3.86691">
        <ele>42</ele>
        <time>2020-06-06T12:20:29.000Z</time>
      </trkpt>
      <trkpt lat="43.65703" lon="3.86693">
        <ele>42</ele>
        <time>2020-06-06T12:20:31.000Z</time>
      </trkpt>
      <trkpt lat="43.65706" lon="3.86694">
        <ele>42</ele>
        <time>2020-06-06T12:20:32.000Z</time>
      </trkpt>
      <trkpt lat="43.6571" lon="3.86695">
        <ele>42</ele>
        <time>2020-06-06T12:20:33.000Z</time>
      </trkpt>
      <trkpt lat="43.65714" lon="3.86696">
        <ele>42</ele>
        <time>2020-06-06T12:20:34.000Z</time>
      </trkpt>
      <trkpt lat="43.65717" lon="3.86697">
        <ele>42</ele>
        <time>2020-06-06T12:20:35.000Z</time>
      </trkpt>
      <trkpt lat="43.65727" lon="3.86701">
        <ele>42</ele>
        <time>2020-06-06T12:20:39.000Z</time>
      </trkpt>
      <trkpt lat="43.65739" lon="3.86702">
        <ele>42</ele>
        <time>2020-06-06T12:20:43.000Z</time>
      </trkpt>
      <trkpt lat="43.65742" lon="3.86703">
        <ele>42</ele>
        <time>2020-06-06T12:20:44.000Z</time>
      </trkpt>
      <trkpt lat="43.65745" lon="3.86703">
        <ele>42</ele>
        <time>2020-06-06T12:20:45.000Z</time>
      </trkpt>
      <trkpt lat="43.65749" lon="3.86703">
        <ele>42</ele>
        <time>2020-06-06T12:20:46.000Z</time>
      </trkpt>
      <trkpt lat="43.65753" lon="3.86703">
        <ele>42</ele>
        <time>2020-06-06T12:20:47.000Z</time>
      </trkpt>
      <trkpt lat="43.65756" lon="3.86702">
        <ele>42</ele>
        <time>2020-06-06T12:20:48.000Z</time>
      </trkpt>
      <trkpt lat="43.65759" lon="3.86702">
        <ele>42</ele>
        <time>2020-06-06T12:20:49.000Z</time>
      </trkpt>
      <trkpt lat="43.65763" lon="3.86702">
        <ele>42</ele>
        <time>2020-06-06T12:20:50.000Z</time>
      </trkpt>
      <trkpt lat="43.65767" lon="3.86702">
        <ele>42</ele>
        <time>2020-06-06T12:20:51.000Z</time>
      </trkpt>
      <trkpt lat="43.65771" lon="3.86701">
        <ele>42</ele>
        <time>2020-06-06T12:20:52.000Z</time>
      </trkpt>
      <trkpt lat="43.65774" lon="3.867">
        <ele>42</ele>
        <time>2020-06-06T12:20:53.000Z</time>
      </trkpt>
      <trkpt lat="43.65778" lon="3.86699">
        <ele>42</ele>
        <time>2020-06-06T12:20:54.000Z</time>
      </trkpt>
      <trkpt lat="43.65782" lon="3.86698">
        <ele>42</ele>
        <time>2020-06-06T12:20:55.000Z</time>
      </trkpt>
      <trkpt lat="43.65785" lon="3.86698">
        <ele>42</ele>
        <time>2020-06-06T12:20:56.000Z</time>
      </trkpt>
      <trkpt lat="43.65789" lon="3.86699">
        <ele>42</ele>
        <time>2020-06-06T12:20:57.000Z</time>
      </trkpt>
      <trkpt lat="43.65793" lon="3.867">
        <ele>42</ele>
        <time>2020-06-06T12:20:58.000Z</time>
      </trkpt>
      <trkpt lat="43.65797" lon="3.867">
        <ele>42</ele>
        <time>2020-06-06T12:20:59.000Z</time>
      </trkpt>
      <trkpt lat="43.65801" lon="3.867">
        <ele>42</ele>
        <time>2020-06-06T12:21:00.000Z</time>
      </trkpt>
      <trkpt lat="43.65806" lon="3.867">
        <ele>42</ele>
        <time>2020-06-06T12:21:01.000Z</time>
      </trkpt>
      <trkpt lat="43.65811" lon="3.86701">
        <ele>42</ele>
        <time>2020-06-06T12:21:02.000Z</time>
      </trkpt>
      <trkpt lat="43.65815" lon="3.86702">
        <ele>42</ele>
        <time>2020-06-06T12:21:03.000Z</time>
      </trkpt>
      <trkpt lat="43.65818" lon="3.86701">
        <ele>42</ele>
        <time>2020-06-06T12:21:04.000Z</time>
      </trkpt>
      <trkpt lat="43.65822" lon="3.86701">
        <ele>42</ele>
        <time>2020-06-06T12:21:05.000Z</time>
      </trkpt>
      <trkpt lat="43.65825" lon="3.86699">
        <ele>42</ele>
        <time>2020-06-06T12:21:06.000Z</time>
      </trkpt>
      <trkpt lat="43.65829" lon="3.86697">
        <ele>42</ele>
        <time>2020-06-06T12:21:07.000Z</time>
      </trkpt>
      <trkpt lat="43.65833" lon="3.86696">
        <ele>42</ele>
        <time>2020-06-06T12:21:08.000Z</time>
      </trkpt>
      <trkpt lat="43.65837" lon="3.86695">
        <ele>42</ele>
        <time>2020-06-06T12:21:09.000Z</time>
      </trkpt>
      <trkpt lat="43.65842" lon="3.86695">
        <ele>41.98899968</ele>
        <time>2020-06-06T12:21:10.000Z</time>
      </trkpt>
      <trkpt lat="43.65846" lon="3.86695">
        <ele>41.88899968</ele>
        <time>2020-06-06T12:21:11.000Z</time>
      </trkpt>
      <trkpt lat="43.6585" lon="3.86694">
        <ele>41.78899968</ele>
        <time>2020-06-06T12:21:12.000Z</time>
      </trkpt>
      <trkpt lat="43.65853" lon="3.86693">
        <ele>41.68899968</ele>
        <time>2020-06-06T12:21:13.000Z</time>
      </trkpt>
      <trkpt lat="43.6586" lon="3.86693">
        <ele>41.48899968</ele>
        <time>2020-06-06T12:21:15.000Z</time>
      </trkpt>
      <trkpt lat="43.65869" lon="3.86694">
        <ele>41.18899968</ele>
        <time>2020-06-06T12:21:18.000Z</time>
      </trkpt>
      <trkpt lat="43.65882" lon="3.86696">
        <ele>41</ele>
        <time>2020-06-06T12:21:21.000Z</time>
      </trkpt>
      <trkpt lat="43.65889" lon="3.86701">
        <ele>41</ele>
        <time>2020-06-06T12:21:23.000Z</time>
      </trkpt>
      <trkpt lat="43.65891" lon="3.86706">
        <ele>41</ele>
        <time>2020-06-06T12:21:24.000Z</time>
      </trkpt>
      <trkpt lat="43.65892" lon="3.86712">
        <ele>41</ele>
        <time>2020-06-06T12:21:25.000Z</time>
      </trkpt>
      <trkpt lat="43.65894" lon="3.86718">
        <ele>41</ele>
        <time>2020-06-06T12:21:26.000Z</time>
      </trkpt>
      <trkpt lat="43.65896" lon="3.86723">
        <ele>41</ele>
        <time>2020-06-06T12:21:27.000Z</time>
      </trkpt>
      <trkpt lat="43.65897" lon="3.86728">
        <ele>41</ele>
        <time>2020-06-06T12:21:28.000Z</time>
      </trkpt>
      <trkpt lat="43.65898" lon="3.86733">
        <ele>41</ele>
        <time>2020-06-06T12:21:29.000Z</time>
      </trkpt>
      <trkpt lat="43.659" lon="3.86738">
        <ele>41</ele>
        <time>2020-06-06T12:21:30.000Z</time>
      </trkpt>
      <trkpt lat="43.65902" lon="3.86742">
        <ele>41</ele>
        <time>2020-06-06T12:21:31.000Z</time>
      </trkpt>
      <trkpt lat="43.65903" lon="3.86746">
        <ele>41.08786130418</ele>
        <time>2020-06-06T12:21:32.000Z</time>
      </trkpt>
      <trkpt lat="43.65904" lon="3.8675">
        <ele>41.203468283364</ele>
        <time>2020-06-06T12:21:33.000Z</time>
      </trkpt>
      <trkpt lat="43.65906" lon="3.86753">
        <ele>41.319075262548</ele>
        <time>2020-06-06T12:21:34.000Z</time>
      </trkpt>
      <trkpt lat="43.65907" lon="3.86756">
        <ele>41.434682241732</ele>
        <time>2020-06-06T12:21:35.000Z</time>
      </trkpt>
      <trkpt lat="43.65909" lon="3.86759">
        <ele>41.550289220916</ele>
        <time>2020-06-06T12:21:36.000Z</time>
      </trkpt>
      <trkpt lat="43.6591" lon="3.86762">
        <ele>41.6658962001</ele>
        <time>2020-06-06T12:21:37.000Z</time>
      </trkpt>
      <trkpt lat="43.65911" lon="3.86765">
        <ele>41.781503179284</ele>
        <time>2020-06-06T12:21:38.000Z</time>
      </trkpt>
      <trkpt lat="43.65912" lon="3.86768">
        <ele>41.897110158469</ele>
        <time>2020-06-06T12:21:39.000Z</time>
      </trkpt>
      <trkpt lat="43.65912" lon="3.86771">
        <ele>42.010913015873</ele>
        <time>2020-06-06T12:21:40.000Z</time>
      </trkpt>
      <trkpt lat="43.6591" lon="3.86775">
        <ele>42.209325714286</ele>
        <time>2020-06-06T12:21:42.000Z</time>
      </trkpt>
      <trkpt lat="43.65909" lon="3.86779">
        <ele>42.407738412698</ele>
        <time>2020-06-06T12:21:44.000Z</time>
      </trkpt>
      <trkpt lat="43.65909" lon="3.86782">
        <ele>42.506944761905</ele>
        <time>2020-06-06T12:21:45.000Z</time>
      </trkpt>
      <trkpt lat="43.65909" lon="3.86785">
        <ele>42.606151111111</ele>
        <time>2020-06-06T12:21:46.000Z</time>
      </trkpt>
      <trkpt lat="43.65911" lon="3.86787">
        <ele>42.705357460318</ele>
        <time>2020-06-06T12:21:47.000Z</time>
      </trkpt>
      <trkpt lat="43.65914" lon="3.86788">
        <ele>42.804563809524</ele>
        <time>2020-06-06T12:21:48.000Z</time>
      </trkpt>
      <trkpt lat="43.65917" lon="3.86789">
        <ele>42.90377015873</ele>
        <time>2020-06-06T12:21:49.000Z</time>
      </trkpt>
      <trkpt lat="43.6592" lon="3.86789">
        <ele>43.003024516129</ele>
        <time>2020-06-06T12:21:50.000Z</time>
      </trkpt>
      <trkpt lat="43.65923" lon="3.86789">
        <ele>43.103830967742</ele>
        <time>2020-06-06T12:21:51.000Z</time>
      </trkpt>
      <trkpt lat="43.65925" lon="3.86789">
        <ele>43.204637419355</ele>
        <time>2020-06-06T12:21:52.000Z</time>
      </trkpt>
      <trkpt lat="43.65927" lon="3.86789">
        <ele>43.305443870968</ele>
        <time>2020-06-06T12:21:53.000Z</time>
      </trkpt>
      <trkpt lat="43.65929" lon="3.86789">
        <ele>43.406250322581</ele>
        <time>2020-06-06T12:21:54.000Z</time>
      </trkpt>
      <trkpt lat="43.65932" lon="3.8679">
        <ele>43.507056774194</ele>
        <time>2020-06-06T12:21:55.000Z</time>
      </trkpt>
      <trkpt lat="43.65934" lon="3.8679">
        <ele>43.607863225806</ele>
        <time>2020-06-06T12:21:56.000Z</time>
      </trkpt>
      <trkpt lat="43.65935" lon="3.86791">
        <ele>43.708669677419</ele>
        <time>2020-06-06T12:21:57.000Z</time>
      </trkpt>
      <trkpt lat="43.65939" lon="3.86793">
        <ele>43.910282580645</ele>
        <time>2020-06-06T12:21:59.000Z</time>
      </trkpt>
      <trkpt lat="43.65941" lon="3.86793">
        <ele>44.01100032</ele>
        <time>2020-06-06T12:22:00.000Z</time>
      </trkpt>
      <trkpt lat="43.65943" lon="3.86793">
        <ele>44.11100032</ele>
        <time>2020-06-06T12:22:01.000Z</time>
      </trkpt>
      <trkpt lat="43.65946" lon="3.86793">
        <ele>44.21100032</ele>
        <time>2020-06-06T12:22:02.000Z</time>
      </trkpt>
      <trkpt lat="43.65948" lon="3.86792">
        <ele>44.31100032</ele>
        <time>2020-06-06T12:22:03.000Z</time>
      </trkpt>
      <trkpt lat="43.65951" lon="3.86792">
        <ele>44.41100032</ele>
        <time>2020-06-06T12:22:04.000Z</time>
      </trkpt>
      <trkpt lat="43.65953" lon="3.86791">
        <ele>44.51100032</ele>
        <time>2020-06-06T12:22:05.000Z</time>
      </trkpt>
      <trkpt lat="43.65954" lon="3.8679">
        <ele>44.61100032</ele>
        <time>2020-06-06T12:22:06.000Z</time>
      </trkpt>
      <trkpt lat="43.65956" lon="3.86789">
        <ele>44.71100032</ele>
        <time>2020-06-06T12:22:07.000Z</time>
      </trkpt>
      <trkpt lat="43.65958" lon="3.86788">
        <ele>44.81100032</ele>
        <time>2020-06-06T12:22:08.000Z</time>
      </trkpt>
      <trkpt lat="43.6596" lon="3.86786">
        <ele>44.91100032</ele>
        <time>2020-06-06T12:22:09.000Z</time>
      </trkpt>
      <trkpt lat="43.65963" lon="3.86786">
        <ele>45.02200064</ele>
        <time>2020-06-06T12:22:10.000Z</time>
      </trkpt>
      <trkpt lat="43.65965" lon="3.86785">
        <ele>45.22200064</ele>
        <time>2020-06-06T12:22:11.000Z</time>
      </trkpt>
      <trkpt lat="43.65967" lon="3.86783">
        <ele>45.42200064</ele>
        <time>2020-06-06T12:22:12.000Z</time>
      </trkpt>
      <trkpt lat="43.65969" lon="3.86781">
        <ele>45.62200064</ele>
        <time>2020-06-06T12:22:13.000Z</time>
      </trkpt>
      <trkpt lat="43.65971" lon="3.8678">
        <ele>45.82200064</ele>
        <time>2020-06-06T12:22:14.000Z</time>
      </trkpt>
      <trkpt lat="43.65973" lon="3.86779">
        <ele>46.02200064</ele>
        <time>2020-06-06T12:22:15.000Z</time>
      </trkpt>
      <trkpt lat="43.65976" lon="3.86778">
        <ele>46.22200064</ele>
        <time>2020-06-06T12:22:16.000Z</time>
      </trkpt>
      <trkpt lat="43.65978" lon="3.86777">
        <ele>46.42200064</ele>
        <time>2020-06-06T12:22:17.000Z</time>
      </trkpt>
      <trkpt lat="43.6598" lon="3.86776">
        <ele>46.62200064</ele>
        <time>2020-06-06T12:22:18.000Z</time>
      </trkpt>
      <trkpt lat="43.65982" lon="3.86775">
        <ele>46.82200064</ele>
        <time>2020-06-06T12:22:19.000Z</time>
      </trkpt>
      <trkpt lat="43.65984" lon="3.86774">
        <ele>47.03300096</ele>
        <time>2020-06-06T12:22:20.000Z</time>
      </trkpt>
      <trkpt lat="43.65986" lon="3.86773">
        <ele>47.33300096</ele>
        <time>2020-06-06T12:22:21.000Z</time>
      </trkpt>
      <trkpt lat="43.65988" lon="3.86772">
        <ele>47.63300096</ele>
        <time>2020-06-06T12:22:22.000Z</time>
      </trkpt>
      <trkpt lat="43.6599" lon="3.86771">
        <ele>47.93300096</ele>
        <time>2020-06-06T12:22:23.000Z</time>
      </trkpt>
      <trkpt lat="43.65992" lon="3.86771">
        <ele>48.23300096</ele>
        <time>2020-06-06T12:22:24.000Z</time>
      </trkpt>
      <trkpt lat="43.65994" lon="3.8677">
        <ele>48.53300096</ele>
        <time>2020-06-06T12:22:25.000Z</time>
      </trkpt>
      <trkpt lat="43.65996" lon="3.8677">
        <ele>48.83300096</ele>
        <time>2020-06-06T12:22:26.000Z</time>
      </trkpt>
      <trkpt lat="43.65999" lon="3.86769">
        <ele>49.43300096</ele>
        <time>2020-06-06T12:22:28.000Z</time>
      </trkpt>
      <trkpt lat="43.66003" lon="3.86768">
        <ele>50.02200064</ele>
        <time>2020-06-06T12:22:30.000Z</time>
      </trkpt>
      <trkpt lat="43.66006" lon="3.86767">
        <ele>50.42200064</ele>
        <time>2020-06-06T12:22:32.000Z</time>
      </trkpt>
      <trkpt lat="43.66009" lon="3.86767">
        <ele>50.82200064</ele>
        <time>2020-06-06T12:22:34.000Z</time>
      </trkpt>
      <trkpt lat="43.66011" lon="3.86768">
        <ele>51.02200064</ele>
        <time>2020-06-06T12:22:35.000Z</time>
      </trkpt>
      <trkpt lat="43.66014" lon="3.86771">
        <ele>51.42200064</ele>
        <time>2020-06-06T12:22:37.000Z</time>
      </trkpt>
      <trkpt lat="43.66017" lon="3.86774">
        <ele>51.82200064</ele>
        <time>2020-06-06T12:22:39.000Z</time>
      </trkpt>
      <trkpt lat="43.66018" lon="3.86779">
        <ele>52.22200064</ele>
        <time>2020-06-06T12:22:41.000Z</time>
      </trkpt>
      <trkpt lat="43.66018" lon="3.86782">
        <ele>52.42200064</ele>
        <time>2020-06-06T12:22:42.000Z</time>
      </trkpt>
      <trkpt lat="43.66018" lon="3.86784">
        <ele>52.62200064</ele>
        <time>2020-06-06T12:22:43.000Z</time>
      </trkpt>
      <trkpt lat="43.66018" lon="3.86787">
        <ele>52.82200064</ele>
        <time>2020-06-06T12:22:44.000Z</time>
      </trkpt>
      <trkpt lat="43.66018" lon="3.86792">
        <ele>53.22200064</ele>
        <time>2020-06-06T12:22:46.000Z</time>
      </trkpt>
      <trkpt lat="43.66018" lon="3.86794">
        <ele>53.42200064</ele>
        <time>2020-06-06T12:22:47.000Z</time>
      </trkpt>
      <trkpt lat="43.66018" lon="3.86797">
        <ele>53.62200064</ele>
        <time>2020-06-06T12:22:48.000Z</time>
      </trkpt>
      <trkpt lat="43.66018" lon="3.868">
        <ele>53.82200064</ele>
        <time>2020-06-06T12:22:49.000Z</time>
      </trkpt>
      <trkpt lat="43.66018" lon="3.86802">
        <ele>54.01100032</ele>
        <time>2020-06-06T12:22:50.000Z</time>
      </trkpt>
      <trkpt lat="43.66018" lon="3.86805">
        <ele>54.11100032</ele>
        <time>2020-06-06T12:22:51.000Z</time>
      </trkpt>
      <trkpt lat="43.66018" lon="3.86808">
        <ele>54.21100032</ele>
        <time>2020-06-06T12:22:52.000Z</time>
      </trkpt>
      <trkpt lat="43.66018" lon="3.86811">
        <ele>54.31100032</ele>
        <time>2020-06-06T12:22:53.000Z</time>
      </trkpt>
      <trkpt lat="43.66017" lon="3.86813">
        <ele>54.41100032</ele>
        <time>2020-06-06T12:22:54.000Z</time>
      </trkpt>
      <trkpt lat="43.66017" lon="3.86816">
        <ele>54.51100032</ele>
        <time>2020-06-06T12:22:55.000Z</time>
      </trkpt>
      <trkpt lat="43.66016" lon="3.86819">
        <ele>54.61100032</ele>
        <time>2020-06-06T12:22:56.000Z</time>
      </trkpt>
      <trkpt lat="43.66016" lon="3.86821">
        <ele>54.71100032</ele>
        <time>2020-06-06T12:22:57.000Z</time>
      </trkpt>
      <trkpt lat="43.66015" lon="3.86824">
        <ele>54.81100032</ele>
        <time>2020-06-06T12:22:58.000Z</time>
      </trkpt>
      <trkpt lat="43.66015" lon="3.86827">
        <ele>54.91100032</ele>
        <time>2020-06-06T12:22:59.000Z</time>
      </trkpt>
      <trkpt lat="43.66015" lon="3.86829">
        <ele>55.021401400778</ele>
        <time>2020-06-06T12:23:00.000Z</time>
      </trkpt>
      <trkpt lat="43.66014" lon="3.86832">
        <ele>55.215953929961</ele>
        <time>2020-06-06T12:23:01.000Z</time>
      </trkpt>
      <trkpt lat="43.66014" lon="3.86835">
        <ele>55.410506459144</ele>
        <time>2020-06-06T12:23:02.000Z</time>
      </trkpt>
      <trkpt lat="43.66014" lon="3.86837">
        <ele>55.605058988327</ele>
        <time>2020-06-06T12:23:03.000Z</time>
      </trkpt>
      <trkpt lat="43.66013" lon="3.8684">
        <ele>55.79961151751</ele>
        <time>2020-06-06T12:23:04.000Z</time>
      </trkpt>
      <trkpt lat="43.66013" lon="3.86843">
        <ele>55.994164046693</ele>
        <time>2020-06-06T12:23:05.000Z</time>
      </trkpt>
      <trkpt lat="43.66012" lon="3.86845">
        <ele>56.188716575876</ele>
        <time>2020-06-06T12:23:06.000Z</time>
      </trkpt>
      <trkpt lat="43.6601" lon="3.86847">
        <ele>56.383269105058</ele>
        <time>2020-06-06T12:23:07.000Z</time>
      </trkpt>
      <trkpt lat="43.66009" lon="3.86848">
        <ele>56.577821634241</ele>
        <time>2020-06-06T12:23:08.000Z</time>
      </trkpt>
      <trkpt lat="43.66007" lon="3.86849">
        <ele>56.772374163424</ele>
        <time>2020-06-06T12:23:09.000Z</time>
      </trkpt>
      <trkpt lat="43.66005" lon="3.8685">
        <ele>56.966926692607</ele>
        <time>2020-06-06T12:23:10.000Z</time>
      </trkpt>
      <trkpt lat="43.66003" lon="3.86852">
        <ele>57.085128505394</ele>
        <time>2020-06-06T12:23:11.000Z</time>
      </trkpt>
      <trkpt lat="43.66001" lon="3.86855">
        <ele>57.3928207121</ele>
        <time>2020-06-06T12:23:14.000Z</time>
      </trkpt>
      <trkpt lat="43.66" lon="3.86858">
        <ele>57.495384781002</ele>
        <time>2020-06-06T12:23:15.000Z</time>
      </trkpt>
      <trkpt lat="43.65998" lon="3.8686">
        <ele>57.597948849904</ele>
        <time>2020-06-06T12:23:16.000Z</time>
      </trkpt>
      <trkpt lat="43.65997" lon="3.86864">
        <ele>57.700512918806</ele>
        <time>2020-06-06T12:23:17.000Z</time>
      </trkpt>
      <trkpt lat="43.65995" lon="3.86867">
        <ele>57.803076987708</ele>
        <time>2020-06-06T12:23:18.000Z</time>
      </trkpt>
      <trkpt lat="43.65994" lon="3.8687">
        <ele>57.90564105661</ele>
        <time>2020-06-06T12:23:19.000Z</time>
      </trkpt>
      <trkpt lat="43.65991" lon="3.86872">
        <ele>58.008024074792</ele>
        <time>2020-06-06T12:23:20.000Z</time>
      </trkpt>
      <trkpt lat="43.65989" lon="3.86875">
        <ele>58.108325009693</ele>
        <time>2020-06-06T12:23:21.000Z</time>
      </trkpt>
      <trkpt lat="43.65987" lon="3.86878">
        <ele>58.208625944594</ele>
        <time>2020-06-06T12:23:22.000Z</time>
      </trkpt>
      <trkpt lat="43.65984" lon="3.8688">
        <ele>58.308926879495</ele>
        <time>2020-06-06T12:23:23.000Z</time>
      </trkpt>
      <trkpt lat="43.65982" lon="3.86883">
        <ele>58.409227814396</ele>
        <time>2020-06-06T12:23:24.000Z</time>
      </trkpt>
      <trkpt lat="43.65981" lon="3.86886">
        <ele>58.509528749297</ele>
        <time>2020-06-06T12:23:25.000Z</time>
      </trkpt>
      <trkpt lat="43.6598" lon="3.8689">
        <ele>58.609829684198</ele>
        <time>2020-06-06T12:23:26.000Z</time>
      </trkpt>
      <trkpt lat="43.65979" lon="3.86893">
        <ele>58.710130619099</ele>
        <time>2020-06-06T12:23:27.000Z</time>
      </trkpt>
      <trkpt lat="43.65979" lon="3.86897">
        <ele>58.810431554</ele>
        <time>2020-06-06T12:23:28.000Z</time>
      </trkpt>
      <trkpt lat="43.65979" lon="3.869">
        <ele>58.910732488901</ele>
        <time>2020-06-06T12:23:29.000Z</time>
      </trkpt>
      <trkpt lat="43.65979" lon="3.86904">
        <ele>59.02200064</ele>
        <time>2020-06-06T12:23:30.000Z</time>
      </trkpt>
      <trkpt lat="43.65978" lon="3.86907">
        <ele>59.22200064</ele>
        <time>2020-06-06T12:23:31.000Z</time>
      </trkpt>
      <trkpt lat="43.65978" lon="3.8691">
        <ele>59.42200064</ele>
        <time>2020-06-06T12:23:32.000Z</time>
      </trkpt>
      <trkpt lat="43.65977" lon="3.86913">
        <ele>59.62200064</ele>
        <time>2020-06-06T12:23:33.000Z</time>
      </trkpt>
      <trkpt lat="43.65977" lon="3.86916">
        <ele>59.82200064</ele>
        <time>2020-06-06T12:23:34.000Z</time>
      </trkpt>
      <trkpt lat="43.65976" lon="3.86918">
        <ele>60.02200064</ele>
        <time>2020-06-06T12:23:35.000Z</time>
      </trkpt>
      <trkpt lat="43.65977" lon="3.86923">
        <ele>60.42200064</ele>
        <time>2020-06-06T12:23:37.000Z</time>
      </trkpt>
      <trkpt lat="43.65978" lon="3.86926">
        <ele>60.62200064</ele>
        <time>2020-06-06T12:23:38.000Z</time>
      </trkpt>
      <trkpt lat="43.65979" lon="3.86928">
        <ele>60.82200064</ele>
        <time>2020-06-06T12:23:39.000Z</time>
      </trkpt>
      <trkpt lat="43.6598" lon="3.8693">
        <ele>61.01100032</ele>
        <time>2020-06-06T12:23:40.000Z</time>
      </trkpt>
      <trkpt lat="43.65981" lon="3.86933">
        <ele>61.11100032</ele>
        <time>2020-06-06T12:23:41.000Z</time>
      </trkpt>
      <trkpt lat="43.65982" lon="3.86935">
        <ele>61.21100032</ele>
        <time>2020-06-06T12:23:42.000Z</time>
      </trkpt>
      <trkpt lat="43.65983" lon="3.86938">
        <ele>61.31100032</ele>
        <time>2020-06-06T12:23:43.000Z</time>
      </trkpt>
      <trkpt lat="43.65984" lon="3.8694">
        <ele>61.41100032</ele>
        <time>2020-06-06T12:23:44.000Z</time>
      </trkpt>
      <trkpt lat="43.65985" lon="3.86943">
        <ele>61.51100032</ele>
        <time>2020-06-06T12:23:45.000Z</time>
      </trkpt>
      <trkpt lat="43.65987" lon="3.86946">
        <ele>61.61100032</ele>
        <time>2020-06-06T12:23:46.000Z</time>
      </trkpt>
      <trkpt lat="43.65988" lon="3.86949">
        <ele>61.71100032</ele>
        <time>2020-06-06T12:23:47.000Z</time>
      </trkpt>
      <trkpt lat="43.6599" lon="3.86951">
        <ele>61.81100032</ele>
        <time>2020-06-06T12:23:48.000Z</time>
      </trkpt>
      <trkpt lat="43.65991" lon="3.86954">
        <ele>61.91100032</ele>
        <time>2020-06-06T12:23:49.000Z</time>
      </trkpt>
      <trkpt lat="43.65993" lon="3.86957">
        <ele>62.01100032</ele>
        <time>2020-06-06T12:23:50.000Z</time>
      </trkpt>
      <trkpt lat="43.65995" lon="3.86959">
        <ele>62.11100032</ele>
        <time>2020-06-06T12:23:51.000Z</time>
      </trkpt>
      <trkpt lat="43.65996" lon="3.86962">
        <ele>62.21100032</ele>
        <time>2020-06-06T12:23:52.000Z</time>
      </trkpt>
      <trkpt lat="43.65998" lon="3.86965">
        <ele>62.31100032</ele>
        <time>2020-06-06T12:23:53.000Z</time>
      </trkpt>
      <trkpt lat="43.65999" lon="3.86967">
        <ele>62.41100032</ele>
        <time>2020-06-06T12:23:54.000Z</time>
      </trkpt>
      <trkpt lat="43.66001" lon="3.8697">
        <ele>62.51100032</ele>
        <time>2020-06-06T12:23:55.000Z</time>
      </trkpt>
      <trkpt lat="43.66002" lon="3.86972">
        <ele>62.61100032</ele>
        <time>2020-06-06T12:23:56.000Z</time>
      </trkpt>
      <trkpt lat="43.66004" lon="3.86974">
        <ele>62.71100032</ele>
        <time>2020-06-06T12:23:57.000Z</time>
      </trkpt>
      <trkpt lat="43.66005" lon="3.86977">
        <ele>62.81100032</ele>
        <time>2020-06-06T12:23:58.000Z</time>
      </trkpt>
      <trkpt lat="43.66007" lon="3.86979">
        <ele>62.91100032</ele>
        <time>2020-06-06T12:23:59.000Z</time>
      </trkpt>
      <trkpt lat="43.66009" lon="3.86982">
        <ele>63.021401400778</ele>
        <time>2020-06-06T12:24:00.000Z</time>
      </trkpt>
      <trkpt lat="43.6601" lon="3.86984">
        <ele>63.215953929961</ele>
        <time>2020-06-06T12:24:01.000Z</time>
      </trkpt>
      <trkpt lat="43.66012" lon="3.86987">
        <ele>63.410506459144</ele>
        <time>2020-06-06T12:24:02.000Z</time>
      </trkpt>
      <trkpt lat="43.66014" lon="3.86989">
        <ele>63.605058988327</ele>
        <time>2020-06-06T12:24:03.000Z</time>
      </trkpt>
      <trkpt lat="43.66015" lon="3.86992">
        <ele>63.79961151751</ele>
        <time>2020-06-06T12:24:04.000Z</time>
      </trkpt>
      <trkpt lat="43.66017" lon="3.86994">
        <ele>63.994164046693</ele>
        <time>2020-06-06T12:24:05.000Z</time>
      </trkpt>
      <trkpt lat="43.66018" lon="3.86997">
        <ele>64.188716575876</ele>
        <time>2020-06-06T12:24:06.000Z</time>
      </trkpt>
      <trkpt lat="43.6602" lon="3.86999">
        <ele>64.383269105058</ele>
        <time>2020-06-06T12:24:07.000Z</time>
      </trkpt>
      <trkpt lat="43.66021" lon="3.87002">
        <ele>64.577821634241</ele>
        <time>2020-06-06T12:24:08.000Z</time>
      </trkpt>
      <trkpt lat="43.66022" lon="3.87004">
        <ele>64.772374163424</ele>
        <time>2020-06-06T12:24:09.000Z</time>
      </trkpt>
      <trkpt lat="43.66024" lon="3.87007">
        <ele>64.966926692607</ele>
        <time>2020-06-06T12:24:10.000Z</time>
      </trkpt>
      <trkpt lat="43.66025" lon="3.87009">
        <ele>65.08539127572</ele>
        <time>2020-06-06T12:24:11.000Z</time>
      </trkpt>
      <trkpt lat="43.66027" lon="3.87011">
        <ele>65.188271934156</ele>
        <time>2020-06-06T12:24:12.000Z</time>
      </trkpt>
      <trkpt lat="43.66029" lon="3.87013">
        <ele>65.291152592593</ele>
        <time>2020-06-06T12:24:13.000Z</time>
      </trkpt>
      <trkpt lat="43.6603" lon="3.87016">
        <ele>65.394033251029</ele>
        <time>2020-06-06T12:24:14.000Z</time>
      </trkpt>
      <trkpt lat="43.66032" lon="3.87018">
        <ele>65.496913909465</ele>
        <time>2020-06-06T12:24:15.000Z</time>
      </trkpt>
      <trkpt lat="43.66033" lon="3.87021">
        <ele>65.599794567901</ele>
        <time>2020-06-06T12:24:16.000Z</time>
      </trkpt>
      <trkpt lat="43.66034" lon="3.87023">
        <ele>65.702675226337</ele>
        <time>2020-06-06T12:24:17.000Z</time>
      </trkpt>
      <trkpt lat="43.66036" lon="3.87026">
        <ele>65.805555884774</ele>
        <time>2020-06-06T12:24:18.000Z</time>
      </trkpt>
      <trkpt lat="43.66037" lon="3.87029">
        <ele>65.90843654321</ele>
        <time>2020-06-06T12:24:19.000Z</time>
      </trkpt>
      <trkpt lat="43.66038" lon="3.87032">
        <ele>66.01098932013</ele>
        <time>2020-06-06T12:24:20.000Z</time>
      </trkpt>
      <trkpt lat="43.66039" lon="3.87035">
        <ele>66.110889324222</ele>
        <time>2020-06-06T12:24:21.000Z</time>
      </trkpt>
      <trkpt lat="43.6604" lon="3.87038">
        <ele>66.210789328314</ele>
        <time>2020-06-06T12:24:22.000Z</time>
      </trkpt>
      <trkpt lat="43.66042" lon="3.87041">
        <ele>66.310689332406</ele>
        <time>2020-06-06T12:24:23.000Z</time>
      </trkpt>
      <trkpt lat="43.66043" lon="3.87043">
        <ele>66.410589336498</ele>
        <time>2020-06-06T12:24:24.000Z</time>
      </trkpt>
      <trkpt lat="43.66044" lon="3.87046">
        <ele>66.51048934059</ele>
        <time>2020-06-06T12:24:25.000Z</time>
      </trkpt>
      <trkpt lat="43.66045" lon="3.87049">
        <ele>66.610389344682</ele>
        <time>2020-06-06T12:24:26.000Z</time>
      </trkpt>
      <trkpt lat="43.66046" lon="3.87052">
        <ele>66.710289348774</ele>
        <time>2020-06-06T12:24:27.000Z</time>
      </trkpt>
      <trkpt lat="43.66047" lon="3.87054">
        <ele>66.810189352865</ele>
        <time>2020-06-06T12:24:28.000Z</time>
      </trkpt>
      <trkpt lat="43.66048" lon="3.87057">
        <ele>66.910089356957</ele>
        <time>2020-06-06T12:24:29.000Z</time>
      </trkpt>
      <trkpt lat="43.6605" lon="3.8706">
        <ele>67.020018757976</ele>
        <time>2020-06-06T12:24:30.000Z</time>
      </trkpt>
      <trkpt lat="43.66051" lon="3.87062">
        <ele>67.220219150561</ele>
        <time>2020-06-06T12:24:31.000Z</time>
      </trkpt>
      <trkpt lat="43.66053" lon="3.87064">
        <ele>67.420419543146</ele>
        <time>2020-06-06T12:24:32.000Z</time>
      </trkpt>
      <trkpt lat="43.66055" lon="3.87067">
        <ele>67.620619935731</ele>
        <time>2020-06-06T12:24:33.000Z</time>
      </trkpt>
      <trkpt lat="43.66056" lon="3.87069">
        <ele>67.820820328316</ele>
        <time>2020-06-06T12:24:34.000Z</time>
      </trkpt>
      <trkpt lat="43.66058" lon="3.87071">
        <ele>68.021020720901</ele>
        <time>2020-06-06T12:24:35.000Z</time>
      </trkpt>
      <trkpt lat="43.66059" lon="3.87074">
        <ele>68.221221113486</ele>
        <time>2020-06-06T12:24:36.000Z</time>
      </trkpt>
      <trkpt lat="43.66061" lon="3.87076">
        <ele>68.421421506071</ele>
        <time>2020-06-06T12:24:37.000Z</time>
      </trkpt>
      <trkpt lat="43.66063" lon="3.87078">
        <ele>68.621621898656</ele>
        <time>2020-06-06T12:24:38.000Z</time>
      </trkpt>
      <trkpt lat="43.66064" lon="3.8708">
        <ele>68.821822291241</ele>
        <time>2020-06-06T12:24:39.000Z</time>
      </trkpt>
      <trkpt lat="43.66066" lon="3.87082">
        <ele>69.02200064</ele>
        <time>2020-06-06T12:24:40.000Z</time>
      </trkpt>
      <trkpt lat="43.66068" lon="3.87084">
        <ele>69.22200064</ele>
        <time>2020-06-06T12:24:41.000Z</time>
      </trkpt>
      <trkpt lat="43.6607" lon="3.87086">
        <ele>69.42200064</ele>
        <time>2020-06-06T12:24:42.000Z</time>
      </trkpt>
      <trkpt lat="43.66071" lon="3.87089">
        <ele>69.62200064</ele>
        <time>2020-06-06T12:24:43.000Z</time>
      </trkpt>
      <trkpt lat="43.66074" lon="3.87091">
        <ele>69.82200064</ele>
        <time>2020-06-06T12:24:44.000Z</time>
      </trkpt>
      <trkpt lat="43.66076" lon="3.87093">
        <ele>70.02200064</ele>
        <time>2020-06-06T12:24:45.000Z</time>
      </trkpt>
      <trkpt lat="43.66078" lon="3.87095">
        <ele>70.22200064</ele>
        <time>2020-06-06T12:24:46.000Z</time>
      </trkpt>
      <trkpt lat="43.66079" lon="3.87097">
        <ele>70.42200064</ele>
        <time>2020-06-06T12:24:47.000Z</time>
      </trkpt>
      <trkpt lat="43.66081" lon="3.87099">
        <ele>70.62200064</ele>
        <time>2020-06-06T12:24:48.000Z</time>
      </trkpt>
      <trkpt lat="43.66083" lon="3.87101">
        <ele>70.82200064</ele>
        <time>2020-06-06T12:24:49.000Z</time>
      </trkpt>
      <trkpt lat="43.66085" lon="3.87103">
        <ele>71.01100032</ele>
        <time>2020-06-06T12:24:50.000Z</time>
      </trkpt>
      <trkpt lat="43.66086" lon="3.87105">
        <ele>71.11100032</ele>
        <time>2020-06-06T12:24:51.000Z</time>
      </trkpt>
      <trkpt lat="43.66088" lon="3.87108">
        <ele>71.21100032</ele>
        <time>2020-06-06T12:24:52.000Z</time>
      </trkpt>
      <trkpt lat="43.6609" lon="3.8711">
        <ele>71.31100032</ele>
        <time>2020-06-06T12:24:53.000Z</time>
      </trkpt>
      <trkpt lat="43.66091" lon="3.87113">
        <ele>71.41100032</ele>
        <time>2020-06-06T12:24:54.000Z</time>
      </trkpt>
      <trkpt lat="43.66093" lon="3.87115">
        <ele>71.51100032</ele>
        <time>2020-06-06T12:24:55.000Z</time>
      </trkpt>
      <trkpt lat="43.66095" lon="3.87117">
        <ele>71.61100032</ele>
        <time>2020-06-06T12:24:56.000Z</time>
      </trkpt>
      <trkpt lat="43.66097" lon="3.87118">
        <ele>71.71100032</ele>
        <time>2020-06-06T12:24:57.000Z</time>
      </trkpt>
      <trkpt lat="43.66099" lon="3.87121">
        <ele>71.91100032</ele>
        <time>2020-06-06T12:24:59.000Z</time>
      </trkpt>
      <trkpt lat="43.66101" lon="3.87126">
        <ele>72.11100032</ele>
        <time>2020-06-06T12:25:01.000Z</time>
      </trkpt>
      <trkpt lat="43.66103" lon="3.87128">
        <ele>72.21100032</ele>
        <time>2020-06-06T12:25:02.000Z</time>
      </trkpt>
      <trkpt lat="43.66104" lon="3.87131">
        <ele>72.31100032</ele>
        <time>2020-06-06T12:25:03.000Z</time>
      </trkpt>
      <trkpt lat="43.66107" lon="3.87134">
        <ele>72.41100032</ele>
        <time>2020-06-06T12:25:04.000Z</time>
      </trkpt>
      <trkpt lat="43.66109" lon="3.87137">
        <ele>72.51100032</ele>
        <time>2020-06-06T12:25:05.000Z</time>
      </trkpt>
      <trkpt lat="43.66112" lon="3.87139">
        <ele>72.61100032</ele>
        <time>2020-06-06T12:25:06.000Z</time>
      </trkpt>
      <trkpt lat="43.66114" lon="3.87142">
        <ele>72.71100032</ele>
        <time>2020-06-06T12:25:07.000Z</time>
      </trkpt>
      <trkpt lat="43.66116" lon="3.87144">
        <ele>72.81100032</ele>
        <time>2020-06-06T12:25:08.000Z</time>
      </trkpt>
      <trkpt lat="43.66118" lon="3.87147">
        <ele>72.91100032</ele>
        <time>2020-06-06T12:25:09.000Z</time>
      </trkpt>
      <trkpt lat="43.6612" lon="3.8715">
        <ele>73</ele>
        <time>2020-06-06T12:25:10.000Z</time>
      </trkpt>
      <trkpt lat="43.66122" lon="3.87152">
        <ele>73</ele>
        <time>2020-06-06T12:25:11.000Z</time>
      </trkpt>
      <trkpt lat="43.66124" lon="3.87155">
        <ele>73</ele>
        <time>2020-06-06T12:25:12.000Z</time>
      </trkpt>
      <trkpt lat="43.66127" lon="3.87157">
        <ele>73</ele>
        <time>2020-06-06T12:25:13.000Z</time>
      </trkpt>
      <trkpt lat="43.66129" lon="3.87159">
        <ele>73</ele>
        <time>2020-06-06T12:25:14.000Z</time>
      </trkpt>
      <trkpt lat="43.66131" lon="3.87162">
        <ele>73</ele>
        <time>2020-06-06T12:25:15.000Z</time>
      </trkpt>
      <trkpt lat="43.66133" lon="3.87165">
        <ele>73</ele>
        <time>2020-06-06T12:25:16.000Z</time>
      </trkpt>
      <trkpt lat="43.66136" lon="3.87168">
        <ele>73</ele>
        <time>2020-06-06T12:25:17.000Z</time>
      </trkpt>
      <trkpt lat="43.66139" lon="3.8717">
        <ele>73</ele>
        <time>2020-06-06T12:25:18.000Z</time>
      </trkpt>
      <trkpt lat="43.66141" lon="3.87173">
        <ele>73</ele>
        <time>2020-06-06T12:25:19.000Z</time>
      </trkpt>
      <trkpt lat="43.66144" lon="3.87175">
        <ele>72.98899968</ele>
        <time>2020-06-06T12:25:20.000Z</time>
      </trkpt>
      <trkpt lat="43.66147" lon="3.87178">
        <ele>72.88899968</ele>
        <time>2020-06-06T12:25:21.000Z</time>
      </trkpt>
      <trkpt lat="43.66149" lon="3.87181">
        <ele>72.78899968</ele>
        <time>2020-06-06T12:25:22.000Z</time>
      </trkpt>
      <trkpt lat="43.66152" lon="3.87184">
        <ele>72.68899968</ele>
        <time>2020-06-06T12:25:23.000Z</time>
      </trkpt>
      <trkpt lat="43.66155" lon="3.87189">
        <ele>72.58899968</ele>
        <time>2020-06-06T12:25:24.000Z</time>
      </trkpt>
      <trkpt lat="43.66157" lon="3.87194">
        <ele>72.48899968</ele>
        <time>2020-06-06T12:25:25.000Z</time>
      </trkpt>
      <trkpt lat="43.6616" lon="3.87199">
        <ele>72.38899968</ele>
        <time>2020-06-06T12:25:26.000Z</time>
      </trkpt>
      <trkpt lat="43.66164" lon="3.87204">
        <ele>72.28899968</ele>
        <time>2020-06-06T12:25:27.000Z</time>
      </trkpt>
      <trkpt lat="43.66168" lon="3.8721">
        <ele>72.18899968</ele>
        <time>2020-06-06T12:25:28.000Z</time>
      </trkpt>
      <trkpt lat="43.66173" lon="3.87216">
        <ele>72.08899968</ele>
        <time>2020-06-06T12:25:29.000Z</time>
      </trkpt>
      <trkpt lat="43.66178" lon="3.87222">
        <ele>71.968837629813</ele>
        <time>2020-06-06T12:25:30.000Z</time>
      </trkpt>
      <trkpt lat="43.66185" lon="3.87226">
        <ele>71.685551596434</ele>
        <time>2020-06-06T12:25:31.000Z</time>
      </trkpt>
      <trkpt lat="43.66192" lon="3.8723">
        <ele>71.402265563055</ele>
        <time>2020-06-06T12:25:32.000Z</time>
      </trkpt>
      <trkpt lat="43.662" lon="3.87234">
        <ele>71.118979529676</ele>
        <time>2020-06-06T12:25:33.000Z</time>
      </trkpt>
      <trkpt lat="43.66208" lon="3.87238">
        <ele>70.835693496297</ele>
        <time>2020-06-06T12:25:34.000Z</time>
      </trkpt>
      <trkpt lat="43.66215" lon="3.87243">
        <ele>70.552407462918</ele>
        <time>2020-06-06T12:25:35.000Z</time>
      </trkpt>
      <trkpt lat="43.66223" lon="3.87248">
        <ele>70.269121429538</ele>
        <time>2020-06-06T12:25:36.000Z</time>
      </trkpt>
      <trkpt lat="43.6623" lon="3.87253">
        <ele>69.985835396159</ele>
        <time>2020-06-06T12:25:37.000Z</time>
      </trkpt>
      <trkpt lat="43.66237" lon="3.87259">
        <ele>69.70254936278</ele>
        <time>2020-06-06T12:25:38.000Z</time>
      </trkpt>
      <trkpt lat="43.66243" lon="3.87266">
        <ele>69.419263329401</ele>
        <time>2020-06-06T12:25:39.000Z</time>
      </trkpt>
      <trkpt lat="43.66249" lon="3.87273">
        <ele>69.135977296022</ele>
        <time>2020-06-06T12:25:40.000Z</time>
      </trkpt>
      <trkpt lat="43.66254" lon="3.87281">
        <ele>69</ele>
        <time>2020-06-06T12:25:41.000Z</time>
      </trkpt>
      <trkpt lat="43.66258" lon="3.87289">
        <ele>69</ele>
        <time>2020-06-06T12:25:42.000Z</time>
      </trkpt>
      <trkpt lat="43.66261" lon="3.87295">
        <ele>69</ele>
        <time>2020-06-06T12:25:43.000Z</time>
      </trkpt>
      <trkpt lat="43.66264" lon="3.873">
        <ele>69</ele>
        <time>2020-06-06T12:25:44.000Z</time>
      </trkpt>
      <trkpt lat="43.66266" lon="3.87303">
        <ele>69</ele>
        <time>2020-06-06T12:25:45.000Z</time>
      </trkpt>
      <trkpt lat="43.66268" lon="3.87307">
        <ele>69</ele>
        <time>2020-06-06T12:25:46.000Z</time>
      </trkpt>
      <trkpt lat="43.6627" lon="3.8731">
        <ele>69</ele>
        <time>2020-06-06T12:25:47.000Z</time>
      </trkpt>
      <trkpt lat="43.66272" lon="3.87313">
        <ele>69</ele>
        <time>2020-06-06T12:25:48.000Z</time>
      </trkpt>
      <trkpt lat="43.66273" lon="3.87317">
        <ele>69</ele>
        <time>2020-06-06T12:25:49.000Z</time>
      </trkpt>
      <trkpt lat="43.66275" lon="3.8732">
        <ele>69.02200064</ele>
        <time>2020-06-06T12:25:50.000Z</time>
      </trkpt>
      <trkpt lat="43.66276" lon="3.87324">
        <ele>69.22200064</ele>
        <time>2020-06-06T12:25:51.000Z</time>
      </trkpt>
      <trkpt lat="43.66276" lon="3.87327">
        <ele>69.42200064</ele>
        <time>2020-06-06T12:25:52.000Z</time>
      </trkpt>
      <trkpt lat="43.66278" lon="3.87329">
        <ele>69.62200064</ele>
        <time>2020-06-06T12:25:53.000Z</time>
      </trkpt>
      <trkpt lat="43.66279" lon="3.87332">
        <ele>69.82200064</ele>
        <time>2020-06-06T12:25:54.000Z</time>
      </trkpt>
      <trkpt lat="43.6628" lon="3.87334">
        <ele>70.02200064</ele>
        <time>2020-06-06T12:25:55.000Z</time>
      </trkpt>
      <trkpt lat="43.66281" lon="3.87337">
        <ele>70.22200064</ele>
        <time>2020-06-06T12:25:56.000Z</time>
      </trkpt>
      <trkpt lat="43.66281" lon="3.8734">
        <ele>70.42200064</ele>
        <time>2020-06-06T12:25:57.000Z</time>
      </trkpt>
      <trkpt lat="43.66282" lon="3.87343">
        <ele>70.62200064</ele>
        <time>2020-06-06T12:25:58.000Z</time>
      </trkpt>
      <trkpt lat="43.66282" lon="3.87346">
        <ele>70.82200064</ele>
        <time>2020-06-06T12:25:59.000Z</time>
      </trkpt>
      <trkpt lat="43.66282" lon="3.87348">
        <ele>71.02200064</ele>
        <time>2020-06-06T12:26:00.000Z</time>
      </trkpt>
      <trkpt lat="43.66283" lon="3.87351">
        <ele>71.22200064</ele>
        <time>2020-06-06T12:26:01.000Z</time>
      </trkpt>
      <trkpt lat="43.66283" lon="3.87354">
        <ele>71.42200064</ele>
        <time>2020-06-06T12:26:02.000Z</time>
      </trkpt>
      <trkpt lat="43.66284" lon="3.87356">
        <ele>71.62200064</ele>
        <time>2020-06-06T12:26:03.000Z</time>
      </trkpt>
      <trkpt lat="43.66285" lon="3.87359">
        <ele>71.82200064</ele>
        <time>2020-06-06T12:26:04.000Z</time>
      </trkpt>
      <trkpt lat="43.66287" lon="3.87361">
        <ele>72.02200064</ele>
        <time>2020-06-06T12:26:05.000Z</time>
      </trkpt>
      <trkpt lat="43.66288" lon="3.87363">
        <ele>72.22200064</ele>
        <time>2020-06-06T12:26:06.000Z</time>
      </trkpt>
      <trkpt lat="43.66289" lon="3.87365">
        <ele>72.42200064</ele>
        <time>2020-06-06T12:26:07.000Z</time>
      </trkpt>
      <trkpt lat="43.66291" lon="3.87367">
        <ele>72.62200064</ele>
        <time>2020-06-06T12:26:08.000Z</time>
      </trkpt>
      <trkpt lat="43.66292" lon="3.87369">
        <ele>72.82200064</ele>
        <time>2020-06-06T12:26:09.000Z</time>
      </trkpt>
      <trkpt lat="43.66293" lon="3.87371">
        <ele>73.010700700389</ele>
        <time>2020-06-06T12:26:10.000Z</time>
      </trkpt>
      <trkpt lat="43.66295" lon="3.87372">
        <ele>73.107976964981</ele>
        <time>2020-06-06T12:26:11.000Z</time>
      </trkpt>
      <trkpt lat="43.66297" lon="3.87375">
        <ele>73.302529494163</ele>
        <time>2020-06-06T12:26:13.000Z</time>
      </trkpt>
      <trkpt lat="43.663" lon="3.87378">
        <ele>73.497082023346</ele>
        <time>2020-06-06T12:26:15.000Z</time>
      </trkpt>
      <trkpt lat="43.66302" lon="3.87381">
        <ele>73.691634552529</ele>
        <time>2020-06-06T12:26:17.000Z</time>
      </trkpt>
      <trkpt lat="43.66305" lon="3.87384">
        <ele>73.886187081712</ele>
        <time>2020-06-06T12:26:19.000Z</time>
      </trkpt>
      <trkpt lat="43.66306" lon="3.87386">
        <ele>73.983463346303</ele>
        <time>2020-06-06T12:26:20.000Z</time>
      </trkpt>
      <trkpt lat="43.66308" lon="3.87388">
        <ele>74.188271934156</ele>
        <time>2020-06-06T12:26:22.000Z</time>
      </trkpt>
      <trkpt lat="43.6631" lon="3.87391">
        <ele>74.394033251029</ele>
        <time>2020-06-06T12:26:24.000Z</time>
      </trkpt>
      <trkpt lat="43.66312" lon="3.87394">
        <ele>74.599794567901</ele>
        <time>2020-06-06T12:26:26.000Z</time>
      </trkpt>
      <trkpt lat="43.66314" lon="3.87398">
        <ele>74.805555884774</ele>
        <time>2020-06-06T12:26:28.000Z</time>
      </trkpt>
      <trkpt lat="43.66316" lon="3.874">
        <ele>75.01100032</ele>
        <time>2020-06-06T12:26:30.000Z</time>
      </trkpt>
      <trkpt lat="43.66318" lon="3.87403">
        <ele>75.21100032</ele>
        <time>2020-06-06T12:26:32.000Z</time>
      </trkpt>
      <trkpt lat="43.6632" lon="3.87407">
        <ele>75.41100032</ele>
        <time>2020-06-06T12:26:34.000Z</time>
      </trkpt>
      <trkpt lat="43.66322" lon="3.87409">
        <ele>75.61100032</ele>
        <time>2020-06-06T12:26:36.000Z</time>
      </trkpt>
      <trkpt lat="43.66324" lon="3.87412">
        <ele>75.81100032</ele>
        <time>2020-06-06T12:26:38.000Z</time>
      </trkpt>
      <trkpt lat="43.66326" lon="3.87415">
        <ele>76.01100032</ele>
        <time>2020-06-06T12:26:40.000Z</time>
      </trkpt>
      <trkpt lat="43.66329" lon="3.87417">
        <ele>76.21100032</ele>
        <time>2020-06-06T12:26:42.000Z</time>
      </trkpt>
      <trkpt lat="43.66331" lon="3.87421">
        <ele>76.41100032</ele>
        <time>2020-06-06T12:26:44.000Z</time>
      </trkpt>
      <trkpt lat="43.66333" lon="3.87423">
        <ele>76.61100032</ele>
        <time>2020-06-06T12:26:46.000Z</time>
      </trkpt>
      <trkpt lat="43.66335" lon="3.87426">
        <ele>76.81100032</ele>
        <time>2020-06-06T12:26:48.000Z</time>
      </trkpt>
      <trkpt lat="43.66337" lon="3.87429">
        <ele>77.01100032</ele>
        <time>2020-06-06T12:26:50.000Z</time>
      </trkpt>
      <trkpt lat="43.6634" lon="3.87432">
        <ele>77.21100032</ele>
        <time>2020-06-06T12:26:52.000Z</time>
      </trkpt>
      <trkpt lat="43.66342" lon="3.87435">
        <ele>77.41100032</ele>
        <time>2020-06-06T12:26:54.000Z</time>
      </trkpt>
      <trkpt lat="43.66343" lon="3.87438">
        <ele>77.61100032</ele>
        <time>2020-06-06T12:26:56.000Z</time>
      </trkpt>
      <trkpt lat="43.66345" lon="3.8744">
        <ele>77.81100032</ele>
        <time>2020-06-06T12:26:58.000Z</time>
      </trkpt>
      <trkpt lat="43.66347" lon="3.87443">
        <ele>78.02197864026</ele>
        <time>2020-06-06T12:27:00.000Z</time>
      </trkpt>
      <trkpt lat="43.66349" lon="3.87446">
        <ele>78.421578656628</ele>
        <time>2020-06-06T12:27:02.000Z</time>
      </trkpt>
      <trkpt lat="43.66351" lon="3.87448">
        <ele>78.821178672996</ele>
        <time>2020-06-06T12:27:04.000Z</time>
      </trkpt>
      <trkpt lat="43.66353" lon="3.87451">
        <ele>79.220778689363</ele>
        <time>2020-06-06T12:27:06.000Z</time>
      </trkpt>
      <trkpt lat="43.66355" lon="3.87454">
        <ele>79.620378705731</ele>
        <time>2020-06-06T12:27:08.000Z</time>
      </trkpt>
      <trkpt lat="43.66357" lon="3.87457">
        <ele>80.020018757976</ele>
        <time>2020-06-06T12:27:10.000Z</time>
      </trkpt>
      <trkpt lat="43.66359" lon="3.8746">
        <ele>80.420419543146</ele>
        <time>2020-06-06T12:27:12.000Z</time>
      </trkpt>
      <trkpt lat="43.66362" lon="3.87463">
        <ele>80.820820328316</ele>
        <time>2020-06-06T12:27:14.000Z</time>
      </trkpt>
      <trkpt lat="43.66363" lon="3.87466">
        <ele>81.221221113486</ele>
        <time>2020-06-06T12:27:16.000Z</time>
      </trkpt>
      <trkpt lat="43.66365" lon="3.87469">
        <ele>81.621621898656</ele>
        <time>2020-06-06T12:27:18.000Z</time>
      </trkpt>
      <trkpt lat="43.66367" lon="3.87472">
        <ele>82.01100032</ele>
        <time>2020-06-06T12:27:20.000Z</time>
      </trkpt>
      <trkpt lat="43.66369" lon="3.87475">
        <ele>82.21100032</ele>
        <time>2020-06-06T12:27:22.000Z</time>
      </trkpt>
      <trkpt lat="43.66371" lon="3.87478">
        <ele>82.41100032</ele>
        <time>2020-06-06T12:27:24.000Z</time>
      </trkpt>
      <trkpt lat="43.66373" lon="3.87482">
        <ele>82.61100032</ele>
        <time>2020-06-06T12:27:26.000Z</time>
      </trkpt>
      <trkpt lat="43.66375" lon="3.87485">
        <ele>82.81100032</ele>
        <time>2020-06-06T12:27:28.000Z</time>
      </trkpt>
      <trkpt lat="43.66377" lon="3.87488">
        <ele>83.01100032</ele>
        <time>2020-06-06T12:27:30.000Z</time>
      </trkpt>
      <trkpt lat="43.66378" lon="3.87491">
        <ele>83.21100032</ele>
        <time>2020-06-06T12:27:32.000Z</time>
      </trkpt>
      <trkpt lat="43.66379" lon="3.87494">
        <ele>83.41100032</ele>
        <time>2020-06-06T12:27:34.000Z</time>
      </trkpt>
      <trkpt lat="43.66381" lon="3.87498">
        <ele>83.61100032</ele>
        <time>2020-06-06T12:27:36.000Z</time>
      </trkpt>
      <trkpt lat="43.66383" lon="3.87502">
        <ele>83.81100032</ele>
        <time>2020-06-06T12:27:38.000Z</time>
      </trkpt>
      <trkpt lat="43.66384" lon="3.87505">
        <ele>84.02200064</ele>
        <time>2020-06-06T12:27:40.000Z</time>
      </trkpt>
      <trkpt lat="43.66386" lon="3.87508">
        <ele>84.42200064</ele>
        <time>2020-06-06T12:27:42.000Z</time>
      </trkpt>
      <trkpt lat="43.66388" lon="3.87512">
        <ele>84.82200064</ele>
        <time>2020-06-06T12:27:44.000Z</time>
      </trkpt>
      <trkpt lat="43.6639" lon="3.87515">
        <ele>85.22200064</ele>
        <time>2020-06-06T12:27:46.000Z</time>
      </trkpt>
      <trkpt lat="43.66392" lon="3.87518">
        <ele>85.62200064</ele>
        <time>2020-06-06T12:27:48.000Z</time>
      </trkpt>
      <trkpt lat="43.66394" lon="3.87521">
        <ele>86.01100032</ele>
        <time>2020-06-06T12:27:50.000Z</time>
      </trkpt>
      <trkpt lat="43.66396" lon="3.87525">
        <ele>86.21100032</ele>
        <time>2020-06-06T12:27:52.000Z</time>
      </trkpt>
      <trkpt lat="43.66397" lon="3.87528">
        <ele>86.41100032</ele>
        <time>2020-06-06T12:27:54.000Z</time>
      </trkpt>
      <trkpt lat="43.66399" lon="3.87532">
        <ele>86.61100032</ele>
        <time>2020-06-06T12:27:56.000Z</time>
      </trkpt>
      <trkpt lat="43.66401" lon="3.87536">
        <ele>86.81100032</ele>
        <time>2020-06-06T12:27:58.000Z</time>
      </trkpt>
      <trkpt lat="43.66403" lon="3.87537">
        <ele>86.91100032</ele>
        <time>2020-06-06T12:27:59.000Z</time>
      </trkpt>
      <trkpt lat="43.66404" lon="3.87539">
        <ele>87.02200064</ele>
        <time>2020-06-06T12:28:00.000Z</time>
      </trkpt>
      <trkpt lat="43.66405" lon="3.87541">
        <ele>87.22200064</ele>
        <time>2020-06-06T12:28:01.000Z</time>
      </trkpt>
      <trkpt lat="43.66407" lon="3.87545">
        <ele>87.62200064</ele>
        <time>2020-06-06T12:28:03.000Z</time>
      </trkpt>
      <trkpt lat="43.66409" lon="3.87549">
        <ele>88.02200064</ele>
        <time>2020-06-06T12:28:05.000Z</time>
      </trkpt>
      <trkpt lat="43.66412" lon="3.87552">
        <ele>88.42200064</ele>
        <time>2020-06-06T12:28:07.000Z</time>
      </trkpt>
      <trkpt lat="43.66414" lon="3.87556">
        <ele>88.82200064</ele>
        <time>2020-06-06T12:28:09.000Z</time>
      </trkpt>
      <trkpt lat="43.66417" lon="3.87559">
        <ele>89.11100032</ele>
        <time>2020-06-06T12:28:11.000Z</time>
      </trkpt>
      <trkpt lat="43.66418" lon="3.87561">
        <ele>89.21100032</ele>
        <time>2020-06-06T12:28:12.000Z</time>
      </trkpt>
      <trkpt lat="43.66419" lon="3.87563">
        <ele>89.31100032</ele>
        <time>2020-06-06T12:28:13.000Z</time>
      </trkpt>
      <trkpt lat="43.66421" lon="3.87565">
        <ele>89.41100032</ele>
        <time>2020-06-06T12:28:14.000Z</time>
      </trkpt>
      <trkpt lat="43.66422" lon="3.87567">
        <ele>89.51100032</ele>
        <time>2020-06-06T12:28:15.000Z</time>
      </trkpt>
      <trkpt lat="43.66424" lon="3.87569">
        <ele>89.61100032</ele>
        <time>2020-06-06T12:28:16.000Z</time>
      </trkpt>
      <trkpt lat="43.66425" lon="3.87571">
        <ele>89.71100032</ele>
        <time>2020-06-06T12:28:17.000Z</time>
      </trkpt>
      <trkpt lat="43.66427" lon="3.87573">
        <ele>89.81100032</ele>
        <time>2020-06-06T12:28:18.000Z</time>
      </trkpt>
      <trkpt lat="43.66428" lon="3.87575">
        <ele>89.91100032</ele>
        <time>2020-06-06T12:28:19.000Z</time>
      </trkpt>
      <trkpt lat="43.6643" lon="3.87577">
        <ele>90.01100032</ele>
        <time>2020-06-06T12:28:20.000Z</time>
      </trkpt>
      <trkpt lat="43.66432" lon="3.87579">
        <ele>90.11100032</ele>
        <time>2020-06-06T12:28:21.000Z</time>
      </trkpt>
      <trkpt lat="43.66433" lon="3.87581">
        <ele>90.21100032</ele>
        <time>2020-06-06T12:28:22.000Z</time>
      </trkpt>
      <trkpt lat="43.66435" lon="3.87582">
        <ele>90.31100032</ele>
        <time>2020-06-06T12:28:23.000Z</time>
      </trkpt>
      <trkpt lat="43.66437" lon="3.87584">
        <ele>90.41100032</ele>
        <time>2020-06-06T12:28:24.000Z</time>
      </trkpt>
      <trkpt lat="43.66438" lon="3.87586">
        <ele>90.51100032</ele>
        <time>2020-06-06T12:28:25.000Z</time>
      </trkpt>
      <trkpt lat="43.6644" lon="3.87588">
        <ele>90.61100032</ele>
        <time>2020-06-06T12:28:26.000Z</time>
      </trkpt>
      <trkpt lat="43.66442" lon="3.87589">
        <ele>90.71100032</ele>
        <time>2020-06-06T12:28:27.000Z</time>
      </trkpt>
      <trkpt lat="43.66444" lon="3.87591">
        <ele>90.81100032</ele>
        <time>2020-06-06T12:28:28.000Z</time>
      </trkpt>
      <trkpt lat="43.66445" lon="3.87593">
        <ele>90.91100032</ele>
        <time>2020-06-06T12:28:29.000Z</time>
      </trkpt>
      <trkpt lat="43.66447" lon="3.87595">
        <ele>91.01100032</ele>
        <time>2020-06-06T12:28:30.000Z</time>
      </trkpt>
      <trkpt lat="43.66449" lon="3.87597">
        <ele>91.11100032</ele>
        <time>2020-06-06T12:28:31.000Z</time>
      </trkpt>
      <trkpt lat="43.66451" lon="3.87599">
        <ele>91.21100032</ele>
        <time>2020-06-06T12:28:32.000Z</time>
      </trkpt>
      <trkpt lat="43.66453" lon="3.87601">
        <ele>91.31100032</ele>
        <time>2020-06-06T12:28:33.000Z</time>
      </trkpt>
      <trkpt lat="43.66455" lon="3.87603">
        <ele>91.41100032</ele>
        <time>2020-06-06T12:28:34.000Z</time>
      </trkpt>
      <trkpt lat="43.66457" lon="3.87605">
        <ele>91.51100032</ele>
        <time>2020-06-06T12:28:35.000Z</time>
      </trkpt>
      <trkpt lat="43.66459" lon="3.87607">
        <ele>91.61100032</ele>
        <time>2020-06-06T12:28:36.000Z</time>
      </trkpt>
      <trkpt lat="43.66461" lon="3.87609">
        <ele>91.71100032</ele>
        <time>2020-06-06T12:28:37.000Z</time>
      </trkpt>
      <trkpt lat="43.66463" lon="3.87611">
        <ele>91.81100032</ele>
        <time>2020-06-06T12:28:38.000Z</time>
      </trkpt>
      <trkpt lat="43.66465" lon="3.87613">
        <ele>91.91100032</ele>
        <time>2020-06-06T12:28:39.000Z</time>
      </trkpt>
      <trkpt lat="43.66467" lon="3.87616">
        <ele>92.01100032</ele>
        <time>2020-06-06T12:28:40.000Z</time>
      </trkpt>
      <trkpt lat="43.66469" lon="3.87618">
        <ele>92.11100032</ele>
        <time>2020-06-06T12:28:41.000Z</time>
      </trkpt>
      <trkpt lat="43.66471" lon="3.87621">
        <ele>92.21100032</ele>
        <time>2020-06-06T12:28:42.000Z</time>
      </trkpt>
      <trkpt lat="43.66472" lon="3.87624">
        <ele>92.31100032</ele>
        <time>2020-06-06T12:28:43.000Z</time>
      </trkpt>
      <trkpt lat="43.66475" lon="3.87627">
        <ele>92.41100032</ele>
        <time>2020-06-06T12:28:44.000Z</time>
      </trkpt>
      <trkpt lat="43.66477" lon="3.87629">
        <ele>92.51100032</ele>
        <time>2020-06-06T12:28:45.000Z</time>
      </trkpt>
      <trkpt lat="43.66479" lon="3.87633">
        <ele>92.61100032</ele>
        <time>2020-06-06T12:28:46.000Z</time>
      </trkpt>
      <trkpt lat="43.66481" lon="3.87636">
        <ele>92.71100032</ele>
        <time>2020-06-06T12:28:47.000Z</time>
      </trkpt>
      <trkpt lat="43.66484" lon="3.87639">
        <ele>92.81100032</ele>
        <time>2020-06-06T12:28:48.000Z</time>
      </trkpt>
      <trkpt lat="43.66486" lon="3.87642">
        <ele>92.91100032</ele>
        <time>2020-06-06T12:28:49.000Z</time>
      </trkpt>
      <trkpt lat="43.66489" lon="3.87645">
        <ele>93.010700700389</ele>
        <time>2020-06-06T12:28:50.000Z</time>
      </trkpt>
      <trkpt lat="43.66491" lon="3.87648">
        <ele>93.107976964981</ele>
        <time>2020-06-06T12:28:51.000Z</time>
      </trkpt>
      <trkpt lat="43.66494" lon="3.87651">
        <ele>93.205253229572</ele>
        <time>2020-06-06T12:28:52.000Z</time>
      </trkpt>
      <trkpt lat="43.66496" lon="3.87655">
        <ele>93.302529494163</ele>
        <time>2020-06-06T12:28:53.000Z</time>
      </trkpt>
      <trkpt lat="43.66499" lon="3.87658">
        <ele>93.399805758755</ele>
        <time>2020-06-06T12:28:54.000Z</time>
      </trkpt>
      <trkpt lat="43.66501" lon="3.87661">
        <ele>93.497082023346</ele>
        <time>2020-06-06T12:28:55.000Z</time>
      </trkpt>
      <trkpt lat="43.66504" lon="3.87664">
        <ele>93.594358287938</ele>
        <time>2020-06-06T12:28:56.000Z</time>
      </trkpt>
      <trkpt lat="43.66506" lon="3.87667">
        <ele>93.691634552529</ele>
        <time>2020-06-06T12:28:57.000Z</time>
      </trkpt>
      <trkpt lat="43.66509" lon="3.8767">
        <ele>93.788910817121</ele>
        <time>2020-06-06T12:28:58.000Z</time>
      </trkpt>
      <trkpt lat="43.66511" lon="3.87673">
        <ele>93.886187081712</ele>
        <time>2020-06-06T12:28:59.000Z</time>
      </trkpt>
      <trkpt lat="43.66514" lon="3.87675">
        <ele>93.983463346303</ele>
        <time>2020-06-06T12:29:00.000Z</time>
      </trkpt>
      <trkpt lat="43.66516" lon="3.87678">
        <ele>94.08539127572</ele>
        <time>2020-06-06T12:29:01.000Z</time>
      </trkpt>
      <trkpt lat="43.66518" lon="3.8768">
        <ele>94.188271934156</ele>
        <time>2020-06-06T12:29:02.000Z</time>
      </trkpt>
      <trkpt lat="43.66521" lon="3.87683">
        <ele>94.291152592593</ele>
        <time>2020-06-06T12:29:03.000Z</time>
      </trkpt>
      <trkpt lat="43.66523" lon="3.87685">
        <ele>94.394033251029</ele>
        <time>2020-06-06T12:29:04.000Z</time>
      </trkpt>
      <trkpt lat="43.66525" lon="3.87687">
        <ele>94.496913909465</ele>
        <time>2020-06-06T12:29:05.000Z</time>
      </trkpt>
      <trkpt lat="43.66527" lon="3.87688">
        <ele>94.599794567901</ele>
        <time>2020-06-06T12:29:06.000Z</time>
      </trkpt>
      <trkpt lat="43.66529" lon="3.8769">
        <ele>94.702675226337</ele>
        <time>2020-06-06T12:29:07.000Z</time>
      </trkpt>
      <trkpt lat="43.66532" lon="3.87691">
        <ele>94.805555884774</ele>
        <time>2020-06-06T12:29:08.000Z</time>
      </trkpt>
      <trkpt lat="43.66534" lon="3.87693">
        <ele>94.90843654321</ele>
        <time>2020-06-06T12:29:09.000Z</time>
      </trkpt>
      <trkpt lat="43.66536" lon="3.87694">
        <ele>95.02200064</ele>
        <time>2020-06-06T12:29:10.000Z</time>
      </trkpt>
      <trkpt lat="43.66538" lon="3.87695">
        <ele>95.22200064</ele>
        <time>2020-06-06T12:29:11.000Z</time>
      </trkpt>
      <trkpt lat="43.6654" lon="3.87696">
        <ele>95.42200064</ele>
        <time>2020-06-06T12:29:12.000Z</time>
      </trkpt>
      <trkpt lat="43.66542" lon="3.87697">
        <ele>95.62200064</ele>
        <time>2020-06-06T12:29:13.000Z</time>
      </trkpt>
      <trkpt lat="43.66544" lon="3.87697">
        <ele>95.82200064</ele>
        <time>2020-06-06T12:29:14.000Z</time>
      </trkpt>
      <trkpt lat="43.66546" lon="3.87698">
        <ele>96.02200064</ele>
        <time>2020-06-06T12:29:15.000Z</time>
      </trkpt>
      <trkpt lat="43.66548" lon="3.87698">
        <ele>96.22200064</ele>
        <time>2020-06-06T12:29:16.000Z</time>
      </trkpt>
      <trkpt lat="43.66549" lon="3.87699">
        <ele>96.42200064</ele>
        <time>2020-06-06T12:29:17.000Z</time>
      </trkpt>
      <trkpt lat="43.66553" lon="3.877">
        <ele>96.82200064</ele>
        <time>2020-06-06T12:29:19.000Z</time>
      </trkpt>
      <trkpt lat="43.66555" lon="3.87701">
        <ele>97.021934828495</ele>
        <time>2020-06-06T12:29:20.000Z</time>
      </trkpt>
      <trkpt lat="43.66558" lon="3.87702">
        <ele>97.420738290492</ele>
        <time>2020-06-06T12:29:22.000Z</time>
      </trkpt>
      <trkpt lat="43.66561" lon="3.87704">
        <ele>97.819541752489</ele>
        <time>2020-06-06T12:29:24.000Z</time>
      </trkpt>
      <trkpt lat="43.66564" lon="3.87706">
        <ele>98.218345214486</ele>
        <time>2020-06-06T12:29:26.000Z</time>
      </trkpt>
      <trkpt lat="43.66566" lon="3.87707">
        <ele>98.417746945484</ele>
        <time>2020-06-06T12:29:27.000Z</time>
      </trkpt>
      <trkpt lat="43.66568" lon="3.87708">
        <ele>98.617148676483</ele>
        <time>2020-06-06T12:29:28.000Z</time>
      </trkpt>
      <trkpt lat="43.66571" lon="3.87711">
        <ele>99.024072224376</ele>
        <time>2020-06-06T12:29:30.000Z</time>
      </trkpt>
      <trkpt lat="43.66573" lon="3.87712">
        <ele>99.324975029079</ele>
        <time>2020-06-06T12:29:31.000Z</time>
      </trkpt>
      <trkpt lat="43.66574" lon="3.87714">
        <ele>99.625877833782</ele>
        <time>2020-06-06T12:29:32.000Z</time>
      </trkpt>
      <trkpt lat="43.66577" lon="3.87716">
        <ele>100.22768344319</ele>
        <time>2020-06-06T12:29:34.000Z</time>
      </trkpt>
      <trkpt lat="43.66579" lon="3.87718">
        <ele>100.52858624789</ele>
        <time>2020-06-06T12:29:35.000Z</time>
      </trkpt>
      <trkpt lat="43.66582" lon="3.87721">
        <ele>101.1303918573</ele>
        <time>2020-06-06T12:29:37.000Z</time>
      </trkpt>
      <trkpt lat="43.66584" lon="3.87724">
        <ele>101.7321974667</ele>
        <time>2020-06-06T12:29:39.000Z</time>
      </trkpt>
      <trkpt lat="43.66586" lon="3.87727">
        <ele>102</ele>
        <time>2020-06-06T12:29:41.000Z</time>
      </trkpt>
      <trkpt lat="43.66589" lon="3.87731">
        <ele>102</ele>
        <time>2020-06-06T12:29:43.000Z</time>
      </trkpt>
      <trkpt lat="43.6659" lon="3.87734">
        <ele>102</ele>
        <time>2020-06-06T12:29:45.000Z</time>
      </trkpt>
      <trkpt lat="43.66592" lon="3.87737">
        <ele>102</ele>
        <time>2020-06-06T12:29:47.000Z</time>
      </trkpt>
      <trkpt lat="43.66595" lon="3.87741">
        <ele>102</ele>
        <time>2020-06-06T12:29:49.000Z</time>
      </trkpt>
      <trkpt lat="43.66596" lon="3.87742">
        <ele>102</ele>
        <time>2020-06-06T12:29:50.000Z</time>
      </trkpt>
      <trkpt lat="43.66596" lon="3.87746">
        <ele>102</ele>
        <time>2020-06-06T12:29:52.000Z</time>
      </trkpt>
      <trkpt lat="43.66595" lon="3.87747">
        <ele>102</ele>
        <time>2020-06-06T12:29:59.000Z</time>
      </trkpt>
      <trkpt lat="43.66596" lon="3.87755">
        <ele>102.99754761996</ele>
        <time>2020-06-06T12:30:56.000Z</time>
      </trkpt>
      <trkpt lat="43.66597" lon="3.87757">
        <ele>103</ele>
        <time>2020-06-06T12:30:57.000Z</time>
      </trkpt>
      <trkpt lat="43.66597" lon="3.8776">
        <ele>103</ele>
        <time>2020-06-06T12:30:59.000Z</time>
      </trkpt>
      <trkpt lat="43.66597" lon="3.8776">
        <ele>103</ele>
        <time>2020-06-06T12:31:03.000Z</time>
      </trkpt>
      <trkpt lat="43.66592" lon="3.87768">
        <ele>103</ele>
        <time>2020-06-06T12:31:30.000Z</time>
      </trkpt>
      <trkpt lat="43.66593" lon="3.87771">
        <ele>103.09562507813</ele>
        <time>2020-06-06T12:31:31.000Z</time>
      </trkpt>
      <trkpt lat="43.66593" lon="3.87773">
        <ele>103.19735457727</ele>
        <time>2020-06-06T12:31:32.000Z</time>
      </trkpt>
      <trkpt lat="43.66593" lon="3.87776">
        <ele>103.29908407642</ele>
        <time>2020-06-06T12:31:33.000Z</time>
      </trkpt>
      <trkpt lat="43.6659" lon="3.87779">
        <ele>103.50254307471</ele>
        <time>2020-06-06T12:31:35.000Z</time>
      </trkpt>
      <trkpt lat="43.66588" lon="3.87782">
        <ele>103.706002073</ele>
        <time>2020-06-06T12:31:37.000Z</time>
      </trkpt>
      <trkpt lat="43.66587" lon="3.87785">
        <ele>103.90946107129</ele>
        <time>2020-06-06T12:31:39.000Z</time>
      </trkpt>
      <trkpt lat="43.66588" lon="3.87789">
        <ele>104.10797696498</ele>
        <time>2020-06-06T12:31:41.000Z</time>
      </trkpt>
      <trkpt lat="43.66589" lon="3.87792">
        <ele>104.20525322957</ele>
        <time>2020-06-06T12:31:42.000Z</time>
      </trkpt>
      <trkpt lat="43.6659" lon="3.87794">
        <ele>104.30252949416</ele>
        <time>2020-06-06T12:31:43.000Z</time>
      </trkpt>
      <trkpt lat="43.66591" lon="3.87797">
        <ele>104.39980575875</ele>
        <time>2020-06-06T12:31:44.000Z</time>
      </trkpt>
      <trkpt lat="43.66592" lon="3.87799">
        <ele>104.49708202335</ele>
        <time>2020-06-06T12:31:45.000Z</time>
      </trkpt>
      <trkpt lat="43.66593" lon="3.87802">
        <ele>104.59435828794</ele>
        <time>2020-06-06T12:31:46.000Z</time>
      </trkpt>
      <trkpt lat="43.66594" lon="3.87804">
        <ele>104.69163455253</ele>
        <time>2020-06-06T12:31:47.000Z</time>
      </trkpt>
      <trkpt lat="43.66595" lon="3.87807">
        <ele>104.78891081712</ele>
        <time>2020-06-06T12:31:48.000Z</time>
      </trkpt>
      <trkpt lat="43.66596" lon="3.87809">
        <ele>104.88618708171</ele>
        <time>2020-06-06T12:31:49.000Z</time>
      </trkpt>
      <trkpt lat="43.66596" lon="3.87812">
        <ele>104.9834633463</ele>
        <time>2020-06-06T12:31:50.000Z</time>
      </trkpt>
      <trkpt lat="43.66597" lon="3.87815">
        <ele>105.08539127572</ele>
        <time>2020-06-06T12:31:51.000Z</time>
      </trkpt>
      <trkpt lat="43.66598" lon="3.87817">
        <ele>105.18827193416</ele>
        <time>2020-06-06T12:31:52.000Z</time>
      </trkpt>
      <trkpt lat="43.66599" lon="3.8782">
        <ele>105.29115259259</ele>
        <time>2020-06-06T12:31:53.000Z</time>
      </trkpt>
      <trkpt lat="43.666" lon="3.87823">
        <ele>105.39403325103</ele>
        <time>2020-06-06T12:31:54.000Z</time>
      </trkpt>
      <trkpt lat="43.666" lon="3.87826">
        <ele>105.49691390946</ele>
        <time>2020-06-06T12:31:55.000Z</time>
      </trkpt>
      <trkpt lat="43.66601" lon="3.87828">
        <ele>105.5997945679</ele>
        <time>2020-06-06T12:31:56.000Z</time>
      </trkpt>
      <trkpt lat="43.66602" lon="3.87831">
        <ele>105.70267522634</ele>
        <time>2020-06-06T12:31:57.000Z</time>
      </trkpt>
      <trkpt lat="43.66602" lon="3.87834">
        <ele>105.80555588477</ele>
        <time>2020-06-06T12:31:58.000Z</time>
      </trkpt>
      <trkpt lat="43.66603" lon="3.87837">
        <ele>105.90843654321</ele>
        <time>2020-06-06T12:31:59.000Z</time>
      </trkpt>
      <trkpt lat="43.66604" lon="3.8784">
        <ele>106.02200064</ele>
        <time>2020-06-06T12:32:00.000Z</time>
      </trkpt>
      <trkpt lat="43.66604" lon="3.87842">
        <ele>106.22200064</ele>
        <time>2020-06-06T12:32:01.000Z</time>
      </trkpt>
      <trkpt lat="43.66605" lon="3.87845">
        <ele>106.42200064</ele>
        <time>2020-06-06T12:32:02.000Z</time>
      </trkpt>
      <trkpt lat="43.66606" lon="3.87848">
        <ele>106.62200064</ele>
        <time>2020-06-06T12:32:03.000Z</time>
      </trkpt>
      <trkpt lat="43.66606" lon="3.87851">
        <ele>106.82200064</ele>
        <time>2020-06-06T12:32:04.000Z</time>
      </trkpt>
      <trkpt lat="43.66607" lon="3.87853">
        <ele>107.02200064</ele>
        <time>2020-06-06T12:32:05.000Z</time>
      </trkpt>
      <trkpt lat="43.66607" lon="3.87856">
        <ele>107.22200064</ele>
        <time>2020-06-06T12:32:06.000Z</time>
      </trkpt>
      <trkpt lat="43.66608" lon="3.87858">
        <ele>107.42200064</ele>
        <time>2020-06-06T12:32:07.000Z</time>
      </trkpt>
      <trkpt lat="43.66608" lon="3.87863">
        <ele>107.82200064</ele>
        <time>2020-06-06T12:32:09.000Z</time>
      </trkpt>
      <trkpt lat="43.66609" lon="3.87868">
        <ele>108.22200064</ele>
        <time>2020-06-06T12:32:11.000Z</time>
      </trkpt>
      <trkpt lat="43.66611" lon="3.87872">
        <ele>108.62200064</ele>
        <time>2020-06-06T12:32:13.000Z</time>
      </trkpt>
      <trkpt lat="43.66612" lon="3.87877">
        <ele>109.02200064</ele>
        <time>2020-06-06T12:32:15.000Z</time>
      </trkpt>
      <trkpt lat="43.66614" lon="3.87881">
        <ele>109.42200064</ele>
        <time>2020-06-06T12:32:17.000Z</time>
      </trkpt>
      <trkpt lat="43.66616" lon="3.87884">
        <ele>109.82200064</ele>
        <time>2020-06-06T12:32:19.000Z</time>
      </trkpt>
      <trkpt lat="43.66618" lon="3.87888">
        <ele>110.11100032</ele>
        <time>2020-06-06T12:32:21.000Z</time>
      </trkpt>
      <trkpt lat="43.6662" lon="3.87891">
        <ele>110.31100032</ele>
        <time>2020-06-06T12:32:23.000Z</time>
      </trkpt>
      <trkpt lat="43.66623" lon="3.87895">
        <ele>110.51100032</ele>
        <time>2020-06-06T12:32:25.000Z</time>
      </trkpt>
      <trkpt lat="43.66624" lon="3.87897">
        <ele>110.61100032</ele>
        <time>2020-06-06T12:32:26.000Z</time>
      </trkpt>
      <trkpt lat="43.66626" lon="3.87898">
        <ele>110.71100032</ele>
        <time>2020-06-06T12:32:27.000Z</time>
      </trkpt>
      <trkpt lat="43.66627" lon="3.879">
        <ele>110.81100032</ele>
        <time>2020-06-06T12:32:28.000Z</time>
      </trkpt>
      <trkpt lat="43.66629" lon="3.87902">
        <ele>110.91100032</ele>
        <time>2020-06-06T12:32:29.000Z</time>
      </trkpt>
      <trkpt lat="43.6663" lon="3.87904">
        <ele>111.01100032</ele>
        <time>2020-06-06T12:32:30.000Z</time>
      </trkpt>
      <trkpt lat="43.66632" lon="3.87906">
        <ele>111.11100032</ele>
        <time>2020-06-06T12:32:31.000Z</time>
      </trkpt>
      <trkpt lat="43.66634" lon="3.87908">
        <ele>111.21100032</ele>
        <time>2020-06-06T12:32:32.000Z</time>
      </trkpt>
      <trkpt lat="43.66636" lon="3.8791">
        <ele>111.31100032</ele>
        <time>2020-06-06T12:32:33.000Z</time>
      </trkpt>
      <trkpt lat="43.66638" lon="3.87912">
        <ele>111.41100032</ele>
        <time>2020-06-06T12:32:34.000Z</time>
      </trkpt>
      <trkpt lat="43.6664" lon="3.87914">
        <ele>111.51100032</ele>
        <time>2020-06-06T12:32:35.000Z</time>
      </trkpt>
      <trkpt lat="43.66642" lon="3.87916">
        <ele>111.61100032</ele>
        <time>2020-06-06T12:32:36.000Z</time>
      </trkpt>
      <trkpt lat="43.66644" lon="3.87918">
        <ele>111.71100032</ele>
        <time>2020-06-06T12:32:37.000Z</time>
      </trkpt>
      <trkpt lat="43.66646" lon="3.8792">
        <ele>111.81100032</ele>
        <time>2020-06-06T12:32:38.000Z</time>
      </trkpt>
      <trkpt lat="43.66648" lon="3.87921">
        <ele>111.91100032</ele>
        <time>2020-06-06T12:32:39.000Z</time>
      </trkpt>
      <trkpt lat="43.6665" lon="3.87923">
        <ele>112.01100032</ele>
        <time>2020-06-06T12:32:40.000Z</time>
      </trkpt>
      <trkpt lat="43.66652" lon="3.87926">
        <ele>112.11100032</ele>
        <time>2020-06-06T12:32:41.000Z</time>
      </trkpt>
      <trkpt lat="43.66654" lon="3.87928">
        <ele>112.21100032</ele>
        <time>2020-06-06T12:32:42.000Z</time>
      </trkpt>
      <trkpt lat="43.66656" lon="3.8793">
        <ele>112.31100032</ele>
        <time>2020-06-06T12:32:43.000Z</time>
      </trkpt>
      <trkpt lat="43.66657" lon="3.87933">
        <ele>112.41100032</ele>
        <time>2020-06-06T12:32:44.000Z</time>
      </trkpt>
      <trkpt lat="43.66659" lon="3.87935">
        <ele>112.51100032</ele>
        <time>2020-06-06T12:32:45.000Z</time>
      </trkpt>
      <trkpt lat="43.66661" lon="3.87937">
        <ele>112.61100032</ele>
        <time>2020-06-06T12:32:46.000Z</time>
      </trkpt>
      <trkpt lat="43.66663" lon="3.8794">
        <ele>112.71100032</ele>
        <time>2020-06-06T12:32:47.000Z</time>
      </trkpt>
      <trkpt lat="43.66665" lon="3.87943">
        <ele>112.81100032</ele>
        <time>2020-06-06T12:32:48.000Z</time>
      </trkpt>
      <trkpt lat="43.66667" lon="3.87946">
        <ele>112.91100032</ele>
        <time>2020-06-06T12:32:49.000Z</time>
      </trkpt>
      <trkpt lat="43.66668" lon="3.87949">
        <ele>113</ele>
        <time>2020-06-06T12:32:50.000Z</time>
      </trkpt>
      <trkpt lat="43.6667" lon="3.87952">
        <ele>113</ele>
        <time>2020-06-06T12:32:51.000Z</time>
      </trkpt>
      <trkpt lat="43.66672" lon="3.87955">
        <ele>113</ele>
        <time>2020-06-06T12:32:52.000Z</time>
      </trkpt>
      <trkpt lat="43.66674" lon="3.87958">
        <ele>113</ele>
        <time>2020-06-06T12:32:53.000Z</time>
      </trkpt>
      <trkpt lat="43.66676" lon="3.87961">
        <ele>113</ele>
        <time>2020-06-06T12:32:54.000Z</time>
      </trkpt>
      <trkpt lat="43.66678" lon="3.87963">
        <ele>113</ele>
        <time>2020-06-06T12:32:55.000Z</time>
      </trkpt>
      <trkpt lat="43.6668" lon="3.87966">
        <ele>113</ele>
        <time>2020-06-06T12:32:56.000Z</time>
      </trkpt>
      <trkpt lat="43.66681" lon="3.87968">
        <ele>113</ele>
        <time>2020-06-06T12:32:57.000Z</time>
      </trkpt>
      <trkpt lat="43.66683" lon="3.87971">
        <ele>113</ele>
        <time>2020-06-06T12:32:58.000Z</time>
      </trkpt>
      <trkpt lat="43.66684" lon="3.87973">
        <ele>113</ele>
        <time>2020-06-06T12:32:59.000Z</time>
      </trkpt>
      <trkpt lat="43.66686" lon="3.87977">
        <ele>113.22200064</ele>
        <time>2020-06-06T12:33:01.000Z</time>
      </trkpt>
      <trkpt lat="43.66687" lon="3.8798">
        <ele>113.42200064</ele>
        <time>2020-06-06T12:33:02.000Z</time>
      </trkpt>
      <trkpt lat="43.66688" lon="3.87982">
        <ele>113.62200064</ele>
        <time>2020-06-06T12:33:03.000Z</time>
      </trkpt>
      <trkpt lat="43.66689" lon="3.87985">
        <ele>113.82200064</ele>
        <time>2020-06-06T12:33:04.000Z</time>
      </trkpt>
      <trkpt lat="43.6669" lon="3.87987">
        <ele>114.02200064</ele>
        <time>2020-06-06T12:33:05.000Z</time>
      </trkpt>
      <trkpt lat="43.66692" lon="3.8799">
        <ele>114.22200064</ele>
        <time>2020-06-06T12:33:06.000Z</time>
      </trkpt>
      <trkpt lat="43.66693" lon="3.87992">
        <ele>114.42200064</ele>
        <time>2020-06-06T12:33:07.000Z</time>
      </trkpt>
      <trkpt lat="43.66694" lon="3.87995">
        <ele>114.62200064</ele>
        <time>2020-06-06T12:33:08.000Z</time>
      </trkpt>
      <trkpt lat="43.66695" lon="3.87997">
        <ele>114.82200064</ele>
        <time>2020-06-06T12:33:09.000Z</time>
      </trkpt>
      <trkpt lat="43.66696" lon="3.87999">
        <ele>115.02200064</ele>
        <time>2020-06-06T12:33:10.000Z</time>
      </trkpt>
      <trkpt lat="43.66697" lon="3.88002">
        <ele>115.22200064</ele>
        <time>2020-06-06T12:33:11.000Z</time>
      </trkpt>
      <trkpt lat="43.66698" lon="3.88004">
        <ele>115.42200064</ele>
        <time>2020-06-06T12:33:12.000Z</time>
      </trkpt>
      <trkpt lat="43.66699" lon="3.88007">
        <ele>115.62200064</ele>
        <time>2020-06-06T12:33:13.000Z</time>
      </trkpt>
      <trkpt lat="43.667" lon="3.88009">
        <ele>115.82200064</ele>
        <time>2020-06-06T12:33:14.000Z</time>
      </trkpt>
      <trkpt lat="43.66701" lon="3.88011">
        <ele>116.02200064</ele>
        <time>2020-06-06T12:33:15.000Z</time>
      </trkpt>
      <trkpt lat="43.66702" lon="3.88013">
        <ele>116.22200064</ele>
        <time>2020-06-06T12:33:16.000Z</time>
      </trkpt>
      <trkpt lat="43.66703" lon="3.88016">
        <ele>116.42200064</ele>
        <time>2020-06-06T12:33:17.000Z</time>
      </trkpt>
      <trkpt lat="43.66704" lon="3.88018">
        <ele>116.62200064</ele>
        <time>2020-06-06T12:33:18.000Z</time>
      </trkpt>
      <trkpt lat="43.66706" lon="3.8802">
        <ele>116.82200064</ele>
        <time>2020-06-06T12:33:19.000Z</time>
      </trkpt>
      <trkpt lat="43.66707" lon="3.88022">
        <ele>117.01070070039</ele>
        <time>2020-06-06T12:33:20.000Z</time>
      </trkpt>
      <trkpt lat="43.66708" lon="3.88024">
        <ele>117.10797696498</ele>
        <time>2020-06-06T12:33:21.000Z</time>
      </trkpt>
      <trkpt lat="43.66709" lon="3.88026">
        <ele>117.20525322957</ele>
        <time>2020-06-06T12:33:22.000Z</time>
      </trkpt>
      <trkpt lat="43.6671" lon="3.88028">
        <ele>117.30252949416</ele>
        <time>2020-06-06T12:33:23.000Z</time>
      </trkpt>
      <trkpt lat="43.66712" lon="3.8803">
        <ele>117.39980575875</ele>
        <time>2020-06-06T12:33:24.000Z</time>
      </trkpt>
      <trkpt lat="43.66713" lon="3.88033">
        <ele>117.49708202335</ele>
        <time>2020-06-06T12:33:25.000Z</time>
      </trkpt>
      <trkpt lat="43.66714" lon="3.88035">
        <ele>117.59435828794</ele>
        <time>2020-06-06T12:33:26.000Z</time>
      </trkpt>
      <trkpt lat="43.66715" lon="3.88037">
        <ele>117.69163455253</ele>
        <time>2020-06-06T12:33:27.000Z</time>
      </trkpt>
      <trkpt lat="43.66717" lon="3.88039">
        <ele>117.78891081712</ele>
        <time>2020-06-06T12:33:28.000Z</time>
      </trkpt>
      <trkpt lat="43.66718" lon="3.88041">
        <ele>117.88618708171</ele>
        <time>2020-06-06T12:33:29.000Z</time>
      </trkpt>
      <trkpt lat="43.66719" lon="3.88044">
        <ele>117.9834633463</ele>
        <time>2020-06-06T12:33:30.000Z</time>
      </trkpt>
      <trkpt lat="43.6672" lon="3.88046">
        <ele>118.17078255144</ele>
        <time>2020-06-06T12:33:31.000Z</time>
      </trkpt>
      <trkpt lat="43.6672" lon="3.88049">
        <ele>118.37654386831</ele>
        <time>2020-06-06T12:33:32.000Z</time>
      </trkpt>
      <trkpt lat="43.66721" lon="3.88051">
        <ele>118.58230518519</ele>
        <time>2020-06-06T12:33:33.000Z</time>
      </trkpt>
      <trkpt lat="43.66722" lon="3.88054">
        <ele>118.78806650206</ele>
        <time>2020-06-06T12:33:34.000Z</time>
      </trkpt>
      <trkpt lat="43.66723" lon="3.88056">
        <ele>118.99382781893</ele>
        <time>2020-06-06T12:33:35.000Z</time>
      </trkpt>
      <trkpt lat="43.66723" lon="3.88058">
        <ele>119.1995891358</ele>
        <time>2020-06-06T12:33:36.000Z</time>
      </trkpt>
      <trkpt lat="43.66724" lon="3.88061">
        <ele>119.40535045267</ele>
        <time>2020-06-06T12:33:37.000Z</time>
      </trkpt>
      <trkpt lat="43.66726" lon="3.88065">
        <ele>119.81687308642</ele>
        <time>2020-06-06T12:33:39.000Z</time>
      </trkpt>
      <trkpt lat="43.66727" lon="3.88069">
        <ele>120.22200064</ele>
        <time>2020-06-06T12:33:41.000Z</time>
      </trkpt>
      <trkpt lat="43.66728" lon="3.88072">
        <ele>120.42200064</ele>
        <time>2020-06-06T12:33:42.000Z</time>
      </trkpt>
      <trkpt lat="43.66729" lon="3.88074">
        <ele>120.62200064</ele>
        <time>2020-06-06T12:33:43.000Z</time>
      </trkpt>
      <trkpt lat="43.6673" lon="3.88076">
        <ele>120.82200064</ele>
        <time>2020-06-06T12:33:44.000Z</time>
      </trkpt>
      <trkpt lat="43.66731" lon="3.88079">
        <ele>121.02200064</ele>
        <time>2020-06-06T12:33:45.000Z</time>
      </trkpt>
      <trkpt lat="43.66732" lon="3.88081">
        <ele>121.22200064</ele>
        <time>2020-06-06T12:33:46.000Z</time>
      </trkpt>
      <trkpt lat="43.66733" lon="3.88083">
        <ele>121.42200064</ele>
        <time>2020-06-06T12:33:47.000Z</time>
      </trkpt>
      <trkpt lat="43.66734" lon="3.88085">
        <ele>121.62200064</ele>
        <time>2020-06-06T12:33:48.000Z</time>
      </trkpt>
      <trkpt lat="43.66735" lon="3.88088">
        <ele>121.82200064</ele>
        <time>2020-06-06T12:33:49.000Z</time>
      </trkpt>
      <trkpt lat="43.66737" lon="3.88092">
        <ele>122.11100032</ele>
        <time>2020-06-06T12:33:51.000Z</time>
      </trkpt>
      <trkpt lat="43.66738" lon="3.88096">
        <ele>122.31100032</ele>
        <time>2020-06-06T12:33:53.000Z</time>
      </trkpt>
      <trkpt lat="43.6674" lon="3.881">
        <ele>122.51100032</ele>
        <time>2020-06-06T12:33:55.000Z</time>
      </trkpt>
      <trkpt lat="43.66741" lon="3.88102">
        <ele>122.61100032</ele>
        <time>2020-06-06T12:33:56.000Z</time>
      </trkpt>
      <trkpt lat="43.66742" lon="3.88104">
        <ele>122.71100032</ele>
        <time>2020-06-06T12:33:57.000Z</time>
      </trkpt>
      <trkpt lat="43.66743" lon="3.88107">
        <ele>122.81100032</ele>
        <time>2020-06-06T12:33:58.000Z</time>
      </trkpt>
      <trkpt lat="43.66744" lon="3.88109">
        <ele>122.91100032</ele>
        <time>2020-06-06T12:33:59.000Z</time>
      </trkpt>
      <trkpt lat="43.66745" lon="3.88112">
        <ele>123.01100032</ele>
        <time>2020-06-06T12:34:00.000Z</time>
      </trkpt>
      <trkpt lat="43.66746" lon="3.88114">
        <ele>123.11100032</ele>
        <time>2020-06-06T12:34:01.000Z</time>
      </trkpt>
      <trkpt lat="43.66746" lon="3.88117">
        <ele>123.21100032</ele>
        <time>2020-06-06T12:34:02.000Z</time>
      </trkpt>
      <trkpt lat="43.66747" lon="3.88119">
        <ele>123.31100032</ele>
        <time>2020-06-06T12:34:03.000Z</time>
      </trkpt>
      <trkpt lat="43.66749" lon="3.88123">
        <ele>123.51100032</ele>
        <time>2020-06-06T12:34:05.000Z</time>
      </trkpt>
      <trkpt lat="43.66751" lon="3.88126">
        <ele>123.71100032</ele>
        <time>2020-06-06T12:34:07.000Z</time>
      </trkpt>
      <trkpt lat="43.66752" lon="3.88128">
        <ele>123.81100032</ele>
        <time>2020-06-06T12:34:08.000Z</time>
      </trkpt>
      <trkpt lat="43.66753" lon="3.88131">
        <ele>124</ele>
        <time>2020-06-06T12:34:10.000Z</time>
      </trkpt>
      <trkpt lat="43.66753" lon="3.88131">
        <ele>124</ele>
        <time>2020-06-06T12:34:15.000Z</time>
      </trkpt>
      <trkpt lat="43.66759" lon="3.88136">
        <ele>124</ele>
        <time>2020-06-06T12:34:56.000Z</time>
      </trkpt>
      <trkpt lat="43.66761" lon="3.88138">
        <ele>124</ele>
        <time>2020-06-06T12:34:57.000Z</time>
      </trkpt>
      <trkpt lat="43.66762" lon="3.8814">
        <ele>124</ele>
        <time>2020-06-06T12:34:58.000Z</time>
      </trkpt>
      <trkpt lat="43.66765" lon="3.88143">
        <ele>124</ele>
        <time>2020-06-06T12:34:59.000Z</time>
      </trkpt>
      <trkpt lat="43.66767" lon="3.88145">
        <ele>124</ele>
        <time>2020-06-06T12:35:00.000Z</time>
      </trkpt>
      <trkpt lat="43.66769" lon="3.88147">
        <ele>124</ele>
        <time>2020-06-06T12:35:01.000Z</time>
      </trkpt>
      <trkpt lat="43.66771" lon="3.8815">
        <ele>124</ele>
        <time>2020-06-06T12:35:02.000Z</time>
      </trkpt>
      <trkpt lat="43.66773" lon="3.88152">
        <ele>124</ele>
        <time>2020-06-06T12:35:03.000Z</time>
      </trkpt>
      <trkpt lat="43.66775" lon="3.88155">
        <ele>124</ele>
        <time>2020-06-06T12:35:04.000Z</time>
      </trkpt>
      <trkpt lat="43.66777" lon="3.88158">
        <ele>124</ele>
        <time>2020-06-06T12:35:05.000Z</time>
      </trkpt>
      <trkpt lat="43.6678" lon="3.88161">
        <ele>123.98930969541</ele>
        <time>2020-06-06T12:35:06.000Z</time>
      </trkpt>
      <trkpt lat="43.66782" lon="3.88164">
        <ele>123.89212793536</ele>
        <time>2020-06-06T12:35:07.000Z</time>
      </trkpt>
      <trkpt lat="43.66783" lon="3.88167">
        <ele>123.7949461753</ele>
        <time>2020-06-06T12:35:08.000Z</time>
      </trkpt>
      <trkpt lat="43.66783" lon="3.88171">
        <ele>123.69776441524</ele>
        <time>2020-06-06T12:35:09.000Z</time>
      </trkpt>
      <trkpt lat="43.66783" lon="3.88175">
        <ele>123.60058265519</ele>
        <time>2020-06-06T12:35:10.000Z</time>
      </trkpt>
      <trkpt lat="43.66783" lon="3.88179">
        <ele>123.50340089513</ele>
        <time>2020-06-06T12:35:11.000Z</time>
      </trkpt>
      <trkpt lat="43.66783" lon="3.88183">
        <ele>123.40621913507</ele>
        <time>2020-06-06T12:35:12.000Z</time>
      </trkpt>
      <trkpt lat="43.66784" lon="3.88186">
        <ele>123.30903737502</ele>
        <time>2020-06-06T12:35:13.000Z</time>
      </trkpt>
      <trkpt lat="43.66785" lon="3.8819">
        <ele>123.21185561496</ele>
        <time>2020-06-06T12:35:14.000Z</time>
      </trkpt>
      <trkpt lat="43.66785" lon="3.88194">
        <ele>123.1146738549</ele>
        <time>2020-06-06T12:35:15.000Z</time>
      </trkpt>
      <trkpt lat="43.66783" lon="3.88197">
        <ele>123.01749209485</ele>
        <time>2020-06-06T12:35:16.000Z</time>
      </trkpt>
      <trkpt lat="43.6678" lon="3.88198">
        <ele>122.91555034709</ele>
        <time>2020-06-06T12:35:17.000Z</time>
      </trkpt>
      <trkpt lat="43.66777" lon="3.88197">
        <ele>122.81256376929</ele>
        <time>2020-06-06T12:35:18.000Z</time>
      </trkpt>
      <trkpt lat="43.66774" lon="3.88196">
        <ele>122.70957719149</ele>
        <time>2020-06-06T12:35:19.000Z</time>
      </trkpt>
      <trkpt lat="43.66771" lon="3.88194">
        <ele>122.60659061369</ele>
        <time>2020-06-06T12:35:20.000Z</time>
      </trkpt>
      <trkpt lat="43.66768" lon="3.88191">
        <ele>122.50360403589</ele>
        <time>2020-06-06T12:35:21.000Z</time>
      </trkpt>
      <trkpt lat="43.66765" lon="3.88188">
        <ele>122.40061745809</ele>
        <time>2020-06-06T12:35:22.000Z</time>
      </trkpt>
      <trkpt lat="43.66762" lon="3.88184">
        <ele>122.29763088029</ele>
        <time>2020-06-06T12:35:23.000Z</time>
      </trkpt>
      <trkpt lat="43.66759" lon="3.88181">
        <ele>122.19464430249</ele>
        <time>2020-06-06T12:35:24.000Z</time>
      </trkpt>
      <trkpt lat="43.66756" lon="3.88177">
        <ele>122.09165772469</ele>
        <time>2020-06-06T12:35:25.000Z</time>
      </trkpt>
      <trkpt lat="43.66753" lon="3.88174">
        <ele>121.97799936</ele>
        <time>2020-06-06T12:35:26.000Z</time>
      </trkpt>
      <trkpt lat="43.6675" lon="3.88171">
        <ele>121.77799936</ele>
        <time>2020-06-06T12:35:27.000Z</time>
      </trkpt>
      <trkpt lat="43.66746" lon="3.88168">
        <ele>121.57799936</ele>
        <time>2020-06-06T12:35:28.000Z</time>
      </trkpt>
      <trkpt lat="43.66742" lon="3.88164">
        <ele>121.37799936</ele>
        <time>2020-06-06T12:35:29.000Z</time>
      </trkpt>
      <trkpt lat="43.66739" lon="3.88159">
        <ele>121.17799936</ele>
        <time>2020-06-06T12:35:30.000Z</time>
      </trkpt>
      <trkpt lat="43.66737" lon="3.88153">
        <ele>120.97799936</ele>
        <time>2020-06-06T12:35:31.000Z</time>
      </trkpt>
      <trkpt lat="43.66735" lon="3.88147">
        <ele>120.77799936</ele>
        <time>2020-06-06T12:35:32.000Z</time>
      </trkpt>
      <trkpt lat="43.66732" lon="3.88142">
        <ele>120.57799936</ele>
        <time>2020-06-06T12:35:33.000Z</time>
      </trkpt>
      <trkpt lat="43.66729" lon="3.88137">
        <ele>120.37799936</ele>
        <time>2020-06-06T12:35:34.000Z</time>
      </trkpt>
      <trkpt lat="43.66726" lon="3.88132">
        <ele>120.17799936</ele>
        <time>2020-06-06T12:35:35.000Z</time>
      </trkpt>
      <trkpt lat="43.66724" lon="3.88126">
        <ele>119.97799936</ele>
        <time>2020-06-06T12:35:36.000Z</time>
      </trkpt>
      <trkpt lat="43.66721" lon="3.88121">
        <ele>119.77799936</ele>
        <time>2020-06-06T12:35:37.000Z</time>
      </trkpt>
      <trkpt lat="43.66718" lon="3.88116">
        <ele>119.57799936</ele>
        <time>2020-06-06T12:35:38.000Z</time>
      </trkpt>
      <trkpt lat="43.66715" lon="3.8811">
        <ele>119.37799936</ele>
        <time>2020-06-06T12:35:39.000Z</time>
      </trkpt>
      <trkpt lat="43.66713" lon="3.88105">
        <ele>119.17799936</ele>
        <time>2020-06-06T12:35:40.000Z</time>
      </trkpt>
      <trkpt lat="43.66711" lon="3.881">
        <ele>118.97799936</ele>
        <time>2020-06-06T12:35:41.000Z</time>
      </trkpt>
      <trkpt lat="43.66708" lon="3.88095">
        <ele>118.77799936</ele>
        <time>2020-06-06T12:35:42.000Z</time>
      </trkpt>
      <trkpt lat="43.66705" lon="3.8809">
        <ele>118.57799936</ele>
        <time>2020-06-06T12:35:43.000Z</time>
      </trkpt>
      <trkpt lat="43.66701" lon="3.88085">
        <ele>118.37799936</ele>
        <time>2020-06-06T12:35:44.000Z</time>
      </trkpt>
      <trkpt lat="43.66698" lon="3.88081">
        <ele>118.17799936</ele>
        <time>2020-06-06T12:35:45.000Z</time>
      </trkpt>
      <trkpt lat="43.66694" lon="3.88077">
        <ele>118</ele>
        <time>2020-06-06T12:35:46.000Z</time>
      </trkpt>
      <trkpt lat="43.6669" lon="3.88072">
        <ele>118</ele>
        <time>2020-06-06T12:35:47.000Z</time>
      </trkpt>
      <trkpt lat="43.66688" lon="3.88067">
        <ele>118</ele>
        <time>2020-06-06T12:35:48.000Z</time>
      </trkpt>
      <trkpt lat="43.66687" lon="3.88062">
        <ele>118</ele>
        <time>2020-06-06T12:35:49.000Z</time>
      </trkpt>
      <trkpt lat="43.66686" lon="3.88058">
        <ele>118</ele>
        <time>2020-06-06T12:35:50.000Z</time>
      </trkpt>
      <trkpt lat="43.66686" lon="3.88055">
        <ele>118</ele>
        <time>2020-06-06T12:35:51.000Z</time>
      </trkpt>
      <trkpt lat="43.66682" lon="3.88052">
        <ele>118</ele>
        <time>2020-06-06T12:35:52.000Z</time>
      </trkpt>
      <trkpt lat="43.66679" lon="3.88049">
        <ele>118</ele>
        <time>2020-06-06T12:35:53.000Z</time>
      </trkpt>
      <trkpt lat="43.66676" lon="3.88044">
        <ele>118</ele>
        <time>2020-06-06T12:35:54.000Z</time>
      </trkpt>
      <trkpt lat="43.66675" lon="3.88039">
        <ele>118</ele>
        <time>2020-06-06T12:35:55.000Z</time>
      </trkpt>
      <trkpt lat="43.66673" lon="3.88033">
        <ele>117.98899968</ele>
        <time>2020-06-06T12:35:56.000Z</time>
      </trkpt>
      <trkpt lat="43.6667" lon="3.88028">
        <ele>117.88899968</ele>
        <time>2020-06-06T12:35:57.000Z</time>
      </trkpt>
      <trkpt lat="43.66666" lon="3.88024">
        <ele>117.78899968</ele>
        <time>2020-06-06T12:35:58.000Z</time>
      </trkpt>
      <trkpt lat="43.66661" lon="3.88018">
        <ele>117.68899968</ele>
        <time>2020-06-06T12:35:59.000Z</time>
      </trkpt>
      <trkpt lat="43.66657" lon="3.88012">
        <ele>117.58899968</ele>
        <time>2020-06-06T12:36:00.000Z</time>
      </trkpt>
      <trkpt lat="43.66653" lon="3.88007">
        <ele>117.48899968</ele>
        <time>2020-06-06T12:36:01.000Z</time>
      </trkpt>
      <trkpt lat="43.66649" lon="3.88001">
        <ele>117.38899968</ele>
        <time>2020-06-06T12:36:02.000Z</time>
      </trkpt>
      <trkpt lat="43.66646" lon="3.87996">
        <ele>117.28899968</ele>
        <time>2020-06-06T12:36:03.000Z</time>
      </trkpt>
      <trkpt lat="43.66646" lon="3.87991">
        <ele>117.18899968</ele>
        <time>2020-06-06T12:36:04.000Z</time>
      </trkpt>
      <trkpt lat="43.66646" lon="3.87987">
        <ele>117.08899968</ele>
        <time>2020-06-06T12:36:05.000Z</time>
      </trkpt>
      <trkpt lat="43.66645" lon="3.87984">
        <ele>116.98899968</ele>
        <time>2020-06-06T12:36:06.000Z</time>
      </trkpt>
      <trkpt lat="43.66641" lon="3.87982">
        <ele>116.78899968</ele>
        <time>2020-06-06T12:36:08.000Z</time>
      </trkpt>
      <trkpt lat="43.66639" lon="3.87979">
        <ele>116.68899968</ele>
        <time>2020-06-06T12:36:09.000Z</time>
      </trkpt>
      <trkpt lat="43.66637" lon="3.87975">
        <ele>116.58899968</ele>
        <time>2020-06-06T12:36:10.000Z</time>
      </trkpt>
      <trkpt lat="43.66635" lon="3.87971">
        <ele>116.48899968</ele>
        <time>2020-06-06T12:36:11.000Z</time>
      </trkpt>
      <trkpt lat="43.66633" lon="3.87967">
        <ele>116.38899968</ele>
        <time>2020-06-06T12:36:12.000Z</time>
      </trkpt>
      <trkpt lat="43.6663" lon="3.87964">
        <ele>116.28899968</ele>
        <time>2020-06-06T12:36:13.000Z</time>
      </trkpt>
      <trkpt lat="43.66627" lon="3.87963">
        <ele>116.18899968</ele>
        <time>2020-06-06T12:36:14.000Z</time>
      </trkpt>
      <trkpt lat="43.66624" lon="3.87961">
        <ele>116.08899968</ele>
        <time>2020-06-06T12:36:15.000Z</time>
      </trkpt>
      <trkpt lat="43.66621" lon="3.87958">
        <ele>115.97799936</ele>
        <time>2020-06-06T12:36:16.000Z</time>
      </trkpt>
      <trkpt lat="43.66617" lon="3.87956">
        <ele>115.77799936</ele>
        <time>2020-06-06T12:36:17.000Z</time>
      </trkpt>
      <trkpt lat="43.66613" lon="3.87953">
        <ele>115.57799936</ele>
        <time>2020-06-06T12:36:18.000Z</time>
      </trkpt>
      <trkpt lat="43.6661" lon="3.87952">
        <ele>115.37799936</ele>
        <time>2020-06-06T12:36:19.000Z</time>
      </trkpt>
      <trkpt lat="43.66607" lon="3.87952">
        <ele>115.17799936</ele>
        <time>2020-06-06T12:36:20.000Z</time>
      </trkpt>
      <trkpt lat="43.66604" lon="3.87953">
        <ele>114.97799936</ele>
        <time>2020-06-06T12:36:21.000Z</time>
      </trkpt>
      <trkpt lat="43.666" lon="3.87955">
        <ele>114.77799936</ele>
        <time>2020-06-06T12:36:22.000Z</time>
      </trkpt>
      <trkpt lat="43.66596" lon="3.87956">
        <ele>114.57799936</ele>
        <time>2020-06-06T12:36:23.000Z</time>
      </trkpt>
      <trkpt lat="43.66592" lon="3.87956">
        <ele>114.37799936</ele>
        <time>2020-06-06T12:36:24.000Z</time>
      </trkpt>
      <trkpt lat="43.66588" lon="3.87955">
        <ele>114.17799936</ele>
        <time>2020-06-06T12:36:25.000Z</time>
      </trkpt>
      <trkpt lat="43.66583" lon="3.87952">
        <ele>113.98929929961</ele>
        <time>2020-06-06T12:36:26.000Z</time>
      </trkpt>
      <trkpt lat="43.6658" lon="3.8795">
        <ele>113.89202303502</ele>
        <time>2020-06-06T12:36:27.000Z</time>
      </trkpt>
      <trkpt lat="43.66577" lon="3.87946">
        <ele>113.79474677043</ele>
        <time>2020-06-06T12:36:28.000Z</time>
      </trkpt>
      <trkpt lat="43.66573" lon="3.87943">
        <ele>113.69747050584</ele>
        <time>2020-06-06T12:36:29.000Z</time>
      </trkpt>
      <trkpt lat="43.66569" lon="3.87939">
        <ele>113.60019424125</ele>
        <time>2020-06-06T12:36:30.000Z</time>
      </trkpt>
      <trkpt lat="43.66566" lon="3.87936">
        <ele>113.50291797665</ele>
        <time>2020-06-06T12:36:31.000Z</time>
      </trkpt>
      <trkpt lat="43.66563" lon="3.87936">
        <ele>113.40564171206</ele>
        <time>2020-06-06T12:36:32.000Z</time>
      </trkpt>
      <trkpt lat="43.66559" lon="3.87936">
        <ele>113.30836544747</ele>
        <time>2020-06-06T12:36:33.000Z</time>
      </trkpt>
      <trkpt lat="43.66555" lon="3.87937">
        <ele>113.21108918288</ele>
        <time>2020-06-06T12:36:34.000Z</time>
      </trkpt>
      <trkpt lat="43.66551" lon="3.87939">
        <ele>113.11381291829</ele>
        <time>2020-06-06T12:36:35.000Z</time>
      </trkpt>
      <trkpt lat="43.66547" lon="3.87941">
        <ele>113.0165366537</ele>
        <time>2020-06-06T12:36:36.000Z</time>
      </trkpt>
      <trkpt lat="43.66543" lon="3.87942">
        <ele>112.91460872428</ele>
        <time>2020-06-06T12:36:37.000Z</time>
      </trkpt>
      <trkpt lat="43.6654" lon="3.8794">
        <ele>112.81172806584</ele>
        <time>2020-06-06T12:36:38.000Z</time>
      </trkpt>
      <trkpt lat="43.66537" lon="3.87938">
        <ele>112.70884740741</ele>
        <time>2020-06-06T12:36:39.000Z</time>
      </trkpt>
      <trkpt lat="43.66533" lon="3.87936">
        <ele>112.60596674897</ele>
        <time>2020-06-06T12:36:40.000Z</time>
      </trkpt>
      <trkpt lat="43.66529" lon="3.87934">
        <ele>112.50308609054</ele>
        <time>2020-06-06T12:36:41.000Z</time>
      </trkpt>
      <trkpt lat="43.66527" lon="3.87931">
        <ele>112.4002054321</ele>
        <time>2020-06-06T12:36:42.000Z</time>
      </trkpt>
      <trkpt lat="43.66525" lon="3.87928">
        <ele>112.29732477366</ele>
        <time>2020-06-06T12:36:43.000Z</time>
      </trkpt>
      <trkpt lat="43.66522" lon="3.87923">
        <ele>112.19444411523</ele>
        <time>2020-06-06T12:36:44.000Z</time>
      </trkpt>
      <trkpt lat="43.66518" lon="3.87919">
        <ele>112.09156345679</ele>
        <time>2020-06-06T12:36:45.000Z</time>
      </trkpt>
      <trkpt lat="43.66515" lon="3.87915">
        <ele>111.95599872</ele>
        <time>2020-06-06T12:36:46.000Z</time>
      </trkpt>
      <trkpt lat="43.66513" lon="3.87911">
        <ele>111.55599872</ele>
        <time>2020-06-06T12:36:47.000Z</time>
      </trkpt>
      <trkpt lat="43.6651" lon="3.87909">
        <ele>111.15599872</ele>
        <time>2020-06-06T12:36:48.000Z</time>
      </trkpt>
      <trkpt lat="43.66507" lon="3.87908">
        <ele>110.75599872</ele>
        <time>2020-06-06T12:36:49.000Z</time>
      </trkpt>
      <trkpt lat="43.66503" lon="3.87906">
        <ele>110.35599872</ele>
        <time>2020-06-06T12:36:50.000Z</time>
      </trkpt>
      <trkpt lat="43.66499" lon="3.87903">
        <ele>109.95599872</ele>
        <time>2020-06-06T12:36:51.000Z</time>
      </trkpt>
      <trkpt lat="43.66495" lon="3.87901">
        <ele>109.55599872</ele>
        <time>2020-06-06T12:36:52.000Z</time>
      </trkpt>
      <trkpt lat="43.66491" lon="3.87899">
        <ele>109.15599872</ele>
        <time>2020-06-06T12:36:53.000Z</time>
      </trkpt>
      <trkpt lat="43.66487" lon="3.879">
        <ele>108.75599872</ele>
        <time>2020-06-06T12:36:54.000Z</time>
      </trkpt>
      <trkpt lat="43.66484" lon="3.87902">
        <ele>108.35599872</ele>
        <time>2020-06-06T12:36:55.000Z</time>
      </trkpt>
      <trkpt lat="43.66481" lon="3.87904">
        <ele>107.97802135974</ele>
        <time>2020-06-06T12:36:56.000Z</time>
      </trkpt>
      <trkpt lat="43.66478" lon="3.87906">
        <ele>107.77822135156</ele>
        <time>2020-06-06T12:36:57.000Z</time>
      </trkpt>
      <trkpt lat="43.66475" lon="3.87907">
        <ele>107.57842134337</ele>
        <time>2020-06-06T12:36:58.000Z</time>
      </trkpt>
      <trkpt lat="43.66473" lon="3.87909">
        <ele>107.37862133519</ele>
        <time>2020-06-06T12:36:59.000Z</time>
      </trkpt>
      <trkpt lat="43.66471" lon="3.87911">
        <ele>107.178821327</ele>
        <time>2020-06-06T12:37:00.000Z</time>
      </trkpt>
      <trkpt lat="43.66469" lon="3.87912">
        <ele>106.97902131882</ele>
        <time>2020-06-06T12:37:01.000Z</time>
      </trkpt>
      <trkpt lat="43.66467" lon="3.87914">
        <ele>106.77922131064</ele>
        <time>2020-06-06T12:37:02.000Z</time>
      </trkpt>
      <trkpt lat="43.66465" lon="3.87915">
        <ele>106.57942130245</ele>
        <time>2020-06-06T12:37:03.000Z</time>
      </trkpt>
      <trkpt lat="43.66463" lon="3.87917">
        <ele>106.37962129427</ele>
        <time>2020-06-06T12:37:04.000Z</time>
      </trkpt>
      <trkpt lat="43.6646" lon="3.87919">
        <ele>106.17982128609</ele>
        <time>2020-06-06T12:37:05.000Z</time>
      </trkpt>
      <trkpt lat="43.66457" lon="3.87919">
        <ele>105.97998124202</ele>
        <time>2020-06-06T12:37:06.000Z</time>
      </trkpt>
      <trkpt lat="43.66453" lon="3.87919">
        <ele>105.77978084944</ele>
        <time>2020-06-06T12:37:07.000Z</time>
      </trkpt>
      <trkpt lat="43.6645" lon="3.87919">
        <ele>105.57958045685</ele>
        <time>2020-06-06T12:37:08.000Z</time>
      </trkpt>
      <trkpt lat="43.66446" lon="3.87917">
        <ele>105.37938006427</ele>
        <time>2020-06-06T12:37:09.000Z</time>
      </trkpt>
      <trkpt lat="43.66443" lon="3.87917">
        <ele>105.17917967168</ele>
        <time>2020-06-06T12:37:10.000Z</time>
      </trkpt>
      <trkpt lat="43.66439" lon="3.87915">
        <ele>104.9789792791</ele>
        <time>2020-06-06T12:37:11.000Z</time>
      </trkpt>
      <trkpt lat="43.66436" lon="3.87914">
        <ele>104.77877888651</ele>
        <time>2020-06-06T12:37:12.000Z</time>
      </trkpt>
      <trkpt lat="43.66433" lon="3.87912">
        <ele>104.57857849393</ele>
        <time>2020-06-06T12:37:13.000Z</time>
      </trkpt>
      <trkpt lat="43.66431" lon="3.87911">
        <ele>104.37837810134</ele>
        <time>2020-06-06T12:37:14.000Z</time>
      </trkpt>
      <trkpt lat="43.66428" lon="3.87909">
        <ele>104.17817770876</ele>
        <time>2020-06-06T12:37:15.000Z</time>
      </trkpt>
      <trkpt lat="43.66425" lon="3.87907">
        <ele>103.96699904</ele>
        <time>2020-06-06T12:37:16.000Z</time>
      </trkpt>
      <trkpt lat="43.66422" lon="3.87906">
        <ele>103.66699904</ele>
        <time>2020-06-06T12:37:17.000Z</time>
      </trkpt>
      <trkpt lat="43.66418" lon="3.87906">
        <ele>103.36699904</ele>
        <time>2020-06-06T12:37:18.000Z</time>
      </trkpt>
      <trkpt lat="43.66414" lon="3.87904">
        <ele>103.06699904</ele>
        <time>2020-06-06T12:37:19.000Z</time>
      </trkpt>
      <trkpt lat="43.6641" lon="3.87903">
        <ele>102.76699904</ele>
        <time>2020-06-06T12:37:20.000Z</time>
      </trkpt>
      <trkpt lat="43.66406" lon="3.87901">
        <ele>102.46699904</ele>
        <time>2020-06-06T12:37:21.000Z</time>
      </trkpt>
      <trkpt lat="43.66402" lon="3.87899">
        <ele>102.16699904</ele>
        <time>2020-06-06T12:37:22.000Z</time>
      </trkpt>
      <trkpt lat="43.66398" lon="3.87897">
        <ele>101.86699904</ele>
        <time>2020-06-06T12:37:23.000Z</time>
      </trkpt>
      <trkpt lat="43.66394" lon="3.87895">
        <ele>101.56699904</ele>
        <time>2020-06-06T12:37:24.000Z</time>
      </trkpt>
      <trkpt lat="43.6639" lon="3.87894">
        <ele>101.26699904</ele>
        <time>2020-06-06T12:37:25.000Z</time>
      </trkpt>
      <trkpt lat="43.66386" lon="3.87893">
        <ele>100.98899968</ele>
        <time>2020-06-06T12:37:26.000Z</time>
      </trkpt>
      <trkpt lat="43.66382" lon="3.87891">
        <ele>100.88899968</ele>
        <time>2020-06-06T12:37:27.000Z</time>
      </trkpt>
      <trkpt lat="43.66378" lon="3.87889">
        <ele>100.78899968</ele>
        <time>2020-06-06T12:37:28.000Z</time>
      </trkpt>
      <trkpt lat="43.66375" lon="3.87887">
        <ele>100.68899968</ele>
        <time>2020-06-06T12:37:29.000Z</time>
      </trkpt>
      <trkpt lat="43.66371" lon="3.87885">
        <ele>100.58899968</ele>
        <time>2020-06-06T12:37:30.000Z</time>
      </trkpt>
      <trkpt lat="43.66368" lon="3.87881">
        <ele>100.48899968</ele>
        <time>2020-06-06T12:37:31.000Z</time>
      </trkpt>
      <trkpt lat="43.66368" lon="3.87876">
        <ele>100.38899968</ele>
        <time>2020-06-06T12:37:32.000Z</time>
      </trkpt>
      <trkpt lat="43.66368" lon="3.87871">
        <ele>100.28899968</ele>
        <time>2020-06-06T12:37:33.000Z</time>
      </trkpt>
      <trkpt lat="43.66367" lon="3.87868">
        <ele>100.18899968</ele>
        <time>2020-06-06T12:37:34.000Z</time>
      </trkpt>
      <trkpt lat="43.66364" lon="3.87865">
        <ele>100.08899968</ele>
        <time>2020-06-06T12:37:35.000Z</time>
      </trkpt>
      <trkpt lat="43.66361" lon="3.87862">
        <ele>100</ele>
        <time>2020-06-06T12:37:36.000Z</time>
      </trkpt>
      <trkpt lat="43.66357" lon="3.87859">
        <ele>100</ele>
        <time>2020-06-06T12:37:37.000Z</time>
      </trkpt>
      <trkpt lat="43.66353" lon="3.87856">
        <ele>100</ele>
        <time>2020-06-06T12:37:38.000Z</time>
      </trkpt>
      <trkpt lat="43.66349" lon="3.87854">
        <ele>100</ele>
        <time>2020-06-06T12:37:39.000Z</time>
      </trkpt>
      <trkpt lat="43.66345" lon="3.87853">
        <ele>100</ele>
        <time>2020-06-06T12:37:40.000Z</time>
      </trkpt>
      <trkpt lat="43.66342" lon="3.87852">
        <ele>100</ele>
        <time>2020-06-06T12:37:41.000Z</time>
      </trkpt>
      <trkpt lat="43.66338" lon="3.8785">
        <ele>100</ele>
        <time>2020-06-06T12:37:42.000Z</time>
      </trkpt>
      <trkpt lat="43.66335" lon="3.87848">
        <ele>100</ele>
        <time>2020-06-06T12:37:43.000Z</time>
      </trkpt>
      <trkpt lat="43.66331" lon="3.87846">
        <ele>100</ele>
        <time>2020-06-06T12:37:44.000Z</time>
      </trkpt>
      <trkpt lat="43.66326" lon="3.87844">
        <ele>100</ele>
        <time>2020-06-06T12:37:45.000Z</time>
      </trkpt>
      <trkpt lat="43.66322" lon="3.87841">
        <ele>99.98899968</ele>
        <time>2020-06-06T12:37:46.000Z</time>
      </trkpt>
      <trkpt lat="43.66317" lon="3.87839">
        <ele>99.88899968</ele>
        <time>2020-06-06T12:37:47.000Z</time>
      </trkpt>
      <trkpt lat="43.66313" lon="3.87837">
        <ele>99.78899968</ele>
        <time>2020-06-06T12:37:48.000Z</time>
      </trkpt>
      <trkpt lat="43.6631" lon="3.87834">
        <ele>99.68899968</ele>
        <time>2020-06-06T12:37:49.000Z</time>
      </trkpt>
      <trkpt lat="43.66307" lon="3.87831">
        <ele>99.58899968</ele>
        <time>2020-06-06T12:37:50.000Z</time>
      </trkpt>
      <trkpt lat="43.66303" lon="3.87829">
        <ele>99.48899968</ele>
        <time>2020-06-06T12:37:51.000Z</time>
      </trkpt>
      <trkpt lat="43.66299" lon="3.87828">
        <ele>99.38899968</ele>
        <time>2020-06-06T12:37:52.000Z</time>
      </trkpt>
      <trkpt lat="43.66296" lon="3.87828">
        <ele>99.28899968</ele>
        <time>2020-06-06T12:37:53.000Z</time>
      </trkpt>
      <trkpt lat="43.66292" lon="3.87828">
        <ele>99.18899968</ele>
        <time>2020-06-06T12:37:54.000Z</time>
      </trkpt>
      <trkpt lat="43.66288" lon="3.87827">
        <ele>99.08899968</ele>
        <time>2020-06-06T12:37:55.000Z</time>
      </trkpt>
      <trkpt lat="43.66285" lon="3.87827">
        <ele>98.98899968</ele>
        <time>2020-06-06T12:37:56.000Z</time>
      </trkpt>
      <trkpt lat="43.66281" lon="3.87826">
        <ele>98.88899968</ele>
        <time>2020-06-06T12:37:57.000Z</time>
      </trkpt>
      <trkpt lat="43.66279" lon="3.87825">
        <ele>98.78899968</ele>
        <time>2020-06-06T12:37:58.000Z</time>
      </trkpt>
      <trkpt lat="43.66276" lon="3.87823">
        <ele>98.68899968</ele>
        <time>2020-06-06T12:37:59.000Z</time>
      </trkpt>
      <trkpt lat="43.66273" lon="3.87821">
        <ele>98.58899968</ele>
        <time>2020-06-06T12:38:00.000Z</time>
      </trkpt>
      <trkpt lat="43.66269" lon="3.87819">
        <ele>98.48899968</ele>
        <time>2020-06-06T12:38:01.000Z</time>
      </trkpt>
      <trkpt lat="43.66265" lon="3.87817">
        <ele>98.38899968</ele>
        <time>2020-06-06T12:38:02.000Z</time>
      </trkpt>
      <trkpt lat="43.66262" lon="3.87815">
        <ele>98.28899968</ele>
        <time>2020-06-06T12:38:03.000Z</time>
      </trkpt>
      <trkpt lat="43.66259" lon="3.87814">
        <ele>98.18899968</ele>
        <time>2020-06-06T12:38:04.000Z</time>
      </trkpt>
      <trkpt lat="43.66256" lon="3.87811">
        <ele>98.08899968</ele>
        <time>2020-06-06T12:38:05.000Z</time>
      </trkpt>
      <trkpt lat="43.66253" lon="3.87808">
        <ele>97.98899968</ele>
        <time>2020-06-06T12:38:06.000Z</time>
      </trkpt>
      <trkpt lat="43.66251" lon="3.87807">
        <ele>97.88899968</ele>
        <time>2020-06-06T12:38:07.000Z</time>
      </trkpt>
      <trkpt lat="43.66248" lon="3.87805">
        <ele>97.78899968</ele>
        <time>2020-06-06T12:38:08.000Z</time>
      </trkpt>
      <trkpt lat="43.66245" lon="3.87804">
        <ele>97.68899968</ele>
        <time>2020-06-06T12:38:09.000Z</time>
      </trkpt>
      <trkpt lat="43.66242" lon="3.87801">
        <ele>97.58899968</ele>
        <time>2020-06-06T12:38:10.000Z</time>
      </trkpt>
      <trkpt lat="43.66238" lon="3.87798">
        <ele>97.48899968</ele>
        <time>2020-06-06T12:38:11.000Z</time>
      </trkpt>
      <trkpt lat="43.66235" lon="3.87795">
        <ele>97.38899968</ele>
        <time>2020-06-06T12:38:12.000Z</time>
      </trkpt>
      <trkpt lat="43.66232" lon="3.87793">
        <ele>97.28899968</ele>
        <time>2020-06-06T12:38:13.000Z</time>
      </trkpt>
      <trkpt lat="43.66229" lon="3.87791">
        <ele>97.18899968</ele>
        <time>2020-06-06T12:38:14.000Z</time>
      </trkpt>
      <trkpt lat="43.66226" lon="3.87788">
        <ele>97.08899968</ele>
        <time>2020-06-06T12:38:15.000Z</time>
      </trkpt>
      <trkpt lat="43.66225" lon="3.87786">
        <ele>97</ele>
        <time>2020-06-06T12:38:16.000Z</time>
      </trkpt>
      <trkpt lat="43.66224" lon="3.87783">
        <ele>97</ele>
        <time>2020-06-06T12:38:17.000Z</time>
      </trkpt>
      <trkpt lat="43.66222" lon="3.8778">
        <ele>97</ele>
        <time>2020-06-06T12:38:19.000Z</time>
      </trkpt>
      <trkpt lat="43.6622" lon="3.87776">
        <ele>97</ele>
        <time>2020-06-06T12:38:21.000Z</time>
      </trkpt>
      <trkpt lat="43.66218" lon="3.87774">
        <ele>97</ele>
        <time>2020-06-06T12:38:22.000Z</time>
      </trkpt>
      <trkpt lat="43.66216" lon="3.87772">
        <ele>97</ele>
        <time>2020-06-06T12:38:23.000Z</time>
      </trkpt>
      <trkpt lat="43.66214" lon="3.87771">
        <ele>97</ele>
        <time>2020-06-06T12:38:24.000Z</time>
      </trkpt>
      <trkpt lat="43.66212" lon="3.8777">
        <ele>97</ele>
        <time>2020-06-06T12:38:25.000Z</time>
      </trkpt>
      <trkpt lat="43.66209" lon="3.87768">
        <ele>97</ele>
        <time>2020-06-06T12:38:26.000Z</time>
      </trkpt>
      <trkpt lat="43.66207" lon="3.87766">
        <ele>96.91460872428</ele>
        <time>2020-06-06T12:38:27.000Z</time>
      </trkpt>
      <trkpt lat="43.66205" lon="3.87763">
        <ele>96.811728065844</ele>
        <time>2020-06-06T12:38:28.000Z</time>
      </trkpt>
      <trkpt lat="43.66203" lon="3.8776">
        <ele>96.708847407407</ele>
        <time>2020-06-06T12:38:29.000Z</time>
      </trkpt>
      <trkpt lat="43.66202" lon="3.87757">
        <ele>96.605966748971</ele>
        <time>2020-06-06T12:38:30.000Z</time>
      </trkpt>
      <trkpt lat="43.66201" lon="3.87754">
        <ele>96.503086090535</ele>
        <time>2020-06-06T12:38:31.000Z</time>
      </trkpt>
      <trkpt lat="43.662" lon="3.87752">
        <ele>96.400205432099</ele>
        <time>2020-06-06T12:38:32.000Z</time>
      </trkpt>
      <trkpt lat="43.66198" lon="3.87749">
        <ele>96.297324773663</ele>
        <time>2020-06-06T12:38:33.000Z</time>
      </trkpt>
      <trkpt lat="43.66197" lon="3.87746">
        <ele>96.194444115226</ele>
        <time>2020-06-06T12:38:34.000Z</time>
      </trkpt>
      <trkpt lat="43.66196" lon="3.87743">
        <ele>96.09156345679</ele>
        <time>2020-06-06T12:38:35.000Z</time>
      </trkpt>
      <trkpt lat="43.66194" lon="3.87739">
        <ele>96</ele>
        <time>2020-06-06T12:38:36.000Z</time>
      </trkpt>
      <trkpt lat="43.66193" lon="3.87735">
        <ele>96</ele>
        <time>2020-06-06T12:38:37.000Z</time>
      </trkpt>
      <trkpt lat="43.66191" lon="3.8773">
        <ele>96</ele>
        <time>2020-06-06T12:38:38.000Z</time>
      </trkpt>
      <trkpt lat="43.6619" lon="3.87726">
        <ele>96</ele>
        <time>2020-06-06T12:38:39.000Z</time>
      </trkpt>
      <trkpt lat="43.66188" lon="3.87722">
        <ele>96</ele>
        <time>2020-06-06T12:38:40.000Z</time>
      </trkpt>
      <trkpt lat="43.66186" lon="3.87717">
        <ele>96</ele>
        <time>2020-06-06T12:38:41.000Z</time>
      </trkpt>
      <trkpt lat="43.66184" lon="3.87712">
        <ele>96</ele>
        <time>2020-06-06T12:38:42.000Z</time>
      </trkpt>
      <trkpt lat="43.66181" lon="3.87708">
        <ele>96</ele>
        <time>2020-06-06T12:38:43.000Z</time>
      </trkpt>
      <trkpt lat="43.66178" lon="3.87703">
        <ele>96</ele>
        <time>2020-06-06T12:38:44.000Z</time>
      </trkpt>
      <trkpt lat="43.66176" lon="3.87699">
        <ele>96</ele>
        <time>2020-06-06T12:38:45.000Z</time>
      </trkpt>
      <trkpt lat="43.66173" lon="3.87696">
        <ele>96</ele>
        <time>2020-06-06T12:38:46.000Z</time>
      </trkpt>
      <trkpt lat="43.66172" lon="3.87692">
        <ele>95.91555034709</ele>
        <time>2020-06-06T12:38:47.000Z</time>
      </trkpt>
      <trkpt lat="43.66171" lon="3.87689">
        <ele>95.812563769289</ele>
        <time>2020-06-06T12:38:48.000Z</time>
      </trkpt>
      <trkpt lat="43.6617" lon="3.87685">
        <ele>95.709577191489</ele>
        <time>2020-06-06T12:38:49.000Z</time>
      </trkpt>
      <trkpt lat="43.6617" lon="3.87681">
        <ele>95.503604035887</ele>
        <time>2020-06-06T12:38:51.000Z</time>
      </trkpt>
      <trkpt lat="43.66167" lon="3.87679">
        <ele>95.297630880286</ele>
        <time>2020-06-06T12:38:53.000Z</time>
      </trkpt>
      <trkpt lat="43.66164" lon="3.87677">
        <ele>95.194644302486</ele>
        <time>2020-06-06T12:38:54.000Z</time>
      </trkpt>
      <trkpt lat="43.66162" lon="3.87675">
        <ele>95.091657724685</ele>
        <time>2020-06-06T12:38:55.000Z</time>
      </trkpt>
      <trkpt lat="43.6616" lon="3.87672">
        <ele>94.97799936</ele>
        <time>2020-06-06T12:38:56.000Z</time>
      </trkpt>
      <trkpt lat="43.66158" lon="3.87669">
        <ele>94.77799936</ele>
        <time>2020-06-06T12:38:57.000Z</time>
      </trkpt>
      <trkpt lat="43.66156" lon="3.87664">
        <ele>94.57799936</ele>
        <time>2020-06-06T12:38:58.000Z</time>
      </trkpt>
      <trkpt lat="43.66155" lon="3.87659">
        <ele>94.37799936</ele>
        <time>2020-06-06T12:38:59.000Z</time>
      </trkpt>
      <trkpt lat="43.66154" lon="3.87654">
        <ele>94.17799936</ele>
        <time>2020-06-06T12:39:00.000Z</time>
      </trkpt>
      <trkpt lat="43.66153" lon="3.87649">
        <ele>93.97799936</ele>
        <time>2020-06-06T12:39:01.000Z</time>
      </trkpt>
      <trkpt lat="43.66152" lon="3.87644">
        <ele>93.77799936</ele>
        <time>2020-06-06T12:39:02.000Z</time>
      </trkpt>
      <trkpt lat="43.6615" lon="3.8764">
        <ele>93.57799936</ele>
        <time>2020-06-06T12:39:03.000Z</time>
      </trkpt>
      <trkpt lat="43.66148" lon="3.87636">
        <ele>93.37799936</ele>
        <time>2020-06-06T12:39:04.000Z</time>
      </trkpt>
      <trkpt lat="43.66146" lon="3.87631">
        <ele>93.17799936</ele>
        <time>2020-06-06T12:39:05.000Z</time>
      </trkpt>
      <trkpt lat="43.66143" lon="3.87627">
        <ele>92.978043287477</ele>
        <time>2020-06-06T12:39:06.000Z</time>
      </trkpt>
      <trkpt lat="43.66141" lon="3.87624">
        <ele>92.778442616564</ele>
        <time>2020-06-06T12:39:07.000Z</time>
      </trkpt>
      <trkpt lat="43.66139" lon="3.8762">
        <ele>92.57884194565</ele>
        <time>2020-06-06T12:39:08.000Z</time>
      </trkpt>
      <trkpt lat="43.66136" lon="3.87617">
        <ele>92.379241274736</ele>
        <time>2020-06-06T12:39:09.000Z</time>
      </trkpt>
      <trkpt lat="43.66134" lon="3.87613">
        <ele>92.179640603822</ele>
        <time>2020-06-06T12:39:10.000Z</time>
      </trkpt>
      <trkpt lat="43.66131" lon="3.87609">
        <ele>91.980039932909</ele>
        <time>2020-06-06T12:39:11.000Z</time>
      </trkpt>
      <trkpt lat="43.6613" lon="3.87603">
        <ele>91.780439261995</ele>
        <time>2020-06-06T12:39:12.000Z</time>
      </trkpt>
      <trkpt lat="43.66129" lon="3.87597">
        <ele>91.580838591081</ele>
        <time>2020-06-06T12:39:13.000Z</time>
      </trkpt>
      <trkpt lat="43.66128" lon="3.87593">
        <ele>91.381237920167</ele>
        <time>2020-06-06T12:39:14.000Z</time>
      </trkpt>
      <trkpt lat="43.66126" lon="3.87589">
        <ele>91.181637249254</ele>
        <time>2020-06-06T12:39:15.000Z</time>
      </trkpt>
      <trkpt lat="43.66124" lon="3.87586">
        <ele>90.981964557572</ele>
        <time>2020-06-06T12:39:16.000Z</time>
      </trkpt>
      <trkpt lat="43.66122" lon="3.87581">
        <ele>90.781563627456</ele>
        <time>2020-06-06T12:39:17.000Z</time>
      </trkpt>
      <trkpt lat="43.6612" lon="3.87577">
        <ele>90.581162697339</ele>
        <time>2020-06-06T12:39:18.000Z</time>
      </trkpt>
      <trkpt lat="43.66118" lon="3.87573">
        <ele>90.380761767222</ele>
        <time>2020-06-06T12:39:19.000Z</time>
      </trkpt>
      <trkpt lat="43.66115" lon="3.87569">
        <ele>90.180360837105</ele>
        <time>2020-06-06T12:39:20.000Z</time>
      </trkpt>
      <trkpt lat="43.66112" lon="3.87566">
        <ele>89.979959906988</ele>
        <time>2020-06-06T12:39:21.000Z</time>
      </trkpt>
      <trkpt lat="43.66107" lon="3.87562">
        <ele>89.779558976871</ele>
        <time>2020-06-06T12:39:22.000Z</time>
      </trkpt>
      <trkpt lat="43.66105" lon="3.87558">
        <ele>89.579158046755</ele>
        <time>2020-06-06T12:39:23.000Z</time>
      </trkpt>
      <trkpt lat="43.66105" lon="3.87554">
        <ele>89.378757116638</ele>
        <time>2020-06-06T12:39:24.000Z</time>
      </trkpt>
      <trkpt lat="43.66107" lon="3.87549">
        <ele>89.178356186521</ele>
        <time>2020-06-06T12:39:25.000Z</time>
      </trkpt>
      <trkpt lat="43.66107" lon="3.87544">
        <ele>88.97799936</ele>
        <time>2020-06-06T12:39:26.000Z</time>
      </trkpt>
      <trkpt lat="43.66108" lon="3.87538">
        <ele>88.77799936</ele>
        <time>2020-06-06T12:39:27.000Z</time>
      </trkpt>
      <trkpt lat="43.66107" lon="3.87532">
        <ele>88.57799936</ele>
        <time>2020-06-06T12:39:28.000Z</time>
      </trkpt>
      <trkpt lat="43.66106" lon="3.87528">
        <ele>88.37799936</ele>
        <time>2020-06-06T12:39:29.000Z</time>
      </trkpt>
      <trkpt lat="43.66104" lon="3.87523">
        <ele>88.17799936</ele>
        <time>2020-06-06T12:39:30.000Z</time>
      </trkpt>
      <trkpt lat="43.66102" lon="3.8752">
        <ele>87.97799936</ele>
        <time>2020-06-06T12:39:31.000Z</time>
      </trkpt>
      <trkpt lat="43.66099" lon="3.87519">
        <ele>87.77799936</ele>
        <time>2020-06-06T12:39:32.000Z</time>
      </trkpt>
      <trkpt lat="43.66097" lon="3.8752">
        <ele>87.57799936</ele>
        <time>2020-06-06T12:39:33.000Z</time>
      </trkpt>
      <trkpt lat="43.66095" lon="3.87522">
        <ele>87.37799936</ele>
        <time>2020-06-06T12:39:34.000Z</time>
      </trkpt>
      <trkpt lat="43.66094" lon="3.87526">
        <ele>87.17799936</ele>
        <time>2020-06-06T12:39:35.000Z</time>
      </trkpt>
      <trkpt lat="43.66093" lon="3.8753">
        <ele>86.946496498055</ele>
        <time>2020-06-06T12:39:36.000Z</time>
      </trkpt>
      <trkpt lat="43.66093" lon="3.87536">
        <ele>86.460115175097</ele>
        <time>2020-06-06T12:39:37.000Z</time>
      </trkpt>
      <trkpt lat="43.66092" lon="3.87543">
        <ele>85.97373385214</ele>
        <time>2020-06-06T12:39:38.000Z</time>
      </trkpt>
      <trkpt lat="43.66091" lon="3.87551">
        <ele>85.487352529183</ele>
        <time>2020-06-06T12:39:39.000Z</time>
      </trkpt>
      <trkpt lat="43.66089" lon="3.87556">
        <ele>85.000971206226</ele>
        <time>2020-06-06T12:39:40.000Z</time>
      </trkpt>
      <trkpt lat="43.66086" lon="3.87563">
        <ele>84.514589883268</ele>
        <time>2020-06-06T12:39:41.000Z</time>
      </trkpt>
      <trkpt lat="43.66082" lon="3.87569">
        <ele>84.028208560311</ele>
        <time>2020-06-06T12:39:42.000Z</time>
      </trkpt>
      <trkpt lat="43.66078" lon="3.87575">
        <ele>83.541827237354</ele>
        <time>2020-06-06T12:39:43.000Z</time>
      </trkpt>
      <trkpt lat="43.66074" lon="3.87581">
        <ele>83.055445914397</ele>
        <time>2020-06-06T12:39:44.000Z</time>
      </trkpt>
      <trkpt lat="43.66071" lon="3.87587">
        <ele>82.56906459144</ele>
        <time>2020-06-06T12:39:45.000Z</time>
      </trkpt>
      <trkpt lat="43.66067" lon="3.87593">
        <ele>82.082683268482</ele>
        <time>2020-06-06T12:39:46.000Z</time>
      </trkpt>
      <trkpt lat="43.66064" lon="3.87599">
        <ele>81.573043621399</ele>
        <time>2020-06-06T12:39:47.000Z</time>
      </trkpt>
      <trkpt lat="43.6606" lon="3.87606">
        <ele>81.058640329218</ele>
        <time>2020-06-06T12:39:48.000Z</time>
      </trkpt>
      <trkpt lat="43.66058" lon="3.87613">
        <ele>80.544237037037</ele>
        <time>2020-06-06T12:39:49.000Z</time>
      </trkpt>
      <trkpt lat="43.66055" lon="3.8762">
        <ele>80.029833744856</ele>
        <time>2020-06-06T12:39:50.000Z</time>
      </trkpt>
      <trkpt lat="43.66052" lon="3.87627">
        <ele>79.515430452675</ele>
        <time>2020-06-06T12:39:51.000Z</time>
      </trkpt>
      <trkpt lat="43.6605" lon="3.87634">
        <ele>79.001027160494</ele>
        <time>2020-06-06T12:39:52.000Z</time>
      </trkpt>
      <trkpt lat="43.66047" lon="3.87642">
        <ele>78.486623868313</ele>
        <time>2020-06-06T12:39:53.000Z</time>
      </trkpt>
      <trkpt lat="43.66045" lon="3.87649">
        <ele>77.972220576132</ele>
        <time>2020-06-06T12:39:54.000Z</time>
      </trkpt>
      <trkpt lat="43.66042" lon="3.87657">
        <ele>77.457817283951</ele>
        <time>2020-06-06T12:39:55.000Z</time>
      </trkpt>
      <trkpt lat="43.66039" lon="3.87664">
        <ele>76.97799936</ele>
        <time>2020-06-06T12:39:56.000Z</time>
      </trkpt>
      <trkpt lat="43.66036" lon="3.87671">
        <ele>76.77799936</ele>
        <time>2020-06-06T12:39:57.000Z</time>
      </trkpt>
      <trkpt lat="43.66032" lon="3.87677">
        <ele>76.57799936</ele>
        <time>2020-06-06T12:39:58.000Z</time>
      </trkpt>
      <trkpt lat="43.66029" lon="3.87683">
        <ele>76.37799936</ele>
        <time>2020-06-06T12:39:59.000Z</time>
      </trkpt>
      <trkpt lat="43.66025" lon="3.87689">
        <ele>76.17799936</ele>
        <time>2020-06-06T12:40:00.000Z</time>
      </trkpt>
      <trkpt lat="43.66021" lon="3.87694">
        <ele>75.97799936</ele>
        <time>2020-06-06T12:40:01.000Z</time>
      </trkpt>
      <trkpt lat="43.66017" lon="3.87699">
        <ele>75.77799936</ele>
        <time>2020-06-06T12:40:02.000Z</time>
      </trkpt>
      <trkpt lat="43.66013" lon="3.87702">
        <ele>75.57799936</ele>
        <time>2020-06-06T12:40:03.000Z</time>
      </trkpt>
      <trkpt lat="43.6601" lon="3.87705">
        <ele>75.37799936</ele>
        <time>2020-06-06T12:40:04.000Z</time>
      </trkpt>
      <trkpt lat="43.66006" lon="3.87707">
        <ele>75.17799936</ele>
        <time>2020-06-06T12:40:05.000Z</time>
      </trkpt>
      <trkpt lat="43.66003" lon="3.8771">
        <ele>74.98899968</ele>
        <time>2020-06-06T12:40:06.000Z</time>
      </trkpt>
      <trkpt lat="43.66001" lon="3.87713">
        <ele>74.88899968</ele>
        <time>2020-06-06T12:40:07.000Z</time>
      </trkpt>
      <trkpt lat="43.65999" lon="3.87716">
        <ele>74.78899968</ele>
        <time>2020-06-06T12:40:08.000Z</time>
      </trkpt>
      <trkpt lat="43.65998" lon="3.87719">
        <ele>74.68899968</ele>
        <time>2020-06-06T12:40:09.000Z</time>
      </trkpt>
      <trkpt lat="43.65998" lon="3.87722">
        <ele>74.58899968</ele>
        <time>2020-06-06T12:40:10.000Z</time>
      </trkpt>
      <trkpt lat="43.65997" lon="3.87725">
        <ele>74.48899968</ele>
        <time>2020-06-06T12:40:11.000Z</time>
      </trkpt>
      <trkpt lat="43.65997" lon="3.87728">
        <ele>74.38899968</ele>
        <time>2020-06-06T12:40:12.000Z</time>
      </trkpt>
      <trkpt lat="43.65998" lon="3.87731">
        <ele>74.28899968</ele>
        <time>2020-06-06T12:40:13.000Z</time>
      </trkpt>
      <trkpt lat="43.65999" lon="3.87734">
        <ele>74.18899968</ele>
        <time>2020-06-06T12:40:14.000Z</time>
      </trkpt>
      <trkpt lat="43.66001" lon="3.87736">
        <ele>74.08899968</ele>
        <time>2020-06-06T12:40:15.000Z</time>
      </trkpt>
      <trkpt lat="43.66002" lon="3.87739">
        <ele>74</ele>
        <time>2020-06-06T12:40:16.000Z</time>
      </trkpt>
      <trkpt lat="43.66003" lon="3.87742">
        <ele>74</ele>
        <time>2020-06-06T12:40:17.000Z</time>
      </trkpt>
      <trkpt lat="43.66004" lon="3.87744">
        <ele>74</ele>
        <time>2020-06-06T12:40:18.000Z</time>
      </trkpt>
      <trkpt lat="43.66005" lon="3.87747">
        <ele>74</ele>
        <time>2020-06-06T12:40:19.000Z</time>
      </trkpt>
      <trkpt lat="43.66006" lon="3.8775">
        <ele>74</ele>
        <time>2020-06-06T12:40:20.000Z</time>
      </trkpt>
      <trkpt lat="43.66007" lon="3.87753">
        <ele>74</ele>
        <time>2020-06-06T12:40:21.000Z</time>
      </trkpt>
      <trkpt lat="43.66008" lon="3.87755">
        <ele>74</ele>
        <time>2020-06-06T12:40:22.000Z</time>
      </trkpt>
      <trkpt lat="43.66009" lon="3.87758">
        <ele>74</ele>
        <time>2020-06-06T12:40:23.000Z</time>
      </trkpt>
      <trkpt lat="43.6601" lon="3.87761">
        <ele>74</ele>
        <time>2020-06-06T12:40:24.000Z</time>
      </trkpt>
      <trkpt lat="43.66011" lon="3.87763">
        <ele>74</ele>
        <time>2020-06-06T12:40:25.000Z</time>
      </trkpt>
      <trkpt lat="43.66013" lon="3.87766">
        <ele>74.01098932013</ele>
        <time>2020-06-06T12:40:26.000Z</time>
      </trkpt>
      <trkpt lat="43.66014" lon="3.87768">
        <ele>74.110889324222</ele>
        <time>2020-06-06T12:40:27.000Z</time>
      </trkpt>
      <trkpt lat="43.66015" lon="3.87771">
        <ele>74.210789328314</ele>
        <time>2020-06-06T12:40:28.000Z</time>
      </trkpt>
      <trkpt lat="43.66016" lon="3.87774">
        <ele>74.310689332406</ele>
        <time>2020-06-06T12:40:29.000Z</time>
      </trkpt>
      <trkpt lat="43.66017" lon="3.87776">
        <ele>74.410589336498</ele>
        <time>2020-06-06T12:40:30.000Z</time>
      </trkpt>
      <trkpt lat="43.66018" lon="3.87779">
        <ele>74.51048934059</ele>
        <time>2020-06-06T12:40:31.000Z</time>
      </trkpt>
      <trkpt lat="43.66019" lon="3.87781">
        <ele>74.610389344682</ele>
        <time>2020-06-06T12:40:32.000Z</time>
      </trkpt>
      <trkpt lat="43.6602" lon="3.87784">
        <ele>74.710289348774</ele>
        <time>2020-06-06T12:40:33.000Z</time>
      </trkpt>
      <trkpt lat="43.66021" lon="3.87786">
        <ele>74.810189352865</ele>
        <time>2020-06-06T12:40:34.000Z</time>
      </trkpt>
      <trkpt lat="43.66022" lon="3.87788">
        <ele>74.910089356957</ele>
        <time>2020-06-06T12:40:35.000Z</time>
      </trkpt>
      <trkpt lat="43.66023" lon="3.87791">
        <ele>75.010009378988</ele>
        <time>2020-06-06T12:40:36.000Z</time>
      </trkpt>
      <trkpt lat="43.66024" lon="3.87793">
        <ele>75.110109575281</ele>
        <time>2020-06-06T12:40:37.000Z</time>
      </trkpt>
      <trkpt lat="43.66025" lon="3.87796">
        <ele>75.210209771573</ele>
        <time>2020-06-06T12:40:38.000Z</time>
      </trkpt>
      <trkpt lat="43.66026" lon="3.87798">
        <ele>75.310309967865</ele>
        <time>2020-06-06T12:40:39.000Z</time>
      </trkpt>
      <trkpt lat="43.66027" lon="3.87801">
        <ele>75.410410164158</ele>
        <time>2020-06-06T12:40:40.000Z</time>
      </trkpt>
      <trkpt lat="43.66028" lon="3.87803">
        <ele>75.51051036045</ele>
        <time>2020-06-06T12:40:41.000Z</time>
      </trkpt>
      <trkpt lat="43.66028" lon="3.87806">
        <ele>75.610610556743</ele>
        <time>2020-06-06T12:40:42.000Z</time>
      </trkpt>
      <trkpt lat="43.66029" lon="3.87809">
        <ele>75.710710753035</ele>
        <time>2020-06-06T12:40:43.000Z</time>
      </trkpt>
      <trkpt lat="43.6603" lon="3.87811">
        <ele>75.810810949328</ele>
        <time>2020-06-06T12:40:44.000Z</time>
      </trkpt>
      <trkpt lat="43.66031" lon="3.87813">
        <ele>75.91091114562</ele>
        <time>2020-06-06T12:40:45.000Z</time>
      </trkpt>
      <trkpt lat="43.66032" lon="3.87816">
        <ele>76.02200064</ele>
        <time>2020-06-06T12:40:46.000Z</time>
      </trkpt>
      <trkpt lat="43.66033" lon="3.87818">
        <ele>76.22200064</ele>
        <time>2020-06-06T12:40:47.000Z</time>
      </trkpt>
      <trkpt lat="43.66033" lon="3.87821">
        <ele>76.42200064</ele>
        <time>2020-06-06T12:40:48.000Z</time>
      </trkpt>
      <trkpt lat="43.66033" lon="3.87823">
        <ele>76.62200064</ele>
        <time>2020-06-06T12:40:49.000Z</time>
      </trkpt>
      <trkpt lat="43.66034" lon="3.87826">
        <ele>76.82200064</ele>
        <time>2020-06-06T12:40:50.000Z</time>
      </trkpt>
      <trkpt lat="43.66035" lon="3.87828">
        <ele>77.02200064</ele>
        <time>2020-06-06T12:40:51.000Z</time>
      </trkpt>
      <trkpt lat="43.66035" lon="3.8783">
        <ele>77.22200064</ele>
        <time>2020-06-06T12:40:52.000Z</time>
      </trkpt>
      <trkpt lat="43.66036" lon="3.87833">
        <ele>77.42200064</ele>
        <time>2020-06-06T12:40:53.000Z</time>
      </trkpt>
      <trkpt lat="43.66037" lon="3.87835">
        <ele>77.62200064</ele>
        <time>2020-06-06T12:40:54.000Z</time>
      </trkpt>
      <trkpt lat="43.66038" lon="3.87837">
        <ele>77.82200064</ele>
        <time>2020-06-06T12:40:55.000Z</time>
      </trkpt>
      <trkpt lat="43.66039" lon="3.87839">
        <ele>78.010752997614</ele>
        <time>2020-06-06T12:40:56.000Z</time>
      </trkpt>
      <trkpt lat="43.66041" lon="3.87843">
        <ele>78.206256357769</ele>
        <time>2020-06-06T12:40:58.000Z</time>
      </trkpt>
      <trkpt lat="43.66043" lon="3.87845">
        <ele>78.304008037847</ele>
        <time>2020-06-06T12:40:59.000Z</time>
      </trkpt>
      <trkpt lat="43.66044" lon="3.87847">
        <ele>78.401759717925</ele>
        <time>2020-06-06T12:41:00.000Z</time>
      </trkpt>
      <trkpt lat="43.66045" lon="3.8785">
        <ele>78.499511398002</ele>
        <time>2020-06-06T12:41:01.000Z</time>
      </trkpt>
      <trkpt lat="43.66045" lon="3.87853">
        <ele>78.59726307808</ele>
        <time>2020-06-06T12:41:02.000Z</time>
      </trkpt>
      <trkpt lat="43.66046" lon="3.87855">
        <ele>78.695014758158</ele>
        <time>2020-06-06T12:41:03.000Z</time>
      </trkpt>
      <trkpt lat="43.66046" lon="3.87858">
        <ele>78.792766438235</ele>
        <time>2020-06-06T12:41:04.000Z</time>
      </trkpt>
      <trkpt lat="43.66047" lon="3.8786">
        <ele>78.890518118313</ele>
        <time>2020-06-06T12:41:05.000Z</time>
      </trkpt>
      <trkpt lat="43.66048" lon="3.87863">
        <ele>78.988269798391</ele>
        <time>2020-06-06T12:41:06.000Z</time>
      </trkpt>
      <trkpt lat="43.6605" lon="3.87867">
        <ele>79.384851712541</ele>
        <time>2020-06-06T12:41:08.000Z</time>
      </trkpt>
      <trkpt lat="43.66052" lon="3.87871">
        <ele>79.79426842801</ele>
        <time>2020-06-06T12:41:10.000Z</time>
      </trkpt>
      <trkpt lat="43.66053" lon="3.87873">
        <ele>79.998976785745</ele>
        <time>2020-06-06T12:41:11.000Z</time>
      </trkpt>
      <trkpt lat="43.66054" lon="3.87875">
        <ele>80.203685143479</ele>
        <time>2020-06-06T12:41:12.000Z</time>
      </trkpt>
      <trkpt lat="43.66055" lon="3.87877">
        <ele>80.408393501214</ele>
        <time>2020-06-06T12:41:13.000Z</time>
      </trkpt>
      <trkpt lat="43.66056" lon="3.8788">
        <ele>80.613101858948</ele>
        <time>2020-06-06T12:41:14.000Z</time>
      </trkpt>
      <trkpt lat="43.66057" lon="3.87882">
        <ele>80.817810216683</ele>
        <time>2020-06-06T12:41:15.000Z</time>
      </trkpt>
      <trkpt lat="43.66058" lon="3.87885">
        <ele>81.01100032</ele>
        <time>2020-06-06T12:41:16.000Z</time>
      </trkpt>
      <trkpt lat="43.66059" lon="3.87888">
        <ele>81.11100032</ele>
        <time>2020-06-06T12:41:17.000Z</time>
      </trkpt>
      <trkpt lat="43.6606" lon="3.87891">
        <ele>81.21100032</ele>
        <time>2020-06-06T12:41:18.000Z</time>
      </trkpt>
      <trkpt lat="43.66061" lon="3.87894">
        <ele>81.31100032</ele>
        <time>2020-06-06T12:41:19.000Z</time>
      </trkpt>
      <trkpt lat="43.66062" lon="3.87897">
        <ele>81.41100032</ele>
        <time>2020-06-06T12:41:20.000Z</time>
      </trkpt>
      <trkpt lat="43.66063" lon="3.87899">
        <ele>81.51100032</ele>
        <time>2020-06-06T12:41:21.000Z</time>
      </trkpt>
      <trkpt lat="43.66065" lon="3.87902">
        <ele>81.61100032</ele>
        <time>2020-06-06T12:41:22.000Z</time>
      </trkpt>
      <trkpt lat="43.66066" lon="3.87904">
        <ele>81.71100032</ele>
        <time>2020-06-06T12:41:23.000Z</time>
      </trkpt>
      <trkpt lat="43.66067" lon="3.87907">
        <ele>81.81100032</ele>
        <time>2020-06-06T12:41:24.000Z</time>
      </trkpt>
      <trkpt lat="43.66068" lon="3.8791">
        <ele>81.91100032</ele>
        <time>2020-06-06T12:41:25.000Z</time>
      </trkpt>
      <trkpt lat="43.66069" lon="3.87912">
        <ele>82.021380609176</ele>
        <time>2020-06-06T12:41:26.000Z</time>
      </trkpt>
      <trkpt lat="43.66071" lon="3.87915">
        <ele>82.215744129289</ele>
        <time>2020-06-06T12:41:27.000Z</time>
      </trkpt>
      <trkpt lat="43.66072" lon="3.87917">
        <ele>82.410107649402</ele>
        <time>2020-06-06T12:41:28.000Z</time>
      </trkpt>
      <trkpt lat="43.66073" lon="3.87919">
        <ele>82.604471169515</ele>
        <time>2020-06-06T12:41:29.000Z</time>
      </trkpt>
      <trkpt lat="43.66075" lon="3.87922">
        <ele>82.798834689628</ele>
        <time>2020-06-06T12:41:30.000Z</time>
      </trkpt>
      <trkpt lat="43.66076" lon="3.87924">
        <ele>82.993198209741</ele>
        <time>2020-06-06T12:41:31.000Z</time>
      </trkpt>
      <trkpt lat="43.66078" lon="3.87927">
        <ele>83.187561729854</ele>
        <time>2020-06-06T12:41:32.000Z</time>
      </trkpt>
      <trkpt lat="43.66079" lon="3.87929">
        <ele>83.381925249967</ele>
        <time>2020-06-06T12:41:33.000Z</time>
      </trkpt>
      <trkpt lat="43.66081" lon="3.87932">
        <ele>83.57628877008</ele>
        <time>2020-06-06T12:41:34.000Z</time>
      </trkpt>
      <trkpt lat="43.66082" lon="3.87934">
        <ele>83.770652290193</ele>
        <time>2020-06-06T12:41:35.000Z</time>
      </trkpt>
      <trkpt lat="43.66084" lon="3.87937">
        <ele>83.965015810306</ele>
        <time>2020-06-06T12:41:36.000Z</time>
      </trkpt>
      <trkpt lat="43.66085" lon="3.87939">
        <ele>84</ele>
        <time>2020-06-06T12:41:37.000Z</time>
      </trkpt>
      <trkpt lat="43.66087" lon="3.87942">
        <ele>84</ele>
        <time>2020-06-06T12:41:38.000Z</time>
      </trkpt>
      <trkpt lat="43.66088" lon="3.87944">
        <ele>84</ele>
        <time>2020-06-06T12:41:39.000Z</time>
      </trkpt>
      <trkpt lat="43.6609" lon="3.87947">
        <ele>84</ele>
        <time>2020-06-06T12:41:40.000Z</time>
      </trkpt>
      <trkpt lat="43.66092" lon="3.8795">
        <ele>84</ele>
        <time>2020-06-06T12:41:41.000Z</time>
      </trkpt>
      <trkpt lat="43.66094" lon="3.87953">
        <ele>84</ele>
        <time>2020-06-06T12:41:42.000Z</time>
      </trkpt>
      <trkpt lat="43.66096" lon="3.87956">
        <ele>84</ele>
        <time>2020-06-06T12:41:43.000Z</time>
      </trkpt>
      <trkpt lat="43.66097" lon="3.8796">
        <ele>84</ele>
        <time>2020-06-06T12:41:44.000Z</time>
      </trkpt>
      <trkpt lat="43.66098" lon="3.87963">
        <ele>84</ele>
        <time>2020-06-06T12:41:45.000Z</time>
      </trkpt>
      <trkpt lat="43.661" lon="3.87966">
        <ele>84</ele>
        <time>2020-06-06T12:41:46.000Z</time>
      </trkpt>
      <trkpt lat="43.66101" lon="3.87969">
        <ele>84</ele>
        <time>2020-06-06T12:41:47.000Z</time>
      </trkpt>
      <trkpt lat="43.66102" lon="3.87972">
        <ele>84</ele>
        <time>2020-06-06T12:41:48.000Z</time>
      </trkpt>
      <trkpt lat="43.66103" lon="3.87974">
        <ele>84</ele>
        <time>2020-06-06T12:41:49.000Z</time>
      </trkpt>
      <trkpt lat="43.66105" lon="3.87977">
        <ele>84</ele>
        <time>2020-06-06T12:41:50.000Z</time>
      </trkpt>
      <trkpt lat="43.66107" lon="3.87979">
        <ele>84</ele>
        <time>2020-06-06T12:41:51.000Z</time>
      </trkpt>
      <trkpt lat="43.66109" lon="3.87982">
        <ele>84</ele>
        <time>2020-06-06T12:41:52.000Z</time>
      </trkpt>
      <trkpt lat="43.66111" lon="3.87984">
        <ele>84</ele>
        <time>2020-06-06T12:41:53.000Z</time>
      </trkpt>
      <trkpt lat="43.66113" lon="3.87988">
        <ele>84</ele>
        <time>2020-06-06T12:41:54.000Z</time>
      </trkpt>
      <trkpt lat="43.66114" lon="3.87991">
        <ele>84</ele>
        <time>2020-06-06T12:41:55.000Z</time>
      </trkpt>
      <trkpt lat="43.66116" lon="3.87994">
        <ele>84</ele>
        <time>2020-06-06T12:41:56.000Z</time>
      </trkpt>
      <trkpt lat="43.66118" lon="3.87998">
        <ele>84</ele>
        <time>2020-06-06T12:41:57.000Z</time>
      </trkpt>
      <trkpt lat="43.6612" lon="3.88002">
        <ele>84</ele>
        <time>2020-06-06T12:41:58.000Z</time>
      </trkpt>
      <trkpt lat="43.66122" lon="3.88006">
        <ele>84</ele>
        <time>2020-06-06T12:41:59.000Z</time>
      </trkpt>
      <trkpt lat="43.66124" lon="3.88009">
        <ele>84</ele>
        <time>2020-06-06T12:42:00.000Z</time>
      </trkpt>
      <trkpt lat="43.66127" lon="3.88012">
        <ele>84</ele>
        <time>2020-06-06T12:42:01.000Z</time>
      </trkpt>
      <trkpt lat="43.6613" lon="3.88016">
        <ele>84</ele>
        <time>2020-06-06T12:42:02.000Z</time>
      </trkpt>
      <trkpt lat="43.66133" lon="3.88019">
        <ele>84</ele>
        <time>2020-06-06T12:42:03.000Z</time>
      </trkpt>
      <trkpt lat="43.66136" lon="3.8802">
        <ele>84</ele>
        <time>2020-06-06T12:42:04.000Z</time>
      </trkpt>
      <trkpt lat="43.6614" lon="3.88022">
        <ele>84</ele>
        <time>2020-06-06T12:42:05.000Z</time>
      </trkpt>
      <trkpt lat="43.66144" lon="3.88022">
        <ele>83.978065171505</ele>
        <time>2020-06-06T12:42:06.000Z</time>
      </trkpt>
      <trkpt lat="43.66148" lon="3.88023">
        <ele>83.778663440506</ele>
        <time>2020-06-06T12:42:07.000Z</time>
      </trkpt>
      <trkpt lat="43.66152" lon="3.88024">
        <ele>83.579261709508</ele>
        <time>2020-06-06T12:42:08.000Z</time>
      </trkpt>
      <trkpt lat="43.66156" lon="3.88025">
        <ele>83.379859978509</ele>
        <time>2020-06-06T12:42:09.000Z</time>
      </trkpt>
      <trkpt lat="43.6616" lon="3.88027">
        <ele>83.180458247511</ele>
        <time>2020-06-06T12:42:10.000Z</time>
      </trkpt>
      <trkpt lat="43.66165" lon="3.8803">
        <ele>82.981056516512</ele>
        <time>2020-06-06T12:42:11.000Z</time>
      </trkpt>
      <trkpt lat="43.66169" lon="3.88034">
        <ele>82.781654785514</ele>
        <time>2020-06-06T12:42:12.000Z</time>
      </trkpt>
      <trkpt lat="43.66173" lon="3.88038">
        <ele>82.582253054516</ele>
        <time>2020-06-06T12:42:13.000Z</time>
      </trkpt>
      <trkpt lat="43.66177" lon="3.88043">
        <ele>82.382851323517</ele>
        <time>2020-06-06T12:42:14.000Z</time>
      </trkpt>
      <trkpt lat="43.66181" lon="3.88049">
        <ele>82.183449592519</ele>
        <time>2020-06-06T12:42:15.000Z</time>
      </trkpt>
      <trkpt lat="43.66184" lon="3.88055">
        <ele>81.975927775624</ele>
        <time>2020-06-06T12:42:16.000Z</time>
      </trkpt>
      <trkpt lat="43.66187" lon="3.8806">
        <ele>81.675024970921</ele>
        <time>2020-06-06T12:42:17.000Z</time>
      </trkpt>
      <trkpt lat="43.6619" lon="3.88063">
        <ele>81.374122166218</ele>
        <time>2020-06-06T12:42:18.000Z</time>
      </trkpt>
      <trkpt lat="43.66193" lon="3.88065">
        <ele>81.073219361515</ele>
        <time>2020-06-06T12:42:19.000Z</time>
      </trkpt>
      <trkpt lat="43.66197" lon="3.88064">
        <ele>80.772316556812</ele>
        <time>2020-06-06T12:42:20.000Z</time>
      </trkpt>
      <trkpt lat="43.66201" lon="3.88061">
        <ele>80.471413752109</ele>
        <time>2020-06-06T12:42:21.000Z</time>
      </trkpt>
      <trkpt lat="43.66207" lon="3.88058">
        <ele>80.170510947406</ele>
        <time>2020-06-06T12:42:22.000Z</time>
      </trkpt>
      <trkpt lat="43.66214" lon="3.88056">
        <ele>79.869608142703</ele>
        <time>2020-06-06T12:42:23.000Z</time>
      </trkpt>
      <trkpt lat="43.6622" lon="3.88053">
        <ele>79.568705338</ele>
        <time>2020-06-06T12:42:24.000Z</time>
      </trkpt>
      <trkpt lat="43.66226" lon="3.88049">
        <ele>79.267802533297</ele>
        <time>2020-06-06T12:42:25.000Z</time>
      </trkpt>
      <trkpt lat="43.66232" lon="3.88044">
        <ele>78.97799936</ele>
        <time>2020-06-06T12:42:26.000Z</time>
      </trkpt>
      <trkpt lat="43.66238" lon="3.8804">
        <ele>78.77799936</ele>
        <time>2020-06-06T12:42:27.000Z</time>
      </trkpt>
      <trkpt lat="43.66244" lon="3.88037">
        <ele>78.57799936</ele>
        <time>2020-06-06T12:42:28.000Z</time>
      </trkpt>
      <trkpt lat="43.66249" lon="3.88034">
        <ele>78.37799936</ele>
        <time>2020-06-06T12:42:29.000Z</time>
      </trkpt>
      <trkpt lat="43.66255" lon="3.88032">
        <ele>78.17799936</ele>
        <time>2020-06-06T12:42:30.000Z</time>
      </trkpt>
      <trkpt lat="43.6626" lon="3.8803">
        <ele>77.97799936</ele>
        <time>2020-06-06T12:42:31.000Z</time>
      </trkpt>
      <trkpt lat="43.66265" lon="3.88028">
        <ele>77.77799936</ele>
        <time>2020-06-06T12:42:32.000Z</time>
      </trkpt>
      <trkpt lat="43.6627" lon="3.88027">
        <ele>77.57799936</ele>
        <time>2020-06-06T12:42:33.000Z</time>
      </trkpt>
      <trkpt lat="43.66274" lon="3.88026">
        <ele>77.37799936</ele>
        <time>2020-06-06T12:42:34.000Z</time>
      </trkpt>
      <trkpt lat="43.66279" lon="3.88026">
        <ele>77.17799936</ele>
        <time>2020-06-06T12:42:35.000Z</time>
      </trkpt>
      <trkpt lat="43.66284" lon="3.88027">
        <ele>77</ele>
        <time>2020-06-06T12:42:36.000Z</time>
      </trkpt>
      <trkpt lat="43.66288" lon="3.88029">
        <ele>77</ele>
        <time>2020-06-06T12:42:37.000Z</time>
      </trkpt>
      <trkpt lat="43.66292" lon="3.88031">
        <ele>77</ele>
        <time>2020-06-06T12:42:38.000Z</time>
      </trkpt>
      <trkpt lat="43.66296" lon="3.88033">
        <ele>77</ele>
        <time>2020-06-06T12:42:39.000Z</time>
      </trkpt>
      <trkpt lat="43.66299" lon="3.88035">
        <ele>77</ele>
        <time>2020-06-06T12:42:40.000Z</time>
      </trkpt>
      <trkpt lat="43.66303" lon="3.88037">
        <ele>77</ele>
        <time>2020-06-06T12:42:41.000Z</time>
      </trkpt>
      <trkpt lat="43.66306" lon="3.8804">
        <ele>77</ele>
        <time>2020-06-06T12:42:42.000Z</time>
      </trkpt>
      <trkpt lat="43.66309" lon="3.88042">
        <ele>77</ele>
        <time>2020-06-06T12:42:43.000Z</time>
      </trkpt>
      <trkpt lat="43.66313" lon="3.88044">
        <ele>77</ele>
        <time>2020-06-06T12:42:44.000Z</time>
      </trkpt>
      <trkpt lat="43.66316" lon="3.88046">
        <ele>77</ele>
        <time>2020-06-06T12:42:45.000Z</time>
      </trkpt>
      <trkpt lat="43.6632" lon="3.88048">
        <ele>76.98899968</ele>
        <time>2020-06-06T12:42:46.000Z</time>
      </trkpt>
      <trkpt lat="43.66323" lon="3.8805">
        <ele>76.88899968</ele>
        <time>2020-06-06T12:42:47.000Z</time>
      </trkpt>
      <trkpt lat="43.66326" lon="3.88051">
        <ele>76.78899968</ele>
        <time>2020-06-06T12:42:48.000Z</time>
      </trkpt>
      <trkpt lat="43.66329" lon="3.88053">
        <ele>76.68899968</ele>
        <time>2020-06-06T12:42:49.000Z</time>
      </trkpt>
      <trkpt lat="43.66332" lon="3.88055">
        <ele>76.58899968</ele>
        <time>2020-06-06T12:42:50.000Z</time>
      </trkpt>
      <trkpt lat="43.66336" lon="3.88057">
        <ele>76.48899968</ele>
        <time>2020-06-06T12:42:51.000Z</time>
      </trkpt>
      <trkpt lat="43.66339" lon="3.88059">
        <ele>76.38899968</ele>
        <time>2020-06-06T12:42:52.000Z</time>
      </trkpt>
      <trkpt lat="43.66342" lon="3.8806">
        <ele>76.28899968</ele>
        <time>2020-06-06T12:42:53.000Z</time>
      </trkpt>
      <trkpt lat="43.66345" lon="3.88062">
        <ele>76.18899968</ele>
        <time>2020-06-06T12:42:54.000Z</time>
      </trkpt>
      <trkpt lat="43.66348" lon="3.88064">
        <ele>76.08899968</ele>
        <time>2020-06-06T12:42:55.000Z</time>
      </trkpt>
      <trkpt lat="43.66351" lon="3.88066">
        <ele>76.01100032</ele>
        <time>2020-06-06T12:42:56.000Z</time>
      </trkpt>
      <trkpt lat="43.66354" lon="3.88068">
        <ele>76.11100032</ele>
        <time>2020-06-06T12:42:57.000Z</time>
      </trkpt>
      <trkpt lat="43.66357" lon="3.88069">
        <ele>76.21100032</ele>
        <time>2020-06-06T12:42:58.000Z</time>
      </trkpt>
      <trkpt lat="43.6636" lon="3.88071">
        <ele>76.31100032</ele>
        <time>2020-06-06T12:42:59.000Z</time>
      </trkpt>
      <trkpt lat="43.66363" lon="3.88073">
        <ele>76.41100032</ele>
        <time>2020-06-06T12:43:00.000Z</time>
      </trkpt>
      <trkpt lat="43.66366" lon="3.88074">
        <ele>76.51100032</ele>
        <time>2020-06-06T12:43:01.000Z</time>
      </trkpt>
      <trkpt lat="43.6637" lon="3.88076">
        <ele>76.61100032</ele>
        <time>2020-06-06T12:43:02.000Z</time>
      </trkpt>
      <trkpt lat="43.66373" lon="3.88078">
        <ele>76.71100032</ele>
        <time>2020-06-06T12:43:03.000Z</time>
      </trkpt>
      <trkpt lat="43.66376" lon="3.88079">
        <ele>76.81100032</ele>
        <time>2020-06-06T12:43:04.000Z</time>
      </trkpt>
      <trkpt lat="43.66379" lon="3.88081">
        <ele>76.91100032</ele>
        <time>2020-06-06T12:43:05.000Z</time>
      </trkpt>
      <trkpt lat="43.66382" lon="3.88083">
        <ele>77.010859154467</ele>
        <time>2020-06-06T12:43:06.000Z</time>
      </trkpt>
      <trkpt lat="43.66385" lon="3.88085">
        <ele>77.10957586877</ele>
        <time>2020-06-06T12:43:07.000Z</time>
      </trkpt>
      <trkpt lat="43.66388" lon="3.88086">
        <ele>77.208292583074</ele>
        <time>2020-06-06T12:43:08.000Z</time>
      </trkpt>
      <trkpt lat="43.66391" lon="3.88088">
        <ele>77.307009297377</ele>
        <time>2020-06-06T12:43:09.000Z</time>
      </trkpt>
      <trkpt lat="43.66394" lon="3.8809">
        <ele>77.40572601168</ele>
        <time>2020-06-06T12:43:10.000Z</time>
      </trkpt>
      <trkpt lat="43.66397" lon="3.88092">
        <ele>77.504442725984</ele>
        <time>2020-06-06T12:43:11.000Z</time>
      </trkpt>
      <trkpt lat="43.664" lon="3.88094">
        <ele>77.603159440287</ele>
        <time>2020-06-06T12:43:12.000Z</time>
      </trkpt>
      <trkpt lat="43.66403" lon="3.88095">
        <ele>77.701876154591</ele>
        <time>2020-06-06T12:43:13.000Z</time>
      </trkpt>
      <trkpt lat="43.66406" lon="3.88097">
        <ele>77.800592868894</ele>
        <time>2020-06-06T12:43:14.000Z</time>
      </trkpt>
      <trkpt lat="43.66409" lon="3.88099">
        <ele>77.899309583198</ele>
        <time>2020-06-06T12:43:15.000Z</time>
      </trkpt>
      <trkpt lat="43.66412" lon="3.88101">
        <ele>77.998026297501</ele>
        <time>2020-06-06T12:43:16.000Z</time>
      </trkpt>
      <trkpt lat="43.66416" lon="3.88103">
        <ele>78.09929139638</ele>
        <time>2020-06-06T12:43:17.000Z</time>
      </trkpt>
      <trkpt lat="43.66419" lon="3.88104">
        <ele>78.200608486125</ele>
        <time>2020-06-06T12:43:18.000Z</time>
      </trkpt>
      <trkpt lat="43.66422" lon="3.88106">
        <ele>78.30192557587</ele>
        <time>2020-06-06T12:43:19.000Z</time>
      </trkpt>
      <trkpt lat="43.66425" lon="3.88108">
        <ele>78.403242665615</ele>
        <time>2020-06-06T12:43:20.000Z</time>
      </trkpt>
      <trkpt lat="43.66428" lon="3.8811">
        <ele>78.504559755361</ele>
        <time>2020-06-06T12:43:21.000Z</time>
      </trkpt>
      <trkpt lat="43.66431" lon="3.88112">
        <ele>78.605876845106</ele>
        <time>2020-06-06T12:43:22.000Z</time>
      </trkpt>
      <trkpt lat="43.66434" lon="3.88114">
        <ele>78.707193934851</ele>
        <time>2020-06-06T12:43:23.000Z</time>
      </trkpt>
      <trkpt lat="43.66437" lon="3.88116">
        <ele>78.808511024596</ele>
        <time>2020-06-06T12:43:24.000Z</time>
      </trkpt>
      <trkpt lat="43.6644" lon="3.88119">
        <ele>78.909828114341</ele>
        <time>2020-06-06T12:43:25.000Z</time>
      </trkpt>
      <trkpt lat="43.66443" lon="3.88122">
        <ele>79.01100032</ele>
        <time>2020-06-06T12:43:26.000Z</time>
      </trkpt>
      <trkpt lat="43.66446" lon="3.88125">
        <ele>79.11100032</ele>
        <time>2020-06-06T12:43:27.000Z</time>
      </trkpt>
      <trkpt lat="43.66448" lon="3.88127">
        <ele>79.21100032</ele>
        <time>2020-06-06T12:43:28.000Z</time>
      </trkpt>
      <trkpt lat="43.66451" lon="3.8813">
        <ele>79.31100032</ele>
        <time>2020-06-06T12:43:29.000Z</time>
      </trkpt>
      <trkpt lat="43.66454" lon="3.88133">
        <ele>79.41100032</ele>
        <time>2020-06-06T12:43:30.000Z</time>
      </trkpt>
      <trkpt lat="43.66457" lon="3.88135">
        <ele>79.51100032</ele>
        <time>2020-06-06T12:43:31.000Z</time>
      </trkpt>
      <trkpt lat="43.66459" lon="3.88138">
        <ele>79.61100032</ele>
        <time>2020-06-06T12:43:32.000Z</time>
      </trkpt>
      <trkpt lat="43.66462" lon="3.88141">
        <ele>79.71100032</ele>
        <time>2020-06-06T12:43:33.000Z</time>
      </trkpt>
      <trkpt lat="43.66465" lon="3.88143">
        <ele>79.81100032</ele>
        <time>2020-06-06T12:43:34.000Z</time>
      </trkpt>
      <trkpt lat="43.66468" lon="3.88146">
        <ele>79.91100032</ele>
        <time>2020-06-06T12:43:35.000Z</time>
      </trkpt>
      <trkpt lat="43.6647" lon="3.88149">
        <ele>80</ele>
        <time>2020-06-06T12:43:36.000Z</time>
      </trkpt>
      <trkpt lat="43.66473" lon="3.88151">
        <ele>80</ele>
        <time>2020-06-06T12:43:37.000Z</time>
      </trkpt>
      <trkpt lat="43.66476" lon="3.88153">
        <ele>80</ele>
        <time>2020-06-06T12:43:38.000Z</time>
      </trkpt>
      <trkpt lat="43.66478" lon="3.88156">
        <ele>80</ele>
        <time>2020-06-06T12:43:39.000Z</time>
      </trkpt>
      <trkpt lat="43.66481" lon="3.88158">
        <ele>80</ele>
        <time>2020-06-06T12:43:40.000Z</time>
      </trkpt>
      <trkpt lat="43.66484" lon="3.88161">
        <ele>80</ele>
        <time>2020-06-06T12:43:41.000Z</time>
      </trkpt>
      <trkpt lat="43.66486" lon="3.88163">
        <ele>80</ele>
        <time>2020-06-06T12:43:42.000Z</time>
      </trkpt>
      <trkpt lat="43.66489" lon="3.88166">
        <ele>80</ele>
        <time>2020-06-06T12:43:43.000Z</time>
      </trkpt>
      <trkpt lat="43.66492" lon="3.88168">
        <ele>80</ele>
        <time>2020-06-06T12:43:44.000Z</time>
      </trkpt>
      <trkpt lat="43.66495" lon="3.8817">
        <ele>80</ele>
        <time>2020-06-06T12:43:45.000Z</time>
      </trkpt>
      <trkpt lat="43.66498" lon="3.88173">
        <ele>80.010009378988</ele>
        <time>2020-06-06T12:43:46.000Z</time>
      </trkpt>
      <trkpt lat="43.665" lon="3.88175">
        <ele>80.110109575281</ele>
        <time>2020-06-06T12:43:47.000Z</time>
      </trkpt>
      <trkpt lat="43.66503" lon="3.88177">
        <ele>80.210209771573</ele>
        <time>2020-06-06T12:43:48.000Z</time>
      </trkpt>
      <trkpt lat="43.66506" lon="3.88179">
        <ele>80.310309967865</ele>
        <time>2020-06-06T12:43:49.000Z</time>
      </trkpt>
      <trkpt lat="43.66509" lon="3.88181">
        <ele>80.410410164158</ele>
        <time>2020-06-06T12:43:50.000Z</time>
      </trkpt>
      <trkpt lat="43.66511" lon="3.88183">
        <ele>80.51051036045</ele>
        <time>2020-06-06T12:43:51.000Z</time>
      </trkpt>
      <trkpt lat="43.66514" lon="3.88186">
        <ele>80.610610556743</ele>
        <time>2020-06-06T12:43:52.000Z</time>
      </trkpt>
      <trkpt lat="43.66517" lon="3.88188">
        <ele>80.710710753035</ele>
        <time>2020-06-06T12:43:53.000Z</time>
      </trkpt>
      <trkpt lat="43.66519" lon="3.8819">
        <ele>80.810810949328</ele>
        <time>2020-06-06T12:43:54.000Z</time>
      </trkpt>
      <trkpt lat="43.66522" lon="3.88192">
        <ele>80.91091114562</ele>
        <time>2020-06-06T12:43:55.000Z</time>
      </trkpt>
      <trkpt lat="43.66525" lon="3.88195">
        <ele>81.01100032</ele>
        <time>2020-06-06T12:43:56.000Z</time>
      </trkpt>
      <trkpt lat="43.66528" lon="3.88198">
        <ele>81.11100032</ele>
        <time>2020-06-06T12:43:57.000Z</time>
      </trkpt>
      <trkpt lat="43.66531" lon="3.882">
        <ele>81.21100032</ele>
        <time>2020-06-06T12:43:58.000Z</time>
      </trkpt>
      <trkpt lat="43.66533" lon="3.88203">
        <ele>81.31100032</ele>
        <time>2020-06-06T12:43:59.000Z</time>
      </trkpt>
      <trkpt lat="43.66536" lon="3.88206">
        <ele>81.41100032</ele>
        <time>2020-06-06T12:44:00.000Z</time>
      </trkpt>
      <trkpt lat="43.66539" lon="3.88209">
        <ele>81.51100032</ele>
        <time>2020-06-06T12:44:01.000Z</time>
      </trkpt>
      <trkpt lat="43.66541" lon="3.88212">
        <ele>81.61100032</ele>
        <time>2020-06-06T12:44:02.000Z</time>
      </trkpt>
      <trkpt lat="43.66544" lon="3.88215">
        <ele>81.71100032</ele>
        <time>2020-06-06T12:44:03.000Z</time>
      </trkpt>
      <trkpt lat="43.66546" lon="3.88218">
        <ele>81.81100032</ele>
        <time>2020-06-06T12:44:04.000Z</time>
      </trkpt>
      <trkpt lat="43.66549" lon="3.88222">
        <ele>81.91100032</ele>
        <time>2020-06-06T12:44:05.000Z</time>
      </trkpt>
      <trkpt lat="43.66551" lon="3.88226">
        <ele>82.01100032</ele>
        <time>2020-06-06T12:44:06.000Z</time>
      </trkpt>
      <trkpt lat="43.66553" lon="3.88229">
        <ele>82.11100032</ele>
        <time>2020-06-06T12:44:07.000Z</time>
      </trkpt>
      <trkpt lat="43.66555" lon="3.88233">
        <ele>82.21100032</ele>
        <time>2020-06-06T12:44:08.000Z</time>
      </trkpt>
      <trkpt lat="43.66557" lon="3.88236">
        <ele>82.31100032</ele>
        <time>2020-06-06T12:44:09.000Z</time>
      </trkpt>
      <trkpt lat="43.66559" lon="3.8824">
        <ele>82.41100032</ele>
        <time>2020-06-06T12:44:10.000Z</time>
      </trkpt>
      <trkpt lat="43.66561" lon="3.88243">
        <ele>82.51100032</ele>
        <time>2020-06-06T12:44:11.000Z</time>
      </trkpt>
      <trkpt lat="43.66564" lon="3.88246">
        <ele>82.61100032</ele>
        <time>2020-06-06T12:44:12.000Z</time>
      </trkpt>
      <trkpt lat="43.66566" lon="3.88249">
        <ele>82.71100032</ele>
        <time>2020-06-06T12:44:13.000Z</time>
      </trkpt>
      <trkpt lat="43.66569" lon="3.88251">
        <ele>82.81100032</ele>
        <time>2020-06-06T12:44:14.000Z</time>
      </trkpt>
      <trkpt lat="43.66572" lon="3.88253">
        <ele>82.91100032</ele>
        <time>2020-06-06T12:44:15.000Z</time>
      </trkpt>
      <trkpt lat="43.66574" lon="3.88255">
        <ele>83.010816430301</ele>
        <time>2020-06-06T12:44:16.000Z</time>
      </trkpt>
      <trkpt lat="43.66577" lon="3.88257">
        <ele>83.109144754396</ele>
        <time>2020-06-06T12:44:17.000Z</time>
      </trkpt>
      <trkpt lat="43.6658" lon="3.88258">
        <ele>83.207473078492</ele>
        <time>2020-06-06T12:44:18.000Z</time>
      </trkpt>
      <trkpt lat="43.66583" lon="3.88259">
        <ele>83.305801402587</ele>
        <time>2020-06-06T12:44:19.000Z</time>
      </trkpt>
      <trkpt lat="43.66586" lon="3.88258">
        <ele>83.404129726682</ele>
        <time>2020-06-06T12:44:20.000Z</time>
      </trkpt>
      <trkpt lat="43.66589" lon="3.88256">
        <ele>83.502458050777</ele>
        <time>2020-06-06T12:44:21.000Z</time>
      </trkpt>
      <trkpt lat="43.6659" lon="3.88254">
        <ele>83.600786374872</ele>
        <time>2020-06-06T12:44:22.000Z</time>
      </trkpt>
      <trkpt lat="43.66592" lon="3.88254">
        <ele>83.699114698967</ele>
        <time>2020-06-06T12:44:23.000Z</time>
      </trkpt>
      <trkpt lat="43.66593" lon="3.88258">
        <ele>83.895771347158</ele>
        <time>2020-06-06T12:44:25.000Z</time>
      </trkpt>
      <trkpt lat="43.66594" lon="3.88261">
        <ele>83.994099671253</ele>
        <time>2020-06-06T12:44:26.000Z</time>
      </trkpt>
      <trkpt lat="43.66595" lon="3.88265">
        <ele>84</ele>
        <time>2020-06-06T12:44:27.000Z</time>
      </trkpt>
      <trkpt lat="43.66596" lon="3.88268">
        <ele>84</ele>
        <time>2020-06-06T12:44:28.000Z</time>
      </trkpt>
      <trkpt lat="43.66597" lon="3.88271">
        <ele>84</ele>
        <time>2020-06-06T12:44:29.000Z</time>
      </trkpt>
      <trkpt lat="43.66598" lon="3.88275">
        <ele>84</ele>
        <time>2020-06-06T12:44:30.000Z</time>
      </trkpt>
      <trkpt lat="43.666" lon="3.88279">
        <ele>84</ele>
        <time>2020-06-06T12:44:31.000Z</time>
      </trkpt>
      <trkpt lat="43.66603" lon="3.88284">
        <ele>84</ele>
        <time>2020-06-06T12:44:32.000Z</time>
      </trkpt>
      <trkpt lat="43.66605" lon="3.8829">
        <ele>84</ele>
        <time>2020-06-06T12:44:33.000Z</time>
      </trkpt>
      <trkpt lat="43.66607" lon="3.88296">
        <ele>84</ele>
        <time>2020-06-06T12:44:34.000Z</time>
      </trkpt>
      <trkpt lat="43.6661" lon="3.88301">
        <ele>84</ele>
        <time>2020-06-06T12:44:35.000Z</time>
      </trkpt>
      <trkpt lat="43.66613" lon="3.88306">
        <ele>84</ele>
        <time>2020-06-06T12:44:36.000Z</time>
      </trkpt>
      <trkpt lat="43.66616" lon="3.88311">
        <ele>84</ele>
        <time>2020-06-06T12:44:37.000Z</time>
      </trkpt>
      <trkpt lat="43.6662" lon="3.88316">
        <ele>84</ele>
        <time>2020-06-06T12:44:38.000Z</time>
      </trkpt>
      <trkpt lat="43.66623" lon="3.8832">
        <ele>84</ele>
        <time>2020-06-06T12:44:39.000Z</time>
      </trkpt>
      <trkpt lat="43.66627" lon="3.88325">
        <ele>84</ele>
        <time>2020-06-06T12:44:40.000Z</time>
      </trkpt>
      <trkpt lat="43.6663" lon="3.8833">
        <ele>84</ele>
        <time>2020-06-06T12:44:41.000Z</time>
      </trkpt>
      <trkpt lat="43.66633" lon="3.88335">
        <ele>84</ele>
        <time>2020-06-06T12:44:42.000Z</time>
      </trkpt>
      <trkpt lat="43.66637" lon="3.8834">
        <ele>84</ele>
        <time>2020-06-06T12:44:43.000Z</time>
      </trkpt>
      <trkpt lat="43.6664" lon="3.88345">
        <ele>84</ele>
        <time>2020-06-06T12:44:44.000Z</time>
      </trkpt>
      <trkpt lat="43.66644" lon="3.88349">
        <ele>84</ele>
        <time>2020-06-06T12:44:45.000Z</time>
      </trkpt>
      <trkpt lat="43.66648" lon="3.88353">
        <ele>84</ele>
        <time>2020-06-06T12:44:46.000Z</time>
      </trkpt>
      <trkpt lat="43.66651" lon="3.88357">
        <ele>84</ele>
        <time>2020-06-06T12:44:47.000Z</time>
      </trkpt>
      <trkpt lat="43.66655" lon="3.8836">
        <ele>84</ele>
        <time>2020-06-06T12:44:48.000Z</time>
      </trkpt>
      <trkpt lat="43.66658" lon="3.88363">
        <ele>84</ele>
        <time>2020-06-06T12:44:49.000Z</time>
      </trkpt>
      <trkpt lat="43.66662" lon="3.88366">
        <ele>84</ele>
        <time>2020-06-06T12:44:50.000Z</time>
      </trkpt>
      <trkpt lat="43.66665" lon="3.8837">
        <ele>84</ele>
        <time>2020-06-06T12:44:51.000Z</time>
      </trkpt>
      <trkpt lat="43.66669" lon="3.88374">
        <ele>84</ele>
        <time>2020-06-06T12:44:52.000Z</time>
      </trkpt>
      <trkpt lat="43.66673" lon="3.88377">
        <ele>84</ele>
        <time>2020-06-06T12:44:53.000Z</time>
      </trkpt>
      <trkpt lat="43.66676" lon="3.8838">
        <ele>84</ele>
        <time>2020-06-06T12:44:54.000Z</time>
      </trkpt>
      <trkpt lat="43.6668" lon="3.88382">
        <ele>84</ele>
        <time>2020-06-06T12:44:55.000Z</time>
      </trkpt>
      <trkpt lat="43.66684" lon="3.88385">
        <ele>84</ele>
        <time>2020-06-06T12:44:56.000Z</time>
      </trkpt>
      <trkpt lat="43.66687" lon="3.88388">
        <ele>84</ele>
        <time>2020-06-06T12:44:57.000Z</time>
      </trkpt>
      <trkpt lat="43.66691" lon="3.8839">
        <ele>84</ele>
        <time>2020-06-06T12:44:58.000Z</time>
      </trkpt>
      <trkpt lat="43.66694" lon="3.88392">
        <ele>84</ele>
        <time>2020-06-06T12:44:59.000Z</time>
      </trkpt>
      <trkpt lat="43.66697" lon="3.88395">
        <ele>84</ele>
        <time>2020-06-06T12:45:00.000Z</time>
      </trkpt>
      <trkpt lat="43.667" lon="3.88398">
        <ele>84</ele>
        <time>2020-06-06T12:45:01.000Z</time>
      </trkpt>
      <trkpt lat="43.66703" lon="3.88401">
        <ele>84</ele>
        <time>2020-06-06T12:45:02.000Z</time>
      </trkpt>
      <trkpt lat="43.66707" lon="3.88404">
        <ele>84</ele>
        <time>2020-06-06T12:45:03.000Z</time>
      </trkpt>
      <trkpt lat="43.6671" lon="3.88406">
        <ele>84</ele>
        <time>2020-06-06T12:45:04.000Z</time>
      </trkpt>
      <trkpt lat="43.66714" lon="3.88408">
        <ele>84</ele>
        <time>2020-06-06T12:45:05.000Z</time>
      </trkpt>
      <trkpt lat="43.66718" lon="3.88408">
        <ele>84.01100032</ele>
        <time>2020-06-06T12:45:06.000Z</time>
      </trkpt>
      <trkpt lat="43.66722" lon="3.88409">
        <ele>84.11100032</ele>
        <time>2020-06-06T12:45:07.000Z</time>
      </trkpt>
      <trkpt lat="43.66725" lon="3.8841">
        <ele>84.21100032</ele>
        <time>2020-06-06T12:45:08.000Z</time>
      </trkpt>
      <trkpt lat="43.66729" lon="3.88411">
        <ele>84.31100032</ele>
        <time>2020-06-06T12:45:09.000Z</time>
      </trkpt>
      <trkpt lat="43.66732" lon="3.88411">
        <ele>84.41100032</ele>
        <time>2020-06-06T12:45:10.000Z</time>
      </trkpt>
      <trkpt lat="43.66736" lon="3.8841">
        <ele>84.51100032</ele>
        <time>2020-06-06T12:45:11.000Z</time>
      </trkpt>
      <trkpt lat="43.66739" lon="3.88409">
        <ele>84.61100032</ele>
        <time>2020-06-06T12:45:12.000Z</time>
      </trkpt>
      <trkpt lat="43.66742" lon="3.88407">
        <ele>84.71100032</ele>
        <time>2020-06-06T12:45:13.000Z</time>
      </trkpt>
      <trkpt lat="43.66744" lon="3.88405">
        <ele>84.81100032</ele>
        <time>2020-06-06T12:45:14.000Z</time>
      </trkpt>
      <trkpt lat="43.66747" lon="3.88402">
        <ele>84.91100032</ele>
        <time>2020-06-06T12:45:15.000Z</time>
      </trkpt>
      <trkpt lat="43.6675" lon="3.88399">
        <ele>85.01100032</ele>
        <time>2020-06-06T12:45:16.000Z</time>
      </trkpt>
      <trkpt lat="43.66752" lon="3.88396">
        <ele>85.11100032</ele>
        <time>2020-06-06T12:45:17.000Z</time>
      </trkpt>
      <trkpt lat="43.66754" lon="3.88393">
        <ele>85.21100032</ele>
        <time>2020-06-06T12:45:18.000Z</time>
      </trkpt>
      <trkpt lat="43.66756" lon="3.8839">
        <ele>85.31100032</ele>
        <time>2020-06-06T12:45:19.000Z</time>
      </trkpt>
      <trkpt lat="43.66759" lon="3.88388">
        <ele>85.41100032</ele>
        <time>2020-06-06T12:45:20.000Z</time>
      </trkpt>
      <trkpt lat="43.6676" lon="3.88385">
        <ele>85.51100032</ele>
        <time>2020-06-06T12:45:21.000Z</time>
      </trkpt>
      <trkpt lat="43.66762" lon="3.88382">
        <ele>85.61100032</ele>
        <time>2020-06-06T12:45:22.000Z</time>
      </trkpt>
      <trkpt lat="43.66765" lon="3.88379">
        <ele>85.71100032</ele>
        <time>2020-06-06T12:45:23.000Z</time>
      </trkpt>
      <trkpt lat="43.66767" lon="3.88377">
        <ele>85.81100032</ele>
        <time>2020-06-06T12:45:24.000Z</time>
      </trkpt>
      <trkpt lat="43.66769" lon="3.88375">
        <ele>85.91100032</ele>
        <time>2020-06-06T12:45:25.000Z</time>
      </trkpt>
      <trkpt lat="43.66772" lon="3.88374">
        <ele>86.02200064</ele>
        <time>2020-06-06T12:45:26.000Z</time>
      </trkpt>
      <trkpt lat="43.66775" lon="3.88374">
        <ele>86.22200064</ele>
        <time>2020-06-06T12:45:27.000Z</time>
      </trkpt>
      <trkpt lat="43.66777" lon="3.88374">
        <ele>86.42200064</ele>
        <time>2020-06-06T12:45:28.000Z</time>
      </trkpt>
      <trkpt lat="43.66779" lon="3.88376">
        <ele>86.62200064</ele>
        <time>2020-06-06T12:45:29.000Z</time>
      </trkpt>
      <trkpt lat="43.66781" lon="3.88378">
        <ele>86.82200064</ele>
        <time>2020-06-06T12:45:30.000Z</time>
      </trkpt>
      <trkpt lat="43.66782" lon="3.88381">
        <ele>87.02200064</ele>
        <time>2020-06-06T12:45:31.000Z</time>
      </trkpt>
      <trkpt lat="43.66782" lon="3.88384">
        <ele>87.22200064</ele>
        <time>2020-06-06T12:45:32.000Z</time>
      </trkpt>
      <trkpt lat="43.66782" lon="3.88388">
        <ele>87.42200064</ele>
        <time>2020-06-06T12:45:33.000Z</time>
      </trkpt>
      <trkpt lat="43.66781" lon="3.88393">
        <ele>87.62200064</ele>
        <time>2020-06-06T12:45:34.000Z</time>
      </trkpt>
      <trkpt lat="43.6678" lon="3.88398">
        <ele>87.82200064</ele>
        <time>2020-06-06T12:45:35.000Z</time>
      </trkpt>
      <trkpt lat="43.6678" lon="3.88403">
        <ele>87.98899968</ele>
        <time>2020-06-06T12:45:36.000Z</time>
      </trkpt>
      <trkpt lat="43.6678" lon="3.88408">
        <ele>87.88899968</ele>
        <time>2020-06-06T12:45:37.000Z</time>
      </trkpt>
      <trkpt lat="43.66781" lon="3.88413">
        <ele>87.78899968</ele>
        <time>2020-06-06T12:45:38.000Z</time>
      </trkpt>
      <trkpt lat="43.66783" lon="3.88417">
        <ele>87.68899968</ele>
        <time>2020-06-06T12:45:39.000Z</time>
      </trkpt>
      <trkpt lat="43.66785" lon="3.88422">
        <ele>87.58899968</ele>
        <time>2020-06-06T12:45:40.000Z</time>
      </trkpt>
      <trkpt lat="43.66788" lon="3.88426">
        <ele>87.48899968</ele>
        <time>2020-06-06T12:45:41.000Z</time>
      </trkpt>
      <trkpt lat="43.66792" lon="3.88432">
        <ele>87.38899968</ele>
        <time>2020-06-06T12:45:42.000Z</time>
      </trkpt>
      <trkpt lat="43.66796" lon="3.88437">
        <ele>87.28899968</ele>
        <time>2020-06-06T12:45:43.000Z</time>
      </trkpt>
      <trkpt lat="43.668" lon="3.88442">
        <ele>87.18899968</ele>
        <time>2020-06-06T12:45:44.000Z</time>
      </trkpt>
      <trkpt lat="43.66804" lon="3.88446">
        <ele>87.08899968</ele>
        <time>2020-06-06T12:45:45.000Z</time>
      </trkpt>
      <trkpt lat="43.66809" lon="3.8845">
        <ele>87</ele>
        <time>2020-06-06T12:45:46.000Z</time>
      </trkpt>
      <trkpt lat="43.66813" lon="3.88455">
        <ele>87</ele>
        <time>2020-06-06T12:45:47.000Z</time>
      </trkpt>
      <trkpt lat="43.66817" lon="3.88461">
        <ele>87</ele>
        <time>2020-06-06T12:45:48.000Z</time>
      </trkpt>
      <trkpt lat="43.6682" lon="3.88466">
        <ele>87</ele>
        <time>2020-06-06T12:45:49.000Z</time>
      </trkpt>
      <trkpt lat="43.66824" lon="3.88471">
        <ele>87</ele>
        <time>2020-06-06T12:45:50.000Z</time>
      </trkpt>
      <trkpt lat="43.66827" lon="3.88475">
        <ele>87</ele>
        <time>2020-06-06T12:45:51.000Z</time>
      </trkpt>
      <trkpt lat="43.66831" lon="3.88479">
        <ele>87</ele>
        <time>2020-06-06T12:45:52.000Z</time>
      </trkpt>
      <trkpt lat="43.66834" lon="3.88481">
        <ele>87</ele>
        <time>2020-06-06T12:45:53.000Z</time>
      </trkpt>
      <trkpt lat="43.66838" lon="3.88481">
        <ele>87</ele>
        <time>2020-06-06T12:45:54.000Z</time>
      </trkpt>
      <trkpt lat="43.66842" lon="3.8848">
        <ele>87</ele>
        <time>2020-06-06T12:45:55.000Z</time>
      </trkpt>
      <trkpt lat="43.66845" lon="3.88479">
        <ele>87.01100032</ele>
        <time>2020-06-06T12:45:56.000Z</time>
      </trkpt>
      <trkpt lat="43.66848" lon="3.88478">
        <ele>87.11100032</ele>
        <time>2020-06-06T12:45:57.000Z</time>
      </trkpt>
      <trkpt lat="43.66852" lon="3.88476">
        <ele>87.21100032</ele>
        <time>2020-06-06T12:45:58.000Z</time>
      </trkpt>
      <trkpt lat="43.66855" lon="3.88475">
        <ele>87.31100032</ele>
        <time>2020-06-06T12:45:59.000Z</time>
      </trkpt>
      <trkpt lat="43.66858" lon="3.88474">
        <ele>87.41100032</ele>
        <time>2020-06-06T12:46:00.000Z</time>
      </trkpt>
      <trkpt lat="43.66861" lon="3.88473">
        <ele>87.51100032</ele>
        <time>2020-06-06T12:46:01.000Z</time>
      </trkpt>
      <trkpt lat="43.66863" lon="3.88472">
        <ele>87.61100032</ele>
        <time>2020-06-06T12:46:02.000Z</time>
      </trkpt>
      <trkpt lat="43.66865" lon="3.8847">
        <ele>87.71100032</ele>
        <time>2020-06-06T12:46:03.000Z</time>
      </trkpt>
      <trkpt lat="43.66867" lon="3.88468">
        <ele>87.81100032</ele>
        <time>2020-06-06T12:46:04.000Z</time>
      </trkpt>
      <trkpt lat="43.66868" lon="3.88464">
        <ele>87.91100032</ele>
        <time>2020-06-06T12:46:05.000Z</time>
      </trkpt>
      <trkpt lat="43.6687" lon="3.8846">
        <ele>88</ele>
        <time>2020-06-06T12:46:06.000Z</time>
      </trkpt>
      <trkpt lat="43.66871" lon="3.88456">
        <ele>88</ele>
        <time>2020-06-06T12:46:07.000Z</time>
      </trkpt>
      <trkpt lat="43.66873" lon="3.88451">
        <ele>88</ele>
        <time>2020-06-06T12:46:08.000Z</time>
      </trkpt>
      <trkpt lat="43.66876" lon="3.88447">
        <ele>88</ele>
        <time>2020-06-06T12:46:09.000Z</time>
      </trkpt>
      <trkpt lat="43.66879" lon="3.88444">
        <ele>88</ele>
        <time>2020-06-06T12:46:10.000Z</time>
      </trkpt>
      <trkpt lat="43.66883" lon="3.88441">
        <ele>88</ele>
        <time>2020-06-06T12:46:11.000Z</time>
      </trkpt>
      <trkpt lat="43.66886" lon="3.88438">
        <ele>88</ele>
        <time>2020-06-06T12:46:12.000Z</time>
      </trkpt>
      <trkpt lat="43.6689" lon="3.88436">
        <ele>88</ele>
        <time>2020-06-06T12:46:13.000Z</time>
      </trkpt>
      <trkpt lat="43.66894" lon="3.88434">
        <ele>88</ele>
        <time>2020-06-06T12:46:14.000Z</time>
      </trkpt>
      <trkpt lat="43.66898" lon="3.88432">
        <ele>88</ele>
        <time>2020-06-06T12:46:15.000Z</time>
      </trkpt>
      <trkpt lat="43.66901" lon="3.88431">
        <ele>88</ele>
        <time>2020-06-06T12:46:16.000Z</time>
      </trkpt>
      <trkpt lat="43.66905" lon="3.88431">
        <ele>88</ele>
        <time>2020-06-06T12:46:17.000Z</time>
      </trkpt>
      <trkpt lat="43.66909" lon="3.88431">
        <ele>88</ele>
        <time>2020-06-06T12:46:18.000Z</time>
      </trkpt>
      <trkpt lat="43.66913" lon="3.88432">
        <ele>88</ele>
        <time>2020-06-06T12:46:19.000Z</time>
      </trkpt>
      <trkpt lat="43.66916" lon="3.88433">
        <ele>88</ele>
        <time>2020-06-06T12:46:20.000Z</time>
      </trkpt>
      <trkpt lat="43.6692" lon="3.88434">
        <ele>88</ele>
        <time>2020-06-06T12:46:21.000Z</time>
      </trkpt>
      <trkpt lat="43.66923" lon="3.88434">
        <ele>88</ele>
        <time>2020-06-06T12:46:22.000Z</time>
      </trkpt>
      <trkpt lat="43.66926" lon="3.88435">
        <ele>88</ele>
        <time>2020-06-06T12:46:23.000Z</time>
      </trkpt>
      <trkpt lat="43.66929" lon="3.88435">
        <ele>88</ele>
        <time>2020-06-06T12:46:24.000Z</time>
      </trkpt>
      <trkpt lat="43.66932" lon="3.88436">
        <ele>88</ele>
        <time>2020-06-06T12:46:25.000Z</time>
      </trkpt>
      <trkpt lat="43.66934" lon="3.88436">
        <ele>88.01100032</ele>
        <time>2020-06-06T12:46:26.000Z</time>
      </trkpt>
      <trkpt lat="43.66937" lon="3.88436">
        <ele>88.11100032</ele>
        <time>2020-06-06T12:46:27.000Z</time>
      </trkpt>
      <trkpt lat="43.6694" lon="3.88436">
        <ele>88.21100032</ele>
        <time>2020-06-06T12:46:28.000Z</time>
      </trkpt>
      <trkpt lat="43.66942" lon="3.88436">
        <ele>88.31100032</ele>
        <time>2020-06-06T12:46:29.000Z</time>
      </trkpt>
      <trkpt lat="43.66945" lon="3.88436">
        <ele>88.41100032</ele>
        <time>2020-06-06T12:46:30.000Z</time>
      </trkpt>
      <trkpt lat="43.66947" lon="3.88436">
        <ele>88.51100032</ele>
        <time>2020-06-06T12:46:31.000Z</time>
      </trkpt>
      <trkpt lat="43.66949" lon="3.88436">
        <ele>88.61100032</ele>
        <time>2020-06-06T12:46:32.000Z</time>
      </trkpt>
      <trkpt lat="43.66952" lon="3.88436">
        <ele>88.71100032</ele>
        <time>2020-06-06T12:46:33.000Z</time>
      </trkpt>
      <trkpt lat="43.66954" lon="3.88436">
        <ele>88.81100032</ele>
        <time>2020-06-06T12:46:34.000Z</time>
      </trkpt>
      <trkpt lat="43.66957" lon="3.88437">
        <ele>88.91100032</ele>
        <time>2020-06-06T12:46:35.000Z</time>
      </trkpt>
      <trkpt lat="43.66959" lon="3.88437">
        <ele>89.02200064</ele>
        <time>2020-06-06T12:46:36.000Z</time>
      </trkpt>
      <trkpt lat="43.66962" lon="3.88436">
        <ele>89.22200064</ele>
        <time>2020-06-06T12:46:37.000Z</time>
      </trkpt>
      <trkpt lat="43.66965" lon="3.88436">
        <ele>89.42200064</ele>
        <time>2020-06-06T12:46:38.000Z</time>
      </trkpt>
      <trkpt lat="43.66967" lon="3.88436">
        <ele>89.62200064</ele>
        <time>2020-06-06T12:46:39.000Z</time>
      </trkpt>
      <trkpt lat="43.6697" lon="3.88435">
        <ele>89.82200064</ele>
        <time>2020-06-06T12:46:40.000Z</time>
      </trkpt>
      <trkpt lat="43.66973" lon="3.88433">
        <ele>90.02200064</ele>
        <time>2020-06-06T12:46:41.000Z</time>
      </trkpt>
      <trkpt lat="43.66975" lon="3.88431">
        <ele>90.22200064</ele>
        <time>2020-06-06T12:46:42.000Z</time>
      </trkpt>
      <trkpt lat="43.66977" lon="3.88429">
        <ele>90.42200064</ele>
        <time>2020-06-06T12:46:43.000Z</time>
      </trkpt>
      <trkpt lat="43.66979" lon="3.88426">
        <ele>90.62200064</ele>
        <time>2020-06-06T12:46:44.000Z</time>
      </trkpt>
      <trkpt lat="43.66981" lon="3.88423">
        <ele>90.82200064</ele>
        <time>2020-06-06T12:46:45.000Z</time>
      </trkpt>
      <trkpt lat="43.66983" lon="3.88421">
        <ele>91.010848434967</ele>
        <time>2020-06-06T12:46:46.000Z</time>
      </trkpt>
      <trkpt lat="43.66985" lon="3.88419">
        <ele>91.109467702111</ele>
        <time>2020-06-06T12:46:47.000Z</time>
      </trkpt>
      <trkpt lat="43.66987" lon="3.88418">
        <ele>91.208086969255</ele>
        <time>2020-06-06T12:46:48.000Z</time>
      </trkpt>
      <trkpt lat="43.6699" lon="3.88417">
        <ele>91.306706236398</ele>
        <time>2020-06-06T12:46:49.000Z</time>
      </trkpt>
      <trkpt lat="43.66992" lon="3.88416">
        <ele>91.405325503542</ele>
        <time>2020-06-06T12:46:50.000Z</time>
      </trkpt>
      <trkpt lat="43.66995" lon="3.88416">
        <ele>91.503944770686</ele>
        <time>2020-06-06T12:46:51.000Z</time>
      </trkpt>
      <trkpt lat="43.66997" lon="3.88416">
        <ele>91.602564037829</ele>
        <time>2020-06-06T12:46:52.000Z</time>
      </trkpt>
      <trkpt lat="43.67" lon="3.88416">
        <ele>91.701183304973</ele>
        <time>2020-06-06T12:46:53.000Z</time>
      </trkpt>
      <trkpt lat="43.67002" lon="3.88418">
        <ele>91.799802572117</ele>
        <time>2020-06-06T12:46:54.000Z</time>
      </trkpt>
      <trkpt lat="43.67005" lon="3.88419">
        <ele>91.89842183926</ele>
        <time>2020-06-06T12:46:55.000Z</time>
      </trkpt>
      <trkpt lat="43.67007" lon="3.8842">
        <ele>91.997041106404</ele>
        <time>2020-06-06T12:46:56.000Z</time>
      </trkpt>
      <trkpt lat="43.6701" lon="3.88422">
        <ele>92.098377021259</ele>
        <time>2020-06-06T12:46:57.000Z</time>
      </trkpt>
      <trkpt lat="43.67013" lon="3.88425">
        <ele>92.199796965386</ele>
        <time>2020-06-06T12:46:58.000Z</time>
      </trkpt>
      <trkpt lat="43.67015" lon="3.88428">
        <ele>92.301216909512</ele>
        <time>2020-06-06T12:46:59.000Z</time>
      </trkpt>
      <trkpt lat="43.67018" lon="3.88431">
        <ele>92.402636853638</ele>
        <time>2020-06-06T12:47:00.000Z</time>
      </trkpt>
      <trkpt lat="43.6702" lon="3.88435">
        <ele>92.504056797765</ele>
        <time>2020-06-06T12:47:01.000Z</time>
      </trkpt>
      <trkpt lat="43.67022" lon="3.88439">
        <ele>92.605476741892</ele>
        <time>2020-06-06T12:47:02.000Z</time>
      </trkpt>
      <trkpt lat="43.67024" lon="3.88443">
        <ele>92.706896686018</ele>
        <time>2020-06-06T12:47:03.000Z</time>
      </trkpt>
      <trkpt lat="43.67025" lon="3.88447">
        <ele>92.808316630145</ele>
        <time>2020-06-06T12:47:04.000Z</time>
      </trkpt>
      <trkpt lat="43.67027" lon="3.88452">
        <ele>92.909736574271</ele>
        <time>2020-06-06T12:47:05.000Z</time>
      </trkpt>
      <trkpt lat="43.67028" lon="3.88456">
        <ele>93.02200064</ele>
        <time>2020-06-06T12:47:06.000Z</time>
      </trkpt>
      <trkpt lat="43.6703" lon="3.8846">
        <ele>93.22200064</ele>
        <time>2020-06-06T12:47:07.000Z</time>
      </trkpt>
      <trkpt lat="43.67032" lon="3.88463">
        <ele>93.42200064</ele>
        <time>2020-06-06T12:47:08.000Z</time>
      </trkpt>
      <trkpt lat="43.67034" lon="3.88466">
        <ele>93.62200064</ele>
        <time>2020-06-06T12:47:09.000Z</time>
      </trkpt>
      <trkpt lat="43.67035" lon="3.88469">
        <ele>93.82200064</ele>
        <time>2020-06-06T12:47:10.000Z</time>
      </trkpt>
      <trkpt lat="43.67037" lon="3.88471">
        <ele>94.02200064</ele>
        <time>2020-06-06T12:47:11.000Z</time>
      </trkpt>
      <trkpt lat="43.67039" lon="3.88472">
        <ele>94.22200064</ele>
        <time>2020-06-06T12:47:12.000Z</time>
      </trkpt>
      <trkpt lat="43.67041" lon="3.88474">
        <ele>94.42200064</ele>
        <time>2020-06-06T12:47:13.000Z</time>
      </trkpt>
      <trkpt lat="43.67044" lon="3.88476">
        <ele>94.62200064</ele>
        <time>2020-06-06T12:47:14.000Z</time>
      </trkpt>
      <trkpt lat="43.67047" lon="3.88478">
        <ele>94.82200064</ele>
        <time>2020-06-06T12:47:15.000Z</time>
      </trkpt>
      <trkpt lat="43.6705" lon="3.88479">
        <ele>95.01100032</ele>
        <time>2020-06-06T12:47:16.000Z</time>
      </trkpt>
      <trkpt lat="43.67053" lon="3.88481">
        <ele>95.11100032</ele>
        <time>2020-06-06T12:47:17.000Z</time>
      </trkpt>
      <trkpt lat="43.67057" lon="3.88483">
        <ele>95.21100032</ele>
        <time>2020-06-06T12:47:18.000Z</time>
      </trkpt>
      <trkpt lat="43.6706" lon="3.88485">
        <ele>95.31100032</ele>
        <time>2020-06-06T12:47:19.000Z</time>
      </trkpt>
      <trkpt lat="43.67063" lon="3.88487">
        <ele>95.41100032</ele>
        <time>2020-06-06T12:47:20.000Z</time>
      </trkpt>
      <trkpt lat="43.67067" lon="3.88489">
        <ele>95.51100032</ele>
        <time>2020-06-06T12:47:21.000Z</time>
      </trkpt>
      <trkpt lat="43.6707" lon="3.8849">
        <ele>95.61100032</ele>
        <time>2020-06-06T12:47:22.000Z</time>
      </trkpt>
      <trkpt lat="43.67074" lon="3.88492">
        <ele>95.71100032</ele>
        <time>2020-06-06T12:47:23.000Z</time>
      </trkpt>
      <trkpt lat="43.67077" lon="3.88492">
        <ele>95.81100032</ele>
        <time>2020-06-06T12:47:24.000Z</time>
      </trkpt>
      <trkpt lat="43.6708" lon="3.88493">
        <ele>95.91100032</ele>
        <time>2020-06-06T12:47:25.000Z</time>
      </trkpt>
      <trkpt lat="43.67083" lon="3.88492">
        <ele>95.98899968</ele>
        <time>2020-06-06T12:47:26.000Z</time>
      </trkpt>
      <trkpt lat="43.67086" lon="3.88492">
        <ele>95.88899968</ele>
        <time>2020-06-06T12:47:27.000Z</time>
      </trkpt>
      <trkpt lat="43.67088" lon="3.88491">
        <ele>95.78899968</ele>
        <time>2020-06-06T12:47:28.000Z</time>
      </trkpt>
      <trkpt lat="43.67091" lon="3.88489">
        <ele>95.68899968</ele>
        <time>2020-06-06T12:47:29.000Z</time>
      </trkpt>
      <trkpt lat="43.67094" lon="3.88488">
        <ele>95.58899968</ele>
        <time>2020-06-06T12:47:30.000Z</time>
      </trkpt>
      <trkpt lat="43.67097" lon="3.88487">
        <ele>95.48899968</ele>
        <time>2020-06-06T12:47:31.000Z</time>
      </trkpt>
      <trkpt lat="43.671" lon="3.88485">
        <ele>95.38899968</ele>
        <time>2020-06-06T12:47:32.000Z</time>
      </trkpt>
      <trkpt lat="43.67103" lon="3.88484">
        <ele>95.28899968</ele>
        <time>2020-06-06T12:47:33.000Z</time>
      </trkpt>
      <trkpt lat="43.67107" lon="3.88484">
        <ele>95.18899968</ele>
        <time>2020-06-06T12:47:34.000Z</time>
      </trkpt>
      <trkpt lat="43.6711" lon="3.88483">
        <ele>95.08899968</ele>
        <time>2020-06-06T12:47:35.000Z</time>
      </trkpt>
      <trkpt lat="43.67113" lon="3.88483">
        <ele>95.01100032</ele>
        <time>2020-06-06T12:47:36.000Z</time>
      </trkpt>
      <trkpt lat="43.67116" lon="3.88482">
        <ele>95.11100032</ele>
        <time>2020-06-06T12:47:37.000Z</time>
      </trkpt>
      <trkpt lat="43.67119" lon="3.88481">
        <ele>95.21100032</ele>
        <time>2020-06-06T12:47:38.000Z</time>
      </trkpt>
      <trkpt lat="43.67123" lon="3.8848">
        <ele>95.31100032</ele>
        <time>2020-06-06T12:47:39.000Z</time>
      </trkpt>
      <trkpt lat="43.67126" lon="3.88479">
        <ele>95.41100032</ele>
        <time>2020-06-06T12:47:40.000Z</time>
      </trkpt>
      <trkpt lat="43.67129" lon="3.88477">
        <ele>95.51100032</ele>
        <time>2020-06-06T12:47:41.000Z</time>
      </trkpt>
      <trkpt lat="43.67132" lon="3.88476">
        <ele>95.61100032</ele>
        <time>2020-06-06T12:47:42.000Z</time>
      </trkpt>
      <trkpt lat="43.67135" lon="3.88475">
        <ele>95.71100032</ele>
        <time>2020-06-06T12:47:43.000Z</time>
      </trkpt>
      <trkpt lat="43.67138" lon="3.88473">
        <ele>95.81100032</ele>
        <time>2020-06-06T12:47:44.000Z</time>
      </trkpt>
      <trkpt lat="43.67141" lon="3.88472">
        <ele>95.91100032</ele>
        <time>2020-06-06T12:47:45.000Z</time>
      </trkpt>
      <trkpt lat="43.67144" lon="3.8847">
        <ele>96.010377660377</ele>
        <time>2020-06-06T12:47:46.000Z</time>
      </trkpt>
      <trkpt lat="43.67147" lon="3.88469">
        <ele>96.104717283019</ele>
        <time>2020-06-06T12:47:47.000Z</time>
      </trkpt>
      <trkpt lat="43.6715" lon="3.88467">
        <ele>96.19905690566</ele>
        <time>2020-06-06T12:47:48.000Z</time>
      </trkpt>
      <trkpt lat="43.67152" lon="3.88465">
        <ele>96.293396528302</ele>
        <time>2020-06-06T12:47:49.000Z</time>
      </trkpt>
      <trkpt lat="43.67155" lon="3.88463">
        <ele>96.387736150943</ele>
        <time>2020-06-06T12:47:50.000Z</time>
      </trkpt>
      <trkpt lat="43.67157" lon="3.88462">
        <ele>96.482075773585</ele>
        <time>2020-06-06T12:47:51.000Z</time>
      </trkpt>
      <trkpt lat="43.6716" lon="3.8846">
        <ele>96.576415396226</ele>
        <time>2020-06-06T12:47:52.000Z</time>
      </trkpt>
      <trkpt lat="43.67162" lon="3.88459">
        <ele>96.670755018868</ele>
        <time>2020-06-06T12:47:53.000Z</time>
      </trkpt>
      <trkpt lat="43.67165" lon="3.88457">
        <ele>96.765094641509</ele>
        <time>2020-06-06T12:47:54.000Z</time>
      </trkpt>
      <trkpt lat="43.67167" lon="3.88455">
        <ele>96.859434264151</ele>
        <time>2020-06-06T12:47:55.000Z</time>
      </trkpt>
      <trkpt lat="43.67169" lon="3.88453">
        <ele>96.953773886792</ele>
        <time>2020-06-06T12:47:56.000Z</time>
      </trkpt>
      <trkpt lat="43.6717" lon="3.8845">
        <ele>97.054255659574</ele>
        <time>2020-06-06T12:47:57.000Z</time>
      </trkpt>
      <trkpt lat="43.67172" lon="3.88446">
        <ele>97.160638638298</ele>
        <time>2020-06-06T12:47:58.000Z</time>
      </trkpt>
      <trkpt lat="43.67173" lon="3.88443">
        <ele>97.267021617021</ele>
        <time>2020-06-06T12:47:59.000Z</time>
      </trkpt>
      <trkpt lat="43.67175" lon="3.88441">
        <ele>97.373404595745</ele>
        <time>2020-06-06T12:48:00.000Z</time>
      </trkpt>
      <trkpt lat="43.67177" lon="3.88439">
        <ele>97.479787574468</ele>
        <time>2020-06-06T12:48:01.000Z</time>
      </trkpt>
      <trkpt lat="43.6718" lon="3.88437">
        <ele>97.586170553191</ele>
        <time>2020-06-06T12:48:02.000Z</time>
      </trkpt>
      <trkpt lat="43.67182" lon="3.88436">
        <ele>97.692553531915</ele>
        <time>2020-06-06T12:48:03.000Z</time>
      </trkpt>
      <trkpt lat="43.67184" lon="3.88435">
        <ele>97.798936510638</ele>
        <time>2020-06-06T12:48:04.000Z</time>
      </trkpt>
      <trkpt lat="43.67186" lon="3.88434">
        <ele>97.905319489362</ele>
        <time>2020-06-06T12:48:05.000Z</time>
      </trkpt>
      <trkpt lat="43.67188" lon="3.88432">
        <ele>98.010700700389</ele>
        <time>2020-06-06T12:48:06.000Z</time>
      </trkpt>
      <trkpt lat="43.6719" lon="3.88431">
        <ele>98.107976964981</ele>
        <time>2020-06-06T12:48:07.000Z</time>
      </trkpt>
      <trkpt lat="43.67192" lon="3.88429">
        <ele>98.205253229572</ele>
        <time>2020-06-06T12:48:08.000Z</time>
      </trkpt>
      <trkpt lat="43.67194" lon="3.88427">
        <ele>98.302529494163</ele>
        <time>2020-06-06T12:48:09.000Z</time>
      </trkpt>
      <trkpt lat="43.67196" lon="3.88425">
        <ele>98.399805758755</ele>
        <time>2020-06-06T12:48:10.000Z</time>
      </trkpt>
      <trkpt lat="43.67199" lon="3.88424">
        <ele>98.497082023346</ele>
        <time>2020-06-06T12:48:11.000Z</time>
      </trkpt>
      <trkpt lat="43.67201" lon="3.88423">
        <ele>98.594358287938</ele>
        <time>2020-06-06T12:48:12.000Z</time>
      </trkpt>
      <trkpt lat="43.67204" lon="3.88422">
        <ele>98.691634552529</ele>
        <time>2020-06-06T12:48:13.000Z</time>
      </trkpt>
      <trkpt lat="43.67207" lon="3.88422">
        <ele>98.788910817121</ele>
        <time>2020-06-06T12:48:14.000Z</time>
      </trkpt>
      <trkpt lat="43.6721" lon="3.88422">
        <ele>98.886187081712</ele>
        <time>2020-06-06T12:48:15.000Z</time>
      </trkpt>
      <trkpt lat="43.67212" lon="3.88421">
        <ele>98.983463346303</ele>
        <time>2020-06-06T12:48:16.000Z</time>
      </trkpt>
      <trkpt lat="43.67215" lon="3.88421">
        <ele>99.08539127572</ele>
        <time>2020-06-06T12:48:17.000Z</time>
      </trkpt>
      <trkpt lat="43.67218" lon="3.88419">
        <ele>99.188271934156</ele>
        <time>2020-06-06T12:48:18.000Z</time>
      </trkpt>
      <trkpt lat="43.67221" lon="3.88418">
        <ele>99.291152592593</ele>
        <time>2020-06-06T12:48:19.000Z</time>
      </trkpt>
      <trkpt lat="43.67223" lon="3.88416">
        <ele>99.394033251029</ele>
        <time>2020-06-06T12:48:20.000Z</time>
      </trkpt>
      <trkpt lat="43.67226" lon="3.88415">
        <ele>99.496913909465</ele>
        <time>2020-06-06T12:48:21.000Z</time>
      </trkpt>
      <trkpt lat="43.67228" lon="3.88414">
        <ele>99.599794567901</ele>
        <time>2020-06-06T12:48:22.000Z</time>
      </trkpt>
      <trkpt lat="43.67231" lon="3.88413">
        <ele>99.702675226337</ele>
        <time>2020-06-06T12:48:23.000Z</time>
      </trkpt>
      <trkpt lat="43.67233" lon="3.88411">
        <ele>99.805555884774</ele>
        <time>2020-06-06T12:48:24.000Z</time>
      </trkpt>
      <trkpt lat="43.67235" lon="3.8841">
        <ele>99.90843654321</ele>
        <time>2020-06-06T12:48:25.000Z</time>
      </trkpt>
      <trkpt lat="43.67237" lon="3.88408">
        <ele>100.02140140078</ele>
        <time>2020-06-06T12:48:26.000Z</time>
      </trkpt>
      <trkpt lat="43.67239" lon="3.88407">
        <ele>100.21595392996</ele>
        <time>2020-06-06T12:48:27.000Z</time>
      </trkpt>
      <trkpt lat="43.67241" lon="3.88406">
        <ele>100.41050645914</ele>
        <time>2020-06-06T12:48:28.000Z</time>
      </trkpt>
      <trkpt lat="43.67244" lon="3.88405">
        <ele>100.60505898833</ele>
        <time>2020-06-06T12:48:29.000Z</time>
      </trkpt>
      <trkpt lat="43.67245" lon="3.88404">
        <ele>100.79961151751</ele>
        <time>2020-06-06T12:48:30.000Z</time>
      </trkpt>
      <trkpt lat="43.67247" lon="3.88402">
        <ele>100.99416404669</ele>
        <time>2020-06-06T12:48:31.000Z</time>
      </trkpt>
      <trkpt lat="43.67249" lon="3.88401">
        <ele>101.18871657588</ele>
        <time>2020-06-06T12:48:32.000Z</time>
      </trkpt>
      <trkpt lat="43.67251" lon="3.88399">
        <ele>101.38326910506</ele>
        <time>2020-06-06T12:48:33.000Z</time>
      </trkpt>
      <trkpt lat="43.67254" lon="3.88398">
        <ele>101.57782163424</ele>
        <time>2020-06-06T12:48:34.000Z</time>
      </trkpt>
      <trkpt lat="43.67256" lon="3.88396">
        <ele>101.77237416342</ele>
        <time>2020-06-06T12:48:35.000Z</time>
      </trkpt>
      <trkpt lat="43.67259" lon="3.88396">
        <ele>101.96692669261</ele>
        <time>2020-06-06T12:48:36.000Z</time>
      </trkpt>
      <trkpt lat="43.67262" lon="3.88395">
        <ele>102.08539127572</ele>
        <time>2020-06-06T12:48:37.000Z</time>
      </trkpt>
      <trkpt lat="43.67264" lon="3.88395">
        <ele>102.18827193416</ele>
        <time>2020-06-06T12:48:38.000Z</time>
      </trkpt>
      <trkpt lat="43.67267" lon="3.88395">
        <ele>102.29115259259</ele>
        <time>2020-06-06T12:48:39.000Z</time>
      </trkpt>
      <trkpt lat="43.67269" lon="3.88394">
        <ele>102.39403325103</ele>
        <time>2020-06-06T12:48:40.000Z</time>
      </trkpt>
      <trkpt lat="43.67272" lon="3.88394">
        <ele>102.49691390946</ele>
        <time>2020-06-06T12:48:41.000Z</time>
      </trkpt>
      <trkpt lat="43.67275" lon="3.88394">
        <ele>102.5997945679</ele>
        <time>2020-06-06T12:48:42.000Z</time>
      </trkpt>
      <trkpt lat="43.67278" lon="3.88394">
        <ele>102.70267522634</ele>
        <time>2020-06-06T12:48:43.000Z</time>
      </trkpt>
      <trkpt lat="43.67281" lon="3.88394">
        <ele>102.80555588477</ele>
        <time>2020-06-06T12:48:44.000Z</time>
      </trkpt>
      <trkpt lat="43.67283" lon="3.88394">
        <ele>102.90843654321</ele>
        <time>2020-06-06T12:48:45.000Z</time>
      </trkpt>
      <trkpt lat="43.67286" lon="3.88394">
        <ele>103.01100032</ele>
        <time>2020-06-06T12:48:46.000Z</time>
      </trkpt>
      <trkpt lat="43.67289" lon="3.88393">
        <ele>103.11100032</ele>
        <time>2020-06-06T12:48:47.000Z</time>
      </trkpt>
      <trkpt lat="43.67292" lon="3.88393">
        <ele>103.21100032</ele>
        <time>2020-06-06T12:48:48.000Z</time>
      </trkpt>
      <trkpt lat="43.67295" lon="3.88393">
        <ele>103.31100032</ele>
        <time>2020-06-06T12:48:49.000Z</time>
      </trkpt>
      <trkpt lat="43.67297" lon="3.88393">
        <ele>103.41100032</ele>
        <time>2020-06-06T12:48:50.000Z</time>
      </trkpt>
      <trkpt lat="43.673" lon="3.88393">
        <ele>103.51100032</ele>
        <time>2020-06-06T12:48:51.000Z</time>
      </trkpt>
      <trkpt lat="43.67302" lon="3.88394">
        <ele>103.61100032</ele>
        <time>2020-06-06T12:48:52.000Z</time>
      </trkpt>
      <trkpt lat="43.67305" lon="3.88395">
        <ele>103.71100032</ele>
        <time>2020-06-06T12:48:53.000Z</time>
      </trkpt>
      <trkpt lat="43.67308" lon="3.88395">
        <ele>103.81100032</ele>
        <time>2020-06-06T12:48:54.000Z</time>
      </trkpt>
      <trkpt lat="43.67311" lon="3.88394">
        <ele>103.91100032</ele>
        <time>2020-06-06T12:48:55.000Z</time>
      </trkpt>
      <trkpt lat="43.67314" lon="3.88393">
        <ele>104.02200064</ele>
        <time>2020-06-06T12:48:56.000Z</time>
      </trkpt>
      <trkpt lat="43.67317" lon="3.88392">
        <ele>104.22200064</ele>
        <time>2020-06-06T12:48:57.000Z</time>
      </trkpt>
      <trkpt lat="43.67319" lon="3.8839">
        <ele>104.42200064</ele>
        <time>2020-06-06T12:48:58.000Z</time>
      </trkpt>
      <trkpt lat="43.67322" lon="3.88388">
        <ele>104.62200064</ele>
        <time>2020-06-06T12:48:59.000Z</time>
      </trkpt>
      <trkpt lat="43.67324" lon="3.88387">
        <ele>104.82200064</ele>
        <time>2020-06-06T12:49:00.000Z</time>
      </trkpt>
      <trkpt lat="43.67326" lon="3.88385">
        <ele>105.02200064</ele>
        <time>2020-06-06T12:49:01.000Z</time>
      </trkpt>
      <trkpt lat="43.67328" lon="3.88383">
        <ele>105.22200064</ele>
        <time>2020-06-06T12:49:02.000Z</time>
      </trkpt>
      <trkpt lat="43.67331" lon="3.88381">
        <ele>105.42200064</ele>
        <time>2020-06-06T12:49:03.000Z</time>
      </trkpt>
      <trkpt lat="43.67333" lon="3.8838">
        <ele>105.62200064</ele>
        <time>2020-06-06T12:49:04.000Z</time>
      </trkpt>
      <trkpt lat="43.67335" lon="3.88378">
        <ele>105.82200064</ele>
        <time>2020-06-06T12:49:05.000Z</time>
      </trkpt>
      <trkpt lat="43.67337" lon="3.88377">
        <ele>106.02200064</ele>
        <time>2020-06-06T12:49:06.000Z</time>
      </trkpt>
      <trkpt lat="43.67339" lon="3.88375">
        <ele>106.22200064</ele>
        <time>2020-06-06T12:49:07.000Z</time>
      </trkpt>
      <trkpt lat="43.67341" lon="3.88374">
        <ele>106.42200064</ele>
        <time>2020-06-06T12:49:08.000Z</time>
      </trkpt>
      <trkpt lat="43.67343" lon="3.88373">
        <ele>106.62200064</ele>
        <time>2020-06-06T12:49:09.000Z</time>
      </trkpt>
      <trkpt lat="43.67345" lon="3.88373">
        <ele>106.82200064</ele>
        <time>2020-06-06T12:49:10.000Z</time>
      </trkpt>
      <trkpt lat="43.67347" lon="3.88372">
        <ele>107.02200064</ele>
        <time>2020-06-06T12:49:11.000Z</time>
      </trkpt>
      <trkpt lat="43.67349" lon="3.88372">
        <ele>107.22200064</ele>
        <time>2020-06-06T12:49:12.000Z</time>
      </trkpt>
      <trkpt lat="43.67351" lon="3.88371">
        <ele>107.42200064</ele>
        <time>2020-06-06T12:49:13.000Z</time>
      </trkpt>
      <trkpt lat="43.67352" lon="3.88371">
        <ele>107.62200064</ele>
        <time>2020-06-06T12:49:14.000Z</time>
      </trkpt>
      <trkpt lat="43.67355" lon="3.88371">
        <ele>107.82200064</ele>
        <time>2020-06-06T12:49:15.000Z</time>
      </trkpt>
      <trkpt lat="43.67357" lon="3.8837">
        <ele>108.01100032</ele>
        <time>2020-06-06T12:49:16.000Z</time>
      </trkpt>
      <trkpt lat="43.67359" lon="3.8837">
        <ele>108.11100032</ele>
        <time>2020-06-06T12:49:17.000Z</time>
      </trkpt>
      <trkpt lat="43.67361" lon="3.8837">
        <ele>108.21100032</ele>
        <time>2020-06-06T12:49:18.000Z</time>
      </trkpt>
      <trkpt lat="43.67363" lon="3.8837">
        <ele>108.31100032</ele>
        <time>2020-06-06T12:49:19.000Z</time>
      </trkpt>
      <trkpt lat="43.67365" lon="3.88369">
        <ele>108.41100032</ele>
        <time>2020-06-06T12:49:20.000Z</time>
      </trkpt>
      <trkpt lat="43.67367" lon="3.88369">
        <ele>108.51100032</ele>
        <time>2020-06-06T12:49:21.000Z</time>
      </trkpt>
      <trkpt lat="43.67368" lon="3.88369">
        <ele>108.61100032</ele>
        <time>2020-06-06T12:49:22.000Z</time>
      </trkpt>
      <trkpt lat="43.6737" lon="3.88368">
        <ele>108.71100032</ele>
        <time>2020-06-06T12:49:23.000Z</time>
      </trkpt>
      <trkpt lat="43.67372" lon="3.88367">
        <ele>108.81100032</ele>
        <time>2020-06-06T12:49:24.000Z</time>
      </trkpt>
      <trkpt lat="43.67374" lon="3.88367">
        <ele>108.91100032</ele>
        <time>2020-06-06T12:49:25.000Z</time>
      </trkpt>
      <trkpt lat="43.67376" lon="3.88366">
        <ele>109.01100032</ele>
        <time>2020-06-06T12:49:26.000Z</time>
      </trkpt>
      <trkpt lat="43.67378" lon="3.88365">
        <ele>109.11100032</ele>
        <time>2020-06-06T12:49:27.000Z</time>
      </trkpt>
      <trkpt lat="43.6738" lon="3.88364">
        <ele>109.21100032</ele>
        <time>2020-06-06T12:49:28.000Z</time>
      </trkpt>
      <trkpt lat="43.67382" lon="3.88362">
        <ele>109.31100032</ele>
        <time>2020-06-06T12:49:29.000Z</time>
      </trkpt>
      <trkpt lat="43.67384" lon="3.8836">
        <ele>109.41100032</ele>
        <time>2020-06-06T12:49:30.000Z</time>
      </trkpt>
      <trkpt lat="43.67386" lon="3.88358">
        <ele>109.51100032</ele>
        <time>2020-06-06T12:49:31.000Z</time>
      </trkpt>
      <trkpt lat="43.67388" lon="3.88356">
        <ele>109.61100032</ele>
        <time>2020-06-06T12:49:32.000Z</time>
      </trkpt>
      <trkpt lat="43.6739" lon="3.88354">
        <ele>109.71100032</ele>
        <time>2020-06-06T12:49:33.000Z</time>
      </trkpt>
      <trkpt lat="43.67393" lon="3.88353">
        <ele>109.81100032</ele>
        <time>2020-06-06T12:49:34.000Z</time>
      </trkpt>
      <trkpt lat="43.67395" lon="3.88352">
        <ele>109.91100032</ele>
        <time>2020-06-06T12:49:35.000Z</time>
      </trkpt>
      <trkpt lat="43.67397" lon="3.88351">
        <ele>110.01100032</ele>
        <time>2020-06-06T12:49:36.000Z</time>
      </trkpt>
      <trkpt lat="43.674" lon="3.88349">
        <ele>110.11100032</ele>
        <time>2020-06-06T12:49:37.000Z</time>
      </trkpt>
      <trkpt lat="43.67402" lon="3.88348">
        <ele>110.21100032</ele>
        <time>2020-06-06T12:49:38.000Z</time>
      </trkpt>
      <trkpt lat="43.67404" lon="3.88347">
        <ele>110.31100032</ele>
        <time>2020-06-06T12:49:39.000Z</time>
      </trkpt>
      <trkpt lat="43.67406" lon="3.88346">
        <ele>110.41100032</ele>
        <time>2020-06-06T12:49:40.000Z</time>
      </trkpt>
      <trkpt lat="43.67409" lon="3.88345">
        <ele>110.51100032</ele>
        <time>2020-06-06T12:49:41.000Z</time>
      </trkpt>
      <trkpt lat="43.67411" lon="3.88344">
        <ele>110.61100032</ele>
        <time>2020-06-06T12:49:42.000Z</time>
      </trkpt>
      <trkpt lat="43.67413" lon="3.88343">
        <ele>110.71100032</ele>
        <time>2020-06-06T12:49:43.000Z</time>
      </trkpt>
      <trkpt lat="43.67416" lon="3.88342">
        <ele>110.81100032</ele>
        <time>2020-06-06T12:49:44.000Z</time>
      </trkpt>
      <trkpt lat="43.67418" lon="3.88341">
        <ele>110.91100032</ele>
        <time>2020-06-06T12:49:45.000Z</time>
      </trkpt>
      <trkpt lat="43.67421" lon="3.8834">
        <ele>111.02200064</ele>
        <time>2020-06-06T12:49:46.000Z</time>
      </trkpt>
      <trkpt lat="43.67423" lon="3.88339">
        <ele>111.22200064</ele>
        <time>2020-06-06T12:49:47.000Z</time>
      </trkpt>
      <trkpt lat="43.67425" lon="3.88338">
        <ele>111.42200064</ele>
        <time>2020-06-06T12:49:48.000Z</time>
      </trkpt>
      <trkpt lat="43.67427" lon="3.88337">
        <ele>111.62200064</ele>
        <time>2020-06-06T12:49:49.000Z</time>
      </trkpt>
      <trkpt lat="43.6743" lon="3.88336">
        <ele>111.82200064</ele>
        <time>2020-06-06T12:49:50.000Z</time>
      </trkpt>
      <trkpt lat="43.67432" lon="3.88335">
        <ele>112.02200064</ele>
        <time>2020-06-06T12:49:51.000Z</time>
      </trkpt>
      <trkpt lat="43.67435" lon="3.88333">
        <ele>112.22200064</ele>
        <time>2020-06-06T12:49:52.000Z</time>
      </trkpt>
      <trkpt lat="43.67437" lon="3.88332">
        <ele>112.42200064</ele>
        <time>2020-06-06T12:49:53.000Z</time>
      </trkpt>
      <trkpt lat="43.6744" lon="3.8833">
        <ele>112.62200064</ele>
        <time>2020-06-06T12:49:54.000Z</time>
      </trkpt>
      <trkpt lat="43.67443" lon="3.88329">
        <ele>112.82200064</ele>
        <time>2020-06-06T12:49:55.000Z</time>
      </trkpt>
      <trkpt lat="43.67446" lon="3.88328">
        <ele>113.01100032</ele>
        <time>2020-06-06T12:49:56.000Z</time>
      </trkpt>
      <trkpt lat="43.67449" lon="3.88326">
        <ele>113.11100032</ele>
        <time>2020-06-06T12:49:57.000Z</time>
      </trkpt>
      <trkpt lat="43.67451" lon="3.88325">
        <ele>113.21100032</ele>
        <time>2020-06-06T12:49:58.000Z</time>
      </trkpt>
      <trkpt lat="43.67454" lon="3.88324">
        <ele>113.31100032</ele>
        <time>2020-06-06T12:49:59.000Z</time>
      </trkpt>
      <trkpt lat="43.67457" lon="3.88322">
        <ele>113.41100032</ele>
        <time>2020-06-06T12:50:00.000Z</time>
      </trkpt>
      <trkpt lat="43.6746" lon="3.88321">
        <ele>113.51100032</ele>
        <time>2020-06-06T12:50:01.000Z</time>
      </trkpt>
      <trkpt lat="43.67463" lon="3.88319">
        <ele>113.61100032</ele>
        <time>2020-06-06T12:50:02.000Z</time>
      </trkpt>
      <trkpt lat="43.67466" lon="3.88318">
        <ele>113.71100032</ele>
        <time>2020-06-06T12:50:03.000Z</time>
      </trkpt>
      <trkpt lat="43.67468" lon="3.88316">
        <ele>113.81100032</ele>
        <time>2020-06-06T12:50:04.000Z</time>
      </trkpt>
      <trkpt lat="43.67471" lon="3.88314">
        <ele>113.91100032</ele>
        <time>2020-06-06T12:50:05.000Z</time>
      </trkpt>
      <trkpt lat="43.67473" lon="3.88313">
        <ele>114.02200064</ele>
        <time>2020-06-06T12:50:06.000Z</time>
      </trkpt>
      <trkpt lat="43.67476" lon="3.88311">
        <ele>114.22200064</ele>
        <time>2020-06-06T12:50:07.000Z</time>
      </trkpt>
      <trkpt lat="43.67479" lon="3.8831">
        <ele>114.42200064</ele>
        <time>2020-06-06T12:50:08.000Z</time>
      </trkpt>
      <trkpt lat="43.67481" lon="3.88308">
        <ele>114.62200064</ele>
        <time>2020-06-06T12:50:09.000Z</time>
      </trkpt>
      <trkpt lat="43.67483" lon="3.88307">
        <ele>114.82200064</ele>
        <time>2020-06-06T12:50:10.000Z</time>
      </trkpt>
      <trkpt lat="43.67486" lon="3.88305">
        <ele>115.02200064</ele>
        <time>2020-06-06T12:50:11.000Z</time>
      </trkpt>
      <trkpt lat="43.67488" lon="3.88304">
        <ele>115.22200064</ele>
        <time>2020-06-06T12:50:12.000Z</time>
      </trkpt>
      <trkpt lat="43.6749" lon="3.88302">
        <ele>115.42200064</ele>
        <time>2020-06-06T12:50:13.000Z</time>
      </trkpt>
      <trkpt lat="43.67492" lon="3.88301">
        <ele>115.62200064</ele>
        <time>2020-06-06T12:50:14.000Z</time>
      </trkpt>
      <trkpt lat="43.67495" lon="3.88299">
        <ele>115.82200064</ele>
        <time>2020-06-06T12:50:15.000Z</time>
      </trkpt>
      <trkpt lat="43.67497" lon="3.88298">
        <ele>116.02200064</ele>
        <time>2020-06-06T12:50:16.000Z</time>
      </trkpt>
      <trkpt lat="43.67499" lon="3.88297">
        <ele>116.22200064</ele>
        <time>2020-06-06T12:50:17.000Z</time>
      </trkpt>
      <trkpt lat="43.67501" lon="3.88297">
        <ele>116.42200064</ele>
        <time>2020-06-06T12:50:18.000Z</time>
      </trkpt>
      <trkpt lat="43.67504" lon="3.88296">
        <ele>116.82200064</ele>
        <time>2020-06-06T12:50:20.000Z</time>
      </trkpt>
      <trkpt lat="43.67508" lon="3.88294">
        <ele>117.22200064</ele>
        <time>2020-06-06T12:50:22.000Z</time>
      </trkpt>
      <trkpt lat="43.67511" lon="3.88292">
        <ele>117.62200064</ele>
        <time>2020-06-06T12:50:24.000Z</time>
      </trkpt>
      <trkpt lat="43.67514" lon="3.8829">
        <ele>118.02140140078</ele>
        <time>2020-06-06T12:50:26.000Z</time>
      </trkpt>
      <trkpt lat="43.67516" lon="3.88289">
        <ele>118.21595392996</ele>
        <time>2020-06-06T12:50:27.000Z</time>
      </trkpt>
      <trkpt lat="43.67517" lon="3.88288">
        <ele>118.41050645914</ele>
        <time>2020-06-06T12:50:28.000Z</time>
      </trkpt>
      <trkpt lat="43.67519" lon="3.88286">
        <ele>118.60505898833</ele>
        <time>2020-06-06T12:50:29.000Z</time>
      </trkpt>
      <trkpt lat="43.67521" lon="3.88285">
        <ele>118.79961151751</ele>
        <time>2020-06-06T12:50:30.000Z</time>
      </trkpt>
      <trkpt lat="43.67524" lon="3.88283">
        <ele>118.99416404669</ele>
        <time>2020-06-06T12:50:31.000Z</time>
      </trkpt>
      <trkpt lat="43.67526" lon="3.88281">
        <ele>119.18871657588</ele>
        <time>2020-06-06T12:50:32.000Z</time>
      </trkpt>
      <trkpt lat="43.67529" lon="3.88279">
        <ele>119.38326910506</ele>
        <time>2020-06-06T12:50:33.000Z</time>
      </trkpt>
      <trkpt lat="43.67533" lon="3.88278">
        <ele>119.57782163424</ele>
        <time>2020-06-06T12:50:34.000Z</time>
      </trkpt>
      <trkpt lat="43.67536" lon="3.88277">
        <ele>119.77237416342</ele>
        <time>2020-06-06T12:50:35.000Z</time>
      </trkpt>
      <trkpt lat="43.6754" lon="3.88276">
        <ele>119.96692669261</ele>
        <time>2020-06-06T12:50:36.000Z</time>
      </trkpt>
      <trkpt lat="43.67544" lon="3.88275">
        <ele>120.08460778672</ele>
        <time>2020-06-06T12:50:37.000Z</time>
      </trkpt>
      <trkpt lat="43.67547" lon="3.88275">
        <ele>120.18654448615</ele>
        <time>2020-06-06T12:50:38.000Z</time>
      </trkpt>
      <trkpt lat="43.67551" lon="3.88275">
        <ele>120.28848118558</ele>
        <time>2020-06-06T12:50:39.000Z</time>
      </trkpt>
      <trkpt lat="43.67554" lon="3.88275">
        <ele>120.39041788501</ele>
        <time>2020-06-06T12:50:40.000Z</time>
      </trkpt>
      <trkpt lat="43.67558" lon="3.88275">
        <ele>120.49235458444</ele>
        <time>2020-06-06T12:50:41.000Z</time>
      </trkpt>
      <trkpt lat="43.67561" lon="3.88275">
        <ele>120.59429128387</ele>
        <time>2020-06-06T12:50:42.000Z</time>
      </trkpt>
      <trkpt lat="43.67565" lon="3.88275">
        <ele>120.6962279833</ele>
        <time>2020-06-06T12:50:43.000Z</time>
      </trkpt>
      <trkpt lat="43.67569" lon="3.88275">
        <ele>120.79816468273</ele>
        <time>2020-06-06T12:50:44.000Z</time>
      </trkpt>
      <trkpt lat="43.67573" lon="3.88275">
        <ele>120.90010138216</ele>
        <time>2020-06-06T12:50:45.000Z</time>
      </trkpt>
      <trkpt lat="43.67577" lon="3.88275">
        <ele>121.00201751961</ele>
        <time>2020-06-06T12:50:46.000Z</time>
      </trkpt>
      <trkpt lat="43.67581" lon="3.88275">
        <ele>121.10292579093</ele>
        <time>2020-06-06T12:50:47.000Z</time>
      </trkpt>
      <trkpt lat="43.67584" lon="3.88275">
        <ele>121.20383406224</ele>
        <time>2020-06-06T12:50:48.000Z</time>
      </trkpt>
      <trkpt lat="43.67587" lon="3.88275">
        <ele>121.30474233355</ele>
        <time>2020-06-06T12:50:49.000Z</time>
      </trkpt>
      <trkpt lat="43.67589" lon="3.88275">
        <ele>121.40565060487</ele>
        <time>2020-06-06T12:50:50.000Z</time>
      </trkpt>
      <trkpt lat="43.67591" lon="3.88275">
        <ele>121.50655887618</ele>
        <time>2020-06-06T12:50:51.000Z</time>
      </trkpt>
      <trkpt lat="43.67593" lon="3.88275">
        <ele>121.6074671475</ele>
        <time>2020-06-06T12:50:52.000Z</time>
      </trkpt>
      <trkpt lat="43.67596" lon="3.88275">
        <ele>121.70837541881</ele>
        <time>2020-06-06T12:50:53.000Z</time>
      </trkpt>
      <trkpt lat="43.67598" lon="3.88275">
        <ele>121.80928369012</ele>
        <time>2020-06-06T12:50:54.000Z</time>
      </trkpt>
      <trkpt lat="43.676" lon="3.88275">
        <ele>121.91019196144</ele>
        <time>2020-06-06T12:50:55.000Z</time>
      </trkpt>
      <trkpt lat="43.67602" lon="3.88275">
        <ele>122</ele>
        <time>2020-06-06T12:50:56.000Z</time>
      </trkpt>
      <trkpt lat="43.67605" lon="3.88275">
        <ele>122</ele>
        <time>2020-06-06T12:50:57.000Z</time>
      </trkpt>
      <trkpt lat="43.67607" lon="3.88275">
        <ele>122</ele>
        <time>2020-06-06T12:50:58.000Z</time>
      </trkpt>
      <trkpt lat="43.6761" lon="3.88275">
        <ele>122</ele>
        <time>2020-06-06T12:50:59.000Z</time>
      </trkpt>
      <trkpt lat="43.67613" lon="3.88276">
        <ele>122</ele>
        <time>2020-06-06T12:51:00.000Z</time>
      </trkpt>
      <trkpt lat="43.67616" lon="3.88275">
        <ele>122</ele>
        <time>2020-06-06T12:51:01.000Z</time>
      </trkpt>
      <trkpt lat="43.67619" lon="3.88275">
        <ele>122</ele>
        <time>2020-06-06T12:51:02.000Z</time>
      </trkpt>
      <trkpt lat="43.67622" lon="3.88275">
        <ele>122</ele>
        <time>2020-06-06T12:51:03.000Z</time>
      </trkpt>
      <trkpt lat="43.67625" lon="3.88275">
        <ele>122</ele>
        <time>2020-06-06T12:51:04.000Z</time>
      </trkpt>
      <trkpt lat="43.67629" lon="3.88273">
        <ele>122</ele>
        <time>2020-06-06T12:51:05.000Z</time>
      </trkpt>
      <trkpt lat="43.67632" lon="3.88272">
        <ele>122</ele>
        <time>2020-06-06T12:51:06.000Z</time>
      </trkpt>
      <trkpt lat="43.67636" lon="3.8827">
        <ele>121.91460872428</ele>
        <time>2020-06-06T12:51:07.000Z</time>
      </trkpt>
      <trkpt lat="43.67641" lon="3.88269">
        <ele>121.81172806584</ele>
        <time>2020-06-06T12:51:08.000Z</time>
      </trkpt>
      <trkpt lat="43.67646" lon="3.88268">
        <ele>121.70884740741</ele>
        <time>2020-06-06T12:51:09.000Z</time>
      </trkpt>
      <trkpt lat="43.67652" lon="3.88267">
        <ele>121.60596674897</ele>
        <time>2020-06-06T12:51:10.000Z</time>
      </trkpt>
      <trkpt lat="43.67658" lon="3.88266">
        <ele>121.50308609054</ele>
        <time>2020-06-06T12:51:11.000Z</time>
      </trkpt>
      <trkpt lat="43.67663" lon="3.88264">
        <ele>121.4002054321</ele>
        <time>2020-06-06T12:51:12.000Z</time>
      </trkpt>
      <trkpt lat="43.67669" lon="3.88262">
        <ele>121.29732477366</ele>
        <time>2020-06-06T12:51:13.000Z</time>
      </trkpt>
      <trkpt lat="43.67674" lon="3.8826">
        <ele>121.19444411523</ele>
        <time>2020-06-06T12:51:14.000Z</time>
      </trkpt>
      <trkpt lat="43.67678" lon="3.88258">
        <ele>121.09156345679</ele>
        <time>2020-06-06T12:51:15.000Z</time>
      </trkpt>
      <trkpt lat="43.67682" lon="3.88257">
        <ele>121</ele>
        <time>2020-06-06T12:51:16.000Z</time>
      </trkpt>
      <trkpt lat="43.67686" lon="3.88256">
        <ele>121</ele>
        <time>2020-06-06T12:51:17.000Z</time>
      </trkpt>
      <trkpt lat="43.67691" lon="3.88254">
        <ele>121</ele>
        <time>2020-06-06T12:51:18.000Z</time>
      </trkpt>
      <trkpt lat="43.67695" lon="3.88253">
        <ele>121</ele>
        <time>2020-06-06T12:51:19.000Z</time>
      </trkpt>
      <trkpt lat="43.67699" lon="3.88252">
        <ele>121</ele>
        <time>2020-06-06T12:51:20.000Z</time>
      </trkpt>
      <trkpt lat="43.67703" lon="3.88251">
        <ele>121</ele>
        <time>2020-06-06T12:51:21.000Z</time>
      </trkpt>
      <trkpt lat="43.67708" lon="3.8825">
        <ele>121</ele>
        <time>2020-06-06T12:51:22.000Z</time>
      </trkpt>
      <trkpt lat="43.67712" lon="3.88248">
        <ele>121</ele>
        <time>2020-06-06T12:51:23.000Z</time>
      </trkpt>
      <trkpt lat="43.67716" lon="3.88247">
        <ele>121</ele>
        <time>2020-06-06T12:51:24.000Z</time>
      </trkpt>
      <trkpt lat="43.67721" lon="3.88245">
        <ele>121</ele>
        <time>2020-06-06T12:51:25.000Z</time>
      </trkpt>
      <trkpt lat="43.67726" lon="3.88242">
        <ele>120.98899968</ele>
        <time>2020-06-06T12:51:26.000Z</time>
      </trkpt>
      <trkpt lat="43.67731" lon="3.8824">
        <ele>120.88899968</ele>
        <time>2020-06-06T12:51:27.000Z</time>
      </trkpt>
      <trkpt lat="43.67736" lon="3.88237">
        <ele>120.78899968</ele>
        <time>2020-06-06T12:51:28.000Z</time>
      </trkpt>
      <trkpt lat="43.67741" lon="3.88234">
        <ele>120.68899968</ele>
        <time>2020-06-06T12:51:29.000Z</time>
      </trkpt>
      <trkpt lat="43.67747" lon="3.88231">
        <ele>120.58899968</ele>
        <time>2020-06-06T12:51:30.000Z</time>
      </trkpt>
      <trkpt lat="43.67752" lon="3.88228">
        <ele>120.48899968</ele>
        <time>2020-06-06T12:51:31.000Z</time>
      </trkpt>
      <trkpt lat="43.67758" lon="3.88224">
        <ele>120.38899968</ele>
        <time>2020-06-06T12:51:32.000Z</time>
      </trkpt>
      <trkpt lat="43.67763" lon="3.88221">
        <ele>120.28899968</ele>
        <time>2020-06-06T12:51:33.000Z</time>
      </trkpt>
      <trkpt lat="43.67769" lon="3.88217">
        <ele>120.18899968</ele>
        <time>2020-06-06T12:51:34.000Z</time>
      </trkpt>
      <trkpt lat="43.67774" lon="3.88214">
        <ele>120.08899968</ele>
        <time>2020-06-06T12:51:35.000Z</time>
      </trkpt>
      <trkpt lat="43.6778" lon="3.8821">
        <ele>120</ele>
        <time>2020-06-06T12:51:36.000Z</time>
      </trkpt>
      <trkpt lat="43.67785" lon="3.88208">
        <ele>120</ele>
        <time>2020-06-06T12:51:37.000Z</time>
      </trkpt>
      <trkpt lat="43.67791" lon="3.88206">
        <ele>120</ele>
        <time>2020-06-06T12:51:38.000Z</time>
      </trkpt>
      <trkpt lat="43.67796" lon="3.88205">
        <ele>120</ele>
        <time>2020-06-06T12:51:39.000Z</time>
      </trkpt>
      <trkpt lat="43.67802" lon="3.88204">
        <ele>120</ele>
        <time>2020-06-06T12:51:40.000Z</time>
      </trkpt>
      <trkpt lat="43.67808" lon="3.88203">
        <ele>120</ele>
        <time>2020-06-06T12:51:41.000Z</time>
      </trkpt>
      <trkpt lat="43.67813" lon="3.88202">
        <ele>120</ele>
        <time>2020-06-06T12:51:42.000Z</time>
      </trkpt>
      <trkpt lat="43.67818" lon="3.88201">
        <ele>120</ele>
        <time>2020-06-06T12:51:43.000Z</time>
      </trkpt>
      <trkpt lat="43.67823" lon="3.882">
        <ele>120</ele>
        <time>2020-06-06T12:51:44.000Z</time>
      </trkpt>
      <trkpt lat="43.67827" lon="3.88199">
        <ele>120</ele>
        <time>2020-06-06T12:51:45.000Z</time>
      </trkpt>
      <trkpt lat="43.67832" lon="3.88198">
        <ele>120</ele>
        <time>2020-06-06T12:51:46.000Z</time>
      </trkpt>
      <trkpt lat="43.67837" lon="3.88196">
        <ele>120</ele>
        <time>2020-06-06T12:51:47.000Z</time>
      </trkpt>
      <trkpt lat="43.67841" lon="3.88194">
        <ele>120</ele>
        <time>2020-06-06T12:51:48.000Z</time>
      </trkpt>
      <trkpt lat="43.67845" lon="3.88192">
        <ele>120</ele>
        <time>2020-06-06T12:51:49.000Z</time>
      </trkpt>
      <trkpt lat="43.67849" lon="3.88191">
        <ele>120</ele>
        <time>2020-06-06T12:51:50.000Z</time>
      </trkpt>
      <trkpt lat="43.67853" lon="3.88189">
        <ele>120</ele>
        <time>2020-06-06T12:51:51.000Z</time>
      </trkpt>
      <trkpt lat="43.67857" lon="3.88188">
        <ele>120</ele>
        <time>2020-06-06T12:51:52.000Z</time>
      </trkpt>
      <trkpt lat="43.67861" lon="3.88187">
        <ele>120</ele>
        <time>2020-06-06T12:51:53.000Z</time>
      </trkpt>
      <trkpt lat="43.67864" lon="3.88186">
        <ele>120</ele>
        <time>2020-06-06T12:51:54.000Z</time>
      </trkpt>
      <trkpt lat="43.67868" lon="3.88185">
        <ele>120</ele>
        <time>2020-06-06T12:51:55.000Z</time>
      </trkpt>
      <trkpt lat="43.67872" lon="3.88184">
        <ele>120</ele>
        <time>2020-06-06T12:51:56.000Z</time>
      </trkpt>
      <trkpt lat="43.67876" lon="3.88182">
        <ele>120</ele>
        <time>2020-06-06T12:51:57.000Z</time>
      </trkpt>
      <trkpt lat="43.6788" lon="3.88181">
        <ele>120</ele>
        <time>2020-06-06T12:51:58.000Z</time>
      </trkpt>
      <trkpt lat="43.67884" lon="3.88179">
        <ele>120</ele>
        <time>2020-06-06T12:51:59.000Z</time>
      </trkpt>
      <trkpt lat="43.67889" lon="3.88177">
        <ele>120</ele>
        <time>2020-06-06T12:52:00.000Z</time>
      </trkpt>
      <trkpt lat="43.67893" lon="3.88175">
        <ele>120</ele>
        <time>2020-06-06T12:52:01.000Z</time>
      </trkpt>
      <trkpt lat="43.67898" lon="3.88172">
        <ele>120</ele>
        <time>2020-06-06T12:52:02.000Z</time>
      </trkpt>
      <trkpt lat="43.67904" lon="3.88168">
        <ele>120</ele>
        <time>2020-06-06T12:52:03.000Z</time>
      </trkpt>
      <trkpt lat="43.67909" lon="3.88164">
        <ele>120</ele>
        <time>2020-06-06T12:52:04.000Z</time>
      </trkpt>
      <trkpt lat="43.67916" lon="3.88161">
        <ele>120</ele>
        <time>2020-06-06T12:52:05.000Z</time>
      </trkpt>
      <trkpt lat="43.67921" lon="3.88157">
        <ele>119.98899968</ele>
        <time>2020-06-06T12:52:06.000Z</time>
      </trkpt>
      <trkpt lat="43.67927" lon="3.88154">
        <ele>119.88899968</ele>
        <time>2020-06-06T12:52:07.000Z</time>
      </trkpt>
      <trkpt lat="43.67933" lon="3.8815">
        <ele>119.78899968</ele>
        <time>2020-06-06T12:52:08.000Z</time>
      </trkpt>
      <trkpt lat="43.67938" lon="3.88147">
        <ele>119.68899968</ele>
        <time>2020-06-06T12:52:09.000Z</time>
      </trkpt>
      <trkpt lat="43.67944" lon="3.88145">
        <ele>119.58899968</ele>
        <time>2020-06-06T12:52:10.000Z</time>
      </trkpt>
      <trkpt lat="43.67949" lon="3.88142">
        <ele>119.48899968</ele>
        <time>2020-06-06T12:52:11.000Z</time>
      </trkpt>
      <trkpt lat="43.67955" lon="3.8814">
        <ele>119.38899968</ele>
        <time>2020-06-06T12:52:12.000Z</time>
      </trkpt>
      <trkpt lat="43.67961" lon="3.88139">
        <ele>119.28899968</ele>
        <time>2020-06-06T12:52:13.000Z</time>
      </trkpt>
      <trkpt lat="43.67967" lon="3.88138">
        <ele>119.18899968</ele>
        <time>2020-06-06T12:52:14.000Z</time>
      </trkpt>
      <trkpt lat="43.67973" lon="3.88138">
        <ele>119.08899968</ele>
        <time>2020-06-06T12:52:15.000Z</time>
      </trkpt>
      <trkpt lat="43.67979" lon="3.88137">
        <ele>119</ele>
        <time>2020-06-06T12:52:16.000Z</time>
      </trkpt>
      <trkpt lat="43.67985" lon="3.88138">
        <ele>119</ele>
        <time>2020-06-06T12:52:17.000Z</time>
      </trkpt>
      <trkpt lat="43.67991" lon="3.88139">
        <ele>119</ele>
        <time>2020-06-06T12:52:18.000Z</time>
      </trkpt>
      <trkpt lat="43.67996" lon="3.88141">
        <ele>119</ele>
        <time>2020-06-06T12:52:19.000Z</time>
      </trkpt>
      <trkpt lat="43.68002" lon="3.88143">
        <ele>119</ele>
        <time>2020-06-06T12:52:20.000Z</time>
      </trkpt>
      <trkpt lat="43.68008" lon="3.88145">
        <ele>119</ele>
        <time>2020-06-06T12:52:21.000Z</time>
      </trkpt>
      <trkpt lat="43.68014" lon="3.88147">
        <ele>119</ele>
        <time>2020-06-06T12:52:22.000Z</time>
      </trkpt>
      <trkpt lat="43.68019" lon="3.8815">
        <ele>119</ele>
        <time>2020-06-06T12:52:23.000Z</time>
      </trkpt>
      <trkpt lat="43.68025" lon="3.88152">
        <ele>119</ele>
        <time>2020-06-06T12:52:24.000Z</time>
      </trkpt>
      <trkpt lat="43.6803" lon="3.88155">
        <ele>119</ele>
        <time>2020-06-06T12:52:25.000Z</time>
      </trkpt>
      <trkpt lat="43.68036" lon="3.88157">
        <ele>119.02200064</ele>
        <time>2020-06-06T12:52:26.000Z</time>
      </trkpt>
      <trkpt lat="43.68041" lon="3.88158">
        <ele>119.22200064</ele>
        <time>2020-06-06T12:52:27.000Z</time>
      </trkpt>
      <trkpt lat="43.68045" lon="3.88159">
        <ele>119.42200064</ele>
        <time>2020-06-06T12:52:28.000Z</time>
      </trkpt>
      <trkpt lat="43.68049" lon="3.8816">
        <ele>119.62200064</ele>
        <time>2020-06-06T12:52:29.000Z</time>
      </trkpt>
      <trkpt lat="43.68052" lon="3.88162">
        <ele>119.82200064</ele>
        <time>2020-06-06T12:52:30.000Z</time>
      </trkpt>
      <trkpt lat="43.68055" lon="3.88164">
        <ele>120.02200064</ele>
        <time>2020-06-06T12:52:31.000Z</time>
      </trkpt>
      <trkpt lat="43.68059" lon="3.88167">
        <ele>120.22200064</ele>
        <time>2020-06-06T12:52:32.000Z</time>
      </trkpt>
      <trkpt lat="43.68062" lon="3.88169">
        <ele>120.42200064</ele>
        <time>2020-06-06T12:52:33.000Z</time>
      </trkpt>
      <trkpt lat="43.68065" lon="3.88171">
        <ele>120.62200064</ele>
        <time>2020-06-06T12:52:34.000Z</time>
      </trkpt>
      <trkpt lat="43.68068" lon="3.88174">
        <ele>120.82200064</ele>
        <time>2020-06-06T12:52:35.000Z</time>
      </trkpt>
      <trkpt lat="43.68071" lon="3.88176">
        <ele>121.02200064</ele>
        <time>2020-06-06T12:52:36.000Z</time>
      </trkpt>
      <trkpt lat="43.68074" lon="3.88179">
        <ele>121.22200064</ele>
        <time>2020-06-06T12:52:37.000Z</time>
      </trkpt>
      <trkpt lat="43.68077" lon="3.88182">
        <ele>121.42200064</ele>
        <time>2020-06-06T12:52:38.000Z</time>
      </trkpt>
      <trkpt lat="43.6808" lon="3.88185">
        <ele>121.62200064</ele>
        <time>2020-06-06T12:52:39.000Z</time>
      </trkpt>
      <trkpt lat="43.68083" lon="3.88188">
        <ele>121.82200064</ele>
        <time>2020-06-06T12:52:40.000Z</time>
      </trkpt>
      <trkpt lat="43.68086" lon="3.8819">
        <ele>122.02200064</ele>
        <time>2020-06-06T12:52:41.000Z</time>
      </trkpt>
      <trkpt lat="43.68089" lon="3.88192">
        <ele>122.22200064</ele>
        <time>2020-06-06T12:52:42.000Z</time>
      </trkpt>
      <trkpt lat="43.68092" lon="3.88195">
        <ele>122.42200064</ele>
        <time>2020-06-06T12:52:43.000Z</time>
      </trkpt>
      <trkpt lat="43.68094" lon="3.88197">
        <ele>122.62200064</ele>
        <time>2020-06-06T12:52:44.000Z</time>
      </trkpt>
      <trkpt lat="43.68098" lon="3.88199">
        <ele>122.82200064</ele>
        <time>2020-06-06T12:52:45.000Z</time>
      </trkpt>
      <trkpt lat="43.68101" lon="3.88202">
        <ele>123.01100032</ele>
        <time>2020-06-06T12:52:46.000Z</time>
      </trkpt>
      <trkpt lat="43.68104" lon="3.88204">
        <ele>123.11100032</ele>
        <time>2020-06-06T12:52:47.000Z</time>
      </trkpt>
      <trkpt lat="43.68108" lon="3.88206">
        <ele>123.21100032</ele>
        <time>2020-06-06T12:52:48.000Z</time>
      </trkpt>
      <trkpt lat="43.68112" lon="3.88207">
        <ele>123.31100032</ele>
        <time>2020-06-06T12:52:49.000Z</time>
      </trkpt>
      <trkpt lat="43.68115" lon="3.88208">
        <ele>123.41100032</ele>
        <time>2020-06-06T12:52:50.000Z</time>
      </trkpt>
      <trkpt lat="43.68118" lon="3.8821">
        <ele>123.51100032</ele>
        <time>2020-06-06T12:52:51.000Z</time>
      </trkpt>
      <trkpt lat="43.68121" lon="3.88213">
        <ele>123.61100032</ele>
        <time>2020-06-06T12:52:52.000Z</time>
      </trkpt>
      <trkpt lat="43.68124" lon="3.88216">
        <ele>123.71100032</ele>
        <time>2020-06-06T12:52:53.000Z</time>
      </trkpt>
      <trkpt lat="43.68127" lon="3.8822">
        <ele>123.81100032</ele>
        <time>2020-06-06T12:52:54.000Z</time>
      </trkpt>
      <trkpt lat="43.68129" lon="3.88223">
        <ele>123.91100032</ele>
        <time>2020-06-06T12:52:55.000Z</time>
      </trkpt>
      <trkpt lat="43.68132" lon="3.88225">
        <ele>124</ele>
        <time>2020-06-06T12:52:56.000Z</time>
      </trkpt>
      <trkpt lat="43.68136" lon="3.88227">
        <ele>124</ele>
        <time>2020-06-06T12:52:57.000Z</time>
      </trkpt>
      <trkpt lat="43.68139" lon="3.88229">
        <ele>124</ele>
        <time>2020-06-06T12:52:58.000Z</time>
      </trkpt>
      <trkpt lat="43.68143" lon="3.88232">
        <ele>124</ele>
        <time>2020-06-06T12:52:59.000Z</time>
      </trkpt>
      <trkpt lat="43.68146" lon="3.88235">
        <ele>124</ele>
        <time>2020-06-06T12:53:00.000Z</time>
      </trkpt>
      <trkpt lat="43.6815" lon="3.88238">
        <ele>124</ele>
        <time>2020-06-06T12:53:01.000Z</time>
      </trkpt>
      <trkpt lat="43.68154" lon="3.88241">
        <ele>124</ele>
        <time>2020-06-06T12:53:02.000Z</time>
      </trkpt>
      <trkpt lat="43.68158" lon="3.88244">
        <ele>124</ele>
        <time>2020-06-06T12:53:03.000Z</time>
      </trkpt>
      <trkpt lat="43.68162" lon="3.88248">
        <ele>124</ele>
        <time>2020-06-06T12:53:04.000Z</time>
      </trkpt>
      <trkpt lat="43.68167" lon="3.88252">
        <ele>124</ele>
        <time>2020-06-06T12:53:05.000Z</time>
      </trkpt>
      <trkpt lat="43.68172" lon="3.88255">
        <ele>123.98910860096</ele>
        <time>2020-06-06T12:53:06.000Z</time>
      </trkpt>
      <trkpt lat="43.68177" lon="3.88259">
        <ele>123.89009876271</ele>
        <time>2020-06-06T12:53:07.000Z</time>
      </trkpt>
      <trkpt lat="43.68182" lon="3.88262">
        <ele>123.79108892446</ele>
        <time>2020-06-06T12:53:08.000Z</time>
      </trkpt>
      <trkpt lat="43.68187" lon="3.88266">
        <ele>123.69207908621</ele>
        <time>2020-06-06T12:53:09.000Z</time>
      </trkpt>
      <trkpt lat="43.68193" lon="3.88269">
        <ele>123.59306924796</ele>
        <time>2020-06-06T12:53:10.000Z</time>
      </trkpt>
      <trkpt lat="43.68198" lon="3.88273">
        <ele>123.49405940971</ele>
        <time>2020-06-06T12:53:11.000Z</time>
      </trkpt>
      <trkpt lat="43.68204" lon="3.88277">
        <ele>123.39504957145</ele>
        <time>2020-06-06T12:53:12.000Z</time>
      </trkpt>
      <trkpt lat="43.68209" lon="3.88281">
        <ele>123.2960397332</ele>
        <time>2020-06-06T12:53:13.000Z</time>
      </trkpt>
      <trkpt lat="43.68215" lon="3.88284">
        <ele>123.19702989495</ele>
        <time>2020-06-06T12:53:14.000Z</time>
      </trkpt>
      <trkpt lat="43.68222" lon="3.88286">
        <ele>123.0980200567</ele>
        <time>2020-06-06T12:53:15.000Z</time>
      </trkpt>
      <trkpt lat="43.68229" lon="3.88286">
        <ele>122.9989912415</ele>
        <time>2020-06-06T12:53:16.000Z</time>
      </trkpt>
      <trkpt lat="43.68237" lon="3.88285">
        <ele>122.89808310052</ele>
        <time>2020-06-06T12:53:17.000Z</time>
      </trkpt>
      <trkpt lat="43.68244" lon="3.88284">
        <ele>122.79717495954</ele>
        <time>2020-06-06T12:53:18.000Z</time>
      </trkpt>
      <trkpt lat="43.6825" lon="3.88282">
        <ele>122.69626681856</ele>
        <time>2020-06-06T12:53:19.000Z</time>
      </trkpt>
      <trkpt lat="43.68257" lon="3.88281">
        <ele>122.59535867758</ele>
        <time>2020-06-06T12:53:20.000Z</time>
      </trkpt>
      <trkpt lat="43.68263" lon="3.8828">
        <ele>122.49445053661</ele>
        <time>2020-06-06T12:53:21.000Z</time>
      </trkpt>
      <trkpt lat="43.68269" lon="3.88278">
        <ele>122.39354239563</ele>
        <time>2020-06-06T12:53:22.000Z</time>
      </trkpt>
      <trkpt lat="43.68275" lon="3.88276">
        <ele>122.29263425465</ele>
        <time>2020-06-06T12:53:23.000Z</time>
      </trkpt>
      <trkpt lat="43.68281" lon="3.88273">
        <ele>122.19172611367</ele>
        <time>2020-06-06T12:53:24.000Z</time>
      </trkpt>
      <trkpt lat="43.68287" lon="3.8827">
        <ele>122.09081797269</ele>
        <time>2020-06-06T12:53:25.000Z</time>
      </trkpt>
      <trkpt lat="43.68293" lon="3.88268">
        <ele>122</ele>
        <time>2020-06-06T12:53:26.000Z</time>
      </trkpt>
      <trkpt lat="43.68299" lon="3.88264">
        <ele>122</ele>
        <time>2020-06-06T12:53:27.000Z</time>
      </trkpt>
      <trkpt lat="43.68304" lon="3.88261">
        <ele>122</ele>
        <time>2020-06-06T12:53:28.000Z</time>
      </trkpt>
      <trkpt lat="43.6831" lon="3.88259">
        <ele>122</ele>
        <time>2020-06-06T12:53:29.000Z</time>
      </trkpt>
      <trkpt lat="43.68315" lon="3.88258">
        <ele>122</ele>
        <time>2020-06-06T12:53:30.000Z</time>
      </trkpt>
      <trkpt lat="43.68321" lon="3.88257">
        <ele>122</ele>
        <time>2020-06-06T12:53:31.000Z</time>
      </trkpt>
      <trkpt lat="43.68326" lon="3.88256">
        <ele>122</ele>
        <time>2020-06-06T12:53:32.000Z</time>
      </trkpt>
      <trkpt lat="43.68332" lon="3.88255">
        <ele>122</ele>
        <time>2020-06-06T12:53:33.000Z</time>
      </trkpt>
      <trkpt lat="43.68337" lon="3.88255">
        <ele>122</ele>
        <time>2020-06-06T12:53:34.000Z</time>
      </trkpt>
      <trkpt lat="43.68342" lon="3.88254">
        <ele>122</ele>
        <time>2020-06-06T12:53:35.000Z</time>
      </trkpt>
      <trkpt lat="43.68347" lon="3.88254">
        <ele>122.0107425</ele>
        <time>2020-06-06T12:53:36.000Z</time>
      </trkpt>
      <trkpt lat="43.68351" lon="3.88254">
        <ele>122.10839875</ele>
        <time>2020-06-06T12:53:37.000Z</time>
      </trkpt>
      <trkpt lat="43.68355" lon="3.88254">
        <ele>122.206055</ele>
        <time>2020-06-06T12:53:38.000Z</time>
      </trkpt>
      <trkpt lat="43.68359" lon="3.88255">
        <ele>122.30371125</ele>
        <time>2020-06-06T12:53:39.000Z</time>
      </trkpt>
      <trkpt lat="43.68363" lon="3.88255">
        <ele>122.4013675</ele>
        <time>2020-06-06T12:53:40.000Z</time>
      </trkpt>
      <trkpt lat="43.68368" lon="3.88255">
        <ele>122.49902375</ele>
        <time>2020-06-06T12:53:41.000Z</time>
      </trkpt>
      <trkpt lat="43.68372" lon="3.88255">
        <ele>122.59668</ele>
        <time>2020-06-06T12:53:42.000Z</time>
      </trkpt>
      <trkpt lat="43.68376" lon="3.88254">
        <ele>122.69433625</ele>
        <time>2020-06-06T12:53:43.000Z</time>
      </trkpt>
      <trkpt lat="43.6838" lon="3.88254">
        <ele>122.7919925</ele>
        <time>2020-06-06T12:53:44.000Z</time>
      </trkpt>
      <trkpt lat="43.68383" lon="3.88254">
        <ele>122.88964875</ele>
        <time>2020-06-06T12:53:45.000Z</time>
      </trkpt>
      <trkpt lat="43.68387" lon="3.88254">
        <ele>122.987305</ele>
        <time>2020-06-06T12:53:46.000Z</time>
      </trkpt>
      <trkpt lat="43.6839" lon="3.88254">
        <ele>123</ele>
        <time>2020-06-06T12:53:47.000Z</time>
      </trkpt>
      <trkpt lat="43.68394" lon="3.88253">
        <ele>123</ele>
        <time>2020-06-06T12:53:48.000Z</time>
      </trkpt>
      <trkpt lat="43.68398" lon="3.88252">
        <ele>123</ele>
        <time>2020-06-06T12:53:49.000Z</time>
      </trkpt>
      <trkpt lat="43.68403" lon="3.88252">
        <ele>123</ele>
        <time>2020-06-06T12:53:50.000Z</time>
      </trkpt>
      <trkpt lat="43.68407" lon="3.88251">
        <ele>123</ele>
        <time>2020-06-06T12:53:51.000Z</time>
      </trkpt>
      <trkpt lat="43.68411" lon="3.8825">
        <ele>123</ele>
        <time>2020-06-06T12:53:52.000Z</time>
      </trkpt>
      <trkpt lat="43.68414" lon="3.8825">
        <ele>123</ele>
        <time>2020-06-06T12:53:53.000Z</time>
      </trkpt>
      <trkpt lat="43.68417" lon="3.8825">
        <ele>123</ele>
        <time>2020-06-06T12:53:54.000Z</time>
      </trkpt>
      <trkpt lat="43.6842" lon="3.8825">
        <ele>123</ele>
        <time>2020-06-06T12:53:55.000Z</time>
      </trkpt>
      <trkpt lat="43.68424" lon="3.8825">
        <ele>122.99098227879</ele>
        <time>2020-06-06T12:53:56.000Z</time>
      </trkpt>
      <trkpt lat="43.68427" lon="3.8825">
        <ele>122.89078181373</ele>
        <time>2020-06-06T12:53:57.000Z</time>
      </trkpt>
      <trkpt lat="43.6843" lon="3.88251">
        <ele>122.79058134867</ele>
        <time>2020-06-06T12:53:58.000Z</time>
      </trkpt>
      <trkpt lat="43.68432" lon="3.88252">
        <ele>122.69038088361</ele>
        <time>2020-06-06T12:53:59.000Z</time>
      </trkpt>
      <trkpt lat="43.68435" lon="3.88252">
        <ele>122.59018041855</ele>
        <time>2020-06-06T12:54:00.000Z</time>
      </trkpt>
      <trkpt lat="43.6844" lon="3.88254">
        <ele>122.48997995349</ele>
        <time>2020-06-06T12:54:01.000Z</time>
      </trkpt>
      <trkpt lat="43.68444" lon="3.88254">
        <ele>122.38977948844</ele>
        <time>2020-06-06T12:54:02.000Z</time>
      </trkpt>
      <trkpt lat="43.68448" lon="3.88255">
        <ele>122.28957902338</ele>
        <time>2020-06-06T12:54:03.000Z</time>
      </trkpt>
      <trkpt lat="43.68453" lon="3.88257">
        <ele>122.18937855832</ele>
        <time>2020-06-06T12:54:04.000Z</time>
      </trkpt>
      <trkpt lat="43.68458" lon="3.88259">
        <ele>122.08917809326</ele>
        <time>2020-06-06T12:54:05.000Z</time>
      </trkpt>
      <trkpt lat="43.68463" lon="3.88261">
        <ele>122</ele>
        <time>2020-06-06T12:54:06.000Z</time>
      </trkpt>
      <trkpt lat="43.68469" lon="3.88264">
        <ele>122</ele>
        <time>2020-06-06T12:54:07.000Z</time>
      </trkpt>
      <trkpt lat="43.68474" lon="3.88266">
        <ele>122</ele>
        <time>2020-06-06T12:54:08.000Z</time>
      </trkpt>
      <trkpt lat="43.68481" lon="3.88268">
        <ele>122</ele>
        <time>2020-06-06T12:54:09.000Z</time>
      </trkpt>
      <trkpt lat="43.68489" lon="3.88269">
        <ele>122</ele>
        <time>2020-06-06T12:54:10.000Z</time>
      </trkpt>
      <trkpt lat="43.68497" lon="3.8827">
        <ele>122</ele>
        <time>2020-06-06T12:54:11.000Z</time>
      </trkpt>
      <trkpt lat="43.68504" lon="3.88271">
        <ele>122</ele>
        <time>2020-06-06T12:54:12.000Z</time>
      </trkpt>
      <trkpt lat="43.6851" lon="3.88274">
        <ele>122</ele>
        <time>2020-06-06T12:54:13.000Z</time>
      </trkpt>
      <trkpt lat="43.68517" lon="3.88274">
        <ele>122</ele>
        <time>2020-06-06T12:54:14.000Z</time>
      </trkpt>
      <trkpt lat="43.68524" lon="3.88274">
        <ele>122</ele>
        <time>2020-06-06T12:54:15.000Z</time>
      </trkpt>
      <trkpt lat="43.68531" lon="3.88275">
        <ele>122</ele>
        <time>2020-06-06T12:54:16.000Z</time>
      </trkpt>
      <trkpt lat="43.68537" lon="3.88278">
        <ele>121.91460872428</ele>
        <time>2020-06-06T12:54:17.000Z</time>
      </trkpt>
      <trkpt lat="43.68543" lon="3.8828">
        <ele>121.81172806584</ele>
        <time>2020-06-06T12:54:18.000Z</time>
      </trkpt>
      <trkpt lat="43.68549" lon="3.88282">
        <ele>121.70884740741</ele>
        <time>2020-06-06T12:54:19.000Z</time>
      </trkpt>
      <trkpt lat="43.68555" lon="3.88282">
        <ele>121.60596674897</ele>
        <time>2020-06-06T12:54:20.000Z</time>
      </trkpt>
      <trkpt lat="43.6856" lon="3.88282">
        <ele>121.50308609054</ele>
        <time>2020-06-06T12:54:21.000Z</time>
      </trkpt>
      <trkpt lat="43.68566" lon="3.88281">
        <ele>121.4002054321</ele>
        <time>2020-06-06T12:54:22.000Z</time>
      </trkpt>
      <trkpt lat="43.68571" lon="3.88279">
        <ele>121.29732477366</ele>
        <time>2020-06-06T12:54:23.000Z</time>
      </trkpt>
      <trkpt lat="43.68576" lon="3.88277">
        <ele>121.19444411523</ele>
        <time>2020-06-06T12:54:24.000Z</time>
      </trkpt>
      <trkpt lat="43.68581" lon="3.88276">
        <ele>121.09156345679</ele>
        <time>2020-06-06T12:54:25.000Z</time>
      </trkpt>
      <trkpt lat="43.68586" lon="3.88275">
        <ele>121.01100032</ele>
        <time>2020-06-06T12:54:26.000Z</time>
      </trkpt>
      <trkpt lat="43.68591" lon="3.88275">
        <ele>121.11100032</ele>
        <time>2020-06-06T12:54:27.000Z</time>
      </trkpt>
      <trkpt lat="43.68596" lon="3.88275">
        <ele>121.21100032</ele>
        <time>2020-06-06T12:54:28.000Z</time>
      </trkpt>
      <trkpt lat="43.686" lon="3.88274">
        <ele>121.31100032</ele>
        <time>2020-06-06T12:54:29.000Z</time>
      </trkpt>
      <trkpt lat="43.68605" lon="3.88273">
        <ele>121.41100032</ele>
        <time>2020-06-06T12:54:30.000Z</time>
      </trkpt>
      <trkpt lat="43.68609" lon="3.88273">
        <ele>121.51100032</ele>
        <time>2020-06-06T12:54:31.000Z</time>
      </trkpt>
      <trkpt lat="43.68613" lon="3.88273">
        <ele>121.61100032</ele>
        <time>2020-06-06T12:54:32.000Z</time>
      </trkpt>
      <trkpt lat="43.68618" lon="3.88273">
        <ele>121.71100032</ele>
        <time>2020-06-06T12:54:33.000Z</time>
      </trkpt>
      <trkpt lat="43.68622" lon="3.88274">
        <ele>121.81100032</ele>
        <time>2020-06-06T12:54:34.000Z</time>
      </trkpt>
      <trkpt lat="43.68627" lon="3.88275">
        <ele>121.91100032</ele>
        <time>2020-06-06T12:54:35.000Z</time>
      </trkpt>
      <trkpt lat="43.68631" lon="3.88276">
        <ele>122.01084843497</ele>
        <time>2020-06-06T12:54:36.000Z</time>
      </trkpt>
      <trkpt lat="43.68636" lon="3.88277">
        <ele>122.10946770211</ele>
        <time>2020-06-06T12:54:37.000Z</time>
      </trkpt>
      <trkpt lat="43.6864" lon="3.88279">
        <ele>122.20808696926</ele>
        <time>2020-06-06T12:54:38.000Z</time>
      </trkpt>
      <trkpt lat="43.68643" lon="3.88282">
        <ele>122.3067062364</ele>
        <time>2020-06-06T12:54:39.000Z</time>
      </trkpt>
      <trkpt lat="43.68647" lon="3.88284">
        <ele>122.40532550354</ele>
        <time>2020-06-06T12:54:40.000Z</time>
      </trkpt>
      <trkpt lat="43.68651" lon="3.88286">
        <ele>122.50394477069</ele>
        <time>2020-06-06T12:54:41.000Z</time>
      </trkpt>
      <trkpt lat="43.68654" lon="3.88287">
        <ele>122.60256403783</ele>
        <time>2020-06-06T12:54:42.000Z</time>
      </trkpt>
      <trkpt lat="43.68658" lon="3.88288">
        <ele>122.70118330497</ele>
        <time>2020-06-06T12:54:43.000Z</time>
      </trkpt>
      <trkpt lat="43.68661" lon="3.8829">
        <ele>122.79980257212</ele>
        <time>2020-06-06T12:54:44.000Z</time>
      </trkpt>
      <trkpt lat="43.68664" lon="3.88292">
        <ele>122.89842183926</ele>
        <time>2020-06-06T12:54:45.000Z</time>
      </trkpt>
      <trkpt lat="43.68667" lon="3.88294">
        <ele>122.9970411064</ele>
        <time>2020-06-06T12:54:46.000Z</time>
      </trkpt>
      <trkpt lat="43.6867" lon="3.88297">
        <ele>123.09837702126</ele>
        <time>2020-06-06T12:54:47.000Z</time>
      </trkpt>
      <trkpt lat="43.68674" lon="3.88299">
        <ele>123.19979696539</ele>
        <time>2020-06-06T12:54:48.000Z</time>
      </trkpt>
      <trkpt lat="43.68677" lon="3.88301">
        <ele>123.30121690951</ele>
        <time>2020-06-06T12:54:49.000Z</time>
      </trkpt>
      <trkpt lat="43.6868" lon="3.88302">
        <ele>123.40263685364</ele>
        <time>2020-06-06T12:54:50.000Z</time>
      </trkpt>
      <trkpt lat="43.68684" lon="3.88304">
        <ele>123.50405679777</ele>
        <time>2020-06-06T12:54:51.000Z</time>
      </trkpt>
      <trkpt lat="43.68686" lon="3.88306">
        <ele>123.60547674189</ele>
        <time>2020-06-06T12:54:52.000Z</time>
      </trkpt>
      <trkpt lat="43.68689" lon="3.88307">
        <ele>123.70689668602</ele>
        <time>2020-06-06T12:54:53.000Z</time>
      </trkpt>
      <trkpt lat="43.68692" lon="3.88308">
        <ele>123.80831663015</ele>
        <time>2020-06-06T12:54:54.000Z</time>
      </trkpt>
      <trkpt lat="43.68695" lon="3.88309">
        <ele>123.90973657427</ele>
        <time>2020-06-06T12:54:55.000Z</time>
      </trkpt>
      <trkpt lat="43.68697" lon="3.88311">
        <ele>124.01100032</ele>
        <time>2020-06-06T12:54:56.000Z</time>
      </trkpt>
      <trkpt lat="43.687" lon="3.88312">
        <ele>124.11100032</ele>
        <time>2020-06-06T12:54:57.000Z</time>
      </trkpt>
      <trkpt lat="43.68702" lon="3.88313">
        <ele>124.21100032</ele>
        <time>2020-06-06T12:54:58.000Z</time>
      </trkpt>
      <trkpt lat="43.68705" lon="3.88314">
        <ele>124.31100032</ele>
        <time>2020-06-06T12:54:59.000Z</time>
      </trkpt>
      <trkpt lat="43.68708" lon="3.88315">
        <ele>124.41100032</ele>
        <time>2020-06-06T12:55:00.000Z</time>
      </trkpt>
      <trkpt lat="43.6871" lon="3.88316">
        <ele>124.51100032</ele>
        <time>2020-06-06T12:55:01.000Z</time>
      </trkpt>
      <trkpt lat="43.68713" lon="3.88316">
        <ele>124.61100032</ele>
        <time>2020-06-06T12:55:02.000Z</time>
      </trkpt>
      <trkpt lat="43.68715" lon="3.88317">
        <ele>124.71100032</ele>
        <time>2020-06-06T12:55:03.000Z</time>
      </trkpt>
      <trkpt lat="43.68718" lon="3.88318">
        <ele>124.81100032</ele>
        <time>2020-06-06T12:55:04.000Z</time>
      </trkpt>
      <trkpt lat="43.6872" lon="3.88319">
        <ele>124.91100032</ele>
        <time>2020-06-06T12:55:05.000Z</time>
      </trkpt>
      <trkpt lat="43.68723" lon="3.8832">
        <ele>125.01084843497</ele>
        <time>2020-06-06T12:55:06.000Z</time>
      </trkpt>
      <trkpt lat="43.68725" lon="3.88321">
        <ele>125.10946770211</ele>
        <time>2020-06-06T12:55:07.000Z</time>
      </trkpt>
      <trkpt lat="43.68728" lon="3.88322">
        <ele>125.20808696926</ele>
        <time>2020-06-06T12:55:08.000Z</time>
      </trkpt>
      <trkpt lat="43.6873" lon="3.88323">
        <ele>125.3067062364</ele>
        <time>2020-06-06T12:55:09.000Z</time>
      </trkpt>
      <trkpt lat="43.68733" lon="3.88324">
        <ele>125.40532550354</ele>
        <time>2020-06-06T12:55:10.000Z</time>
      </trkpt>
      <trkpt lat="43.68736" lon="3.88325">
        <ele>125.50394477069</ele>
        <time>2020-06-06T12:55:11.000Z</time>
      </trkpt>
      <trkpt lat="43.68738" lon="3.88327">
        <ele>125.60256403783</ele>
        <time>2020-06-06T12:55:12.000Z</time>
      </trkpt>
      <trkpt lat="43.68741" lon="3.88328">
        <ele>125.70118330497</ele>
        <time>2020-06-06T12:55:13.000Z</time>
      </trkpt>
      <trkpt lat="43.68743" lon="3.8833">
        <ele>125.79980257212</ele>
        <time>2020-06-06T12:55:14.000Z</time>
      </trkpt>
      <trkpt lat="43.68746" lon="3.88331">
        <ele>125.89842183926</ele>
        <time>2020-06-06T12:55:15.000Z</time>
      </trkpt>
      <trkpt lat="43.68748" lon="3.88332">
        <ele>125.9970411064</ele>
        <time>2020-06-06T12:55:16.000Z</time>
      </trkpt>
      <trkpt lat="43.6875" lon="3.88333">
        <ele>126</ele>
        <time>2020-06-06T12:55:17.000Z</time>
      </trkpt>
      <trkpt lat="43.68753" lon="3.88334">
        <ele>126</ele>
        <time>2020-06-06T12:55:18.000Z</time>
      </trkpt>
      <trkpt lat="43.68755" lon="3.88334">
        <ele>126</ele>
        <time>2020-06-06T12:55:19.000Z</time>
      </trkpt>
      <trkpt lat="43.68759" lon="3.88335">
        <ele>126</ele>
        <time>2020-06-06T12:55:20.000Z</time>
      </trkpt>
      <trkpt lat="43.68762" lon="3.88336">
        <ele>126</ele>
        <time>2020-06-06T12:55:21.000Z</time>
      </trkpt>
      <trkpt lat="43.68765" lon="3.88336">
        <ele>126</ele>
        <time>2020-06-06T12:55:22.000Z</time>
      </trkpt>
      <trkpt lat="43.6877" lon="3.88336">
        <ele>126</ele>
        <time>2020-06-06T12:55:23.000Z</time>
      </trkpt>
      <trkpt lat="43.68774" lon="3.88336">
        <ele>126</ele>
        <time>2020-06-06T12:55:24.000Z</time>
      </trkpt>
      <trkpt lat="43.68779" lon="3.88335">
        <ele>126</ele>
        <time>2020-06-06T12:55:25.000Z</time>
      </trkpt>
      <trkpt lat="43.68784" lon="3.88335">
        <ele>126</ele>
        <time>2020-06-06T12:55:26.000Z</time>
      </trkpt>
      <trkpt lat="43.6879" lon="3.88335">
        <ele>125.74948536048</ele>
        <time>2020-06-06T12:55:27.000Z</time>
      </trkpt>
      <trkpt lat="43.68796" lon="3.88335">
        <ele>125.44020680591</ele>
        <time>2020-06-06T12:55:28.000Z</time>
      </trkpt>
      <trkpt lat="43.68802" lon="3.88335">
        <ele>125.13092825133</ele>
        <time>2020-06-06T12:55:29.000Z</time>
      </trkpt>
      <trkpt lat="43.68807" lon="3.88335">
        <ele>124.82164969676</ele>
        <time>2020-06-06T12:55:30.000Z</time>
      </trkpt>
      <trkpt lat="43.68813" lon="3.88335">
        <ele>124.51237114218</ele>
        <time>2020-06-06T12:55:31.000Z</time>
      </trkpt>
      <trkpt lat="43.6882" lon="3.88335">
        <ele>124.20309258761</ele>
        <time>2020-06-06T12:55:32.000Z</time>
      </trkpt>
      <trkpt lat="43.68827" lon="3.88335">
        <ele>123.89381403303</ele>
        <time>2020-06-06T12:55:33.000Z</time>
      </trkpt>
      <trkpt lat="43.68834" lon="3.88337">
        <ele>123.58453547846</ele>
        <time>2020-06-06T12:55:34.000Z</time>
      </trkpt>
      <trkpt lat="43.68841" lon="3.8834">
        <ele>123.27525692388</ele>
        <time>2020-06-06T12:55:35.000Z</time>
      </trkpt>
      <trkpt lat="43.68847" lon="3.88342">
        <ele>122.95599872</ele>
        <time>2020-06-06T12:55:36.000Z</time>
      </trkpt>
      <trkpt lat="43.68854" lon="3.88344">
        <ele>122.55599872</ele>
        <time>2020-06-06T12:55:37.000Z</time>
      </trkpt>
      <trkpt lat="43.68861" lon="3.88345">
        <ele>122.15599872</ele>
        <time>2020-06-06T12:55:38.000Z</time>
      </trkpt>
      <trkpt lat="43.68868" lon="3.88345">
        <ele>121.75599872</ele>
        <time>2020-06-06T12:55:39.000Z</time>
      </trkpt>
      <trkpt lat="43.68875" lon="3.88346">
        <ele>121.35599872</ele>
        <time>2020-06-06T12:55:40.000Z</time>
      </trkpt>
      <trkpt lat="43.68881" lon="3.88346">
        <ele>120.95599872</ele>
        <time>2020-06-06T12:55:41.000Z</time>
      </trkpt>
      <trkpt lat="43.68888" lon="3.88345">
        <ele>120.55599872</ele>
        <time>2020-06-06T12:55:42.000Z</time>
      </trkpt>
      <trkpt lat="43.68895" lon="3.88344">
        <ele>120.15599872</ele>
        <time>2020-06-06T12:55:43.000Z</time>
      </trkpt>
      <trkpt lat="43.68902" lon="3.88344">
        <ele>119.75599872</ele>
        <time>2020-06-06T12:55:44.000Z</time>
      </trkpt>
      <trkpt lat="43.68907" lon="3.88343">
        <ele>119.35599872</ele>
        <time>2020-06-06T12:55:45.000Z</time>
      </trkpt>
      <trkpt lat="43.68912" lon="3.88344">
        <ele>118.98899968</ele>
        <time>2020-06-06T12:55:46.000Z</time>
      </trkpt>
      <trkpt lat="43.68916" lon="3.88345">
        <ele>118.88899968</ele>
        <time>2020-06-06T12:55:47.000Z</time>
      </trkpt>
      <trkpt lat="43.6892" lon="3.88347">
        <ele>118.78899968</ele>
        <time>2020-06-06T12:55:48.000Z</time>
      </trkpt>
      <trkpt lat="43.68923" lon="3.88348">
        <ele>118.68899968</ele>
        <time>2020-06-06T12:55:49.000Z</time>
      </trkpt>
      <trkpt lat="43.68927" lon="3.88349">
        <ele>118.58899968</ele>
        <time>2020-06-06T12:55:50.000Z</time>
      </trkpt>
      <trkpt lat="43.68931" lon="3.88351">
        <ele>118.48899968</ele>
        <time>2020-06-06T12:55:51.000Z</time>
      </trkpt>
      <trkpt lat="43.68936" lon="3.88351">
        <ele>118.38899968</ele>
        <time>2020-06-06T12:55:52.000Z</time>
      </trkpt>
      <trkpt lat="43.68941" lon="3.88352">
        <ele>118.28899968</ele>
        <time>2020-06-06T12:55:53.000Z</time>
      </trkpt>
      <trkpt lat="43.68945" lon="3.88352">
        <ele>118.18899968</ele>
        <time>2020-06-06T12:55:54.000Z</time>
      </trkpt>
      <trkpt lat="43.6895" lon="3.88352">
        <ele>118.08899968</ele>
        <time>2020-06-06T12:55:55.000Z</time>
      </trkpt>
      <trkpt lat="43.68955" lon="3.88352">
        <ele>117.97799936</ele>
        <time>2020-06-06T12:55:56.000Z</time>
      </trkpt>
      <trkpt lat="43.68961" lon="3.88353">
        <ele>117.77799936</ele>
        <time>2020-06-06T12:55:57.000Z</time>
      </trkpt>
      <trkpt lat="43.68966" lon="3.88356">
        <ele>117.57799936</ele>
        <time>2020-06-06T12:55:58.000Z</time>
      </trkpt>
      <trkpt lat="43.68972" lon="3.88359">
        <ele>117.37799936</ele>
        <time>2020-06-06T12:55:59.000Z</time>
      </trkpt>
      <trkpt lat="43.68977" lon="3.88362">
        <ele>117.17799936</ele>
        <time>2020-06-06T12:56:00.000Z</time>
      </trkpt>
      <trkpt lat="43.68982" lon="3.88364">
        <ele>116.97799936</ele>
        <time>2020-06-06T12:56:01.000Z</time>
      </trkpt>
      <trkpt lat="43.68987" lon="3.88367">
        <ele>116.77799936</ele>
        <time>2020-06-06T12:56:02.000Z</time>
      </trkpt>
      <trkpt lat="43.68992" lon="3.88371">
        <ele>116.57799936</ele>
        <time>2020-06-06T12:56:03.000Z</time>
      </trkpt>
      <trkpt lat="43.68997" lon="3.88375">
        <ele>116.37799936</ele>
        <time>2020-06-06T12:56:04.000Z</time>
      </trkpt>
      <trkpt lat="43.69002" lon="3.8838">
        <ele>116.17799936</ele>
        <time>2020-06-06T12:56:05.000Z</time>
      </trkpt>
      <trkpt lat="43.69007" lon="3.88385">
        <ele>116</ele>
        <time>2020-06-06T12:56:06.000Z</time>
      </trkpt>
      <trkpt lat="43.69012" lon="3.88389">
        <ele>116</ele>
        <time>2020-06-06T12:56:07.000Z</time>
      </trkpt>
      <trkpt lat="43.69017" lon="3.88394">
        <ele>116</ele>
        <time>2020-06-06T12:56:08.000Z</time>
      </trkpt>
      <trkpt lat="43.69022" lon="3.884">
        <ele>116</ele>
        <time>2020-06-06T12:56:09.000Z</time>
      </trkpt>
      <trkpt lat="43.69027" lon="3.88405">
        <ele>116</ele>
        <time>2020-06-06T12:56:10.000Z</time>
      </trkpt>
      <trkpt lat="43.69031" lon="3.8841">
        <ele>116</ele>
        <time>2020-06-06T12:56:11.000Z</time>
      </trkpt>
      <trkpt lat="43.69035" lon="3.88415">
        <ele>116</ele>
        <time>2020-06-06T12:56:12.000Z</time>
      </trkpt>
      <trkpt lat="43.69039" lon="3.88419">
        <ele>116</ele>
        <time>2020-06-06T12:56:13.000Z</time>
      </trkpt>
      <trkpt lat="43.69043" lon="3.88425">
        <ele>116</ele>
        <time>2020-06-06T12:56:14.000Z</time>
      </trkpt>
      <trkpt lat="43.69047" lon="3.8843">
        <ele>116</ele>
        <time>2020-06-06T12:56:15.000Z</time>
      </trkpt>
      <trkpt lat="43.69051" lon="3.88434">
        <ele>115.97799936</ele>
        <time>2020-06-06T12:56:16.000Z</time>
      </trkpt>
      <trkpt lat="43.69055" lon="3.88439">
        <ele>115.77799936</ele>
        <time>2020-06-06T12:56:17.000Z</time>
      </trkpt>
      <trkpt lat="43.69059" lon="3.88443">
        <ele>115.57799936</ele>
        <time>2020-06-06T12:56:18.000Z</time>
      </trkpt>
      <trkpt lat="43.69064" lon="3.88446">
        <ele>115.37799936</ele>
        <time>2020-06-06T12:56:19.000Z</time>
      </trkpt>
      <trkpt lat="43.69069" lon="3.88449">
        <ele>115.17799936</ele>
        <time>2020-06-06T12:56:20.000Z</time>
      </trkpt>
      <trkpt lat="43.69074" lon="3.88453">
        <ele>114.97799936</ele>
        <time>2020-06-06T12:56:21.000Z</time>
      </trkpt>
      <trkpt lat="43.69079" lon="3.88457">
        <ele>114.77799936</ele>
        <time>2020-06-06T12:56:22.000Z</time>
      </trkpt>
      <trkpt lat="43.69082" lon="3.8846">
        <ele>114.57799936</ele>
        <time>2020-06-06T12:56:23.000Z</time>
      </trkpt>
      <trkpt lat="43.69088" lon="3.88463">
        <ele>114.37799936</ele>
        <time>2020-06-06T12:56:24.000Z</time>
      </trkpt>
      <trkpt lat="43.69093" lon="3.88465">
        <ele>114.17799936</ele>
        <time>2020-06-06T12:56:25.000Z</time>
      </trkpt>
      <trkpt lat="43.69099" lon="3.88466">
        <ele>113.97799936</ele>
        <time>2020-06-06T12:56:26.000Z</time>
      </trkpt>
      <trkpt lat="43.69105" lon="3.88468">
        <ele>113.77799936</ele>
        <time>2020-06-06T12:56:27.000Z</time>
      </trkpt>
      <trkpt lat="43.69111" lon="3.8847">
        <ele>113.57799936</ele>
        <time>2020-06-06T12:56:28.000Z</time>
      </trkpt>
      <trkpt lat="43.69117" lon="3.88473">
        <ele>113.37799936</ele>
        <time>2020-06-06T12:56:29.000Z</time>
      </trkpt>
      <trkpt lat="43.69129" lon="3.88482">
        <ele>112.97799936</ele>
        <time>2020-06-06T12:56:31.000Z</time>
      </trkpt>
      <trkpt lat="43.6914" lon="3.88491">
        <ele>112.57799936</ele>
        <time>2020-06-06T12:56:33.000Z</time>
      </trkpt>
      <trkpt lat="43.69152" lon="3.88503">
        <ele>112.17799936</ele>
        <time>2020-06-06T12:56:35.000Z</time>
      </trkpt>
      <trkpt lat="43.69162" lon="3.88514">
        <ele>111.66699904</ele>
        <time>2020-06-06T12:56:37.000Z</time>
      </trkpt>
      <trkpt lat="43.69168" lon="3.8852">
        <ele>111.36699904</ele>
        <time>2020-06-06T12:56:38.000Z</time>
      </trkpt>
      <trkpt lat="43.69174" lon="3.88525">
        <ele>111.06699904</ele>
        <time>2020-06-06T12:56:39.000Z</time>
      </trkpt>
      <trkpt lat="43.69179" lon="3.8853">
        <ele>110.76699904</ele>
        <time>2020-06-06T12:56:40.000Z</time>
      </trkpt>
      <trkpt lat="43.69184" lon="3.88534">
        <ele>110.46699904</ele>
        <time>2020-06-06T12:56:41.000Z</time>
      </trkpt>
      <trkpt lat="43.69191" lon="3.8854">
        <ele>109.86699904</ele>
        <time>2020-06-06T12:56:43.000Z</time>
      </trkpt>
      <trkpt lat="43.69195" lon="3.88546">
        <ele>109.56699904</ele>
        <time>2020-06-06T12:56:44.000Z</time>
      </trkpt>
      <trkpt lat="43.69199" lon="3.88552">
        <ele>109.26699904</ele>
        <time>2020-06-06T12:56:45.000Z</time>
      </trkpt>
      <trkpt lat="43.69203" lon="3.88558">
        <ele>108.95599872</ele>
        <time>2020-06-06T12:56:46.000Z</time>
      </trkpt>
      <trkpt lat="43.69207" lon="3.88564">
        <ele>108.55599872</ele>
        <time>2020-06-06T12:56:47.000Z</time>
      </trkpt>
      <trkpt lat="43.6921" lon="3.88569">
        <ele>108.15599872</ele>
        <time>2020-06-06T12:56:48.000Z</time>
      </trkpt>
      <trkpt lat="43.69216" lon="3.88579">
        <ele>107.35599872</ele>
        <time>2020-06-06T12:56:50.000Z</time>
      </trkpt>
      <trkpt lat="43.69222" lon="3.88596">
        <ele>106.15599872</ele>
        <time>2020-06-06T12:56:53.000Z</time>
      </trkpt>
      <trkpt lat="43.69227" lon="3.8861">
        <ele>105.35599872</ele>
        <time>2020-06-06T12:56:55.000Z</time>
      </trkpt>
      <trkpt lat="43.69231" lon="3.88617">
        <ele>104.95604271948</ele>
        <time>2020-06-06T12:56:56.000Z</time>
      </trkpt>
      <trkpt lat="43.69236" lon="3.88624">
        <ele>104.55644270311</ele>
        <time>2020-06-06T12:56:57.000Z</time>
      </trkpt>
      <trkpt lat="43.6924" lon="3.88632">
        <ele>104.15684268674</ele>
        <time>2020-06-06T12:56:58.000Z</time>
      </trkpt>
      <trkpt lat="43.69245" lon="3.8865">
        <ele>103.35764265401</ele>
        <time>2020-06-06T12:57:00.000Z</time>
      </trkpt>
      <trkpt lat="43.69247" lon="3.88658">
        <ele>102.95804263764</ele>
        <time>2020-06-06T12:57:01.000Z</time>
      </trkpt>
      <trkpt lat="43.6925" lon="3.88666">
        <ele>102.55844262127</ele>
        <time>2020-06-06T12:57:02.000Z</time>
      </trkpt>
      <trkpt lat="43.69254" lon="3.88672">
        <ele>102.15884260491</ele>
        <time>2020-06-06T12:57:03.000Z</time>
      </trkpt>
      <trkpt lat="43.69258" lon="3.88678">
        <ele>101.75924258854</ele>
        <time>2020-06-06T12:57:04.000Z</time>
      </trkpt>
      <trkpt lat="43.69261" lon="3.88684">
        <ele>101.35964257217</ele>
        <time>2020-06-06T12:57:05.000Z</time>
      </trkpt>
      <trkpt lat="43.69264" lon="3.8869">
        <ele>100.97998124202</ele>
        <time>2020-06-06T12:57:06.000Z</time>
      </trkpt>
      <trkpt lat="43.69266" lon="3.88696">
        <ele>100.77978084944</ele>
        <time>2020-06-06T12:57:07.000Z</time>
      </trkpt>
      <trkpt lat="43.69268" lon="3.88702">
        <ele>100.57958045685</ele>
        <time>2020-06-06T12:57:08.000Z</time>
      </trkpt>
      <trkpt lat="43.6927" lon="3.88709">
        <ele>100.37938006427</ele>
        <time>2020-06-06T12:57:09.000Z</time>
      </trkpt>
      <trkpt lat="43.69271" lon="3.88716">
        <ele>100.17917967168</ele>
        <time>2020-06-06T12:57:10.000Z</time>
      </trkpt>
      <trkpt lat="43.69272" lon="3.88722">
        <ele>99.978979279099</ele>
        <time>2020-06-06T12:57:11.000Z</time>
      </trkpt>
      <trkpt lat="43.69273" lon="3.88728">
        <ele>99.778778886514</ele>
        <time>2020-06-06T12:57:12.000Z</time>
      </trkpt>
      <trkpt lat="43.69273" lon="3.88735">
        <ele>99.578578493929</ele>
        <time>2020-06-06T12:57:13.000Z</time>
      </trkpt>
      <trkpt lat="43.69274" lon="3.88741">
        <ele>99.378378101344</ele>
        <time>2020-06-06T12:57:14.000Z</time>
      </trkpt>
      <trkpt lat="43.69275" lon="3.88748">
        <ele>99.178177708759</ele>
        <time>2020-06-06T12:57:15.000Z</time>
      </trkpt>
      <trkpt lat="43.69276" lon="3.88754">
        <ele>99</ele>
        <time>2020-06-06T12:57:16.000Z</time>
      </trkpt>
      <trkpt lat="43.69276" lon="3.8876">
        <ele>99</ele>
        <time>2020-06-06T12:57:17.000Z</time>
      </trkpt>
      <trkpt lat="43.69277" lon="3.88766">
        <ele>99</ele>
        <time>2020-06-06T12:57:18.000Z</time>
      </trkpt>
      <trkpt lat="43.69277" lon="3.88772">
        <ele>99</ele>
        <time>2020-06-06T12:57:19.000Z</time>
      </trkpt>
      <trkpt lat="43.69278" lon="3.88777">
        <ele>99</ele>
        <time>2020-06-06T12:57:20.000Z</time>
      </trkpt>
      <trkpt lat="43.69279" lon="3.88782">
        <ele>99</ele>
        <time>2020-06-06T12:57:21.000Z</time>
      </trkpt>
      <trkpt lat="43.69279" lon="3.88787">
        <ele>99</ele>
        <time>2020-06-06T12:57:22.000Z</time>
      </trkpt>
      <trkpt lat="43.6928" lon="3.88792">
        <ele>99</ele>
        <time>2020-06-06T12:57:23.000Z</time>
      </trkpt>
      <trkpt lat="43.69281" lon="3.88797">
        <ele>99</ele>
        <time>2020-06-06T12:57:24.000Z</time>
      </trkpt>
      <trkpt lat="43.69282" lon="3.88801">
        <ele>99</ele>
        <time>2020-06-06T12:57:25.000Z</time>
      </trkpt>
      <trkpt lat="43.69283" lon="3.88806">
        <ele>99</ele>
        <time>2020-06-06T12:57:26.000Z</time>
      </trkpt>
      <trkpt lat="43.69284" lon="3.88811">
        <ele>99.08444965291</ele>
        <time>2020-06-06T12:57:27.000Z</time>
      </trkpt>
      <trkpt lat="43.69285" lon="3.88815">
        <ele>99.187436230711</ele>
        <time>2020-06-06T12:57:28.000Z</time>
      </trkpt>
      <trkpt lat="43.69286" lon="3.88819">
        <ele>99.290422808511</ele>
        <time>2020-06-06T12:57:29.000Z</time>
      </trkpt>
      <trkpt lat="43.69288" lon="3.88823">
        <ele>99.393409386312</ele>
        <time>2020-06-06T12:57:30.000Z</time>
      </trkpt>
      <trkpt lat="43.69289" lon="3.88827">
        <ele>99.496395964113</ele>
        <time>2020-06-06T12:57:31.000Z</time>
      </trkpt>
      <trkpt lat="43.6929" lon="3.88831">
        <ele>99.599382541913</ele>
        <time>2020-06-06T12:57:32.000Z</time>
      </trkpt>
      <trkpt lat="43.69291" lon="3.88836">
        <ele>99.702369119714</ele>
        <time>2020-06-06T12:57:33.000Z</time>
      </trkpt>
      <trkpt lat="43.69293" lon="3.8884">
        <ele>99.805355697514</ele>
        <time>2020-06-06T12:57:34.000Z</time>
      </trkpt>
      <trkpt lat="43.69295" lon="3.88844">
        <ele>99.908342275315</ele>
        <time>2020-06-06T12:57:35.000Z</time>
      </trkpt>
      <trkpt lat="43.69296" lon="3.88848">
        <ele>100</ele>
        <time>2020-06-06T12:57:36.000Z</time>
      </trkpt>
      <trkpt lat="43.69298" lon="3.88852">
        <ele>100</ele>
        <time>2020-06-06T12:57:37.000Z</time>
      </trkpt>
      <trkpt lat="43.693" lon="3.88856">
        <ele>100</ele>
        <time>2020-06-06T12:57:38.000Z</time>
      </trkpt>
      <trkpt lat="43.69302" lon="3.8886">
        <ele>100</ele>
        <time>2020-06-06T12:57:39.000Z</time>
      </trkpt>
      <trkpt lat="43.69303" lon="3.88864">
        <ele>100</ele>
        <time>2020-06-06T12:57:40.000Z</time>
      </trkpt>
      <trkpt lat="43.69305" lon="3.88868">
        <ele>100</ele>
        <time>2020-06-06T12:57:41.000Z</time>
      </trkpt>
      <trkpt lat="43.69306" lon="3.88871">
        <ele>100</ele>
        <time>2020-06-06T12:57:42.000Z</time>
      </trkpt>
      <trkpt lat="43.69308" lon="3.88875">
        <ele>100</ele>
        <time>2020-06-06T12:57:43.000Z</time>
      </trkpt>
      <trkpt lat="43.6931" lon="3.88878">
        <ele>100</ele>
        <time>2020-06-06T12:57:44.000Z</time>
      </trkpt>
      <trkpt lat="43.69312" lon="3.88882">
        <ele>100</ele>
        <time>2020-06-06T12:57:45.000Z</time>
      </trkpt>
      <trkpt lat="43.69315" lon="3.88885">
        <ele>100.01100032</ele>
        <time>2020-06-06T12:57:46.000Z</time>
      </trkpt>
      <trkpt lat="43.69317" lon="3.88887">
        <ele>100.11100032</ele>
        <time>2020-06-06T12:57:47.000Z</time>
      </trkpt>
      <trkpt lat="43.6932" lon="3.8889">
        <ele>100.21100032</ele>
        <time>2020-06-06T12:57:48.000Z</time>
      </trkpt>
      <trkpt lat="43.69322" lon="3.88892">
        <ele>100.31100032</ele>
        <time>2020-06-06T12:57:49.000Z</time>
      </trkpt>
      <trkpt lat="43.69324" lon="3.88895">
        <ele>100.41100032</ele>
        <time>2020-06-06T12:57:50.000Z</time>
      </trkpt>
      <trkpt lat="43.69327" lon="3.88897">
        <ele>100.51100032</ele>
        <time>2020-06-06T12:57:51.000Z</time>
      </trkpt>
      <trkpt lat="43.69329" lon="3.88899">
        <ele>100.61100032</ele>
        <time>2020-06-06T12:57:52.000Z</time>
      </trkpt>
      <trkpt lat="43.69332" lon="3.88901">
        <ele>100.71100032</ele>
        <time>2020-06-06T12:57:53.000Z</time>
      </trkpt>
      <trkpt lat="43.69334" lon="3.88903">
        <ele>100.81100032</ele>
        <time>2020-06-06T12:57:54.000Z</time>
      </trkpt>
      <trkpt lat="43.69336" lon="3.88904">
        <ele>100.91100032</ele>
        <time>2020-06-06T12:57:55.000Z</time>
      </trkpt>
      <trkpt lat="43.69338" lon="3.88906">
        <ele>101</ele>
        <time>2020-06-06T12:57:56.000Z</time>
      </trkpt>
      <trkpt lat="43.69341" lon="3.88908">
        <ele>101</ele>
        <time>2020-06-06T12:57:57.000Z</time>
      </trkpt>
      <trkpt lat="43.69344" lon="3.8891">
        <ele>101</ele>
        <time>2020-06-06T12:57:58.000Z</time>
      </trkpt>
      <trkpt lat="43.69347" lon="3.88912">
        <ele>101</ele>
        <time>2020-06-06T12:57:59.000Z</time>
      </trkpt>
      <trkpt lat="43.6935" lon="3.88914">
        <ele>101</ele>
        <time>2020-06-06T12:58:00.000Z</time>
      </trkpt>
      <trkpt lat="43.69353" lon="3.88915">
        <ele>101</ele>
        <time>2020-06-06T12:58:01.000Z</time>
      </trkpt>
      <trkpt lat="43.69356" lon="3.88917">
        <ele>101</ele>
        <time>2020-06-06T12:58:02.000Z</time>
      </trkpt>
      <trkpt lat="43.69359" lon="3.88918">
        <ele>101</ele>
        <time>2020-06-06T12:58:03.000Z</time>
      </trkpt>
      <trkpt lat="43.69362" lon="3.88919">
        <ele>101</ele>
        <time>2020-06-06T12:58:04.000Z</time>
      </trkpt>
      <trkpt lat="43.69365" lon="3.88921">
        <ele>101</ele>
        <time>2020-06-06T12:58:05.000Z</time>
      </trkpt>
      <trkpt lat="43.69368" lon="3.88922">
        <ele>101.01097835626</ele>
        <time>2020-06-06T12:58:06.000Z</time>
      </trkpt>
      <trkpt lat="43.69371" lon="3.88924">
        <ele>101.11077869172</ele>
        <time>2020-06-06T12:58:07.000Z</time>
      </trkpt>
      <trkpt lat="43.69374" lon="3.88926">
        <ele>101.21057902718</ele>
        <time>2020-06-06T12:58:08.000Z</time>
      </trkpt>
      <trkpt lat="43.69377" lon="3.88928">
        <ele>101.31037936263</ele>
        <time>2020-06-06T12:58:09.000Z</time>
      </trkpt>
      <trkpt lat="43.6938" lon="3.8893">
        <ele>101.41017969809</ele>
        <time>2020-06-06T12:58:10.000Z</time>
      </trkpt>
      <trkpt lat="43.69383" lon="3.88932">
        <ele>101.50998003355</ele>
        <time>2020-06-06T12:58:11.000Z</time>
      </trkpt>
      <trkpt lat="43.69385" lon="3.88934">
        <ele>101.609780369</ele>
        <time>2020-06-06T12:58:12.000Z</time>
      </trkpt>
      <trkpt lat="43.69388" lon="3.88936">
        <ele>101.70958070446</ele>
        <time>2020-06-06T12:58:13.000Z</time>
      </trkpt>
      <trkpt lat="43.69391" lon="3.88938">
        <ele>101.80938103992</ele>
        <time>2020-06-06T12:58:14.000Z</time>
      </trkpt>
      <trkpt lat="43.69394" lon="3.88941">
        <ele>101.90918137537</ele>
        <time>2020-06-06T12:58:15.000Z</time>
      </trkpt>
      <trkpt lat="43.69396" lon="3.88943">
        <ele>102.00901772121</ele>
        <time>2020-06-06T12:58:16.000Z</time>
      </trkpt>
      <trkpt lat="43.69399" lon="3.88945">
        <ele>102.10921818627</ele>
        <time>2020-06-06T12:58:17.000Z</time>
      </trkpt>
      <trkpt lat="43.69401" lon="3.88948">
        <ele>102.20941865133</ele>
        <time>2020-06-06T12:58:18.000Z</time>
      </trkpt>
      <trkpt lat="43.69404" lon="3.8895">
        <ele>102.30961911639</ele>
        <time>2020-06-06T12:58:19.000Z</time>
      </trkpt>
      <trkpt lat="43.69406" lon="3.88953">
        <ele>102.40981958145</ele>
        <time>2020-06-06T12:58:20.000Z</time>
      </trkpt>
      <trkpt lat="43.69409" lon="3.88955">
        <ele>102.51002004651</ele>
        <time>2020-06-06T12:58:21.000Z</time>
      </trkpt>
      <trkpt lat="43.69412" lon="3.88958">
        <ele>102.61022051156</ele>
        <time>2020-06-06T12:58:22.000Z</time>
      </trkpt>
      <trkpt lat="43.69414" lon="3.8896">
        <ele>102.71042097662</ele>
        <time>2020-06-06T12:58:23.000Z</time>
      </trkpt>
      <trkpt lat="43.69417" lon="3.88962">
        <ele>102.81062144168</ele>
        <time>2020-06-06T12:58:24.000Z</time>
      </trkpt>
      <trkpt lat="43.6942" lon="3.88964">
        <ele>102.91082190674</ele>
        <time>2020-06-06T12:58:25.000Z</time>
      </trkpt>
      <trkpt lat="43.69422" lon="3.88967">
        <ele>103</ele>
        <time>2020-06-06T12:58:26.000Z</time>
      </trkpt>
      <trkpt lat="43.69424" lon="3.8897">
        <ele>103</ele>
        <time>2020-06-06T12:58:27.000Z</time>
      </trkpt>
      <trkpt lat="43.69427" lon="3.88973">
        <ele>103</ele>
        <time>2020-06-06T12:58:28.000Z</time>
      </trkpt>
      <trkpt lat="43.69429" lon="3.88976">
        <ele>103</ele>
        <time>2020-06-06T12:58:29.000Z</time>
      </trkpt>
      <trkpt lat="43.69432" lon="3.88979">
        <ele>103</ele>
        <time>2020-06-06T12:58:30.000Z</time>
      </trkpt>
      <trkpt lat="43.69434" lon="3.88981">
        <ele>103</ele>
        <time>2020-06-06T12:58:31.000Z</time>
      </trkpt>
      <trkpt lat="43.69436" lon="3.88984">
        <ele>103</ele>
        <time>2020-06-06T12:58:32.000Z</time>
      </trkpt>
      <trkpt lat="43.69438" lon="3.88986">
        <ele>103</ele>
        <time>2020-06-06T12:58:33.000Z</time>
      </trkpt>
      <trkpt lat="43.69441" lon="3.88989">
        <ele>103</ele>
        <time>2020-06-06T12:58:34.000Z</time>
      </trkpt>
      <trkpt lat="43.69443" lon="3.88991">
        <ele>103</ele>
        <time>2020-06-06T12:58:35.000Z</time>
      </trkpt>
      <trkpt lat="43.69445" lon="3.88994">
        <ele>103.02200064</ele>
        <time>2020-06-06T12:58:36.000Z</time>
      </trkpt>
      <trkpt lat="43.69448" lon="3.88996">
        <ele>103.22200064</ele>
        <time>2020-06-06T12:58:37.000Z</time>
      </trkpt>
      <trkpt lat="43.6945" lon="3.88999">
        <ele>103.42200064</ele>
        <time>2020-06-06T12:58:38.000Z</time>
      </trkpt>
      <trkpt lat="43.69452" lon="3.89001">
        <ele>103.62200064</ele>
        <time>2020-06-06T12:58:39.000Z</time>
      </trkpt>
      <trkpt lat="43.69454" lon="3.89004">
        <ele>103.82200064</ele>
        <time>2020-06-06T12:58:40.000Z</time>
      </trkpt>
      <trkpt lat="43.69455" lon="3.89008">
        <ele>104.02200064</ele>
        <time>2020-06-06T12:58:41.000Z</time>
      </trkpt>
      <trkpt lat="43.69457" lon="3.89011">
        <ele>104.22200064</ele>
        <time>2020-06-06T12:58:42.000Z</time>
      </trkpt>
      <trkpt lat="43.69459" lon="3.89015">
        <ele>104.42200064</ele>
        <time>2020-06-06T12:58:43.000Z</time>
      </trkpt>
      <trkpt lat="43.6946" lon="3.89019">
        <ele>104.62200064</ele>
        <time>2020-06-06T12:58:44.000Z</time>
      </trkpt>
      <trkpt lat="43.69461" lon="3.89023">
        <ele>104.82200064</ele>
        <time>2020-06-06T12:58:45.000Z</time>
      </trkpt>
      <trkpt lat="43.69463" lon="3.89027">
        <ele>105.01067991569</ele>
        <time>2020-06-06T12:58:46.000Z</time>
      </trkpt>
      <trkpt lat="43.69463" lon="3.89032">
        <ele>105.10776723401</ele>
        <time>2020-06-06T12:58:47.000Z</time>
      </trkpt>
      <trkpt lat="43.69464" lon="3.89036">
        <ele>105.20485455232</ele>
        <time>2020-06-06T12:58:48.000Z</time>
      </trkpt>
      <trkpt lat="43.69463" lon="3.8904">
        <ele>105.30194187064</ele>
        <time>2020-06-06T12:58:49.000Z</time>
      </trkpt>
      <trkpt lat="43.69463" lon="3.89044">
        <ele>105.39902918895</ele>
        <time>2020-06-06T12:58:50.000Z</time>
      </trkpt>
      <trkpt lat="43.69462" lon="3.89048">
        <ele>105.49611650727</ele>
        <time>2020-06-06T12:58:51.000Z</time>
      </trkpt>
      <trkpt lat="43.69461" lon="3.89052">
        <ele>105.59320382558</ele>
        <time>2020-06-06T12:58:52.000Z</time>
      </trkpt>
      <trkpt lat="43.6946" lon="3.89056">
        <ele>105.6902911439</ele>
        <time>2020-06-06T12:58:53.000Z</time>
      </trkpt>
      <trkpt lat="43.6946" lon="3.8906">
        <ele>105.78737846221</ele>
        <time>2020-06-06T12:58:54.000Z</time>
      </trkpt>
      <trkpt lat="43.69459" lon="3.89063">
        <ele>105.88446578053</ele>
        <time>2020-06-06T12:58:55.000Z</time>
      </trkpt>
      <trkpt lat="43.69459" lon="3.89067">
        <ele>105.98155309884</ele>
        <time>2020-06-06T12:58:56.000Z</time>
      </trkpt>
      <trkpt lat="43.69458" lon="3.8907">
        <ele>106.16700975968</ele>
        <time>2020-06-06T12:58:57.000Z</time>
      </trkpt>
      <trkpt lat="43.69459" lon="3.89073">
        <ele>106.37319546273</ele>
        <time>2020-06-06T12:58:58.000Z</time>
      </trkpt>
      <trkpt lat="43.69459" lon="3.89077">
        <ele>106.57938116578</ele>
        <time>2020-06-06T12:58:59.000Z</time>
      </trkpt>
      <trkpt lat="43.69459" lon="3.89081">
        <ele>106.78556686883</ele>
        <time>2020-06-06T12:59:00.000Z</time>
      </trkpt>
      <trkpt lat="43.6946" lon="3.89084">
        <ele>106.99175257188</ele>
        <time>2020-06-06T12:59:01.000Z</time>
      </trkpt>
      <trkpt lat="43.69461" lon="3.89087">
        <ele>107.19793827493</ele>
        <time>2020-06-06T12:59:02.000Z</time>
      </trkpt>
      <trkpt lat="43.69461" lon="3.8909">
        <ele>107.40412397798</ele>
        <time>2020-06-06T12:59:03.000Z</time>
      </trkpt>
      <trkpt lat="43.69462" lon="3.89093">
        <ele>107.61030968103</ele>
        <time>2020-06-06T12:59:04.000Z</time>
      </trkpt>
      <trkpt lat="43.69463" lon="3.89095">
        <ele>107.81649538408</ele>
        <time>2020-06-06T12:59:05.000Z</time>
      </trkpt>
      <trkpt lat="43.69464" lon="3.89098">
        <ele>108.03300096</ele>
        <time>2020-06-06T12:59:06.000Z</time>
      </trkpt>
      <trkpt lat="43.69464" lon="3.89101">
        <ele>108.33300096</ele>
        <time>2020-06-06T12:59:07.000Z</time>
      </trkpt>
      <trkpt lat="43.69465" lon="3.89103">
        <ele>108.63300096</ele>
        <time>2020-06-06T12:59:08.000Z</time>
      </trkpt>
      <trkpt lat="43.69467" lon="3.89106">
        <ele>108.93300096</ele>
        <time>2020-06-06T12:59:09.000Z</time>
      </trkpt>
      <trkpt lat="43.69468" lon="3.89108">
        <ele>109.23300096</ele>
        <time>2020-06-06T12:59:10.000Z</time>
      </trkpt>
      <trkpt lat="43.69469" lon="3.89111">
        <ele>109.53300096</ele>
        <time>2020-06-06T12:59:11.000Z</time>
      </trkpt>
      <trkpt lat="43.69469" lon="3.89114">
        <ele>109.83300096</ele>
        <time>2020-06-06T12:59:12.000Z</time>
      </trkpt>
      <trkpt lat="43.6947" lon="3.89116">
        <ele>110.13300096</ele>
        <time>2020-06-06T12:59:13.000Z</time>
      </trkpt>
      <trkpt lat="43.69471" lon="3.89119">
        <ele>110.43300096</ele>
        <time>2020-06-06T12:59:14.000Z</time>
      </trkpt>
      <trkpt lat="43.69471" lon="3.89121">
        <ele>110.73300096</ele>
        <time>2020-06-06T12:59:15.000Z</time>
      </trkpt>
      <trkpt lat="43.69472" lon="3.89124">
        <ele>111.02200064</ele>
        <time>2020-06-06T12:59:16.000Z</time>
      </trkpt>
      <trkpt lat="43.69473" lon="3.89126">
        <ele>111.22200064</ele>
        <time>2020-06-06T12:59:17.000Z</time>
      </trkpt>
      <trkpt lat="43.69474" lon="3.89129">
        <ele>111.42200064</ele>
        <time>2020-06-06T12:59:18.000Z</time>
      </trkpt>
      <trkpt lat="43.69474" lon="3.89131">
        <ele>111.62200064</ele>
        <time>2020-06-06T12:59:19.000Z</time>
      </trkpt>
      <trkpt lat="43.69475" lon="3.89134">
        <ele>111.82200064</ele>
        <time>2020-06-06T12:59:20.000Z</time>
      </trkpt>
      <trkpt lat="43.69476" lon="3.89136">
        <ele>112.02200064</ele>
        <time>2020-06-06T12:59:21.000Z</time>
      </trkpt>
      <trkpt lat="43.69477" lon="3.89139">
        <ele>112.22200064</ele>
        <time>2020-06-06T12:59:22.000Z</time>
      </trkpt>
      <trkpt lat="43.69478" lon="3.89141">
        <ele>112.42200064</ele>
        <time>2020-06-06T12:59:23.000Z</time>
      </trkpt>
      <trkpt lat="43.69479" lon="3.89144">
        <ele>112.62200064</ele>
        <time>2020-06-06T12:59:24.000Z</time>
      </trkpt>
      <trkpt lat="43.6948" lon="3.89146">
        <ele>112.82200064</ele>
        <time>2020-06-06T12:59:25.000Z</time>
      </trkpt>
      <trkpt lat="43.69481" lon="3.89149">
        <ele>113.02200064</ele>
        <time>2020-06-06T12:59:26.000Z</time>
      </trkpt>
      <trkpt lat="43.69482" lon="3.89151">
        <ele>113.22200064</ele>
        <time>2020-06-06T12:59:27.000Z</time>
      </trkpt>
      <trkpt lat="43.69482" lon="3.89154">
        <ele>113.42200064</ele>
        <time>2020-06-06T12:59:28.000Z</time>
      </trkpt>
      <trkpt lat="43.69483" lon="3.89156">
        <ele>113.62200064</ele>
        <time>2020-06-06T12:59:29.000Z</time>
      </trkpt>
      <trkpt lat="43.69484" lon="3.89159">
        <ele>113.82200064</ele>
        <time>2020-06-06T12:59:30.000Z</time>
      </trkpt>
      <trkpt lat="43.69485" lon="3.89162">
        <ele>114.02200064</ele>
        <time>2020-06-06T12:59:31.000Z</time>
      </trkpt>
      <trkpt lat="43.69486" lon="3.89165">
        <ele>114.22200064</ele>
        <time>2020-06-06T12:59:32.000Z</time>
      </trkpt>
      <trkpt lat="43.69487" lon="3.89167">
        <ele>114.42200064</ele>
        <time>2020-06-06T12:59:33.000Z</time>
      </trkpt>
      <trkpt lat="43.69488" lon="3.89169">
        <ele>114.62200064</ele>
        <time>2020-06-06T12:59:34.000Z</time>
      </trkpt>
      <trkpt lat="43.69489" lon="3.89171">
        <ele>114.82200064</ele>
        <time>2020-06-06T12:59:35.000Z</time>
      </trkpt>
      <trkpt lat="43.6949" lon="3.89174">
        <ele>115.01100032</ele>
        <time>2020-06-06T12:59:36.000Z</time>
      </trkpt>
      <trkpt lat="43.69491" lon="3.89176">
        <ele>115.11100032</ele>
        <time>2020-06-06T12:59:37.000Z</time>
      </trkpt>
      <trkpt lat="43.69492" lon="3.89178">
        <ele>115.21100032</ele>
        <time>2020-06-06T12:59:38.000Z</time>
      </trkpt>
      <trkpt lat="43.69493" lon="3.89181">
        <ele>115.31100032</ele>
        <time>2020-06-06T12:59:39.000Z</time>
      </trkpt>
      <trkpt lat="43.69494" lon="3.89183">
        <ele>115.41100032</ele>
        <time>2020-06-06T12:59:40.000Z</time>
      </trkpt>
      <trkpt lat="43.69496" lon="3.89187">
        <ele>115.61100032</ele>
        <time>2020-06-06T12:59:42.000Z</time>
      </trkpt>
      <trkpt lat="43.69497" lon="3.89189">
        <ele>115.71100032</ele>
        <time>2020-06-06T12:59:43.000Z</time>
      </trkpt>
      <trkpt lat="43.69499" lon="3.8919">
        <ele>115.81100032</ele>
        <time>2020-06-06T12:59:44.000Z</time>
      </trkpt>
      <trkpt lat="43.69501" lon="3.89192">
        <ele>115.91100032</ele>
        <time>2020-06-06T12:59:45.000Z</time>
      </trkpt>
      <trkpt lat="43.69502" lon="3.89193">
        <ele>116.01100032</ele>
        <time>2020-06-06T12:59:46.000Z</time>
      </trkpt>
      <trkpt lat="43.69504" lon="3.89194">
        <ele>116.11100032</ele>
        <time>2020-06-06T12:59:47.000Z</time>
      </trkpt>
      <trkpt lat="43.69506" lon="3.89195">
        <ele>116.21100032</ele>
        <time>2020-06-06T12:59:48.000Z</time>
      </trkpt>
      <trkpt lat="43.69509" lon="3.89196">
        <ele>116.31100032</ele>
        <time>2020-06-06T12:59:49.000Z</time>
      </trkpt>
      <trkpt lat="43.69511" lon="3.89197">
        <ele>116.41100032</ele>
        <time>2020-06-06T12:59:50.000Z</time>
      </trkpt>
      <trkpt lat="43.69513" lon="3.89198">
        <ele>116.51100032</ele>
        <time>2020-06-06T12:59:51.000Z</time>
      </trkpt>
      <trkpt lat="43.69515" lon="3.89199">
        <ele>116.61100032</ele>
        <time>2020-06-06T12:59:52.000Z</time>
      </trkpt>
      <trkpt lat="43.69516" lon="3.892">
        <ele>116.71100032</ele>
        <time>2020-06-06T12:59:53.000Z</time>
      </trkpt>
      <trkpt lat="43.69518" lon="3.89202">
        <ele>116.81100032</ele>
        <time>2020-06-06T12:59:54.000Z</time>
      </trkpt>
      <trkpt lat="43.6952" lon="3.89203">
        <ele>116.91100032</ele>
        <time>2020-06-06T12:59:55.000Z</time>
      </trkpt>
      <trkpt lat="43.69523" lon="3.89206">
        <ele>117.11100032</ele>
        <time>2020-06-06T12:59:57.000Z</time>
      </trkpt>
      <trkpt lat="43.69525" lon="3.89209">
        <ele>117.31100032</ele>
        <time>2020-06-06T12:59:59.000Z</time>
      </trkpt>
      <trkpt lat="43.69526" lon="3.89212">
        <ele>117.51100032</ele>
        <time>2020-06-06T13:00:01.000Z</time>
      </trkpt>
      <trkpt lat="43.69525" lon="3.89216">
        <ele>117.71100032</ele>
        <time>2020-06-06T13:00:03.000Z</time>
      </trkpt>
      <trkpt lat="43.69523" lon="3.89219">
        <ele>117.91100032</ele>
        <time>2020-06-06T13:00:05.000Z</time>
      </trkpt>
      <trkpt lat="43.69522" lon="3.89221">
        <ele>117.97799936</ele>
        <time>2020-06-06T13:00:06.000Z</time>
      </trkpt>
      <trkpt lat="43.69521" lon="3.89225">
        <ele>117.77799936</ele>
        <time>2020-06-06T13:00:07.000Z</time>
      </trkpt>
      <trkpt lat="43.6952" lon="3.89229">
        <ele>117.57799936</ele>
        <time>2020-06-06T13:00:08.000Z</time>
      </trkpt>
      <trkpt lat="43.69518" lon="3.89234">
        <ele>117.37799936</ele>
        <time>2020-06-06T13:00:09.000Z</time>
      </trkpt>
      <trkpt lat="43.69516" lon="3.89241">
        <ele>117.17799936</ele>
        <time>2020-06-06T13:00:10.000Z</time>
      </trkpt>
      <trkpt lat="43.69514" lon="3.89247">
        <ele>116.97799936</ele>
        <time>2020-06-06T13:00:11.000Z</time>
      </trkpt>
      <trkpt lat="43.69512" lon="3.89253">
        <ele>116.77799936</ele>
        <time>2020-06-06T13:00:12.000Z</time>
      </trkpt>
      <trkpt lat="43.69508" lon="3.8926">
        <ele>116.57799936</ele>
        <time>2020-06-06T13:00:13.000Z</time>
      </trkpt>
      <trkpt lat="43.69503" lon="3.89267">
        <ele>116.37799936</ele>
        <time>2020-06-06T13:00:14.000Z</time>
      </trkpt>
      <trkpt lat="43.69497" lon="3.89274">
        <ele>116.17799936</ele>
        <time>2020-06-06T13:00:15.000Z</time>
      </trkpt>
      <trkpt lat="43.69491" lon="3.89281">
        <ele>115.96699904</ele>
        <time>2020-06-06T13:00:16.000Z</time>
      </trkpt>
      <trkpt lat="43.69484" lon="3.89287">
        <ele>115.66699904</ele>
        <time>2020-06-06T13:00:17.000Z</time>
      </trkpt>
      <trkpt lat="43.69477" lon="3.89293">
        <ele>115.36699904</ele>
        <time>2020-06-06T13:00:18.000Z</time>
      </trkpt>
      <trkpt lat="43.69469" lon="3.89297">
        <ele>115.06699904</ele>
        <time>2020-06-06T13:00:19.000Z</time>
      </trkpt>
      <trkpt lat="43.69462" lon="3.89301">
        <ele>114.76699904</ele>
        <time>2020-06-06T13:00:20.000Z</time>
      </trkpt>
      <trkpt lat="43.69454" lon="3.89306">
        <ele>114.46699904</ele>
        <time>2020-06-06T13:00:21.000Z</time>
      </trkpt>
      <trkpt lat="43.69446" lon="3.8931">
        <ele>114.16699904</ele>
        <time>2020-06-06T13:00:22.000Z</time>
      </trkpt>
      <trkpt lat="43.69439" lon="3.89314">
        <ele>113.86699904</ele>
        <time>2020-06-06T13:00:23.000Z</time>
      </trkpt>
      <trkpt lat="43.69432" lon="3.89318">
        <ele>113.56699904</ele>
        <time>2020-06-06T13:00:24.000Z</time>
      </trkpt>
      <trkpt lat="43.69426" lon="3.89322">
        <ele>113.26699904</ele>
        <time>2020-06-06T13:00:25.000Z</time>
      </trkpt>
      <trkpt lat="43.69421" lon="3.89326">
        <ele>112.98929929961</ele>
        <time>2020-06-06T13:00:26.000Z</time>
      </trkpt>
      <trkpt lat="43.69417" lon="3.89332">
        <ele>112.89202303502</ele>
        <time>2020-06-06T13:00:27.000Z</time>
      </trkpt>
      <trkpt lat="43.69413" lon="3.89338">
        <ele>112.79474677043</ele>
        <time>2020-06-06T13:00:28.000Z</time>
      </trkpt>
      <trkpt lat="43.69409" lon="3.89345">
        <ele>112.69747050584</ele>
        <time>2020-06-06T13:00:29.000Z</time>
      </trkpt>
      <trkpt lat="43.69406" lon="3.8935">
        <ele>112.60019424125</ele>
        <time>2020-06-06T13:00:30.000Z</time>
      </trkpt>
      <trkpt lat="43.69403" lon="3.89355">
        <ele>112.50291797665</ele>
        <time>2020-06-06T13:00:31.000Z</time>
      </trkpt>
      <trkpt lat="43.694" lon="3.8936">
        <ele>112.40564171206</ele>
        <time>2020-06-06T13:00:32.000Z</time>
      </trkpt>
      <trkpt lat="43.69397" lon="3.89363">
        <ele>112.30836544747</ele>
        <time>2020-06-06T13:00:33.000Z</time>
      </trkpt>
      <trkpt lat="43.69395" lon="3.89367">
        <ele>112.21108918288</ele>
        <time>2020-06-06T13:00:34.000Z</time>
      </trkpt>
      <trkpt lat="43.69394" lon="3.89371">
        <ele>112.11381291829</ele>
        <time>2020-06-06T13:00:35.000Z</time>
      </trkpt>
      <trkpt lat="43.69394" lon="3.89375">
        <ele>112.0165366537</ele>
        <time>2020-06-06T13:00:36.000Z</time>
      </trkpt>
      <trkpt lat="43.69394" lon="3.89381">
        <ele>111.91460872428</ele>
        <time>2020-06-06T13:00:37.000Z</time>
      </trkpt>
      <trkpt lat="43.69394" lon="3.89386">
        <ele>111.81172806584</ele>
        <time>2020-06-06T13:00:38.000Z</time>
      </trkpt>
      <trkpt lat="43.69394" lon="3.89392">
        <ele>111.70884740741</ele>
        <time>2020-06-06T13:00:39.000Z</time>
      </trkpt>
      <trkpt lat="43.69395" lon="3.89399">
        <ele>111.60596674897</ele>
        <time>2020-06-06T13:00:40.000Z</time>
      </trkpt>
      <trkpt lat="43.69395" lon="3.89406">
        <ele>111.50308609054</ele>
        <time>2020-06-06T13:00:41.000Z</time>
      </trkpt>
      <trkpt lat="43.69396" lon="3.89412">
        <ele>111.4002054321</ele>
        <time>2020-06-06T13:00:42.000Z</time>
      </trkpt>
      <trkpt lat="43.69398" lon="3.89417">
        <ele>111.29732477366</ele>
        <time>2020-06-06T13:00:43.000Z</time>
      </trkpt>
      <trkpt lat="43.694" lon="3.89421">
        <ele>111.19444411523</ele>
        <time>2020-06-06T13:00:44.000Z</time>
      </trkpt>
      <trkpt lat="43.69401" lon="3.89427">
        <ele>111.09156345679</ele>
        <time>2020-06-06T13:00:45.000Z</time>
      </trkpt>
      <trkpt lat="43.69403" lon="3.89431">
        <ele>111</ele>
        <time>2020-06-06T13:00:46.000Z</time>
      </trkpt>
      <trkpt lat="43.69404" lon="3.89434">
        <ele>111</ele>
        <time>2020-06-06T13:00:47.000Z</time>
      </trkpt>
      <trkpt lat="43.69405" lon="3.89436">
        <ele>111</ele>
        <time>2020-06-06T13:00:48.000Z</time>
      </trkpt>
      <trkpt lat="43.69407" lon="3.89438">
        <ele>111</ele>
        <time>2020-06-06T13:00:49.000Z</time>
      </trkpt>
      <trkpt lat="43.69408" lon="3.89442">
        <ele>111</ele>
        <time>2020-06-06T13:00:50.000Z</time>
      </trkpt>
      <trkpt lat="43.69409" lon="3.89446">
        <ele>111</ele>
        <time>2020-06-06T13:00:51.000Z</time>
      </trkpt>
      <trkpt lat="43.69411" lon="3.89449">
        <ele>111</ele>
        <time>2020-06-06T13:00:52.000Z</time>
      </trkpt>
      <trkpt lat="43.69413" lon="3.89451">
        <ele>111</ele>
        <time>2020-06-06T13:00:53.000Z</time>
      </trkpt>
      <trkpt lat="43.69415" lon="3.89454">
        <ele>111</ele>
        <time>2020-06-06T13:00:54.000Z</time>
      </trkpt>
      <trkpt lat="43.69415" lon="3.89458">
        <ele>111</ele>
        <time>2020-06-06T13:00:55.000Z</time>
      </trkpt>
      <trkpt lat="43.69415" lon="3.89464">
        <ele>111</ele>
        <time>2020-06-06T13:00:56.000Z</time>
      </trkpt>
      <trkpt lat="43.69415" lon="3.8947">
        <ele>110.9025380394</ele>
        <time>2020-06-06T13:00:57.000Z</time>
      </trkpt>
      <trkpt lat="43.69416" lon="3.89474">
        <ele>110.80101516378</ele>
        <time>2020-06-06T13:00:58.000Z</time>
      </trkpt>
      <trkpt lat="43.69418" lon="3.89478">
        <ele>110.69949228816</ele>
        <time>2020-06-06T13:00:59.000Z</time>
      </trkpt>
      <trkpt lat="43.6942" lon="3.89481">
        <ele>110.59796941254</ele>
        <time>2020-06-06T13:01:00.000Z</time>
      </trkpt>
      <trkpt lat="43.69423" lon="3.89485">
        <ele>110.49644653692</ele>
        <time>2020-06-06T13:01:01.000Z</time>
      </trkpt>
      <trkpt lat="43.69427" lon="3.89489">
        <ele>110.39492366129</ele>
        <time>2020-06-06T13:01:02.000Z</time>
      </trkpt>
      <trkpt lat="43.6943" lon="3.89493">
        <ele>110.29340078567</ele>
        <time>2020-06-06T13:01:03.000Z</time>
      </trkpt>
      <trkpt lat="43.69434" lon="3.89497">
        <ele>110.19187791005</ele>
        <time>2020-06-06T13:01:04.000Z</time>
      </trkpt>
      <trkpt lat="43.69437" lon="3.895">
        <ele>110.09035503443</ele>
        <time>2020-06-06T13:01:05.000Z</time>
      </trkpt>
      <trkpt lat="43.69439" lon="3.89503">
        <ele>109.97799936</ele>
        <time>2020-06-06T13:01:06.000Z</time>
      </trkpt>
      <trkpt lat="43.6944" lon="3.89507">
        <ele>109.77799936</ele>
        <time>2020-06-06T13:01:07.000Z</time>
      </trkpt>
      <trkpt lat="43.69441" lon="3.89512">
        <ele>109.57799936</ele>
        <time>2020-06-06T13:01:08.000Z</time>
      </trkpt>
      <trkpt lat="43.69442" lon="3.89519">
        <ele>109.37799936</ele>
        <time>2020-06-06T13:01:09.000Z</time>
      </trkpt>
      <trkpt lat="43.69444" lon="3.89527">
        <ele>109.17799936</ele>
        <time>2020-06-06T13:01:10.000Z</time>
      </trkpt>
      <trkpt lat="43.69446" lon="3.89533">
        <ele>108.97799936</ele>
        <time>2020-06-06T13:01:11.000Z</time>
      </trkpt>
      <trkpt lat="43.69449" lon="3.89539">
        <ele>108.77799936</ele>
        <time>2020-06-06T13:01:12.000Z</time>
      </trkpt>
      <trkpt lat="43.69453" lon="3.89544">
        <ele>108.57799936</ele>
        <time>2020-06-06T13:01:13.000Z</time>
      </trkpt>
      <trkpt lat="43.69457" lon="3.89547">
        <ele>108.37799936</ele>
        <time>2020-06-06T13:01:14.000Z</time>
      </trkpt>
      <trkpt lat="43.6946" lon="3.89551">
        <ele>108.17799936</ele>
        <time>2020-06-06T13:01:15.000Z</time>
      </trkpt>
      <trkpt lat="43.69461" lon="3.89555">
        <ele>108</ele>
        <time>2020-06-06T13:01:16.000Z</time>
      </trkpt>
      <trkpt lat="43.69461" lon="3.8956">
        <ele>108</ele>
        <time>2020-06-06T13:01:17.000Z</time>
      </trkpt>
      <trkpt lat="43.69461" lon="3.89565">
        <ele>108</ele>
        <time>2020-06-06T13:01:18.000Z</time>
      </trkpt>
      <trkpt lat="43.69463" lon="3.89569">
        <ele>108</ele>
        <time>2020-06-06T13:01:19.000Z</time>
      </trkpt>
      <trkpt lat="43.69465" lon="3.89572">
        <ele>108</ele>
        <time>2020-06-06T13:01:20.000Z</time>
      </trkpt>
      <trkpt lat="43.69469" lon="3.89574">
        <ele>108</ele>
        <time>2020-06-06T13:01:21.000Z</time>
      </trkpt>
      <trkpt lat="43.69473" lon="3.89576">
        <ele>108</ele>
        <time>2020-06-06T13:01:22.000Z</time>
      </trkpt>
      <trkpt lat="43.69476" lon="3.89579">
        <ele>108</ele>
        <time>2020-06-06T13:01:23.000Z</time>
      </trkpt>
      <trkpt lat="43.6948" lon="3.89581">
        <ele>108</ele>
        <time>2020-06-06T13:01:24.000Z</time>
      </trkpt>
      <trkpt lat="43.69484" lon="3.89584">
        <ele>108</ele>
        <time>2020-06-06T13:01:25.000Z</time>
      </trkpt>
      <trkpt lat="43.69487" lon="3.89586">
        <ele>108</ele>
        <time>2020-06-06T13:01:26.000Z</time>
      </trkpt>
      <trkpt lat="43.6949" lon="3.89588">
        <ele>108</ele>
        <time>2020-06-06T13:01:27.000Z</time>
      </trkpt>
      <trkpt lat="43.69492" lon="3.8959">
        <ele>108</ele>
        <time>2020-06-06T13:01:28.000Z</time>
      </trkpt>
      <trkpt lat="43.69495" lon="3.89593">
        <ele>108</ele>
        <time>2020-06-06T13:01:29.000Z</time>
      </trkpt>
      <trkpt lat="43.69497" lon="3.89596">
        <ele>108</ele>
        <time>2020-06-06T13:01:30.000Z</time>
      </trkpt>
      <trkpt lat="43.695" lon="3.89599">
        <ele>108</ele>
        <time>2020-06-06T13:01:31.000Z</time>
      </trkpt>
      <trkpt lat="43.69503" lon="3.89602">
        <ele>108</ele>
        <time>2020-06-06T13:01:32.000Z</time>
      </trkpt>
      <trkpt lat="43.69505" lon="3.89605">
        <ele>108</ele>
        <time>2020-06-06T13:01:33.000Z</time>
      </trkpt>
      <trkpt lat="43.69506" lon="3.8961">
        <ele>108</ele>
        <time>2020-06-06T13:01:34.000Z</time>
      </trkpt>
      <trkpt lat="43.69506" lon="3.89615">
        <ele>108</ele>
        <time>2020-06-06T13:01:35.000Z</time>
      </trkpt>
      <trkpt lat="43.69508" lon="3.89619">
        <ele>108</ele>
        <time>2020-06-06T13:01:36.000Z</time>
      </trkpt>
      <trkpt lat="43.6951" lon="3.89623">
        <ele>108</ele>
        <time>2020-06-06T13:01:37.000Z</time>
      </trkpt>
      <trkpt lat="43.69511" lon="3.89627">
        <ele>108</ele>
        <time>2020-06-06T13:01:38.000Z</time>
      </trkpt>
      <trkpt lat="43.69513" lon="3.8963">
        <ele>108</ele>
        <time>2020-06-06T13:01:39.000Z</time>
      </trkpt>
      <trkpt lat="43.69514" lon="3.89634">
        <ele>108</ele>
        <time>2020-06-06T13:01:40.000Z</time>
      </trkpt>
      <trkpt lat="43.69516" lon="3.89637">
        <ele>108</ele>
        <time>2020-06-06T13:01:41.000Z</time>
      </trkpt>
      <trkpt lat="43.69516" lon="3.89639">
        <ele>108</ele>
        <time>2020-06-06T13:01:47.000Z</time>
      </trkpt>
      <trkpt lat="43.69518" lon="3.89647">
        <ele>108</ele>
        <time>2020-06-06T13:01:54.000Z</time>
      </trkpt>
      <trkpt lat="43.69519" lon="3.89649">
        <ele>108</ele>
        <time>2020-06-06T13:01:55.000Z</time>
      </trkpt>
      <trkpt lat="43.69521" lon="3.8965">
        <ele>108</ele>
        <time>2020-06-06T13:01:56.000Z</time>
      </trkpt>
      <trkpt lat="43.69523" lon="3.89651">
        <ele>108</ele>
        <time>2020-06-06T13:01:57.000Z</time>
      </trkpt>
      <trkpt lat="43.69525" lon="3.89652">
        <ele>108</ele>
        <time>2020-06-06T13:01:58.000Z</time>
      </trkpt>
      <trkpt lat="43.69526" lon="3.89655">
        <ele>108</ele>
        <time>2020-06-06T13:02:00.000Z</time>
      </trkpt>
      <trkpt lat="43.69523" lon="3.89658">
        <ele>108</ele>
        <time>2020-06-06T13:02:02.000Z</time>
      </trkpt>
      <trkpt lat="43.6952" lon="3.89659">
        <ele>107.98929929961</ele>
        <time>2020-06-06T13:02:04.000Z</time>
      </trkpt>
      <trkpt lat="43.69517" lon="3.89661">
        <ele>107.89202303502</ele>
        <time>2020-06-06T13:02:05.000Z</time>
      </trkpt>
      <trkpt lat="43.69513" lon="3.89666">
        <ele>107.79474677043</ele>
        <time>2020-06-06T13:02:06.000Z</time>
      </trkpt>
      <trkpt lat="43.69509" lon="3.89672">
        <ele>107.69747050584</ele>
        <time>2020-06-06T13:02:07.000Z</time>
      </trkpt>
      <trkpt lat="43.69506" lon="3.89678">
        <ele>107.60019424125</ele>
        <time>2020-06-06T13:02:08.000Z</time>
      </trkpt>
      <trkpt lat="43.69503" lon="3.89683">
        <ele>107.50291797665</ele>
        <time>2020-06-06T13:02:09.000Z</time>
      </trkpt>
      <trkpt lat="43.69502" lon="3.89686">
        <ele>107.40564171206</ele>
        <time>2020-06-06T13:02:10.000Z</time>
      </trkpt>
      <trkpt lat="43.69505" lon="3.8969">
        <ele>107.21108918288</ele>
        <time>2020-06-06T13:02:12.000Z</time>
      </trkpt>
      <trkpt lat="43.69507" lon="3.89693">
        <ele>107.11381291829</ele>
        <time>2020-06-06T13:02:13.000Z</time>
      </trkpt>
      <trkpt lat="43.69508" lon="3.89698">
        <ele>107.0165366537</ele>
        <time>2020-06-06T13:02:14.000Z</time>
      </trkpt>
      <trkpt lat="43.69508" lon="3.89703">
        <ele>106.82921744856</ele>
        <time>2020-06-06T13:02:15.000Z</time>
      </trkpt>
      <trkpt lat="43.69506" lon="3.89707">
        <ele>106.62345613169</ele>
        <time>2020-06-06T13:02:16.000Z</time>
      </trkpt>
      <trkpt lat="43.69503" lon="3.89708">
        <ele>106.41769481481</ele>
        <time>2020-06-06T13:02:17.000Z</time>
      </trkpt>
      <trkpt lat="43.69499" lon="3.89708">
        <ele>106.21193349794</ele>
        <time>2020-06-06T13:02:18.000Z</time>
      </trkpt>
      <trkpt lat="43.69495" lon="3.89708">
        <ele>106.00617218107</ele>
        <time>2020-06-06T13:02:19.000Z</time>
      </trkpt>
      <trkpt lat="43.69492" lon="3.89709">
        <ele>105.8004108642</ele>
        <time>2020-06-06T13:02:20.000Z</time>
      </trkpt>
      <trkpt lat="43.69491" lon="3.89712">
        <ele>105.59464954733</ele>
        <time>2020-06-06T13:02:21.000Z</time>
      </trkpt>
      <trkpt lat="43.69491" lon="3.89716">
        <ele>105.38888823045</ele>
        <time>2020-06-06T13:02:22.000Z</time>
      </trkpt>
      <trkpt lat="43.69492" lon="3.8972">
        <ele>105.18312691358</ele>
        <time>2020-06-06T13:02:23.000Z</time>
      </trkpt>
      <trkpt lat="43.69493" lon="3.89725">
        <ele>104.97799936</ele>
        <time>2020-06-06T13:02:24.000Z</time>
      </trkpt>
      <trkpt lat="43.69494" lon="3.89729">
        <ele>104.77799936</ele>
        <time>2020-06-06T13:02:25.000Z</time>
      </trkpt>
      <trkpt lat="43.69495" lon="3.89732">
        <ele>104.57799936</ele>
        <time>2020-06-06T13:02:26.000Z</time>
      </trkpt>
      <trkpt lat="43.69496" lon="3.89736">
        <ele>104.37799936</ele>
        <time>2020-06-06T13:02:27.000Z</time>
      </trkpt>
      <trkpt lat="43.69497" lon="3.8974">
        <ele>104.17799936</ele>
        <time>2020-06-06T13:02:28.000Z</time>
      </trkpt>
      <trkpt lat="43.69497" lon="3.89744">
        <ele>103.97799936</ele>
        <time>2020-06-06T13:02:29.000Z</time>
      </trkpt>
      <trkpt lat="43.69498" lon="3.89749">
        <ele>103.77799936</ele>
        <time>2020-06-06T13:02:30.000Z</time>
      </trkpt>
      <trkpt lat="43.69498" lon="3.89754">
        <ele>103.57799936</ele>
        <time>2020-06-06T13:02:31.000Z</time>
      </trkpt>
      <trkpt lat="43.69499" lon="3.89759">
        <ele>103.37799936</ele>
        <time>2020-06-06T13:02:32.000Z</time>
      </trkpt>
      <trkpt lat="43.69499" lon="3.89765">
        <ele>103.17799936</ele>
        <time>2020-06-06T13:02:33.000Z</time>
      </trkpt>
      <trkpt lat="43.695" lon="3.89771">
        <ele>102.98909781017</ele>
        <time>2020-06-06T13:02:34.000Z</time>
      </trkpt>
      <trkpt lat="43.695" lon="3.89778">
        <ele>102.88998987672</ele>
        <time>2020-06-06T13:02:35.000Z</time>
      </trkpt>
      <trkpt lat="43.69501" lon="3.89786">
        <ele>102.79088194326</ele>
        <time>2020-06-06T13:02:36.000Z</time>
      </trkpt>
      <trkpt lat="43.69501" lon="3.89795">
        <ele>102.69177400981</ele>
        <time>2020-06-06T13:02:37.000Z</time>
      </trkpt>
      <trkpt lat="43.69502" lon="3.89802">
        <ele>102.59266607635</ele>
        <time>2020-06-06T13:02:38.000Z</time>
      </trkpt>
      <trkpt lat="43.69504" lon="3.89809">
        <ele>102.4935581429</ele>
        <time>2020-06-06T13:02:39.000Z</time>
      </trkpt>
      <trkpt lat="43.69505" lon="3.89816">
        <ele>102.39445020944</ele>
        <time>2020-06-06T13:02:40.000Z</time>
      </trkpt>
      <trkpt lat="43.69508" lon="3.89821">
        <ele>102.29534227599</ele>
        <time>2020-06-06T13:02:41.000Z</time>
      </trkpt>
      <trkpt lat="43.6951" lon="3.89827">
        <ele>102.19623434253</ele>
        <time>2020-06-06T13:02:42.000Z</time>
      </trkpt>
      <trkpt lat="43.69514" lon="3.89832">
        <ele>102.09712640908</ele>
        <time>2020-06-06T13:02:43.000Z</time>
      </trkpt>
      <trkpt lat="43.69517" lon="3.89838">
        <ele>101.99394744116</ele>
        <time>2020-06-06T13:02:44.000Z</time>
      </trkpt>
      <trkpt lat="43.69521" lon="3.89844">
        <ele>101.69122262722</ele>
        <time>2020-06-06T13:02:45.000Z</time>
      </trkpt>
      <trkpt lat="43.69525" lon="3.89851">
        <ele>101.38849781328</ele>
        <time>2020-06-06T13:02:46.000Z</time>
      </trkpt>
      <trkpt lat="43.69529" lon="3.89857">
        <ele>101.08577299934</ele>
        <time>2020-06-06T13:02:47.000Z</time>
      </trkpt>
      <trkpt lat="43.69532" lon="3.89864">
        <ele>100.7830481854</ele>
        <time>2020-06-06T13:02:48.000Z</time>
      </trkpt>
      <trkpt lat="43.69536" lon="3.8987">
        <ele>100.48032337145</ele>
        <time>2020-06-06T13:02:49.000Z</time>
      </trkpt>
      <trkpt lat="43.6954" lon="3.89876">
        <ele>100.17759855751</ele>
        <time>2020-06-06T13:02:50.000Z</time>
      </trkpt>
      <trkpt lat="43.69545" lon="3.89882">
        <ele>99.874873743571</ele>
        <time>2020-06-06T13:02:51.000Z</time>
      </trkpt>
      <trkpt lat="43.69549" lon="3.89889">
        <ele>99.57214892963</ele>
        <time>2020-06-06T13:02:52.000Z</time>
      </trkpt>
      <trkpt lat="43.69553" lon="3.89895">
        <ele>99.269424115688</ele>
        <time>2020-06-06T13:02:53.000Z</time>
      </trkpt>
      <trkpt lat="43.69556" lon="3.89902">
        <ele>98.95599872</ele>
        <time>2020-06-06T13:02:54.000Z</time>
      </trkpt>
      <trkpt lat="43.69558" lon="3.89908">
        <ele>98.55599872</ele>
        <time>2020-06-06T13:02:55.000Z</time>
      </trkpt>
      <trkpt lat="43.6956" lon="3.89913">
        <ele>98.15599872</ele>
        <time>2020-06-06T13:02:56.000Z</time>
      </trkpt>
      <trkpt lat="43.69561" lon="3.89918">
        <ele>97.75599872</ele>
        <time>2020-06-06T13:02:57.000Z</time>
      </trkpt>
      <trkpt lat="43.69562" lon="3.89923">
        <ele>97.35599872</ele>
        <time>2020-06-06T13:02:58.000Z</time>
      </trkpt>
      <trkpt lat="43.69563" lon="3.89928">
        <ele>96.95599872</ele>
        <time>2020-06-06T13:02:59.000Z</time>
      </trkpt>
      <trkpt lat="43.69564" lon="3.89932">
        <ele>96.55599872</ele>
        <time>2020-06-06T13:03:00.000Z</time>
      </trkpt>
      <trkpt lat="43.69565" lon="3.89935">
        <ele>96.15599872</ele>
        <time>2020-06-06T13:03:01.000Z</time>
      </trkpt>
      <trkpt lat="43.69566" lon="3.89938">
        <ele>95.75599872</ele>
        <time>2020-06-06T13:03:02.000Z</time>
      </trkpt>
      <trkpt lat="43.69566" lon="3.89941">
        <ele>95.35599872</ele>
        <time>2020-06-06T13:03:03.000Z</time>
      </trkpt>
      <trkpt lat="43.69565" lon="3.89944">
        <ele>94.97802135974</ele>
        <time>2020-06-06T13:03:04.000Z</time>
      </trkpt>
      <trkpt lat="43.69563" lon="3.89947">
        <ele>94.778221351556</ele>
        <time>2020-06-06T13:03:05.000Z</time>
      </trkpt>
      <trkpt lat="43.69561" lon="3.89951">
        <ele>94.578421343372</ele>
        <time>2020-06-06T13:03:06.000Z</time>
      </trkpt>
      <trkpt lat="43.69558" lon="3.89954">
        <ele>94.378621335188</ele>
        <time>2020-06-06T13:03:07.000Z</time>
      </trkpt>
      <trkpt lat="43.69554" lon="3.89955">
        <ele>94.178821327004</ele>
        <time>2020-06-06T13:03:08.000Z</time>
      </trkpt>
      <trkpt lat="43.6955" lon="3.89956">
        <ele>93.979021318821</ele>
        <time>2020-06-06T13:03:09.000Z</time>
      </trkpt>
      <trkpt lat="43.69546" lon="3.89957">
        <ele>93.779221310637</ele>
        <time>2020-06-06T13:03:10.000Z</time>
      </trkpt>
      <trkpt lat="43.69543" lon="3.89958">
        <ele>93.579421302453</ele>
        <time>2020-06-06T13:03:11.000Z</time>
      </trkpt>
      <trkpt lat="43.6954" lon="3.89959">
        <ele>93.379621294269</ele>
        <time>2020-06-06T13:03:12.000Z</time>
      </trkpt>
      <trkpt lat="43.69538" lon="3.89961">
        <ele>93.179821286085</ele>
        <time>2020-06-06T13:03:13.000Z</time>
      </trkpt>
      <trkpt lat="43.69536" lon="3.89964">
        <ele>92.989990621012</ele>
        <time>2020-06-06T13:03:14.000Z</time>
      </trkpt>
      <trkpt lat="43.69534" lon="3.89968">
        <ele>92.889890424719</ele>
        <time>2020-06-06T13:03:15.000Z</time>
      </trkpt>
      <trkpt lat="43.69533" lon="3.89972">
        <ele>92.789790228427</ele>
        <time>2020-06-06T13:03:16.000Z</time>
      </trkpt>
      <trkpt lat="43.69531" lon="3.89976">
        <ele>92.689690032135</ele>
        <time>2020-06-06T13:03:17.000Z</time>
      </trkpt>
      <trkpt lat="43.6953" lon="3.8998">
        <ele>92.589589835842</ele>
        <time>2020-06-06T13:03:18.000Z</time>
      </trkpt>
      <trkpt lat="43.69529" lon="3.89984">
        <ele>92.48948963955</ele>
        <time>2020-06-06T13:03:19.000Z</time>
      </trkpt>
      <trkpt lat="43.69527" lon="3.89989">
        <ele>92.389389443257</ele>
        <time>2020-06-06T13:03:20.000Z</time>
      </trkpt>
      <trkpt lat="43.69526" lon="3.89993">
        <ele>92.289289246965</ele>
        <time>2020-06-06T13:03:21.000Z</time>
      </trkpt>
      <trkpt lat="43.69526" lon="3.89998">
        <ele>92.189189050672</ele>
        <time>2020-06-06T13:03:22.000Z</time>
      </trkpt>
      <trkpt lat="43.69525" lon="3.90002">
        <ele>92.08908885438</ele>
        <time>2020-06-06T13:03:23.000Z</time>
      </trkpt>
      <trkpt lat="43.69525" lon="3.90006">
        <ele>92</ele>
        <time>2020-06-06T13:03:24.000Z</time>
      </trkpt>
      <trkpt lat="43.69524" lon="3.9001">
        <ele>92</ele>
        <time>2020-06-06T13:03:25.000Z</time>
      </trkpt>
      <trkpt lat="43.69523" lon="3.90013">
        <ele>92</ele>
        <time>2020-06-06T13:03:26.000Z</time>
      </trkpt>
      <trkpt lat="43.69523" lon="3.90017">
        <ele>92</ele>
        <time>2020-06-06T13:03:27.000Z</time>
      </trkpt>
      <trkpt lat="43.69522" lon="3.9002">
        <ele>92</ele>
        <time>2020-06-06T13:03:28.000Z</time>
      </trkpt>
      <trkpt lat="43.69521" lon="3.90023">
        <ele>92</ele>
        <time>2020-06-06T13:03:29.000Z</time>
      </trkpt>
      <trkpt lat="43.6952" lon="3.90026">
        <ele>92</ele>
        <time>2020-06-06T13:03:30.000Z</time>
      </trkpt>
      <trkpt lat="43.6952" lon="3.90029">
        <ele>92</ele>
        <time>2020-06-06T13:03:31.000Z</time>
      </trkpt>
      <trkpt lat="43.69519" lon="3.90032">
        <ele>92</ele>
        <time>2020-06-06T13:03:32.000Z</time>
      </trkpt>
      <trkpt lat="43.69518" lon="3.90034">
        <ele>92</ele>
        <time>2020-06-06T13:03:33.000Z</time>
      </trkpt>
      <trkpt lat="43.69517" lon="3.90036">
        <ele>91.98899968</ele>
        <time>2020-06-06T13:03:34.000Z</time>
      </trkpt>
      <trkpt lat="43.69516" lon="3.90039">
        <ele>91.88899968</ele>
        <time>2020-06-06T13:03:35.000Z</time>
      </trkpt>
      <trkpt lat="43.69515" lon="3.90043">
        <ele>91.78899968</ele>
        <time>2020-06-06T13:03:36.000Z</time>
      </trkpt>
      <trkpt lat="43.69514" lon="3.90046">
        <ele>91.68899968</ele>
        <time>2020-06-06T13:03:37.000Z</time>
      </trkpt>
      <trkpt lat="43.69513" lon="3.9005">
        <ele>91.58899968</ele>
        <time>2020-06-06T13:03:38.000Z</time>
      </trkpt>
      <trkpt lat="43.69512" lon="3.90054">
        <ele>91.48899968</ele>
        <time>2020-06-06T13:03:39.000Z</time>
      </trkpt>
      <trkpt lat="43.69511" lon="3.90058">
        <ele>91.38899968</ele>
        <time>2020-06-06T13:03:40.000Z</time>
      </trkpt>
      <trkpt lat="43.6951" lon="3.90061">
        <ele>91.28899968</ele>
        <time>2020-06-06T13:03:41.000Z</time>
      </trkpt>
      <trkpt lat="43.69509" lon="3.90065">
        <ele>91.18899968</ele>
        <time>2020-06-06T13:03:42.000Z</time>
      </trkpt>
      <trkpt lat="43.69508" lon="3.90069">
        <ele>91.08899968</ele>
        <time>2020-06-06T13:03:43.000Z</time>
      </trkpt>
      <trkpt lat="43.69507" lon="3.90073">
        <ele>91</ele>
        <time>2020-06-06T13:03:44.000Z</time>
      </trkpt>
      <trkpt lat="43.69505" lon="3.90076">
        <ele>91</ele>
        <time>2020-06-06T13:03:45.000Z</time>
      </trkpt>
      <trkpt lat="43.69504" lon="3.90079">
        <ele>91</ele>
        <time>2020-06-06T13:03:46.000Z</time>
      </trkpt>
      <trkpt lat="43.69502" lon="3.90083">
        <ele>91</ele>
        <time>2020-06-06T13:03:48.000Z</time>
      </trkpt>
      <trkpt lat="43.69502" lon="3.90086">
        <ele>91</ele>
        <time>2020-06-06T13:03:49.000Z</time>
      </trkpt>
      <trkpt lat="43.69503" lon="3.90088">
        <ele>91</ele>
        <time>2020-06-06T13:03:50.000Z</time>
      </trkpt>
      <trkpt lat="43.69503" lon="3.90091">
        <ele>91</ele>
        <time>2020-06-06T13:03:51.000Z</time>
      </trkpt>
      <trkpt lat="43.69506" lon="3.90094">
        <ele>91</ele>
        <time>2020-06-06T13:03:53.000Z</time>
      </trkpt>
      <trkpt lat="43.69508" lon="3.90096">
        <ele>91</ele>
        <time>2020-06-06T13:03:54.000Z</time>
      </trkpt>
      <trkpt lat="43.69509" lon="3.901">
        <ele>91</ele>
        <time>2020-06-06T13:03:56.000Z</time>
      </trkpt>
      <trkpt lat="43.6951" lon="3.90102">
        <ele>91</ele>
        <time>2020-06-06T13:04:02.000Z</time>
      </trkpt>
      <trkpt lat="43.69516" lon="3.90104">
        <ele>94.954872227542</ele>
        <time>2020-06-06T13:04:31.000Z</time>
      </trkpt>
      <trkpt lat="43.69516" lon="3.90105">
        <ele>95.190200410929</ele>
        <time>2020-06-06T13:04:32.000Z</time>
      </trkpt>
      <trkpt lat="43.69518" lon="3.90104">
        <ele>96.142297009466</ele>
        <time>2020-06-06T13:04:35.000Z</time>
      </trkpt>
      <trkpt lat="43.69521" lon="3.90104">
        <ele>97.723318678317</ele>
        <time>2020-06-06T13:04:37.000Z</time>
      </trkpt>
      <trkpt lat="43.69522" lon="3.90105">
        <ele>98.067156370923</ele>
        <time>2020-06-06T13:04:38.000Z</time>
      </trkpt>
      <trkpt lat="43.69525" lon="3.90106">
        <ele>98.277020030059</ele>
        <time>2020-06-06T13:04:40.000Z</time>
      </trkpt>
      <trkpt lat="43.69526" lon="3.90108">
        <ele>98.486883689195</ele>
        <time>2020-06-06T13:04:42.000Z</time>
      </trkpt>
      <trkpt lat="43.69527" lon="3.90111">
        <ele>98.801679177899</ele>
        <time>2020-06-06T13:04:45.000Z</time>
      </trkpt>
      <trkpt lat="43.69528" lon="3.90112">
        <ele>99</ele>
        <time>2020-06-06T13:04:52.000Z</time>
      </trkpt>
      <trkpt lat="43.69526" lon="3.90113">
        <ele>99</ele>
        <time>2020-06-06T13:05:21.000Z</time>
      </trkpt>
      <trkpt lat="43.69524" lon="3.90115">
        <ele>98.091503989747</ele>
        <time>2020-06-06T13:05:28.000Z</time>
      </trkpt>
      <trkpt lat="43.69524" lon="3.90116">
        <ele>98</ele>
        <time>2020-06-06T13:05:29.000Z</time>
      </trkpt>
      <trkpt lat="43.69524" lon="3.90119">
        <ele>98</ele>
        <time>2020-06-06T13:05:31.000Z</time>
      </trkpt>
      <trkpt lat="43.69523" lon="3.90121">
        <ele>98</ele>
        <time>2020-06-06T13:05:32.000Z</time>
      </trkpt>
      <trkpt lat="43.69523" lon="3.90124">
        <ele>98</ele>
        <time>2020-06-06T13:05:34.000Z</time>
      </trkpt>
      <trkpt lat="43.69525" lon="3.90127">
        <ele>98</ele>
        <time>2020-06-06T13:05:36.000Z</time>
      </trkpt>
      <trkpt lat="43.69527" lon="3.90131">
        <ele>98</ele>
        <time>2020-06-06T13:05:38.000Z</time>
      </trkpt>
      <trkpt lat="43.69526" lon="3.90135">
        <ele>98</ele>
        <time>2020-06-06T13:05:40.000Z</time>
      </trkpt>
      <trkpt lat="43.69527" lon="3.90138">
        <ele>98.107976964981</ele>
        <time>2020-06-06T13:05:42.000Z</time>
      </trkpt>
      <trkpt lat="43.69528" lon="3.90142">
        <ele>98.302529494163</ele>
        <time>2020-06-06T13:05:44.000Z</time>
      </trkpt>
      <trkpt lat="43.6953" lon="3.90145">
        <ele>98.497082023346</ele>
        <time>2020-06-06T13:05:46.000Z</time>
      </trkpt>
      <trkpt lat="43.69531" lon="3.9015">
        <ele>98.691634552529</ele>
        <time>2020-06-06T13:05:48.000Z</time>
      </trkpt>
      <trkpt lat="43.69531" lon="3.90153">
        <ele>98.788910817121</ele>
        <time>2020-06-06T13:05:49.000Z</time>
      </trkpt>
      <trkpt lat="43.69531" lon="3.90157">
        <ele>98.886187081712</ele>
        <time>2020-06-06T13:05:50.000Z</time>
      </trkpt>
      <trkpt lat="43.69531" lon="3.90159">
        <ele>98.983463346303</ele>
        <time>2020-06-06T13:05:51.000Z</time>
      </trkpt>
      <trkpt lat="43.69531" lon="3.90162">
        <ele>99.08539127572</ele>
        <time>2020-06-06T13:05:52.000Z</time>
      </trkpt>
      <trkpt lat="43.69531" lon="3.90165">
        <ele>99.188271934156</ele>
        <time>2020-06-06T13:05:53.000Z</time>
      </trkpt>
      <trkpt lat="43.69531" lon="3.90168">
        <ele>99.291152592593</ele>
        <time>2020-06-06T13:05:54.000Z</time>
      </trkpt>
      <trkpt lat="43.69531" lon="3.90173">
        <ele>99.496913909465</ele>
        <time>2020-06-06T13:05:56.000Z</time>
      </trkpt>
      <trkpt lat="43.69532" lon="3.90176">
        <ele>99.599794567901</ele>
        <time>2020-06-06T13:05:57.000Z</time>
      </trkpt>
      <trkpt lat="43.69533" lon="3.90179">
        <ele>99.702675226337</ele>
        <time>2020-06-06T13:05:58.000Z</time>
      </trkpt>
      <trkpt lat="43.69534" lon="3.90182">
        <ele>99.805555884774</ele>
        <time>2020-06-06T13:05:59.000Z</time>
      </trkpt>
      <trkpt lat="43.69535" lon="3.90184">
        <ele>99.90843654321</ele>
        <time>2020-06-06T13:06:00.000Z</time>
      </trkpt>
      <trkpt lat="43.69536" lon="3.90186">
        <ele>100</ele>
        <time>2020-06-06T13:06:01.000Z</time>
      </trkpt>
      <trkpt lat="43.69538" lon="3.9019">
        <ele>100</ele>
        <time>2020-06-06T13:06:03.000Z</time>
      </trkpt>
      <trkpt lat="43.69539" lon="3.90193">
        <ele>100</ele>
        <time>2020-06-06T13:06:05.000Z</time>
      </trkpt>
      <trkpt lat="43.69542" lon="3.90195">
        <ele>100</ele>
        <time>2020-06-06T13:06:07.000Z</time>
      </trkpt>
      <trkpt lat="43.69544" lon="3.90198">
        <ele>100</ele>
        <time>2020-06-06T13:06:09.000Z</time>
      </trkpt>
      <trkpt lat="43.69545" lon="3.90202">
        <ele>100</ele>
        <time>2020-06-06T13:06:11.000Z</time>
      </trkpt>
      <trkpt lat="43.69548" lon="3.90203">
        <ele>100</ele>
        <time>2020-06-06T13:06:13.000Z</time>
      </trkpt>
      <trkpt lat="43.69551" lon="3.90204">
        <ele>100</ele>
        <time>2020-06-06T13:06:15.000Z</time>
      </trkpt>
      <trkpt lat="43.69552" lon="3.90209">
        <ele>100</ele>
        <time>2020-06-06T13:06:17.000Z</time>
      </trkpt>
      <trkpt lat="43.69552" lon="3.90213">
        <ele>100</ele>
        <time>2020-06-06T13:06:19.000Z</time>
      </trkpt>
      <trkpt lat="43.69554" lon="3.90217">
        <ele>99.98899968</ele>
        <time>2020-06-06T13:06:21.000Z</time>
      </trkpt>
      <trkpt lat="43.69555" lon="3.90219">
        <ele>99.88899968</ele>
        <time>2020-06-06T13:06:22.000Z</time>
      </trkpt>
      <trkpt lat="43.69556" lon="3.90221">
        <ele>99.78899968</ele>
        <time>2020-06-06T13:06:23.000Z</time>
      </trkpt>
      <trkpt lat="43.69557" lon="3.90224">
        <ele>99.68899968</ele>
        <time>2020-06-06T13:06:24.000Z</time>
      </trkpt>
      <trkpt lat="43.69558" lon="3.90226">
        <ele>99.58899968</ele>
        <time>2020-06-06T13:06:25.000Z</time>
      </trkpt>
      <trkpt lat="43.69558" lon="3.9023">
        <ele>99.38899968</ele>
        <time>2020-06-06T13:06:27.000Z</time>
      </trkpt>
      <trkpt lat="43.6956" lon="3.90235">
        <ele>99.18899968</ele>
        <time>2020-06-06T13:06:29.000Z</time>
      </trkpt>
      <trkpt lat="43.69562" lon="3.90238">
        <ele>99.08899968</ele>
        <time>2020-06-06T13:06:30.000Z</time>
      </trkpt>
      <trkpt lat="43.69563" lon="3.9024">
        <ele>99</ele>
        <time>2020-06-06T13:06:31.000Z</time>
      </trkpt>
      <trkpt lat="43.69566" lon="3.9024">
        <ele>99</ele>
        <time>2020-06-06T13:06:33.000Z</time>
      </trkpt>
      <trkpt lat="43.69569" lon="3.90239">
        <ele>99</ele>
        <time>2020-06-06T13:06:35.000Z</time>
      </trkpt>
      <trkpt lat="43.69572" lon="3.90238">
        <ele>99</ele>
        <time>2020-06-06T13:06:37.000Z</time>
      </trkpt>
      <trkpt lat="43.69573" lon="3.90238">
        <ele>99.010563466956</ele>
        <time>2020-06-06T13:06:43.000Z</time>
      </trkpt>
      <trkpt lat="43.69582" lon="3.90242">
        <ele>99.985644723727</ele>
        <time>2020-06-06T13:07:19.000Z</time>
      </trkpt>
      <trkpt lat="43.69584" lon="3.90246">
        <ele>100.15336201681</ele>
        <time>2020-06-06T13:07:21.000Z</time>
      </trkpt>
      <trkpt lat="43.69584" lon="3.90249">
        <ele>100.25840403361</ele>
        <time>2020-06-06T13:07:22.000Z</time>
      </trkpt>
      <trkpt lat="43.69584" lon="3.90252">
        <ele>100.36344605042</ele>
        <time>2020-06-06T13:07:23.000Z</time>
      </trkpt>
      <trkpt lat="43.69584" lon="3.90255">
        <ele>100.57353008403</ele>
        <time>2020-06-06T13:07:25.000Z</time>
      </trkpt>
      <trkpt lat="43.69584" lon="3.90255">
        <ele>101</ele>
        <time>2020-06-06T13:07:31.000Z</time>
      </trkpt>
      <trkpt lat="43.69587" lon="3.90261">
        <ele>101</ele>
        <time>2020-06-06T13:09:07.000Z</time>
      </trkpt>
      <trkpt lat="43.69588" lon="3.90261">
        <ele>101</ele>
        <time>2020-06-06T13:09:08.000Z</time>
      </trkpt>
      <trkpt lat="43.6959" lon="3.90262">
        <ele>101</ele>
        <time>2020-06-06T13:09:10.000Z</time>
      </trkpt>
      <trkpt lat="43.69592" lon="3.90263">
        <ele>101</ele>
        <time>2020-06-06T13:09:12.000Z</time>
      </trkpt>
      <trkpt lat="43.69595" lon="3.90264">
        <ele>101</ele>
        <time>2020-06-06T13:09:14.000Z</time>
      </trkpt>
      <trkpt lat="43.69597" lon="3.90263">
        <ele>101</ele>
        <time>2020-06-06T13:09:16.000Z</time>
      </trkpt>
      <trkpt lat="43.696" lon="3.9026">
        <ele>101</ele>
        <time>2020-06-06T13:09:18.000Z</time>
      </trkpt>
      <trkpt lat="43.69603" lon="3.90263">
        <ele>101</ele>
        <time>2020-06-06T13:09:20.000Z</time>
      </trkpt>
      <trkpt lat="43.69603" lon="3.90266">
        <ele>101</ele>
        <time>2020-06-06T13:09:21.000Z</time>
      </trkpt>
      <trkpt lat="43.69604" lon="3.90269">
        <ele>101</ele>
        <time>2020-06-06T13:09:22.000Z</time>
      </trkpt>
      <trkpt lat="43.69605" lon="3.90272">
        <ele>101</ele>
        <time>2020-06-06T13:09:23.000Z</time>
      </trkpt>
      <trkpt lat="43.69605" lon="3.90275">
        <ele>101</ele>
        <time>2020-06-06T13:09:24.000Z</time>
      </trkpt>
      <trkpt lat="43.69606" lon="3.90278">
        <ele>101</ele>
        <time>2020-06-06T13:09:25.000Z</time>
      </trkpt>
      <trkpt lat="43.69607" lon="3.90281">
        <ele>101</ele>
        <time>2020-06-06T13:09:26.000Z</time>
      </trkpt>
      <trkpt lat="43.69606" lon="3.90285">
        <ele>101</ele>
        <time>2020-06-06T13:09:27.000Z</time>
      </trkpt>
      <trkpt lat="43.69607" lon="3.9029">
        <ele>101</ele>
        <time>2020-06-06T13:09:28.000Z</time>
      </trkpt>
      <trkpt lat="43.69608" lon="3.90295">
        <ele>101</ele>
        <time>2020-06-06T13:09:29.000Z</time>
      </trkpt>
      <trkpt lat="43.69609" lon="3.903">
        <ele>101</ele>
        <time>2020-06-06T13:09:30.000Z</time>
      </trkpt>
      <trkpt lat="43.69611" lon="3.90304">
        <ele>101</ele>
        <time>2020-06-06T13:09:31.000Z</time>
      </trkpt>
      <trkpt lat="43.69613" lon="3.90306">
        <ele>101</ele>
        <time>2020-06-06T13:09:32.000Z</time>
      </trkpt>
      <trkpt lat="43.69614" lon="3.90309">
        <ele>101</ele>
        <time>2020-06-06T13:09:33.000Z</time>
      </trkpt>
      <trkpt lat="43.69616" lon="3.90312">
        <ele>101</ele>
        <time>2020-06-06T13:09:34.000Z</time>
      </trkpt>
      <trkpt lat="43.69617" lon="3.90317">
        <ele>101</ele>
        <time>2020-06-06T13:09:35.000Z</time>
      </trkpt>
      <trkpt lat="43.69618" lon="3.90321">
        <ele>101</ele>
        <time>2020-06-06T13:09:36.000Z</time>
      </trkpt>
      <trkpt lat="43.69619" lon="3.90325">
        <ele>101</ele>
        <time>2020-06-06T13:09:37.000Z</time>
      </trkpt>
      <trkpt lat="43.6962" lon="3.90328">
        <ele>101</ele>
        <time>2020-06-06T13:09:38.000Z</time>
      </trkpt>
      <trkpt lat="43.69623" lon="3.90331">
        <ele>101</ele>
        <time>2020-06-06T13:09:40.000Z</time>
      </trkpt>
      <trkpt lat="43.69624" lon="3.90332">
        <ele>101</ele>
        <time>2020-06-06T13:09:41.000Z</time>
      </trkpt>
      <trkpt lat="43.69626" lon="3.90334">
        <ele>101</ele>
        <time>2020-06-06T13:09:42.000Z</time>
      </trkpt>
      <trkpt lat="43.69628" lon="3.90337">
        <ele>101</ele>
        <time>2020-06-06T13:09:44.000Z</time>
      </trkpt>
      <trkpt lat="43.69626" lon="3.9034">
        <ele>101</ele>
        <time>2020-06-06T13:09:46.000Z</time>
      </trkpt>
      <trkpt lat="43.69623" lon="3.90343">
        <ele>101</ele>
        <time>2020-06-06T13:09:48.000Z</time>
      </trkpt>
      <trkpt lat="43.69623" lon="3.90345">
        <ele>101</ele>
        <time>2020-06-06T13:09:49.000Z</time>
      </trkpt>
      <trkpt lat="43.69624" lon="3.90349">
        <ele>101</ele>
        <time>2020-06-06T13:09:50.000Z</time>
      </trkpt>
      <trkpt lat="43.69626" lon="3.90353">
        <ele>101</ele>
        <time>2020-06-06T13:09:51.000Z</time>
      </trkpt>
      <trkpt lat="43.69628" lon="3.90359">
        <ele>101</ele>
        <time>2020-06-06T13:09:52.000Z</time>
      </trkpt>
      <trkpt lat="43.6963" lon="3.90365">
        <ele>101</ele>
        <time>2020-06-06T13:09:53.000Z</time>
      </trkpt>
      <trkpt lat="43.69631" lon="3.90371">
        <ele>101</ele>
        <time>2020-06-06T13:09:54.000Z</time>
      </trkpt>
      <trkpt lat="43.69633" lon="3.90377">
        <ele>101</ele>
        <time>2020-06-06T13:09:55.000Z</time>
      </trkpt>
      <trkpt lat="43.69635" lon="3.90381">
        <ele>101</ele>
        <time>2020-06-06T13:09:56.000Z</time>
      </trkpt>
      <trkpt lat="43.69636" lon="3.90384">
        <ele>101</ele>
        <time>2020-06-06T13:09:57.000Z</time>
      </trkpt>
      <trkpt lat="43.69638" lon="3.90389">
        <ele>101</ele>
        <time>2020-06-06T13:09:58.000Z</time>
      </trkpt>
      <trkpt lat="43.69639" lon="3.90394">
        <ele>101</ele>
        <time>2020-06-06T13:09:59.000Z</time>
      </trkpt>
      <trkpt lat="43.69639" lon="3.90398">
        <ele>101</ele>
        <time>2020-06-06T13:10:00.000Z</time>
      </trkpt>
      <trkpt lat="43.69639" lon="3.90403">
        <ele>101</ele>
        <time>2020-06-06T13:10:01.000Z</time>
      </trkpt>
      <trkpt lat="43.6964" lon="3.90408">
        <ele>101</ele>
        <time>2020-06-06T13:10:02.000Z</time>
      </trkpt>
      <trkpt lat="43.6964" lon="3.90413">
        <ele>101</ele>
        <time>2020-06-06T13:10:03.000Z</time>
      </trkpt>
      <trkpt lat="43.69641" lon="3.90418">
        <ele>101</ele>
        <time>2020-06-06T13:10:04.000Z</time>
      </trkpt>
      <trkpt lat="43.69641" lon="3.90422">
        <ele>101</ele>
        <time>2020-06-06T13:10:05.000Z</time>
      </trkpt>
      <trkpt lat="43.69641" lon="3.90427">
        <ele>101</ele>
        <time>2020-06-06T13:10:06.000Z</time>
      </trkpt>
      <trkpt lat="43.69642" lon="3.90429">
        <ele>100.98899968</ele>
        <time>2020-06-06T13:10:07.000Z</time>
      </trkpt>
      <trkpt lat="43.69644" lon="3.90431">
        <ele>100.88899968</ele>
        <time>2020-06-06T13:10:08.000Z</time>
      </trkpt>
      <trkpt lat="43.69646" lon="3.90433">
        <ele>100.78899968</ele>
        <time>2020-06-06T13:10:09.000Z</time>
      </trkpt>
      <trkpt lat="43.69648" lon="3.90436">
        <ele>100.68899968</ele>
        <time>2020-06-06T13:10:10.000Z</time>
      </trkpt>
      <trkpt lat="43.69648" lon="3.90439">
        <ele>100.58899968</ele>
        <time>2020-06-06T13:10:11.000Z</time>
      </trkpt>
      <trkpt lat="43.69646" lon="3.90443">
        <ele>100.48899968</ele>
        <time>2020-06-06T13:10:12.000Z</time>
      </trkpt>
      <trkpt lat="43.69645" lon="3.90446">
        <ele>100.38899968</ele>
        <time>2020-06-06T13:10:13.000Z</time>
      </trkpt>
      <trkpt lat="43.69645" lon="3.90451">
        <ele>100.28899968</ele>
        <time>2020-06-06T13:10:14.000Z</time>
      </trkpt>
      <trkpt lat="43.69646" lon="3.90454">
        <ele>100.18899968</ele>
        <time>2020-06-06T13:10:15.000Z</time>
      </trkpt>
      <trkpt lat="43.69648" lon="3.90458">
        <ele>100.08899968</ele>
        <time>2020-06-06T13:10:16.000Z</time>
      </trkpt>
      <trkpt lat="43.69649" lon="3.90463">
        <ele>100</ele>
        <time>2020-06-06T13:10:17.000Z</time>
      </trkpt>
      <trkpt lat="43.6965" lon="3.90468">
        <ele>100</ele>
        <time>2020-06-06T13:10:18.000Z</time>
      </trkpt>
      <trkpt lat="43.69651" lon="3.90471">
        <ele>100</ele>
        <time>2020-06-06T13:10:19.000Z</time>
      </trkpt>
      <trkpt lat="43.69652" lon="3.90475">
        <ele>100</ele>
        <time>2020-06-06T13:10:20.000Z</time>
      </trkpt>
      <trkpt lat="43.69652" lon="3.90479">
        <ele>100</ele>
        <time>2020-06-06T13:10:21.000Z</time>
      </trkpt>
      <trkpt lat="43.69653" lon="3.90484">
        <ele>100</ele>
        <time>2020-06-06T13:10:22.000Z</time>
      </trkpt>
      <trkpt lat="43.69654" lon="3.90487">
        <ele>100</ele>
        <time>2020-06-06T13:10:23.000Z</time>
      </trkpt>
      <trkpt lat="43.69655" lon="3.9049">
        <ele>100</ele>
        <time>2020-06-06T13:10:24.000Z</time>
      </trkpt>
      <trkpt lat="43.69657" lon="3.90494">
        <ele>100</ele>
        <time>2020-06-06T13:10:25.000Z</time>
      </trkpt>
      <trkpt lat="43.69659" lon="3.90498">
        <ele>100</ele>
        <time>2020-06-06T13:10:26.000Z</time>
      </trkpt>
      <trkpt lat="43.69659" lon="3.90503">
        <ele>100</ele>
        <time>2020-06-06T13:10:27.000Z</time>
      </trkpt>
      <trkpt lat="43.6966" lon="3.90506">
        <ele>100</ele>
        <time>2020-06-06T13:10:29.000Z</time>
      </trkpt>
      <trkpt lat="43.69661" lon="3.90509">
        <ele>100</ele>
        <time>2020-06-06T13:10:30.000Z</time>
      </trkpt>
      <trkpt lat="43.69662" lon="3.90511">
        <ele>100</ele>
        <time>2020-06-06T13:10:31.000Z</time>
      </trkpt>
      <trkpt lat="43.69664" lon="3.90513">
        <ele>100</ele>
        <time>2020-06-06T13:10:32.000Z</time>
      </trkpt>
      <trkpt lat="43.69665" lon="3.90516">
        <ele>100</ele>
        <time>2020-06-06T13:10:33.000Z</time>
      </trkpt>
      <trkpt lat="43.69665" lon="3.90518">
        <ele>100</ele>
        <time>2020-06-06T13:10:34.000Z</time>
      </trkpt>
      <trkpt lat="43.69665" lon="3.90521">
        <ele>100</ele>
        <time>2020-06-06T13:10:35.000Z</time>
      </trkpt>
      <trkpt lat="43.69665" lon="3.90525">
        <ele>100</ele>
        <time>2020-06-06T13:10:36.000Z</time>
      </trkpt>
      <trkpt lat="43.69667" lon="3.90527">
        <ele>100</ele>
        <time>2020-06-06T13:10:37.000Z</time>
      </trkpt>
      <trkpt lat="43.69668" lon="3.9053">
        <ele>100</ele>
        <time>2020-06-06T13:10:38.000Z</time>
      </trkpt>
      <trkpt lat="43.6967" lon="3.90532">
        <ele>100</ele>
        <time>2020-06-06T13:10:39.000Z</time>
      </trkpt>
      <trkpt lat="43.69671" lon="3.90534">
        <ele>100</ele>
        <time>2020-06-06T13:10:40.000Z</time>
      </trkpt>
      <trkpt lat="43.69672" lon="3.90537">
        <ele>100</ele>
        <time>2020-06-06T13:10:41.000Z</time>
      </trkpt>
      <trkpt lat="43.69674" lon="3.90541">
        <ele>100</ele>
        <time>2020-06-06T13:10:43.000Z</time>
      </trkpt>
      <trkpt lat="43.69674" lon="3.90544">
        <ele>100</ele>
        <time>2020-06-06T13:10:44.000Z</time>
      </trkpt>
      <trkpt lat="43.69676" lon="3.90548">
        <ele>100</ele>
        <time>2020-06-06T13:10:45.000Z</time>
      </trkpt>
      <trkpt lat="43.69677" lon="3.90551">
        <ele>100</ele>
        <time>2020-06-06T13:10:46.000Z</time>
      </trkpt>
      <trkpt lat="43.69678" lon="3.90554">
        <ele>100.01100032</ele>
        <time>2020-06-06T13:10:47.000Z</time>
      </trkpt>
      <trkpt lat="43.69679" lon="3.90558">
        <ele>100.11100032</ele>
        <time>2020-06-06T13:10:48.000Z</time>
      </trkpt>
      <trkpt lat="43.69681" lon="3.90562">
        <ele>100.21100032</ele>
        <time>2020-06-06T13:10:49.000Z</time>
      </trkpt>
      <trkpt lat="43.69683" lon="3.90567">
        <ele>100.31100032</ele>
        <time>2020-06-06T13:10:50.000Z</time>
      </trkpt>
      <trkpt lat="43.69685" lon="3.90569">
        <ele>100.41100032</ele>
        <time>2020-06-06T13:10:51.000Z</time>
      </trkpt>
      <trkpt lat="43.69686" lon="3.90572">
        <ele>100.51100032</ele>
        <time>2020-06-06T13:10:52.000Z</time>
      </trkpt>
      <trkpt lat="43.69688" lon="3.90575">
        <ele>100.61100032</ele>
        <time>2020-06-06T13:10:53.000Z</time>
      </trkpt>
      <trkpt lat="43.69689" lon="3.90577">
        <ele>100.71100032</ele>
        <time>2020-06-06T13:10:54.000Z</time>
      </trkpt>
      <trkpt lat="43.69691" lon="3.9058">
        <ele>100.81100032</ele>
        <time>2020-06-06T13:10:55.000Z</time>
      </trkpt>
      <trkpt lat="43.69692" lon="3.90582">
        <ele>100.91100032</ele>
        <time>2020-06-06T13:10:56.000Z</time>
      </trkpt>
      <trkpt lat="43.69693" lon="3.90586">
        <ele>100.98905441842</ele>
        <time>2020-06-06T13:10:57.000Z</time>
      </trkpt>
      <trkpt lat="43.69693" lon="3.9059">
        <ele>100.8895520259</ele>
        <time>2020-06-06T13:10:58.000Z</time>
      </trkpt>
      <trkpt lat="43.69694" lon="3.90594">
        <ele>100.79004963338</ele>
        <time>2020-06-06T13:10:59.000Z</time>
      </trkpt>
      <trkpt lat="43.69695" lon="3.90598">
        <ele>100.69054724087</ele>
        <time>2020-06-06T13:11:00.000Z</time>
      </trkpt>
      <trkpt lat="43.69697" lon="3.90603">
        <ele>100.59104484835</ele>
        <time>2020-06-06T13:11:01.000Z</time>
      </trkpt>
      <trkpt lat="43.697" lon="3.90606">
        <ele>100.49154245584</ele>
        <time>2020-06-06T13:11:02.000Z</time>
      </trkpt>
      <trkpt lat="43.69703" lon="3.9061">
        <ele>100.39204006332</ele>
        <time>2020-06-06T13:11:03.000Z</time>
      </trkpt>
      <trkpt lat="43.69706" lon="3.90614">
        <ele>100.29253767081</ele>
        <time>2020-06-06T13:11:04.000Z</time>
      </trkpt>
      <trkpt lat="43.69709" lon="3.90618">
        <ele>100.19303527829</ele>
        <time>2020-06-06T13:11:05.000Z</time>
      </trkpt>
      <trkpt lat="43.69713" lon="3.90621">
        <ele>100.09353288578</ele>
        <time>2020-06-06T13:11:06.000Z</time>
      </trkpt>
      <trkpt lat="43.69715" lon="3.90623">
        <ele>99.993970486645</ele>
        <time>2020-06-06T13:11:07.000Z</time>
      </trkpt>
      <trkpt lat="43.69717" lon="3.90625">
        <ele>99.893467877115</ele>
        <time>2020-06-06T13:11:08.000Z</time>
      </trkpt>
      <trkpt lat="43.69719" lon="3.90627">
        <ele>99.692462658054</ele>
        <time>2020-06-06T13:11:10.000Z</time>
      </trkpt>
      <trkpt lat="43.69721" lon="3.90627">
        <ele>99.591960048524</ele>
        <time>2020-06-06T13:11:11.000Z</time>
      </trkpt>
      <trkpt lat="43.69724" lon="3.90629">
        <ele>99.390954829464</ele>
        <time>2020-06-06T13:11:13.000Z</time>
      </trkpt>
      <trkpt lat="43.69725" lon="3.90632">
        <ele>99.290452219934</ele>
        <time>2020-06-06T13:11:14.000Z</time>
      </trkpt>
      <trkpt lat="43.69726" lon="3.90634">
        <ele>99.189949610404</ele>
        <time>2020-06-06T13:11:15.000Z</time>
      </trkpt>
      <trkpt lat="43.69728" lon="3.90637">
        <ele>99.089447000874</ele>
        <time>2020-06-06T13:11:16.000Z</time>
      </trkpt>
      <trkpt lat="43.69729" lon="3.9064">
        <ele>99.01100032</ele>
        <time>2020-06-06T13:11:17.000Z</time>
      </trkpt>
      <trkpt lat="43.6973" lon="3.90644">
        <ele>99.11100032</ele>
        <time>2020-06-06T13:11:18.000Z</time>
      </trkpt>
      <trkpt lat="43.69731" lon="3.90647">
        <ele>99.21100032</ele>
        <time>2020-06-06T13:11:19.000Z</time>
      </trkpt>
      <trkpt lat="43.69733" lon="3.90651">
        <ele>99.31100032</ele>
        <time>2020-06-06T13:11:20.000Z</time>
      </trkpt>
      <trkpt lat="43.69735" lon="3.90653">
        <ele>99.41100032</ele>
        <time>2020-06-06T13:11:21.000Z</time>
      </trkpt>
      <trkpt lat="43.69738" lon="3.90655">
        <ele>99.51100032</ele>
        <time>2020-06-06T13:11:22.000Z</time>
      </trkpt>
      <trkpt lat="43.6974" lon="3.90658">
        <ele>99.61100032</ele>
        <time>2020-06-06T13:11:23.000Z</time>
      </trkpt>
      <trkpt lat="43.69741" lon="3.90659">
        <ele>99.71100032</ele>
        <time>2020-06-06T13:11:24.000Z</time>
      </trkpt>
      <trkpt lat="43.69744" lon="3.9066">
        <ele>99.889552025901</ele>
        <time>2020-06-06T13:11:28.000Z</time>
      </trkpt>
      <trkpt lat="43.69746" lon="3.90662">
        <ele>99.392040063325</ele>
        <time>2020-06-06T13:11:33.000Z</time>
      </trkpt>
      <trkpt lat="43.69747" lon="3.90664">
        <ele>99.193035278295</ele>
        <time>2020-06-06T13:11:35.000Z</time>
      </trkpt>
      <trkpt lat="43.6975" lon="3.90669">
        <ele>99</ele>
        <time>2020-06-06T13:11:37.000Z</time>
      </trkpt>
      <trkpt lat="43.69753" lon="3.90672">
        <ele>99</ele>
        <time>2020-06-06T13:11:38.000Z</time>
      </trkpt>
      <trkpt lat="43.69755" lon="3.90674">
        <ele>99</ele>
        <time>2020-06-06T13:11:39.000Z</time>
      </trkpt>
      <trkpt lat="43.69757" lon="3.90677">
        <ele>99</ele>
        <time>2020-06-06T13:11:40.000Z</time>
      </trkpt>
      <trkpt lat="43.69758" lon="3.9068">
        <ele>99</ele>
        <time>2020-06-06T13:11:41.000Z</time>
      </trkpt>
      <trkpt lat="43.6976" lon="3.90684">
        <ele>99</ele>
        <time>2020-06-06T13:11:42.000Z</time>
      </trkpt>
      <trkpt lat="43.69761" lon="3.90687">
        <ele>99</ele>
        <time>2020-06-06T13:11:43.000Z</time>
      </trkpt>
      <trkpt lat="43.69763" lon="3.9069">
        <ele>99</ele>
        <time>2020-06-06T13:11:44.000Z</time>
      </trkpt>
      <trkpt lat="43.69765" lon="3.90693">
        <ele>99</ele>
        <time>2020-06-06T13:11:45.000Z</time>
      </trkpt>
      <trkpt lat="43.69767" lon="3.90696">
        <ele>99</ele>
        <time>2020-06-06T13:11:46.000Z</time>
      </trkpt>
      <trkpt lat="43.69769" lon="3.90697">
        <ele>98.98899968</ele>
        <time>2020-06-06T13:11:47.000Z</time>
      </trkpt>
      <trkpt lat="43.69771" lon="3.90699">
        <ele>98.88899968</ele>
        <time>2020-06-06T13:11:48.000Z</time>
      </trkpt>
      <trkpt lat="43.69773" lon="3.907">
        <ele>98.78899968</ele>
        <time>2020-06-06T13:11:49.000Z</time>
      </trkpt>
      <trkpt lat="43.69775" lon="3.90702">
        <ele>98.68899968</ele>
        <time>2020-06-06T13:11:50.000Z</time>
      </trkpt>
      <trkpt lat="43.69776" lon="3.90705">
        <ele>98.58899968</ele>
        <time>2020-06-06T13:11:51.000Z</time>
      </trkpt>
      <trkpt lat="43.69778" lon="3.90707">
        <ele>98.48899968</ele>
        <time>2020-06-06T13:11:52.000Z</time>
      </trkpt>
      <trkpt lat="43.6978" lon="3.90709">
        <ele>98.38899968</ele>
        <time>2020-06-06T13:11:53.000Z</time>
      </trkpt>
      <trkpt lat="43.69781" lon="3.9071">
        <ele>98.28899968</ele>
        <time>2020-06-06T13:11:54.000Z</time>
      </trkpt>
      <trkpt lat="43.69783" lon="3.90713">
        <ele>98.18899968</ele>
        <time>2020-06-06T13:11:55.000Z</time>
      </trkpt>
      <trkpt lat="43.69785" lon="3.90715">
        <ele>98.08899968</ele>
        <time>2020-06-06T13:11:56.000Z</time>
      </trkpt>
      <trkpt lat="43.69786" lon="3.90718">
        <ele>98</ele>
        <time>2020-06-06T13:11:57.000Z</time>
      </trkpt>
      <trkpt lat="43.69787" lon="3.90721">
        <ele>98</ele>
        <time>2020-06-06T13:11:58.000Z</time>
      </trkpt>
      <trkpt lat="43.69789" lon="3.90723">
        <ele>98</ele>
        <time>2020-06-06T13:11:59.000Z</time>
      </trkpt>
      <trkpt lat="43.69791" lon="3.90725">
        <ele>98</ele>
        <time>2020-06-06T13:12:00.000Z</time>
      </trkpt>
      <trkpt lat="43.69793" lon="3.90728">
        <ele>98</ele>
        <time>2020-06-06T13:12:01.000Z</time>
      </trkpt>
      <trkpt lat="43.69796" lon="3.90731">
        <ele>98</ele>
        <time>2020-06-06T13:12:02.000Z</time>
      </trkpt>
      <trkpt lat="43.69798" lon="3.90734">
        <ele>98</ele>
        <time>2020-06-06T13:12:03.000Z</time>
      </trkpt>
      <trkpt lat="43.698" lon="3.90738">
        <ele>98</ele>
        <time>2020-06-06T13:12:04.000Z</time>
      </trkpt>
      <trkpt lat="43.69803" lon="3.90743">
        <ele>98</ele>
        <time>2020-06-06T13:12:05.000Z</time>
      </trkpt>
      <trkpt lat="43.69806" lon="3.90748">
        <ele>98</ele>
        <time>2020-06-06T13:12:06.000Z</time>
      </trkpt>
      <trkpt lat="43.69809" lon="3.90752">
        <ele>97.994970137607</ele>
        <time>2020-06-06T13:12:07.000Z</time>
      </trkpt>
      <trkpt lat="43.69811" lon="3.90756">
        <ele>97.894366451101</ele>
        <time>2020-06-06T13:12:08.000Z</time>
      </trkpt>
      <trkpt lat="43.69813" lon="3.90759">
        <ele>97.793762764596</ele>
        <time>2020-06-06T13:12:09.000Z</time>
      </trkpt>
      <trkpt lat="43.69815" lon="3.90764">
        <ele>97.69315907809</ele>
        <time>2020-06-06T13:12:10.000Z</time>
      </trkpt>
      <trkpt lat="43.69817" lon="3.90768">
        <ele>97.592555391585</ele>
        <time>2020-06-06T13:12:11.000Z</time>
      </trkpt>
      <trkpt lat="43.6982" lon="3.90772">
        <ele>97.49195170508</ele>
        <time>2020-06-06T13:12:12.000Z</time>
      </trkpt>
      <trkpt lat="43.69823" lon="3.90774">
        <ele>97.391348018574</ele>
        <time>2020-06-06T13:12:13.000Z</time>
      </trkpt>
      <trkpt lat="43.69826" lon="3.90776">
        <ele>97.290744332069</ele>
        <time>2020-06-06T13:12:14.000Z</time>
      </trkpt>
      <trkpt lat="43.69828" lon="3.90779">
        <ele>97.190140645563</ele>
        <time>2020-06-06T13:12:15.000Z</time>
      </trkpt>
      <trkpt lat="43.6983" lon="3.90781">
        <ele>97.089536959058</ele>
        <time>2020-06-06T13:12:16.000Z</time>
      </trkpt>
      <trkpt lat="43.69832" lon="3.90783">
        <ele>97.11100032</ele>
        <time>2020-06-06T13:12:18.000Z</time>
      </trkpt>
      <trkpt lat="43.69834" lon="3.90784">
        <ele>97.21100032</ele>
        <time>2020-06-06T13:12:19.000Z</time>
      </trkpt>
      <trkpt lat="43.69836" lon="3.90786">
        <ele>97.31100032</ele>
        <time>2020-06-06T13:12:20.000Z</time>
      </trkpt>
      <trkpt lat="43.69838" lon="3.90788">
        <ele>97.41100032</ele>
        <time>2020-06-06T13:12:21.000Z</time>
      </trkpt>
      <trkpt lat="43.6984" lon="3.90791">
        <ele>97.51100032</ele>
        <time>2020-06-06T13:12:22.000Z</time>
      </trkpt>
      <trkpt lat="43.69842" lon="3.90793">
        <ele>97.61100032</ele>
        <time>2020-06-06T13:12:23.000Z</time>
      </trkpt>
      <trkpt lat="43.69844" lon="3.90797">
        <ele>97.71100032</ele>
        <time>2020-06-06T13:12:24.000Z</time>
      </trkpt>
      <trkpt lat="43.69846" lon="3.908">
        <ele>97.81100032</ele>
        <time>2020-06-06T13:12:25.000Z</time>
      </trkpt>
      <trkpt lat="43.69848" lon="3.90804">
        <ele>97.91100032</ele>
        <time>2020-06-06T13:12:26.000Z</time>
      </trkpt>
      <trkpt lat="43.6985" lon="3.90808">
        <ele>98</ele>
        <time>2020-06-06T13:12:27.000Z</time>
      </trkpt>
      <trkpt lat="43.69853" lon="3.90812">
        <ele>98</ele>
        <time>2020-06-06T13:12:28.000Z</time>
      </trkpt>
      <trkpt lat="43.69856" lon="3.90814">
        <ele>98</ele>
        <time>2020-06-06T13:12:29.000Z</time>
      </trkpt>
      <trkpt lat="43.69859" lon="3.90814">
        <ele>98</ele>
        <time>2020-06-06T13:12:30.000Z</time>
      </trkpt>
      <trkpt lat="43.69863" lon="3.90816">
        <ele>98</ele>
        <time>2020-06-06T13:12:31.000Z</time>
      </trkpt>
      <trkpt lat="43.69868" lon="3.90818">
        <ele>98</ele>
        <time>2020-06-06T13:12:32.000Z</time>
      </trkpt>
      <trkpt lat="43.69872" lon="3.9082">
        <ele>98</ele>
        <time>2020-06-06T13:12:33.000Z</time>
      </trkpt>
      <trkpt lat="43.69875" lon="3.90823">
        <ele>98</ele>
        <time>2020-06-06T13:12:34.000Z</time>
      </trkpt>
      <trkpt lat="43.69878" lon="3.90826">
        <ele>98</ele>
        <time>2020-06-06T13:12:35.000Z</time>
      </trkpt>
      <trkpt lat="43.69881" lon="3.90828">
        <ele>98</ele>
        <time>2020-06-06T13:12:36.000Z</time>
      </trkpt>
      <trkpt lat="43.69883" lon="3.9083">
        <ele>98</ele>
        <time>2020-06-06T13:12:37.000Z</time>
      </trkpt>
      <trkpt lat="43.69886" lon="3.90831">
        <ele>98</ele>
        <time>2020-06-06T13:12:38.000Z</time>
      </trkpt>
      <trkpt lat="43.69888" lon="3.90832">
        <ele>98</ele>
        <time>2020-06-06T13:12:39.000Z</time>
      </trkpt>
      <trkpt lat="43.69889" lon="3.90833">
        <ele>98</ele>
        <time>2020-06-06T13:12:40.000Z</time>
      </trkpt>
      <trkpt lat="43.69891" lon="3.90834">
        <ele>98</ele>
        <time>2020-06-06T13:12:41.000Z</time>
      </trkpt>
      <trkpt lat="43.69895" lon="3.90834">
        <ele>98</ele>
        <time>2020-06-06T13:12:43.000Z</time>
      </trkpt>
      <trkpt lat="43.69898" lon="3.90835">
        <ele>98</ele>
        <time>2020-06-06T13:12:44.000Z</time>
      </trkpt>
      <trkpt lat="43.69901" lon="3.90837">
        <ele>98</ele>
        <time>2020-06-06T13:12:45.000Z</time>
      </trkpt>
      <trkpt lat="43.69903" lon="3.90839">
        <ele>98</ele>
        <time>2020-06-06T13:12:46.000Z</time>
      </trkpt>
      <trkpt lat="43.69906" lon="3.90841">
        <ele>97.989680756664</ele>
        <time>2020-06-06T13:12:47.000Z</time>
      </trkpt>
      <trkpt lat="43.69908" lon="3.90843">
        <ele>97.895872182591</ele>
        <time>2020-06-06T13:12:48.000Z</time>
      </trkpt>
      <trkpt lat="43.69909" lon="3.90847">
        <ele>97.802063608517</ele>
        <time>2020-06-06T13:12:49.000Z</time>
      </trkpt>
      <trkpt lat="43.6991" lon="3.90851">
        <ele>97.708255034443</ele>
        <time>2020-06-06T13:12:50.000Z</time>
      </trkpt>
      <trkpt lat="43.69911" lon="3.90854">
        <ele>97.61444646037</ele>
        <time>2020-06-06T13:12:51.000Z</time>
      </trkpt>
      <trkpt lat="43.69913" lon="3.90857">
        <ele>97.520637886296</ele>
        <time>2020-06-06T13:12:52.000Z</time>
      </trkpt>
      <trkpt lat="43.69916" lon="3.9086">
        <ele>97.426829312223</ele>
        <time>2020-06-06T13:12:53.000Z</time>
      </trkpt>
      <trkpt lat="43.69919" lon="3.90862">
        <ele>97.333020738149</ele>
        <time>2020-06-06T13:12:54.000Z</time>
      </trkpt>
      <trkpt lat="43.69923" lon="3.90864">
        <ele>97.239212164075</ele>
        <time>2020-06-06T13:12:55.000Z</time>
      </trkpt>
      <trkpt lat="43.69927" lon="3.90865">
        <ele>97.145403590002</ele>
        <time>2020-06-06T13:12:56.000Z</time>
      </trkpt>
      <trkpt lat="43.6993" lon="3.90865">
        <ele>97.051595015928</ele>
        <time>2020-06-06T13:12:57.000Z</time>
      </trkpt>
      <trkpt lat="43.69933" lon="3.90867">
        <ele>97</ele>
        <time>2020-06-06T13:12:58.000Z</time>
      </trkpt>
      <trkpt lat="43.69936" lon="3.9087">
        <ele>97</ele>
        <time>2020-06-06T13:12:59.000Z</time>
      </trkpt>
      <trkpt lat="43.69938" lon="3.90873">
        <ele>97</ele>
        <time>2020-06-06T13:13:00.000Z</time>
      </trkpt>
      <trkpt lat="43.69941" lon="3.90877">
        <ele>97</ele>
        <time>2020-06-06T13:13:01.000Z</time>
      </trkpt>
      <trkpt lat="43.69945" lon="3.90881">
        <ele>97</ele>
        <time>2020-06-06T13:13:02.000Z</time>
      </trkpt>
      <trkpt lat="43.69949" lon="3.90886">
        <ele>97</ele>
        <time>2020-06-06T13:13:03.000Z</time>
      </trkpt>
      <trkpt lat="43.69952" lon="3.90891">
        <ele>97</ele>
        <time>2020-06-06T13:13:04.000Z</time>
      </trkpt>
      <trkpt lat="43.69954" lon="3.90897">
        <ele>97</ele>
        <time>2020-06-06T13:13:05.000Z</time>
      </trkpt>
      <trkpt lat="43.69956" lon="3.909">
        <ele>97</ele>
        <time>2020-06-06T13:13:06.000Z</time>
      </trkpt>
      <trkpt lat="43.69958" lon="3.90903">
        <ele>96.98899968</ele>
        <time>2020-06-06T13:13:07.000Z</time>
      </trkpt>
      <trkpt lat="43.69961" lon="3.90905">
        <ele>96.88899968</ele>
        <time>2020-06-06T13:13:08.000Z</time>
      </trkpt>
      <trkpt lat="43.69964" lon="3.90906">
        <ele>96.78899968</ele>
        <time>2020-06-06T13:13:09.000Z</time>
      </trkpt>
      <trkpt lat="43.69967" lon="3.90908">
        <ele>96.68899968</ele>
        <time>2020-06-06T13:13:10.000Z</time>
      </trkpt>
      <trkpt lat="43.69971" lon="3.90909">
        <ele>96.58899968</ele>
        <time>2020-06-06T13:13:11.000Z</time>
      </trkpt>
      <trkpt lat="43.69974" lon="3.90912">
        <ele>96.48899968</ele>
        <time>2020-06-06T13:13:12.000Z</time>
      </trkpt>
      <trkpt lat="43.69977" lon="3.90914">
        <ele>96.38899968</ele>
        <time>2020-06-06T13:13:13.000Z</time>
      </trkpt>
      <trkpt lat="43.69979" lon="3.90915">
        <ele>96.28899968</ele>
        <time>2020-06-06T13:13:14.000Z</time>
      </trkpt>
      <trkpt lat="43.69981" lon="3.90914">
        <ele>96.18899968</ele>
        <time>2020-06-06T13:13:15.000Z</time>
      </trkpt>
      <trkpt lat="43.69984" lon="3.90914">
        <ele>96.08899968</ele>
        <time>2020-06-06T13:13:16.000Z</time>
      </trkpt>
      <trkpt lat="43.69987" lon="3.90915">
        <ele>96</ele>
        <time>2020-06-06T13:13:17.000Z</time>
      </trkpt>
      <trkpt lat="43.6999" lon="3.90917">
        <ele>96</ele>
        <time>2020-06-06T13:13:18.000Z</time>
      </trkpt>
      <trkpt lat="43.69994" lon="3.90919">
        <ele>96</ele>
        <time>2020-06-06T13:13:19.000Z</time>
      </trkpt>
      <trkpt lat="43.69998" lon="3.9092">
        <ele>96</ele>
        <time>2020-06-06T13:13:20.000Z</time>
      </trkpt>
      <trkpt lat="43.70002" lon="3.9092">
        <ele>96</ele>
        <time>2020-06-06T13:13:21.000Z</time>
      </trkpt>
      <trkpt lat="43.70006" lon="3.90921">
        <ele>96</ele>
        <time>2020-06-06T13:13:22.000Z</time>
      </trkpt>
      <trkpt lat="43.7001" lon="3.90923">
        <ele>96</ele>
        <time>2020-06-06T13:13:23.000Z</time>
      </trkpt>
      <trkpt lat="43.70014" lon="3.90926">
        <ele>96</ele>
        <time>2020-06-06T13:13:24.000Z</time>
      </trkpt>
      <trkpt lat="43.70018" lon="3.90929">
        <ele>96</ele>
        <time>2020-06-06T13:13:25.000Z</time>
      </trkpt>
      <trkpt lat="43.70021" lon="3.90931">
        <ele>96</ele>
        <time>2020-06-06T13:13:26.000Z</time>
      </trkpt>
      <trkpt lat="43.70025" lon="3.90933">
        <ele>95.98899968</ele>
        <time>2020-06-06T13:13:27.000Z</time>
      </trkpt>
      <trkpt lat="43.70028" lon="3.90935">
        <ele>95.88899968</ele>
        <time>2020-06-06T13:13:28.000Z</time>
      </trkpt>
      <trkpt lat="43.70029" lon="3.90937">
        <ele>95.78899968</ele>
        <time>2020-06-06T13:13:29.000Z</time>
      </trkpt>
      <trkpt lat="43.70029" lon="3.90941">
        <ele>95.58899968</ele>
        <time>2020-06-06T13:13:31.000Z</time>
      </trkpt>
      <trkpt lat="43.70027" lon="3.90942">
        <ele>95.48899968</ele>
        <time>2020-06-06T13:13:32.000Z</time>
      </trkpt>
      <trkpt lat="43.70025" lon="3.90942">
        <ele>95.38899968</ele>
        <time>2020-06-06T13:13:33.000Z</time>
      </trkpt>
      <trkpt lat="43.70022" lon="3.90941">
        <ele>95.28899968</ele>
        <time>2020-06-06T13:13:34.000Z</time>
      </trkpt>
      <trkpt lat="43.70019" lon="3.90941">
        <ele>95.18899968</ele>
        <time>2020-06-06T13:13:35.000Z</time>
      </trkpt>
      <trkpt lat="43.70016" lon="3.90941">
        <ele>95.08899968</ele>
        <time>2020-06-06T13:13:36.000Z</time>
      </trkpt>
      <trkpt lat="43.70013" lon="3.90941">
        <ele>94.98899968</ele>
        <time>2020-06-06T13:13:37.000Z</time>
      </trkpt>
      <trkpt lat="43.7001" lon="3.90941">
        <ele>94.88899968</ele>
        <time>2020-06-06T13:13:38.000Z</time>
      </trkpt>
      <trkpt lat="43.70006" lon="3.90941">
        <ele>94.78899968</ele>
        <time>2020-06-06T13:13:39.000Z</time>
      </trkpt>
      <trkpt lat="43.70002" lon="3.90941">
        <ele>94.68899968</ele>
        <time>2020-06-06T13:13:40.000Z</time>
      </trkpt>
      <trkpt lat="43.69998" lon="3.90941">
        <ele>94.58899968</ele>
        <time>2020-06-06T13:13:41.000Z</time>
      </trkpt>
      <trkpt lat="43.69994" lon="3.9094">
        <ele>94.48899968</ele>
        <time>2020-06-06T13:13:42.000Z</time>
      </trkpt>
      <trkpt lat="43.69989" lon="3.9094">
        <ele>94.38899968</ele>
        <time>2020-06-06T13:13:43.000Z</time>
      </trkpt>
      <trkpt lat="43.69984" lon="3.90939">
        <ele>94.28899968</ele>
        <time>2020-06-06T13:13:44.000Z</time>
      </trkpt>
      <trkpt lat="43.69979" lon="3.90937">
        <ele>94.18899968</ele>
        <time>2020-06-06T13:13:45.000Z</time>
      </trkpt>
      <trkpt lat="43.69974" lon="3.90936">
        <ele>94.08899968</ele>
        <time>2020-06-06T13:13:46.000Z</time>
      </trkpt>
      <trkpt lat="43.69969" lon="3.90935">
        <ele>93.97799936</ele>
        <time>2020-06-06T13:13:47.000Z</time>
      </trkpt>
      <trkpt lat="43.69964" lon="3.90935">
        <ele>93.77799936</ele>
        <time>2020-06-06T13:13:48.000Z</time>
      </trkpt>
      <trkpt lat="43.6996" lon="3.90935">
        <ele>93.57799936</ele>
        <time>2020-06-06T13:13:49.000Z</time>
      </trkpt>
      <trkpt lat="43.69956" lon="3.90936">
        <ele>93.37799936</ele>
        <time>2020-06-06T13:13:50.000Z</time>
      </trkpt>
      <trkpt lat="43.69951" lon="3.90937">
        <ele>93.17799936</ele>
        <time>2020-06-06T13:13:51.000Z</time>
      </trkpt>
      <trkpt lat="43.69942" lon="3.9094">
        <ele>92.77799936</ele>
        <time>2020-06-06T13:13:53.000Z</time>
      </trkpt>
      <trkpt lat="43.69937" lon="3.90941">
        <ele>92.57799936</ele>
        <time>2020-06-06T13:13:54.000Z</time>
      </trkpt>
      <trkpt lat="43.69933" lon="3.90941">
        <ele>92.37799936</ele>
        <time>2020-06-06T13:13:55.000Z</time>
      </trkpt>
      <trkpt lat="43.6993" lon="3.90942">
        <ele>92.17799936</ele>
        <time>2020-06-06T13:13:56.000Z</time>
      </trkpt>
      <trkpt lat="43.69926" lon="3.90941">
        <ele>91.96699904</ele>
        <time>2020-06-06T13:13:57.000Z</time>
      </trkpt>
      <trkpt lat="43.69921" lon="3.9094">
        <ele>91.66699904</ele>
        <time>2020-06-06T13:13:58.000Z</time>
      </trkpt>
      <trkpt lat="43.69916" lon="3.90939">
        <ele>91.36699904</ele>
        <time>2020-06-06T13:13:59.000Z</time>
      </trkpt>
      <trkpt lat="43.69911" lon="3.90936">
        <ele>91.06699904</ele>
        <time>2020-06-06T13:14:00.000Z</time>
      </trkpt>
      <trkpt lat="43.69906" lon="3.90935">
        <ele>90.76699904</ele>
        <time>2020-06-06T13:14:01.000Z</time>
      </trkpt>
      <trkpt lat="43.69901" lon="3.90933">
        <ele>90.46699904</ele>
        <time>2020-06-06T13:14:02.000Z</time>
      </trkpt>
      <trkpt lat="43.69896" lon="3.90931">
        <ele>90.16699904</ele>
        <time>2020-06-06T13:14:03.000Z</time>
      </trkpt>
      <trkpt lat="43.69891" lon="3.9093">
        <ele>89.86699904</ele>
        <time>2020-06-06T13:14:04.000Z</time>
      </trkpt>
      <trkpt lat="43.69887" lon="3.90928">
        <ele>89.56699904</ele>
        <time>2020-06-06T13:14:05.000Z</time>
      </trkpt>
      <trkpt lat="43.69882" lon="3.90926">
        <ele>89.26699904</ele>
        <time>2020-06-06T13:14:06.000Z</time>
      </trkpt>
      <trkpt lat="43.69877" lon="3.90924">
        <ele>88.97799936</ele>
        <time>2020-06-06T13:14:07.000Z</time>
      </trkpt>
      <trkpt lat="43.69872" lon="3.90921">
        <ele>88.77799936</ele>
        <time>2020-06-06T13:14:08.000Z</time>
      </trkpt>
      <trkpt lat="43.69867" lon="3.90917">
        <ele>88.57799936</ele>
        <time>2020-06-06T13:14:09.000Z</time>
      </trkpt>
      <trkpt lat="43.69862" lon="3.90914">
        <ele>88.37799936</ele>
        <time>2020-06-06T13:14:10.000Z</time>
      </trkpt>
      <trkpt lat="43.69858" lon="3.9091">
        <ele>88.17799936</ele>
        <time>2020-06-06T13:14:11.000Z</time>
      </trkpt>
      <trkpt lat="43.69853" lon="3.90906">
        <ele>87.97799936</ele>
        <time>2020-06-06T13:14:12.000Z</time>
      </trkpt>
      <trkpt lat="43.69849" lon="3.90902">
        <ele>87.77799936</ele>
        <time>2020-06-06T13:14:13.000Z</time>
      </trkpt>
      <trkpt lat="43.69845" lon="3.90898">
        <ele>87.57799936</ele>
        <time>2020-06-06T13:14:14.000Z</time>
      </trkpt>
      <trkpt lat="43.69841" lon="3.90894">
        <ele>87.37799936</ele>
        <time>2020-06-06T13:14:15.000Z</time>
      </trkpt>
      <trkpt lat="43.69837" lon="3.9089">
        <ele>87.17799936</ele>
        <time>2020-06-06T13:14:16.000Z</time>
      </trkpt>
      <trkpt lat="43.69833" lon="3.90887">
        <ele>86.96699904</ele>
        <time>2020-06-06T13:14:17.000Z</time>
      </trkpt>
      <trkpt lat="43.69829" lon="3.90884">
        <ele>86.66699904</ele>
        <time>2020-06-06T13:14:18.000Z</time>
      </trkpt>
      <trkpt lat="43.69825" lon="3.9088">
        <ele>86.36699904</ele>
        <time>2020-06-06T13:14:19.000Z</time>
      </trkpt>
      <trkpt lat="43.69821" lon="3.90875">
        <ele>86.06699904</ele>
        <time>2020-06-06T13:14:20.000Z</time>
      </trkpt>
      <trkpt lat="43.69817" lon="3.90871">
        <ele>85.76699904</ele>
        <time>2020-06-06T13:14:21.000Z</time>
      </trkpt>
      <trkpt lat="43.69813" lon="3.90867">
        <ele>85.46699904</ele>
        <time>2020-06-06T13:14:22.000Z</time>
      </trkpt>
      <trkpt lat="43.69808" lon="3.90863">
        <ele>85.16699904</ele>
        <time>2020-06-06T13:14:23.000Z</time>
      </trkpt>
      <trkpt lat="43.69804" lon="3.9086">
        <ele>84.86699904</ele>
        <time>2020-06-06T13:14:24.000Z</time>
      </trkpt>
      <trkpt lat="43.69799" lon="3.90858">
        <ele>84.56699904</ele>
        <time>2020-06-06T13:14:25.000Z</time>
      </trkpt>
      <trkpt lat="43.69794" lon="3.90854">
        <ele>84.26699904</ele>
        <time>2020-06-06T13:14:26.000Z</time>
      </trkpt>
      <trkpt lat="43.6979" lon="3.90851">
        <ele>83.96699904</ele>
        <time>2020-06-06T13:14:27.000Z</time>
      </trkpt>
      <trkpt lat="43.69786" lon="3.90847">
        <ele>83.66699904</ele>
        <time>2020-06-06T13:14:28.000Z</time>
      </trkpt>
      <trkpt lat="43.69781" lon="3.90843">
        <ele>83.36699904</ele>
        <time>2020-06-06T13:14:29.000Z</time>
      </trkpt>
      <trkpt lat="43.69776" lon="3.90839">
        <ele>83.06699904</ele>
        <time>2020-06-06T13:14:30.000Z</time>
      </trkpt>
      <trkpt lat="43.69772" lon="3.90835">
        <ele>82.76699904</ele>
        <time>2020-06-06T13:14:31.000Z</time>
      </trkpt>
      <trkpt lat="43.69767" lon="3.90831">
        <ele>82.46699904</ele>
        <time>2020-06-06T13:14:32.000Z</time>
      </trkpt>
      <trkpt lat="43.69762" lon="3.90827">
        <ele>82.16699904</ele>
        <time>2020-06-06T13:14:33.000Z</time>
      </trkpt>
      <trkpt lat="43.69757" lon="3.90823">
        <ele>81.86699904</ele>
        <time>2020-06-06T13:14:34.000Z</time>
      </trkpt>
      <trkpt lat="43.69752" lon="3.9082">
        <ele>81.56699904</ele>
        <time>2020-06-06T13:14:35.000Z</time>
      </trkpt>
      <trkpt lat="43.69747" lon="3.90816">
        <ele>81.26699904</ele>
        <time>2020-06-06T13:14:36.000Z</time>
      </trkpt>
      <trkpt lat="43.69743" lon="3.90812">
        <ele>80.986436108928</ele>
        <time>2020-06-06T13:14:37.000Z</time>
      </trkpt>
      <trkpt lat="43.6974" lon="3.90808">
        <ele>80.863131595312</ele>
        <time>2020-06-06T13:14:38.000Z</time>
      </trkpt>
      <trkpt lat="43.69739" lon="3.90804">
        <ele>80.739827081696</ele>
        <time>2020-06-06T13:14:39.000Z</time>
      </trkpt>
      <trkpt lat="43.69738" lon="3.90802">
        <ele>80</ele>
        <time>2020-06-06T13:14:45.000Z</time>
      </trkpt>
      <trkpt lat="43.69738" lon="3.908">
        <ele>80</ele>
        <time>2020-06-06T13:15:04.000Z</time>
      </trkpt>
      <trkpt lat="43.69739" lon="3.90799">
        <ele>79.999287693371</ele>
        <time>2020-06-06T13:15:08.000Z</time>
      </trkpt>
      <trkpt lat="43.69739" lon="3.90808">
        <ele>78.004701479058</ele>
        <time>2020-06-06T13:17:28.000Z</time>
      </trkpt>
      <trkpt lat="43.69737" lon="3.90809">
        <ele>77.930889405356</ele>
        <time>2020-06-06T13:17:29.000Z</time>
      </trkpt>
      <trkpt lat="43.69735" lon="3.90811">
        <ele>77.826177398558</ele>
        <time>2020-06-06T13:17:30.000Z</time>
      </trkpt>
      <trkpt lat="43.69733" lon="3.90813">
        <ele>77.72146539176</ele>
        <time>2020-06-06T13:17:31.000Z</time>
      </trkpt>
      <trkpt lat="43.69731" lon="3.90815">
        <ele>77.616753384962</ele>
        <time>2020-06-06T13:17:32.000Z</time>
      </trkpt>
      <trkpt lat="43.69729" lon="3.90816">
        <ele>77.512041378164</ele>
        <time>2020-06-06T13:17:33.000Z</time>
      </trkpt>
      <trkpt lat="43.69726" lon="3.90817">
        <ele>77.407329371366</ele>
        <time>2020-06-06T13:17:34.000Z</time>
      </trkpt>
      <trkpt lat="43.69724" lon="3.90819">
        <ele>77.302617364568</ele>
        <time>2020-06-06T13:17:35.000Z</time>
      </trkpt>
      <trkpt lat="43.69721" lon="3.90821">
        <ele>77.19790535777</ele>
        <time>2020-06-06T13:17:36.000Z</time>
      </trkpt>
      <trkpt lat="43.69719" lon="3.90822">
        <ele>77.093193350972</ele>
        <time>2020-06-06T13:17:37.000Z</time>
      </trkpt>
      <trkpt lat="43.69717" lon="3.90824">
        <ele>76.989483448117</ele>
        <time>2020-06-06T13:17:38.000Z</time>
      </trkpt>
      <trkpt lat="43.69715" lon="3.90826">
        <ele>76.893881212157</ele>
        <time>2020-06-06T13:17:39.000Z</time>
      </trkpt>
      <trkpt lat="43.69713" lon="3.90828">
        <ele>76.798278976196</ele>
        <time>2020-06-06T13:17:40.000Z</time>
      </trkpt>
      <trkpt lat="43.6971" lon="3.9083">
        <ele>76.702676740236</ele>
        <time>2020-06-06T13:17:41.000Z</time>
      </trkpt>
      <trkpt lat="43.69708" lon="3.90832">
        <ele>76.607074504276</ele>
        <time>2020-06-06T13:17:42.000Z</time>
      </trkpt>
      <trkpt lat="43.69705" lon="3.90834">
        <ele>76.511472268315</ele>
        <time>2020-06-06T13:17:43.000Z</time>
      </trkpt>
      <trkpt lat="43.69702" lon="3.90836">
        <ele>76.415870032355</ele>
        <time>2020-06-06T13:17:44.000Z</time>
      </trkpt>
      <trkpt lat="43.69699" lon="3.90838">
        <ele>76.320267796395</ele>
        <time>2020-06-06T13:17:45.000Z</time>
      </trkpt>
      <trkpt lat="43.69697" lon="3.90841">
        <ele>76.224665560434</ele>
        <time>2020-06-06T13:17:46.000Z</time>
      </trkpt>
      <trkpt lat="43.69694" lon="3.90843">
        <ele>76.129063324474</ele>
        <time>2020-06-06T13:17:47.000Z</time>
      </trkpt>
      <trkpt lat="43.69691" lon="3.90845">
        <ele>76.033461088513</ele>
        <time>2020-06-06T13:17:48.000Z</time>
      </trkpt>
      <trkpt lat="43.69688" lon="3.90847">
        <ele>76</ele>
        <time>2020-06-06T13:17:49.000Z</time>
      </trkpt>
      <trkpt lat="43.69685" lon="3.90849">
        <ele>76</ele>
        <time>2020-06-06T13:17:50.000Z</time>
      </trkpt>
      <trkpt lat="43.69683" lon="3.90851">
        <ele>75.938801666667</ele>
        <time>2020-06-06T13:17:51.000Z</time>
      </trkpt>
      <trkpt lat="43.6968" lon="3.90853">
        <ele>75.808593333333</ele>
        <time>2020-06-06T13:17:52.000Z</time>
      </trkpt>
      <trkpt lat="43.69677" lon="3.90855">
        <ele>75.678385</ele>
        <time>2020-06-06T13:17:53.000Z</time>
      </trkpt>
      <trkpt lat="43.69674" lon="3.90857">
        <ele>75.548176666667</ele>
        <time>2020-06-06T13:17:54.000Z</time>
      </trkpt>
      <trkpt lat="43.69671" lon="3.90859">
        <ele>75.417968333333</ele>
        <time>2020-06-06T13:17:55.000Z</time>
      </trkpt>
      <trkpt lat="43.69669" lon="3.90861">
        <ele>75.28776</ele>
        <time>2020-06-06T13:17:56.000Z</time>
      </trkpt>
      <trkpt lat="43.69666" lon="3.90863">
        <ele>75.157551666667</ele>
        <time>2020-06-06T13:17:57.000Z</time>
      </trkpt>
      <trkpt lat="43.69663" lon="3.90865">
        <ele>75.027343333333</ele>
        <time>2020-06-06T13:17:58.000Z</time>
      </trkpt>
      <trkpt lat="43.6966" lon="3.90867">
        <ele>74.918388099174</ele>
        <time>2020-06-06T13:17:59.000Z</time>
      </trkpt>
      <trkpt lat="43.69657" lon="3.9087">
        <ele>74.81508231405</ele>
        <time>2020-06-06T13:18:00.000Z</time>
      </trkpt>
      <trkpt lat="43.69653" lon="3.90872">
        <ele>74.711776528926</ele>
        <time>2020-06-06T13:18:01.000Z</time>
      </trkpt>
      <trkpt lat="43.6965" lon="3.90874">
        <ele>74.608470743802</ele>
        <time>2020-06-06T13:18:02.000Z</time>
      </trkpt>
      <trkpt lat="43.69647" lon="3.90876">
        <ele>74.505164958678</ele>
        <time>2020-06-06T13:18:03.000Z</time>
      </trkpt>
      <trkpt lat="43.69644" lon="3.90878">
        <ele>74.401859173554</ele>
        <time>2020-06-06T13:18:04.000Z</time>
      </trkpt>
      <trkpt lat="43.69641" lon="3.9088">
        <ele>74.29855338843</ele>
        <time>2020-06-06T13:18:05.000Z</time>
      </trkpt>
      <trkpt lat="43.69637" lon="3.90881">
        <ele>74.195247603306</ele>
        <time>2020-06-06T13:18:06.000Z</time>
      </trkpt>
      <trkpt lat="43.69634" lon="3.9088">
        <ele>74.091941818182</ele>
        <time>2020-06-06T13:18:07.000Z</time>
      </trkpt>
      <trkpt lat="43.69631" lon="3.90879">
        <ele>74</ele>
        <time>2020-06-06T13:18:08.000Z</time>
      </trkpt>
      <trkpt lat="43.69629" lon="3.90876">
        <ele>74</ele>
        <time>2020-06-06T13:18:09.000Z</time>
      </trkpt>
      <trkpt lat="43.69627" lon="3.90873">
        <ele>74</ele>
        <time>2020-06-06T13:18:10.000Z</time>
      </trkpt>
      <trkpt lat="43.69624" lon="3.9087">
        <ele>74</ele>
        <time>2020-06-06T13:18:11.000Z</time>
      </trkpt>
      <trkpt lat="43.69622" lon="3.90868">
        <ele>74</ele>
        <time>2020-06-06T13:18:12.000Z</time>
      </trkpt>
      <trkpt lat="43.6962" lon="3.90865">
        <ele>74</ele>
        <time>2020-06-06T13:18:13.000Z</time>
      </trkpt>
      <trkpt lat="43.69617" lon="3.90863">
        <ele>74</ele>
        <time>2020-06-06T13:18:14.000Z</time>
      </trkpt>
      <trkpt lat="43.69615" lon="3.90863">
        <ele>74</ele>
        <time>2020-06-06T13:18:15.000Z</time>
      </trkpt>
      <trkpt lat="43.69612" lon="3.90864">
        <ele>74</ele>
        <time>2020-06-06T13:18:16.000Z</time>
      </trkpt>
      <trkpt lat="43.69608" lon="3.90866">
        <ele>74</ele>
        <time>2020-06-06T13:18:17.000Z</time>
      </trkpt>
      <trkpt lat="43.69604" lon="3.90868">
        <ele>73.989076150443</ele>
        <time>2020-06-06T13:18:18.000Z</time>
      </trkpt>
      <trkpt lat="43.696" lon="3.9087">
        <ele>73.889771316061</ele>
        <time>2020-06-06T13:18:19.000Z</time>
      </trkpt>
      <trkpt lat="43.69595" lon="3.90872">
        <ele>73.790466481679</ele>
        <time>2020-06-06T13:18:20.000Z</time>
      </trkpt>
      <trkpt lat="43.69591" lon="3.90874">
        <ele>73.691161647297</ele>
        <time>2020-06-06T13:18:21.000Z</time>
      </trkpt>
      <trkpt lat="43.69586" lon="3.90876">
        <ele>73.591856812915</ele>
        <time>2020-06-06T13:18:22.000Z</time>
      </trkpt>
      <trkpt lat="43.69581" lon="3.90878">
        <ele>73.492551978534</ele>
        <time>2020-06-06T13:18:23.000Z</time>
      </trkpt>
      <trkpt lat="43.69577" lon="3.9088">
        <ele>73.393247144152</ele>
        <time>2020-06-06T13:18:24.000Z</time>
      </trkpt>
      <trkpt lat="43.69572" lon="3.90882">
        <ele>73.29394230977</ele>
        <time>2020-06-06T13:18:25.000Z</time>
      </trkpt>
      <trkpt lat="43.69568" lon="3.90884">
        <ele>73.194637475388</ele>
        <time>2020-06-06T13:18:26.000Z</time>
      </trkpt>
      <trkpt lat="43.69563" lon="3.90886">
        <ele>73.095332641006</ele>
        <time>2020-06-06T13:18:27.000Z</time>
      </trkpt>
      <trkpt lat="43.69559" lon="3.90888">
        <ele>72.99597180132</ele>
        <time>2020-06-06T13:18:28.000Z</time>
      </trkpt>
      <trkpt lat="43.69554" lon="3.9089">
        <ele>72.895266834326</ele>
        <time>2020-06-06T13:18:29.000Z</time>
      </trkpt>
      <trkpt lat="43.6955" lon="3.90892">
        <ele>72.794561867331</ele>
        <time>2020-06-06T13:18:30.000Z</time>
      </trkpt>
      <trkpt lat="43.69545" lon="3.90894">
        <ele>72.693856900337</ele>
        <time>2020-06-06T13:18:31.000Z</time>
      </trkpt>
      <trkpt lat="43.69541" lon="3.90897">
        <ele>72.593151933342</ele>
        <time>2020-06-06T13:18:32.000Z</time>
      </trkpt>
      <trkpt lat="43.69537" lon="3.90899">
        <ele>72.492446966348</ele>
        <time>2020-06-06T13:18:33.000Z</time>
      </trkpt>
      <trkpt lat="43.69532" lon="3.90902">
        <ele>72.391741999353</ele>
        <time>2020-06-06T13:18:34.000Z</time>
      </trkpt>
      <trkpt lat="43.69528" lon="3.90905">
        <ele>72.291037032358</ele>
        <time>2020-06-06T13:18:35.000Z</time>
      </trkpt>
      <trkpt lat="43.69524" lon="3.90908">
        <ele>72.190332065364</ele>
        <time>2020-06-06T13:18:36.000Z</time>
      </trkpt>
      <trkpt lat="43.6952" lon="3.90911">
        <ele>72.089627098369</ele>
        <time>2020-06-06T13:18:37.000Z</time>
      </trkpt>
      <trkpt lat="43.69516" lon="3.90914">
        <ele>71.98899968</ele>
        <time>2020-06-06T13:18:38.000Z</time>
      </trkpt>
      <trkpt lat="43.69512" lon="3.90917">
        <ele>71.88899968</ele>
        <time>2020-06-06T13:18:39.000Z</time>
      </trkpt>
      <trkpt lat="43.69508" lon="3.9092">
        <ele>71.78899968</ele>
        <time>2020-06-06T13:18:40.000Z</time>
      </trkpt>
      <trkpt lat="43.69504" lon="3.90923">
        <ele>71.68899968</ele>
        <time>2020-06-06T13:18:41.000Z</time>
      </trkpt>
      <trkpt lat="43.695" lon="3.90926">
        <ele>71.58899968</ele>
        <time>2020-06-06T13:18:42.000Z</time>
      </trkpt>
      <trkpt lat="43.69497" lon="3.90929">
        <ele>71.48899968</ele>
        <time>2020-06-06T13:18:43.000Z</time>
      </trkpt>
      <trkpt lat="43.69493" lon="3.90932">
        <ele>71.38899968</ele>
        <time>2020-06-06T13:18:44.000Z</time>
      </trkpt>
      <trkpt lat="43.69489" lon="3.90936">
        <ele>71.28899968</ele>
        <time>2020-06-06T13:18:45.000Z</time>
      </trkpt>
      <trkpt lat="43.69486" lon="3.90939">
        <ele>71.18899968</ele>
        <time>2020-06-06T13:18:46.000Z</time>
      </trkpt>
      <trkpt lat="43.69482" lon="3.90943">
        <ele>71.08899968</ele>
        <time>2020-06-06T13:18:47.000Z</time>
      </trkpt>
      <trkpt lat="43.69478" lon="3.90947">
        <ele>71</ele>
        <time>2020-06-06T13:18:48.000Z</time>
      </trkpt>
      <trkpt lat="43.69474" lon="3.90952">
        <ele>71</ele>
        <time>2020-06-06T13:18:49.000Z</time>
      </trkpt>
      <trkpt lat="43.6947" lon="3.90955">
        <ele>71</ele>
        <time>2020-06-06T13:18:50.000Z</time>
      </trkpt>
      <trkpt lat="43.69467" lon="3.90958">
        <ele>71</ele>
        <time>2020-06-06T13:18:51.000Z</time>
      </trkpt>
      <trkpt lat="43.69463" lon="3.90961">
        <ele>71</ele>
        <time>2020-06-06T13:18:52.000Z</time>
      </trkpt>
      <trkpt lat="43.69459" lon="3.90964">
        <ele>71</ele>
        <time>2020-06-06T13:18:53.000Z</time>
      </trkpt>
      <trkpt lat="43.69454" lon="3.90967">
        <ele>71</ele>
        <time>2020-06-06T13:18:54.000Z</time>
      </trkpt>
      <trkpt lat="43.6945" lon="3.9097">
        <ele>71</ele>
        <time>2020-06-06T13:18:55.000Z</time>
      </trkpt>
      <trkpt lat="43.69447" lon="3.90973">
        <ele>71</ele>
        <time>2020-06-06T13:18:56.000Z</time>
      </trkpt>
      <trkpt lat="43.69443" lon="3.90977">
        <ele>71</ele>
        <time>2020-06-06T13:18:57.000Z</time>
      </trkpt>
      <trkpt lat="43.69439" lon="3.9098">
        <ele>71.01100032</ele>
        <time>2020-06-06T13:18:58.000Z</time>
      </trkpt>
      <trkpt lat="43.69435" lon="3.90984">
        <ele>71.11100032</ele>
        <time>2020-06-06T13:18:59.000Z</time>
      </trkpt>
      <trkpt lat="43.69432" lon="3.90988">
        <ele>71.21100032</ele>
        <time>2020-06-06T13:19:00.000Z</time>
      </trkpt>
      <trkpt lat="43.69429" lon="3.90991">
        <ele>71.31100032</ele>
        <time>2020-06-06T13:19:01.000Z</time>
      </trkpt>
      <trkpt lat="43.69425" lon="3.90993">
        <ele>71.41100032</ele>
        <time>2020-06-06T13:19:02.000Z</time>
      </trkpt>
      <trkpt lat="43.69422" lon="3.90995">
        <ele>71.51100032</ele>
        <time>2020-06-06T13:19:03.000Z</time>
      </trkpt>
      <trkpt lat="43.69419" lon="3.90998">
        <ele>71.61100032</ele>
        <time>2020-06-06T13:19:04.000Z</time>
      </trkpt>
      <trkpt lat="43.69416" lon="3.91">
        <ele>71.71100032</ele>
        <time>2020-06-06T13:19:05.000Z</time>
      </trkpt>
      <trkpt lat="43.69413" lon="3.91001">
        <ele>71.81100032</ele>
        <time>2020-06-06T13:19:06.000Z</time>
      </trkpt>
      <trkpt lat="43.6941" lon="3.91003">
        <ele>71.91100032</ele>
        <time>2020-06-06T13:19:07.000Z</time>
      </trkpt>
      <trkpt lat="43.69407" lon="3.91005">
        <ele>72</ele>
        <time>2020-06-06T13:19:08.000Z</time>
      </trkpt>
      <trkpt lat="43.69404" lon="3.91007">
        <ele>72</ele>
        <time>2020-06-06T13:19:09.000Z</time>
      </trkpt>
      <trkpt lat="43.694" lon="3.91008">
        <ele>72</ele>
        <time>2020-06-06T13:19:10.000Z</time>
      </trkpt>
      <trkpt lat="43.69397" lon="3.91008">
        <ele>72</ele>
        <time>2020-06-06T13:19:11.000Z</time>
      </trkpt>
      <trkpt lat="43.69393" lon="3.91009">
        <ele>72</ele>
        <time>2020-06-06T13:19:12.000Z</time>
      </trkpt>
      <trkpt lat="43.6939" lon="3.9101">
        <ele>72</ele>
        <time>2020-06-06T13:19:13.000Z</time>
      </trkpt>
      <trkpt lat="43.69387" lon="3.91012">
        <ele>72</ele>
        <time>2020-06-06T13:19:14.000Z</time>
      </trkpt>
      <trkpt lat="43.69383" lon="3.91013">
        <ele>72</ele>
        <time>2020-06-06T13:19:15.000Z</time>
      </trkpt>
      <trkpt lat="43.69379" lon="3.91014">
        <ele>72</ele>
        <time>2020-06-06T13:19:16.000Z</time>
      </trkpt>
      <trkpt lat="43.69375" lon="3.91016">
        <ele>72</ele>
        <time>2020-06-06T13:19:17.000Z</time>
      </trkpt>
      <trkpt lat="43.69371" lon="3.91018">
        <ele>72</ele>
        <time>2020-06-06T13:19:18.000Z</time>
      </trkpt>
      <trkpt lat="43.69367" lon="3.9102">
        <ele>71.918163086203</ele>
        <time>2020-06-06T13:19:19.000Z</time>
      </trkpt>
      <trkpt lat="43.69362" lon="3.91023">
        <ele>71.818362750746</ele>
        <time>2020-06-06T13:19:20.000Z</time>
      </trkpt>
      <trkpt lat="43.69358" lon="3.91026">
        <ele>71.718562415289</ele>
        <time>2020-06-06T13:19:21.000Z</time>
      </trkpt>
      <trkpt lat="43.69354" lon="3.91029">
        <ele>71.618762079833</ele>
        <time>2020-06-06T13:19:22.000Z</time>
      </trkpt>
      <trkpt lat="43.6935" lon="3.91033">
        <ele>71.518961744376</ele>
        <time>2020-06-06T13:19:23.000Z</time>
      </trkpt>
      <trkpt lat="43.69346" lon="3.91038">
        <ele>71.419161408919</ele>
        <time>2020-06-06T13:19:24.000Z</time>
      </trkpt>
      <trkpt lat="43.69341" lon="3.91043">
        <ele>71.319361073462</ele>
        <time>2020-06-06T13:19:25.000Z</time>
      </trkpt>
      <trkpt lat="43.69337" lon="3.91048">
        <ele>71.219560738005</ele>
        <time>2020-06-06T13:19:26.000Z</time>
      </trkpt>
      <trkpt lat="43.69333" lon="3.91053">
        <ele>71.119760402548</ele>
        <time>2020-06-06T13:19:27.000Z</time>
      </trkpt>
      <trkpt lat="43.69329" lon="3.91058">
        <ele>71.019960067091</ele>
        <time>2020-06-06T13:19:28.000Z</time>
      </trkpt>
      <trkpt lat="43.69325" lon="3.91063">
        <ele>70.839679255907</ele>
        <time>2020-06-06T13:19:29.000Z</time>
      </trkpt>
      <trkpt lat="43.69321" lon="3.91067">
        <ele>70.63927832579</ele>
        <time>2020-06-06T13:19:30.000Z</time>
      </trkpt>
      <trkpt lat="43.69316" lon="3.91072">
        <ele>70.438877395673</ele>
        <time>2020-06-06T13:19:31.000Z</time>
      </trkpt>
      <trkpt lat="43.69312" lon="3.91077">
        <ele>70.238476465556</ele>
        <time>2020-06-06T13:19:32.000Z</time>
      </trkpt>
      <trkpt lat="43.69307" lon="3.91081">
        <ele>70.038075535439</ele>
        <time>2020-06-06T13:19:33.000Z</time>
      </trkpt>
      <trkpt lat="43.69302" lon="3.91084">
        <ele>69.837674605322</ele>
        <time>2020-06-06T13:19:34.000Z</time>
      </trkpt>
      <trkpt lat="43.69298" lon="3.91085">
        <ele>69.637273675206</ele>
        <time>2020-06-06T13:19:35.000Z</time>
      </trkpt>
      <trkpt lat="43.69294" lon="3.91085">
        <ele>69.436872745089</ele>
        <time>2020-06-06T13:19:36.000Z</time>
      </trkpt>
      <trkpt lat="43.6929" lon="3.91086">
        <ele>69.236471814972</ele>
        <time>2020-06-06T13:19:37.000Z</time>
      </trkpt>
      <trkpt lat="43.69286" lon="3.91086">
        <ele>69.036070884855</ele>
        <time>2020-06-06T13:19:38.000Z</time>
      </trkpt>
      <trkpt lat="43.69282" lon="3.91087">
        <ele>69.08444965291</ele>
        <time>2020-06-06T13:19:39.000Z</time>
      </trkpt>
      <trkpt lat="43.69279" lon="3.91088">
        <ele>69.187436230711</ele>
        <time>2020-06-06T13:19:40.000Z</time>
      </trkpt>
      <trkpt lat="43.69275" lon="3.91089">
        <ele>69.290422808511</ele>
        <time>2020-06-06T13:19:41.000Z</time>
      </trkpt>
      <trkpt lat="43.69272" lon="3.9109">
        <ele>69.393409386312</ele>
        <time>2020-06-06T13:19:42.000Z</time>
      </trkpt>
      <trkpt lat="43.69268" lon="3.91092">
        <ele>69.496395964113</ele>
        <time>2020-06-06T13:19:43.000Z</time>
      </trkpt>
      <trkpt lat="43.69265" lon="3.91093">
        <ele>69.599382541913</ele>
        <time>2020-06-06T13:19:44.000Z</time>
      </trkpt>
      <trkpt lat="43.69262" lon="3.91094">
        <ele>69.702369119714</ele>
        <time>2020-06-06T13:19:45.000Z</time>
      </trkpt>
      <trkpt lat="43.69259" lon="3.91095">
        <ele>69.805355697514</ele>
        <time>2020-06-06T13:19:46.000Z</time>
      </trkpt>
      <trkpt lat="43.69255" lon="3.91096">
        <ele>69.908342275315</ele>
        <time>2020-06-06T13:19:47.000Z</time>
      </trkpt>
      <trkpt lat="43.69252" lon="3.91098">
        <ele>69.98899968</ele>
        <time>2020-06-06T13:19:48.000Z</time>
      </trkpt>
      <trkpt lat="43.69248" lon="3.91099">
        <ele>69.88899968</ele>
        <time>2020-06-06T13:19:49.000Z</time>
      </trkpt>
      <trkpt lat="43.69244" lon="3.911">
        <ele>69.78899968</ele>
        <time>2020-06-06T13:19:50.000Z</time>
      </trkpt>
      <trkpt lat="43.6924" lon="3.91101">
        <ele>69.68899968</ele>
        <time>2020-06-06T13:19:51.000Z</time>
      </trkpt>
      <trkpt lat="43.69237" lon="3.91102">
        <ele>69.58899968</ele>
        <time>2020-06-06T13:19:52.000Z</time>
      </trkpt>
      <trkpt lat="43.69233" lon="3.91102">
        <ele>69.48899968</ele>
        <time>2020-06-06T13:19:53.000Z</time>
      </trkpt>
      <trkpt lat="43.69229" lon="3.91102">
        <ele>69.38899968</ele>
        <time>2020-06-06T13:19:54.000Z</time>
      </trkpt>
      <trkpt lat="43.69225" lon="3.91103">
        <ele>69.28899968</ele>
        <time>2020-06-06T13:19:55.000Z</time>
      </trkpt>
      <trkpt lat="43.6922" lon="3.91103">
        <ele>69.18899968</ele>
        <time>2020-06-06T13:19:56.000Z</time>
      </trkpt>
      <trkpt lat="43.69216" lon="3.91103">
        <ele>69.08899968</ele>
        <time>2020-06-06T13:19:57.000Z</time>
      </trkpt>
      <trkpt lat="43.69212" lon="3.91104">
        <ele>69</ele>
        <time>2020-06-06T13:19:58.000Z</time>
      </trkpt>
      <trkpt lat="43.69208" lon="3.91106">
        <ele>69</ele>
        <time>2020-06-06T13:19:59.000Z</time>
      </trkpt>
      <trkpt lat="43.69204" lon="3.91107">
        <ele>69</ele>
        <time>2020-06-06T13:20:00.000Z</time>
      </trkpt>
      <trkpt lat="43.692" lon="3.91109">
        <ele>69</ele>
        <time>2020-06-06T13:20:01.000Z</time>
      </trkpt>
      <trkpt lat="43.69196" lon="3.91111">
        <ele>69</ele>
        <time>2020-06-06T13:20:02.000Z</time>
      </trkpt>
      <trkpt lat="43.69193" lon="3.91113">
        <ele>69</ele>
        <time>2020-06-06T13:20:03.000Z</time>
      </trkpt>
      <trkpt lat="43.69189" lon="3.91116">
        <ele>69</ele>
        <time>2020-06-06T13:20:04.000Z</time>
      </trkpt>
      <trkpt lat="43.69186" lon="3.91118">
        <ele>69</ele>
        <time>2020-06-06T13:20:05.000Z</time>
      </trkpt>
      <trkpt lat="43.69182" lon="3.91121">
        <ele>69</ele>
        <time>2020-06-06T13:20:06.000Z</time>
      </trkpt>
      <trkpt lat="43.69179" lon="3.91123">
        <ele>69</ele>
        <time>2020-06-06T13:20:07.000Z</time>
      </trkpt>
      <trkpt lat="43.69176" lon="3.91126">
        <ele>69</ele>
        <time>2020-06-06T13:20:08.000Z</time>
      </trkpt>
      <trkpt lat="43.69173" lon="3.91129">
        <ele>69</ele>
        <time>2020-06-06T13:20:09.000Z</time>
      </trkpt>
      <trkpt lat="43.6917" lon="3.91132">
        <ele>69</ele>
        <time>2020-06-06T13:20:10.000Z</time>
      </trkpt>
      <trkpt lat="43.69167" lon="3.91135">
        <ele>69</ele>
        <time>2020-06-06T13:20:11.000Z</time>
      </trkpt>
      <trkpt lat="43.69165" lon="3.91139">
        <ele>69</ele>
        <time>2020-06-06T13:20:12.000Z</time>
      </trkpt>
      <trkpt lat="43.69163" lon="3.91143">
        <ele>69</ele>
        <time>2020-06-06T13:20:13.000Z</time>
      </trkpt>
      <trkpt lat="43.69161" lon="3.91148">
        <ele>69</ele>
        <time>2020-06-06T13:20:14.000Z</time>
      </trkpt>
      <trkpt lat="43.69159" lon="3.91152">
        <ele>69</ele>
        <time>2020-06-06T13:20:15.000Z</time>
      </trkpt>
      <trkpt lat="43.69158" lon="3.91157">
        <ele>69</ele>
        <time>2020-06-06T13:20:16.000Z</time>
      </trkpt>
      <trkpt lat="43.69158" lon="3.91162">
        <ele>69</ele>
        <time>2020-06-06T13:20:17.000Z</time>
      </trkpt>
      <trkpt lat="43.69158" lon="3.91166">
        <ele>69</ele>
        <time>2020-06-06T13:20:18.000Z</time>
      </trkpt>
      <trkpt lat="43.69158" lon="3.91171">
        <ele>69.084780687304</ele>
        <time>2020-06-06T13:20:19.000Z</time>
      </trkpt>
      <trkpt lat="43.69159" lon="3.91176">
        <ele>69.186925699881</ele>
        <time>2020-06-06T13:20:20.000Z</time>
      </trkpt>
      <trkpt lat="43.6916" lon="3.9118">
        <ele>69.289070712459</ele>
        <time>2020-06-06T13:20:21.000Z</time>
      </trkpt>
      <trkpt lat="43.69161" lon="3.91184">
        <ele>69.391215725037</ele>
        <time>2020-06-06T13:20:22.000Z</time>
      </trkpt>
      <trkpt lat="43.69162" lon="3.91189">
        <ele>69.493360737614</ele>
        <time>2020-06-06T13:20:23.000Z</time>
      </trkpt>
      <trkpt lat="43.69163" lon="3.91193">
        <ele>69.595505750192</ele>
        <time>2020-06-06T13:20:24.000Z</time>
      </trkpt>
      <trkpt lat="43.69164" lon="3.91197">
        <ele>69.69765076277</ele>
        <time>2020-06-06T13:20:25.000Z</time>
      </trkpt>
      <trkpt lat="43.69164" lon="3.91201">
        <ele>69.799795775348</ele>
        <time>2020-06-06T13:20:26.000Z</time>
      </trkpt>
      <trkpt lat="43.69165" lon="3.91205">
        <ele>69.901940787925</ele>
        <time>2020-06-06T13:20:27.000Z</time>
      </trkpt>
      <trkpt lat="43.69166" lon="3.91209">
        <ele>70.003992013418</ele>
        <time>2020-06-06T13:20:28.000Z</time>
      </trkpt>
      <trkpt lat="43.69167" lon="3.91213">
        <ele>70.103792348875</ele>
        <time>2020-06-06T13:20:29.000Z</time>
      </trkpt>
      <trkpt lat="43.69168" lon="3.91217">
        <ele>70.203592684332</ele>
        <time>2020-06-06T13:20:30.000Z</time>
      </trkpt>
      <trkpt lat="43.69169" lon="3.91221">
        <ele>70.303393019789</ele>
        <time>2020-06-06T13:20:31.000Z</time>
      </trkpt>
      <trkpt lat="43.6917" lon="3.91225">
        <ele>70.403193355246</ele>
        <time>2020-06-06T13:20:32.000Z</time>
      </trkpt>
      <trkpt lat="43.69171" lon="3.91229">
        <ele>70.502993690703</ele>
        <time>2020-06-06T13:20:33.000Z</time>
      </trkpt>
      <trkpt lat="43.69172" lon="3.91233">
        <ele>70.60279402616</ele>
        <time>2020-06-06T13:20:34.000Z</time>
      </trkpt>
      <trkpt lat="43.69172" lon="3.91237">
        <ele>70.702594361616</ele>
        <time>2020-06-06T13:20:35.000Z</time>
      </trkpt>
      <trkpt lat="43.69173" lon="3.91241">
        <ele>70.802394697073</ele>
        <time>2020-06-06T13:20:36.000Z</time>
      </trkpt>
      <trkpt lat="43.69174" lon="3.91245">
        <ele>70.90219503253</ele>
        <time>2020-06-06T13:20:37.000Z</time>
      </trkpt>
      <trkpt lat="43.69174" lon="3.91249">
        <ele>71.002017519613</ele>
        <time>2020-06-06T13:20:38.000Z</time>
      </trkpt>
      <trkpt lat="43.69174" lon="3.91253">
        <ele>71.102925790927</ele>
        <time>2020-06-06T13:20:39.000Z</time>
      </trkpt>
      <trkpt lat="43.69175" lon="3.91256">
        <ele>71.203834062241</ele>
        <time>2020-06-06T13:20:40.000Z</time>
      </trkpt>
      <trkpt lat="43.69175" lon="3.9126">
        <ele>71.304742333555</ele>
        <time>2020-06-06T13:20:41.000Z</time>
      </trkpt>
      <trkpt lat="43.69176" lon="3.91264">
        <ele>71.405650604868</ele>
        <time>2020-06-06T13:20:42.000Z</time>
      </trkpt>
      <trkpt lat="43.69176" lon="3.91268">
        <ele>71.506558876182</ele>
        <time>2020-06-06T13:20:43.000Z</time>
      </trkpt>
      <trkpt lat="43.69177" lon="3.91272">
        <ele>71.607467147496</ele>
        <time>2020-06-06T13:20:44.000Z</time>
      </trkpt>
      <trkpt lat="43.69177" lon="3.91276">
        <ele>71.70837541881</ele>
        <time>2020-06-06T13:20:45.000Z</time>
      </trkpt>
      <trkpt lat="43.69178" lon="3.9128">
        <ele>71.809283690123</ele>
        <time>2020-06-06T13:20:46.000Z</time>
      </trkpt>
      <trkpt lat="43.69178" lon="3.91284">
        <ele>71.910191961437</ele>
        <time>2020-06-06T13:20:47.000Z</time>
      </trkpt>
      <trkpt lat="43.69179" lon="3.91288">
        <ele>72.010700700389</ele>
        <time>2020-06-06T13:20:48.000Z</time>
      </trkpt>
      <trkpt lat="43.69179" lon="3.91292">
        <ele>72.107976964981</ele>
        <time>2020-06-06T13:20:49.000Z</time>
      </trkpt>
      <trkpt lat="43.69179" lon="3.91296">
        <ele>72.205253229572</ele>
        <time>2020-06-06T13:20:50.000Z</time>
      </trkpt>
      <trkpt lat="43.69179" lon="3.913">
        <ele>72.302529494163</ele>
        <time>2020-06-06T13:20:51.000Z</time>
      </trkpt>
      <trkpt lat="43.6918" lon="3.91304">
        <ele>72.399805758755</ele>
        <time>2020-06-06T13:20:52.000Z</time>
      </trkpt>
      <trkpt lat="43.6918" lon="3.91308">
        <ele>72.497082023346</ele>
        <time>2020-06-06T13:20:53.000Z</time>
      </trkpt>
      <trkpt lat="43.69181" lon="3.91313">
        <ele>72.594358287938</ele>
        <time>2020-06-06T13:20:54.000Z</time>
      </trkpt>
      <trkpt lat="43.69181" lon="3.91317">
        <ele>72.691634552529</ele>
        <time>2020-06-06T13:20:55.000Z</time>
      </trkpt>
      <trkpt lat="43.69182" lon="3.91321">
        <ele>72.788910817121</ele>
        <time>2020-06-06T13:20:56.000Z</time>
      </trkpt>
      <trkpt lat="43.69182" lon="3.91324">
        <ele>72.886187081712</ele>
        <time>2020-06-06T13:20:57.000Z</time>
      </trkpt>
      <trkpt lat="43.69182" lon="3.91328">
        <ele>72.983463346303</ele>
        <time>2020-06-06T13:20:58.000Z</time>
      </trkpt>
      <trkpt lat="43.69183" lon="3.91332">
        <ele>73</ele>
        <time>2020-06-06T13:20:59.000Z</time>
      </trkpt>
      <trkpt lat="43.69183" lon="3.91336">
        <ele>73</ele>
        <time>2020-06-06T13:21:00.000Z</time>
      </trkpt>
      <trkpt lat="43.69183" lon="3.9134">
        <ele>73</ele>
        <time>2020-06-06T13:21:01.000Z</time>
      </trkpt>
      <trkpt lat="43.69183" lon="3.91344">
        <ele>73</ele>
        <time>2020-06-06T13:21:02.000Z</time>
      </trkpt>
      <trkpt lat="43.69184" lon="3.91349">
        <ele>73</ele>
        <time>2020-06-06T13:21:03.000Z</time>
      </trkpt>
      <trkpt lat="43.69184" lon="3.91353">
        <ele>73</ele>
        <time>2020-06-06T13:21:04.000Z</time>
      </trkpt>
      <trkpt lat="43.69184" lon="3.91357">
        <ele>73</ele>
        <time>2020-06-06T13:21:05.000Z</time>
      </trkpt>
      <trkpt lat="43.69185" lon="3.91361">
        <ele>73</ele>
        <time>2020-06-06T13:21:06.000Z</time>
      </trkpt>
      <trkpt lat="43.69185" lon="3.91365">
        <ele>73</ele>
        <time>2020-06-06T13:21:07.000Z</time>
      </trkpt>
      <trkpt lat="43.69186" lon="3.91369">
        <ele>73</ele>
        <time>2020-06-06T13:21:08.000Z</time>
      </trkpt>
      <trkpt lat="43.69186" lon="3.91374">
        <ele>73.08539127572</ele>
        <time>2020-06-06T13:21:09.000Z</time>
      </trkpt>
      <trkpt lat="43.69187" lon="3.91378">
        <ele>73.188271934156</ele>
        <time>2020-06-06T13:21:10.000Z</time>
      </trkpt>
      <trkpt lat="43.69187" lon="3.91382">
        <ele>73.291152592593</ele>
        <time>2020-06-06T13:21:11.000Z</time>
      </trkpt>
      <trkpt lat="43.69188" lon="3.91386">
        <ele>73.394033251029</ele>
        <time>2020-06-06T13:21:12.000Z</time>
      </trkpt>
      <trkpt lat="43.69189" lon="3.91389">
        <ele>73.496913909465</ele>
        <time>2020-06-06T13:21:13.000Z</time>
      </trkpt>
      <trkpt lat="43.69189" lon="3.91393">
        <ele>73.599794567901</ele>
        <time>2020-06-06T13:21:14.000Z</time>
      </trkpt>
      <trkpt lat="43.69191" lon="3.91396">
        <ele>73.702675226337</ele>
        <time>2020-06-06T13:21:15.000Z</time>
      </trkpt>
      <trkpt lat="43.69191" lon="3.91399">
        <ele>73.805555884774</ele>
        <time>2020-06-06T13:21:16.000Z</time>
      </trkpt>
      <trkpt lat="43.69192" lon="3.91402">
        <ele>73.90843654321</ele>
        <time>2020-06-06T13:21:17.000Z</time>
      </trkpt>
      <trkpt lat="43.69193" lon="3.91405">
        <ele>74.01100032</ele>
        <time>2020-06-06T13:21:18.000Z</time>
      </trkpt>
      <trkpt lat="43.69194" lon="3.91408">
        <ele>74.11100032</ele>
        <time>2020-06-06T13:21:19.000Z</time>
      </trkpt>
      <trkpt lat="43.69195" lon="3.91411">
        <ele>74.21100032</ele>
        <time>2020-06-06T13:21:20.000Z</time>
      </trkpt>
      <trkpt lat="43.69196" lon="3.91414">
        <ele>74.31100032</ele>
        <time>2020-06-06T13:21:21.000Z</time>
      </trkpt>
      <trkpt lat="43.69197" lon="3.91417">
        <ele>74.41100032</ele>
        <time>2020-06-06T13:21:22.000Z</time>
      </trkpt>
      <trkpt lat="43.69197" lon="3.9142">
        <ele>74.51100032</ele>
        <time>2020-06-06T13:21:23.000Z</time>
      </trkpt>
      <trkpt lat="43.69198" lon="3.91423">
        <ele>74.61100032</ele>
        <time>2020-06-06T13:21:24.000Z</time>
      </trkpt>
      <trkpt lat="43.69199" lon="3.91426">
        <ele>74.71100032</ele>
        <time>2020-06-06T13:21:25.000Z</time>
      </trkpt>
      <trkpt lat="43.69199" lon="3.91429">
        <ele>74.81100032</ele>
        <time>2020-06-06T13:21:26.000Z</time>
      </trkpt>
      <trkpt lat="43.692" lon="3.91431">
        <ele>74.91100032</ele>
        <time>2020-06-06T13:21:27.000Z</time>
      </trkpt>
      <trkpt lat="43.69201" lon="3.91434">
        <ele>75.01100032</ele>
        <time>2020-06-06T13:21:28.000Z</time>
      </trkpt>
      <trkpt lat="43.69202" lon="3.91437">
        <ele>75.11100032</ele>
        <time>2020-06-06T13:21:29.000Z</time>
      </trkpt>
      <trkpt lat="43.69203" lon="3.9144">
        <ele>75.21100032</ele>
        <time>2020-06-06T13:21:30.000Z</time>
      </trkpt>
      <trkpt lat="43.69203" lon="3.91443">
        <ele>75.31100032</ele>
        <time>2020-06-06T13:21:31.000Z</time>
      </trkpt>
      <trkpt lat="43.69204" lon="3.91446">
        <ele>75.41100032</ele>
        <time>2020-06-06T13:21:32.000Z</time>
      </trkpt>
      <trkpt lat="43.69205" lon="3.91449">
        <ele>75.51100032</ele>
        <time>2020-06-06T13:21:33.000Z</time>
      </trkpt>
      <trkpt lat="43.69206" lon="3.91451">
        <ele>75.61100032</ele>
        <time>2020-06-06T13:21:34.000Z</time>
      </trkpt>
      <trkpt lat="43.69206" lon="3.91454">
        <ele>75.71100032</ele>
        <time>2020-06-06T13:21:35.000Z</time>
      </trkpt>
      <trkpt lat="43.69207" lon="3.91458">
        <ele>75.81100032</ele>
        <time>2020-06-06T13:21:36.000Z</time>
      </trkpt>
      <trkpt lat="43.69208" lon="3.9146">
        <ele>75.91100032</ele>
        <time>2020-06-06T13:21:37.000Z</time>
      </trkpt>
      <trkpt lat="43.69208" lon="3.91463">
        <ele>76.01100032</ele>
        <time>2020-06-06T13:21:38.000Z</time>
      </trkpt>
      <trkpt lat="43.69209" lon="3.91466">
        <ele>76.11100032</ele>
        <time>2020-06-06T13:21:39.000Z</time>
      </trkpt>
      <trkpt lat="43.6921" lon="3.91469">
        <ele>76.21100032</ele>
        <time>2020-06-06T13:21:40.000Z</time>
      </trkpt>
      <trkpt lat="43.69211" lon="3.91472">
        <ele>76.31100032</ele>
        <time>2020-06-06T13:21:41.000Z</time>
      </trkpt>
      <trkpt lat="43.69211" lon="3.91475">
        <ele>76.41100032</ele>
        <time>2020-06-06T13:21:42.000Z</time>
      </trkpt>
      <trkpt lat="43.69212" lon="3.91477">
        <ele>76.51100032</ele>
        <time>2020-06-06T13:21:43.000Z</time>
      </trkpt>
      <trkpt lat="43.69213" lon="3.9148">
        <ele>76.61100032</ele>
        <time>2020-06-06T13:21:44.000Z</time>
      </trkpt>
      <trkpt lat="43.69213" lon="3.91483">
        <ele>76.71100032</ele>
        <time>2020-06-06T13:21:45.000Z</time>
      </trkpt>
      <trkpt lat="43.69214" lon="3.91486">
        <ele>76.81100032</ele>
        <time>2020-06-06T13:21:46.000Z</time>
      </trkpt>
      <trkpt lat="43.69215" lon="3.91488">
        <ele>76.91100032</ele>
        <time>2020-06-06T13:21:47.000Z</time>
      </trkpt>
      <trkpt lat="43.69216" lon="3.91491">
        <ele>77.02200064</ele>
        <time>2020-06-06T13:21:48.000Z</time>
      </trkpt>
      <trkpt lat="43.69216" lon="3.91494">
        <ele>77.22200064</ele>
        <time>2020-06-06T13:21:49.000Z</time>
      </trkpt>
      <trkpt lat="43.69217" lon="3.91497">
        <ele>77.42200064</ele>
        <time>2020-06-06T13:21:50.000Z</time>
      </trkpt>
      <trkpt lat="43.69218" lon="3.91499">
        <ele>77.62200064</ele>
        <time>2020-06-06T13:21:51.000Z</time>
      </trkpt>
      <trkpt lat="43.69219" lon="3.91502">
        <ele>77.82200064</ele>
        <time>2020-06-06T13:21:52.000Z</time>
      </trkpt>
      <trkpt lat="43.69219" lon="3.91505">
        <ele>78.02200064</ele>
        <time>2020-06-06T13:21:53.000Z</time>
      </trkpt>
      <trkpt lat="43.6922" lon="3.91508">
        <ele>78.22200064</ele>
        <time>2020-06-06T13:21:54.000Z</time>
      </trkpt>
      <trkpt lat="43.6922" lon="3.91511">
        <ele>78.42200064</ele>
        <time>2020-06-06T13:21:55.000Z</time>
      </trkpt>
      <trkpt lat="43.6922" lon="3.91513">
        <ele>78.62200064</ele>
        <time>2020-06-06T13:21:56.000Z</time>
      </trkpt>
      <trkpt lat="43.69221" lon="3.91516">
        <ele>78.82200064</ele>
        <time>2020-06-06T13:21:57.000Z</time>
      </trkpt>
      <trkpt lat="43.69221" lon="3.91519">
        <ele>79.01100032</ele>
        <time>2020-06-06T13:21:58.000Z</time>
      </trkpt>
      <trkpt lat="43.69221" lon="3.91522">
        <ele>79.11100032</ele>
        <time>2020-06-06T13:21:59.000Z</time>
      </trkpt>
      <trkpt lat="43.69222" lon="3.91525">
        <ele>79.21100032</ele>
        <time>2020-06-06T13:22:00.000Z</time>
      </trkpt>
      <trkpt lat="43.69222" lon="3.91528">
        <ele>79.31100032</ele>
        <time>2020-06-06T13:22:01.000Z</time>
      </trkpt>
      <trkpt lat="43.69223" lon="3.91531">
        <ele>79.41100032</ele>
        <time>2020-06-06T13:22:02.000Z</time>
      </trkpt>
      <trkpt lat="43.69223" lon="3.91534">
        <ele>79.51100032</ele>
        <time>2020-06-06T13:22:03.000Z</time>
      </trkpt>
      <trkpt lat="43.69224" lon="3.91537">
        <ele>79.61100032</ele>
        <time>2020-06-06T13:22:04.000Z</time>
      </trkpt>
      <trkpt lat="43.69225" lon="3.9154">
        <ele>79.71100032</ele>
        <time>2020-06-06T13:22:05.000Z</time>
      </trkpt>
      <trkpt lat="43.69226" lon="3.91543">
        <ele>79.81100032</ele>
        <time>2020-06-06T13:22:06.000Z</time>
      </trkpt>
      <trkpt lat="43.69226" lon="3.91546">
        <ele>79.91100032</ele>
        <time>2020-06-06T13:22:07.000Z</time>
      </trkpt>
      <trkpt lat="43.69227" lon="3.91549">
        <ele>80.02200064</ele>
        <time>2020-06-06T13:22:08.000Z</time>
      </trkpt>
      <trkpt lat="43.69227" lon="3.91552">
        <ele>80.22200064</ele>
        <time>2020-06-06T13:22:09.000Z</time>
      </trkpt>
      <trkpt lat="43.69227" lon="3.91555">
        <ele>80.42200064</ele>
        <time>2020-06-06T13:22:10.000Z</time>
      </trkpt>
      <trkpt lat="43.69228" lon="3.91558">
        <ele>80.62200064</ele>
        <time>2020-06-06T13:22:11.000Z</time>
      </trkpt>
      <trkpt lat="43.69228" lon="3.91561">
        <ele>80.82200064</ele>
        <time>2020-06-06T13:22:12.000Z</time>
      </trkpt>
      <trkpt lat="43.69229" lon="3.91564">
        <ele>81.02200064</ele>
        <time>2020-06-06T13:22:13.000Z</time>
      </trkpt>
      <trkpt lat="43.69229" lon="3.91567">
        <ele>81.22200064</ele>
        <time>2020-06-06T13:22:14.000Z</time>
      </trkpt>
      <trkpt lat="43.6923" lon="3.91569">
        <ele>81.42200064</ele>
        <time>2020-06-06T13:22:15.000Z</time>
      </trkpt>
      <trkpt lat="43.69231" lon="3.91572">
        <ele>81.62200064</ele>
        <time>2020-06-06T13:22:16.000Z</time>
      </trkpt>
      <trkpt lat="43.69231" lon="3.91575">
        <ele>81.82200064</ele>
        <time>2020-06-06T13:22:17.000Z</time>
      </trkpt>
      <trkpt lat="43.69232" lon="3.91578">
        <ele>82.01100032</ele>
        <time>2020-06-06T13:22:18.000Z</time>
      </trkpt>
      <trkpt lat="43.69233" lon="3.91581">
        <ele>82.11100032</ele>
        <time>2020-06-06T13:22:19.000Z</time>
      </trkpt>
      <trkpt lat="43.69233" lon="3.91583">
        <ele>82.21100032</ele>
        <time>2020-06-06T13:22:20.000Z</time>
      </trkpt>
      <trkpt lat="43.69234" lon="3.91586">
        <ele>82.31100032</ele>
        <time>2020-06-06T13:22:21.000Z</time>
      </trkpt>
      <trkpt lat="43.69235" lon="3.91589">
        <ele>82.41100032</ele>
        <time>2020-06-06T13:22:22.000Z</time>
      </trkpt>
      <trkpt lat="43.69235" lon="3.91592">
        <ele>82.51100032</ele>
        <time>2020-06-06T13:22:23.000Z</time>
      </trkpt>
      <trkpt lat="43.69236" lon="3.91595">
        <ele>82.61100032</ele>
        <time>2020-06-06T13:22:24.000Z</time>
      </trkpt>
      <trkpt lat="43.69237" lon="3.91597">
        <ele>82.71100032</ele>
        <time>2020-06-06T13:22:25.000Z</time>
      </trkpt>
      <trkpt lat="43.69237" lon="3.916">
        <ele>82.81100032</ele>
        <time>2020-06-06T13:22:26.000Z</time>
      </trkpt>
      <trkpt lat="43.69238" lon="3.91603">
        <ele>82.91100032</ele>
        <time>2020-06-06T13:22:27.000Z</time>
      </trkpt>
      <trkpt lat="43.69239" lon="3.91605">
        <ele>83.01100032</ele>
        <time>2020-06-06T13:22:28.000Z</time>
      </trkpt>
      <trkpt lat="43.69239" lon="3.91608">
        <ele>83.11100032</ele>
        <time>2020-06-06T13:22:29.000Z</time>
      </trkpt>
      <trkpt lat="43.6924" lon="3.91611">
        <ele>83.21100032</ele>
        <time>2020-06-06T13:22:30.000Z</time>
      </trkpt>
      <trkpt lat="43.6924" lon="3.91614">
        <ele>83.31100032</ele>
        <time>2020-06-06T13:22:31.000Z</time>
      </trkpt>
      <trkpt lat="43.6924" lon="3.91616">
        <ele>83.41100032</ele>
        <time>2020-06-06T13:22:32.000Z</time>
      </trkpt>
      <trkpt lat="43.69241" lon="3.91619">
        <ele>83.51100032</ele>
        <time>2020-06-06T13:22:33.000Z</time>
      </trkpt>
      <trkpt lat="43.69242" lon="3.91622">
        <ele>83.61100032</ele>
        <time>2020-06-06T13:22:34.000Z</time>
      </trkpt>
      <trkpt lat="43.69242" lon="3.91624">
        <ele>83.71100032</ele>
        <time>2020-06-06T13:22:35.000Z</time>
      </trkpt>
      <trkpt lat="43.69243" lon="3.91627">
        <ele>83.81100032</ele>
        <time>2020-06-06T13:22:36.000Z</time>
      </trkpt>
      <trkpt lat="43.69243" lon="3.9163">
        <ele>83.91100032</ele>
        <time>2020-06-06T13:22:37.000Z</time>
      </trkpt>
      <trkpt lat="43.69244" lon="3.91633">
        <ele>84.01100032</ele>
        <time>2020-06-06T13:22:38.000Z</time>
      </trkpt>
      <trkpt lat="43.69244" lon="3.91635">
        <ele>84.11100032</ele>
        <time>2020-06-06T13:22:39.000Z</time>
      </trkpt>
      <trkpt lat="43.69244" lon="3.91638">
        <ele>84.21100032</ele>
        <time>2020-06-06T13:22:40.000Z</time>
      </trkpt>
      <trkpt lat="43.69245" lon="3.9164">
        <ele>84.31100032</ele>
        <time>2020-06-06T13:22:41.000Z</time>
      </trkpt>
      <trkpt lat="43.69246" lon="3.91644">
        <ele>84.51100032</ele>
        <time>2020-06-06T13:22:43.000Z</time>
      </trkpt>
      <trkpt lat="43.69247" lon="3.91646">
        <ele>84.71100032</ele>
        <time>2020-06-06T13:22:45.000Z</time>
      </trkpt>
      <trkpt lat="43.6925" lon="3.91646">
        <ele>85.010913015873</ele>
        <time>2020-06-06T13:22:48.000Z</time>
      </trkpt>
      <trkpt lat="43.69253" lon="3.91645">
        <ele>85.209325714286</ele>
        <time>2020-06-06T13:22:50.000Z</time>
      </trkpt>
      <trkpt lat="43.69255" lon="3.91644">
        <ele>85.308532063492</ele>
        <time>2020-06-06T13:22:51.000Z</time>
      </trkpt>
      <trkpt lat="43.69257" lon="3.91642">
        <ele>85.407738412698</ele>
        <time>2020-06-06T13:22:52.000Z</time>
      </trkpt>
      <trkpt lat="43.69259" lon="3.91642">
        <ele>85.506944761905</ele>
        <time>2020-06-06T13:22:53.000Z</time>
      </trkpt>
      <trkpt lat="43.69262" lon="3.9164">
        <ele>85.705357460318</ele>
        <time>2020-06-06T13:22:55.000Z</time>
      </trkpt>
      <trkpt lat="43.69264" lon="3.91637">
        <ele>85.90377015873</ele>
        <time>2020-06-06T13:22:57.000Z</time>
      </trkpt>
      <trkpt lat="43.69266" lon="3.91634">
        <ele>86.006049032258</ele>
        <time>2020-06-06T13:22:58.000Z</time>
      </trkpt>
      <trkpt lat="43.69267" lon="3.9163">
        <ele>86.207661935484</ele>
        <time>2020-06-06T13:22:59.000Z</time>
      </trkpt>
      <trkpt lat="43.69268" lon="3.91627">
        <ele>86.40927483871</ele>
        <time>2020-06-06T13:23:00.000Z</time>
      </trkpt>
      <trkpt lat="43.6927" lon="3.91623">
        <ele>86.610887741935</ele>
        <time>2020-06-06T13:23:01.000Z</time>
      </trkpt>
      <trkpt lat="43.69271" lon="3.9162">
        <ele>86.812500645161</ele>
        <time>2020-06-06T13:23:02.000Z</time>
      </trkpt>
      <trkpt lat="43.69272" lon="3.91617">
        <ele>87.014113548387</ele>
        <time>2020-06-06T13:23:03.000Z</time>
      </trkpt>
      <trkpt lat="43.69274" lon="3.91614">
        <ele>87.215726451613</ele>
        <time>2020-06-06T13:23:04.000Z</time>
      </trkpt>
      <trkpt lat="43.69275" lon="3.91611">
        <ele>87.417339354839</ele>
        <time>2020-06-06T13:23:05.000Z</time>
      </trkpt>
      <trkpt lat="43.69276" lon="3.91608">
        <ele>87.618952258064</ele>
        <time>2020-06-06T13:23:06.000Z</time>
      </trkpt>
      <trkpt lat="43.69276" lon="3.91605">
        <ele>87.82056516129</ele>
        <time>2020-06-06T13:23:07.000Z</time>
      </trkpt>
      <trkpt lat="43.69277" lon="3.91603">
        <ele>88.01100032</ele>
        <time>2020-06-06T13:23:08.000Z</time>
      </trkpt>
      <trkpt lat="43.69278" lon="3.916">
        <ele>88.11100032</ele>
        <time>2020-06-06T13:23:09.000Z</time>
      </trkpt>
      <trkpt lat="43.69279" lon="3.91597">
        <ele>88.21100032</ele>
        <time>2020-06-06T13:23:10.000Z</time>
      </trkpt>
      <trkpt lat="43.6928" lon="3.91595">
        <ele>88.31100032</ele>
        <time>2020-06-06T13:23:11.000Z</time>
      </trkpt>
      <trkpt lat="43.6928" lon="3.91592">
        <ele>88.41100032</ele>
        <time>2020-06-06T13:23:12.000Z</time>
      </trkpt>
      <trkpt lat="43.69281" lon="3.91588">
        <ele>88.51100032</ele>
        <time>2020-06-06T13:23:13.000Z</time>
      </trkpt>
      <trkpt lat="43.69282" lon="3.91585">
        <ele>88.61100032</ele>
        <time>2020-06-06T13:23:14.000Z</time>
      </trkpt>
      <trkpt lat="43.69282" lon="3.91582">
        <ele>88.71100032</ele>
        <time>2020-06-06T13:23:15.000Z</time>
      </trkpt>
      <trkpt lat="43.69283" lon="3.91579">
        <ele>88.81100032</ele>
        <time>2020-06-06T13:23:16.000Z</time>
      </trkpt>
      <trkpt lat="43.69283" lon="3.91575">
        <ele>88.91100032</ele>
        <time>2020-06-06T13:23:17.000Z</time>
      </trkpt>
      <trkpt lat="43.69283" lon="3.91571">
        <ele>89.01100032</ele>
        <time>2020-06-06T13:23:18.000Z</time>
      </trkpt>
      <trkpt lat="43.69284" lon="3.91568">
        <ele>89.11100032</ele>
        <time>2020-06-06T13:23:19.000Z</time>
      </trkpt>
      <trkpt lat="43.69285" lon="3.91564">
        <ele>89.21100032</ele>
        <time>2020-06-06T13:23:20.000Z</time>
      </trkpt>
      <trkpt lat="43.69285" lon="3.9156">
        <ele>89.31100032</ele>
        <time>2020-06-06T13:23:21.000Z</time>
      </trkpt>
      <trkpt lat="43.69285" lon="3.91556">
        <ele>89.41100032</ele>
        <time>2020-06-06T13:23:22.000Z</time>
      </trkpt>
      <trkpt lat="43.69286" lon="3.91552">
        <ele>89.51100032</ele>
        <time>2020-06-06T13:23:23.000Z</time>
      </trkpt>
      <trkpt lat="43.69286" lon="3.91548">
        <ele>89.61100032</ele>
        <time>2020-06-06T13:23:24.000Z</time>
      </trkpt>
      <trkpt lat="43.69287" lon="3.91544">
        <ele>89.71100032</ele>
        <time>2020-06-06T13:23:25.000Z</time>
      </trkpt>
      <trkpt lat="43.69287" lon="3.9154">
        <ele>89.81100032</ele>
        <time>2020-06-06T13:23:26.000Z</time>
      </trkpt>
      <trkpt lat="43.69288" lon="3.91536">
        <ele>89.91100032</ele>
        <time>2020-06-06T13:23:27.000Z</time>
      </trkpt>
      <trkpt lat="43.69288" lon="3.91533">
        <ele>90.01100032</ele>
        <time>2020-06-06T13:23:28.000Z</time>
      </trkpt>
      <trkpt lat="43.69289" lon="3.91529">
        <ele>90.11100032</ele>
        <time>2020-06-06T13:23:29.000Z</time>
      </trkpt>
      <trkpt lat="43.69289" lon="3.91525">
        <ele>90.21100032</ele>
        <time>2020-06-06T13:23:30.000Z</time>
      </trkpt>
      <trkpt lat="43.69289" lon="3.91521">
        <ele>90.31100032</ele>
        <time>2020-06-06T13:23:31.000Z</time>
      </trkpt>
      <trkpt lat="43.69289" lon="3.91517">
        <ele>90.41100032</ele>
        <time>2020-06-06T13:23:32.000Z</time>
      </trkpt>
      <trkpt lat="43.69289" lon="3.91514">
        <ele>90.51100032</ele>
        <time>2020-06-06T13:23:33.000Z</time>
      </trkpt>
      <trkpt lat="43.69289" lon="3.9151">
        <ele>90.61100032</ele>
        <time>2020-06-06T13:23:34.000Z</time>
      </trkpt>
      <trkpt lat="43.69289" lon="3.91506">
        <ele>90.71100032</ele>
        <time>2020-06-06T13:23:35.000Z</time>
      </trkpt>
      <trkpt lat="43.69289" lon="3.91503">
        <ele>90.81100032</ele>
        <time>2020-06-06T13:23:36.000Z</time>
      </trkpt>
      <trkpt lat="43.69289" lon="3.91499">
        <ele>90.91100032</ele>
        <time>2020-06-06T13:23:37.000Z</time>
      </trkpt>
      <trkpt lat="43.69289" lon="3.91495">
        <ele>91</ele>
        <time>2020-06-06T13:23:38.000Z</time>
      </trkpt>
      <trkpt lat="43.69289" lon="3.91492">
        <ele>91</ele>
        <time>2020-06-06T13:23:39.000Z</time>
      </trkpt>
      <trkpt lat="43.69289" lon="3.91488">
        <ele>91</ele>
        <time>2020-06-06T13:23:40.000Z</time>
      </trkpt>
      <trkpt lat="43.69289" lon="3.91485">
        <ele>91</ele>
        <time>2020-06-06T13:23:41.000Z</time>
      </trkpt>
      <trkpt lat="43.69289" lon="3.91481">
        <ele>91</ele>
        <time>2020-06-06T13:23:42.000Z</time>
      </trkpt>
      <trkpt lat="43.69288" lon="3.91477">
        <ele>91</ele>
        <time>2020-06-06T13:23:43.000Z</time>
      </trkpt>
      <trkpt lat="43.69288" lon="3.91474">
        <ele>91</ele>
        <time>2020-06-06T13:23:44.000Z</time>
      </trkpt>
      <trkpt lat="43.69288" lon="3.9147">
        <ele>91</ele>
        <time>2020-06-06T13:23:45.000Z</time>
      </trkpt>
      <trkpt lat="43.69288" lon="3.91466">
        <ele>91</ele>
        <time>2020-06-06T13:23:46.000Z</time>
      </trkpt>
      <trkpt lat="43.69287" lon="3.91462">
        <ele>91</ele>
        <time>2020-06-06T13:23:47.000Z</time>
      </trkpt>
      <trkpt lat="43.69287" lon="3.91459">
        <ele>91</ele>
        <time>2020-06-06T13:23:48.000Z</time>
      </trkpt>
      <trkpt lat="43.69287" lon="3.91455">
        <ele>91</ele>
        <time>2020-06-06T13:23:49.000Z</time>
      </trkpt>
      <trkpt lat="43.69286" lon="3.91452">
        <ele>91</ele>
        <time>2020-06-06T13:23:50.000Z</time>
      </trkpt>
      <trkpt lat="43.69286" lon="3.91448">
        <ele>91</ele>
        <time>2020-06-06T13:23:51.000Z</time>
      </trkpt>
      <trkpt lat="43.69286" lon="3.91445">
        <ele>91</ele>
        <time>2020-06-06T13:23:52.000Z</time>
      </trkpt>
      <trkpt lat="43.69285" lon="3.91442">
        <ele>91</ele>
        <time>2020-06-06T13:23:53.000Z</time>
      </trkpt>
      <trkpt lat="43.69285" lon="3.91438">
        <ele>91</ele>
        <time>2020-06-06T13:23:54.000Z</time>
      </trkpt>
      <trkpt lat="43.69286" lon="3.91435">
        <ele>91</ele>
        <time>2020-06-06T13:23:55.000Z</time>
      </trkpt>
      <trkpt lat="43.69287" lon="3.91432">
        <ele>91</ele>
        <time>2020-06-06T13:23:56.000Z</time>
      </trkpt>
      <trkpt lat="43.69289" lon="3.9143">
        <ele>91</ele>
        <time>2020-06-06T13:23:57.000Z</time>
      </trkpt>
      <trkpt lat="43.69292" lon="3.9143">
        <ele>91</ele>
        <time>2020-06-06T13:23:58.000Z</time>
      </trkpt>
      <trkpt lat="43.69294" lon="3.91431">
        <ele>91</ele>
        <time>2020-06-06T13:23:59.000Z</time>
      </trkpt>
      <trkpt lat="43.69295" lon="3.91432">
        <ele>91</ele>
        <time>2020-06-06T13:24:00.000Z</time>
      </trkpt>
      <trkpt lat="43.69296" lon="3.91435">
        <ele>91</ele>
        <time>2020-06-06T13:24:01.000Z</time>
      </trkpt>
      <trkpt lat="43.69297" lon="3.91437">
        <ele>91</ele>
        <time>2020-06-06T13:24:02.000Z</time>
      </trkpt>
      <trkpt lat="43.69298" lon="3.91439">
        <ele>91</ele>
        <time>2020-06-06T13:24:03.000Z</time>
      </trkpt>
      <trkpt lat="43.69299" lon="3.91442">
        <ele>91</ele>
        <time>2020-06-06T13:24:04.000Z</time>
      </trkpt>
      <trkpt lat="43.69299" lon="3.91444">
        <ele>91</ele>
        <time>2020-06-06T13:24:05.000Z</time>
      </trkpt>
      <trkpt lat="43.693" lon="3.91447">
        <ele>91</ele>
        <time>2020-06-06T13:24:06.000Z</time>
      </trkpt>
      <trkpt lat="43.69301" lon="3.9145">
        <ele>91</ele>
        <time>2020-06-06T13:24:07.000Z</time>
      </trkpt>
      <trkpt lat="43.69301" lon="3.91453">
        <ele>91</ele>
        <time>2020-06-06T13:24:08.000Z</time>
      </trkpt>
      <trkpt lat="43.69302" lon="3.91456">
        <ele>91</ele>
        <time>2020-06-06T13:24:09.000Z</time>
      </trkpt>
      <trkpt lat="43.69303" lon="3.91459">
        <ele>91</ele>
        <time>2020-06-06T13:24:10.000Z</time>
      </trkpt>
      <trkpt lat="43.69303" lon="3.91462">
        <ele>91</ele>
        <time>2020-06-06T13:24:11.000Z</time>
      </trkpt>
      <trkpt lat="43.69304" lon="3.91466">
        <ele>91</ele>
        <time>2020-06-06T13:24:12.000Z</time>
      </trkpt>
      <trkpt lat="43.69305" lon="3.91469">
        <ele>91</ele>
        <time>2020-06-06T13:24:13.000Z</time>
      </trkpt>
      <trkpt lat="43.69305" lon="3.91472">
        <ele>91</ele>
        <time>2020-06-06T13:24:14.000Z</time>
      </trkpt>
      <trkpt lat="43.69306" lon="3.91476">
        <ele>91</ele>
        <time>2020-06-06T13:24:15.000Z</time>
      </trkpt>
      <trkpt lat="43.69307" lon="3.91479">
        <ele>91</ele>
        <time>2020-06-06T13:24:16.000Z</time>
      </trkpt>
      <trkpt lat="43.69307" lon="3.91482">
        <ele>91</ele>
        <time>2020-06-06T13:24:17.000Z</time>
      </trkpt>
      <trkpt lat="43.69308" lon="3.91486">
        <ele>91</ele>
        <time>2020-06-06T13:24:18.000Z</time>
      </trkpt>
      <trkpt lat="43.69309" lon="3.91489">
        <ele>91</ele>
        <time>2020-06-06T13:24:19.000Z</time>
      </trkpt>
      <trkpt lat="43.6931" lon="3.91492">
        <ele>91</ele>
        <time>2020-06-06T13:24:20.000Z</time>
      </trkpt>
      <trkpt lat="43.6931" lon="3.91496">
        <ele>91</ele>
        <time>2020-06-06T13:24:21.000Z</time>
      </trkpt>
      <trkpt lat="43.69311" lon="3.91499">
        <ele>91</ele>
        <time>2020-06-06T13:24:22.000Z</time>
      </trkpt>
      <trkpt lat="43.69312" lon="3.91503">
        <ele>91</ele>
        <time>2020-06-06T13:24:23.000Z</time>
      </trkpt>
      <trkpt lat="43.69312" lon="3.91506">
        <ele>91</ele>
        <time>2020-06-06T13:24:24.000Z</time>
      </trkpt>
      <trkpt lat="43.69313" lon="3.91509">
        <ele>91</ele>
        <time>2020-06-06T13:24:25.000Z</time>
      </trkpt>
      <trkpt lat="43.69313" lon="3.91512">
        <ele>91</ele>
        <time>2020-06-06T13:24:26.000Z</time>
      </trkpt>
      <trkpt lat="43.69314" lon="3.91515">
        <ele>91</ele>
        <time>2020-06-06T13:24:27.000Z</time>
      </trkpt>
      <trkpt lat="43.69315" lon="3.91519">
        <ele>91.01100032</ele>
        <time>2020-06-06T13:24:28.000Z</time>
      </trkpt>
      <trkpt lat="43.69315" lon="3.91522">
        <ele>91.11100032</ele>
        <time>2020-06-06T13:24:29.000Z</time>
      </trkpt>
      <trkpt lat="43.69316" lon="3.91525">
        <ele>91.21100032</ele>
        <time>2020-06-06T13:24:30.000Z</time>
      </trkpt>
      <trkpt lat="43.69316" lon="3.91528">
        <ele>91.31100032</ele>
        <time>2020-06-06T13:24:31.000Z</time>
      </trkpt>
      <trkpt lat="43.69317" lon="3.91532">
        <ele>91.41100032</ele>
        <time>2020-06-06T13:24:32.000Z</time>
      </trkpt>
      <trkpt lat="43.69318" lon="3.91535">
        <ele>91.51100032</ele>
        <time>2020-06-06T13:24:33.000Z</time>
      </trkpt>
      <trkpt lat="43.69318" lon="3.91538">
        <ele>91.61100032</ele>
        <time>2020-06-06T13:24:34.000Z</time>
      </trkpt>
      <trkpt lat="43.69319" lon="3.91541">
        <ele>91.71100032</ele>
        <time>2020-06-06T13:24:35.000Z</time>
      </trkpt>
      <trkpt lat="43.69319" lon="3.91545">
        <ele>91.81100032</ele>
        <time>2020-06-06T13:24:36.000Z</time>
      </trkpt>
      <trkpt lat="43.69319" lon="3.91548">
        <ele>91.91100032</ele>
        <time>2020-06-06T13:24:37.000Z</time>
      </trkpt>
      <trkpt lat="43.69319" lon="3.91551">
        <ele>92.01100032</ele>
        <time>2020-06-06T13:24:38.000Z</time>
      </trkpt>
      <trkpt lat="43.6932" lon="3.91555">
        <ele>92.11100032</ele>
        <time>2020-06-06T13:24:39.000Z</time>
      </trkpt>
      <trkpt lat="43.6932" lon="3.91558">
        <ele>92.21100032</ele>
        <time>2020-06-06T13:24:40.000Z</time>
      </trkpt>
      <trkpt lat="43.69321" lon="3.91561">
        <ele>92.31100032</ele>
        <time>2020-06-06T13:24:41.000Z</time>
      </trkpt>
      <trkpt lat="43.69321" lon="3.91565">
        <ele>92.41100032</ele>
        <time>2020-06-06T13:24:42.000Z</time>
      </trkpt>
      <trkpt lat="43.69321" lon="3.91569">
        <ele>92.51100032</ele>
        <time>2020-06-06T13:24:43.000Z</time>
      </trkpt>
      <trkpt lat="43.69322" lon="3.91571">
        <ele>92.61100032</ele>
        <time>2020-06-06T13:24:44.000Z</time>
      </trkpt>
      <trkpt lat="43.69322" lon="3.91574">
        <ele>92.71100032</ele>
        <time>2020-06-06T13:24:45.000Z</time>
      </trkpt>
      <trkpt lat="43.69322" lon="3.91577">
        <ele>92.81100032</ele>
        <time>2020-06-06T13:24:46.000Z</time>
      </trkpt>
      <trkpt lat="43.69322" lon="3.9158">
        <ele>92.91100032</ele>
        <time>2020-06-06T13:24:47.000Z</time>
      </trkpt>
      <trkpt lat="43.69323" lon="3.91583">
        <ele>93.02200064</ele>
        <time>2020-06-06T13:24:48.000Z</time>
      </trkpt>
      <trkpt lat="43.69323" lon="3.91586">
        <ele>93.22200064</ele>
        <time>2020-06-06T13:24:49.000Z</time>
      </trkpt>
      <trkpt lat="43.69323" lon="3.91589">
        <ele>93.42200064</ele>
        <time>2020-06-06T13:24:50.000Z</time>
      </trkpt>
      <trkpt lat="43.69323" lon="3.91592">
        <ele>93.62200064</ele>
        <time>2020-06-06T13:24:51.000Z</time>
      </trkpt>
      <trkpt lat="43.69324" lon="3.91594">
        <ele>93.82200064</ele>
        <time>2020-06-06T13:24:52.000Z</time>
      </trkpt>
      <trkpt lat="43.69324" lon="3.91597">
        <ele>94.02200064</ele>
        <time>2020-06-06T13:24:53.000Z</time>
      </trkpt>
      <trkpt lat="43.69324" lon="3.916">
        <ele>94.22200064</ele>
        <time>2020-06-06T13:24:54.000Z</time>
      </trkpt>
      <trkpt lat="43.69324" lon="3.91603">
        <ele>94.42200064</ele>
        <time>2020-06-06T13:24:55.000Z</time>
      </trkpt>
      <trkpt lat="43.69324" lon="3.91606">
        <ele>94.62200064</ele>
        <time>2020-06-06T13:24:56.000Z</time>
      </trkpt>
      <trkpt lat="43.69325" lon="3.91608">
        <ele>94.82200064</ele>
        <time>2020-06-06T13:24:57.000Z</time>
      </trkpt>
      <trkpt lat="43.69325" lon="3.91611">
        <ele>95.02200064</ele>
        <time>2020-06-06T13:24:58.000Z</time>
      </trkpt>
      <trkpt lat="43.69325" lon="3.91614">
        <ele>95.22200064</ele>
        <time>2020-06-06T13:24:59.000Z</time>
      </trkpt>
      <trkpt lat="43.69325" lon="3.91617">
        <ele>95.42200064</ele>
        <time>2020-06-06T13:25:00.000Z</time>
      </trkpt>
      <trkpt lat="43.69326" lon="3.9162">
        <ele>95.62200064</ele>
        <time>2020-06-06T13:25:01.000Z</time>
      </trkpt>
      <trkpt lat="43.69326" lon="3.91623">
        <ele>95.82200064</ele>
        <time>2020-06-06T13:25:02.000Z</time>
      </trkpt>
      <trkpt lat="43.69326" lon="3.91625">
        <ele>96.02200064</ele>
        <time>2020-06-06T13:25:03.000Z</time>
      </trkpt>
      <trkpt lat="43.69326" lon="3.91628">
        <ele>96.22200064</ele>
        <time>2020-06-06T13:25:04.000Z</time>
      </trkpt>
      <trkpt lat="43.69326" lon="3.91632">
        <ele>96.42200064</ele>
        <time>2020-06-06T13:25:05.000Z</time>
      </trkpt>
      <trkpt lat="43.69326" lon="3.91634">
        <ele>96.62200064</ele>
        <time>2020-06-06T13:25:06.000Z</time>
      </trkpt>
      <trkpt lat="43.69326" lon="3.91637">
        <ele>96.82200064</ele>
        <time>2020-06-06T13:25:07.000Z</time>
      </trkpt>
      <trkpt lat="43.69326" lon="3.9164">
        <ele>97.02200064</ele>
        <time>2020-06-06T13:25:08.000Z</time>
      </trkpt>
      <trkpt lat="43.69326" lon="3.91642">
        <ele>97.22200064</ele>
        <time>2020-06-06T13:25:09.000Z</time>
      </trkpt>
      <trkpt lat="43.69327" lon="3.91645">
        <ele>97.42200064</ele>
        <time>2020-06-06T13:25:10.000Z</time>
      </trkpt>
      <trkpt lat="43.69327" lon="3.91648">
        <ele>97.62200064</ele>
        <time>2020-06-06T13:25:11.000Z</time>
      </trkpt>
      <trkpt lat="43.69327" lon="3.9165">
        <ele>97.82200064</ele>
        <time>2020-06-06T13:25:12.000Z</time>
      </trkpt>
      <trkpt lat="43.69326" lon="3.91653">
        <ele>98.02200064</ele>
        <time>2020-06-06T13:25:13.000Z</time>
      </trkpt>
      <trkpt lat="43.69326" lon="3.91656">
        <ele>98.22200064</ele>
        <time>2020-06-06T13:25:14.000Z</time>
      </trkpt>
      <trkpt lat="43.69326" lon="3.91658">
        <ele>98.42200064</ele>
        <time>2020-06-06T13:25:15.000Z</time>
      </trkpt>
      <trkpt lat="43.69326" lon="3.91661">
        <ele>98.62200064</ele>
        <time>2020-06-06T13:25:16.000Z</time>
      </trkpt>
      <trkpt lat="43.69326" lon="3.91663">
        <ele>98.82200064</ele>
        <time>2020-06-06T13:25:17.000Z</time>
      </trkpt>
      <trkpt lat="43.69326" lon="3.91666">
        <ele>99.02200064</ele>
        <time>2020-06-06T13:25:18.000Z</time>
      </trkpt>
      <trkpt lat="43.69326" lon="3.91669">
        <ele>99.22200064</ele>
        <time>2020-06-06T13:25:19.000Z</time>
      </trkpt>
      <trkpt lat="43.69326" lon="3.91671">
        <ele>99.42200064</ele>
        <time>2020-06-06T13:25:20.000Z</time>
      </trkpt>
      <trkpt lat="43.69326" lon="3.91674">
        <ele>99.62200064</ele>
        <time>2020-06-06T13:25:21.000Z</time>
      </trkpt>
      <trkpt lat="43.69326" lon="3.91677">
        <ele>99.82200064</ele>
        <time>2020-06-06T13:25:22.000Z</time>
      </trkpt>
      <trkpt lat="43.69325" lon="3.9168">
        <ele>100.02200064</ele>
        <time>2020-06-06T13:25:23.000Z</time>
      </trkpt>
      <trkpt lat="43.69325" lon="3.91683">
        <ele>100.22200064</ele>
        <time>2020-06-06T13:25:24.000Z</time>
      </trkpt>
      <trkpt lat="43.69325" lon="3.91686">
        <ele>100.42200064</ele>
        <time>2020-06-06T13:25:25.000Z</time>
      </trkpt>
      <trkpt lat="43.69324" lon="3.91689">
        <ele>100.62200064</ele>
        <time>2020-06-06T13:25:26.000Z</time>
      </trkpt>
      <trkpt lat="43.69324" lon="3.91692">
        <ele>100.82200064</ele>
        <time>2020-06-06T13:25:27.000Z</time>
      </trkpt>
      <trkpt lat="43.69324" lon="3.91695">
        <ele>101.01100032</ele>
        <time>2020-06-06T13:25:28.000Z</time>
      </trkpt>
      <trkpt lat="43.69324" lon="3.91698">
        <ele>101.11100032</ele>
        <time>2020-06-06T13:25:29.000Z</time>
      </trkpt>
      <trkpt lat="43.69324" lon="3.91701">
        <ele>101.21100032</ele>
        <time>2020-06-06T13:25:30.000Z</time>
      </trkpt>
      <trkpt lat="43.69324" lon="3.91704">
        <ele>101.31100032</ele>
        <time>2020-06-06T13:25:31.000Z</time>
      </trkpt>
      <trkpt lat="43.69324" lon="3.91707">
        <ele>101.41100032</ele>
        <time>2020-06-06T13:25:32.000Z</time>
      </trkpt>
      <trkpt lat="43.69324" lon="3.9171">
        <ele>101.51100032</ele>
        <time>2020-06-06T13:25:33.000Z</time>
      </trkpt>
      <trkpt lat="43.69324" lon="3.91713">
        <ele>101.61100032</ele>
        <time>2020-06-06T13:25:34.000Z</time>
      </trkpt>
      <trkpt lat="43.69324" lon="3.91716">
        <ele>101.71100032</ele>
        <time>2020-06-06T13:25:35.000Z</time>
      </trkpt>
      <trkpt lat="43.69324" lon="3.91719">
        <ele>101.81100032</ele>
        <time>2020-06-06T13:25:36.000Z</time>
      </trkpt>
      <trkpt lat="43.69324" lon="3.91721">
        <ele>101.91100032</ele>
        <time>2020-06-06T13:25:37.000Z</time>
      </trkpt>
      <trkpt lat="43.69324" lon="3.91724">
        <ele>102.01096741425</ele>
        <time>2020-06-06T13:25:38.000Z</time>
      </trkpt>
      <trkpt lat="43.69324" lon="3.91727">
        <ele>102.11066827975</ele>
        <time>2020-06-06T13:25:39.000Z</time>
      </trkpt>
      <trkpt lat="43.69325" lon="3.9173">
        <ele>102.21036914525</ele>
        <time>2020-06-06T13:25:40.000Z</time>
      </trkpt>
      <trkpt lat="43.69325" lon="3.91733">
        <ele>102.31007001074</ele>
        <time>2020-06-06T13:25:41.000Z</time>
      </trkpt>
      <trkpt lat="43.69325" lon="3.91736">
        <ele>102.40977087625</ele>
        <time>2020-06-06T13:25:42.000Z</time>
      </trkpt>
      <trkpt lat="43.69326" lon="3.91739">
        <ele>102.50947174174</ele>
        <time>2020-06-06T13:25:43.000Z</time>
      </trkpt>
      <trkpt lat="43.69326" lon="3.91742">
        <ele>102.60917260724</ele>
        <time>2020-06-06T13:25:44.000Z</time>
      </trkpt>
      <trkpt lat="43.69327" lon="3.91745">
        <ele>102.70887347274</ele>
        <time>2020-06-06T13:25:45.000Z</time>
      </trkpt>
      <trkpt lat="43.69327" lon="3.91747">
        <ele>102.80857433824</ele>
        <time>2020-06-06T13:25:46.000Z</time>
      </trkpt>
      <trkpt lat="43.69328" lon="3.9175">
        <ele>102.90827520374</ele>
        <time>2020-06-06T13:25:47.000Z</time>
      </trkpt>
      <trkpt lat="43.69328" lon="3.91753">
        <ele>103.01604814958</ele>
        <time>2020-06-06T13:25:48.000Z</time>
      </trkpt>
      <trkpt lat="43.69329" lon="3.91756">
        <ele>103.21665001939</ele>
        <time>2020-06-06T13:25:49.000Z</time>
      </trkpt>
      <trkpt lat="43.6933" lon="3.91759">
        <ele>103.41725188919</ele>
        <time>2020-06-06T13:25:50.000Z</time>
      </trkpt>
      <trkpt lat="43.69331" lon="3.91762">
        <ele>103.61785375899</ele>
        <time>2020-06-06T13:25:51.000Z</time>
      </trkpt>
      <trkpt lat="43.69331" lon="3.91765">
        <ele>103.81845562879</ele>
        <time>2020-06-06T13:25:52.000Z</time>
      </trkpt>
      <trkpt lat="43.69332" lon="3.91768">
        <ele>104.01905749859</ele>
        <time>2020-06-06T13:25:53.000Z</time>
      </trkpt>
      <trkpt lat="43.69333" lon="3.91771">
        <ele>104.2196593684</ele>
        <time>2020-06-06T13:25:54.000Z</time>
      </trkpt>
      <trkpt lat="43.69333" lon="3.91774">
        <ele>104.4202612382</ele>
        <time>2020-06-06T13:25:55.000Z</time>
      </trkpt>
      <trkpt lat="43.69334" lon="3.91777">
        <ele>104.620863108</ele>
        <time>2020-06-06T13:25:56.000Z</time>
      </trkpt>
      <trkpt lat="43.69335" lon="3.9178">
        <ele>104.8214649778</ele>
        <time>2020-06-06T13:25:57.000Z</time>
      </trkpt>
      <trkpt lat="43.69336" lon="3.91783">
        <ele>105.01100032</ele>
        <time>2020-06-06T13:25:58.000Z</time>
      </trkpt>
      <trkpt lat="43.69336" lon="3.91787">
        <ele>105.11100032</ele>
        <time>2020-06-06T13:25:59.000Z</time>
      </trkpt>
      <trkpt lat="43.69337" lon="3.9179">
        <ele>105.21100032</ele>
        <time>2020-06-06T13:26:00.000Z</time>
      </trkpt>
      <trkpt lat="43.69338" lon="3.91793">
        <ele>105.31100032</ele>
        <time>2020-06-06T13:26:01.000Z</time>
      </trkpt>
      <trkpt lat="43.69339" lon="3.91796">
        <ele>105.41100032</ele>
        <time>2020-06-06T13:26:02.000Z</time>
      </trkpt>
      <trkpt lat="43.69339" lon="3.91799">
        <ele>105.51100032</ele>
        <time>2020-06-06T13:26:03.000Z</time>
      </trkpt>
      <trkpt lat="43.6934" lon="3.91802">
        <ele>105.61100032</ele>
        <time>2020-06-06T13:26:04.000Z</time>
      </trkpt>
      <trkpt lat="43.6934" lon="3.91805">
        <ele>105.71100032</ele>
        <time>2020-06-06T13:26:05.000Z</time>
      </trkpt>
      <trkpt lat="43.69341" lon="3.91808">
        <ele>105.81100032</ele>
        <time>2020-06-06T13:26:06.000Z</time>
      </trkpt>
      <trkpt lat="43.69342" lon="3.91811">
        <ele>105.91100032</ele>
        <time>2020-06-06T13:26:07.000Z</time>
      </trkpt>
      <trkpt lat="43.69342" lon="3.91814">
        <ele>106</ele>
        <time>2020-06-06T13:26:08.000Z</time>
      </trkpt>
      <trkpt lat="43.69343" lon="3.91818">
        <ele>106</ele>
        <time>2020-06-06T13:26:09.000Z</time>
      </trkpt>
      <trkpt lat="43.69343" lon="3.91822">
        <ele>106</ele>
        <time>2020-06-06T13:26:10.000Z</time>
      </trkpt>
      <trkpt lat="43.69344" lon="3.91825">
        <ele>106</ele>
        <time>2020-06-06T13:26:11.000Z</time>
      </trkpt>
      <trkpt lat="43.69344" lon="3.91829">
        <ele>106</ele>
        <time>2020-06-06T13:26:12.000Z</time>
      </trkpt>
      <trkpt lat="43.69344" lon="3.91832">
        <ele>106</ele>
        <time>2020-06-06T13:26:13.000Z</time>
      </trkpt>
      <trkpt lat="43.69345" lon="3.91836">
        <ele>106</ele>
        <time>2020-06-06T13:26:14.000Z</time>
      </trkpt>
      <trkpt lat="43.69345" lon="3.91839">
        <ele>106</ele>
        <time>2020-06-06T13:26:15.000Z</time>
      </trkpt>
      <trkpt lat="43.69345" lon="3.91843">
        <ele>106</ele>
        <time>2020-06-06T13:26:16.000Z</time>
      </trkpt>
      <trkpt lat="43.69345" lon="3.91846">
        <ele>106</ele>
        <time>2020-06-06T13:26:17.000Z</time>
      </trkpt>
      <trkpt lat="43.69345" lon="3.91849">
        <ele>106</ele>
        <time>2020-06-06T13:26:18.000Z</time>
      </trkpt>
      <trkpt lat="43.69345" lon="3.91853">
        <ele>106</ele>
        <time>2020-06-06T13:26:19.000Z</time>
      </trkpt>
      <trkpt lat="43.69345" lon="3.91858">
        <ele>106</ele>
        <time>2020-06-06T13:26:20.000Z</time>
      </trkpt>
      <trkpt lat="43.69345" lon="3.91862">
        <ele>106</ele>
        <time>2020-06-06T13:26:21.000Z</time>
      </trkpt>
      <trkpt lat="43.69345" lon="3.91865">
        <ele>106</ele>
        <time>2020-06-06T13:26:22.000Z</time>
      </trkpt>
      <trkpt lat="43.69344" lon="3.91869">
        <ele>106</ele>
        <time>2020-06-06T13:26:23.000Z</time>
      </trkpt>
      <trkpt lat="43.69344" lon="3.91873">
        <ele>106</ele>
        <time>2020-06-06T13:26:24.000Z</time>
      </trkpt>
      <trkpt lat="43.69344" lon="3.91877">
        <ele>106</ele>
        <time>2020-06-06T13:26:25.000Z</time>
      </trkpt>
      <trkpt lat="43.69344" lon="3.91881">
        <ele>106</ele>
        <time>2020-06-06T13:26:26.000Z</time>
      </trkpt>
      <trkpt lat="43.69343" lon="3.91885">
        <ele>106</ele>
        <time>2020-06-06T13:26:27.000Z</time>
      </trkpt>
      <trkpt lat="43.69343" lon="3.91889">
        <ele>105.98899968</ele>
        <time>2020-06-06T13:26:28.000Z</time>
      </trkpt>
      <trkpt lat="43.69343" lon="3.91894">
        <ele>105.88899968</ele>
        <time>2020-06-06T13:26:29.000Z</time>
      </trkpt>
      <trkpt lat="43.69342" lon="3.91898">
        <ele>105.78899968</ele>
        <time>2020-06-06T13:26:30.000Z</time>
      </trkpt>
      <trkpt lat="43.69341" lon="3.91903">
        <ele>105.68899968</ele>
        <time>2020-06-06T13:26:31.000Z</time>
      </trkpt>
      <trkpt lat="43.6934" lon="3.91908">
        <ele>105.58899968</ele>
        <time>2020-06-06T13:26:32.000Z</time>
      </trkpt>
      <trkpt lat="43.69338" lon="3.91914">
        <ele>105.48899968</ele>
        <time>2020-06-06T13:26:33.000Z</time>
      </trkpt>
      <trkpt lat="43.69336" lon="3.91919">
        <ele>105.38899968</ele>
        <time>2020-06-06T13:26:34.000Z</time>
      </trkpt>
      <trkpt lat="43.69333" lon="3.91925">
        <ele>105.28899968</ele>
        <time>2020-06-06T13:26:35.000Z</time>
      </trkpt>
      <trkpt lat="43.69329" lon="3.91931">
        <ele>105.18899968</ele>
        <time>2020-06-06T13:26:36.000Z</time>
      </trkpt>
      <trkpt lat="43.69326" lon="3.91937">
        <ele>105.08899968</ele>
        <time>2020-06-06T13:26:37.000Z</time>
      </trkpt>
      <trkpt lat="43.69323" lon="3.91944">
        <ele>104.98899968</ele>
        <time>2020-06-06T13:26:38.000Z</time>
      </trkpt>
      <trkpt lat="43.69321" lon="3.91951">
        <ele>104.88899968</ele>
        <time>2020-06-06T13:26:39.000Z</time>
      </trkpt>
      <trkpt lat="43.6932" lon="3.91959">
        <ele>104.78899968</ele>
        <time>2020-06-06T13:26:40.000Z</time>
      </trkpt>
      <trkpt lat="43.6932" lon="3.91966">
        <ele>104.68899968</ele>
        <time>2020-06-06T13:26:41.000Z</time>
      </trkpt>
      <trkpt lat="43.69321" lon="3.91973">
        <ele>104.58899968</ele>
        <time>2020-06-06T13:26:42.000Z</time>
      </trkpt>
      <trkpt lat="43.69323" lon="3.91979">
        <ele>104.48899968</ele>
        <time>2020-06-06T13:26:43.000Z</time>
      </trkpt>
      <trkpt lat="43.69325" lon="3.91984">
        <ele>104.38899968</ele>
        <time>2020-06-06T13:26:44.000Z</time>
      </trkpt>
      <trkpt lat="43.69327" lon="3.91989">
        <ele>104.28899968</ele>
        <time>2020-06-06T13:26:45.000Z</time>
      </trkpt>
      <trkpt lat="43.6933" lon="3.91993">
        <ele>104.18899968</ele>
        <time>2020-06-06T13:26:46.000Z</time>
      </trkpt>
      <trkpt lat="43.69332" lon="3.91997">
        <ele>104.08899968</ele>
        <time>2020-06-06T13:26:47.000Z</time>
      </trkpt>
      <trkpt lat="43.69335" lon="3.92002">
        <ele>103.98907615044</ele>
        <time>2020-06-06T13:26:48.000Z</time>
      </trkpt>
      <trkpt lat="43.69338" lon="3.92006">
        <ele>103.88977131606</ele>
        <time>2020-06-06T13:26:49.000Z</time>
      </trkpt>
      <trkpt lat="43.6934" lon="3.92011">
        <ele>103.79046648168</ele>
        <time>2020-06-06T13:26:50.000Z</time>
      </trkpt>
      <trkpt lat="43.69343" lon="3.92016">
        <ele>103.6911616473</ele>
        <time>2020-06-06T13:26:51.000Z</time>
      </trkpt>
      <trkpt lat="43.69346" lon="3.92021">
        <ele>103.59185681291</ele>
        <time>2020-06-06T13:26:52.000Z</time>
      </trkpt>
      <trkpt lat="43.69349" lon="3.92026">
        <ele>103.49255197853</ele>
        <time>2020-06-06T13:26:53.000Z</time>
      </trkpt>
      <trkpt lat="43.69352" lon="3.92032">
        <ele>103.39324714415</ele>
        <time>2020-06-06T13:26:54.000Z</time>
      </trkpt>
      <trkpt lat="43.69355" lon="3.92037">
        <ele>103.29394230977</ele>
        <time>2020-06-06T13:26:55.000Z</time>
      </trkpt>
      <trkpt lat="43.69358" lon="3.92042">
        <ele>103.19463747539</ele>
        <time>2020-06-06T13:26:56.000Z</time>
      </trkpt>
      <trkpt lat="43.69361" lon="3.92048">
        <ele>103.09533264101</ele>
        <time>2020-06-06T13:26:57.000Z</time>
      </trkpt>
      <trkpt lat="43.69365" lon="3.92053">
        <ele>102.99597180132</ele>
        <time>2020-06-06T13:26:58.000Z</time>
      </trkpt>
      <trkpt lat="43.69368" lon="3.92059">
        <ele>102.89526683433</ele>
        <time>2020-06-06T13:26:59.000Z</time>
      </trkpt>
      <trkpt lat="43.69371" lon="3.92065">
        <ele>102.79456186733</ele>
        <time>2020-06-06T13:27:00.000Z</time>
      </trkpt>
      <trkpt lat="43.69374" lon="3.9207">
        <ele>102.69385690034</ele>
        <time>2020-06-06T13:27:01.000Z</time>
      </trkpt>
      <trkpt lat="43.69378" lon="3.92076">
        <ele>102.59315193334</ele>
        <time>2020-06-06T13:27:02.000Z</time>
      </trkpt>
      <trkpt lat="43.69381" lon="3.92082">
        <ele>102.49244696635</ele>
        <time>2020-06-06T13:27:03.000Z</time>
      </trkpt>
      <trkpt lat="43.69385" lon="3.92089">
        <ele>102.39174199935</ele>
        <time>2020-06-06T13:27:04.000Z</time>
      </trkpt>
      <trkpt lat="43.69388" lon="3.92095">
        <ele>102.29103703236</ele>
        <time>2020-06-06T13:27:05.000Z</time>
      </trkpt>
      <trkpt lat="43.69391" lon="3.921">
        <ele>102.19033206536</ele>
        <time>2020-06-06T13:27:06.000Z</time>
      </trkpt>
      <trkpt lat="43.69394" lon="3.92105">
        <ele>102.08962709837</ele>
        <time>2020-06-06T13:27:07.000Z</time>
      </trkpt>
      <trkpt lat="43.69397" lon="3.9211">
        <ele>102.01070070039</ele>
        <time>2020-06-06T13:27:08.000Z</time>
      </trkpt>
      <trkpt lat="43.694" lon="3.92116">
        <ele>102.10797696498</ele>
        <time>2020-06-06T13:27:09.000Z</time>
      </trkpt>
      <trkpt lat="43.69402" lon="3.9212">
        <ele>102.20525322957</ele>
        <time>2020-06-06T13:27:10.000Z</time>
      </trkpt>
      <trkpt lat="43.69404" lon="3.92124">
        <ele>102.30252949416</ele>
        <time>2020-06-06T13:27:11.000Z</time>
      </trkpt>
      <trkpt lat="43.69407" lon="3.92128">
        <ele>102.39980575875</ele>
        <time>2020-06-06T13:27:12.000Z</time>
      </trkpt>
      <trkpt lat="43.69409" lon="3.92131">
        <ele>102.49708202335</ele>
        <time>2020-06-06T13:27:13.000Z</time>
      </trkpt>
      <trkpt lat="43.69412" lon="3.92135">
        <ele>102.59435828794</ele>
        <time>2020-06-06T13:27:14.000Z</time>
      </trkpt>
      <trkpt lat="43.69414" lon="3.92139">
        <ele>102.69163455253</ele>
        <time>2020-06-06T13:27:15.000Z</time>
      </trkpt>
      <trkpt lat="43.69416" lon="3.92144">
        <ele>102.78891081712</ele>
        <time>2020-06-06T13:27:16.000Z</time>
      </trkpt>
      <trkpt lat="43.69418" lon="3.92148">
        <ele>102.88618708171</ele>
        <time>2020-06-06T13:27:17.000Z</time>
      </trkpt>
      <trkpt lat="43.6942" lon="3.92152">
        <ele>102.9834633463</ele>
        <time>2020-06-06T13:27:18.000Z</time>
      </trkpt>
      <trkpt lat="43.69422" lon="3.92156">
        <ele>103.08539127572</ele>
        <time>2020-06-06T13:27:19.000Z</time>
      </trkpt>
      <trkpt lat="43.69424" lon="3.92159">
        <ele>103.18827193416</ele>
        <time>2020-06-06T13:27:20.000Z</time>
      </trkpt>
      <trkpt lat="43.69427" lon="3.92163">
        <ele>103.29115259259</ele>
        <time>2020-06-06T13:27:21.000Z</time>
      </trkpt>
      <trkpt lat="43.69429" lon="3.92167">
        <ele>103.39403325103</ele>
        <time>2020-06-06T13:27:22.000Z</time>
      </trkpt>
      <trkpt lat="43.69431" lon="3.92171">
        <ele>103.49691390946</ele>
        <time>2020-06-06T13:27:23.000Z</time>
      </trkpt>
      <trkpt lat="43.69434" lon="3.92175">
        <ele>103.5997945679</ele>
        <time>2020-06-06T13:27:24.000Z</time>
      </trkpt>
      <trkpt lat="43.69436" lon="3.92179">
        <ele>103.70267522634</ele>
        <time>2020-06-06T13:27:25.000Z</time>
      </trkpt>
      <trkpt lat="43.69439" lon="3.92182">
        <ele>103.80555588477</ele>
        <time>2020-06-06T13:27:26.000Z</time>
      </trkpt>
      <trkpt lat="43.69441" lon="3.92186">
        <ele>103.90843654321</ele>
        <time>2020-06-06T13:27:27.000Z</time>
      </trkpt>
      <trkpt lat="43.69443" lon="3.92189">
        <ele>104.01098932013</ele>
        <time>2020-06-06T13:27:28.000Z</time>
      </trkpt>
      <trkpt lat="43.69445" lon="3.92192">
        <ele>104.11088932422</ele>
        <time>2020-06-06T13:27:29.000Z</time>
      </trkpt>
      <trkpt lat="43.69447" lon="3.92196">
        <ele>104.21078932831</ele>
        <time>2020-06-06T13:27:30.000Z</time>
      </trkpt>
      <trkpt lat="43.6945" lon="3.92199">
        <ele>104.31068933241</ele>
        <time>2020-06-06T13:27:31.000Z</time>
      </trkpt>
      <trkpt lat="43.69452" lon="3.92202">
        <ele>104.4105893365</ele>
        <time>2020-06-06T13:27:32.000Z</time>
      </trkpt>
      <trkpt lat="43.69454" lon="3.92205">
        <ele>104.51048934059</ele>
        <time>2020-06-06T13:27:33.000Z</time>
      </trkpt>
      <trkpt lat="43.69457" lon="3.92208">
        <ele>104.61038934468</ele>
        <time>2020-06-06T13:27:34.000Z</time>
      </trkpt>
      <trkpt lat="43.69459" lon="3.92212">
        <ele>104.71028934877</ele>
        <time>2020-06-06T13:27:35.000Z</time>
      </trkpt>
      <trkpt lat="43.69462" lon="3.92215">
        <ele>104.81018935286</ele>
        <time>2020-06-06T13:27:36.000Z</time>
      </trkpt>
      <trkpt lat="43.69465" lon="3.92218">
        <ele>104.91008935696</ele>
        <time>2020-06-06T13:27:37.000Z</time>
      </trkpt>
      <trkpt lat="43.69467" lon="3.92222">
        <ele>105.01000937899</ele>
        <time>2020-06-06T13:27:38.000Z</time>
      </trkpt>
      <trkpt lat="43.6947" lon="3.92225">
        <ele>105.11010957528</ele>
        <time>2020-06-06T13:27:39.000Z</time>
      </trkpt>
      <trkpt lat="43.69472" lon="3.92228">
        <ele>105.21020977157</ele>
        <time>2020-06-06T13:27:40.000Z</time>
      </trkpt>
      <trkpt lat="43.69475" lon="3.92231">
        <ele>105.31030996786</ele>
        <time>2020-06-06T13:27:41.000Z</time>
      </trkpt>
      <trkpt lat="43.69478" lon="3.92234">
        <ele>105.41041016416</ele>
        <time>2020-06-06T13:27:42.000Z</time>
      </trkpt>
      <trkpt lat="43.6948" lon="3.92236">
        <ele>105.51051036045</ele>
        <time>2020-06-06T13:27:43.000Z</time>
      </trkpt>
      <trkpt lat="43.69483" lon="3.92239">
        <ele>105.61061055674</ele>
        <time>2020-06-06T13:27:44.000Z</time>
      </trkpt>
      <trkpt lat="43.69486" lon="3.92242">
        <ele>105.71071075304</ele>
        <time>2020-06-06T13:27:45.000Z</time>
      </trkpt>
      <trkpt lat="43.69488" lon="3.92245">
        <ele>105.81081094933</ele>
        <time>2020-06-06T13:27:46.000Z</time>
      </trkpt>
      <trkpt lat="43.69491" lon="3.92248">
        <ele>105.91091114562</ele>
        <time>2020-06-06T13:27:47.000Z</time>
      </trkpt>
      <trkpt lat="43.69493" lon="3.9225">
        <ele>106.02184769911</ele>
        <time>2020-06-06T13:27:48.000Z</time>
      </trkpt>
      <trkpt lat="43.69496" lon="3.92253">
        <ele>106.22045736788</ele>
        <time>2020-06-06T13:27:49.000Z</time>
      </trkpt>
      <trkpt lat="43.69499" lon="3.92256">
        <ele>106.41906703664</ele>
        <time>2020-06-06T13:27:50.000Z</time>
      </trkpt>
      <trkpt lat="43.69501" lon="3.92259">
        <ele>106.61767670541</ele>
        <time>2020-06-06T13:27:51.000Z</time>
      </trkpt>
      <trkpt lat="43.69504" lon="3.92262">
        <ele>106.81628637417</ele>
        <time>2020-06-06T13:27:52.000Z</time>
      </trkpt>
      <trkpt lat="43.69507" lon="3.92264">
        <ele>107.01489604293</ele>
        <time>2020-06-06T13:27:53.000Z</time>
      </trkpt>
      <trkpt lat="43.6951" lon="3.92267">
        <ele>107.2135057117</ele>
        <time>2020-06-06T13:27:54.000Z</time>
      </trkpt>
      <trkpt lat="43.69512" lon="3.9227">
        <ele>107.41211538046</ele>
        <time>2020-06-06T13:27:55.000Z</time>
      </trkpt>
      <trkpt lat="43.69515" lon="3.92273">
        <ele>107.61072504922</ele>
        <time>2020-06-06T13:27:56.000Z</time>
      </trkpt>
      <trkpt lat="43.69518" lon="3.92276">
        <ele>107.80933471799</ele>
        <time>2020-06-06T13:27:57.000Z</time>
      </trkpt>
      <trkpt lat="43.69521" lon="3.92279">
        <ele>108</ele>
        <time>2020-06-06T13:27:58.000Z</time>
      </trkpt>
      <trkpt lat="43.69524" lon="3.92282">
        <ele>108</ele>
        <time>2020-06-06T13:27:59.000Z</time>
      </trkpt>
      <trkpt lat="43.69527" lon="3.92285">
        <ele>108</ele>
        <time>2020-06-06T13:28:00.000Z</time>
      </trkpt>
      <trkpt lat="43.6953" lon="3.92288">
        <ele>108</ele>
        <time>2020-06-06T13:28:01.000Z</time>
      </trkpt>
      <trkpt lat="43.69532" lon="3.92291">
        <ele>108</ele>
        <time>2020-06-06T13:28:02.000Z</time>
      </trkpt>
      <trkpt lat="43.69535" lon="3.92294">
        <ele>108</ele>
        <time>2020-06-06T13:28:03.000Z</time>
      </trkpt>
      <trkpt lat="43.69538" lon="3.92296">
        <ele>108</ele>
        <time>2020-06-06T13:28:04.000Z</time>
      </trkpt>
      <trkpt lat="43.69541" lon="3.92299">
        <ele>108</ele>
        <time>2020-06-06T13:28:05.000Z</time>
      </trkpt>
      <trkpt lat="43.69543" lon="3.92302">
        <ele>108</ele>
        <time>2020-06-06T13:28:06.000Z</time>
      </trkpt>
      <trkpt lat="43.69546" lon="3.92305">
        <ele>108</ele>
        <time>2020-06-06T13:28:07.000Z</time>
      </trkpt>
      <trkpt lat="43.69549" lon="3.92308">
        <ele>108</ele>
        <time>2020-06-06T13:28:08.000Z</time>
      </trkpt>
      <trkpt lat="43.69552" lon="3.92312">
        <ele>108</ele>
        <time>2020-06-06T13:28:09.000Z</time>
      </trkpt>
      <trkpt lat="43.69555" lon="3.92315">
        <ele>108</ele>
        <time>2020-06-06T13:28:10.000Z</time>
      </trkpt>
      <trkpt lat="43.69558" lon="3.92318">
        <ele>108</ele>
        <time>2020-06-06T13:28:11.000Z</time>
      </trkpt>
      <trkpt lat="43.69561" lon="3.92321">
        <ele>108</ele>
        <time>2020-06-06T13:28:12.000Z</time>
      </trkpt>
      <trkpt lat="43.69564" lon="3.92324">
        <ele>108</ele>
        <time>2020-06-06T13:28:13.000Z</time>
      </trkpt>
      <trkpt lat="43.69566" lon="3.92327">
        <ele>108</ele>
        <time>2020-06-06T13:28:14.000Z</time>
      </trkpt>
      <trkpt lat="43.69569" lon="3.9233">
        <ele>108</ele>
        <time>2020-06-06T13:28:15.000Z</time>
      </trkpt>
      <trkpt lat="43.69572" lon="3.92333">
        <ele>108</ele>
        <time>2020-06-06T13:28:16.000Z</time>
      </trkpt>
      <trkpt lat="43.69575" lon="3.92337">
        <ele>108</ele>
        <time>2020-06-06T13:28:17.000Z</time>
      </trkpt>
      <trkpt lat="43.69578" lon="3.9234">
        <ele>108.01097835626</ele>
        <time>2020-06-06T13:28:18.000Z</time>
      </trkpt>
      <trkpt lat="43.69581" lon="3.92344">
        <ele>108.11077869172</ele>
        <time>2020-06-06T13:28:19.000Z</time>
      </trkpt>
      <trkpt lat="43.69584" lon="3.92347">
        <ele>108.21057902718</ele>
        <time>2020-06-06T13:28:20.000Z</time>
      </trkpt>
      <trkpt lat="43.69587" lon="3.9235">
        <ele>108.31037936263</ele>
        <time>2020-06-06T13:28:21.000Z</time>
      </trkpt>
      <trkpt lat="43.69589" lon="3.92354">
        <ele>108.41017969809</ele>
        <time>2020-06-06T13:28:22.000Z</time>
      </trkpt>
      <trkpt lat="43.69592" lon="3.92357">
        <ele>108.50998003355</ele>
        <time>2020-06-06T13:28:23.000Z</time>
      </trkpt>
      <trkpt lat="43.69595" lon="3.9236">
        <ele>108.609780369</ele>
        <time>2020-06-06T13:28:24.000Z</time>
      </trkpt>
      <trkpt lat="43.69598" lon="3.92364">
        <ele>108.70958070446</ele>
        <time>2020-06-06T13:28:25.000Z</time>
      </trkpt>
      <trkpt lat="43.696" lon="3.92368">
        <ele>108.80938103992</ele>
        <time>2020-06-06T13:28:26.000Z</time>
      </trkpt>
      <trkpt lat="43.69603" lon="3.92371">
        <ele>108.90918137537</ele>
        <time>2020-06-06T13:28:27.000Z</time>
      </trkpt>
      <trkpt lat="43.69606" lon="3.92375">
        <ele>109</ele>
        <time>2020-06-06T13:28:28.000Z</time>
      </trkpt>
      <trkpt lat="43.69609" lon="3.92378">
        <ele>109</ele>
        <time>2020-06-06T13:28:29.000Z</time>
      </trkpt>
      <trkpt lat="43.69611" lon="3.92382">
        <ele>109</ele>
        <time>2020-06-06T13:28:30.000Z</time>
      </trkpt>
      <trkpt lat="43.69614" lon="3.92385">
        <ele>109</ele>
        <time>2020-06-06T13:28:31.000Z</time>
      </trkpt>
      <trkpt lat="43.69617" lon="3.92389">
        <ele>109</ele>
        <time>2020-06-06T13:28:32.000Z</time>
      </trkpt>
      <trkpt lat="43.6962" lon="3.92393">
        <ele>109</ele>
        <time>2020-06-06T13:28:33.000Z</time>
      </trkpt>
      <trkpt lat="43.69622" lon="3.92397">
        <ele>109</ele>
        <time>2020-06-06T13:28:34.000Z</time>
      </trkpt>
      <trkpt lat="43.69625" lon="3.92401">
        <ele>109</ele>
        <time>2020-06-06T13:28:35.000Z</time>
      </trkpt>
      <trkpt lat="43.69627" lon="3.92405">
        <ele>109</ele>
        <time>2020-06-06T13:28:36.000Z</time>
      </trkpt>
      <trkpt lat="43.6963" lon="3.9241">
        <ele>109</ele>
        <time>2020-06-06T13:28:37.000Z</time>
      </trkpt>
      <trkpt lat="43.69632" lon="3.92414">
        <ele>109</ele>
        <time>2020-06-06T13:28:38.000Z</time>
      </trkpt>
      <trkpt lat="43.69634" lon="3.92418">
        <ele>109</ele>
        <time>2020-06-06T13:28:39.000Z</time>
      </trkpt>
      <trkpt lat="43.69635" lon="3.92422">
        <ele>109</ele>
        <time>2020-06-06T13:28:40.000Z</time>
      </trkpt>
      <trkpt lat="43.69637" lon="3.92426">
        <ele>109</ele>
        <time>2020-06-06T13:28:41.000Z</time>
      </trkpt>
      <trkpt lat="43.69639" lon="3.9243">
        <ele>109</ele>
        <time>2020-06-06T13:28:42.000Z</time>
      </trkpt>
      <trkpt lat="43.69641" lon="3.92435">
        <ele>109</ele>
        <time>2020-06-06T13:28:43.000Z</time>
      </trkpt>
      <trkpt lat="43.69643" lon="3.92439">
        <ele>109</ele>
        <time>2020-06-06T13:28:44.000Z</time>
      </trkpt>
      <trkpt lat="43.69645" lon="3.92444">
        <ele>109</ele>
        <time>2020-06-06T13:28:45.000Z</time>
      </trkpt>
      <trkpt lat="43.69647" lon="3.92449">
        <ele>109</ele>
        <time>2020-06-06T13:28:46.000Z</time>
      </trkpt>
      <trkpt lat="43.69649" lon="3.92453">
        <ele>109</ele>
        <time>2020-06-06T13:28:47.000Z</time>
      </trkpt>
      <trkpt lat="43.6965" lon="3.92458">
        <ele>109</ele>
        <time>2020-06-06T13:28:48.000Z</time>
      </trkpt>
      <trkpt lat="43.69652" lon="3.92463">
        <ele>109</ele>
        <time>2020-06-06T13:28:49.000Z</time>
      </trkpt>
      <trkpt lat="43.69654" lon="3.92468">
        <ele>109</ele>
        <time>2020-06-06T13:28:50.000Z</time>
      </trkpt>
      <trkpt lat="43.69656" lon="3.92472">
        <ele>109</ele>
        <time>2020-06-06T13:28:51.000Z</time>
      </trkpt>
      <trkpt lat="43.69658" lon="3.92477">
        <ele>109</ele>
        <time>2020-06-06T13:28:52.000Z</time>
      </trkpt>
      <trkpt lat="43.69659" lon="3.92481">
        <ele>109</ele>
        <time>2020-06-06T13:28:53.000Z</time>
      </trkpt>
      <trkpt lat="43.69661" lon="3.92486">
        <ele>109</ele>
        <time>2020-06-06T13:28:54.000Z</time>
      </trkpt>
      <trkpt lat="43.69663" lon="3.92491">
        <ele>109</ele>
        <time>2020-06-06T13:28:55.000Z</time>
      </trkpt>
      <trkpt lat="43.69665" lon="3.92495">
        <ele>109</ele>
        <time>2020-06-06T13:28:56.000Z</time>
      </trkpt>
      <trkpt lat="43.69667" lon="3.92499">
        <ele>109</ele>
        <time>2020-06-06T13:28:57.000Z</time>
      </trkpt>
      <trkpt lat="43.69669" lon="3.92504">
        <ele>109</ele>
        <time>2020-06-06T13:28:58.000Z</time>
      </trkpt>
      <trkpt lat="43.69671" lon="3.92508">
        <ele>109</ele>
        <time>2020-06-06T13:28:59.000Z</time>
      </trkpt>
      <trkpt lat="43.69674" lon="3.92512">
        <ele>109</ele>
        <time>2020-06-06T13:29:00.000Z</time>
      </trkpt>
      <trkpt lat="43.69676" lon="3.92516">
        <ele>109</ele>
        <time>2020-06-06T13:29:01.000Z</time>
      </trkpt>
      <trkpt lat="43.69679" lon="3.92521">
        <ele>109</ele>
        <time>2020-06-06T13:29:02.000Z</time>
      </trkpt>
      <trkpt lat="43.69681" lon="3.92525">
        <ele>109</ele>
        <time>2020-06-06T13:29:03.000Z</time>
      </trkpt>
      <trkpt lat="43.69684" lon="3.92529">
        <ele>109</ele>
        <time>2020-06-06T13:29:04.000Z</time>
      </trkpt>
      <trkpt lat="43.69686" lon="3.92532">
        <ele>109</ele>
        <time>2020-06-06T13:29:05.000Z</time>
      </trkpt>
      <trkpt lat="43.69689" lon="3.92536">
        <ele>109</ele>
        <time>2020-06-06T13:29:06.000Z</time>
      </trkpt>
      <trkpt lat="43.69691" lon="3.9254">
        <ele>109</ele>
        <time>2020-06-06T13:29:07.000Z</time>
      </trkpt>
      <trkpt lat="43.69693" lon="3.92543">
        <ele>109.01095649402</ele>
        <time>2020-06-06T13:29:08.000Z</time>
      </trkpt>
      <trkpt lat="43.69696" lon="3.92547">
        <ele>109.11055808765</ele>
        <time>2020-06-06T13:29:09.000Z</time>
      </trkpt>
      <trkpt lat="43.69698" lon="3.9255">
        <ele>109.21015968128</ele>
        <time>2020-06-06T13:29:10.000Z</time>
      </trkpt>
      <trkpt lat="43.69701" lon="3.92553">
        <ele>109.3097612749</ele>
        <time>2020-06-06T13:29:11.000Z</time>
      </trkpt>
      <trkpt lat="43.69703" lon="3.92556">
        <ele>109.40936286853</ele>
        <time>2020-06-06T13:29:12.000Z</time>
      </trkpt>
      <trkpt lat="43.69706" lon="3.92559">
        <ele>109.50896446215</ele>
        <time>2020-06-06T13:29:13.000Z</time>
      </trkpt>
      <trkpt lat="43.69708" lon="3.92562">
        <ele>109.60856605578</ele>
        <time>2020-06-06T13:29:14.000Z</time>
      </trkpt>
      <trkpt lat="43.6971" lon="3.92565">
        <ele>109.7081676494</ele>
        <time>2020-06-06T13:29:15.000Z</time>
      </trkpt>
      <trkpt lat="43.69712" lon="3.92567">
        <ele>109.80776924303</ele>
        <time>2020-06-06T13:29:16.000Z</time>
      </trkpt>
      <trkpt lat="43.69715" lon="3.9257">
        <ele>109.90737083665</ele>
        <time>2020-06-06T13:29:17.000Z</time>
      </trkpt>
      <trkpt lat="43.69717" lon="3.92573">
        <ele>110.00702843374</ele>
        <time>2020-06-06T13:29:18.000Z</time>
      </trkpt>
      <trkpt lat="43.69719" lon="3.92575">
        <ele>110.10743004016</ele>
        <time>2020-06-06T13:29:19.000Z</time>
      </trkpt>
      <trkpt lat="43.69721" lon="3.92578">
        <ele>110.20783164659</ele>
        <time>2020-06-06T13:29:20.000Z</time>
      </trkpt>
      <trkpt lat="43.69723" lon="3.92581">
        <ele>110.30823325301</ele>
        <time>2020-06-06T13:29:21.000Z</time>
      </trkpt>
      <trkpt lat="43.69725" lon="3.92583">
        <ele>110.40863485944</ele>
        <time>2020-06-06T13:29:22.000Z</time>
      </trkpt>
      <trkpt lat="43.69727" lon="3.92586">
        <ele>110.50903646586</ele>
        <time>2020-06-06T13:29:23.000Z</time>
      </trkpt>
      <trkpt lat="43.69729" lon="3.92588">
        <ele>110.60943807229</ele>
        <time>2020-06-06T13:29:24.000Z</time>
      </trkpt>
      <trkpt lat="43.69731" lon="3.92591">
        <ele>110.70983967871</ele>
        <time>2020-06-06T13:29:25.000Z</time>
      </trkpt>
      <trkpt lat="43.69733" lon="3.92593">
        <ele>110.81024128514</ele>
        <time>2020-06-06T13:29:26.000Z</time>
      </trkpt>
      <trkpt lat="43.69735" lon="3.92595">
        <ele>110.91064289157</ele>
        <time>2020-06-06T13:29:27.000Z</time>
      </trkpt>
      <trkpt lat="43.69737" lon="3.92598">
        <ele>111.01100032</ele>
        <time>2020-06-06T13:29:28.000Z</time>
      </trkpt>
      <trkpt lat="43.69739" lon="3.926">
        <ele>111.11100032</ele>
        <time>2020-06-06T13:29:29.000Z</time>
      </trkpt>
      <trkpt lat="43.69741" lon="3.92603">
        <ele>111.21100032</ele>
        <time>2020-06-06T13:29:30.000Z</time>
      </trkpt>
      <trkpt lat="43.69743" lon="3.92606">
        <ele>111.31100032</ele>
        <time>2020-06-06T13:29:31.000Z</time>
      </trkpt>
      <trkpt lat="43.69745" lon="3.92608">
        <ele>111.41100032</ele>
        <time>2020-06-06T13:29:32.000Z</time>
      </trkpt>
      <trkpt lat="43.69747" lon="3.92611">
        <ele>111.51100032</ele>
        <time>2020-06-06T13:29:33.000Z</time>
      </trkpt>
      <trkpt lat="43.69749" lon="3.92613">
        <ele>111.61100032</ele>
        <time>2020-06-06T13:29:34.000Z</time>
      </trkpt>
      <trkpt lat="43.69751" lon="3.92615">
        <ele>111.71100032</ele>
        <time>2020-06-06T13:29:35.000Z</time>
      </trkpt>
      <trkpt lat="43.69753" lon="3.92618">
        <ele>111.81100032</ele>
        <time>2020-06-06T13:29:36.000Z</time>
      </trkpt>
      <trkpt lat="43.69755" lon="3.9262">
        <ele>111.91100032</ele>
        <time>2020-06-06T13:29:37.000Z</time>
      </trkpt>
      <trkpt lat="43.69757" lon="3.92623">
        <ele>112.01100032</ele>
        <time>2020-06-06T13:29:38.000Z</time>
      </trkpt>
      <trkpt lat="43.69759" lon="3.92625">
        <ele>112.11100032</ele>
        <time>2020-06-06T13:29:39.000Z</time>
      </trkpt>
      <trkpt lat="43.6976" lon="3.92628">
        <ele>112.21100032</ele>
        <time>2020-06-06T13:29:40.000Z</time>
      </trkpt>
      <trkpt lat="43.69762" lon="3.9263">
        <ele>112.31100032</ele>
        <time>2020-06-06T13:29:41.000Z</time>
      </trkpt>
      <trkpt lat="43.69764" lon="3.92632">
        <ele>112.41100032</ele>
        <time>2020-06-06T13:29:42.000Z</time>
      </trkpt>
      <trkpt lat="43.69766" lon="3.92634">
        <ele>112.51100032</ele>
        <time>2020-06-06T13:29:43.000Z</time>
      </trkpt>
      <trkpt lat="43.69767" lon="3.92637">
        <ele>112.61100032</ele>
        <time>2020-06-06T13:29:44.000Z</time>
      </trkpt>
      <trkpt lat="43.69769" lon="3.92639">
        <ele>112.71100032</ele>
        <time>2020-06-06T13:29:45.000Z</time>
      </trkpt>
      <trkpt lat="43.69771" lon="3.92641">
        <ele>112.81100032</ele>
        <time>2020-06-06T13:29:46.000Z</time>
      </trkpt>
      <trkpt lat="43.69772" lon="3.92643">
        <ele>112.91100032</ele>
        <time>2020-06-06T13:29:47.000Z</time>
      </trkpt>
      <trkpt lat="43.69774" lon="3.92645">
        <ele>113.02200064</ele>
        <time>2020-06-06T13:29:48.000Z</time>
      </trkpt>
      <trkpt lat="43.69776" lon="3.92647">
        <ele>113.22200064</ele>
        <time>2020-06-06T13:29:49.000Z</time>
      </trkpt>
      <trkpt lat="43.69778" lon="3.92649">
        <ele>113.42200064</ele>
        <time>2020-06-06T13:29:50.000Z</time>
      </trkpt>
      <trkpt lat="43.69779" lon="3.92651">
        <ele>113.62200064</ele>
        <time>2020-06-06T13:29:51.000Z</time>
      </trkpt>
      <trkpt lat="43.69781" lon="3.92654">
        <ele>113.82200064</ele>
        <time>2020-06-06T13:29:52.000Z</time>
      </trkpt>
      <trkpt lat="43.69783" lon="3.92656">
        <ele>114.02200064</ele>
        <time>2020-06-06T13:29:53.000Z</time>
      </trkpt>
      <trkpt lat="43.69784" lon="3.92658">
        <ele>114.22200064</ele>
        <time>2020-06-06T13:29:54.000Z</time>
      </trkpt>
      <trkpt lat="43.69786" lon="3.9266">
        <ele>114.42200064</ele>
        <time>2020-06-06T13:29:55.000Z</time>
      </trkpt>
      <trkpt lat="43.69788" lon="3.92663">
        <ele>114.62200064</ele>
        <time>2020-06-06T13:29:56.000Z</time>
      </trkpt>
      <trkpt lat="43.69789" lon="3.92665">
        <ele>114.82200064</ele>
        <time>2020-06-06T13:29:57.000Z</time>
      </trkpt>
      <trkpt lat="43.69791" lon="3.92667">
        <ele>115.01077406802</ele>
        <time>2020-06-06T13:29:58.000Z</time>
      </trkpt>
      <trkpt lat="43.69793" lon="3.92669">
        <ele>115.10871729167</ele>
        <time>2020-06-06T13:29:59.000Z</time>
      </trkpt>
      <trkpt lat="43.69795" lon="3.92672">
        <ele>115.20666051531</ele>
        <time>2020-06-06T13:30:00.000Z</time>
      </trkpt>
      <trkpt lat="43.69797" lon="3.92674">
        <ele>115.30460373895</ele>
        <time>2020-06-06T13:30:01.000Z</time>
      </trkpt>
      <trkpt lat="43.69798" lon="3.92676">
        <ele>115.4025469626</ele>
        <time>2020-06-06T13:30:02.000Z</time>
      </trkpt>
      <trkpt lat="43.698" lon="3.92678">
        <ele>115.50049018625</ele>
        <time>2020-06-06T13:30:03.000Z</time>
      </trkpt>
      <trkpt lat="43.69801" lon="3.9268">
        <ele>115.59843340989</ele>
        <time>2020-06-06T13:30:04.000Z</time>
      </trkpt>
      <trkpt lat="43.69803" lon="3.92682">
        <ele>115.69637663354</ele>
        <time>2020-06-06T13:30:05.000Z</time>
      </trkpt>
      <trkpt lat="43.69804" lon="3.92684">
        <ele>115.79431985718</ele>
        <time>2020-06-06T13:30:06.000Z</time>
      </trkpt>
      <trkpt lat="43.69806" lon="3.92686">
        <ele>115.89226308083</ele>
        <time>2020-06-06T13:30:07.000Z</time>
      </trkpt>
      <trkpt lat="43.69807" lon="3.92688">
        <ele>115.99020630447</ele>
        <time>2020-06-06T13:30:08.000Z</time>
      </trkpt>
      <trkpt lat="43.69809" lon="3.9269">
        <ele>116.1838623301</ele>
        <time>2020-06-06T13:30:09.000Z</time>
      </trkpt>
      <trkpt lat="43.69811" lon="3.92692">
        <ele>116.38815235525</ele>
        <time>2020-06-06T13:30:10.000Z</time>
      </trkpt>
      <trkpt lat="43.69812" lon="3.92694">
        <ele>116.59244238041</ele>
        <time>2020-06-06T13:30:11.000Z</time>
      </trkpt>
      <trkpt lat="43.69813" lon="3.92696">
        <ele>116.79673240556</ele>
        <time>2020-06-06T13:30:12.000Z</time>
      </trkpt>
      <trkpt lat="43.69815" lon="3.92698">
        <ele>117.00102243072</ele>
        <time>2020-06-06T13:30:13.000Z</time>
      </trkpt>
      <trkpt lat="43.69816" lon="3.927">
        <ele>117.20531245587</ele>
        <time>2020-06-06T13:30:14.000Z</time>
      </trkpt>
      <trkpt lat="43.69818" lon="3.92702">
        <ele>117.40960248103</ele>
        <time>2020-06-06T13:30:15.000Z</time>
      </trkpt>
      <trkpt lat="43.69819" lon="3.92704">
        <ele>117.61389250618</ele>
        <time>2020-06-06T13:30:16.000Z</time>
      </trkpt>
      <trkpt lat="43.69821" lon="3.92706">
        <ele>117.81818253134</ele>
        <time>2020-06-06T13:30:17.000Z</time>
      </trkpt>
      <trkpt lat="43.69822" lon="3.92708">
        <ele>118.01070070039</ele>
        <time>2020-06-06T13:30:18.000Z</time>
      </trkpt>
      <trkpt lat="43.69823" lon="3.9271">
        <ele>118.10797696498</ele>
        <time>2020-06-06T13:30:19.000Z</time>
      </trkpt>
      <trkpt lat="43.69825" lon="3.92712">
        <ele>118.20525322957</ele>
        <time>2020-06-06T13:30:20.000Z</time>
      </trkpt>
      <trkpt lat="43.69826" lon="3.92714">
        <ele>118.30252949416</ele>
        <time>2020-06-06T13:30:21.000Z</time>
      </trkpt>
      <trkpt lat="43.69828" lon="3.92715">
        <ele>118.39980575875</ele>
        <time>2020-06-06T13:30:22.000Z</time>
      </trkpt>
      <trkpt lat="43.69829" lon="3.92717">
        <ele>118.49708202335</ele>
        <time>2020-06-06T13:30:23.000Z</time>
      </trkpt>
      <trkpt lat="43.6983" lon="3.92719">
        <ele>118.59435828794</ele>
        <time>2020-06-06T13:30:24.000Z</time>
      </trkpt>
      <trkpt lat="43.69832" lon="3.92721">
        <ele>118.69163455253</ele>
        <time>2020-06-06T13:30:25.000Z</time>
      </trkpt>
      <trkpt lat="43.69833" lon="3.92723">
        <ele>118.78891081712</ele>
        <time>2020-06-06T13:30:26.000Z</time>
      </trkpt>
      <trkpt lat="43.69835" lon="3.92725">
        <ele>118.88618708171</ele>
        <time>2020-06-06T13:30:27.000Z</time>
      </trkpt>
      <trkpt lat="43.69836" lon="3.92727">
        <ele>118.9834633463</ele>
        <time>2020-06-06T13:30:28.000Z</time>
      </trkpt>
      <trkpt lat="43.69837" lon="3.92729">
        <ele>119.08539127572</ele>
        <time>2020-06-06T13:30:29.000Z</time>
      </trkpt>
      <trkpt lat="43.69839" lon="3.9273">
        <ele>119.18827193416</ele>
        <time>2020-06-06T13:30:30.000Z</time>
      </trkpt>
      <trkpt lat="43.69841" lon="3.92732">
        <ele>119.29115259259</ele>
        <time>2020-06-06T13:30:31.000Z</time>
      </trkpt>
      <trkpt lat="43.69842" lon="3.92734">
        <ele>119.39403325103</ele>
        <time>2020-06-06T13:30:32.000Z</time>
      </trkpt>
      <trkpt lat="43.69845" lon="3.92736">
        <ele>119.5997945679</ele>
        <time>2020-06-06T13:30:34.000Z</time>
      </trkpt>
      <trkpt lat="43.69848" lon="3.92738">
        <ele>119.80555588477</ele>
        <time>2020-06-06T13:30:36.000Z</time>
      </trkpt>
      <trkpt lat="43.69851" lon="3.92738">
        <ele>120.02165417323</ele>
        <time>2020-06-06T13:30:38.000Z</time>
      </trkpt>
      <trkpt lat="43.69855" lon="3.92737">
        <ele>120.41535496063</ele>
        <time>2020-06-06T13:30:40.000Z</time>
      </trkpt>
      <trkpt lat="43.69858" lon="3.92735">
        <ele>120.80905574803</ele>
        <time>2020-06-06T13:30:42.000Z</time>
      </trkpt>
      <trkpt lat="43.6986" lon="3.92732">
        <ele>121.20275653543</ele>
        <time>2020-06-06T13:30:44.000Z</time>
      </trkpt>
      <trkpt lat="43.69861" lon="3.92729">
        <ele>121.39960692913</ele>
        <time>2020-06-06T13:30:45.000Z</time>
      </trkpt>
      <trkpt lat="43.69863" lon="3.92727">
        <ele>121.59645732283</ele>
        <time>2020-06-06T13:30:46.000Z</time>
      </trkpt>
      <trkpt lat="43.69865" lon="3.92725">
        <ele>121.79330771653</ele>
        <time>2020-06-06T13:30:47.000Z</time>
      </trkpt>
      <trkpt lat="43.69866" lon="3.92723">
        <ele>121.99015811024</ele>
        <time>2020-06-06T13:30:48.000Z</time>
      </trkpt>
      <trkpt lat="43.69868" lon="3.92721">
        <ele>122.09654504065</ele>
        <time>2020-06-06T13:30:49.000Z</time>
      </trkpt>
      <trkpt lat="43.6987" lon="3.92719">
        <ele>122.19817105691</ele>
        <time>2020-06-06T13:30:50.000Z</time>
      </trkpt>
      <trkpt lat="43.69872" lon="3.92717">
        <ele>122.29979707317</ele>
        <time>2020-06-06T13:30:51.000Z</time>
      </trkpt>
      <trkpt lat="43.69873" lon="3.92715">
        <ele>122.40142308943</ele>
        <time>2020-06-06T13:30:52.000Z</time>
      </trkpt>
      <trkpt lat="43.69875" lon="3.92714">
        <ele>122.50304910569</ele>
        <time>2020-06-06T13:30:53.000Z</time>
      </trkpt>
      <trkpt lat="43.69878" lon="3.92712">
        <ele>122.70630113821</ele>
        <time>2020-06-06T13:30:55.000Z</time>
      </trkpt>
      <trkpt lat="43.6988" lon="3.92712">
        <ele>122.80792715447</ele>
        <time>2020-06-06T13:30:56.000Z</time>
      </trkpt>
      <trkpt lat="43.69882" lon="3.92711">
        <ele>122.90955317073</ele>
        <time>2020-06-06T13:30:57.000Z</time>
      </trkpt>
      <trkpt lat="43.69884" lon="3.9271">
        <ele>123.01100032</ele>
        <time>2020-06-06T13:30:58.000Z</time>
      </trkpt>
      <trkpt lat="43.69886" lon="3.92709">
        <ele>123.11100032</ele>
        <time>2020-06-06T13:30:59.000Z</time>
      </trkpt>
      <trkpt lat="43.69888" lon="3.92708">
        <ele>123.21100032</ele>
        <time>2020-06-06T13:31:00.000Z</time>
      </trkpt>
      <trkpt lat="43.6989" lon="3.92709">
        <ele>123.31100032</ele>
        <time>2020-06-06T13:31:01.000Z</time>
      </trkpt>
      <trkpt lat="43.69892" lon="3.92709">
        <ele>123.41100032</ele>
        <time>2020-06-06T13:31:02.000Z</time>
      </trkpt>
      <trkpt lat="43.69894" lon="3.9271">
        <ele>123.51100032</ele>
        <time>2020-06-06T13:31:03.000Z</time>
      </trkpt>
      <trkpt lat="43.69896" lon="3.92711">
        <ele>123.61100032</ele>
        <time>2020-06-06T13:31:04.000Z</time>
      </trkpt>
      <trkpt lat="43.69899" lon="3.92712">
        <ele>123.71100032</ele>
        <time>2020-06-06T13:31:05.000Z</time>
      </trkpt>
      <trkpt lat="43.69901" lon="3.92713">
        <ele>123.81100032</ele>
        <time>2020-06-06T13:31:06.000Z</time>
      </trkpt>
      <trkpt lat="43.69904" lon="3.92715">
        <ele>123.91100032</ele>
        <time>2020-06-06T13:31:07.000Z</time>
      </trkpt>
      <trkpt lat="43.69906" lon="3.92717">
        <ele>124.01100032</ele>
        <time>2020-06-06T13:31:08.000Z</time>
      </trkpt>
      <trkpt lat="43.69908" lon="3.92719">
        <ele>124.11100032</ele>
        <time>2020-06-06T13:31:09.000Z</time>
      </trkpt>
      <trkpt lat="43.6991" lon="3.92721">
        <ele>124.21100032</ele>
        <time>2020-06-06T13:31:10.000Z</time>
      </trkpt>
      <trkpt lat="43.69913" lon="3.92723">
        <ele>124.31100032</ele>
        <time>2020-06-06T13:31:11.000Z</time>
      </trkpt>
      <trkpt lat="43.69915" lon="3.92725">
        <ele>124.41100032</ele>
        <time>2020-06-06T13:31:12.000Z</time>
      </trkpt>
      <trkpt lat="43.69916" lon="3.92727">
        <ele>124.51100032</ele>
        <time>2020-06-06T13:31:13.000Z</time>
      </trkpt>
      <trkpt lat="43.69918" lon="3.9273">
        <ele>124.61100032</ele>
        <time>2020-06-06T13:31:14.000Z</time>
      </trkpt>
      <trkpt lat="43.6992" lon="3.92732">
        <ele>124.71100032</ele>
        <time>2020-06-06T13:31:15.000Z</time>
      </trkpt>
      <trkpt lat="43.69921" lon="3.92734">
        <ele>124.81100032</ele>
        <time>2020-06-06T13:31:16.000Z</time>
      </trkpt>
      <trkpt lat="43.69923" lon="3.92736">
        <ele>124.91100032</ele>
        <time>2020-06-06T13:31:17.000Z</time>
      </trkpt>
      <trkpt lat="43.69925" lon="3.92738">
        <ele>125.01100032</ele>
        <time>2020-06-06T13:31:18.000Z</time>
      </trkpt>
      <trkpt lat="43.69927" lon="3.9274">
        <ele>125.11100032</ele>
        <time>2020-06-06T13:31:19.000Z</time>
      </trkpt>
      <trkpt lat="43.69928" lon="3.92743">
        <ele>125.21100032</ele>
        <time>2020-06-06T13:31:20.000Z</time>
      </trkpt>
      <trkpt lat="43.69929" lon="3.92746">
        <ele>125.31100032</ele>
        <time>2020-06-06T13:31:21.000Z</time>
      </trkpt>
      <trkpt lat="43.6993" lon="3.92749">
        <ele>125.41100032</ele>
        <time>2020-06-06T13:31:22.000Z</time>
      </trkpt>
      <trkpt lat="43.6993" lon="3.92751">
        <ele>125.51100032</ele>
        <time>2020-06-06T13:31:23.000Z</time>
      </trkpt>
      <trkpt lat="43.69931" lon="3.92754">
        <ele>125.61100032</ele>
        <time>2020-06-06T13:31:24.000Z</time>
      </trkpt>
      <trkpt lat="43.6993" lon="3.92758">
        <ele>125.81100032</ele>
        <time>2020-06-06T13:31:26.000Z</time>
      </trkpt>
      <trkpt lat="43.6993" lon="3.92763">
        <ele>126.01100032</ele>
        <time>2020-06-06T13:31:28.000Z</time>
      </trkpt>
      <trkpt lat="43.69929" lon="3.92765">
        <ele>126.11100032</ele>
        <time>2020-06-06T13:31:29.000Z</time>
      </trkpt>
      <trkpt lat="43.69927" lon="3.92766">
        <ele>126.21100032</ele>
        <time>2020-06-06T13:31:30.000Z</time>
      </trkpt>
      <trkpt lat="43.69924" lon="3.92766">
        <ele>126.41100032</ele>
        <time>2020-06-06T13:31:32.000Z</time>
      </trkpt>
      <trkpt lat="43.69921" lon="3.92764">
        <ele>126.61100032</ele>
        <time>2020-06-06T13:31:34.000Z</time>
      </trkpt>
      <trkpt lat="43.69919" lon="3.92762">
        <ele>126.81100032</ele>
        <time>2020-06-06T13:31:36.000Z</time>
      </trkpt>
      <trkpt lat="43.69917" lon="3.92759">
        <ele>127.01100032</ele>
        <time>2020-06-06T13:31:38.000Z</time>
      </trkpt>
      <trkpt lat="43.69914" lon="3.92758">
        <ele>127.21100032</ele>
        <time>2020-06-06T13:31:40.000Z</time>
      </trkpt>
      <trkpt lat="43.69912" lon="3.92757">
        <ele>127.41100032</ele>
        <time>2020-06-06T13:31:42.000Z</time>
      </trkpt>
      <trkpt lat="43.6991" lon="3.92755">
        <ele>127.61100032</ele>
        <time>2020-06-06T13:31:44.000Z</time>
      </trkpt>
      <trkpt lat="43.69907" lon="3.92755">
        <ele>127.81100032</ele>
        <time>2020-06-06T13:31:46.000Z</time>
      </trkpt>
      <trkpt lat="43.69905" lon="3.92755">
        <ele>128.01100032</ele>
        <time>2020-06-06T13:31:48.000Z</time>
      </trkpt>
      <trkpt lat="43.69903" lon="3.92756">
        <ele>128.21100032</ele>
        <time>2020-06-06T13:31:50.000Z</time>
      </trkpt>
      <trkpt lat="43.69901" lon="3.92755">
        <ele>128.41100032</ele>
        <time>2020-06-06T13:31:52.000Z</time>
      </trkpt>
      <trkpt lat="43.69901" lon="3.92754">
        <ele>129.00064849249</ele>
        <time>2020-06-06T13:31:59.000Z</time>
      </trkpt>
      <trkpt lat="43.69902" lon="3.92755">
        <ele>129.9983538022</ele>
        <time>2020-06-06T13:35:19.000Z</time>
      </trkpt>
      <trkpt lat="43.69902" lon="3.9276">
        <ele>130</ele>
        <time>2020-06-06T13:35:21.000Z</time>
      </trkpt>
      <trkpt lat="43.69901" lon="3.92762">
        <ele>130</ele>
        <time>2020-06-06T13:35:22.000Z</time>
      </trkpt>
      <trkpt lat="43.699" lon="3.92765">
        <ele>130</ele>
        <time>2020-06-06T13:35:23.000Z</time>
      </trkpt>
      <trkpt lat="43.699" lon="3.92767">
        <ele>130</ele>
        <time>2020-06-06T13:35:24.000Z</time>
      </trkpt>
      <trkpt lat="43.69897" lon="3.92771">
        <ele>130</ele>
        <time>2020-06-06T13:35:26.000Z</time>
      </trkpt>
      <trkpt lat="43.69896" lon="3.92773">
        <ele>130</ele>
        <time>2020-06-06T13:35:27.000Z</time>
      </trkpt>
      <trkpt lat="43.69894" lon="3.92774">
        <ele>130</ele>
        <time>2020-06-06T13:35:28.000Z</time>
      </trkpt>
      <trkpt lat="43.69893" lon="3.92775">
        <ele>129.97859859922</ele>
        <time>2020-06-06T13:35:29.000Z</time>
      </trkpt>
      <trkpt lat="43.69891" lon="3.92775">
        <ele>129.78404607004</ele>
        <time>2020-06-06T13:35:30.000Z</time>
      </trkpt>
      <trkpt lat="43.69888" lon="3.92774">
        <ele>129.58949354086</ele>
        <time>2020-06-06T13:35:31.000Z</time>
      </trkpt>
      <trkpt lat="43.69886" lon="3.92774">
        <ele>129.39494101167</ele>
        <time>2020-06-06T13:35:32.000Z</time>
      </trkpt>
      <trkpt lat="43.69884" lon="3.92774">
        <ele>129.20038848249</ele>
        <time>2020-06-06T13:35:33.000Z</time>
      </trkpt>
      <trkpt lat="43.69882" lon="3.92773">
        <ele>129.00583595331</ele>
        <time>2020-06-06T13:35:34.000Z</time>
      </trkpt>
      <trkpt lat="43.69879" lon="3.92773">
        <ele>128.81128342413</ele>
        <time>2020-06-06T13:35:35.000Z</time>
      </trkpt>
      <trkpt lat="43.69875" lon="3.92772">
        <ele>128.61673089494</ele>
        <time>2020-06-06T13:35:36.000Z</time>
      </trkpt>
      <trkpt lat="43.69872" lon="3.92772">
        <ele>128.42217836576</ele>
        <time>2020-06-06T13:35:37.000Z</time>
      </trkpt>
      <trkpt lat="43.6987" lon="3.92773">
        <ele>128.22762583658</ele>
        <time>2020-06-06T13:35:38.000Z</time>
      </trkpt>
      <trkpt lat="43.69869" lon="3.92777">
        <ele>127.91469645704</ele>
        <time>2020-06-06T13:35:40.000Z</time>
      </trkpt>
      <trkpt lat="43.69869" lon="3.92781">
        <ele>127.7091465436</ele>
        <time>2020-06-06T13:35:42.000Z</time>
      </trkpt>
      <trkpt lat="43.69869" lon="3.92785">
        <ele>127.50359663017</ele>
        <time>2020-06-06T13:35:44.000Z</time>
      </trkpt>
      <trkpt lat="43.69869" lon="3.92786">
        <ele>127</ele>
        <time>2020-06-06T13:35:50.000Z</time>
      </trkpt>
      <trkpt lat="43.69869" lon="3.92792">
        <ele>127</ele>
        <time>2020-06-06T13:36:19.000Z</time>
      </trkpt>
      <trkpt lat="43.69869" lon="3.92795">
        <ele>126.71588673948</ele>
        <time>2020-06-06T13:36:20.000Z</time>
      </trkpt>
      <trkpt lat="43.69869" lon="3.92798">
        <ele>126.4103875587</ele>
        <time>2020-06-06T13:36:21.000Z</time>
      </trkpt>
      <trkpt lat="43.6987" lon="3.92801">
        <ele>126.10488837793</ele>
        <time>2020-06-06T13:36:22.000Z</time>
      </trkpt>
      <trkpt lat="43.69871" lon="3.92804">
        <ele>125.79938919716</ele>
        <time>2020-06-06T13:36:23.000Z</time>
      </trkpt>
      <trkpt lat="43.69872" lon="3.92808">
        <ele>125.49389001638</ele>
        <time>2020-06-06T13:36:24.000Z</time>
      </trkpt>
      <trkpt lat="43.69872" lon="3.92812">
        <ele>125.18839083561</ele>
        <time>2020-06-06T13:36:25.000Z</time>
      </trkpt>
      <trkpt lat="43.69872" lon="3.92817">
        <ele>124.88289165484</ele>
        <time>2020-06-06T13:36:26.000Z</time>
      </trkpt>
      <trkpt lat="43.69872" lon="3.92822">
        <ele>124.57739247406</ele>
        <time>2020-06-06T13:36:27.000Z</time>
      </trkpt>
      <trkpt lat="43.69871" lon="3.92826">
        <ele>124.27189329329</ele>
        <time>2020-06-06T13:36:28.000Z</time>
      </trkpt>
      <trkpt lat="43.69871" lon="3.92831">
        <ele>123.98929929961</ele>
        <time>2020-06-06T13:36:29.000Z</time>
      </trkpt>
      <trkpt lat="43.6987" lon="3.92835">
        <ele>123.89202303502</ele>
        <time>2020-06-06T13:36:30.000Z</time>
      </trkpt>
      <trkpt lat="43.6987" lon="3.92838">
        <ele>123.79474677043</ele>
        <time>2020-06-06T13:36:31.000Z</time>
      </trkpt>
      <trkpt lat="43.6987" lon="3.92841">
        <ele>123.69747050584</ele>
        <time>2020-06-06T13:36:32.000Z</time>
      </trkpt>
      <trkpt lat="43.69869" lon="3.92844">
        <ele>123.60019424125</ele>
        <time>2020-06-06T13:36:33.000Z</time>
      </trkpt>
      <trkpt lat="43.69869" lon="3.92847">
        <ele>123.50291797665</ele>
        <time>2020-06-06T13:36:34.000Z</time>
      </trkpt>
      <trkpt lat="43.69869" lon="3.9285">
        <ele>123.40564171206</ele>
        <time>2020-06-06T13:36:35.000Z</time>
      </trkpt>
      <trkpt lat="43.69869" lon="3.92854">
        <ele>123.21108918288</ele>
        <time>2020-06-06T13:36:37.000Z</time>
      </trkpt>
      <trkpt lat="43.69868" lon="3.92857">
        <ele>123.0165366537</ele>
        <time>2020-06-06T13:36:39.000Z</time>
      </trkpt>
      <trkpt lat="43.69866" lon="3.92857">
        <ele>122.11325024208</ele>
        <time>2020-06-06T13:36:47.000Z</time>
      </trkpt>
      <trkpt lat="43.69866" lon="3.92856">
        <ele>122</ele>
        <time>2020-06-06T13:36:48.000Z</time>
      </trkpt>
      <trkpt lat="43.69862" lon="3.92865">
        <ele>121.01497807047</ele>
        <time>2020-06-06T13:37:13.000Z</time>
      </trkpt>
      <trkpt lat="43.6986" lon="3.92867">
        <ele>120.87251891244</ele>
        <time>2020-06-06T13:37:14.000Z</time>
      </trkpt>
      <trkpt lat="43.69859" lon="3.92869">
        <ele>120.66353242668</ele>
        <time>2020-06-06T13:37:15.000Z</time>
      </trkpt>
      <trkpt lat="43.69858" lon="3.92872">
        <ele>120.45454594091</ele>
        <time>2020-06-06T13:37:16.000Z</time>
      </trkpt>
      <trkpt lat="43.69858" lon="3.92875">
        <ele>120.24555945515</ele>
        <time>2020-06-06T13:37:17.000Z</time>
      </trkpt>
      <trkpt lat="43.69858" lon="3.92879">
        <ele>119.82758648362</ele>
        <time>2020-06-06T13:37:19.000Z</time>
      </trkpt>
      <trkpt lat="43.69858" lon="3.92883">
        <ele>119.4096135121</ele>
        <time>2020-06-06T13:37:21.000Z</time>
      </trkpt>
      <trkpt lat="43.69859" lon="3.92888">
        <ele>118.99216454211</ele>
        <time>2020-06-06T13:37:23.000Z</time>
      </trkpt>
      <trkpt lat="43.69859" lon="3.9289">
        <ele>118.79627809482</ele>
        <time>2020-06-06T13:37:24.000Z</time>
      </trkpt>
      <trkpt lat="43.69859" lon="3.92893">
        <ele>118.60039164753</ele>
        <time>2020-06-06T13:37:25.000Z</time>
      </trkpt>
      <trkpt lat="43.6986" lon="3.92896">
        <ele>118.40450520024</ele>
        <time>2020-06-06T13:37:26.000Z</time>
      </trkpt>
      <trkpt lat="43.6986" lon="3.92899">
        <ele>118.20861875295</ele>
        <time>2020-06-06T13:37:27.000Z</time>
      </trkpt>
      <trkpt lat="43.69861" lon="3.92902">
        <ele>118.01273230566</ele>
        <time>2020-06-06T13:37:28.000Z</time>
      </trkpt>
      <trkpt lat="43.69861" lon="3.92904">
        <ele>117.81684585836</ele>
        <time>2020-06-06T13:37:29.000Z</time>
      </trkpt>
      <trkpt lat="43.69861" lon="3.92908">
        <ele>117.62095941107</ele>
        <time>2020-06-06T13:37:30.000Z</time>
      </trkpt>
      <trkpt lat="43.69861" lon="3.92912">
        <ele>117.42507296378</ele>
        <time>2020-06-06T13:37:31.000Z</time>
      </trkpt>
      <trkpt lat="43.69861" lon="3.92915">
        <ele>117.22918651649</ele>
        <time>2020-06-06T13:37:32.000Z</time>
      </trkpt>
      <trkpt lat="43.69861" lon="3.92919">
        <ele>117.0333000692</ele>
        <time>2020-06-06T13:37:33.000Z</time>
      </trkpt>
      <trkpt lat="43.69861" lon="3.92922">
        <ele>116.82921744856</ele>
        <time>2020-06-06T13:37:34.000Z</time>
      </trkpt>
      <trkpt lat="43.69862" lon="3.92925">
        <ele>116.62345613169</ele>
        <time>2020-06-06T13:37:35.000Z</time>
      </trkpt>
      <trkpt lat="43.69863" lon="3.92929">
        <ele>116.41769481481</ele>
        <time>2020-06-06T13:37:36.000Z</time>
      </trkpt>
      <trkpt lat="43.69862" lon="3.92933">
        <ele>116.21193349794</ele>
        <time>2020-06-06T13:37:37.000Z</time>
      </trkpt>
      <trkpt lat="43.6986" lon="3.92937">
        <ele>116.00617218107</ele>
        <time>2020-06-06T13:37:38.000Z</time>
      </trkpt>
      <trkpt lat="43.69856" lon="3.9294">
        <ele>115.8004108642</ele>
        <time>2020-06-06T13:37:39.000Z</time>
      </trkpt>
      <trkpt lat="43.69852" lon="3.92943">
        <ele>115.59464954733</ele>
        <time>2020-06-06T13:37:40.000Z</time>
      </trkpt>
      <trkpt lat="43.69848" lon="3.92946">
        <ele>115.38888823045</ele>
        <time>2020-06-06T13:37:41.000Z</time>
      </trkpt>
      <trkpt lat="43.69843" lon="3.92949">
        <ele>115.18312691358</ele>
        <time>2020-06-06T13:37:42.000Z</time>
      </trkpt>
      <trkpt lat="43.69838" lon="3.92953">
        <ele>114.96742257776</ele>
        <time>2020-06-06T13:37:43.000Z</time>
      </trkpt>
      <trkpt lat="43.69834" lon="3.92956">
        <ele>114.67127280906</ele>
        <time>2020-06-06T13:37:44.000Z</time>
      </trkpt>
      <trkpt lat="43.69829" lon="3.9296">
        <ele>114.37512304036</ele>
        <time>2020-06-06T13:37:45.000Z</time>
      </trkpt>
      <trkpt lat="43.69825" lon="3.92963">
        <ele>114.07897327165</ele>
        <time>2020-06-06T13:37:46.000Z</time>
      </trkpt>
      <trkpt lat="43.6982" lon="3.92968">
        <ele>113.78282350295</ele>
        <time>2020-06-06T13:37:47.000Z</time>
      </trkpt>
      <trkpt lat="43.69816" lon="3.92972">
        <ele>113.48667373425</ele>
        <time>2020-06-06T13:37:48.000Z</time>
      </trkpt>
      <trkpt lat="43.69813" lon="3.92975">
        <ele>113.19052396554</ele>
        <time>2020-06-06T13:37:49.000Z</time>
      </trkpt>
      <trkpt lat="43.69811" lon="3.92978">
        <ele>112.89437419684</ele>
        <time>2020-06-06T13:37:50.000Z</time>
      </trkpt>
      <trkpt lat="43.69809" lon="3.92981">
        <ele>112.59822442814</ele>
        <time>2020-06-06T13:37:51.000Z</time>
      </trkpt>
      <trkpt lat="43.69808" lon="3.92984">
        <ele>112.30207465944</ele>
        <time>2020-06-06T13:37:52.000Z</time>
      </trkpt>
      <trkpt lat="43.69807" lon="3.92987">
        <ele>112.00592489073</ele>
        <time>2020-06-06T13:37:53.000Z</time>
      </trkpt>
      <trkpt lat="43.69806" lon="3.92991">
        <ele>111.90070977171</ele>
        <time>2020-06-06T13:37:54.000Z</time>
      </trkpt>
      <trkpt lat="43.69805" lon="3.92996">
        <ele>111.79939255057</ele>
        <time>2020-06-06T13:37:55.000Z</time>
      </trkpt>
      <trkpt lat="43.69803" lon="3.93001">
        <ele>111.69807532943</ele>
        <time>2020-06-06T13:37:56.000Z</time>
      </trkpt>
      <trkpt lat="43.69801" lon="3.93005">
        <ele>111.5967581083</ele>
        <time>2020-06-06T13:37:57.000Z</time>
      </trkpt>
      <trkpt lat="43.698" lon="3.93008">
        <ele>111.49544088716</ele>
        <time>2020-06-06T13:37:58.000Z</time>
      </trkpt>
      <trkpt lat="43.69799" lon="3.93011">
        <ele>110.2604032382</ele>
        <time>2020-06-06T13:38:06.000Z</time>
      </trkpt>
      <trkpt lat="43.69799" lon="3.9301">
        <ele>109.07134214367</ele>
        <time>2020-06-06T13:38:11.000Z</time>
      </trkpt>
      <trkpt lat="43.69795" lon="3.93014">
        <ele>106.0430891782</ele>
        <time>2020-06-06T13:38:48.000Z</time>
      </trkpt>
      <trkpt lat="43.69792" lon="3.93015">
        <ele>106</ele>
        <time>2020-06-06T13:38:50.000Z</time>
      </trkpt>
      <trkpt lat="43.6979" lon="3.93017">
        <ele>106</ele>
        <time>2020-06-06T13:38:52.000Z</time>
      </trkpt>
      <trkpt lat="43.69788" lon="3.93022">
        <ele>106</ele>
        <time>2020-06-06T13:38:54.000Z</time>
      </trkpt>
      <trkpt lat="43.69788" lon="3.93026">
        <ele>106</ele>
        <time>2020-06-06T13:38:56.000Z</time>
      </trkpt>
      <trkpt lat="43.69789" lon="3.93031">
        <ele>106</ele>
        <time>2020-06-06T13:38:58.000Z</time>
      </trkpt>
      <trkpt lat="43.69789" lon="3.93035">
        <ele>106</ele>
        <time>2020-06-06T13:39:00.000Z</time>
      </trkpt>
      <trkpt lat="43.6979" lon="3.9304">
        <ele>106</ele>
        <time>2020-06-06T13:39:02.000Z</time>
      </trkpt>
      <trkpt lat="43.69791" lon="3.93044">
        <ele>106</ele>
        <time>2020-06-06T13:39:04.000Z</time>
      </trkpt>
      <trkpt lat="43.69791" lon="3.93049">
        <ele>106</ele>
        <time>2020-06-06T13:39:06.000Z</time>
      </trkpt>
      <trkpt lat="43.69793" lon="3.93053">
        <ele>106</ele>
        <time>2020-06-06T13:39:08.000Z</time>
      </trkpt>
      <trkpt lat="43.69795" lon="3.93056">
        <ele>106.18827193416</ele>
        <time>2020-06-06T13:39:10.000Z</time>
      </trkpt>
      <trkpt lat="43.69797" lon="3.93059">
        <ele>106.39403325103</ele>
        <time>2020-06-06T13:39:12.000Z</time>
      </trkpt>
      <trkpt lat="43.69798" lon="3.93062">
        <ele>106.49691390946</ele>
        <time>2020-06-06T13:39:13.000Z</time>
      </trkpt>
      <trkpt lat="43.69799" lon="3.93066">
        <ele>106.70267522634</ele>
        <time>2020-06-06T13:39:15.000Z</time>
      </trkpt>
      <trkpt lat="43.698" lon="3.93068">
        <ele>106.80555588477</ele>
        <time>2020-06-06T13:39:16.000Z</time>
      </trkpt>
      <trkpt lat="43.69801" lon="3.93071">
        <ele>106.90843654321</ele>
        <time>2020-06-06T13:39:17.000Z</time>
      </trkpt>
      <trkpt lat="43.69803" lon="3.93073">
        <ele>107</ele>
        <time>2020-06-06T13:39:18.000Z</time>
      </trkpt>
      <trkpt lat="43.69804" lon="3.93075">
        <ele>107</ele>
        <time>2020-06-06T13:39:19.000Z</time>
      </trkpt>
      <trkpt lat="43.69805" lon="3.93077">
        <ele>107</ele>
        <time>2020-06-06T13:39:20.000Z</time>
      </trkpt>
      <trkpt lat="43.69806" lon="3.9308">
        <ele>107</ele>
        <time>2020-06-06T13:39:21.000Z</time>
      </trkpt>
      <trkpt lat="43.69807" lon="3.93082">
        <ele>107</ele>
        <time>2020-06-06T13:39:22.000Z</time>
      </trkpt>
      <trkpt lat="43.69808" lon="3.93085">
        <ele>107</ele>
        <time>2020-06-06T13:39:23.000Z</time>
      </trkpt>
      <trkpt lat="43.69809" lon="3.93088">
        <ele>107</ele>
        <time>2020-06-06T13:39:24.000Z</time>
      </trkpt>
      <trkpt lat="43.69811" lon="3.93091">
        <ele>107</ele>
        <time>2020-06-06T13:39:25.000Z</time>
      </trkpt>
      <trkpt lat="43.69812" lon="3.93093">
        <ele>107</ele>
        <time>2020-06-06T13:39:26.000Z</time>
      </trkpt>
      <trkpt lat="43.69813" lon="3.93096">
        <ele>107</ele>
        <time>2020-06-06T13:39:27.000Z</time>
      </trkpt>
      <trkpt lat="43.69814" lon="3.93099">
        <ele>107.0050248024</ele>
        <time>2020-06-06T13:39:28.000Z</time>
      </trkpt>
      <trkpt lat="43.69815" lon="3.93102">
        <ele>107.10552728264</ele>
        <time>2020-06-06T13:39:29.000Z</time>
      </trkpt>
      <trkpt lat="43.69816" lon="3.93105">
        <ele>107.20602976288</ele>
        <time>2020-06-06T13:39:30.000Z</time>
      </trkpt>
      <trkpt lat="43.69817" lon="3.93108">
        <ele>107.30653224313</ele>
        <time>2020-06-06T13:39:31.000Z</time>
      </trkpt>
      <trkpt lat="43.69818" lon="3.9311">
        <ele>107.40703472337</ele>
        <time>2020-06-06T13:39:32.000Z</time>
      </trkpt>
      <trkpt lat="43.69819" lon="3.93113">
        <ele>107.50753720361</ele>
        <time>2020-06-06T13:39:33.000Z</time>
      </trkpt>
      <trkpt lat="43.6982" lon="3.93117">
        <ele>107.60803968385</ele>
        <time>2020-06-06T13:39:34.000Z</time>
      </trkpt>
      <trkpt lat="43.69821" lon="3.9312">
        <ele>107.70854216409</ele>
        <time>2020-06-06T13:39:35.000Z</time>
      </trkpt>
      <trkpt lat="43.69822" lon="3.93123">
        <ele>107.80904464433</ele>
        <time>2020-06-06T13:39:36.000Z</time>
      </trkpt>
      <trkpt lat="43.69823" lon="3.93126">
        <ele>107.90954712457</ele>
        <time>2020-06-06T13:39:37.000Z</time>
      </trkpt>
      <trkpt lat="43.69825" lon="3.93129">
        <ele>108.01000937899</ele>
        <time>2020-06-06T13:39:38.000Z</time>
      </trkpt>
      <trkpt lat="43.69826" lon="3.93132">
        <ele>108.11010957528</ele>
        <time>2020-06-06T13:39:39.000Z</time>
      </trkpt>
      <trkpt lat="43.69827" lon="3.93135">
        <ele>108.21020977157</ele>
        <time>2020-06-06T13:39:40.000Z</time>
      </trkpt>
      <trkpt lat="43.69829" lon="3.93138">
        <ele>108.31030996786</ele>
        <time>2020-06-06T13:39:41.000Z</time>
      </trkpt>
      <trkpt lat="43.6983" lon="3.93142">
        <ele>108.41041016416</ele>
        <time>2020-06-06T13:39:42.000Z</time>
      </trkpt>
      <trkpt lat="43.69832" lon="3.93146">
        <ele>108.51051036045</ele>
        <time>2020-06-06T13:39:43.000Z</time>
      </trkpt>
      <trkpt lat="43.69833" lon="3.93149">
        <ele>108.61061055674</ele>
        <time>2020-06-06T13:39:44.000Z</time>
      </trkpt>
      <trkpt lat="43.69835" lon="3.93152">
        <ele>108.71071075304</ele>
        <time>2020-06-06T13:39:45.000Z</time>
      </trkpt>
      <trkpt lat="43.69836" lon="3.93156">
        <ele>108.81081094933</ele>
        <time>2020-06-06T13:39:46.000Z</time>
      </trkpt>
      <trkpt lat="43.69837" lon="3.93158">
        <ele>108.91091114562</ele>
        <time>2020-06-06T13:39:47.000Z</time>
      </trkpt>
      <trkpt lat="43.69838" lon="3.93161">
        <ele>109.02409706119</ele>
        <time>2020-06-06T13:39:48.000Z</time>
      </trkpt>
      <trkpt lat="43.69839" lon="3.93164">
        <ele>109.24315488124</ele>
        <time>2020-06-06T13:39:49.000Z</time>
      </trkpt>
      <trkpt lat="43.6984" lon="3.93168">
        <ele>109.68127052134</ele>
        <time>2020-06-06T13:39:51.000Z</time>
      </trkpt>
      <trkpt lat="43.69841" lon="3.9317">
        <ele>110.11938616143</ele>
        <time>2020-06-06T13:39:53.000Z</time>
      </trkpt>
      <trkpt lat="43.69841" lon="3.93171">
        <ele>110.99561744163</ele>
        <time>2020-06-06T13:39:57.000Z</time>
      </trkpt>
      <trkpt lat="43.69846" lon="3.93174">
        <ele>111.99477636359</ele>
        <time>2020-06-06T13:40:58.000Z</time>
      </trkpt>
      <trkpt lat="43.69848" lon="3.93178">
        <ele>112</ele>
        <time>2020-06-06T13:41:00.000Z</time>
      </trkpt>
      <trkpt lat="43.6985" lon="3.93181">
        <ele>112</ele>
        <time>2020-06-06T13:41:02.000Z</time>
      </trkpt>
      <trkpt lat="43.69853" lon="3.93185">
        <ele>112</ele>
        <time>2020-06-06T13:41:04.000Z</time>
      </trkpt>
      <trkpt lat="43.69854" lon="3.93186">
        <ele>112</ele>
        <time>2020-06-06T13:41:05.000Z</time>
      </trkpt>
      <trkpt lat="43.69856" lon="3.93188">
        <ele>112</ele>
        <time>2020-06-06T13:41:06.000Z</time>
      </trkpt>
      <trkpt lat="43.69858" lon="3.93191">
        <ele>112</ele>
        <time>2020-06-06T13:41:08.000Z</time>
      </trkpt>
      <trkpt lat="43.6986" lon="3.93193">
        <ele>112</ele>
        <time>2020-06-06T13:41:09.000Z</time>
      </trkpt>
      <trkpt lat="43.69862" lon="3.93195">
        <ele>112</ele>
        <time>2020-06-06T13:41:10.000Z</time>
      </trkpt>
      <trkpt lat="43.69864" lon="3.93197">
        <ele>112</ele>
        <time>2020-06-06T13:41:11.000Z</time>
      </trkpt>
      <trkpt lat="43.69866" lon="3.93199">
        <ele>112</ele>
        <time>2020-06-06T13:41:12.000Z</time>
      </trkpt>
      <trkpt lat="43.69868" lon="3.93201">
        <ele>112</ele>
        <time>2020-06-06T13:41:13.000Z</time>
      </trkpt>
      <trkpt lat="43.6987" lon="3.93204">
        <ele>112</ele>
        <time>2020-06-06T13:41:14.000Z</time>
      </trkpt>
      <trkpt lat="43.69871" lon="3.93206">
        <ele>112</ele>
        <time>2020-06-06T13:41:15.000Z</time>
      </trkpt>
      <trkpt lat="43.69873" lon="3.93208">
        <ele>112</ele>
        <time>2020-06-06T13:41:16.000Z</time>
      </trkpt>
      <trkpt lat="43.69875" lon="3.93211">
        <ele>112</ele>
        <time>2020-06-06T13:41:17.000Z</time>
      </trkpt>
      <trkpt lat="43.69877" lon="3.93213">
        <ele>112</ele>
        <time>2020-06-06T13:41:18.000Z</time>
      </trkpt>
      <trkpt lat="43.69879" lon="3.93216">
        <ele>112</ele>
        <time>2020-06-06T13:41:19.000Z</time>
      </trkpt>
      <trkpt lat="43.6988" lon="3.93219">
        <ele>112</ele>
        <time>2020-06-06T13:41:20.000Z</time>
      </trkpt>
      <trkpt lat="43.69881" lon="3.93221">
        <ele>112</ele>
        <time>2020-06-06T13:41:21.000Z</time>
      </trkpt>
      <trkpt lat="43.69883" lon="3.93224">
        <ele>112</ele>
        <time>2020-06-06T13:41:22.000Z</time>
      </trkpt>
      <trkpt lat="43.69884" lon="3.93227">
        <ele>112</ele>
        <time>2020-06-06T13:41:23.000Z</time>
      </trkpt>
      <trkpt lat="43.69885" lon="3.9323">
        <ele>112</ele>
        <time>2020-06-06T13:41:24.000Z</time>
      </trkpt>
      <trkpt lat="43.69886" lon="3.93233">
        <ele>112</ele>
        <time>2020-06-06T13:41:25.000Z</time>
      </trkpt>
      <trkpt lat="43.69887" lon="3.93236">
        <ele>112</ele>
        <time>2020-06-06T13:41:26.000Z</time>
      </trkpt>
      <trkpt lat="43.69888" lon="3.9324">
        <ele>112</ele>
        <time>2020-06-06T13:41:27.000Z</time>
      </trkpt>
      <trkpt lat="43.69889" lon="3.93243">
        <ele>112.01098932013</ele>
        <time>2020-06-06T13:41:28.000Z</time>
      </trkpt>
      <trkpt lat="43.69889" lon="3.93246">
        <ele>112.11088932422</ele>
        <time>2020-06-06T13:41:29.000Z</time>
      </trkpt>
      <trkpt lat="43.69889" lon="3.9325">
        <ele>112.21078932831</ele>
        <time>2020-06-06T13:41:30.000Z</time>
      </trkpt>
      <trkpt lat="43.6989" lon="3.93253">
        <ele>112.31068933241</ele>
        <time>2020-06-06T13:41:31.000Z</time>
      </trkpt>
      <trkpt lat="43.69889" lon="3.93256">
        <ele>112.4105893365</ele>
        <time>2020-06-06T13:41:32.000Z</time>
      </trkpt>
      <trkpt lat="43.69889" lon="3.9326">
        <ele>112.51048934059</ele>
        <time>2020-06-06T13:41:33.000Z</time>
      </trkpt>
      <trkpt lat="43.69889" lon="3.93263">
        <ele>112.61038934468</ele>
        <time>2020-06-06T13:41:34.000Z</time>
      </trkpt>
      <trkpt lat="43.69889" lon="3.93267">
        <ele>112.71028934877</ele>
        <time>2020-06-06T13:41:35.000Z</time>
      </trkpt>
      <trkpt lat="43.69889" lon="3.9327">
        <ele>112.81018935286</ele>
        <time>2020-06-06T13:41:36.000Z</time>
      </trkpt>
      <trkpt lat="43.69888" lon="3.93273">
        <ele>112.91008935696</ele>
        <time>2020-06-06T13:41:37.000Z</time>
      </trkpt>
      <trkpt lat="43.69888" lon="3.93276">
        <ele>113</ele>
        <time>2020-06-06T13:41:38.000Z</time>
      </trkpt>
      <trkpt lat="43.69888" lon="3.93279">
        <ele>113</ele>
        <time>2020-06-06T13:41:39.000Z</time>
      </trkpt>
      <trkpt lat="43.69886" lon="3.93283">
        <ele>113</ele>
        <time>2020-06-06T13:41:40.000Z</time>
      </trkpt>
      <trkpt lat="43.69885" lon="3.93287">
        <ele>113</ele>
        <time>2020-06-06T13:41:41.000Z</time>
      </trkpt>
      <trkpt lat="43.69884" lon="3.93291">
        <ele>113</ele>
        <time>2020-06-06T13:41:42.000Z</time>
      </trkpt>
      <trkpt lat="43.69883" lon="3.93295">
        <ele>113</ele>
        <time>2020-06-06T13:41:43.000Z</time>
      </trkpt>
      <trkpt lat="43.69883" lon="3.933">
        <ele>113</ele>
        <time>2020-06-06T13:41:44.000Z</time>
      </trkpt>
      <trkpt lat="43.69883" lon="3.93305">
        <ele>113</ele>
        <time>2020-06-06T13:41:45.000Z</time>
      </trkpt>
      <trkpt lat="43.69883" lon="3.93309">
        <ele>113</ele>
        <time>2020-06-06T13:41:46.000Z</time>
      </trkpt>
      <trkpt lat="43.69885" lon="3.93314">
        <ele>113</ele>
        <time>2020-06-06T13:41:47.000Z</time>
      </trkpt>
      <trkpt lat="43.69886" lon="3.93318">
        <ele>113</ele>
        <time>2020-06-06T13:41:48.000Z</time>
      </trkpt>
      <trkpt lat="43.69887" lon="3.93322">
        <ele>113</ele>
        <time>2020-06-06T13:41:49.000Z</time>
      </trkpt>
      <trkpt lat="43.69889" lon="3.93325">
        <ele>113</ele>
        <time>2020-06-06T13:41:50.000Z</time>
      </trkpt>
      <trkpt lat="43.69891" lon="3.93328">
        <ele>113</ele>
        <time>2020-06-06T13:41:51.000Z</time>
      </trkpt>
      <trkpt lat="43.69893" lon="3.93332">
        <ele>113</ele>
        <time>2020-06-06T13:41:52.000Z</time>
      </trkpt>
      <trkpt lat="43.69895" lon="3.93335">
        <ele>113</ele>
        <time>2020-06-06T13:41:53.000Z</time>
      </trkpt>
      <trkpt lat="43.69897" lon="3.93338">
        <ele>113</ele>
        <time>2020-06-06T13:41:54.000Z</time>
      </trkpt>
      <trkpt lat="43.69899" lon="3.93342">
        <ele>113</ele>
        <time>2020-06-06T13:41:55.000Z</time>
      </trkpt>
      <trkpt lat="43.69902" lon="3.93345">
        <ele>113</ele>
        <time>2020-06-06T13:41:56.000Z</time>
      </trkpt>
      <trkpt lat="43.69904" lon="3.93348">
        <ele>113</ele>
        <time>2020-06-06T13:41:57.000Z</time>
      </trkpt>
      <trkpt lat="43.69906" lon="3.93352">
        <ele>113</ele>
        <time>2020-06-06T13:41:58.000Z</time>
      </trkpt>
      <trkpt lat="43.69908" lon="3.93355">
        <ele>113</ele>
        <time>2020-06-06T13:41:59.000Z</time>
      </trkpt>
      <trkpt lat="43.6991" lon="3.93357">
        <ele>113</ele>
        <time>2020-06-06T13:42:00.000Z</time>
      </trkpt>
      <trkpt lat="43.69913" lon="3.9336">
        <ele>113</ele>
        <time>2020-06-06T13:42:01.000Z</time>
      </trkpt>
      <trkpt lat="43.69915" lon="3.93363">
        <ele>113</ele>
        <time>2020-06-06T13:42:02.000Z</time>
      </trkpt>
      <trkpt lat="43.69918" lon="3.93366">
        <ele>113</ele>
        <time>2020-06-06T13:42:03.000Z</time>
      </trkpt>
      <trkpt lat="43.69921" lon="3.93369">
        <ele>113</ele>
        <time>2020-06-06T13:42:04.000Z</time>
      </trkpt>
      <trkpt lat="43.69923" lon="3.93372">
        <ele>113</ele>
        <time>2020-06-06T13:42:05.000Z</time>
      </trkpt>
      <trkpt lat="43.69926" lon="3.93376">
        <ele>113</ele>
        <time>2020-06-06T13:42:06.000Z</time>
      </trkpt>
      <trkpt lat="43.69929" lon="3.93379">
        <ele>113</ele>
        <time>2020-06-06T13:42:07.000Z</time>
      </trkpt>
      <trkpt lat="43.69932" lon="3.93383">
        <ele>113.01070070039</ele>
        <time>2020-06-06T13:42:08.000Z</time>
      </trkpt>
      <trkpt lat="43.69935" lon="3.93387">
        <ele>113.10797696498</ele>
        <time>2020-06-06T13:42:09.000Z</time>
      </trkpt>
      <trkpt lat="43.69938" lon="3.9339">
        <ele>113.20525322957</ele>
        <time>2020-06-06T13:42:10.000Z</time>
      </trkpt>
      <trkpt lat="43.69941" lon="3.93393">
        <ele>113.30252949416</ele>
        <time>2020-06-06T13:42:11.000Z</time>
      </trkpt>
      <trkpt lat="43.69944" lon="3.93397">
        <ele>113.39980575875</ele>
        <time>2020-06-06T13:42:12.000Z</time>
      </trkpt>
      <trkpt lat="43.69947" lon="3.934">
        <ele>113.49708202335</ele>
        <time>2020-06-06T13:42:13.000Z</time>
      </trkpt>
      <trkpt lat="43.6995" lon="3.93403">
        <ele>113.59435828794</ele>
        <time>2020-06-06T13:42:14.000Z</time>
      </trkpt>
      <trkpt lat="43.69953" lon="3.93406">
        <ele>113.69163455253</ele>
        <time>2020-06-06T13:42:15.000Z</time>
      </trkpt>
      <trkpt lat="43.69956" lon="3.93409">
        <ele>113.78891081712</ele>
        <time>2020-06-06T13:42:16.000Z</time>
      </trkpt>
      <trkpt lat="43.69959" lon="3.93412">
        <ele>113.88618708171</ele>
        <time>2020-06-06T13:42:17.000Z</time>
      </trkpt>
      <trkpt lat="43.69962" lon="3.93415">
        <ele>113.9834633463</ele>
        <time>2020-06-06T13:42:18.000Z</time>
      </trkpt>
      <trkpt lat="43.69964" lon="3.93419">
        <ele>114</ele>
        <time>2020-06-06T13:42:19.000Z</time>
      </trkpt>
      <trkpt lat="43.69967" lon="3.93422">
        <ele>114</ele>
        <time>2020-06-06T13:42:20.000Z</time>
      </trkpt>
      <trkpt lat="43.69969" lon="3.93425">
        <ele>114</ele>
        <time>2020-06-06T13:42:21.000Z</time>
      </trkpt>
      <trkpt lat="43.69971" lon="3.93429">
        <ele>114</ele>
        <time>2020-06-06T13:42:22.000Z</time>
      </trkpt>
      <trkpt lat="43.69973" lon="3.93433">
        <ele>114</ele>
        <time>2020-06-06T13:42:23.000Z</time>
      </trkpt>
      <trkpt lat="43.69976" lon="3.93437">
        <ele>114</ele>
        <time>2020-06-06T13:42:24.000Z</time>
      </trkpt>
      <trkpt lat="43.69977" lon="3.93441">
        <ele>114</ele>
        <time>2020-06-06T13:42:25.000Z</time>
      </trkpt>
      <trkpt lat="43.69979" lon="3.93444">
        <ele>114</ele>
        <time>2020-06-06T13:42:26.000Z</time>
      </trkpt>
      <trkpt lat="43.6998" lon="3.93448">
        <ele>114</ele>
        <time>2020-06-06T13:42:27.000Z</time>
      </trkpt>
      <trkpt lat="43.69981" lon="3.93452">
        <ele>114.02200064</ele>
        <time>2020-06-06T13:42:28.000Z</time>
      </trkpt>
      <trkpt lat="43.69982" lon="3.93456">
        <ele>114.22200064</ele>
        <time>2020-06-06T13:42:29.000Z</time>
      </trkpt>
      <trkpt lat="43.69982" lon="3.9346">
        <ele>114.42200064</ele>
        <time>2020-06-06T13:42:30.000Z</time>
      </trkpt>
      <trkpt lat="43.69983" lon="3.93464">
        <ele>114.62200064</ele>
        <time>2020-06-06T13:42:31.000Z</time>
      </trkpt>
      <trkpt lat="43.69983" lon="3.93468">
        <ele>114.82200064</ele>
        <time>2020-06-06T13:42:32.000Z</time>
      </trkpt>
      <trkpt lat="43.69983" lon="3.93471">
        <ele>115.02200064</ele>
        <time>2020-06-06T13:42:33.000Z</time>
      </trkpt>
      <trkpt lat="43.69983" lon="3.93474">
        <ele>115.22200064</ele>
        <time>2020-06-06T13:42:34.000Z</time>
      </trkpt>
      <trkpt lat="43.69983" lon="3.93477">
        <ele>115.42200064</ele>
        <time>2020-06-06T13:42:35.000Z</time>
      </trkpt>
      <trkpt lat="43.69983" lon="3.9348">
        <ele>115.62200064</ele>
        <time>2020-06-06T13:42:36.000Z</time>
      </trkpt>
      <trkpt lat="43.69983" lon="3.93483">
        <ele>115.82200064</ele>
        <time>2020-06-06T13:42:37.000Z</time>
      </trkpt>
      <trkpt lat="43.69983" lon="3.93487">
        <ele>116.01100032</ele>
        <time>2020-06-06T13:42:38.000Z</time>
      </trkpt>
      <trkpt lat="43.69983" lon="3.9349">
        <ele>116.11100032</ele>
        <time>2020-06-06T13:42:39.000Z</time>
      </trkpt>
      <trkpt lat="43.69984" lon="3.93493">
        <ele>116.21100032</ele>
        <time>2020-06-06T13:42:40.000Z</time>
      </trkpt>
      <trkpt lat="43.69984" lon="3.93495">
        <ele>116.31100032</ele>
        <time>2020-06-06T13:42:41.000Z</time>
      </trkpt>
      <trkpt lat="43.69984" lon="3.935">
        <ele>116.51100032</ele>
        <time>2020-06-06T13:42:43.000Z</time>
      </trkpt>
      <trkpt lat="43.69984" lon="3.93505">
        <ele>116.71100032</ele>
        <time>2020-06-06T13:42:45.000Z</time>
      </trkpt>
      <trkpt lat="43.69983" lon="3.93508">
        <ele>116.81100032</ele>
        <time>2020-06-06T13:42:46.000Z</time>
      </trkpt>
      <trkpt lat="43.69983" lon="3.93511">
        <ele>116.91100032</ele>
        <time>2020-06-06T13:42:47.000Z</time>
      </trkpt>
      <trkpt lat="43.69983" lon="3.93514">
        <ele>117</ele>
        <time>2020-06-06T13:42:48.000Z</time>
      </trkpt>
      <trkpt lat="43.69982" lon="3.93516">
        <ele>117</ele>
        <time>2020-06-06T13:42:49.000Z</time>
      </trkpt>
      <trkpt lat="43.69982" lon="3.93519">
        <ele>117</ele>
        <time>2020-06-06T13:42:50.000Z</time>
      </trkpt>
      <trkpt lat="43.69981" lon="3.93522">
        <ele>117</ele>
        <time>2020-06-06T13:42:51.000Z</time>
      </trkpt>
      <trkpt lat="43.6998" lon="3.93525">
        <ele>117</ele>
        <time>2020-06-06T13:42:52.000Z</time>
      </trkpt>
      <trkpt lat="43.69979" lon="3.93527">
        <ele>117</ele>
        <time>2020-06-06T13:42:53.000Z</time>
      </trkpt>
      <trkpt lat="43.69978" lon="3.9353">
        <ele>117</ele>
        <time>2020-06-06T13:42:54.000Z</time>
      </trkpt>
      <trkpt lat="43.69977" lon="3.93532">
        <ele>117</ele>
        <time>2020-06-06T13:42:55.000Z</time>
      </trkpt>
      <trkpt lat="43.69976" lon="3.93534">
        <ele>117</ele>
        <time>2020-06-06T13:42:56.000Z</time>
      </trkpt>
      <trkpt lat="43.69975" lon="3.93536">
        <ele>117</ele>
        <time>2020-06-06T13:42:57.000Z</time>
      </trkpt>
      <trkpt lat="43.69974" lon="3.93539">
        <ele>117</ele>
        <time>2020-06-06T13:42:58.000Z</time>
      </trkpt>
      <trkpt lat="43.69973" lon="3.93541">
        <ele>116.82921744856</ele>
        <time>2020-06-06T13:42:59.000Z</time>
      </trkpt>
      <trkpt lat="43.69972" lon="3.93544">
        <ele>116.62345613169</ele>
        <time>2020-06-06T13:43:00.000Z</time>
      </trkpt>
      <trkpt lat="43.6997" lon="3.93546">
        <ele>116.41769481481</ele>
        <time>2020-06-06T13:43:01.000Z</time>
      </trkpt>
      <trkpt lat="43.69969" lon="3.93548">
        <ele>116.21193349794</ele>
        <time>2020-06-06T13:43:02.000Z</time>
      </trkpt>
      <trkpt lat="43.69967" lon="3.9355">
        <ele>116.00617218107</ele>
        <time>2020-06-06T13:43:03.000Z</time>
      </trkpt>
      <trkpt lat="43.69964" lon="3.93552">
        <ele>115.8004108642</ele>
        <time>2020-06-06T13:43:04.000Z</time>
      </trkpt>
      <trkpt lat="43.69962" lon="3.93555">
        <ele>115.59464954733</ele>
        <time>2020-06-06T13:43:05.000Z</time>
      </trkpt>
      <trkpt lat="43.69959" lon="3.93557">
        <ele>115.38888823045</ele>
        <time>2020-06-06T13:43:06.000Z</time>
      </trkpt>
      <trkpt lat="43.69956" lon="3.9356">
        <ele>115.18312691358</ele>
        <time>2020-06-06T13:43:07.000Z</time>
      </trkpt>
      <trkpt lat="43.69953" lon="3.93563">
        <ele>114.9563912407</ele>
        <time>2020-06-06T13:43:08.000Z</time>
      </trkpt>
      <trkpt lat="43.69949" lon="3.93566">
        <ele>114.55995950688</ele>
        <time>2020-06-06T13:43:09.000Z</time>
      </trkpt>
      <trkpt lat="43.69946" lon="3.93569">
        <ele>114.16352777306</ele>
        <time>2020-06-06T13:43:10.000Z</time>
      </trkpt>
      <trkpt lat="43.69942" lon="3.93572">
        <ele>113.76709603923</ele>
        <time>2020-06-06T13:43:11.000Z</time>
      </trkpt>
      <trkpt lat="43.69939" lon="3.93576">
        <ele>113.37066430541</ele>
        <time>2020-06-06T13:43:12.000Z</time>
      </trkpt>
      <trkpt lat="43.69936" lon="3.93581">
        <ele>112.97423257159</ele>
        <time>2020-06-06T13:43:13.000Z</time>
      </trkpt>
      <trkpt lat="43.69932" lon="3.93585">
        <ele>112.57780083777</ele>
        <time>2020-06-06T13:43:14.000Z</time>
      </trkpt>
      <trkpt lat="43.69928" lon="3.9359">
        <ele>112.18136910395</ele>
        <time>2020-06-06T13:43:15.000Z</time>
      </trkpt>
      <trkpt lat="43.69924" lon="3.93595">
        <ele>111.78493737013</ele>
        <time>2020-06-06T13:43:16.000Z</time>
      </trkpt>
      <trkpt lat="43.69919" lon="3.936">
        <ele>111.38850563631</ele>
        <time>2020-06-06T13:43:17.000Z</time>
      </trkpt>
      <trkpt lat="43.69914" lon="3.93606">
        <ele>110.98789488232</ele>
        <time>2020-06-06T13:43:18.000Z</time>
      </trkpt>
      <trkpt lat="43.69908" lon="3.93612">
        <ele>110.38244525444</ele>
        <time>2020-06-06T13:43:19.000Z</time>
      </trkpt>
      <trkpt lat="43.69902" lon="3.93618">
        <ele>109.77699562656</ele>
        <time>2020-06-06T13:43:20.000Z</time>
      </trkpt>
      <trkpt lat="43.69896" lon="3.93624">
        <ele>109.17154599867</ele>
        <time>2020-06-06T13:43:21.000Z</time>
      </trkpt>
      <trkpt lat="43.69889" lon="3.93631">
        <ele>108.56609637079</ele>
        <time>2020-06-06T13:43:22.000Z</time>
      </trkpt>
      <trkpt lat="43.69882" lon="3.93639">
        <ele>107.96064674291</ele>
        <time>2020-06-06T13:43:23.000Z</time>
      </trkpt>
      <trkpt lat="43.69875" lon="3.93647">
        <ele>107.35519711502</ele>
        <time>2020-06-06T13:43:24.000Z</time>
      </trkpt>
      <trkpt lat="43.69868" lon="3.93654">
        <ele>106.74974748714</ele>
        <time>2020-06-06T13:43:25.000Z</time>
      </trkpt>
      <trkpt lat="43.69861" lon="3.93663">
        <ele>106.14429785926</ele>
        <time>2020-06-06T13:43:26.000Z</time>
      </trkpt>
      <trkpt lat="43.69854" lon="3.93671">
        <ele>105.53884823138</ele>
        <time>2020-06-06T13:43:27.000Z</time>
      </trkpt>
      <trkpt lat="43.69846" lon="3.93679">
        <ele>104.9449984</ele>
        <time>2020-06-06T13:43:28.000Z</time>
      </trkpt>
      <trkpt lat="43.69838" lon="3.93687">
        <ele>104.4449984</ele>
        <time>2020-06-06T13:43:29.000Z</time>
      </trkpt>
      <trkpt lat="43.69831" lon="3.93695">
        <ele>103.9449984</ele>
        <time>2020-06-06T13:43:30.000Z</time>
      </trkpt>
      <trkpt lat="43.69824" lon="3.93703">
        <ele>103.4449984</ele>
        <time>2020-06-06T13:43:31.000Z</time>
      </trkpt>
      <trkpt lat="43.69818" lon="3.9371">
        <ele>102.9449984</ele>
        <time>2020-06-06T13:43:32.000Z</time>
      </trkpt>
      <trkpt lat="43.69812" lon="3.93717">
        <ele>102.4449984</ele>
        <time>2020-06-06T13:43:33.000Z</time>
      </trkpt>
      <trkpt lat="43.69807" lon="3.93724">
        <ele>101.9449984</ele>
        <time>2020-06-06T13:43:34.000Z</time>
      </trkpt>
      <trkpt lat="43.69803" lon="3.93732">
        <ele>101.4449984</ele>
        <time>2020-06-06T13:43:35.000Z</time>
      </trkpt>
      <trkpt lat="43.698" lon="3.93741">
        <ele>100.9449984</ele>
        <time>2020-06-06T13:43:36.000Z</time>
      </trkpt>
      <trkpt lat="43.69798" lon="3.9375">
        <ele>100.4449984</ele>
        <time>2020-06-06T13:43:37.000Z</time>
      </trkpt>
      <trkpt lat="43.69797" lon="3.93761">
        <ele>99.9562176179</ele>
        <time>2020-06-06T13:43:38.000Z</time>
      </trkpt>
      <trkpt lat="43.69797" lon="3.93771">
        <ele>99.558207540922</ele>
        <time>2020-06-06T13:43:39.000Z</time>
      </trkpt>
      <trkpt lat="43.69797" lon="3.93781">
        <ele>99.160197463944</ele>
        <time>2020-06-06T13:43:40.000Z</time>
      </trkpt>
      <trkpt lat="43.69796" lon="3.93792">
        <ele>98.762187386965</ele>
        <time>2020-06-06T13:43:41.000Z</time>
      </trkpt>
      <trkpt lat="43.69795" lon="3.93802">
        <ele>98.364177309987</ele>
        <time>2020-06-06T13:43:42.000Z</time>
      </trkpt>
      <trkpt lat="43.69794" lon="3.93812">
        <ele>97.966167233009</ele>
        <time>2020-06-06T13:43:43.000Z</time>
      </trkpt>
      <trkpt lat="43.69793" lon="3.93822">
        <ele>97.56815715603</ele>
        <time>2020-06-06T13:43:44.000Z</time>
      </trkpt>
      <trkpt lat="43.69792" lon="3.93832">
        <ele>97.170147079052</ele>
        <time>2020-06-06T13:43:45.000Z</time>
      </trkpt>
      <trkpt lat="43.6979" lon="3.93842">
        <ele>96.772137002074</ele>
        <time>2020-06-06T13:43:46.000Z</time>
      </trkpt>
      <trkpt lat="43.69788" lon="3.93852">
        <ele>96.374126925095</ele>
        <time>2020-06-06T13:43:47.000Z</time>
      </trkpt>
      <trkpt lat="43.69785" lon="3.93862">
        <ele>95.975876831879</ele>
        <time>2020-06-06T13:43:48.000Z</time>
      </trkpt>
      <trkpt lat="43.69783" lon="3.93872">
        <ele>95.573866910917</ele>
        <time>2020-06-06T13:43:49.000Z</time>
      </trkpt>
      <trkpt lat="43.6978" lon="3.93882">
        <ele>95.171856989956</ele>
        <time>2020-06-06T13:43:50.000Z</time>
      </trkpt>
      <trkpt lat="43.69777" lon="3.93892">
        <ele>94.769847068994</ele>
        <time>2020-06-06T13:43:51.000Z</time>
      </trkpt>
      <trkpt lat="43.69774" lon="3.93902">
        <ele>94.367837148032</ele>
        <time>2020-06-06T13:43:52.000Z</time>
      </trkpt>
      <trkpt lat="43.69772" lon="3.93912">
        <ele>93.965827227071</ele>
        <time>2020-06-06T13:43:53.000Z</time>
      </trkpt>
      <trkpt lat="43.6977" lon="3.93922">
        <ele>93.563817306109</ele>
        <time>2020-06-06T13:43:54.000Z</time>
      </trkpt>
      <trkpt lat="43.69767" lon="3.93932">
        <ele>93.161807385147</ele>
        <time>2020-06-06T13:43:55.000Z</time>
      </trkpt>
      <trkpt lat="43.69765" lon="3.93943">
        <ele>92.759797464186</ele>
        <time>2020-06-06T13:43:56.000Z</time>
      </trkpt>
      <trkpt lat="43.69764" lon="3.93953">
        <ele>92.357787543224</ele>
        <time>2020-06-06T13:43:57.000Z</time>
      </trkpt>
      <trkpt lat="43.69762" lon="3.93963">
        <ele>91.9449984</ele>
        <time>2020-06-06T13:43:58.000Z</time>
      </trkpt>
      <trkpt lat="43.6976" lon="3.93973">
        <ele>91.4449984</ele>
        <time>2020-06-06T13:43:59.000Z</time>
      </trkpt>
      <trkpt lat="43.69758" lon="3.93983">
        <ele>90.9449984</ele>
        <time>2020-06-06T13:44:00.000Z</time>
      </trkpt>
      <trkpt lat="43.69757" lon="3.93992">
        <ele>90.4449984</ele>
        <time>2020-06-06T13:44:01.000Z</time>
      </trkpt>
      <trkpt lat="43.69755" lon="3.94002">
        <ele>89.9449984</ele>
        <time>2020-06-06T13:44:02.000Z</time>
      </trkpt>
      <trkpt lat="43.69753" lon="3.94011">
        <ele>89.4449984</ele>
        <time>2020-06-06T13:44:03.000Z</time>
      </trkpt>
      <trkpt lat="43.69752" lon="3.9402">
        <ele>88.9449984</ele>
        <time>2020-06-06T13:44:04.000Z</time>
      </trkpt>
      <trkpt lat="43.69751" lon="3.94029">
        <ele>88.4449984</ele>
        <time>2020-06-06T13:44:05.000Z</time>
      </trkpt>
      <trkpt lat="43.6975" lon="3.94037">
        <ele>87.9449984</ele>
        <time>2020-06-06T13:44:06.000Z</time>
      </trkpt>
      <trkpt lat="43.69749" lon="3.94046">
        <ele>87.4449984</ele>
        <time>2020-06-06T13:44:07.000Z</time>
      </trkpt>
      <trkpt lat="43.69748" lon="3.94055">
        <ele>86.97799936</ele>
        <time>2020-06-06T13:44:08.000Z</time>
      </trkpt>
      <trkpt lat="43.69748" lon="3.94063">
        <ele>86.77799936</ele>
        <time>2020-06-06T13:44:09.000Z</time>
      </trkpt>
      <trkpt lat="43.69747" lon="3.94072">
        <ele>86.57799936</ele>
        <time>2020-06-06T13:44:10.000Z</time>
      </trkpt>
      <trkpt lat="43.69745" lon="3.9408">
        <ele>86.37799936</ele>
        <time>2020-06-06T13:44:11.000Z</time>
      </trkpt>
      <trkpt lat="43.69743" lon="3.94087">
        <ele>86.17799936</ele>
        <time>2020-06-06T13:44:12.000Z</time>
      </trkpt>
      <trkpt lat="43.69741" lon="3.94094">
        <ele>85.97799936</ele>
        <time>2020-06-06T13:44:13.000Z</time>
      </trkpt>
      <trkpt lat="43.69739" lon="3.94101">
        <ele>85.77799936</ele>
        <time>2020-06-06T13:44:14.000Z</time>
      </trkpt>
      <trkpt lat="43.69736" lon="3.94108">
        <ele>85.57799936</ele>
        <time>2020-06-06T13:44:15.000Z</time>
      </trkpt>
      <trkpt lat="43.69734" lon="3.94114">
        <ele>85.37799936</ele>
        <time>2020-06-06T13:44:16.000Z</time>
      </trkpt>
      <trkpt lat="43.69732" lon="3.94121">
        <ele>85.17799936</ele>
        <time>2020-06-06T13:44:17.000Z</time>
      </trkpt>
      <trkpt lat="43.6973" lon="3.94127">
        <ele>84.978598599222</ele>
        <time>2020-06-06T13:44:18.000Z</time>
      </trkpt>
      <trkpt lat="43.69728" lon="3.94133">
        <ele>84.784046070039</ele>
        <time>2020-06-06T13:44:19.000Z</time>
      </trkpt>
      <trkpt lat="43.69726" lon="3.94139">
        <ele>84.589493540856</ele>
        <time>2020-06-06T13:44:20.000Z</time>
      </trkpt>
      <trkpt lat="43.69724" lon="3.94146">
        <ele>84.394941011673</ele>
        <time>2020-06-06T13:44:21.000Z</time>
      </trkpt>
      <trkpt lat="43.69723" lon="3.94153">
        <ele>84.20038848249</ele>
        <time>2020-06-06T13:44:22.000Z</time>
      </trkpt>
      <trkpt lat="43.69721" lon="3.94159">
        <ele>84.005835953307</ele>
        <time>2020-06-06T13:44:23.000Z</time>
      </trkpt>
      <trkpt lat="43.69719" lon="3.94166">
        <ele>83.811283424124</ele>
        <time>2020-06-06T13:44:24.000Z</time>
      </trkpt>
      <trkpt lat="43.69717" lon="3.94173">
        <ele>83.616730894942</ele>
        <time>2020-06-06T13:44:25.000Z</time>
      </trkpt>
      <trkpt lat="43.69716" lon="3.94179">
        <ele>83.422178365759</ele>
        <time>2020-06-06T13:44:26.000Z</time>
      </trkpt>
      <trkpt lat="43.69714" lon="3.94186">
        <ele>83.227625836576</ele>
        <time>2020-06-06T13:44:27.000Z</time>
      </trkpt>
      <trkpt lat="43.69712" lon="3.94192">
        <ele>83.033073307393</ele>
        <time>2020-06-06T13:44:28.000Z</time>
      </trkpt>
      <trkpt lat="43.6971" lon="3.94199">
        <ele>82.82921744856</ele>
        <time>2020-06-06T13:44:29.000Z</time>
      </trkpt>
      <trkpt lat="43.69708" lon="3.94206">
        <ele>82.623456131687</ele>
        <time>2020-06-06T13:44:30.000Z</time>
      </trkpt>
      <trkpt lat="43.69706" lon="3.94214">
        <ele>82.417694814815</ele>
        <time>2020-06-06T13:44:31.000Z</time>
      </trkpt>
      <trkpt lat="43.69704" lon="3.94222">
        <ele>82.211933497942</ele>
        <time>2020-06-06T13:44:32.000Z</time>
      </trkpt>
      <trkpt lat="43.69703" lon="3.94231">
        <ele>82.00617218107</ele>
        <time>2020-06-06T13:44:33.000Z</time>
      </trkpt>
      <trkpt lat="43.69702" lon="3.9424">
        <ele>81.800410864198</ele>
        <time>2020-06-06T13:44:34.000Z</time>
      </trkpt>
      <trkpt lat="43.69702" lon="3.9425">
        <ele>81.594649547325</ele>
        <time>2020-06-06T13:44:35.000Z</time>
      </trkpt>
      <trkpt lat="43.69702" lon="3.94259">
        <ele>81.388888230453</ele>
        <time>2020-06-06T13:44:36.000Z</time>
      </trkpt>
      <trkpt lat="43.69702" lon="3.94269">
        <ele>81.18312691358</ele>
        <time>2020-06-06T13:44:37.000Z</time>
      </trkpt>
      <trkpt lat="43.69702" lon="3.94279">
        <ele>81</ele>
        <time>2020-06-06T13:44:38.000Z</time>
      </trkpt>
      <trkpt lat="43.69702" lon="3.94289">
        <ele>81</ele>
        <time>2020-06-06T13:44:39.000Z</time>
      </trkpt>
      <trkpt lat="43.69702" lon="3.94298">
        <ele>81</ele>
        <time>2020-06-06T13:44:40.000Z</time>
      </trkpt>
      <trkpt lat="43.69702" lon="3.94307">
        <ele>81</ele>
        <time>2020-06-06T13:44:41.000Z</time>
      </trkpt>
      <trkpt lat="43.69702" lon="3.94317">
        <ele>81</ele>
        <time>2020-06-06T13:44:42.000Z</time>
      </trkpt>
      <trkpt lat="43.69702" lon="3.94326">
        <ele>81</ele>
        <time>2020-06-06T13:44:43.000Z</time>
      </trkpt>
      <trkpt lat="43.69702" lon="3.94333">
        <ele>81</ele>
        <time>2020-06-06T13:44:44.000Z</time>
      </trkpt>
      <trkpt lat="43.69701" lon="3.94339">
        <ele>81</ele>
        <time>2020-06-06T13:44:45.000Z</time>
      </trkpt>
      <trkpt lat="43.69698" lon="3.94344">
        <ele>81</ele>
        <time>2020-06-06T13:44:46.000Z</time>
      </trkpt>
      <trkpt lat="43.69695" lon="3.94346">
        <ele>81</ele>
        <time>2020-06-06T13:44:47.000Z</time>
      </trkpt>
      <trkpt lat="43.69691" lon="3.94347">
        <ele>81</ele>
        <time>2020-06-06T13:44:48.000Z</time>
      </trkpt>
      <trkpt lat="43.69687" lon="3.94347">
        <ele>81.097461960597</ele>
        <time>2020-06-06T13:44:49.000Z</time>
      </trkpt>
      <trkpt lat="43.69683" lon="3.94347">
        <ele>81.198984836218</ele>
        <time>2020-06-06T13:44:50.000Z</time>
      </trkpt>
      <trkpt lat="43.6968" lon="3.94347">
        <ele>81.30050771184</ele>
        <time>2020-06-06T13:44:51.000Z</time>
      </trkpt>
      <trkpt lat="43.69676" lon="3.94347">
        <ele>81.402030587462</ele>
        <time>2020-06-06T13:44:52.000Z</time>
      </trkpt>
      <trkpt lat="43.69672" lon="3.94347">
        <ele>81.503553463083</ele>
        <time>2020-06-06T13:44:53.000Z</time>
      </trkpt>
      <trkpt lat="43.69668" lon="3.94346">
        <ele>81.605076338705</ele>
        <time>2020-06-06T13:44:54.000Z</time>
      </trkpt>
      <trkpt lat="43.69664" lon="3.94346">
        <ele>81.706599214327</ele>
        <time>2020-06-06T13:44:55.000Z</time>
      </trkpt>
      <trkpt lat="43.69661" lon="3.94345">
        <ele>81.808122089948</ele>
        <time>2020-06-06T13:44:56.000Z</time>
      </trkpt>
      <trkpt lat="43.69657" lon="3.94344">
        <ele>81.90964496557</ele>
        <time>2020-06-06T13:44:57.000Z</time>
      </trkpt>
      <trkpt lat="43.69654" lon="3.94343">
        <ele>82.01100032</ele>
        <time>2020-06-06T13:44:58.000Z</time>
      </trkpt>
      <trkpt lat="43.6965" lon="3.94343">
        <ele>82.11100032</ele>
        <time>2020-06-06T13:44:59.000Z</time>
      </trkpt>
      <trkpt lat="43.69647" lon="3.94342">
        <ele>82.21100032</ele>
        <time>2020-06-06T13:45:00.000Z</time>
      </trkpt>
      <trkpt lat="43.69643" lon="3.94341">
        <ele>82.31100032</ele>
        <time>2020-06-06T13:45:01.000Z</time>
      </trkpt>
      <trkpt lat="43.6964" lon="3.9434">
        <ele>82.41100032</ele>
        <time>2020-06-06T13:45:02.000Z</time>
      </trkpt>
      <trkpt lat="43.69636" lon="3.94339">
        <ele>82.51100032</ele>
        <time>2020-06-06T13:45:03.000Z</time>
      </trkpt>
      <trkpt lat="43.69633" lon="3.94338">
        <ele>82.61100032</ele>
        <time>2020-06-06T13:45:04.000Z</time>
      </trkpt>
      <trkpt lat="43.6963" lon="3.94337">
        <ele>82.71100032</ele>
        <time>2020-06-06T13:45:05.000Z</time>
      </trkpt>
      <trkpt lat="43.69627" lon="3.94336">
        <ele>82.81100032</ele>
        <time>2020-06-06T13:45:06.000Z</time>
      </trkpt>
      <trkpt lat="43.69624" lon="3.94335">
        <ele>82.91100032</ele>
        <time>2020-06-06T13:45:07.000Z</time>
      </trkpt>
      <trkpt lat="43.69621" lon="3.94334">
        <ele>83</ele>
        <time>2020-06-06T13:45:08.000Z</time>
      </trkpt>
      <trkpt lat="43.69618" lon="3.94333">
        <ele>83</ele>
        <time>2020-06-06T13:45:09.000Z</time>
      </trkpt>
      <trkpt lat="43.69616" lon="3.94332">
        <ele>83</ele>
        <time>2020-06-06T13:45:10.000Z</time>
      </trkpt>
      <trkpt lat="43.69614" lon="3.94331">
        <ele>83</ele>
        <time>2020-06-06T13:45:11.000Z</time>
      </trkpt>
      <trkpt lat="43.69612" lon="3.94331">
        <ele>83</ele>
        <time>2020-06-06T13:45:12.000Z</time>
      </trkpt>
      <trkpt lat="43.69609" lon="3.94331">
        <ele>83</ele>
        <time>2020-06-06T13:45:13.000Z</time>
      </trkpt>
      <trkpt lat="43.69606" lon="3.94331">
        <ele>83</ele>
        <time>2020-06-06T13:45:14.000Z</time>
      </trkpt>
      <trkpt lat="43.69604" lon="3.94331">
        <ele>83</ele>
        <time>2020-06-06T13:45:15.000Z</time>
      </trkpt>
      <trkpt lat="43.69601" lon="3.9433">
        <ele>83</ele>
        <time>2020-06-06T13:45:16.000Z</time>
      </trkpt>
      <trkpt lat="43.69598" lon="3.9433">
        <ele>83</ele>
        <time>2020-06-06T13:45:17.000Z</time>
      </trkpt>
      <trkpt lat="43.69595" lon="3.9433">
        <ele>83.01100032</ele>
        <time>2020-06-06T13:45:18.000Z</time>
      </trkpt>
      <trkpt lat="43.69592" lon="3.9433">
        <ele>83.11100032</ele>
        <time>2020-06-06T13:45:19.000Z</time>
      </trkpt>
      <trkpt lat="43.6959" lon="3.94331">
        <ele>83.21100032</ele>
        <time>2020-06-06T13:45:20.000Z</time>
      </trkpt>
      <trkpt lat="43.69587" lon="3.94331">
        <ele>83.31100032</ele>
        <time>2020-06-06T13:45:21.000Z</time>
      </trkpt>
      <trkpt lat="43.69585" lon="3.94331">
        <ele>83.41100032</ele>
        <time>2020-06-06T13:45:22.000Z</time>
      </trkpt>
      <trkpt lat="43.69583" lon="3.94331">
        <ele>83.51100032</ele>
        <time>2020-06-06T13:45:23.000Z</time>
      </trkpt>
      <trkpt lat="43.69581" lon="3.94331">
        <ele>83.61100032</ele>
        <time>2020-06-06T13:45:24.000Z</time>
      </trkpt>
      <trkpt lat="43.69578" lon="3.9433">
        <ele>83.81100032</ele>
        <time>2020-06-06T13:45:26.000Z</time>
      </trkpt>
      <trkpt lat="43.69576" lon="3.94331">
        <ele>83.98899968</ele>
        <time>2020-06-06T13:45:28.000Z</time>
      </trkpt>
      <trkpt lat="43.69575" lon="3.94336">
        <ele>83.78899968</ele>
        <time>2020-06-06T13:45:30.000Z</time>
      </trkpt>
      <trkpt lat="43.69577" lon="3.94338">
        <ele>83.68899968</ele>
        <time>2020-06-06T13:45:31.000Z</time>
      </trkpt>
      <trkpt lat="43.69578" lon="3.94341">
        <ele>83.58899968</ele>
        <time>2020-06-06T13:45:32.000Z</time>
      </trkpt>
      <trkpt lat="43.6958" lon="3.94345">
        <ele>83.48899968</ele>
        <time>2020-06-06T13:45:33.000Z</time>
      </trkpt>
      <trkpt lat="43.69582" lon="3.94349">
        <ele>83.38899968</ele>
        <time>2020-06-06T13:45:34.000Z</time>
      </trkpt>
      <trkpt lat="43.69583" lon="3.94355">
        <ele>83.28899968</ele>
        <time>2020-06-06T13:45:35.000Z</time>
      </trkpt>
      <trkpt lat="43.69585" lon="3.94362">
        <ele>83.18899968</ele>
        <time>2020-06-06T13:45:36.000Z</time>
      </trkpt>
      <trkpt lat="43.69587" lon="3.94367">
        <ele>83.08899968</ele>
        <time>2020-06-06T13:45:37.000Z</time>
      </trkpt>
      <trkpt lat="43.6959" lon="3.94372">
        <ele>82.97799936</ele>
        <time>2020-06-06T13:45:38.000Z</time>
      </trkpt>
      <trkpt lat="43.69593" lon="3.94378">
        <ele>82.77799936</ele>
        <time>2020-06-06T13:45:39.000Z</time>
      </trkpt>
      <trkpt lat="43.69596" lon="3.94384">
        <ele>82.57799936</ele>
        <time>2020-06-06T13:45:40.000Z</time>
      </trkpt>
      <trkpt lat="43.69598" lon="3.9439">
        <ele>82.37799936</ele>
        <time>2020-06-06T13:45:41.000Z</time>
      </trkpt>
      <trkpt lat="43.696" lon="3.94397">
        <ele>82.17799936</ele>
        <time>2020-06-06T13:45:42.000Z</time>
      </trkpt>
      <trkpt lat="43.69602" lon="3.94403">
        <ele>81.97799936</ele>
        <time>2020-06-06T13:45:43.000Z</time>
      </trkpt>
      <trkpt lat="43.69604" lon="3.9441">
        <ele>81.77799936</ele>
        <time>2020-06-06T13:45:44.000Z</time>
      </trkpt>
      <trkpt lat="43.69605" lon="3.94416">
        <ele>81.57799936</ele>
        <time>2020-06-06T13:45:45.000Z</time>
      </trkpt>
      <trkpt lat="43.69607" lon="3.94422">
        <ele>81.37799936</ele>
        <time>2020-06-06T13:45:46.000Z</time>
      </trkpt>
      <trkpt lat="43.69608" lon="3.94428">
        <ele>81.17799936</ele>
        <time>2020-06-06T13:45:47.000Z</time>
      </trkpt>
      <trkpt lat="43.69609" lon="3.94433">
        <ele>80.978130590454</ele>
        <time>2020-06-06T13:45:48.000Z</time>
      </trkpt>
      <trkpt lat="43.69611" lon="3.94438">
        <ele>80.779323559874</ele>
        <time>2020-06-06T13:45:49.000Z</time>
      </trkpt>
      <trkpt lat="43.69613" lon="3.94442">
        <ele>80.580516529294</ele>
        <time>2020-06-06T13:45:50.000Z</time>
      </trkpt>
      <trkpt lat="43.69615" lon="3.94447">
        <ele>80.381709498714</ele>
        <time>2020-06-06T13:45:51.000Z</time>
      </trkpt>
      <trkpt lat="43.69617" lon="3.94451">
        <ele>80.182902468134</ele>
        <time>2020-06-06T13:45:52.000Z</time>
      </trkpt>
      <trkpt lat="43.69619" lon="3.94456">
        <ele>79.984095437554</ele>
        <time>2020-06-06T13:45:53.000Z</time>
      </trkpt>
      <trkpt lat="43.6962" lon="3.94462">
        <ele>79.785288406974</ele>
        <time>2020-06-06T13:45:54.000Z</time>
      </trkpt>
      <trkpt lat="43.69622" lon="3.94468">
        <ele>79.586481376394</ele>
        <time>2020-06-06T13:45:55.000Z</time>
      </trkpt>
      <trkpt lat="43.69624" lon="3.94472">
        <ele>79.387674345813</ele>
        <time>2020-06-06T13:45:56.000Z</time>
      </trkpt>
      <trkpt lat="43.69627" lon="3.94477">
        <ele>79.188867315233</ele>
        <time>2020-06-06T13:45:57.000Z</time>
      </trkpt>
      <trkpt lat="43.69629" lon="3.94482">
        <ele>78.994970137607</ele>
        <time>2020-06-06T13:45:58.000Z</time>
      </trkpt>
      <trkpt lat="43.6963" lon="3.94488">
        <ele>78.894366451101</ele>
        <time>2020-06-06T13:45:59.000Z</time>
      </trkpt>
      <trkpt lat="43.69632" lon="3.94494">
        <ele>78.793762764596</ele>
        <time>2020-06-06T13:46:00.000Z</time>
      </trkpt>
      <trkpt lat="43.69633" lon="3.94501">
        <ele>78.69315907809</ele>
        <time>2020-06-06T13:46:01.000Z</time>
      </trkpt>
      <trkpt lat="43.69634" lon="3.94508">
        <ele>78.592555391585</ele>
        <time>2020-06-06T13:46:02.000Z</time>
      </trkpt>
      <trkpt lat="43.69636" lon="3.94514">
        <ele>78.49195170508</ele>
        <time>2020-06-06T13:46:03.000Z</time>
      </trkpt>
      <trkpt lat="43.69638" lon="3.9452">
        <ele>78.391348018574</ele>
        <time>2020-06-06T13:46:04.000Z</time>
      </trkpt>
      <trkpt lat="43.69639" lon="3.94527">
        <ele>78.290744332069</ele>
        <time>2020-06-06T13:46:05.000Z</time>
      </trkpt>
      <trkpt lat="43.69641" lon="3.94533">
        <ele>78.190140645563</ele>
        <time>2020-06-06T13:46:06.000Z</time>
      </trkpt>
      <trkpt lat="43.69643" lon="3.94538">
        <ele>78.089536959058</ele>
        <time>2020-06-06T13:46:07.000Z</time>
      </trkpt>
      <trkpt lat="43.69646" lon="3.94543">
        <ele>77.98899968</ele>
        <time>2020-06-06T13:46:08.000Z</time>
      </trkpt>
      <trkpt lat="43.69649" lon="3.94548">
        <ele>77.88899968</ele>
        <time>2020-06-06T13:46:09.000Z</time>
      </trkpt>
      <trkpt lat="43.6965" lon="3.94554">
        <ele>77.78899968</ele>
        <time>2020-06-06T13:46:10.000Z</time>
      </trkpt>
      <trkpt lat="43.69651" lon="3.94561">
        <ele>77.68899968</ele>
        <time>2020-06-06T13:46:11.000Z</time>
      </trkpt>
      <trkpt lat="43.69651" lon="3.94568">
        <ele>77.58899968</ele>
        <time>2020-06-06T13:46:12.000Z</time>
      </trkpt>
      <trkpt lat="43.69651" lon="3.94575">
        <ele>77.48899968</ele>
        <time>2020-06-06T13:46:13.000Z</time>
      </trkpt>
      <trkpt lat="43.69652" lon="3.94582">
        <ele>77.38899968</ele>
        <time>2020-06-06T13:46:14.000Z</time>
      </trkpt>
      <trkpt lat="43.69653" lon="3.9459">
        <ele>77.28899968</ele>
        <time>2020-06-06T13:46:15.000Z</time>
      </trkpt>
      <trkpt lat="43.69654" lon="3.94597">
        <ele>77.18899968</ele>
        <time>2020-06-06T13:46:16.000Z</time>
      </trkpt>
      <trkpt lat="43.69654" lon="3.94605">
        <ele>77.08899968</ele>
        <time>2020-06-06T13:46:17.000Z</time>
      </trkpt>
      <trkpt lat="43.69655" lon="3.94612">
        <ele>76.98899968</ele>
        <time>2020-06-06T13:46:18.000Z</time>
      </trkpt>
      <trkpt lat="43.69656" lon="3.94619">
        <ele>76.88899968</ele>
        <time>2020-06-06T13:46:19.000Z</time>
      </trkpt>
      <trkpt lat="43.69657" lon="3.94626">
        <ele>76.78899968</ele>
        <time>2020-06-06T13:46:20.000Z</time>
      </trkpt>
      <trkpt lat="43.69657" lon="3.94632">
        <ele>76.68899968</ele>
        <time>2020-06-06T13:46:21.000Z</time>
      </trkpt>
      <trkpt lat="43.69658" lon="3.94639">
        <ele>76.58899968</ele>
        <time>2020-06-06T13:46:22.000Z</time>
      </trkpt>
      <trkpt lat="43.69659" lon="3.94646">
        <ele>76.48899968</ele>
        <time>2020-06-06T13:46:23.000Z</time>
      </trkpt>
      <trkpt lat="43.69661" lon="3.94653">
        <ele>76.38899968</ele>
        <time>2020-06-06T13:46:24.000Z</time>
      </trkpt>
      <trkpt lat="43.69662" lon="3.94659">
        <ele>76.28899968</ele>
        <time>2020-06-06T13:46:25.000Z</time>
      </trkpt>
      <trkpt lat="43.69664" lon="3.94665">
        <ele>76.18899968</ele>
        <time>2020-06-06T13:46:26.000Z</time>
      </trkpt>
      <trkpt lat="43.69666" lon="3.94671">
        <ele>76.08899968</ele>
        <time>2020-06-06T13:46:27.000Z</time>
      </trkpt>
      <trkpt lat="43.69669" lon="3.94675">
        <ele>76</ele>
        <time>2020-06-06T13:46:28.000Z</time>
      </trkpt>
      <trkpt lat="43.69673" lon="3.94677">
        <ele>76</ele>
        <time>2020-06-06T13:46:29.000Z</time>
      </trkpt>
      <trkpt lat="43.69676" lon="3.94679">
        <ele>76</ele>
        <time>2020-06-06T13:46:30.000Z</time>
      </trkpt>
      <trkpt lat="43.69678" lon="3.94684">
        <ele>76</ele>
        <time>2020-06-06T13:46:31.000Z</time>
      </trkpt>
      <trkpt lat="43.69678" lon="3.94689">
        <ele>76</ele>
        <time>2020-06-06T13:46:32.000Z</time>
      </trkpt>
      <trkpt lat="43.69677" lon="3.94695">
        <ele>76</ele>
        <time>2020-06-06T13:46:33.000Z</time>
      </trkpt>
      <trkpt lat="43.69675" lon="3.94701">
        <ele>76</ele>
        <time>2020-06-06T13:46:34.000Z</time>
      </trkpt>
      <trkpt lat="43.69674" lon="3.94708">
        <ele>76</ele>
        <time>2020-06-06T13:46:35.000Z</time>
      </trkpt>
      <trkpt lat="43.69675" lon="3.94714">
        <ele>76</ele>
        <time>2020-06-06T13:46:36.000Z</time>
      </trkpt>
      <trkpt lat="43.69677" lon="3.9472">
        <ele>76</ele>
        <time>2020-06-06T13:46:37.000Z</time>
      </trkpt>
      <trkpt lat="43.69679" lon="3.94727">
        <ele>76</ele>
        <time>2020-06-06T13:46:38.000Z</time>
      </trkpt>
      <trkpt lat="43.69681" lon="3.94732">
        <ele>76</ele>
        <time>2020-06-06T13:46:39.000Z</time>
      </trkpt>
      <trkpt lat="43.69684" lon="3.94739">
        <ele>76</ele>
        <time>2020-06-06T13:46:40.000Z</time>
      </trkpt>
      <trkpt lat="43.69685" lon="3.94746">
        <ele>76</ele>
        <time>2020-06-06T13:46:41.000Z</time>
      </trkpt>
      <trkpt lat="43.69686" lon="3.94754">
        <ele>76</ele>
        <time>2020-06-06T13:46:42.000Z</time>
      </trkpt>
      <trkpt lat="43.69686" lon="3.94762">
        <ele>76</ele>
        <time>2020-06-06T13:46:43.000Z</time>
      </trkpt>
      <trkpt lat="43.69686" lon="3.9477">
        <ele>76</ele>
        <time>2020-06-06T13:46:44.000Z</time>
      </trkpt>
      <trkpt lat="43.69687" lon="3.94778">
        <ele>76</ele>
        <time>2020-06-06T13:46:45.000Z</time>
      </trkpt>
      <trkpt lat="43.69687" lon="3.94785">
        <ele>76</ele>
        <time>2020-06-06T13:46:46.000Z</time>
      </trkpt>
      <trkpt lat="43.69688" lon="3.94792">
        <ele>76</ele>
        <time>2020-06-06T13:46:47.000Z</time>
      </trkpt>
      <trkpt lat="43.69689" lon="3.94798">
        <ele>75.989473374767</ele>
        <time>2020-06-06T13:46:48.000Z</time>
      </trkpt>
      <trkpt lat="43.6969" lon="3.94804">
        <ele>75.893779565559</ele>
        <time>2020-06-06T13:46:49.000Z</time>
      </trkpt>
      <trkpt lat="43.69691" lon="3.9481">
        <ele>75.798085756352</ele>
        <time>2020-06-06T13:46:50.000Z</time>
      </trkpt>
      <trkpt lat="43.69693" lon="3.94817">
        <ele>75.702391947144</ele>
        <time>2020-06-06T13:46:51.000Z</time>
      </trkpt>
      <trkpt lat="43.69695" lon="3.94824">
        <ele>75.606698137936</ele>
        <time>2020-06-06T13:46:52.000Z</time>
      </trkpt>
      <trkpt lat="43.69697" lon="3.9483">
        <ele>75.511004328729</ele>
        <time>2020-06-06T13:46:53.000Z</time>
      </trkpt>
      <trkpt lat="43.69699" lon="3.94836">
        <ele>75.415310519521</ele>
        <time>2020-06-06T13:46:54.000Z</time>
      </trkpt>
      <trkpt lat="43.69699" lon="3.94842">
        <ele>75.319616710313</ele>
        <time>2020-06-06T13:46:55.000Z</time>
      </trkpt>
      <trkpt lat="43.69698" lon="3.94847">
        <ele>75.223922901106</ele>
        <time>2020-06-06T13:46:56.000Z</time>
      </trkpt>
      <trkpt lat="43.69698" lon="3.94852">
        <ele>75.128229091898</ele>
        <time>2020-06-06T13:46:57.000Z</time>
      </trkpt>
      <trkpt lat="43.69698" lon="3.94857">
        <ele>75.03253528269</ele>
        <time>2020-06-06T13:46:58.000Z</time>
      </trkpt>
      <trkpt lat="43.69698" lon="3.94863">
        <ele>75.067142033077</ele>
        <time>2020-06-06T13:46:59.000Z</time>
      </trkpt>
      <trkpt lat="43.69698" lon="3.94868">
        <ele>75.168871399757</ele>
        <time>2020-06-06T13:47:00.000Z</time>
      </trkpt>
      <trkpt lat="43.69699" lon="3.94873">
        <ele>75.270600766437</ele>
        <time>2020-06-06T13:47:01.000Z</time>
      </trkpt>
      <trkpt lat="43.697" lon="3.94877">
        <ele>75.372330133117</ele>
        <time>2020-06-06T13:47:02.000Z</time>
      </trkpt>
      <trkpt lat="43.697" lon="3.94881">
        <ele>75.474059499798</ele>
        <time>2020-06-06T13:47:03.000Z</time>
      </trkpt>
      <trkpt lat="43.69701" lon="3.94886">
        <ele>75.575788866478</ele>
        <time>2020-06-06T13:47:04.000Z</time>
      </trkpt>
      <trkpt lat="43.69702" lon="3.9489">
        <ele>75.677518233158</ele>
        <time>2020-06-06T13:47:05.000Z</time>
      </trkpt>
      <trkpt lat="43.69702" lon="3.94895">
        <ele>75.779247599838</ele>
        <time>2020-06-06T13:47:06.000Z</time>
      </trkpt>
      <trkpt lat="43.697" lon="3.94899">
        <ele>75.880976966518</ele>
        <time>2020-06-06T13:47:07.000Z</time>
      </trkpt>
      <trkpt lat="43.69698" lon="3.94902">
        <ele>75.982706333198</ele>
        <time>2020-06-06T13:47:08.000Z</time>
      </trkpt>
      <trkpt lat="43.69697" lon="3.94904">
        <ele>76.08539127572</ele>
        <time>2020-06-06T13:47:09.000Z</time>
      </trkpt>
      <trkpt lat="43.69695" lon="3.94906">
        <ele>76.188271934156</ele>
        <time>2020-06-06T13:47:10.000Z</time>
      </trkpt>
      <trkpt lat="43.69693" lon="3.94908">
        <ele>76.291152592593</ele>
        <time>2020-06-06T13:47:11.000Z</time>
      </trkpt>
      <trkpt lat="43.69691" lon="3.94909">
        <ele>76.394033251029</ele>
        <time>2020-06-06T13:47:12.000Z</time>
      </trkpt>
      <trkpt lat="43.69689" lon="3.94913">
        <ele>76.599794567901</ele>
        <time>2020-06-06T13:47:14.000Z</time>
      </trkpt>
      <trkpt lat="43.69687" lon="3.94916">
        <ele>76.702675226337</ele>
        <time>2020-06-06T13:47:15.000Z</time>
      </trkpt>
      <trkpt lat="43.69686" lon="3.94918">
        <ele>76.805555884774</ele>
        <time>2020-06-06T13:47:16.000Z</time>
      </trkpt>
      <trkpt lat="43.69684" lon="3.94919">
        <ele>76.90843654321</ele>
        <time>2020-06-06T13:47:17.000Z</time>
      </trkpt>
      <trkpt lat="43.69682" lon="3.94923">
        <ele>76.892023035019</ele>
        <time>2020-06-06T13:47:19.000Z</time>
      </trkpt>
      <trkpt lat="43.69682" lon="3.94926">
        <ele>76.794746770428</ele>
        <time>2020-06-06T13:47:20.000Z</time>
      </trkpt>
      <trkpt lat="43.69682" lon="3.94929">
        <ele>76.697470505837</ele>
        <time>2020-06-06T13:47:21.000Z</time>
      </trkpt>
      <trkpt lat="43.69684" lon="3.94931">
        <ele>76.600194241245</ele>
        <time>2020-06-06T13:47:22.000Z</time>
      </trkpt>
      <trkpt lat="43.69686" lon="3.94933">
        <ele>76.502917976654</ele>
        <time>2020-06-06T13:47:23.000Z</time>
      </trkpt>
      <trkpt lat="43.69689" lon="3.94936">
        <ele>76.405641712062</ele>
        <time>2020-06-06T13:47:24.000Z</time>
      </trkpt>
      <trkpt lat="43.69691" lon="3.9494">
        <ele>76.308365447471</ele>
        <time>2020-06-06T13:47:25.000Z</time>
      </trkpt>
      <trkpt lat="43.69692" lon="3.94945">
        <ele>76.211089182879</ele>
        <time>2020-06-06T13:47:26.000Z</time>
      </trkpt>
      <trkpt lat="43.69691" lon="3.94949">
        <ele>76.113812918288</ele>
        <time>2020-06-06T13:47:27.000Z</time>
      </trkpt>
      <trkpt lat="43.69691" lon="3.94953">
        <ele>76.016536653697</ele>
        <time>2020-06-06T13:47:28.000Z</time>
      </trkpt>
      <trkpt lat="43.6969" lon="3.94957">
        <ele>76</ele>
        <time>2020-06-06T13:47:29.000Z</time>
      </trkpt>
      <trkpt lat="43.69691" lon="3.94961">
        <ele>76</ele>
        <time>2020-06-06T13:47:30.000Z</time>
      </trkpt>
      <trkpt lat="43.69691" lon="3.94965">
        <ele>76</ele>
        <time>2020-06-06T13:47:31.000Z</time>
      </trkpt>
      <trkpt lat="43.69691" lon="3.9497">
        <ele>76</ele>
        <time>2020-06-06T13:47:32.000Z</time>
      </trkpt>
      <trkpt lat="43.69691" lon="3.94975">
        <ele>76</ele>
        <time>2020-06-06T13:47:33.000Z</time>
      </trkpt>
      <trkpt lat="43.6969" lon="3.94979">
        <ele>76</ele>
        <time>2020-06-06T13:47:34.000Z</time>
      </trkpt>
      <trkpt lat="43.69689" lon="3.94983">
        <ele>76</ele>
        <time>2020-06-06T13:47:35.000Z</time>
      </trkpt>
      <trkpt lat="43.69687" lon="3.94987">
        <ele>76</ele>
        <time>2020-06-06T13:47:36.000Z</time>
      </trkpt>
      <trkpt lat="43.69686" lon="3.94991">
        <ele>76</ele>
        <time>2020-06-06T13:47:37.000Z</time>
      </trkpt>
      <trkpt lat="43.69685" lon="3.94994">
        <ele>76</ele>
        <time>2020-06-06T13:47:38.000Z</time>
      </trkpt>
      <trkpt lat="43.69684" lon="3.94997">
        <ele>76.079709866474</ele>
        <time>2020-06-06T13:47:39.000Z</time>
      </trkpt>
      <trkpt lat="43.69683" lon="3.95001">
        <ele>76.183229603796</ele>
        <time>2020-06-06T13:47:40.000Z</time>
      </trkpt>
      <trkpt lat="43.69682" lon="3.95004">
        <ele>76.286749341118</ele>
        <time>2020-06-06T13:47:41.000Z</time>
      </trkpt>
      <trkpt lat="43.69681" lon="3.95007">
        <ele>76.390269078439</ele>
        <time>2020-06-06T13:47:42.000Z</time>
      </trkpt>
      <trkpt lat="43.6968" lon="3.9501">
        <ele>76.493788815761</ele>
        <time>2020-06-06T13:47:43.000Z</time>
      </trkpt>
      <trkpt lat="43.69679" lon="3.95013">
        <ele>76.597308553082</ele>
        <time>2020-06-06T13:47:44.000Z</time>
      </trkpt>
      <trkpt lat="43.69678" lon="3.95016">
        <ele>76.700828290404</ele>
        <time>2020-06-06T13:47:45.000Z</time>
      </trkpt>
      <trkpt lat="43.69676" lon="3.95018">
        <ele>76.804348027725</ele>
        <time>2020-06-06T13:47:46.000Z</time>
      </trkpt>
      <trkpt lat="43.69675" lon="3.95021">
        <ele>76.907867765047</ele>
        <time>2020-06-06T13:47:47.000Z</time>
      </trkpt>
      <trkpt lat="43.69674" lon="3.95023">
        <ele>77.01100032</ele>
        <time>2020-06-06T13:47:48.000Z</time>
      </trkpt>
      <trkpt lat="43.69673" lon="3.95026">
        <ele>77.11100032</ele>
        <time>2020-06-06T13:47:49.000Z</time>
      </trkpt>
      <trkpt lat="43.69672" lon="3.95028">
        <ele>77.21100032</ele>
        <time>2020-06-06T13:47:50.000Z</time>
      </trkpt>
      <trkpt lat="43.69671" lon="3.95031">
        <ele>77.31100032</ele>
        <time>2020-06-06T13:47:51.000Z</time>
      </trkpt>
      <trkpt lat="43.69669" lon="3.95033">
        <ele>77.41100032</ele>
        <time>2020-06-06T13:47:52.000Z</time>
      </trkpt>
      <trkpt lat="43.69668" lon="3.95035">
        <ele>77.51100032</ele>
        <time>2020-06-06T13:47:53.000Z</time>
      </trkpt>
      <trkpt lat="43.69667" lon="3.95037">
        <ele>77.61100032</ele>
        <time>2020-06-06T13:47:54.000Z</time>
      </trkpt>
      <trkpt lat="43.69665" lon="3.95039">
        <ele>77.71100032</ele>
        <time>2020-06-06T13:47:55.000Z</time>
      </trkpt>
      <trkpt lat="43.69664" lon="3.95042">
        <ele>77.81100032</ele>
        <time>2020-06-06T13:47:56.000Z</time>
      </trkpt>
      <trkpt lat="43.69662" lon="3.95043">
        <ele>77.91100032</ele>
        <time>2020-06-06T13:47:57.000Z</time>
      </trkpt>
      <trkpt lat="43.69661" lon="3.95045">
        <ele>78.01100032</ele>
        <time>2020-06-06T13:47:58.000Z</time>
      </trkpt>
      <trkpt lat="43.6966" lon="3.95047">
        <ele>78.11100032</ele>
        <time>2020-06-06T13:47:59.000Z</time>
      </trkpt>
      <trkpt lat="43.69658" lon="3.95049">
        <ele>78.21100032</ele>
        <time>2020-06-06T13:48:00.000Z</time>
      </trkpt>
      <trkpt lat="43.69657" lon="3.9505">
        <ele>78.31100032</ele>
        <time>2020-06-06T13:48:01.000Z</time>
      </trkpt>
      <trkpt lat="43.69654" lon="3.95053">
        <ele>78.51100032</ele>
        <time>2020-06-06T13:48:03.000Z</time>
      </trkpt>
      <trkpt lat="43.69652" lon="3.95054">
        <ele>78.61100032</ele>
        <time>2020-06-06T13:48:04.000Z</time>
      </trkpt>
      <trkpt lat="43.6965" lon="3.95057">
        <ele>78.81100032</ele>
        <time>2020-06-06T13:48:06.000Z</time>
      </trkpt>
      <trkpt lat="43.69647" lon="3.95059">
        <ele>79.010967414248</ele>
        <time>2020-06-06T13:48:08.000Z</time>
      </trkpt>
      <trkpt lat="43.69645" lon="3.95061">
        <ele>79.210369145246</ele>
        <time>2020-06-06T13:48:10.000Z</time>
      </trkpt>
      <trkpt lat="43.69642" lon="3.95063">
        <ele>79.409770876245</ele>
        <time>2020-06-06T13:48:12.000Z</time>
      </trkpt>
      <trkpt lat="43.69639" lon="3.95065">
        <ele>79.609172607243</ele>
        <time>2020-06-06T13:48:14.000Z</time>
      </trkpt>
      <trkpt lat="43.69636" lon="3.95066">
        <ele>79.808574338241</ele>
        <time>2020-06-06T13:48:16.000Z</time>
      </trkpt>
      <trkpt lat="43.69633" lon="3.95066">
        <ele>80.007850831686</ele>
        <time>2020-06-06T13:48:18.000Z</time>
      </trkpt>
      <trkpt lat="43.6963" lon="3.95067">
        <ele>80.204121623828</ele>
        <time>2020-06-06T13:48:20.000Z</time>
      </trkpt>
      <trkpt lat="43.69626" lon="3.95068">
        <ele>80.400392415971</ele>
        <time>2020-06-06T13:48:22.000Z</time>
      </trkpt>
      <trkpt lat="43.69623" lon="3.95068">
        <ele>80.596663208114</ele>
        <time>2020-06-06T13:48:24.000Z</time>
      </trkpt>
      <trkpt lat="43.6962" lon="3.95069">
        <ele>80.792934000256</ele>
        <time>2020-06-06T13:48:26.000Z</time>
      </trkpt>
      <trkpt lat="43.69616" lon="3.9507">
        <ele>80.989204792399</ele>
        <time>2020-06-06T13:48:28.000Z</time>
      </trkpt>
      <trkpt lat="43.69614" lon="3.9507">
        <ele>81.090446829268</ele>
        <time>2020-06-06T13:48:29.000Z</time>
      </trkpt>
      <trkpt lat="43.69612" lon="3.9507">
        <ele>81.192072845529</ele>
        <time>2020-06-06T13:48:30.000Z</time>
      </trkpt>
      <trkpt lat="43.6961" lon="3.9507">
        <ele>81.293698861789</ele>
        <time>2020-06-06T13:48:31.000Z</time>
      </trkpt>
      <trkpt lat="43.69608" lon="3.95071">
        <ele>81.395324878049</ele>
        <time>2020-06-06T13:48:32.000Z</time>
      </trkpt>
      <trkpt lat="43.69606" lon="3.95071">
        <ele>81.496950894309</ele>
        <time>2020-06-06T13:48:33.000Z</time>
      </trkpt>
      <trkpt lat="43.69604" lon="3.95072">
        <ele>81.598576910569</ele>
        <time>2020-06-06T13:48:34.000Z</time>
      </trkpt>
      <trkpt lat="43.69602" lon="3.95072">
        <ele>81.700202926829</ele>
        <time>2020-06-06T13:48:35.000Z</time>
      </trkpt>
      <trkpt lat="43.696" lon="3.95072">
        <ele>81.801828943089</ele>
        <time>2020-06-06T13:48:36.000Z</time>
      </trkpt>
      <trkpt lat="43.69598" lon="3.95073">
        <ele>81.90345495935</ele>
        <time>2020-06-06T13:48:37.000Z</time>
      </trkpt>
      <trkpt lat="43.69595" lon="3.95073">
        <ele>82</ele>
        <time>2020-06-06T13:48:38.000Z</time>
      </trkpt>
      <trkpt lat="43.69593" lon="3.95072">
        <ele>82</ele>
        <time>2020-06-06T13:48:39.000Z</time>
      </trkpt>
      <trkpt lat="43.69591" lon="3.95072">
        <ele>82</ele>
        <time>2020-06-06T13:48:40.000Z</time>
      </trkpt>
      <trkpt lat="43.69588" lon="3.95071">
        <ele>82</ele>
        <time>2020-06-06T13:48:41.000Z</time>
      </trkpt>
      <trkpt lat="43.69585" lon="3.9507">
        <ele>82</ele>
        <time>2020-06-06T13:48:42.000Z</time>
      </trkpt>
      <trkpt lat="43.69583" lon="3.9507">
        <ele>82</ele>
        <time>2020-06-06T13:48:43.000Z</time>
      </trkpt>
      <trkpt lat="43.6958" lon="3.9507">
        <ele>82</ele>
        <time>2020-06-06T13:48:44.000Z</time>
      </trkpt>
      <trkpt lat="43.69577" lon="3.95072">
        <ele>82</ele>
        <time>2020-06-06T13:48:45.000Z</time>
      </trkpt>
      <trkpt lat="43.69574" lon="3.95076">
        <ele>82</ele>
        <time>2020-06-06T13:48:46.000Z</time>
      </trkpt>
      <trkpt lat="43.69571" lon="3.9508">
        <ele>82</ele>
        <time>2020-06-06T13:48:47.000Z</time>
      </trkpt>
      <trkpt lat="43.69569" lon="3.95086">
        <ele>81.98899968</ele>
        <time>2020-06-06T13:48:48.000Z</time>
      </trkpt>
      <trkpt lat="43.69567" lon="3.95092">
        <ele>81.88899968</ele>
        <time>2020-06-06T13:48:49.000Z</time>
      </trkpt>
      <trkpt lat="43.69566" lon="3.95098">
        <ele>81.78899968</ele>
        <time>2020-06-06T13:48:50.000Z</time>
      </trkpt>
      <trkpt lat="43.69565" lon="3.95104">
        <ele>81.68899968</ele>
        <time>2020-06-06T13:48:51.000Z</time>
      </trkpt>
      <trkpt lat="43.69564" lon="3.9511">
        <ele>81.58899968</ele>
        <time>2020-06-06T13:48:52.000Z</time>
      </trkpt>
      <trkpt lat="43.69564" lon="3.95117">
        <ele>81.48899968</ele>
        <time>2020-06-06T13:48:53.000Z</time>
      </trkpt>
      <trkpt lat="43.69564" lon="3.95124">
        <ele>81.38899968</ele>
        <time>2020-06-06T13:48:54.000Z</time>
      </trkpt>
      <trkpt lat="43.69564" lon="3.9513">
        <ele>81.28899968</ele>
        <time>2020-06-06T13:48:55.000Z</time>
      </trkpt>
      <trkpt lat="43.69564" lon="3.95136">
        <ele>81.18899968</ele>
        <time>2020-06-06T13:48:56.000Z</time>
      </trkpt>
      <trkpt lat="43.69565" lon="3.95143">
        <ele>81.08899968</ele>
        <time>2020-06-06T13:48:57.000Z</time>
      </trkpt>
      <trkpt lat="43.69565" lon="3.9515">
        <ele>80.978494004772</ele>
        <time>2020-06-06T13:48:58.000Z</time>
      </trkpt>
      <trkpt lat="43.69565" lon="3.95156">
        <ele>80.782990644617</ele>
        <time>2020-06-06T13:48:59.000Z</time>
      </trkpt>
      <trkpt lat="43.69566" lon="3.95163">
        <ele>80.587487284462</ele>
        <time>2020-06-06T13:49:00.000Z</time>
      </trkpt>
      <trkpt lat="43.69566" lon="3.9517">
        <ele>80.391983924306</ele>
        <time>2020-06-06T13:49:01.000Z</time>
      </trkpt>
      <trkpt lat="43.69566" lon="3.95178">
        <ele>80.196480564151</ele>
        <time>2020-06-06T13:49:02.000Z</time>
      </trkpt>
      <trkpt lat="43.69567" lon="3.95185">
        <ele>80.000977203995</ele>
        <time>2020-06-06T13:49:03.000Z</time>
      </trkpt>
      <trkpt lat="43.69568" lon="3.95193">
        <ele>79.80547384384</ele>
        <time>2020-06-06T13:49:04.000Z</time>
      </trkpt>
      <trkpt lat="43.69569" lon="3.95201">
        <ele>79.609970483685</ele>
        <time>2020-06-06T13:49:05.000Z</time>
      </trkpt>
      <trkpt lat="43.69569" lon="3.95209">
        <ele>79.414467123529</ele>
        <time>2020-06-06T13:49:06.000Z</time>
      </trkpt>
      <trkpt lat="43.6957" lon="3.95217">
        <ele>79.218963763374</ele>
        <time>2020-06-06T13:49:07.000Z</time>
      </trkpt>
      <trkpt lat="43.69571" lon="3.95225">
        <ele>79.023460403219</ele>
        <time>2020-06-06T13:49:08.000Z</time>
      </trkpt>
      <trkpt lat="43.69572" lon="3.95234">
        <ele>78.819856645194</ele>
        <time>2020-06-06T13:49:09.000Z</time>
      </trkpt>
      <trkpt lat="43.69573" lon="3.95242">
        <ele>78.615148287459</ele>
        <time>2020-06-06T13:49:10.000Z</time>
      </trkpt>
      <trkpt lat="43.69573" lon="3.95251">
        <ele>78.410439929724</ele>
        <time>2020-06-06T13:49:11.000Z</time>
      </trkpt>
      <trkpt lat="43.69574" lon="3.95259">
        <ele>78.20573157199</ele>
        <time>2020-06-06T13:49:12.000Z</time>
      </trkpt>
      <trkpt lat="43.69575" lon="3.95268">
        <ele>78.001023214255</ele>
        <time>2020-06-06T13:49:13.000Z</time>
      </trkpt>
      <trkpt lat="43.69574" lon="3.95276">
        <ele>77.796314856521</ele>
        <time>2020-06-06T13:49:14.000Z</time>
      </trkpt>
      <trkpt lat="43.69574" lon="3.95284">
        <ele>77.591606498786</ele>
        <time>2020-06-06T13:49:15.000Z</time>
      </trkpt>
      <trkpt lat="43.69574" lon="3.95293">
        <ele>77.386898141052</ele>
        <time>2020-06-06T13:49:16.000Z</time>
      </trkpt>
      <trkpt lat="43.69575" lon="3.95301">
        <ele>77.182189783317</ele>
        <time>2020-06-06T13:49:17.000Z</time>
      </trkpt>
      <trkpt lat="43.69576" lon="3.95309">
        <ele>76.98899968</ele>
        <time>2020-06-06T13:49:18.000Z</time>
      </trkpt>
      <trkpt lat="43.69576" lon="3.95318">
        <ele>76.88899968</ele>
        <time>2020-06-06T13:49:19.000Z</time>
      </trkpt>
      <trkpt lat="43.69577" lon="3.95327">
        <ele>76.78899968</ele>
        <time>2020-06-06T13:49:20.000Z</time>
      </trkpt>
      <trkpt lat="43.69577" lon="3.95336">
        <ele>76.68899968</ele>
        <time>2020-06-06T13:49:21.000Z</time>
      </trkpt>
      <trkpt lat="43.69578" lon="3.95345">
        <ele>76.58899968</ele>
        <time>2020-06-06T13:49:22.000Z</time>
      </trkpt>
      <trkpt lat="43.69578" lon="3.95353">
        <ele>76.48899968</ele>
        <time>2020-06-06T13:49:23.000Z</time>
      </trkpt>
      <trkpt lat="43.69578" lon="3.95362">
        <ele>76.38899968</ele>
        <time>2020-06-06T13:49:24.000Z</time>
      </trkpt>
      <trkpt lat="43.69579" lon="3.95371">
        <ele>76.28899968</ele>
        <time>2020-06-06T13:49:25.000Z</time>
      </trkpt>
      <trkpt lat="43.69579" lon="3.9538">
        <ele>76.18899968</ele>
        <time>2020-06-06T13:49:26.000Z</time>
      </trkpt>
      <trkpt lat="43.69579" lon="3.95389">
        <ele>76.08899968</ele>
        <time>2020-06-06T13:49:27.000Z</time>
      </trkpt>
      <trkpt lat="43.69579" lon="3.95398">
        <ele>75.97799936</ele>
        <time>2020-06-06T13:49:28.000Z</time>
      </trkpt>
      <trkpt lat="43.6958" lon="3.95407">
        <ele>75.77799936</ele>
        <time>2020-06-06T13:49:29.000Z</time>
      </trkpt>
      <trkpt lat="43.6958" lon="3.95416">
        <ele>75.57799936</ele>
        <time>2020-06-06T13:49:30.000Z</time>
      </trkpt>
      <trkpt lat="43.6958" lon="3.95425">
        <ele>75.37799936</ele>
        <time>2020-06-06T13:49:31.000Z</time>
      </trkpt>
      <trkpt lat="43.6958" lon="3.95434">
        <ele>75.17799936</ele>
        <time>2020-06-06T13:49:32.000Z</time>
      </trkpt>
      <trkpt lat="43.6958" lon="3.95443">
        <ele>74.97799936</ele>
        <time>2020-06-06T13:49:33.000Z</time>
      </trkpt>
      <trkpt lat="43.6958" lon="3.95452">
        <ele>74.77799936</ele>
        <time>2020-06-06T13:49:34.000Z</time>
      </trkpt>
      <trkpt lat="43.6958" lon="3.95461">
        <ele>74.57799936</ele>
        <time>2020-06-06T13:49:35.000Z</time>
      </trkpt>
      <trkpt lat="43.6958" lon="3.9547">
        <ele>74.37799936</ele>
        <time>2020-06-06T13:49:36.000Z</time>
      </trkpt>
      <trkpt lat="43.6958" lon="3.95479">
        <ele>74.17799936</ele>
        <time>2020-06-06T13:49:37.000Z</time>
      </trkpt>
      <trkpt lat="43.69581" lon="3.95489">
        <ele>73.989032585752</ele>
        <time>2020-06-06T13:49:38.000Z</time>
      </trkpt>
      <trkpt lat="43.69581" lon="3.95499">
        <ele>73.889331720253</ele>
        <time>2020-06-06T13:49:39.000Z</time>
      </trkpt>
      <trkpt lat="43.69581" lon="3.95508">
        <ele>73.789630854754</ele>
        <time>2020-06-06T13:49:40.000Z</time>
      </trkpt>
      <trkpt lat="43.6958" lon="3.95518">
        <ele>73.689929989255</ele>
        <time>2020-06-06T13:49:41.000Z</time>
      </trkpt>
      <trkpt lat="43.69579" lon="3.95527">
        <ele>73.590229123755</ele>
        <time>2020-06-06T13:49:42.000Z</time>
      </trkpt>
      <trkpt lat="43.69579" lon="3.95537">
        <ele>73.490528258256</ele>
        <time>2020-06-06T13:49:43.000Z</time>
      </trkpt>
      <trkpt lat="43.69579" lon="3.95546">
        <ele>73.390827392757</ele>
        <time>2020-06-06T13:49:44.000Z</time>
      </trkpt>
      <trkpt lat="43.69579" lon="3.95555">
        <ele>73.291126527258</ele>
        <time>2020-06-06T13:49:45.000Z</time>
      </trkpt>
      <trkpt lat="43.69578" lon="3.95565">
        <ele>73.191425661759</ele>
        <time>2020-06-06T13:49:46.000Z</time>
      </trkpt>
      <trkpt lat="43.69578" lon="3.95574">
        <ele>73.091724796259</ele>
        <time>2020-06-06T13:49:47.000Z</time>
      </trkpt>
      <trkpt lat="43.69578" lon="3.95583">
        <ele>72.984435797665</ele>
        <time>2020-06-06T13:49:48.000Z</time>
      </trkpt>
      <trkpt lat="43.69578" lon="3.95592">
        <ele>72.789883268482</ele>
        <time>2020-06-06T13:49:49.000Z</time>
      </trkpt>
      <trkpt lat="43.69578" lon="3.95601">
        <ele>72.5953307393</ele>
        <time>2020-06-06T13:49:50.000Z</time>
      </trkpt>
      <trkpt lat="43.69578" lon="3.95609">
        <ele>72.400778210117</ele>
        <time>2020-06-06T13:49:51.000Z</time>
      </trkpt>
      <trkpt lat="43.69577" lon="3.95618">
        <ele>72.206225680934</ele>
        <time>2020-06-06T13:49:52.000Z</time>
      </trkpt>
      <trkpt lat="43.69576" lon="3.95626">
        <ele>72.011673151751</ele>
        <time>2020-06-06T13:49:53.000Z</time>
      </trkpt>
      <trkpt lat="43.69576" lon="3.95635">
        <ele>71.817120622568</ele>
        <time>2020-06-06T13:49:54.000Z</time>
      </trkpt>
      <trkpt lat="43.69575" lon="3.95644">
        <ele>71.622568093385</ele>
        <time>2020-06-06T13:49:55.000Z</time>
      </trkpt>
      <trkpt lat="43.69575" lon="3.95653">
        <ele>71.428015564202</ele>
        <time>2020-06-06T13:49:56.000Z</time>
      </trkpt>
      <trkpt lat="43.69575" lon="3.95662">
        <ele>71.233463035019</ele>
        <time>2020-06-06T13:49:57.000Z</time>
      </trkpt>
      <trkpt lat="43.69574" lon="3.95672">
        <ele>71.038910505837</ele>
        <time>2020-06-06T13:49:58.000Z</time>
      </trkpt>
      <trkpt lat="43.69574" lon="3.95681">
        <ele>70.834881266421</ele>
        <time>2020-06-06T13:49:59.000Z</time>
      </trkpt>
      <trkpt lat="43.69574" lon="3.95691">
        <ele>70.628482849447</ele>
        <time>2020-06-06T13:50:00.000Z</time>
      </trkpt>
      <trkpt lat="43.69574" lon="3.957">
        <ele>70.422084432474</ele>
        <time>2020-06-06T13:50:01.000Z</time>
      </trkpt>
      <trkpt lat="43.69574" lon="3.95708">
        <ele>70.2156860155</ele>
        <time>2020-06-06T13:50:02.000Z</time>
      </trkpt>
      <trkpt lat="43.69575" lon="3.95715">
        <ele>70.009287598526</ele>
        <time>2020-06-06T13:50:03.000Z</time>
      </trkpt>
      <trkpt lat="43.69577" lon="3.95722">
        <ele>69.802889181553</ele>
        <time>2020-06-06T13:50:04.000Z</time>
      </trkpt>
      <trkpt lat="43.69579" lon="3.9573">
        <ele>69.596490764579</ele>
        <time>2020-06-06T13:50:05.000Z</time>
      </trkpt>
      <trkpt lat="43.69582" lon="3.95737">
        <ele>69.390092347605</ele>
        <time>2020-06-06T13:50:06.000Z</time>
      </trkpt>
      <trkpt lat="43.69585" lon="3.95743">
        <ele>69.183693930632</ele>
        <time>2020-06-06T13:50:07.000Z</time>
      </trkpt>
      <trkpt lat="43.69589" lon="3.9575">
        <ele>68.96699904</ele>
        <time>2020-06-06T13:50:08.000Z</time>
      </trkpt>
      <trkpt lat="43.69592" lon="3.95757">
        <ele>68.66699904</ele>
        <time>2020-06-06T13:50:09.000Z</time>
      </trkpt>
      <trkpt lat="43.69595" lon="3.95764">
        <ele>68.36699904</ele>
        <time>2020-06-06T13:50:10.000Z</time>
      </trkpt>
      <trkpt lat="43.69598" lon="3.95772">
        <ele>68.06699904</ele>
        <time>2020-06-06T13:50:11.000Z</time>
      </trkpt>
      <trkpt lat="43.69601" lon="3.95779">
        <ele>67.76699904</ele>
        <time>2020-06-06T13:50:12.000Z</time>
      </trkpt>
      <trkpt lat="43.69604" lon="3.95786">
        <ele>67.46699904</ele>
        <time>2020-06-06T13:50:13.000Z</time>
      </trkpt>
      <trkpt lat="43.69606" lon="3.95793">
        <ele>67.16699904</ele>
        <time>2020-06-06T13:50:14.000Z</time>
      </trkpt>
      <trkpt lat="43.69607" lon="3.958">
        <ele>66.86699904</ele>
        <time>2020-06-06T13:50:15.000Z</time>
      </trkpt>
      <trkpt lat="43.69608" lon="3.95807">
        <ele>66.56699904</ele>
        <time>2020-06-06T13:50:16.000Z</time>
      </trkpt>
      <trkpt lat="43.69609" lon="3.95814">
        <ele>66.26699904</ele>
        <time>2020-06-06T13:50:17.000Z</time>
      </trkpt>
      <trkpt lat="43.69611" lon="3.9582">
        <ele>65.98899968</ele>
        <time>2020-06-06T13:50:18.000Z</time>
      </trkpt>
      <trkpt lat="43.69612" lon="3.95826">
        <ele>65.88899968</ele>
        <time>2020-06-06T13:50:19.000Z</time>
      </trkpt>
      <trkpt lat="43.69612" lon="3.95832">
        <ele>65.78899968</ele>
        <time>2020-06-06T13:50:20.000Z</time>
      </trkpt>
      <trkpt lat="43.69612" lon="3.95839">
        <ele>65.68899968</ele>
        <time>2020-06-06T13:50:21.000Z</time>
      </trkpt>
      <trkpt lat="43.6961" lon="3.95845">
        <ele>65.58899968</ele>
        <time>2020-06-06T13:50:22.000Z</time>
      </trkpt>
      <trkpt lat="43.69607" lon="3.95849">
        <ele>65.48899968</ele>
        <time>2020-06-06T13:50:23.000Z</time>
      </trkpt>
      <trkpt lat="43.69605" lon="3.95851">
        <ele>65.38899968</ele>
        <time>2020-06-06T13:50:24.000Z</time>
      </trkpt>
      <trkpt lat="43.69603" lon="3.95851">
        <ele>65.28899968</ele>
        <time>2020-06-06T13:50:25.000Z</time>
      </trkpt>
      <trkpt lat="43.69601" lon="3.95851">
        <ele>65</ele>
        <time>2020-06-06T13:50:31.000Z</time>
      </trkpt>
      <trkpt lat="43.69601" lon="3.95851">
        <ele>64.995202193283</ele>
        <time>2020-06-06T13:50:32.000Z</time>
      </trkpt>
      <trkpt lat="43.69606" lon="3.95865">
        <ele>64.001370801919</ele>
        <time>2020-06-06T13:51:30.000Z</time>
      </trkpt>
      <trkpt lat="43.69606" lon="3.95868">
        <ele>64</ele>
        <time>2020-06-06T13:51:33.000Z</time>
      </trkpt>
      <trkpt lat="43.69605" lon="3.95871">
        <ele>64</ele>
        <time>2020-06-06T13:51:35.000Z</time>
      </trkpt>
      <trkpt lat="43.69603" lon="3.95874">
        <ele>64</ele>
        <time>2020-06-06T13:51:37.000Z</time>
      </trkpt>
      <trkpt lat="43.69602" lon="3.95877">
        <ele>64</ele>
        <time>2020-06-06T13:51:39.000Z</time>
      </trkpt>
      <trkpt lat="43.69601" lon="3.9588">
        <ele>63.892023035019</ele>
        <time>2020-06-06T13:51:41.000Z</time>
      </trkpt>
      <trkpt lat="43.696" lon="3.95882">
        <ele>63.405641712062</ele>
        <time>2020-06-06T13:51:46.000Z</time>
      </trkpt>
      <trkpt lat="43.696" lon="3.95885">
        <ele>63.211089182879</ele>
        <time>2020-06-06T13:51:48.000Z</time>
      </trkpt>
      <trkpt lat="43.69599" lon="3.95888">
        <ele>63.113812918288</ele>
        <time>2020-06-06T13:51:49.000Z</time>
      </trkpt>
      <trkpt lat="43.69598" lon="3.9589">
        <ele>63.016536653696</ele>
        <time>2020-06-06T13:51:50.000Z</time>
      </trkpt>
      <trkpt lat="43.69598" lon="3.95893">
        <ele>63</ele>
        <time>2020-06-06T13:51:51.000Z</time>
      </trkpt>
      <trkpt lat="43.69597" lon="3.95896">
        <ele>63</ele>
        <time>2020-06-06T13:51:52.000Z</time>
      </trkpt>
      <trkpt lat="43.69596" lon="3.959">
        <ele>63</ele>
        <time>2020-06-06T13:51:53.000Z</time>
      </trkpt>
      <trkpt lat="43.69595" lon="3.95903">
        <ele>63</ele>
        <time>2020-06-06T13:51:54.000Z</time>
      </trkpt>
      <trkpt lat="43.69594" lon="3.95907">
        <ele>63</ele>
        <time>2020-06-06T13:51:55.000Z</time>
      </trkpt>
      <trkpt lat="43.69592" lon="3.95911">
        <ele>63</ele>
        <time>2020-06-06T13:51:56.000Z</time>
      </trkpt>
      <trkpt lat="43.69591" lon="3.95915">
        <ele>63</ele>
        <time>2020-06-06T13:51:57.000Z</time>
      </trkpt>
      <trkpt lat="43.6959" lon="3.95919">
        <ele>63</ele>
        <time>2020-06-06T13:51:58.000Z</time>
      </trkpt>
      <trkpt lat="43.69589" lon="3.95922">
        <ele>63</ele>
        <time>2020-06-06T13:51:59.000Z</time>
      </trkpt>
      <trkpt lat="43.69587" lon="3.95926">
        <ele>63</ele>
        <time>2020-06-06T13:52:00.000Z</time>
      </trkpt>
      <trkpt lat="43.69585" lon="3.9593">
        <ele>62.914110373242</ele>
        <time>2020-06-06T13:52:01.000Z</time>
      </trkpt>
      <trkpt lat="43.69583" lon="3.95933">
        <ele>62.811860817578</ele>
        <time>2020-06-06T13:52:02.000Z</time>
      </trkpt>
      <trkpt lat="43.6958" lon="3.95937">
        <ele>62.709611261913</ele>
        <time>2020-06-06T13:52:03.000Z</time>
      </trkpt>
      <trkpt lat="43.69577" lon="3.95941">
        <ele>62.607361706249</ele>
        <time>2020-06-06T13:52:04.000Z</time>
      </trkpt>
      <trkpt lat="43.69574" lon="3.95945">
        <ele>62.505112150585</ele>
        <time>2020-06-06T13:52:05.000Z</time>
      </trkpt>
      <trkpt lat="43.69571" lon="3.9595">
        <ele>62.40286259492</ele>
        <time>2020-06-06T13:52:06.000Z</time>
      </trkpt>
      <trkpt lat="43.69569" lon="3.95954">
        <ele>62.300613039256</ele>
        <time>2020-06-06T13:52:07.000Z</time>
      </trkpt>
      <trkpt lat="43.69566" lon="3.9596">
        <ele>62.198363483592</ele>
        <time>2020-06-06T13:52:08.000Z</time>
      </trkpt>
      <trkpt lat="43.69565" lon="3.95965">
        <ele>62.096113927927</ele>
        <time>2020-06-06T13:52:09.000Z</time>
      </trkpt>
      <trkpt lat="43.69564" lon="3.95971">
        <ele>62.006031397231</ele>
        <time>2020-06-06T13:52:10.000Z</time>
      </trkpt>
      <trkpt lat="43.69564" lon="3.95976">
        <ele>62.106543963071</ele>
        <time>2020-06-06T13:52:11.000Z</time>
      </trkpt>
      <trkpt lat="43.69563" lon="3.95981">
        <ele>62.20705652891</ele>
        <time>2020-06-06T13:52:12.000Z</time>
      </trkpt>
      <trkpt lat="43.69562" lon="3.95985">
        <ele>62.30756909475</ele>
        <time>2020-06-06T13:52:13.000Z</time>
      </trkpt>
      <trkpt lat="43.69561" lon="3.95989">
        <ele>62.40808166059</ele>
        <time>2020-06-06T13:52:14.000Z</time>
      </trkpt>
      <trkpt lat="43.69561" lon="3.95993">
        <ele>62.50859422643</ele>
        <time>2020-06-06T13:52:15.000Z</time>
      </trkpt>
      <trkpt lat="43.6956" lon="3.95997">
        <ele>62.609106792269</ele>
        <time>2020-06-06T13:52:16.000Z</time>
      </trkpt>
      <trkpt lat="43.69559" lon="3.96001">
        <ele>62.709619358109</ele>
        <time>2020-06-06T13:52:17.000Z</time>
      </trkpt>
      <trkpt lat="43.69559" lon="3.96005">
        <ele>62.810131923949</ele>
        <time>2020-06-06T13:52:18.000Z</time>
      </trkpt>
      <trkpt lat="43.69558" lon="3.96009">
        <ele>62.910644489789</ele>
        <time>2020-06-06T13:52:19.000Z</time>
      </trkpt>
      <trkpt lat="43.69557" lon="3.96014">
        <ele>63</ele>
        <time>2020-06-06T13:52:20.000Z</time>
      </trkpt>
      <trkpt lat="43.69556" lon="3.96018">
        <ele>63</ele>
        <time>2020-06-06T13:52:21.000Z</time>
      </trkpt>
      <trkpt lat="43.69556" lon="3.96022">
        <ele>63</ele>
        <time>2020-06-06T13:52:22.000Z</time>
      </trkpt>
      <trkpt lat="43.69556" lon="3.96025">
        <ele>63</ele>
        <time>2020-06-06T13:52:23.000Z</time>
      </trkpt>
      <trkpt lat="43.69557" lon="3.96028">
        <ele>63</ele>
        <time>2020-06-06T13:52:24.000Z</time>
      </trkpt>
      <trkpt lat="43.69558" lon="3.96029">
        <ele>63</ele>
        <time>2020-06-06T13:52:25.000Z</time>
      </trkpt>
      <trkpt lat="43.6956" lon="3.96031">
        <ele>63</ele>
        <time>2020-06-06T13:52:26.000Z</time>
      </trkpt>
      <trkpt lat="43.69563" lon="3.96032">
        <ele>63</ele>
        <time>2020-06-06T13:52:27.000Z</time>
      </trkpt>
      <trkpt lat="43.69564" lon="3.96034">
        <ele>63</ele>
        <time>2020-06-06T13:52:28.000Z</time>
      </trkpt>
      <trkpt lat="43.69566" lon="3.96035">
        <ele>63</ele>
        <time>2020-06-06T13:52:29.000Z</time>
      </trkpt>
      <trkpt lat="43.69568" lon="3.96036">
        <ele>63</ele>
        <time>2020-06-06T13:52:30.000Z</time>
      </trkpt>
      <trkpt lat="43.69569" lon="3.96037">
        <ele>63</ele>
        <time>2020-06-06T13:52:31.000Z</time>
      </trkpt>
      <trkpt lat="43.69571" lon="3.96038">
        <ele>63</ele>
        <time>2020-06-06T13:52:32.000Z</time>
      </trkpt>
      <trkpt lat="43.69573" lon="3.96039">
        <ele>63</ele>
        <time>2020-06-06T13:52:33.000Z</time>
      </trkpt>
      <trkpt lat="43.69576" lon="3.96041">
        <ele>63</ele>
        <time>2020-06-06T13:52:34.000Z</time>
      </trkpt>
      <trkpt lat="43.69578" lon="3.96042">
        <ele>63</ele>
        <time>2020-06-06T13:52:35.000Z</time>
      </trkpt>
      <trkpt lat="43.6958" lon="3.96044">
        <ele>63</ele>
        <time>2020-06-06T13:52:36.000Z</time>
      </trkpt>
      <trkpt lat="43.69583" lon="3.96046">
        <ele>63</ele>
        <time>2020-06-06T13:52:37.000Z</time>
      </trkpt>
      <trkpt lat="43.69586" lon="3.96047">
        <ele>63</ele>
        <time>2020-06-06T13:52:38.000Z</time>
      </trkpt>
      <trkpt lat="43.69588" lon="3.96048">
        <ele>63</ele>
        <time>2020-06-06T13:52:39.000Z</time>
      </trkpt>
      <trkpt lat="43.69591" lon="3.9605">
        <ele>63.01110016</ele>
        <time>2020-06-06T13:52:40.000Z</time>
      </trkpt>
      <trkpt lat="43.69593" lon="3.96051">
        <ele>63.11110016</ele>
        <time>2020-06-06T13:52:41.000Z</time>
      </trkpt>
      <trkpt lat="43.69596" lon="3.96052">
        <ele>63.21110016</ele>
        <time>2020-06-06T13:52:42.000Z</time>
      </trkpt>
      <trkpt lat="43.69598" lon="3.96054">
        <ele>63.31110016</ele>
        <time>2020-06-06T13:52:43.000Z</time>
      </trkpt>
      <trkpt lat="43.69601" lon="3.96055">
        <ele>63.41110016</ele>
        <time>2020-06-06T13:52:44.000Z</time>
      </trkpt>
      <trkpt lat="43.69603" lon="3.96057">
        <ele>63.51110016</ele>
        <time>2020-06-06T13:52:45.000Z</time>
      </trkpt>
      <trkpt lat="43.69606" lon="3.96059">
        <ele>63.61110016</ele>
        <time>2020-06-06T13:52:46.000Z</time>
      </trkpt>
      <trkpt lat="43.69608" lon="3.9606">
        <ele>63.71110016</ele>
        <time>2020-06-06T13:52:47.000Z</time>
      </trkpt>
      <trkpt lat="43.69611" lon="3.96062">
        <ele>63.81110016</ele>
        <time>2020-06-06T13:52:48.000Z</time>
      </trkpt>
      <trkpt lat="43.69613" lon="3.96063">
        <ele>63.91110016</ele>
        <time>2020-06-06T13:52:49.000Z</time>
      </trkpt>
      <trkpt lat="43.69616" lon="3.96065">
        <ele>64.01110016</ele>
        <time>2020-06-06T13:52:50.000Z</time>
      </trkpt>
      <trkpt lat="43.69618" lon="3.96066">
        <ele>64.11110016</ele>
        <time>2020-06-06T13:52:51.000Z</time>
      </trkpt>
      <trkpt lat="43.69621" lon="3.96068">
        <ele>64.21110016</ele>
        <time>2020-06-06T13:52:52.000Z</time>
      </trkpt>
      <trkpt lat="43.69624" lon="3.96069">
        <ele>64.31110016</ele>
        <time>2020-06-06T13:52:53.000Z</time>
      </trkpt>
      <trkpt lat="43.69627" lon="3.96071">
        <ele>64.41110016</ele>
        <time>2020-06-06T13:52:54.000Z</time>
      </trkpt>
      <trkpt lat="43.69629" lon="3.96073">
        <ele>64.51110016</ele>
        <time>2020-06-06T13:52:55.000Z</time>
      </trkpt>
      <trkpt lat="43.69632" lon="3.96075">
        <ele>64.61110016</ele>
        <time>2020-06-06T13:52:56.000Z</time>
      </trkpt>
      <trkpt lat="43.69635" lon="3.96076">
        <ele>64.71110016</ele>
        <time>2020-06-06T13:52:57.000Z</time>
      </trkpt>
      <trkpt lat="43.69638" lon="3.96078">
        <ele>64.81110016</ele>
        <time>2020-06-06T13:52:58.000Z</time>
      </trkpt>
      <trkpt lat="43.69641" lon="3.9608">
        <ele>64.91110016</ele>
        <time>2020-06-06T13:52:59.000Z</time>
      </trkpt>
      <trkpt lat="43.69644" lon="3.96081">
        <ele>65.01110016</ele>
        <time>2020-06-06T13:53:00.000Z</time>
      </trkpt>
      <trkpt lat="43.69647" lon="3.96083">
        <ele>65.11110016</ele>
        <time>2020-06-06T13:53:01.000Z</time>
      </trkpt>
      <trkpt lat="43.6965" lon="3.96085">
        <ele>65.21110016</ele>
        <time>2020-06-06T13:53:02.000Z</time>
      </trkpt>
      <trkpt lat="43.69652" lon="3.96087">
        <ele>65.31110016</ele>
        <time>2020-06-06T13:53:03.000Z</time>
      </trkpt>
      <trkpt lat="43.69655" lon="3.96089">
        <ele>65.41110016</ele>
        <time>2020-06-06T13:53:04.000Z</time>
      </trkpt>
      <trkpt lat="43.69658" lon="3.96091">
        <ele>65.51110016</ele>
        <time>2020-06-06T13:53:05.000Z</time>
      </trkpt>
      <trkpt lat="43.6966" lon="3.96093">
        <ele>65.61110016</ele>
        <time>2020-06-06T13:53:06.000Z</time>
      </trkpt>
      <trkpt lat="43.69663" lon="3.96094">
        <ele>65.71110016</ele>
        <time>2020-06-06T13:53:07.000Z</time>
      </trkpt>
      <trkpt lat="43.69666" lon="3.96096">
        <ele>65.81110016</ele>
        <time>2020-06-06T13:53:08.000Z</time>
      </trkpt>
      <trkpt lat="43.69669" lon="3.96098">
        <ele>65.91110016</ele>
        <time>2020-06-06T13:53:09.000Z</time>
      </trkpt>
      <trkpt lat="43.69671" lon="3.96099">
        <ele>66.01110016</ele>
        <time>2020-06-06T13:53:10.000Z</time>
      </trkpt>
      <trkpt lat="43.69674" lon="3.96101">
        <ele>66.11110016</ele>
        <time>2020-06-06T13:53:11.000Z</time>
      </trkpt>
      <trkpt lat="43.69677" lon="3.96102">
        <ele>66.21110016</ele>
        <time>2020-06-06T13:53:12.000Z</time>
      </trkpt>
      <trkpt lat="43.69679" lon="3.96104">
        <ele>66.31110016</ele>
        <time>2020-06-06T13:53:13.000Z</time>
      </trkpt>
      <trkpt lat="43.69682" lon="3.96106">
        <ele>66.41110016</ele>
        <time>2020-06-06T13:53:14.000Z</time>
      </trkpt>
      <trkpt lat="43.69685" lon="3.96107">
        <ele>66.51110016</ele>
        <time>2020-06-06T13:53:15.000Z</time>
      </trkpt>
      <trkpt lat="43.69687" lon="3.96109">
        <ele>66.61110016</ele>
        <time>2020-06-06T13:53:16.000Z</time>
      </trkpt>
      <trkpt lat="43.6969" lon="3.96111">
        <ele>66.71110016</ele>
        <time>2020-06-06T13:53:17.000Z</time>
      </trkpt>
      <trkpt lat="43.69692" lon="3.96112">
        <ele>66.81110016</ele>
        <time>2020-06-06T13:53:18.000Z</time>
      </trkpt>
      <trkpt lat="43.69695" lon="3.96114">
        <ele>66.91110016</ele>
        <time>2020-06-06T13:53:19.000Z</time>
      </trkpt>
      <trkpt lat="43.69697" lon="3.96115">
        <ele>67.01110016</ele>
        <time>2020-06-06T13:53:20.000Z</time>
      </trkpt>
      <trkpt lat="43.697" lon="3.96117">
        <ele>67.11110016</ele>
        <time>2020-06-06T13:53:21.000Z</time>
      </trkpt>
      <trkpt lat="43.69703" lon="3.96118">
        <ele>67.21110016</ele>
        <time>2020-06-06T13:53:22.000Z</time>
      </trkpt>
      <trkpt lat="43.69705" lon="3.9612">
        <ele>67.31110016</ele>
        <time>2020-06-06T13:53:23.000Z</time>
      </trkpt>
      <trkpt lat="43.69708" lon="3.96121">
        <ele>67.41110016</ele>
        <time>2020-06-06T13:53:24.000Z</time>
      </trkpt>
      <trkpt lat="43.69711" lon="3.96123">
        <ele>67.51110016</ele>
        <time>2020-06-06T13:53:25.000Z</time>
      </trkpt>
      <trkpt lat="43.69713" lon="3.96124">
        <ele>67.61110016</ele>
        <time>2020-06-06T13:53:26.000Z</time>
      </trkpt>
      <trkpt lat="43.69716" lon="3.96126">
        <ele>67.71110016</ele>
        <time>2020-06-06T13:53:27.000Z</time>
      </trkpt>
      <trkpt lat="43.69719" lon="3.96128">
        <ele>67.81110016</ele>
        <time>2020-06-06T13:53:28.000Z</time>
      </trkpt>
      <trkpt lat="43.69721" lon="3.96129">
        <ele>67.91110016</ele>
        <time>2020-06-06T13:53:29.000Z</time>
      </trkpt>
      <trkpt lat="43.69724" lon="3.96131">
        <ele>68.01108795438</ele>
        <time>2020-06-06T13:53:30.000Z</time>
      </trkpt>
      <trkpt lat="43.69727" lon="3.96132">
        <ele>68.110977995423</ele>
        <time>2020-06-06T13:53:31.000Z</time>
      </trkpt>
      <trkpt lat="43.6973" lon="3.96133">
        <ele>68.210868036465</ele>
        <time>2020-06-06T13:53:32.000Z</time>
      </trkpt>
      <trkpt lat="43.69733" lon="3.96134">
        <ele>68.310758077508</ele>
        <time>2020-06-06T13:53:33.000Z</time>
      </trkpt>
      <trkpt lat="43.69736" lon="3.96136">
        <ele>68.410648118551</ele>
        <time>2020-06-06T13:53:34.000Z</time>
      </trkpt>
      <trkpt lat="43.69739" lon="3.96137">
        <ele>68.510538159594</ele>
        <time>2020-06-06T13:53:35.000Z</time>
      </trkpt>
      <trkpt lat="43.69742" lon="3.96138">
        <ele>68.610428200637</ele>
        <time>2020-06-06T13:53:36.000Z</time>
      </trkpt>
      <trkpt lat="43.69745" lon="3.96139">
        <ele>68.71031824168</ele>
        <time>2020-06-06T13:53:37.000Z</time>
      </trkpt>
      <trkpt lat="43.69748" lon="3.9614">
        <ele>68.810208282722</ele>
        <time>2020-06-06T13:53:38.000Z</time>
      </trkpt>
      <trkpt lat="43.69751" lon="3.96141">
        <ele>68.910098323765</ele>
        <time>2020-06-06T13:53:39.000Z</time>
      </trkpt>
      <trkpt lat="43.69754" lon="3.96142">
        <ele>69.009822560203</ele>
        <time>2020-06-06T13:53:40.000Z</time>
      </trkpt>
      <trkpt lat="43.69757" lon="3.96143">
        <ele>69.108054449072</ele>
        <time>2020-06-06T13:53:41.000Z</time>
      </trkpt>
      <trkpt lat="43.6976" lon="3.96144">
        <ele>69.20628633794</ele>
        <time>2020-06-06T13:53:42.000Z</time>
      </trkpt>
      <trkpt lat="43.69763" lon="3.96145">
        <ele>69.304518226809</ele>
        <time>2020-06-06T13:53:43.000Z</time>
      </trkpt>
      <trkpt lat="43.69766" lon="3.96146">
        <ele>69.402750115678</ele>
        <time>2020-06-06T13:53:44.000Z</time>
      </trkpt>
      <trkpt lat="43.69769" lon="3.96147">
        <ele>69.500982004547</ele>
        <time>2020-06-06T13:53:45.000Z</time>
      </trkpt>
      <trkpt lat="43.69772" lon="3.96148">
        <ele>69.599213893415</ele>
        <time>2020-06-06T13:53:46.000Z</time>
      </trkpt>
      <trkpt lat="43.69775" lon="3.96149">
        <ele>69.697445782284</ele>
        <time>2020-06-06T13:53:47.000Z</time>
      </trkpt>
      <trkpt lat="43.69778" lon="3.9615">
        <ele>69.795677671153</ele>
        <time>2020-06-06T13:53:48.000Z</time>
      </trkpt>
      <trkpt lat="43.69781" lon="3.96151">
        <ele>69.893909560022</ele>
        <time>2020-06-06T13:53:49.000Z</time>
      </trkpt>
      <trkpt lat="43.69784" lon="3.96152">
        <ele>69.99214144889</ele>
        <time>2020-06-06T13:53:50.000Z</time>
      </trkpt>
      <trkpt lat="43.69787" lon="3.96153">
        <ele>70.093791431345</ele>
        <time>2020-06-06T13:53:51.000Z</time>
      </trkpt>
      <trkpt lat="43.6979" lon="3.96154">
        <ele>70.195738639329</ele>
        <time>2020-06-06T13:53:52.000Z</time>
      </trkpt>
      <trkpt lat="43.69793" lon="3.96155">
        <ele>70.297685847313</ele>
        <time>2020-06-06T13:53:53.000Z</time>
      </trkpt>
      <trkpt lat="43.69796" lon="3.96156">
        <ele>70.399633055297</ele>
        <time>2020-06-06T13:53:54.000Z</time>
      </trkpt>
      <trkpt lat="43.69799" lon="3.96157">
        <ele>70.501580263281</ele>
        <time>2020-06-06T13:53:55.000Z</time>
      </trkpt>
      <trkpt lat="43.69803" lon="3.96158">
        <ele>70.603527471266</ele>
        <time>2020-06-06T13:53:56.000Z</time>
      </trkpt>
      <trkpt lat="43.69806" lon="3.96159">
        <ele>70.70547467925</ele>
        <time>2020-06-06T13:53:57.000Z</time>
      </trkpt>
      <trkpt lat="43.69809" lon="3.9616">
        <ele>70.807421887234</ele>
        <time>2020-06-06T13:53:58.000Z</time>
      </trkpt>
      <trkpt lat="43.69812" lon="3.96162">
        <ele>70.909369095218</ele>
        <time>2020-06-06T13:53:59.000Z</time>
      </trkpt>
      <trkpt lat="43.69815" lon="3.96163">
        <ele>71.01110016</ele>
        <time>2020-06-06T13:54:00.000Z</time>
      </trkpt>
      <trkpt lat="43.69818" lon="3.96164">
        <ele>71.11110016</ele>
        <time>2020-06-06T13:54:01.000Z</time>
      </trkpt>
      <trkpt lat="43.69821" lon="3.96165">
        <ele>71.21110016</ele>
        <time>2020-06-06T13:54:02.000Z</time>
      </trkpt>
      <trkpt lat="43.69824" lon="3.96166">
        <ele>71.31110016</ele>
        <time>2020-06-06T13:54:03.000Z</time>
      </trkpt>
      <trkpt lat="43.69827" lon="3.96167">
        <ele>71.41110016</ele>
        <time>2020-06-06T13:54:04.000Z</time>
      </trkpt>
      <trkpt lat="43.6983" lon="3.96168">
        <ele>71.51110016</ele>
        <time>2020-06-06T13:54:05.000Z</time>
      </trkpt>
      <trkpt lat="43.69834" lon="3.96169">
        <ele>71.61110016</ele>
        <time>2020-06-06T13:54:06.000Z</time>
      </trkpt>
      <trkpt lat="43.69837" lon="3.96171">
        <ele>71.71110016</ele>
        <time>2020-06-06T13:54:07.000Z</time>
      </trkpt>
      <trkpt lat="43.6984" lon="3.96172">
        <ele>71.81110016</ele>
        <time>2020-06-06T13:54:08.000Z</time>
      </trkpt>
      <trkpt lat="43.69843" lon="3.96173">
        <ele>71.91110016</ele>
        <time>2020-06-06T13:54:09.000Z</time>
      </trkpt>
      <trkpt lat="43.69846" lon="3.96174">
        <ele>72.010796772422</ele>
        <time>2020-06-06T13:54:10.000Z</time>
      </trkpt>
      <trkpt lat="43.69849" lon="3.96175">
        <ele>72.1080635904</ele>
        <time>2020-06-06T13:54:11.000Z</time>
      </trkpt>
      <trkpt lat="43.69852" lon="3.96176">
        <ele>72.205330408378</ele>
        <time>2020-06-06T13:54:12.000Z</time>
      </trkpt>
      <trkpt lat="43.69856" lon="3.96177">
        <ele>72.302597226355</ele>
        <time>2020-06-06T13:54:13.000Z</time>
      </trkpt>
      <trkpt lat="43.69859" lon="3.96178">
        <ele>72.399864044333</ele>
        <time>2020-06-06T13:54:14.000Z</time>
      </trkpt>
      <trkpt lat="43.69862" lon="3.96179">
        <ele>72.49713086231</ele>
        <time>2020-06-06T13:54:15.000Z</time>
      </trkpt>
      <trkpt lat="43.69865" lon="3.9618">
        <ele>72.594397680287</ele>
        <time>2020-06-06T13:54:16.000Z</time>
      </trkpt>
      <trkpt lat="43.69868" lon="3.96181">
        <ele>72.691664498265</ele>
        <time>2020-06-06T13:54:17.000Z</time>
      </trkpt>
      <trkpt lat="43.69871" lon="3.96182">
        <ele>72.788931316243</ele>
        <time>2020-06-06T13:54:18.000Z</time>
      </trkpt>
      <trkpt lat="43.69874" lon="3.96183">
        <ele>72.88619813422</ele>
        <time>2020-06-06T13:54:19.000Z</time>
      </trkpt>
      <trkpt lat="43.69877" lon="3.96185">
        <ele>72.983464952198</ele>
        <time>2020-06-06T13:54:20.000Z</time>
      </trkpt>
      <trkpt lat="43.6988" lon="3.96186">
        <ele>73</ele>
        <time>2020-06-06T13:54:21.000Z</time>
      </trkpt>
      <trkpt lat="43.69883" lon="3.96187">
        <ele>73</ele>
        <time>2020-06-06T13:54:22.000Z</time>
      </trkpt>
      <trkpt lat="43.69887" lon="3.96189">
        <ele>73</ele>
        <time>2020-06-06T13:54:23.000Z</time>
      </trkpt>
      <trkpt lat="43.6989" lon="3.9619">
        <ele>73</ele>
        <time>2020-06-06T13:54:24.000Z</time>
      </trkpt>
      <trkpt lat="43.69893" lon="3.9619">
        <ele>73</ele>
        <time>2020-06-06T13:54:25.000Z</time>
      </trkpt>
      <trkpt lat="43.69896" lon="3.96191">
        <ele>73</ele>
        <time>2020-06-06T13:54:26.000Z</time>
      </trkpt>
      <trkpt lat="43.69899" lon="3.96192">
        <ele>73</ele>
        <time>2020-06-06T13:54:27.000Z</time>
      </trkpt>
      <trkpt lat="43.69902" lon="3.96194">
        <ele>73</ele>
        <time>2020-06-06T13:54:28.000Z</time>
      </trkpt>
      <trkpt lat="43.69905" lon="3.96195">
        <ele>73</ele>
        <time>2020-06-06T13:54:29.000Z</time>
      </trkpt>
      <trkpt lat="43.69908" lon="3.96196">
        <ele>73.01110016</ele>
        <time>2020-06-06T13:54:30.000Z</time>
      </trkpt>
      <trkpt lat="43.69911" lon="3.96197">
        <ele>73.11110016</ele>
        <time>2020-06-06T13:54:31.000Z</time>
      </trkpt>
      <trkpt lat="43.69914" lon="3.96198">
        <ele>73.21110016</ele>
        <time>2020-06-06T13:54:32.000Z</time>
      </trkpt>
      <trkpt lat="43.69917" lon="3.96199">
        <ele>73.31110016</ele>
        <time>2020-06-06T13:54:33.000Z</time>
      </trkpt>
      <trkpt lat="43.6992" lon="3.962">
        <ele>73.41110016</ele>
        <time>2020-06-06T13:54:34.000Z</time>
      </trkpt>
      <trkpt lat="43.69923" lon="3.96201">
        <ele>73.51110016</ele>
        <time>2020-06-06T13:54:35.000Z</time>
      </trkpt>
      <trkpt lat="43.69926" lon="3.96203">
        <ele>73.61110016</ele>
        <time>2020-06-06T13:54:36.000Z</time>
      </trkpt>
      <trkpt lat="43.69929" lon="3.96204">
        <ele>73.71110016</ele>
        <time>2020-06-06T13:54:37.000Z</time>
      </trkpt>
      <trkpt lat="43.69931" lon="3.96206">
        <ele>73.81110016</ele>
        <time>2020-06-06T13:54:38.000Z</time>
      </trkpt>
      <trkpt lat="43.69933" lon="3.96209">
        <ele>73.91110016</ele>
        <time>2020-06-06T13:54:39.000Z</time>
      </trkpt>
      <trkpt lat="43.69935" lon="3.96213">
        <ele>74</ele>
        <time>2020-06-06T13:54:40.000Z</time>
      </trkpt>
      <trkpt lat="43.69935" lon="3.96217">
        <ele>74</ele>
        <time>2020-06-06T13:54:41.000Z</time>
      </trkpt>
      <trkpt lat="43.69936" lon="3.96223">
        <ele>74</ele>
        <time>2020-06-06T13:54:42.000Z</time>
      </trkpt>
      <trkpt lat="43.69936" lon="3.96228">
        <ele>74</ele>
        <time>2020-06-06T13:54:43.000Z</time>
      </trkpt>
      <trkpt lat="43.69936" lon="3.96235">
        <ele>74</ele>
        <time>2020-06-06T13:54:44.000Z</time>
      </trkpt>
      <trkpt lat="43.69936" lon="3.96241">
        <ele>74</ele>
        <time>2020-06-06T13:54:45.000Z</time>
      </trkpt>
      <trkpt lat="43.69936" lon="3.96248">
        <ele>74</ele>
        <time>2020-06-06T13:54:46.000Z</time>
      </trkpt>
      <trkpt lat="43.69935" lon="3.96254">
        <ele>74</ele>
        <time>2020-06-06T13:54:47.000Z</time>
      </trkpt>
      <trkpt lat="43.69934" lon="3.96261">
        <ele>74</ele>
        <time>2020-06-06T13:54:48.000Z</time>
      </trkpt>
      <trkpt lat="43.69933" lon="3.96268">
        <ele>74</ele>
        <time>2020-06-06T13:54:49.000Z</time>
      </trkpt>
      <trkpt lat="43.69932" lon="3.96275">
        <ele>74</ele>
        <time>2020-06-06T13:54:50.000Z</time>
      </trkpt>
      <trkpt lat="43.69932" lon="3.96281">
        <ele>74</ele>
        <time>2020-06-06T13:54:51.000Z</time>
      </trkpt>
      <trkpt lat="43.69931" lon="3.96288">
        <ele>74</ele>
        <time>2020-06-06T13:54:52.000Z</time>
      </trkpt>
      <trkpt lat="43.6993" lon="3.96294">
        <ele>74</ele>
        <time>2020-06-06T13:54:53.000Z</time>
      </trkpt>
      <trkpt lat="43.6993" lon="3.963">
        <ele>74</ele>
        <time>2020-06-06T13:54:54.000Z</time>
      </trkpt>
      <trkpt lat="43.69929" lon="3.96307">
        <ele>74</ele>
        <time>2020-06-06T13:54:55.000Z</time>
      </trkpt>
      <trkpt lat="43.69928" lon="3.96312">
        <ele>74</ele>
        <time>2020-06-06T13:54:56.000Z</time>
      </trkpt>
      <trkpt lat="43.69927" lon="3.96318">
        <ele>74</ele>
        <time>2020-06-06T13:54:57.000Z</time>
      </trkpt>
      <trkpt lat="43.69925" lon="3.96323">
        <ele>74</ele>
        <time>2020-06-06T13:54:58.000Z</time>
      </trkpt>
      <trkpt lat="43.69924" lon="3.96328">
        <ele>74</ele>
        <time>2020-06-06T13:54:59.000Z</time>
      </trkpt>
      <trkpt lat="43.69923" lon="3.96332">
        <ele>74</ele>
        <time>2020-06-06T13:55:00.000Z</time>
      </trkpt>
      <trkpt lat="43.69921" lon="3.96337">
        <ele>74</ele>
        <time>2020-06-06T13:55:01.000Z</time>
      </trkpt>
      <trkpt lat="43.69919" lon="3.96341">
        <ele>74</ele>
        <time>2020-06-06T13:55:02.000Z</time>
      </trkpt>
      <trkpt lat="43.69918" lon="3.96345">
        <ele>74</ele>
        <time>2020-06-06T13:55:03.000Z</time>
      </trkpt>
      <trkpt lat="43.69917" lon="3.96349">
        <ele>74</ele>
        <time>2020-06-06T13:55:04.000Z</time>
      </trkpt>
      <trkpt lat="43.69917" lon="3.96352">
        <ele>74</ele>
        <time>2020-06-06T13:55:05.000Z</time>
      </trkpt>
      <trkpt lat="43.69916" lon="3.96356">
        <ele>74</ele>
        <time>2020-06-06T13:55:07.000Z</time>
      </trkpt>
      <trkpt lat="43.69914" lon="3.96358">
        <ele>74</ele>
        <time>2020-06-06T13:55:09.000Z</time>
      </trkpt>
      <trkpt lat="43.69913" lon="3.96356">
        <ele>74</ele>
        <time>2020-06-06T13:55:12.000Z</time>
      </trkpt>
      <trkpt lat="43.69914" lon="3.96352">
        <ele>74</ele>
        <time>2020-06-06T13:55:14.000Z</time>
      </trkpt>
      <trkpt lat="43.69916" lon="3.96348">
        <ele>74</ele>
        <time>2020-06-06T13:55:15.000Z</time>
      </trkpt>
      <trkpt lat="43.69917" lon="3.96344">
        <ele>74</ele>
        <time>2020-06-06T13:55:16.000Z</time>
      </trkpt>
      <trkpt lat="43.69919" lon="3.9634">
        <ele>74</ele>
        <time>2020-06-06T13:55:17.000Z</time>
      </trkpt>
      <trkpt lat="43.6992" lon="3.96334">
        <ele>74</ele>
        <time>2020-06-06T13:55:18.000Z</time>
      </trkpt>
      <trkpt lat="43.69922" lon="3.96329">
        <ele>74</ele>
        <time>2020-06-06T13:55:19.000Z</time>
      </trkpt>
      <trkpt lat="43.69924" lon="3.96324">
        <ele>74</ele>
        <time>2020-06-06T13:55:20.000Z</time>
      </trkpt>
      <trkpt lat="43.69925" lon="3.96318">
        <ele>74</ele>
        <time>2020-06-06T13:55:21.000Z</time>
      </trkpt>
      <trkpt lat="43.69926" lon="3.96313">
        <ele>74</ele>
        <time>2020-06-06T13:55:22.000Z</time>
      </trkpt>
      <trkpt lat="43.69928" lon="3.96307">
        <ele>74</ele>
        <time>2020-06-06T13:55:23.000Z</time>
      </trkpt>
      <trkpt lat="43.69928" lon="3.96302">
        <ele>74</ele>
        <time>2020-06-06T13:55:24.000Z</time>
      </trkpt>
      <trkpt lat="43.69929" lon="3.96297">
        <ele>74</ele>
        <time>2020-06-06T13:55:25.000Z</time>
      </trkpt>
      <trkpt lat="43.6993" lon="3.96292">
        <ele>74</ele>
        <time>2020-06-06T13:55:26.000Z</time>
      </trkpt>
      <trkpt lat="43.69932" lon="3.96287">
        <ele>74</ele>
        <time>2020-06-06T13:55:27.000Z</time>
      </trkpt>
      <trkpt lat="43.69934" lon="3.96283">
        <ele>74</ele>
        <time>2020-06-06T13:55:28.000Z</time>
      </trkpt>
      <trkpt lat="43.69937" lon="3.96282">
        <ele>74</ele>
        <time>2020-06-06T13:55:29.000Z</time>
      </trkpt>
      <trkpt lat="43.69941" lon="3.96281">
        <ele>74.011099051871</ele>
        <time>2020-06-06T13:55:30.000Z</time>
      </trkpt>
      <trkpt lat="43.69944" lon="3.96281">
        <ele>74.111089068867</ele>
        <time>2020-06-06T13:55:31.000Z</time>
      </trkpt>
      <trkpt lat="43.69948" lon="3.96281">
        <ele>74.211079085864</ele>
        <time>2020-06-06T13:55:32.000Z</time>
      </trkpt>
      <trkpt lat="43.69951" lon="3.96282">
        <ele>74.311069102861</ele>
        <time>2020-06-06T13:55:33.000Z</time>
      </trkpt>
      <trkpt lat="43.69954" lon="3.96283">
        <ele>74.411059119857</ele>
        <time>2020-06-06T13:55:34.000Z</time>
      </trkpt>
      <trkpt lat="43.69957" lon="3.96285">
        <ele>74.511049136854</ele>
        <time>2020-06-06T13:55:35.000Z</time>
      </trkpt>
      <trkpt lat="43.69959" lon="3.96289">
        <ele>74.611039153851</ele>
        <time>2020-06-06T13:55:36.000Z</time>
      </trkpt>
      <trkpt lat="43.6996" lon="3.96292">
        <ele>74.711029170848</ele>
        <time>2020-06-06T13:55:37.000Z</time>
      </trkpt>
      <trkpt lat="43.69961" lon="3.96296">
        <ele>74.811019187844</ele>
        <time>2020-06-06T13:55:38.000Z</time>
      </trkpt>
      <trkpt lat="43.69961" lon="3.96299">
        <ele>74.911009204841</ele>
        <time>2020-06-06T13:55:39.000Z</time>
      </trkpt>
      <trkpt lat="43.69962" lon="3.96302">
        <ele>75.010721552766</ele>
        <time>2020-06-06T13:55:40.000Z</time>
      </trkpt>
      <trkpt lat="43.69963" lon="3.96305">
        <ele>75.108187378908</ele>
        <time>2020-06-06T13:55:41.000Z</time>
      </trkpt>
      <trkpt lat="43.69963" lon="3.96308">
        <ele>75.205653205051</ele>
        <time>2020-06-06T13:55:42.000Z</time>
      </trkpt>
      <trkpt lat="43.69964" lon="3.96311">
        <ele>75.303119031193</ele>
        <time>2020-06-06T13:55:43.000Z</time>
      </trkpt>
      <trkpt lat="43.69965" lon="3.96314">
        <ele>75.400584857335</ele>
        <time>2020-06-06T13:55:44.000Z</time>
      </trkpt>
      <trkpt lat="43.69965" lon="3.96318">
        <ele>75.498050683477</ele>
        <time>2020-06-06T13:55:45.000Z</time>
      </trkpt>
      <trkpt lat="43.69965" lon="3.96321">
        <ele>75.595516509619</ele>
        <time>2020-06-06T13:55:46.000Z</time>
      </trkpt>
      <trkpt lat="43.69965" lon="3.96325">
        <ele>75.692982335761</ele>
        <time>2020-06-06T13:55:47.000Z</time>
      </trkpt>
      <trkpt lat="43.69965" lon="3.96328">
        <ele>75.790448161904</ele>
        <time>2020-06-06T13:55:48.000Z</time>
      </trkpt>
      <trkpt lat="43.69964" lon="3.96332">
        <ele>75.887913988046</ele>
        <time>2020-06-06T13:55:49.000Z</time>
      </trkpt>
      <trkpt lat="43.69964" lon="3.96335">
        <ele>75.985379814188</ele>
        <time>2020-06-06T13:55:50.000Z</time>
      </trkpt>
      <trkpt lat="43.69964" lon="3.96339">
        <ele>76.174537445281</ele>
        <time>2020-06-06T13:55:51.000Z</time>
      </trkpt>
      <trkpt lat="43.69965" lon="3.96342">
        <ele>76.379876389241</ele>
        <time>2020-06-06T13:55:52.000Z</time>
      </trkpt>
      <trkpt lat="43.69965" lon="3.96345">
        <ele>76.585215333201</ele>
        <time>2020-06-06T13:55:53.000Z</time>
      </trkpt>
      <trkpt lat="43.69965" lon="3.96348">
        <ele>76.790554277161</ele>
        <time>2020-06-06T13:55:54.000Z</time>
      </trkpt>
      <trkpt lat="43.69966" lon="3.96351">
        <ele>76.995893221121</ele>
        <time>2020-06-06T13:55:55.000Z</time>
      </trkpt>
      <trkpt lat="43.69968" lon="3.96356">
        <ele>77.406571109041</ele>
        <time>2020-06-06T13:55:57.000Z</time>
      </trkpt>
      <trkpt lat="43.69968" lon="3.96358">
        <ele>77.611910053</ele>
        <time>2020-06-06T13:55:58.000Z</time>
      </trkpt>
      <trkpt lat="43.69968" lon="3.96361">
        <ele>77.81724899696</ele>
        <time>2020-06-06T13:55:59.000Z</time>
      </trkpt>
      <trkpt lat="43.69968" lon="3.96364">
        <ele>78.01100032</ele>
        <time>2020-06-06T13:56:00.000Z</time>
      </trkpt>
      <trkpt lat="43.69968" lon="3.96368">
        <ele>78.11100032</ele>
        <time>2020-06-06T13:56:01.000Z</time>
      </trkpt>
      <trkpt lat="43.69967" lon="3.96371">
        <ele>78.21100032</ele>
        <time>2020-06-06T13:56:02.000Z</time>
      </trkpt>
      <trkpt lat="43.69967" lon="3.96374">
        <ele>78.31100032</ele>
        <time>2020-06-06T13:56:03.000Z</time>
      </trkpt>
      <trkpt lat="43.69968" lon="3.96377">
        <ele>78.41100032</ele>
        <time>2020-06-06T13:56:04.000Z</time>
      </trkpt>
      <trkpt lat="43.69968" lon="3.9638">
        <ele>78.51100032</ele>
        <time>2020-06-06T13:56:05.000Z</time>
      </trkpt>
      <trkpt lat="43.69969" lon="3.96383">
        <ele>78.61100032</ele>
        <time>2020-06-06T13:56:06.000Z</time>
      </trkpt>
      <trkpt lat="43.69971" lon="3.96385">
        <ele>78.71100032</ele>
        <time>2020-06-06T13:56:07.000Z</time>
      </trkpt>
      <trkpt lat="43.69972" lon="3.96388">
        <ele>78.81100032</ele>
        <time>2020-06-06T13:56:08.000Z</time>
      </trkpt>
      <trkpt lat="43.69973" lon="3.96391">
        <ele>78.91100032</ele>
        <time>2020-06-06T13:56:09.000Z</time>
      </trkpt>
      <trkpt lat="43.69974" lon="3.96394">
        <ele>79.02200064</ele>
        <time>2020-06-06T13:56:10.000Z</time>
      </trkpt>
      <trkpt lat="43.69974" lon="3.96396">
        <ele>79.22200064</ele>
        <time>2020-06-06T13:56:11.000Z</time>
      </trkpt>
      <trkpt lat="43.69974" lon="3.96399">
        <ele>79.42200064</ele>
        <time>2020-06-06T13:56:12.000Z</time>
      </trkpt>
      <trkpt lat="43.69975" lon="3.96401">
        <ele>79.62200064</ele>
        <time>2020-06-06T13:56:13.000Z</time>
      </trkpt>
      <trkpt lat="43.69975" lon="3.96404">
        <ele>79.82200064</ele>
        <time>2020-06-06T13:56:14.000Z</time>
      </trkpt>
      <trkpt lat="43.69975" lon="3.96409">
        <ele>80.22200064</ele>
        <time>2020-06-06T13:56:16.000Z</time>
      </trkpt>
      <trkpt lat="43.69975" lon="3.96411">
        <ele>80.42200064</ele>
        <time>2020-06-06T13:56:17.000Z</time>
      </trkpt>
      <trkpt lat="43.69974" lon="3.96414">
        <ele>80.62200064</ele>
        <time>2020-06-06T13:56:18.000Z</time>
      </trkpt>
      <trkpt lat="43.69974" lon="3.96419">
        <ele>81.021956712523</ele>
        <time>2020-06-06T13:56:20.000Z</time>
      </trkpt>
      <trkpt lat="43.69975" lon="3.96423">
        <ele>81.42115805435</ele>
        <time>2020-06-06T13:56:22.000Z</time>
      </trkpt>
      <trkpt lat="43.69975" lon="3.96428">
        <ele>81.820359396178</ele>
        <time>2020-06-06T13:56:24.000Z</time>
      </trkpt>
      <trkpt lat="43.69974" lon="3.96433">
        <ele>82.219560738005</ele>
        <time>2020-06-06T13:56:26.000Z</time>
      </trkpt>
      <trkpt lat="43.69974" lon="3.96435">
        <ele>82.419161408919</ele>
        <time>2020-06-06T13:56:27.000Z</time>
      </trkpt>
      <trkpt lat="43.69973" lon="3.96437">
        <ele>82.618762079833</ele>
        <time>2020-06-06T13:56:28.000Z</time>
      </trkpt>
      <trkpt lat="43.69972" lon="3.9644">
        <ele>82.818362750746</ele>
        <time>2020-06-06T13:56:29.000Z</time>
      </trkpt>
      <trkpt lat="43.69971" lon="3.96442">
        <ele>83.018035442428</ele>
        <time>2020-06-06T13:56:30.000Z</time>
      </trkpt>
      <trkpt lat="43.6997" lon="3.96444">
        <ele>83.218436372544</ele>
        <time>2020-06-06T13:56:31.000Z</time>
      </trkpt>
      <trkpt lat="43.69969" lon="3.96448">
        <ele>83.619238232778</ele>
        <time>2020-06-06T13:56:33.000Z</time>
      </trkpt>
      <trkpt lat="43.69968" lon="3.96453">
        <ele>84.020040093012</ele>
        <time>2020-06-06T13:56:35.000Z</time>
      </trkpt>
      <trkpt lat="43.69968" lon="3.96457">
        <ele>84.420841953245</ele>
        <time>2020-06-06T13:56:37.000Z</time>
      </trkpt>
      <trkpt lat="43.69968" lon="3.96461">
        <ele>84.821643813479</ele>
        <time>2020-06-06T13:56:39.000Z</time>
      </trkpt>
      <trkpt lat="43.69968" lon="3.96466">
        <ele>85.22200064</ele>
        <time>2020-06-06T13:56:41.000Z</time>
      </trkpt>
      <trkpt lat="43.69966" lon="3.96469">
        <ele>85.62200064</ele>
        <time>2020-06-06T13:56:43.000Z</time>
      </trkpt>
      <trkpt lat="43.69963" lon="3.96471">
        <ele>86.02200064</ele>
        <time>2020-06-06T13:56:45.000Z</time>
      </trkpt>
      <trkpt lat="43.6996" lon="3.96473">
        <ele>86.42200064</ele>
        <time>2020-06-06T13:56:47.000Z</time>
      </trkpt>
      <trkpt lat="43.69958" lon="3.96476">
        <ele>86.82200064</ele>
        <time>2020-06-06T13:56:49.000Z</time>
      </trkpt>
      <trkpt lat="43.69955" lon="3.96479">
        <ele>87.22200064</ele>
        <time>2020-06-06T13:56:51.000Z</time>
      </trkpt>
      <trkpt lat="43.69954" lon="3.96482">
        <ele>87.62200064</ele>
        <time>2020-06-06T13:56:53.000Z</time>
      </trkpt>
      <trkpt lat="43.69954" lon="3.96486">
        <ele>88.02200064</ele>
        <time>2020-06-06T13:56:55.000Z</time>
      </trkpt>
      <trkpt lat="43.69953" lon="3.9649">
        <ele>88.42200064</ele>
        <time>2020-06-06T13:56:57.000Z</time>
      </trkpt>
      <trkpt lat="43.69953" lon="3.96494">
        <ele>88.82200064</ele>
        <time>2020-06-06T13:56:59.000Z</time>
      </trkpt>
      <trkpt lat="43.69953" lon="3.96498">
        <ele>89.108504677692</ele>
        <time>2020-06-06T13:57:01.000Z</time>
      </trkpt>
      <trkpt lat="43.69952" lon="3.96503">
        <ele>89.304008037847</ele>
        <time>2020-06-06T13:57:03.000Z</time>
      </trkpt>
      <trkpt lat="43.69951" lon="3.96507">
        <ele>89.499511398002</ele>
        <time>2020-06-06T13:57:05.000Z</time>
      </trkpt>
      <trkpt lat="43.6995" lon="3.96511">
        <ele>89.695014758158</ele>
        <time>2020-06-06T13:57:07.000Z</time>
      </trkpt>
      <trkpt lat="43.6995" lon="3.96515">
        <ele>89.890518118313</ele>
        <time>2020-06-06T13:57:09.000Z</time>
      </trkpt>
      <trkpt lat="43.69949" lon="3.96518">
        <ele>90.180143354806</ele>
        <time>2020-06-06T13:57:11.000Z</time>
      </trkpt>
      <trkpt lat="43.69948" lon="3.96522">
        <ele>90.589560070276</ele>
        <time>2020-06-06T13:57:13.000Z</time>
      </trkpt>
      <trkpt lat="43.69947" lon="3.96526">
        <ele>90.998976785745</ele>
        <time>2020-06-06T13:57:15.000Z</time>
      </trkpt>
      <trkpt lat="43.69946" lon="3.9653">
        <ele>91.408393501214</ele>
        <time>2020-06-06T13:57:17.000Z</time>
      </trkpt>
      <trkpt lat="43.69945" lon="3.96533">
        <ele>91.817810216683</ele>
        <time>2020-06-06T13:57:19.000Z</time>
      </trkpt>
      <trkpt lat="43.69947" lon="3.96537">
        <ele>92.11100032</ele>
        <time>2020-06-06T13:57:21.000Z</time>
      </trkpt>
      <trkpt lat="43.69948" lon="3.96541">
        <ele>92.31100032</ele>
        <time>2020-06-06T13:57:23.000Z</time>
      </trkpt>
      <trkpt lat="43.69948" lon="3.96545">
        <ele>92.51100032</ele>
        <time>2020-06-06T13:57:25.000Z</time>
      </trkpt>
      <trkpt lat="43.69948" lon="3.9655">
        <ele>92.71100032</ele>
        <time>2020-06-06T13:57:27.000Z</time>
      </trkpt>
      <trkpt lat="43.69948" lon="3.96554">
        <ele>92.91100032</ele>
        <time>2020-06-06T13:57:29.000Z</time>
      </trkpt>
      <trkpt lat="43.69948" lon="3.96558">
        <ele>93.22200064</ele>
        <time>2020-06-06T13:57:31.000Z</time>
      </trkpt>
      <trkpt lat="43.69947" lon="3.96563">
        <ele>93.62200064</ele>
        <time>2020-06-06T13:57:33.000Z</time>
      </trkpt>
      <trkpt lat="43.69946" lon="3.96567">
        <ele>94.02200064</ele>
        <time>2020-06-06T13:57:35.000Z</time>
      </trkpt>
      <trkpt lat="43.69945" lon="3.96571">
        <ele>94.42200064</ele>
        <time>2020-06-06T13:57:37.000Z</time>
      </trkpt>
      <trkpt lat="43.69945" lon="3.96575">
        <ele>94.82200064</ele>
        <time>2020-06-06T13:57:39.000Z</time>
      </trkpt>
      <trkpt lat="43.69944" lon="3.9658">
        <ele>95</ele>
        <time>2020-06-06T13:57:41.000Z</time>
      </trkpt>
      <trkpt lat="43.69943" lon="3.96582">
        <ele>95</ele>
        <time>2020-06-06T13:57:42.000Z</time>
      </trkpt>
      <trkpt lat="43.69942" lon="3.96587">
        <ele>95</ele>
        <time>2020-06-06T13:57:44.000Z</time>
      </trkpt>
      <trkpt lat="43.69943" lon="3.96589">
        <ele>95</ele>
        <time>2020-06-06T13:57:45.000Z</time>
      </trkpt>
      <trkpt lat="43.69944" lon="3.96592">
        <ele>95</ele>
        <time>2020-06-06T13:57:46.000Z</time>
      </trkpt>
      <trkpt lat="43.69945" lon="3.96594">
        <ele>95</ele>
        <time>2020-06-06T13:57:47.000Z</time>
      </trkpt>
      <trkpt lat="43.69946" lon="3.96596">
        <ele>95</ele>
        <time>2020-06-06T13:57:48.000Z</time>
      </trkpt>
      <trkpt lat="43.69946" lon="3.96599">
        <ele>95</ele>
        <time>2020-06-06T13:57:49.000Z</time>
      </trkpt>
      <trkpt lat="43.69947" lon="3.96601">
        <ele>95.021380609176</ele>
        <time>2020-06-06T13:57:50.000Z</time>
      </trkpt>
      <trkpt lat="43.69948" lon="3.96604">
        <ele>95.215744129289</ele>
        <time>2020-06-06T13:57:51.000Z</time>
      </trkpt>
      <trkpt lat="43.69949" lon="3.96606">
        <ele>95.410107649402</ele>
        <time>2020-06-06T13:57:52.000Z</time>
      </trkpt>
      <trkpt lat="43.69949" lon="3.96609">
        <ele>95.604471169515</ele>
        <time>2020-06-06T13:57:53.000Z</time>
      </trkpt>
      <trkpt lat="43.69949" lon="3.96612">
        <ele>95.798834689628</ele>
        <time>2020-06-06T13:57:54.000Z</time>
      </trkpt>
      <trkpt lat="43.69949" lon="3.96615">
        <ele>95.993198209741</ele>
        <time>2020-06-06T13:57:55.000Z</time>
      </trkpt>
      <trkpt lat="43.69948" lon="3.96619">
        <ele>96.187561729854</ele>
        <time>2020-06-06T13:57:56.000Z</time>
      </trkpt>
      <trkpt lat="43.69947" lon="3.96623">
        <ele>96.381925249967</ele>
        <time>2020-06-06T13:57:57.000Z</time>
      </trkpt>
      <trkpt lat="43.69946" lon="3.96627">
        <ele>96.57628877008</ele>
        <time>2020-06-06T13:57:58.000Z</time>
      </trkpt>
      <trkpt lat="43.69945" lon="3.96631">
        <ele>96.770652290193</ele>
        <time>2020-06-06T13:57:59.000Z</time>
      </trkpt>
      <trkpt lat="43.69944" lon="3.96635">
        <ele>96.965015810306</ele>
        <time>2020-06-06T13:58:00.000Z</time>
      </trkpt>
      <trkpt lat="43.69943" lon="3.9664">
        <ele>97</ele>
        <time>2020-06-06T13:58:01.000Z</time>
      </trkpt>
      <trkpt lat="43.69942" lon="3.96644">
        <ele>97</ele>
        <time>2020-06-06T13:58:02.000Z</time>
      </trkpt>
      <trkpt lat="43.69942" lon="3.96648">
        <ele>97</ele>
        <time>2020-06-06T13:58:03.000Z</time>
      </trkpt>
      <trkpt lat="43.69943" lon="3.96653">
        <ele>97</ele>
        <time>2020-06-06T13:58:04.000Z</time>
      </trkpt>
      <trkpt lat="43.69944" lon="3.96657">
        <ele>97</ele>
        <time>2020-06-06T13:58:05.000Z</time>
      </trkpt>
      <trkpt lat="43.69945" lon="3.96661">
        <ele>97</ele>
        <time>2020-06-06T13:58:06.000Z</time>
      </trkpt>
      <trkpt lat="43.69945" lon="3.96666">
        <ele>97</ele>
        <time>2020-06-06T13:58:07.000Z</time>
      </trkpt>
      <trkpt lat="43.69945" lon="3.96671">
        <ele>97</ele>
        <time>2020-06-06T13:58:08.000Z</time>
      </trkpt>
      <trkpt lat="43.69944" lon="3.96675">
        <ele>97</ele>
        <time>2020-06-06T13:58:09.000Z</time>
      </trkpt>
      <trkpt lat="43.69942" lon="3.96678">
        <ele>97</ele>
        <time>2020-06-06T13:58:10.000Z</time>
      </trkpt>
      <trkpt lat="43.69939" lon="3.9668">
        <ele>97.08444965291</ele>
        <time>2020-06-06T13:58:11.000Z</time>
      </trkpt>
      <trkpt lat="43.69938" lon="3.96681">
        <ele>97.187436230711</ele>
        <time>2020-06-06T13:58:12.000Z</time>
      </trkpt>
      <trkpt lat="43.69937" lon="3.96686">
        <ele>97.393409386312</ele>
        <time>2020-06-06T13:58:14.000Z</time>
      </trkpt>
      <trkpt lat="43.69938" lon="3.9669">
        <ele>97.496395964113</ele>
        <time>2020-06-06T13:58:15.000Z</time>
      </trkpt>
      <trkpt lat="43.69938" lon="3.96695">
        <ele>97.599382541913</ele>
        <time>2020-06-06T13:58:16.000Z</time>
      </trkpt>
      <trkpt lat="43.69938" lon="3.96699">
        <ele>97.702369119714</ele>
        <time>2020-06-06T13:58:17.000Z</time>
      </trkpt>
      <trkpt lat="43.69938" lon="3.96704">
        <ele>97.805355697514</ele>
        <time>2020-06-06T13:58:18.000Z</time>
      </trkpt>
      <trkpt lat="43.69939" lon="3.96709">
        <ele>97.908342275315</ele>
        <time>2020-06-06T13:58:19.000Z</time>
      </trkpt>
      <trkpt lat="43.69939" lon="3.96714">
        <ele>98</ele>
        <time>2020-06-06T13:58:20.000Z</time>
      </trkpt>
      <trkpt lat="43.69939" lon="3.96719">
        <ele>98</ele>
        <time>2020-06-06T13:58:21.000Z</time>
      </trkpt>
      <trkpt lat="43.69939" lon="3.96725">
        <ele>98</ele>
        <time>2020-06-06T13:58:22.000Z</time>
      </trkpt>
      <trkpt lat="43.6994" lon="3.9673">
        <ele>98</ele>
        <time>2020-06-06T13:58:23.000Z</time>
      </trkpt>
      <trkpt lat="43.6994" lon="3.96735">
        <ele>98</ele>
        <time>2020-06-06T13:58:24.000Z</time>
      </trkpt>
      <trkpt lat="43.69941" lon="3.96742">
        <ele>98</ele>
        <time>2020-06-06T13:58:25.000Z</time>
      </trkpt>
      <trkpt lat="43.69942" lon="3.96749">
        <ele>98</ele>
        <time>2020-06-06T13:58:26.000Z</time>
      </trkpt>
      <trkpt lat="43.69942" lon="3.96756">
        <ele>98</ele>
        <time>2020-06-06T13:58:27.000Z</time>
      </trkpt>
      <trkpt lat="43.69943" lon="3.96762">
        <ele>98</ele>
        <time>2020-06-06T13:58:28.000Z</time>
      </trkpt>
      <trkpt lat="43.69943" lon="3.96768">
        <ele>98</ele>
        <time>2020-06-06T13:58:29.000Z</time>
      </trkpt>
      <trkpt lat="43.69944" lon="3.96774">
        <ele>97.978681550388</ele>
        <time>2020-06-06T13:58:30.000Z</time>
      </trkpt>
      <trkpt lat="43.69946" lon="3.96779">
        <ele>97.784883100775</ele>
        <time>2020-06-06T13:58:31.000Z</time>
      </trkpt>
      <trkpt lat="43.69948" lon="3.96784">
        <ele>97.591084651163</ele>
        <time>2020-06-06T13:58:32.000Z</time>
      </trkpt>
      <trkpt lat="43.69949" lon="3.96789">
        <ele>97.39728620155</ele>
        <time>2020-06-06T13:58:33.000Z</time>
      </trkpt>
      <trkpt lat="43.69949" lon="3.96795">
        <ele>97.203487751938</ele>
        <time>2020-06-06T13:58:34.000Z</time>
      </trkpt>
      <trkpt lat="43.6995" lon="3.96801">
        <ele>97.009689302326</ele>
        <time>2020-06-06T13:58:35.000Z</time>
      </trkpt>
      <trkpt lat="43.6995" lon="3.96808">
        <ele>96.815890852713</ele>
        <time>2020-06-06T13:58:36.000Z</time>
      </trkpt>
      <trkpt lat="43.69951" lon="3.96815">
        <ele>96.622092403101</ele>
        <time>2020-06-06T13:58:37.000Z</time>
      </trkpt>
      <trkpt lat="43.69952" lon="3.96823">
        <ele>96.428293953488</ele>
        <time>2020-06-06T13:58:38.000Z</time>
      </trkpt>
      <trkpt lat="43.69953" lon="3.96832">
        <ele>96.234495503876</ele>
        <time>2020-06-06T13:58:39.000Z</time>
      </trkpt>
      <trkpt lat="43.69954" lon="3.96841">
        <ele>96.040697054264</ele>
        <time>2020-06-06T13:58:40.000Z</time>
      </trkpt>
      <trkpt lat="43.69954" lon="3.9685">
        <ele>95.755164297521</ele>
        <time>2020-06-06T13:58:41.000Z</time>
      </trkpt>
      <trkpt lat="43.69955" lon="3.96858">
        <ele>95.445246942149</ele>
        <time>2020-06-06T13:58:42.000Z</time>
      </trkpt>
      <trkpt lat="43.69955" lon="3.96866">
        <ele>95.135329586777</ele>
        <time>2020-06-06T13:58:43.000Z</time>
      </trkpt>
      <trkpt lat="43.69956" lon="3.96872">
        <ele>94.825412231405</ele>
        <time>2020-06-06T13:58:44.000Z</time>
      </trkpt>
      <trkpt lat="43.69955" lon="3.96876">
        <ele>94.515494876033</ele>
        <time>2020-06-06T13:58:45.000Z</time>
      </trkpt>
      <trkpt lat="43.69955" lon="3.96877">
        <ele>93</ele>
        <time>2020-06-06T13:58:51.000Z</time>
      </trkpt>
      <trkpt lat="43.69953" lon="3.96888">
        <ele>91.030195173227</ele>
        <time>2020-06-06T13:59:16.000Z</time>
      </trkpt>
      <trkpt lat="43.69952" lon="3.96892">
        <ele>90.935789767269</ele>
        <time>2020-06-06T13:59:17.000Z</time>
      </trkpt>
      <trkpt lat="43.69952" lon="3.96895">
        <ele>90.83052653846</ele>
        <time>2020-06-06T13:59:18.000Z</time>
      </trkpt>
      <trkpt lat="43.69952" lon="3.96899">
        <ele>90.725263309651</ele>
        <time>2020-06-06T13:59:19.000Z</time>
      </trkpt>
      <trkpt lat="43.69952" lon="3.96903">
        <ele>90.620000080842</ele>
        <time>2020-06-06T13:59:20.000Z</time>
      </trkpt>
      <trkpt lat="43.69952" lon="3.96907">
        <ele>90.514736852033</ele>
        <time>2020-06-06T13:59:21.000Z</time>
      </trkpt>
      <trkpt lat="43.69951" lon="3.9691">
        <ele>90.409473623224</ele>
        <time>2020-06-06T13:59:22.000Z</time>
      </trkpt>
      <trkpt lat="43.6995" lon="3.96914">
        <ele>90.304210394415</ele>
        <time>2020-06-06T13:59:23.000Z</time>
      </trkpt>
      <trkpt lat="43.6995" lon="3.96917">
        <ele>90.198947165606</ele>
        <time>2020-06-06T13:59:24.000Z</time>
      </trkpt>
      <trkpt lat="43.69949" lon="3.9692">
        <ele>90.093683936798</ele>
        <time>2020-06-06T13:59:25.000Z</time>
      </trkpt>
      <trkpt lat="43.69948" lon="3.96924">
        <ele>90.010690304588</ele>
        <time>2020-06-06T13:59:26.000Z</time>
      </trkpt>
      <trkpt lat="43.69948" lon="3.96928">
        <ele>90.107872064644</ele>
        <time>2020-06-06T13:59:27.000Z</time>
      </trkpt>
      <trkpt lat="43.69947" lon="3.96931">
        <ele>90.205053824701</ele>
        <time>2020-06-06T13:59:28.000Z</time>
      </trkpt>
      <trkpt lat="43.69947" lon="3.96934">
        <ele>90.302235584757</ele>
        <time>2020-06-06T13:59:29.000Z</time>
      </trkpt>
      <trkpt lat="43.69946" lon="3.96937">
        <ele>90.399417344814</ele>
        <time>2020-06-06T13:59:30.000Z</time>
      </trkpt>
      <trkpt lat="43.69946" lon="3.9694">
        <ele>90.49659910487</ele>
        <time>2020-06-06T13:59:31.000Z</time>
      </trkpt>
      <trkpt lat="43.69945" lon="3.96944">
        <ele>90.593780864927</ele>
        <time>2020-06-06T13:59:32.000Z</time>
      </trkpt>
      <trkpt lat="43.69945" lon="3.96948">
        <ele>90.690962624983</ele>
        <time>2020-06-06T13:59:33.000Z</time>
      </trkpt>
      <trkpt lat="43.69945" lon="3.96951">
        <ele>90.78814438504</ele>
        <time>2020-06-06T13:59:34.000Z</time>
      </trkpt>
      <trkpt lat="43.69945" lon="3.96955">
        <ele>90.885326145097</ele>
        <time>2020-06-06T13:59:35.000Z</time>
      </trkpt>
      <trkpt lat="43.69944" lon="3.96959">
        <ele>90.982507905153</ele>
        <time>2020-06-06T13:59:36.000Z</time>
      </trkpt>
      <trkpt lat="43.69944" lon="3.96963">
        <ele>91</ele>
        <time>2020-06-06T13:59:37.000Z</time>
      </trkpt>
      <trkpt lat="43.69944" lon="3.96967">
        <ele>91</ele>
        <time>2020-06-06T13:59:38.000Z</time>
      </trkpt>
      <trkpt lat="43.69944" lon="3.96971">
        <ele>91</ele>
        <time>2020-06-06T13:59:39.000Z</time>
      </trkpt>
      <trkpt lat="43.69944" lon="3.96975">
        <ele>91</ele>
        <time>2020-06-06T13:59:40.000Z</time>
      </trkpt>
      <trkpt lat="43.69944" lon="3.96979">
        <ele>91</ele>
        <time>2020-06-06T13:59:41.000Z</time>
      </trkpt>
      <trkpt lat="43.69944" lon="3.96983">
        <ele>91</ele>
        <time>2020-06-06T13:59:42.000Z</time>
      </trkpt>
      <trkpt lat="43.69944" lon="3.96987">
        <ele>91</ele>
        <time>2020-06-06T13:59:43.000Z</time>
      </trkpt>
      <trkpt lat="43.69944" lon="3.96991">
        <ele>91</ele>
        <time>2020-06-06T13:59:44.000Z</time>
      </trkpt>
      <trkpt lat="43.69944" lon="3.96995">
        <ele>91</ele>
        <time>2020-06-06T13:59:45.000Z</time>
      </trkpt>
      <trkpt lat="43.69945" lon="3.96999">
        <ele>91.010848434967</ele>
        <time>2020-06-06T13:59:46.000Z</time>
      </trkpt>
      <trkpt lat="43.69945" lon="3.97002">
        <ele>91.109467702111</ele>
        <time>2020-06-06T13:59:47.000Z</time>
      </trkpt>
      <trkpt lat="43.69946" lon="3.97006">
        <ele>91.208086969255</ele>
        <time>2020-06-06T13:59:48.000Z</time>
      </trkpt>
      <trkpt lat="43.69946" lon="3.9701">
        <ele>91.306706236398</ele>
        <time>2020-06-06T13:59:49.000Z</time>
      </trkpt>
      <trkpt lat="43.69947" lon="3.97013">
        <ele>91.405325503542</ele>
        <time>2020-06-06T13:59:50.000Z</time>
      </trkpt>
      <trkpt lat="43.69947" lon="3.97016">
        <ele>91.503944770686</ele>
        <time>2020-06-06T13:59:51.000Z</time>
      </trkpt>
      <trkpt lat="43.69948" lon="3.97019">
        <ele>91.602564037829</ele>
        <time>2020-06-06T13:59:52.000Z</time>
      </trkpt>
      <trkpt lat="43.69949" lon="3.97022">
        <ele>91.701183304973</ele>
        <time>2020-06-06T13:59:53.000Z</time>
      </trkpt>
      <trkpt lat="43.69949" lon="3.97025">
        <ele>91.799802572117</ele>
        <time>2020-06-06T13:59:54.000Z</time>
      </trkpt>
      <trkpt lat="43.6995" lon="3.97028">
        <ele>91.89842183926</ele>
        <time>2020-06-06T13:59:55.000Z</time>
      </trkpt>
      <trkpt lat="43.6995" lon="3.97031">
        <ele>91.997041106404</ele>
        <time>2020-06-06T13:59:56.000Z</time>
      </trkpt>
      <trkpt lat="43.69951" lon="3.97034">
        <ele>92.096806129697</ele>
        <time>2020-06-06T13:59:57.000Z</time>
      </trkpt>
      <trkpt lat="43.69952" lon="3.97037">
        <ele>92.196606592643</ele>
        <time>2020-06-06T13:59:58.000Z</time>
      </trkpt>
      <trkpt lat="43.69952" lon="3.9704">
        <ele>92.296407055589</ele>
        <time>2020-06-06T13:59:59.000Z</time>
      </trkpt>
      <trkpt lat="43.69954" lon="3.97043">
        <ele>92.396207518536</ele>
        <time>2020-06-06T14:00:00.000Z</time>
      </trkpt>
      <trkpt lat="43.69955" lon="3.97046">
        <ele>92.496007981482</ele>
        <time>2020-06-06T14:00:01.000Z</time>
      </trkpt>
      <trkpt lat="43.69956" lon="3.97049">
        <ele>92.595808444428</ele>
        <time>2020-06-06T14:00:02.000Z</time>
      </trkpt>
      <trkpt lat="43.69957" lon="3.97052">
        <ele>92.695608907375</ele>
        <time>2020-06-06T14:00:03.000Z</time>
      </trkpt>
      <trkpt lat="43.69958" lon="3.97055">
        <ele>92.795409370321</ele>
        <time>2020-06-06T14:00:04.000Z</time>
      </trkpt>
      <trkpt lat="43.69959" lon="3.97058">
        <ele>92.895209833268</ele>
        <time>2020-06-06T14:00:05.000Z</time>
      </trkpt>
      <trkpt lat="43.6996" lon="3.97061">
        <ele>92.995010296214</ele>
        <time>2020-06-06T14:00:06.000Z</time>
      </trkpt>
      <trkpt lat="43.6996" lon="3.97065">
        <ele>93</ele>
        <time>2020-06-06T14:00:07.000Z</time>
      </trkpt>
      <trkpt lat="43.6996" lon="3.97068">
        <ele>93</ele>
        <time>2020-06-06T14:00:08.000Z</time>
      </trkpt>
      <trkpt lat="43.6996" lon="3.97072">
        <ele>93</ele>
        <time>2020-06-06T14:00:09.000Z</time>
      </trkpt>
      <trkpt lat="43.6996" lon="3.97077">
        <ele>93</ele>
        <time>2020-06-06T14:00:10.000Z</time>
      </trkpt>
      <trkpt lat="43.6996" lon="3.97081">
        <ele>93</ele>
        <time>2020-06-06T14:00:11.000Z</time>
      </trkpt>
      <trkpt lat="43.69959" lon="3.97086">
        <ele>93</ele>
        <time>2020-06-06T14:00:12.000Z</time>
      </trkpt>
      <trkpt lat="43.69959" lon="3.9709">
        <ele>93</ele>
        <time>2020-06-06T14:00:13.000Z</time>
      </trkpt>
      <trkpt lat="43.69959" lon="3.97095">
        <ele>93</ele>
        <time>2020-06-06T14:00:14.000Z</time>
      </trkpt>
      <trkpt lat="43.6996" lon="3.971">
        <ele>93</ele>
        <time>2020-06-06T14:00:15.000Z</time>
      </trkpt>
      <trkpt lat="43.6996" lon="3.97105">
        <ele>93.01100032</ele>
        <time>2020-06-06T14:00:16.000Z</time>
      </trkpt>
      <trkpt lat="43.69961" lon="3.9711">
        <ele>93.11100032</ele>
        <time>2020-06-06T14:00:17.000Z</time>
      </trkpt>
      <trkpt lat="43.69963" lon="3.97115">
        <ele>93.21100032</ele>
        <time>2020-06-06T14:00:18.000Z</time>
      </trkpt>
      <trkpt lat="43.69964" lon="3.9712">
        <ele>93.31100032</ele>
        <time>2020-06-06T14:00:19.000Z</time>
      </trkpt>
      <trkpt lat="43.69965" lon="3.97126">
        <ele>93.41100032</ele>
        <time>2020-06-06T14:00:20.000Z</time>
      </trkpt>
      <trkpt lat="43.69965" lon="3.97131">
        <ele>93.51100032</ele>
        <time>2020-06-06T14:00:21.000Z</time>
      </trkpt>
      <trkpt lat="43.69965" lon="3.97137">
        <ele>93.61100032</ele>
        <time>2020-06-06T14:00:22.000Z</time>
      </trkpt>
      <trkpt lat="43.69966" lon="3.97142">
        <ele>93.71100032</ele>
        <time>2020-06-06T14:00:23.000Z</time>
      </trkpt>
      <trkpt lat="43.69967" lon="3.97148">
        <ele>93.81100032</ele>
        <time>2020-06-06T14:00:24.000Z</time>
      </trkpt>
      <trkpt lat="43.69967" lon="3.97153">
        <ele>93.91100032</ele>
        <time>2020-06-06T14:00:25.000Z</time>
      </trkpt>
      <trkpt lat="43.69967" lon="3.97158">
        <ele>94</ele>
        <time>2020-06-06T14:00:26.000Z</time>
      </trkpt>
      <trkpt lat="43.69968" lon="3.97162">
        <ele>94</ele>
        <time>2020-06-06T14:00:27.000Z</time>
      </trkpt>
      <trkpt lat="43.6997" lon="3.97164">
        <ele>94</ele>
        <time>2020-06-06T14:00:28.000Z</time>
      </trkpt>
      <trkpt lat="43.69972" lon="3.97165">
        <ele>94</ele>
        <time>2020-06-06T14:00:29.000Z</time>
      </trkpt>
      <trkpt lat="43.69975" lon="3.97166">
        <ele>94</ele>
        <time>2020-06-06T14:00:30.000Z</time>
      </trkpt>
      <trkpt lat="43.69976" lon="3.97168">
        <ele>94</ele>
        <time>2020-06-06T14:00:31.000Z</time>
      </trkpt>
      <trkpt lat="43.69978" lon="3.97172">
        <ele>94</ele>
        <time>2020-06-06T14:00:32.000Z</time>
      </trkpt>
      <trkpt lat="43.69979" lon="3.97176">
        <ele>94</ele>
        <time>2020-06-06T14:00:33.000Z</time>
      </trkpt>
      <trkpt lat="43.6998" lon="3.97181">
        <ele>94</ele>
        <time>2020-06-06T14:00:34.000Z</time>
      </trkpt>
      <trkpt lat="43.6998" lon="3.97187">
        <ele>94</ele>
        <time>2020-06-06T14:00:35.000Z</time>
      </trkpt>
      <trkpt lat="43.6998" lon="3.97193">
        <ele>94</ele>
        <time>2020-06-06T14:00:36.000Z</time>
      </trkpt>
      <trkpt lat="43.69979" lon="3.97199">
        <ele>93.899797246964</ele>
        <time>2020-06-06T14:00:37.000Z</time>
      </trkpt>
      <trkpt lat="43.69979" lon="3.97205">
        <ele>93.798582672065</ele>
        <time>2020-06-06T14:00:38.000Z</time>
      </trkpt>
      <trkpt lat="43.69979" lon="3.97212">
        <ele>93.697368097166</ele>
        <time>2020-06-06T14:00:39.000Z</time>
      </trkpt>
      <trkpt lat="43.69979" lon="3.97219">
        <ele>93.596153522267</ele>
        <time>2020-06-06T14:00:40.000Z</time>
      </trkpt>
      <trkpt lat="43.69979" lon="3.97226">
        <ele>93.494938947368</ele>
        <time>2020-06-06T14:00:41.000Z</time>
      </trkpt>
      <trkpt lat="43.69978" lon="3.97233">
        <ele>93.39372437247</ele>
        <time>2020-06-06T14:00:42.000Z</time>
      </trkpt>
      <trkpt lat="43.69978" lon="3.97241">
        <ele>93.292509797571</ele>
        <time>2020-06-06T14:00:43.000Z</time>
      </trkpt>
      <trkpt lat="43.69977" lon="3.97249">
        <ele>93.191295222672</ele>
        <time>2020-06-06T14:00:44.000Z</time>
      </trkpt>
      <trkpt lat="43.69976" lon="3.97257">
        <ele>93.090080647773</ele>
        <time>2020-06-06T14:00:45.000Z</time>
      </trkpt>
      <trkpt lat="43.69976" lon="3.97265">
        <ele>92.98899968</ele>
        <time>2020-06-06T14:00:46.000Z</time>
      </trkpt>
      <trkpt lat="43.69975" lon="3.97273">
        <ele>92.88899968</ele>
        <time>2020-06-06T14:00:47.000Z</time>
      </trkpt>
      <trkpt lat="43.69974" lon="3.97281">
        <ele>92.78899968</ele>
        <time>2020-06-06T14:00:48.000Z</time>
      </trkpt>
      <trkpt lat="43.69972" lon="3.97288">
        <ele>92.68899968</ele>
        <time>2020-06-06T14:00:49.000Z</time>
      </trkpt>
      <trkpt lat="43.69969" lon="3.97293">
        <ele>92.58899968</ele>
        <time>2020-06-06T14:00:50.000Z</time>
      </trkpt>
      <trkpt lat="43.69966" lon="3.97297">
        <ele>92.48899968</ele>
        <time>2020-06-06T14:00:51.000Z</time>
      </trkpt>
      <trkpt lat="43.69963" lon="3.97299">
        <ele>92.38899968</ele>
        <time>2020-06-06T14:00:52.000Z</time>
      </trkpt>
      <trkpt lat="43.69961" lon="3.973">
        <ele>92.28899968</ele>
        <time>2020-06-06T14:00:53.000Z</time>
      </trkpt>
      <trkpt lat="43.69958" lon="3.97299">
        <ele>92.18899968</ele>
        <time>2020-06-06T14:00:54.000Z</time>
      </trkpt>
      <trkpt lat="43.69955" lon="3.97298">
        <ele>92.08899968</ele>
        <time>2020-06-06T14:00:55.000Z</time>
      </trkpt>
      <trkpt lat="43.69951" lon="3.97296">
        <ele>91.98899968</ele>
        <time>2020-06-06T14:00:56.000Z</time>
      </trkpt>
      <trkpt lat="43.69947" lon="3.97295">
        <ele>91.88899968</ele>
        <time>2020-06-06T14:00:57.000Z</time>
      </trkpt>
      <trkpt lat="43.69943" lon="3.97294">
        <ele>91.78899968</ele>
        <time>2020-06-06T14:00:58.000Z</time>
      </trkpt>
      <trkpt lat="43.69939" lon="3.97293">
        <ele>91.68899968</ele>
        <time>2020-06-06T14:00:59.000Z</time>
      </trkpt>
      <trkpt lat="43.69936" lon="3.97293">
        <ele>91.58899968</ele>
        <time>2020-06-06T14:01:00.000Z</time>
      </trkpt>
      <trkpt lat="43.69932" lon="3.97292">
        <ele>91.48899968</ele>
        <time>2020-06-06T14:01:01.000Z</time>
      </trkpt>
      <trkpt lat="43.69928" lon="3.97291">
        <ele>91.38899968</ele>
        <time>2020-06-06T14:01:02.000Z</time>
      </trkpt>
      <trkpt lat="43.69924" lon="3.97291">
        <ele>91.28899968</ele>
        <time>2020-06-06T14:01:03.000Z</time>
      </trkpt>
      <trkpt lat="43.6992" lon="3.9729">
        <ele>91.18899968</ele>
        <time>2020-06-06T14:01:04.000Z</time>
      </trkpt>
      <trkpt lat="43.69916" lon="3.97289">
        <ele>91.08899968</ele>
        <time>2020-06-06T14:01:05.000Z</time>
      </trkpt>
      <trkpt lat="43.69912" lon="3.97288">
        <ele>90.98899968</ele>
        <time>2020-06-06T14:01:06.000Z</time>
      </trkpt>
      <trkpt lat="43.69907" lon="3.97287">
        <ele>90.88899968</ele>
        <time>2020-06-06T14:01:07.000Z</time>
      </trkpt>
      <trkpt lat="43.69904" lon="3.97285">
        <ele>90.78899968</ele>
        <time>2020-06-06T14:01:08.000Z</time>
      </trkpt>
      <trkpt lat="43.699" lon="3.97284">
        <ele>90.68899968</ele>
        <time>2020-06-06T14:01:09.000Z</time>
      </trkpt>
      <trkpt lat="43.69896" lon="3.97282">
        <ele>90.58899968</ele>
        <time>2020-06-06T14:01:10.000Z</time>
      </trkpt>
      <trkpt lat="43.69892" lon="3.97281">
        <ele>90.48899968</ele>
        <time>2020-06-06T14:01:11.000Z</time>
      </trkpt>
      <trkpt lat="43.69888" lon="3.97279">
        <ele>90.38899968</ele>
        <time>2020-06-06T14:01:12.000Z</time>
      </trkpt>
      <trkpt lat="43.69884" lon="3.97278">
        <ele>90.28899968</ele>
        <time>2020-06-06T14:01:13.000Z</time>
      </trkpt>
      <trkpt lat="43.6988" lon="3.97277">
        <ele>90.18899968</ele>
        <time>2020-06-06T14:01:14.000Z</time>
      </trkpt>
      <trkpt lat="43.69875" lon="3.97276">
        <ele>90.08899968</ele>
        <time>2020-06-06T14:01:15.000Z</time>
      </trkpt>
      <trkpt lat="43.69871" lon="3.97275">
        <ele>89.98899968</ele>
        <time>2020-06-06T14:01:16.000Z</time>
      </trkpt>
      <trkpt lat="43.69866" lon="3.97275">
        <ele>89.88899968</ele>
        <time>2020-06-06T14:01:17.000Z</time>
      </trkpt>
      <trkpt lat="43.69862" lon="3.97274">
        <ele>89.78899968</ele>
        <time>2020-06-06T14:01:18.000Z</time>
      </trkpt>
      <trkpt lat="43.69857" lon="3.97273">
        <ele>89.68899968</ele>
        <time>2020-06-06T14:01:19.000Z</time>
      </trkpt>
      <trkpt lat="43.69853" lon="3.97273">
        <ele>89.58899968</ele>
        <time>2020-06-06T14:01:20.000Z</time>
      </trkpt>
      <trkpt lat="43.69848" lon="3.97273">
        <ele>89.48899968</ele>
        <time>2020-06-06T14:01:21.000Z</time>
      </trkpt>
      <trkpt lat="43.69844" lon="3.97272">
        <ele>89.38899968</ele>
        <time>2020-06-06T14:01:22.000Z</time>
      </trkpt>
      <trkpt lat="43.69839" lon="3.97272">
        <ele>89.28899968</ele>
        <time>2020-06-06T14:01:23.000Z</time>
      </trkpt>
      <trkpt lat="43.69835" lon="3.97272">
        <ele>89.18899968</ele>
        <time>2020-06-06T14:01:24.000Z</time>
      </trkpt>
      <trkpt lat="43.69831" lon="3.97272">
        <ele>89.08899968</ele>
        <time>2020-06-06T14:01:25.000Z</time>
      </trkpt>
      <trkpt lat="43.69827" lon="3.97271">
        <ele>89.010859154467</ele>
        <time>2020-06-06T14:01:26.000Z</time>
      </trkpt>
      <trkpt lat="43.69822" lon="3.97271">
        <ele>89.10957586877</ele>
        <time>2020-06-06T14:01:27.000Z</time>
      </trkpt>
      <trkpt lat="43.69818" lon="3.97271">
        <ele>89.208292583074</ele>
        <time>2020-06-06T14:01:28.000Z</time>
      </trkpt>
      <trkpt lat="43.69815" lon="3.97271">
        <ele>89.307009297377</ele>
        <time>2020-06-06T14:01:29.000Z</time>
      </trkpt>
      <trkpt lat="43.69811" lon="3.97271">
        <ele>89.40572601168</ele>
        <time>2020-06-06T14:01:30.000Z</time>
      </trkpt>
      <trkpt lat="43.69808" lon="3.97271">
        <ele>89.504442725984</ele>
        <time>2020-06-06T14:01:31.000Z</time>
      </trkpt>
      <trkpt lat="43.69804" lon="3.9727">
        <ele>89.603159440287</ele>
        <time>2020-06-06T14:01:32.000Z</time>
      </trkpt>
      <trkpt lat="43.69801" lon="3.9727">
        <ele>89.701876154591</ele>
        <time>2020-06-06T14:01:33.000Z</time>
      </trkpt>
      <trkpt lat="43.69798" lon="3.9727">
        <ele>89.800592868894</ele>
        <time>2020-06-06T14:01:34.000Z</time>
      </trkpt>
      <trkpt lat="43.69795" lon="3.9727">
        <ele>89.899309583198</ele>
        <time>2020-06-06T14:01:35.000Z</time>
      </trkpt>
      <trkpt lat="43.69792" lon="3.97272">
        <ele>89.998026297501</ele>
        <time>2020-06-06T14:01:36.000Z</time>
      </trkpt>
      <trkpt lat="43.6979" lon="3.97274">
        <ele>90</ele>
        <time>2020-06-06T14:01:37.000Z</time>
      </trkpt>
      <trkpt lat="43.69789" lon="3.97276">
        <ele>90</ele>
        <time>2020-06-06T14:01:38.000Z</time>
      </trkpt>
      <trkpt lat="43.69788" lon="3.9728">
        <ele>90</ele>
        <time>2020-06-06T14:01:39.000Z</time>
      </trkpt>
      <trkpt lat="43.69788" lon="3.97284">
        <ele>90</ele>
        <time>2020-06-06T14:01:40.000Z</time>
      </trkpt>
      <trkpt lat="43.69788" lon="3.97288">
        <ele>90</ele>
        <time>2020-06-06T14:01:41.000Z</time>
      </trkpt>
      <trkpt lat="43.69789" lon="3.97293">
        <ele>90</ele>
        <time>2020-06-06T14:01:42.000Z</time>
      </trkpt>
      <trkpt lat="43.69789" lon="3.97298">
        <ele>90</ele>
        <time>2020-06-06T14:01:43.000Z</time>
      </trkpt>
      <trkpt lat="43.6979" lon="3.97303">
        <ele>90</ele>
        <time>2020-06-06T14:01:44.000Z</time>
      </trkpt>
      <trkpt lat="43.69791" lon="3.97308">
        <ele>90</ele>
        <time>2020-06-06T14:01:45.000Z</time>
      </trkpt>
      <trkpt lat="43.69791" lon="3.97312">
        <ele>89.98899968</ele>
        <time>2020-06-06T14:01:46.000Z</time>
      </trkpt>
      <trkpt lat="43.69792" lon="3.97317">
        <ele>89.88899968</ele>
        <time>2020-06-06T14:01:47.000Z</time>
      </trkpt>
      <trkpt lat="43.69792" lon="3.97323">
        <ele>89.78899968</ele>
        <time>2020-06-06T14:01:48.000Z</time>
      </trkpt>
      <trkpt lat="43.69793" lon="3.97328">
        <ele>89.68899968</ele>
        <time>2020-06-06T14:01:49.000Z</time>
      </trkpt>
      <trkpt lat="43.69793" lon="3.97333">
        <ele>89.58899968</ele>
        <time>2020-06-06T14:01:50.000Z</time>
      </trkpt>
      <trkpt lat="43.69794" lon="3.97339">
        <ele>89.48899968</ele>
        <time>2020-06-06T14:01:51.000Z</time>
      </trkpt>
      <trkpt lat="43.69795" lon="3.97344">
        <ele>89.38899968</ele>
        <time>2020-06-06T14:01:52.000Z</time>
      </trkpt>
      <trkpt lat="43.69796" lon="3.9735">
        <ele>89.28899968</ele>
        <time>2020-06-06T14:01:53.000Z</time>
      </trkpt>
      <trkpt lat="43.69798" lon="3.97355">
        <ele>89.18899968</ele>
        <time>2020-06-06T14:01:54.000Z</time>
      </trkpt>
      <trkpt lat="43.69799" lon="3.97361">
        <ele>89.08899968</ele>
        <time>2020-06-06T14:01:55.000Z</time>
      </trkpt>
      <trkpt lat="43.69801" lon="3.97367">
        <ele>88.98899968</ele>
        <time>2020-06-06T14:01:56.000Z</time>
      </trkpt>
      <trkpt lat="43.69801" lon="3.97374">
        <ele>88.88899968</ele>
        <time>2020-06-06T14:01:57.000Z</time>
      </trkpt>
      <trkpt lat="43.69802" lon="3.9738">
        <ele>88.78899968</ele>
        <time>2020-06-06T14:01:58.000Z</time>
      </trkpt>
      <trkpt lat="43.69803" lon="3.97387">
        <ele>88.68899968</ele>
        <time>2020-06-06T14:01:59.000Z</time>
      </trkpt>
      <trkpt lat="43.69803" lon="3.97394">
        <ele>88.58899968</ele>
        <time>2020-06-06T14:02:00.000Z</time>
      </trkpt>
      <trkpt lat="43.69802" lon="3.97401">
        <ele>88.48899968</ele>
        <time>2020-06-06T14:02:01.000Z</time>
      </trkpt>
      <trkpt lat="43.69801" lon="3.97408">
        <ele>88.38899968</ele>
        <time>2020-06-06T14:02:02.000Z</time>
      </trkpt>
      <trkpt lat="43.698" lon="3.97414">
        <ele>88.28899968</ele>
        <time>2020-06-06T14:02:03.000Z</time>
      </trkpt>
      <trkpt lat="43.698" lon="3.97421">
        <ele>88.18899968</ele>
        <time>2020-06-06T14:02:04.000Z</time>
      </trkpt>
      <trkpt lat="43.698" lon="3.97428">
        <ele>88.08899968</ele>
        <time>2020-06-06T14:02:05.000Z</time>
      </trkpt>
      <trkpt lat="43.698" lon="3.97435">
        <ele>88</ele>
        <time>2020-06-06T14:02:06.000Z</time>
      </trkpt>
      <trkpt lat="43.698" lon="3.97442">
        <ele>88</ele>
        <time>2020-06-06T14:02:07.000Z</time>
      </trkpt>
      <trkpt lat="43.69799" lon="3.97449">
        <ele>88</ele>
        <time>2020-06-06T14:02:08.000Z</time>
      </trkpt>
      <trkpt lat="43.69799" lon="3.97455">
        <ele>88</ele>
        <time>2020-06-06T14:02:09.000Z</time>
      </trkpt>
      <trkpt lat="43.698" lon="3.97461">
        <ele>88</ele>
        <time>2020-06-06T14:02:10.000Z</time>
      </trkpt>
      <trkpt lat="43.698" lon="3.97467">
        <ele>88</ele>
        <time>2020-06-06T14:02:11.000Z</time>
      </trkpt>
      <trkpt lat="43.69801" lon="3.97472">
        <ele>88</ele>
        <time>2020-06-06T14:02:12.000Z</time>
      </trkpt>
      <trkpt lat="43.69799" lon="3.97475">
        <ele>88</ele>
        <time>2020-06-06T14:02:13.000Z</time>
      </trkpt>
      <trkpt lat="43.69797" lon="3.97477">
        <ele>88</ele>
        <time>2020-06-06T14:02:14.000Z</time>
      </trkpt>
      <trkpt lat="43.69796" lon="3.9748">
        <ele>88</ele>
        <time>2020-06-06T14:02:15.000Z</time>
      </trkpt>
      <trkpt lat="43.69795" lon="3.97484">
        <ele>88</ele>
        <time>2020-06-06T14:02:16.000Z</time>
      </trkpt>
      <trkpt lat="43.69795" lon="3.97488">
        <ele>88</ele>
        <time>2020-06-06T14:02:17.000Z</time>
      </trkpt>
      <trkpt lat="43.69795" lon="3.97492">
        <ele>88</ele>
        <time>2020-06-06T14:02:18.000Z</time>
      </trkpt>
      <trkpt lat="43.69796" lon="3.97498">
        <ele>88</ele>
        <time>2020-06-06T14:02:19.000Z</time>
      </trkpt>
      <trkpt lat="43.69796" lon="3.97505">
        <ele>88</ele>
        <time>2020-06-06T14:02:20.000Z</time>
      </trkpt>
      <trkpt lat="43.69795" lon="3.97512">
        <ele>88</ele>
        <time>2020-06-06T14:02:21.000Z</time>
      </trkpt>
      <trkpt lat="43.69795" lon="3.97519">
        <ele>88</ele>
        <time>2020-06-06T14:02:22.000Z</time>
      </trkpt>
      <trkpt lat="43.69795" lon="3.97527">
        <ele>88</ele>
        <time>2020-06-06T14:02:23.000Z</time>
      </trkpt>
      <trkpt lat="43.69795" lon="3.97535">
        <ele>88</ele>
        <time>2020-06-06T14:02:24.000Z</time>
      </trkpt>
      <trkpt lat="43.69794" lon="3.97543">
        <ele>88</ele>
        <time>2020-06-06T14:02:25.000Z</time>
      </trkpt>
      <trkpt lat="43.69791" lon="3.97549">
        <ele>88</ele>
        <time>2020-06-06T14:02:26.000Z</time>
      </trkpt>
      <trkpt lat="43.6979" lon="3.97555">
        <ele>88</ele>
        <time>2020-06-06T14:02:27.000Z</time>
      </trkpt>
      <trkpt lat="43.6979" lon="3.97559">
        <ele>88</ele>
        <time>2020-06-06T14:02:28.000Z</time>
      </trkpt>
      <trkpt lat="43.6979" lon="3.97564">
        <ele>88</ele>
        <time>2020-06-06T14:02:29.000Z</time>
      </trkpt>
      <trkpt lat="43.6979" lon="3.9757">
        <ele>88</ele>
        <time>2020-06-06T14:02:30.000Z</time>
      </trkpt>
      <trkpt lat="43.69789" lon="3.97575">
        <ele>88</ele>
        <time>2020-06-06T14:02:31.000Z</time>
      </trkpt>
      <trkpt lat="43.69786" lon="3.97581">
        <ele>88</ele>
        <time>2020-06-06T14:02:32.000Z</time>
      </trkpt>
      <trkpt lat="43.69784" lon="3.97587">
        <ele>88</ele>
        <time>2020-06-06T14:02:33.000Z</time>
      </trkpt>
      <trkpt lat="43.69781" lon="3.97592">
        <ele>88</ele>
        <time>2020-06-06T14:02:34.000Z</time>
      </trkpt>
      <trkpt lat="43.69778" lon="3.97597">
        <ele>88</ele>
        <time>2020-06-06T14:02:35.000Z</time>
      </trkpt>
      <trkpt lat="43.69776" lon="3.97601">
        <ele>87.992195119515</ele>
        <time>2020-06-06T14:02:36.000Z</time>
      </trkpt>
      <trkpt lat="43.69774" lon="3.97606">
        <ele>87.894634113447</ele>
        <time>2020-06-06T14:02:37.000Z</time>
      </trkpt>
      <trkpt lat="43.69772" lon="3.9761">
        <ele>87.797073107379</ele>
        <time>2020-06-06T14:02:38.000Z</time>
      </trkpt>
      <trkpt lat="43.6977" lon="3.97615">
        <ele>87.699512101311</ele>
        <time>2020-06-06T14:02:39.000Z</time>
      </trkpt>
      <trkpt lat="43.69768" lon="3.97621">
        <ele>87.601951095243</ele>
        <time>2020-06-06T14:02:40.000Z</time>
      </trkpt>
      <trkpt lat="43.69765" lon="3.97626">
        <ele>87.504390089175</ele>
        <time>2020-06-06T14:02:41.000Z</time>
      </trkpt>
      <trkpt lat="43.69763" lon="3.97632">
        <ele>87.406829083108</ele>
        <time>2020-06-06T14:02:42.000Z</time>
      </trkpt>
      <trkpt lat="43.69762" lon="3.97638">
        <ele>87.30926807704</ele>
        <time>2020-06-06T14:02:43.000Z</time>
      </trkpt>
      <trkpt lat="43.69761" lon="3.97645">
        <ele>87.211707070972</ele>
        <time>2020-06-06T14:02:44.000Z</time>
      </trkpt>
      <trkpt lat="43.69761" lon="3.97652">
        <ele>87.114146064904</ele>
        <time>2020-06-06T14:02:45.000Z</time>
      </trkpt>
      <trkpt lat="43.6976" lon="3.97658">
        <ele>87.016585058836</ele>
        <time>2020-06-06T14:02:46.000Z</time>
      </trkpt>
      <trkpt lat="43.69759" lon="3.97665">
        <ele>86.91460872428</ele>
        <time>2020-06-06T14:02:47.000Z</time>
      </trkpt>
      <trkpt lat="43.69758" lon="3.97673">
        <ele>86.811728065844</ele>
        <time>2020-06-06T14:02:48.000Z</time>
      </trkpt>
      <trkpt lat="43.69757" lon="3.9768">
        <ele>86.708847407407</ele>
        <time>2020-06-06T14:02:49.000Z</time>
      </trkpt>
      <trkpt lat="43.69757" lon="3.97687">
        <ele>86.605966748971</ele>
        <time>2020-06-06T14:02:50.000Z</time>
      </trkpt>
      <trkpt lat="43.69758" lon="3.97692">
        <ele>86.503086090535</ele>
        <time>2020-06-06T14:02:51.000Z</time>
      </trkpt>
      <trkpt lat="43.69758" lon="3.97698">
        <ele>86.400205432099</ele>
        <time>2020-06-06T14:02:52.000Z</time>
      </trkpt>
      <trkpt lat="43.69757" lon="3.97704">
        <ele>86.297324773663</ele>
        <time>2020-06-06T14:02:53.000Z</time>
      </trkpt>
      <trkpt lat="43.69757" lon="3.97709">
        <ele>86.194444115226</ele>
        <time>2020-06-06T14:02:54.000Z</time>
      </trkpt>
      <trkpt lat="43.69757" lon="3.97714">
        <ele>86.09156345679</ele>
        <time>2020-06-06T14:02:55.000Z</time>
      </trkpt>
      <trkpt lat="43.69757" lon="3.9772">
        <ele>86</ele>
        <time>2020-06-06T14:02:56.000Z</time>
      </trkpt>
      <trkpt lat="43.69757" lon="3.97726">
        <ele>86</ele>
        <time>2020-06-06T14:02:57.000Z</time>
      </trkpt>
      <trkpt lat="43.69758" lon="3.97731">
        <ele>86</ele>
        <time>2020-06-06T14:02:58.000Z</time>
      </trkpt>
      <trkpt lat="43.69758" lon="3.97738">
        <ele>86</ele>
        <time>2020-06-06T14:02:59.000Z</time>
      </trkpt>
      <trkpt lat="43.69757" lon="3.97744">
        <ele>86</ele>
        <time>2020-06-06T14:03:00.000Z</time>
      </trkpt>
      <trkpt lat="43.69757" lon="3.97751">
        <ele>86</ele>
        <time>2020-06-06T14:03:01.000Z</time>
      </trkpt>
      <trkpt lat="43.69756" lon="3.97757">
        <ele>86</ele>
        <time>2020-06-06T14:03:02.000Z</time>
      </trkpt>
      <trkpt lat="43.69757" lon="3.97763">
        <ele>86</ele>
        <time>2020-06-06T14:03:03.000Z</time>
      </trkpt>
      <trkpt lat="43.69757" lon="3.97769">
        <ele>86</ele>
        <time>2020-06-06T14:03:04.000Z</time>
      </trkpt>
      <trkpt lat="43.69757" lon="3.97773">
        <ele>86</ele>
        <time>2020-06-06T14:03:05.000Z</time>
      </trkpt>
      <trkpt lat="43.69757" lon="3.97776">
        <ele>86</ele>
        <time>2020-06-06T14:03:06.000Z</time>
      </trkpt>
      <trkpt lat="43.69757" lon="3.97778">
        <ele>86</ele>
        <time>2020-06-06T14:03:07.000Z</time>
      </trkpt>
      <trkpt lat="43.69757" lon="3.97782">
        <ele>86</ele>
        <time>2020-06-06T14:03:08.000Z</time>
      </trkpt>
      <trkpt lat="43.69757" lon="3.97786">
        <ele>86</ele>
        <time>2020-06-06T14:03:09.000Z</time>
      </trkpt>
      <trkpt lat="43.69757" lon="3.97791">
        <ele>86</ele>
        <time>2020-06-06T14:03:10.000Z</time>
      </trkpt>
      <trkpt lat="43.69756" lon="3.97795">
        <ele>86</ele>
        <time>2020-06-06T14:03:11.000Z</time>
      </trkpt>
      <trkpt lat="43.69757" lon="3.978">
        <ele>86</ele>
        <time>2020-06-06T14:03:12.000Z</time>
      </trkpt>
      <trkpt lat="43.69756" lon="3.97805">
        <ele>86</ele>
        <time>2020-06-06T14:03:13.000Z</time>
      </trkpt>
      <trkpt lat="43.69756" lon="3.97811">
        <ele>86</ele>
        <time>2020-06-06T14:03:14.000Z</time>
      </trkpt>
      <trkpt lat="43.69756" lon="3.97816">
        <ele>86</ele>
        <time>2020-06-06T14:03:15.000Z</time>
      </trkpt>
      <trkpt lat="43.69755" lon="3.97822">
        <ele>85.98899968</ele>
        <time>2020-06-06T14:03:16.000Z</time>
      </trkpt>
      <trkpt lat="43.69754" lon="3.97828">
        <ele>85.88899968</ele>
        <time>2020-06-06T14:03:17.000Z</time>
      </trkpt>
      <trkpt lat="43.69753" lon="3.97834">
        <ele>85.78899968</ele>
        <time>2020-06-06T14:03:18.000Z</time>
      </trkpt>
      <trkpt lat="43.69753" lon="3.97839">
        <ele>85.68899968</ele>
        <time>2020-06-06T14:03:19.000Z</time>
      </trkpt>
      <trkpt lat="43.69753" lon="3.97844">
        <ele>85.58899968</ele>
        <time>2020-06-06T14:03:20.000Z</time>
      </trkpt>
      <trkpt lat="43.69753" lon="3.97849">
        <ele>85.48899968</ele>
        <time>2020-06-06T14:03:21.000Z</time>
      </trkpt>
      <trkpt lat="43.69752" lon="3.97855">
        <ele>85.38899968</ele>
        <time>2020-06-06T14:03:22.000Z</time>
      </trkpt>
      <trkpt lat="43.69752" lon="3.97862">
        <ele>85.28899968</ele>
        <time>2020-06-06T14:03:23.000Z</time>
      </trkpt>
      <trkpt lat="43.69752" lon="3.97869">
        <ele>85.18899968</ele>
        <time>2020-06-06T14:03:24.000Z</time>
      </trkpt>
      <trkpt lat="43.69752" lon="3.97875">
        <ele>85.08899968</ele>
        <time>2020-06-06T14:03:25.000Z</time>
      </trkpt>
      <trkpt lat="43.69751" lon="3.9788">
        <ele>84.96699904</ele>
        <time>2020-06-06T14:03:26.000Z</time>
      </trkpt>
      <trkpt lat="43.69751" lon="3.97883">
        <ele>84.66699904</ele>
        <time>2020-06-06T14:03:27.000Z</time>
      </trkpt>
      <trkpt lat="43.69754" lon="3.97885">
        <ele>84.06699904</ele>
        <time>2020-06-06T14:03:29.000Z</time>
      </trkpt>
      <trkpt lat="43.69756" lon="3.97886">
        <ele>83.76699904</ele>
        <time>2020-06-06T14:03:30.000Z</time>
      </trkpt>
      <trkpt lat="43.69758" lon="3.97888">
        <ele>83.46699904</ele>
        <time>2020-06-06T14:03:31.000Z</time>
      </trkpt>
      <trkpt lat="43.69759" lon="3.9789">
        <ele>83.16699904</ele>
        <time>2020-06-06T14:03:32.000Z</time>
      </trkpt>
      <trkpt lat="43.69761" lon="3.97891">
        <ele>82.86699904</ele>
        <time>2020-06-06T14:03:33.000Z</time>
      </trkpt>
      <trkpt lat="43.69762" lon="3.97894">
        <ele>82.56699904</ele>
        <time>2020-06-06T14:03:34.000Z</time>
      </trkpt>
      <trkpt lat="43.69761" lon="3.97897">
        <ele>82.26699904</ele>
        <time>2020-06-06T14:03:35.000Z</time>
      </trkpt>
      <trkpt lat="43.6976" lon="3.979">
        <ele>81.97799936</ele>
        <time>2020-06-06T14:03:36.000Z</time>
      </trkpt>
      <trkpt lat="43.69759" lon="3.97903">
        <ele>81.77799936</ele>
        <time>2020-06-06T14:03:37.000Z</time>
      </trkpt>
      <trkpt lat="43.69758" lon="3.97906">
        <ele>81.57799936</ele>
        <time>2020-06-06T14:03:38.000Z</time>
      </trkpt>
      <trkpt lat="43.69757" lon="3.97909">
        <ele>81.37799936</ele>
        <time>2020-06-06T14:03:39.000Z</time>
      </trkpt>
      <trkpt lat="43.69756" lon="3.97912">
        <ele>81.17799936</ele>
        <time>2020-06-06T14:03:40.000Z</time>
      </trkpt>
      <trkpt lat="43.69755" lon="3.97916">
        <ele>80.97799936</ele>
        <time>2020-06-06T14:03:41.000Z</time>
      </trkpt>
      <trkpt lat="43.69754" lon="3.9792">
        <ele>80.77799936</ele>
        <time>2020-06-06T14:03:42.000Z</time>
      </trkpt>
      <trkpt lat="43.69753" lon="3.97924">
        <ele>80.57799936</ele>
        <time>2020-06-06T14:03:43.000Z</time>
      </trkpt>
      <trkpt lat="43.69751" lon="3.97928">
        <ele>80.37799936</ele>
        <time>2020-06-06T14:03:44.000Z</time>
      </trkpt>
      <trkpt lat="43.6975" lon="3.97933">
        <ele>80.17799936</ele>
        <time>2020-06-06T14:03:45.000Z</time>
      </trkpt>
      <trkpt lat="43.69749" lon="3.97937">
        <ele>79.97799936</ele>
        <time>2020-06-06T14:03:46.000Z</time>
      </trkpt>
      <trkpt lat="43.69747" lon="3.97942">
        <ele>79.77799936</ele>
        <time>2020-06-06T14:03:47.000Z</time>
      </trkpt>
      <trkpt lat="43.69745" lon="3.97947">
        <ele>79.57799936</ele>
        <time>2020-06-06T14:03:48.000Z</time>
      </trkpt>
      <trkpt lat="43.69744" lon="3.97951">
        <ele>79.37799936</ele>
        <time>2020-06-06T14:03:49.000Z</time>
      </trkpt>
      <trkpt lat="43.69743" lon="3.97956">
        <ele>79.17799936</ele>
        <time>2020-06-06T14:03:50.000Z</time>
      </trkpt>
      <trkpt lat="43.69741" lon="3.9796">
        <ele>78.97799936</ele>
        <time>2020-06-06T14:03:51.000Z</time>
      </trkpt>
      <trkpt lat="43.6974" lon="3.97964">
        <ele>78.77799936</ele>
        <time>2020-06-06T14:03:52.000Z</time>
      </trkpt>
      <trkpt lat="43.69739" lon="3.97969">
        <ele>78.57799936</ele>
        <time>2020-06-06T14:03:53.000Z</time>
      </trkpt>
      <trkpt lat="43.69737" lon="3.97973">
        <ele>78.37799936</ele>
        <time>2020-06-06T14:03:54.000Z</time>
      </trkpt>
      <trkpt lat="43.69736" lon="3.97978">
        <ele>78.17799936</ele>
        <time>2020-06-06T14:03:55.000Z</time>
      </trkpt>
      <trkpt lat="43.69734" lon="3.97983">
        <ele>77.989215372549</ele>
        <time>2020-06-06T14:03:56.000Z</time>
      </trkpt>
      <trkpt lat="43.69733" lon="3.97988">
        <ele>77.891176156863</ele>
        <time>2020-06-06T14:03:57.000Z</time>
      </trkpt>
      <trkpt lat="43.69732" lon="3.97992">
        <ele>77.793136941176</ele>
        <time>2020-06-06T14:03:58.000Z</time>
      </trkpt>
      <trkpt lat="43.6973" lon="3.97997">
        <ele>77.69509772549</ele>
        <time>2020-06-06T14:03:59.000Z</time>
      </trkpt>
      <trkpt lat="43.69729" lon="3.98002">
        <ele>77.597058509804</ele>
        <time>2020-06-06T14:04:00.000Z</time>
      </trkpt>
      <trkpt lat="43.69727" lon="3.98006">
        <ele>77.499019294118</ele>
        <time>2020-06-06T14:04:01.000Z</time>
      </trkpt>
      <trkpt lat="43.69726" lon="3.9801">
        <ele>77.400980078431</ele>
        <time>2020-06-06T14:04:02.000Z</time>
      </trkpt>
      <trkpt lat="43.69725" lon="3.98015">
        <ele>77.302940862745</ele>
        <time>2020-06-06T14:04:03.000Z</time>
      </trkpt>
      <trkpt lat="43.69723" lon="3.98019">
        <ele>77.204901647059</ele>
        <time>2020-06-06T14:04:04.000Z</time>
      </trkpt>
      <trkpt lat="43.69722" lon="3.98024">
        <ele>77.106862431373</ele>
        <time>2020-06-06T14:04:05.000Z</time>
      </trkpt>
      <trkpt lat="43.6972" lon="3.98028">
        <ele>77.008823215686</ele>
        <time>2020-06-06T14:04:06.000Z</time>
      </trkpt>
      <trkpt lat="43.69719" lon="3.98032">
        <ele>76.814285061224</ele>
        <time>2020-06-06T14:04:07.000Z</time>
      </trkpt>
      <trkpt lat="43.69718" lon="3.98037">
        <ele>76.610203428571</ele>
        <time>2020-06-06T14:04:08.000Z</time>
      </trkpt>
      <trkpt lat="43.69716" lon="3.98042">
        <ele>76.406121795918</ele>
        <time>2020-06-06T14:04:09.000Z</time>
      </trkpt>
      <trkpt lat="43.69715" lon="3.98046">
        <ele>76.202040163265</ele>
        <time>2020-06-06T14:04:10.000Z</time>
      </trkpt>
      <trkpt lat="43.69713" lon="3.98051">
        <ele>75.997958530612</ele>
        <time>2020-06-06T14:04:11.000Z</time>
      </trkpt>
      <trkpt lat="43.69712" lon="3.98056">
        <ele>75.793876897959</ele>
        <time>2020-06-06T14:04:12.000Z</time>
      </trkpt>
      <trkpt lat="43.6971" lon="3.98062">
        <ele>75.589795265306</ele>
        <time>2020-06-06T14:04:13.000Z</time>
      </trkpt>
      <trkpt lat="43.69708" lon="3.98067">
        <ele>75.385713632653</ele>
        <time>2020-06-06T14:04:14.000Z</time>
      </trkpt>
      <trkpt lat="43.69707" lon="3.98072">
        <ele>75.181632</ele>
        <time>2020-06-06T14:04:15.000Z</time>
      </trkpt>
      <trkpt lat="43.69705" lon="3.98076">
        <ele>74.989309695412</ele>
        <time>2020-06-06T14:04:16.000Z</time>
      </trkpt>
      <trkpt lat="43.69704" lon="3.9808">
        <ele>74.892127935356</ele>
        <time>2020-06-06T14:04:17.000Z</time>
      </trkpt>
      <trkpt lat="43.69703" lon="3.98083">
        <ele>74.697764415243</ele>
        <time>2020-06-06T14:04:19.000Z</time>
      </trkpt>
      <trkpt lat="43.69702" lon="3.98087">
        <ele>74.50340089513</ele>
        <time>2020-06-06T14:04:21.000Z</time>
      </trkpt>
      <trkpt lat="43.69701" lon="3.9809">
        <ele>74.309037375017</ele>
        <time>2020-06-06T14:04:23.000Z</time>
      </trkpt>
      <trkpt lat="43.697" lon="3.98093">
        <ele>74.21185561496</ele>
        <time>2020-06-06T14:04:24.000Z</time>
      </trkpt>
      <trkpt lat="43.69698" lon="3.98096">
        <ele>74.114673854903</ele>
        <time>2020-06-06T14:04:25.000Z</time>
      </trkpt>
      <trkpt lat="43.69696" lon="3.981">
        <ele>74.017492094847</ele>
        <time>2020-06-06T14:04:26.000Z</time>
      </trkpt>
      <trkpt lat="43.69695" lon="3.98104">
        <ele>73.91555034709</ele>
        <time>2020-06-06T14:04:27.000Z</time>
      </trkpt>
      <trkpt lat="43.69694" lon="3.98108">
        <ele>73.812563769289</ele>
        <time>2020-06-06T14:04:28.000Z</time>
      </trkpt>
      <trkpt lat="43.69692" lon="3.98112">
        <ele>73.709577191489</ele>
        <time>2020-06-06T14:04:29.000Z</time>
      </trkpt>
      <trkpt lat="43.69691" lon="3.98117">
        <ele>73.606590613688</ele>
        <time>2020-06-06T14:04:30.000Z</time>
      </trkpt>
      <trkpt lat="43.6969" lon="3.98122">
        <ele>73.503604035887</ele>
        <time>2020-06-06T14:04:31.000Z</time>
      </trkpt>
      <trkpt lat="43.69689" lon="3.98127">
        <ele>73.400617458087</ele>
        <time>2020-06-06T14:04:32.000Z</time>
      </trkpt>
      <trkpt lat="43.69688" lon="3.98132">
        <ele>73.297630880286</ele>
        <time>2020-06-06T14:04:33.000Z</time>
      </trkpt>
      <trkpt lat="43.69686" lon="3.98137">
        <ele>73.194644302486</ele>
        <time>2020-06-06T14:04:34.000Z</time>
      </trkpt>
      <trkpt lat="43.69684" lon="3.98141">
        <ele>73.091657724685</ele>
        <time>2020-06-06T14:04:35.000Z</time>
      </trkpt>
      <trkpt lat="43.69682" lon="3.98146">
        <ele>73</ele>
        <time>2020-06-06T14:04:36.000Z</time>
      </trkpt>
      <trkpt lat="43.69681" lon="3.98151">
        <ele>73</ele>
        <time>2020-06-06T14:04:37.000Z</time>
      </trkpt>
      <trkpt lat="43.69679" lon="3.98156">
        <ele>73</ele>
        <time>2020-06-06T14:04:38.000Z</time>
      </trkpt>
      <trkpt lat="43.69678" lon="3.98161">
        <ele>73</ele>
        <time>2020-06-06T14:04:39.000Z</time>
      </trkpt>
      <trkpt lat="43.69677" lon="3.98166">
        <ele>73</ele>
        <time>2020-06-06T14:04:40.000Z</time>
      </trkpt>
      <trkpt lat="43.69675" lon="3.98171">
        <ele>73</ele>
        <time>2020-06-06T14:04:41.000Z</time>
      </trkpt>
      <trkpt lat="43.69674" lon="3.98176">
        <ele>73</ele>
        <time>2020-06-06T14:04:42.000Z</time>
      </trkpt>
      <trkpt lat="43.69673" lon="3.98181">
        <ele>73</ele>
        <time>2020-06-06T14:04:43.000Z</time>
      </trkpt>
      <trkpt lat="43.69671" lon="3.98186">
        <ele>73</ele>
        <time>2020-06-06T14:04:44.000Z</time>
      </trkpt>
      <trkpt lat="43.6967" lon="3.98191">
        <ele>73</ele>
        <time>2020-06-06T14:04:45.000Z</time>
      </trkpt>
      <trkpt lat="43.69668" lon="3.98196">
        <ele>73</ele>
        <time>2020-06-06T14:04:46.000Z</time>
      </trkpt>
      <trkpt lat="43.69666" lon="3.98201">
        <ele>73</ele>
        <time>2020-06-06T14:04:47.000Z</time>
      </trkpt>
      <trkpt lat="43.69665" lon="3.98206">
        <ele>73</ele>
        <time>2020-06-06T14:04:48.000Z</time>
      </trkpt>
      <trkpt lat="43.69663" lon="3.98211">
        <ele>73</ele>
        <time>2020-06-06T14:04:49.000Z</time>
      </trkpt>
      <trkpt lat="43.69661" lon="3.98216">
        <ele>73</ele>
        <time>2020-06-06T14:04:50.000Z</time>
      </trkpt>
      <trkpt lat="43.69659" lon="3.98221">
        <ele>73</ele>
        <time>2020-06-06T14:04:51.000Z</time>
      </trkpt>
      <trkpt lat="43.69657" lon="3.98225">
        <ele>73</ele>
        <time>2020-06-06T14:04:52.000Z</time>
      </trkpt>
      <trkpt lat="43.69655" lon="3.9823">
        <ele>73</ele>
        <time>2020-06-06T14:04:53.000Z</time>
      </trkpt>
      <trkpt lat="43.69654" lon="3.98234">
        <ele>73</ele>
        <time>2020-06-06T14:04:54.000Z</time>
      </trkpt>
      <trkpt lat="43.69652" lon="3.98239">
        <ele>73</ele>
        <time>2020-06-06T14:04:55.000Z</time>
      </trkpt>
      <trkpt lat="43.6965" lon="3.98243">
        <ele>73</ele>
        <time>2020-06-06T14:04:56.000Z</time>
      </trkpt>
      <trkpt lat="43.69648" lon="3.98248">
        <ele>73</ele>
        <time>2020-06-06T14:04:57.000Z</time>
      </trkpt>
      <trkpt lat="43.69645" lon="3.98252">
        <ele>73</ele>
        <time>2020-06-06T14:04:58.000Z</time>
      </trkpt>
      <trkpt lat="43.69643" lon="3.98257">
        <ele>73</ele>
        <time>2020-06-06T14:04:59.000Z</time>
      </trkpt>
      <trkpt lat="43.69641" lon="3.98262">
        <ele>73</ele>
        <time>2020-06-06T14:05:00.000Z</time>
      </trkpt>
      <trkpt lat="43.69638" lon="3.98267">
        <ele>73</ele>
        <time>2020-06-06T14:05:01.000Z</time>
      </trkpt>
      <trkpt lat="43.69636" lon="3.98271">
        <ele>73</ele>
        <time>2020-06-06T14:05:02.000Z</time>
      </trkpt>
      <trkpt lat="43.69635" lon="3.98275">
        <ele>73</ele>
        <time>2020-06-06T14:05:03.000Z</time>
      </trkpt>
      <trkpt lat="43.69634" lon="3.9828">
        <ele>73</ele>
        <time>2020-06-06T14:05:04.000Z</time>
      </trkpt>
      <trkpt lat="43.69635" lon="3.98283">
        <ele>73</ele>
        <time>2020-06-06T14:05:05.000Z</time>
      </trkpt>
      <trkpt lat="43.69637" lon="3.98287">
        <ele>73</ele>
        <time>2020-06-06T14:05:06.000Z</time>
      </trkpt>
      <trkpt lat="43.69638" lon="3.9829">
        <ele>73.08444965291</ele>
        <time>2020-06-06T14:05:07.000Z</time>
      </trkpt>
      <trkpt lat="43.69638" lon="3.98294">
        <ele>73.187436230711</ele>
        <time>2020-06-06T14:05:08.000Z</time>
      </trkpt>
      <trkpt lat="43.69638" lon="3.98296">
        <ele>73.290422808511</ele>
        <time>2020-06-06T14:05:09.000Z</time>
      </trkpt>
      <trkpt lat="43.69636" lon="3.98298">
        <ele>73.496395964113</ele>
        <time>2020-06-06T14:05:11.000Z</time>
      </trkpt>
      <trkpt lat="43.69632" lon="3.98297">
        <ele>73.702369119714</ele>
        <time>2020-06-06T14:05:13.000Z</time>
      </trkpt>
      <trkpt lat="43.6963" lon="3.98297">
        <ele>73.805355697514</ele>
        <time>2020-06-06T14:05:14.000Z</time>
      </trkpt>
      <trkpt lat="43.69628" lon="3.98296">
        <ele>73.908342275315</ele>
        <time>2020-06-06T14:05:15.000Z</time>
      </trkpt>
      <trkpt lat="43.69626" lon="3.98296">
        <ele>74.01100032</ele>
        <time>2020-06-06T14:05:16.000Z</time>
      </trkpt>
      <trkpt lat="43.69624" lon="3.98296">
        <ele>74.11100032</ele>
        <time>2020-06-06T14:05:17.000Z</time>
      </trkpt>
      <trkpt lat="43.69622" lon="3.98295">
        <ele>74.21100032</ele>
        <time>2020-06-06T14:05:18.000Z</time>
      </trkpt>
      <trkpt lat="43.69619" lon="3.98294">
        <ele>74.31100032</ele>
        <time>2020-06-06T14:05:19.000Z</time>
      </trkpt>
      <trkpt lat="43.69617" lon="3.98293">
        <ele>74.41100032</ele>
        <time>2020-06-06T14:05:20.000Z</time>
      </trkpt>
      <trkpt lat="43.69615" lon="3.98293">
        <ele>74.51100032</ele>
        <time>2020-06-06T14:05:21.000Z</time>
      </trkpt>
      <trkpt lat="43.69613" lon="3.98292">
        <ele>74.61100032</ele>
        <time>2020-06-06T14:05:22.000Z</time>
      </trkpt>
      <trkpt lat="43.69611" lon="3.9829">
        <ele>74.71100032</ele>
        <time>2020-06-06T14:05:23.000Z</time>
      </trkpt>
      <trkpt lat="43.69609" lon="3.98288">
        <ele>74.81100032</ele>
        <time>2020-06-06T14:05:24.000Z</time>
      </trkpt>
      <trkpt lat="43.69607" lon="3.98286">
        <ele>74.91100032</ele>
        <time>2020-06-06T14:05:25.000Z</time>
      </trkpt>
      <trkpt lat="43.69606" lon="3.98283">
        <ele>75.03296796039</ele>
        <time>2020-06-06T14:05:26.000Z</time>
      </trkpt>
      <trkpt lat="43.69605" lon="3.9828">
        <ele>75.332667972666</ele>
        <time>2020-06-06T14:05:27.000Z</time>
      </trkpt>
      <trkpt lat="43.69605" lon="3.98277">
        <ele>75.632367984942</ele>
        <time>2020-06-06T14:05:28.000Z</time>
      </trkpt>
      <trkpt lat="43.69605" lon="3.98275">
        <ele>75.932067997218</ele>
        <time>2020-06-06T14:05:29.000Z</time>
      </trkpt>
      <trkpt lat="43.69605" lon="3.98272">
        <ele>76.231768009493</ele>
        <time>2020-06-06T14:05:30.000Z</time>
      </trkpt>
      <trkpt lat="43.69605" lon="3.98269">
        <ele>76.531468021769</ele>
        <time>2020-06-06T14:05:31.000Z</time>
      </trkpt>
      <trkpt lat="43.69606" lon="3.98266">
        <ele>76.831168034045</ele>
        <time>2020-06-06T14:05:32.000Z</time>
      </trkpt>
      <trkpt lat="43.69606" lon="3.98263">
        <ele>77.13086804632</ele>
        <time>2020-06-06T14:05:33.000Z</time>
      </trkpt>
      <trkpt lat="43.69606" lon="3.9826">
        <ele>77.430568058596</ele>
        <time>2020-06-06T14:05:34.000Z</time>
      </trkpt>
      <trkpt lat="43.69606" lon="3.98257">
        <ele>77.730268070872</ele>
        <time>2020-06-06T14:05:35.000Z</time>
      </trkpt>
      <trkpt lat="43.69605" lon="3.98255">
        <ele>78.020018757976</ele>
        <time>2020-06-06T14:05:36.000Z</time>
      </trkpt>
      <trkpt lat="43.69605" lon="3.98252">
        <ele>78.220219150561</ele>
        <time>2020-06-06T14:05:37.000Z</time>
      </trkpt>
      <trkpt lat="43.69604" lon="3.9825">
        <ele>78.420419543146</ele>
        <time>2020-06-06T14:05:38.000Z</time>
      </trkpt>
      <trkpt lat="43.69604" lon="3.98247">
        <ele>78.620619935731</ele>
        <time>2020-06-06T14:05:39.000Z</time>
      </trkpt>
      <trkpt lat="43.69603" lon="3.98245">
        <ele>78.820820328316</ele>
        <time>2020-06-06T14:05:40.000Z</time>
      </trkpt>
      <trkpt lat="43.69602" lon="3.98243">
        <ele>79.021020720901</ele>
        <time>2020-06-06T14:05:41.000Z</time>
      </trkpt>
      <trkpt lat="43.69601" lon="3.98238">
        <ele>79.421421506071</ele>
        <time>2020-06-06T14:05:43.000Z</time>
      </trkpt>
      <trkpt lat="43.69598" lon="3.98235">
        <ele>79.821822291241</ele>
        <time>2020-06-06T14:05:45.000Z</time>
      </trkpt>
      <trkpt lat="43.69596" lon="3.98231">
        <ele>80.209632269044</ele>
        <time>2020-06-06T14:05:47.000Z</time>
      </trkpt>
      <trkpt lat="43.69594" lon="3.98228">
        <ele>80.587346980216</ele>
        <time>2020-06-06T14:05:49.000Z</time>
      </trkpt>
      <trkpt lat="43.69591" lon="3.98225">
        <ele>80.965061691388</ele>
        <time>2020-06-06T14:05:51.000Z</time>
      </trkpt>
      <trkpt lat="43.69588" lon="3.98223">
        <ele>81.342776402561</ele>
        <time>2020-06-06T14:05:53.000Z</time>
      </trkpt>
      <trkpt lat="43.69586" lon="3.98221">
        <ele>81.531633758147</ele>
        <time>2020-06-06T14:05:54.000Z</time>
      </trkpt>
      <trkpt lat="43.69584" lon="3.9822">
        <ele>81.720491113733</ele>
        <time>2020-06-06T14:05:55.000Z</time>
      </trkpt>
      <trkpt lat="43.69583" lon="3.98219">
        <ele>81.909348469319</ele>
        <time>2020-06-06T14:05:56.000Z</time>
      </trkpt>
      <trkpt lat="43.69581" lon="3.98218">
        <ele>82.054450243535</ele>
        <time>2020-06-06T14:05:57.000Z</time>
      </trkpt>
      <trkpt lat="43.69579" lon="3.98216">
        <ele>82.159162250333</ele>
        <time>2020-06-06T14:05:58.000Z</time>
      </trkpt>
      <trkpt lat="43.69577" lon="3.98214">
        <ele>82.263874257131</ele>
        <time>2020-06-06T14:05:59.000Z</time>
      </trkpt>
      <trkpt lat="43.69575" lon="3.98212">
        <ele>82.368586263929</ele>
        <time>2020-06-06T14:06:00.000Z</time>
      </trkpt>
      <trkpt lat="43.69573" lon="3.98209">
        <ele>82.473298270727</ele>
        <time>2020-06-06T14:06:01.000Z</time>
      </trkpt>
      <trkpt lat="43.69571" lon="3.98207">
        <ele>82.578010277525</ele>
        <time>2020-06-06T14:06:02.000Z</time>
      </trkpt>
      <trkpt lat="43.69569" lon="3.98204">
        <ele>82.682722284323</ele>
        <time>2020-06-06T14:06:03.000Z</time>
      </trkpt>
      <trkpt lat="43.69568" lon="3.98201">
        <ele>82.787434291121</ele>
        <time>2020-06-06T14:06:04.000Z</time>
      </trkpt>
      <trkpt lat="43.69566" lon="3.98199">
        <ele>82.89214629792</ele>
        <time>2020-06-06T14:06:05.000Z</time>
      </trkpt>
      <trkpt lat="43.69564" lon="3.98196">
        <ele>82.996858304718</ele>
        <time>2020-06-06T14:06:06.000Z</time>
      </trkpt>
      <trkpt lat="43.69562" lon="3.98193">
        <ele>83.097096870083</ele>
        <time>2020-06-06T14:06:07.000Z</time>
      </trkpt>
      <trkpt lat="43.6956" lon="3.9819">
        <ele>83.197197066376</ele>
        <time>2020-06-06T14:06:08.000Z</time>
      </trkpt>
      <trkpt lat="43.69558" lon="3.98187">
        <ele>83.297297262668</ele>
        <time>2020-06-06T14:06:09.000Z</time>
      </trkpt>
      <trkpt lat="43.69555" lon="3.98184">
        <ele>83.39739745896</ele>
        <time>2020-06-06T14:06:10.000Z</time>
      </trkpt>
      <trkpt lat="43.69553" lon="3.9818">
        <ele>83.497497655253</ele>
        <time>2020-06-06T14:06:11.000Z</time>
      </trkpt>
      <trkpt lat="43.6955" lon="3.98177">
        <ele>83.597597851546</ele>
        <time>2020-06-06T14:06:12.000Z</time>
      </trkpt>
      <trkpt lat="43.69548" lon="3.98173">
        <ele>83.697698047838</ele>
        <time>2020-06-06T14:06:13.000Z</time>
      </trkpt>
      <trkpt lat="43.69546" lon="3.9817">
        <ele>83.79779824413</ele>
        <time>2020-06-06T14:06:14.000Z</time>
      </trkpt>
      <trkpt lat="43.69543" lon="3.98166">
        <ele>83.897898440423</ele>
        <time>2020-06-06T14:06:15.000Z</time>
      </trkpt>
      <trkpt lat="43.69541" lon="3.98163">
        <ele>83.997998636715</ele>
        <time>2020-06-06T14:06:16.000Z</time>
      </trkpt>
      <trkpt lat="43.69538" lon="3.98159">
        <ele>83.807085354331</ele>
        <time>2020-06-06T14:06:17.000Z</time>
      </trkpt>
      <trkpt lat="43.69536" lon="3.98155">
        <ele>83.61023496063</ele>
        <time>2020-06-06T14:06:18.000Z</time>
      </trkpt>
      <trkpt lat="43.69533" lon="3.98151">
        <ele>83.413384566929</ele>
        <time>2020-06-06T14:06:19.000Z</time>
      </trkpt>
      <trkpt lat="43.6953" lon="3.98147">
        <ele>83.216534173228</ele>
        <time>2020-06-06T14:06:20.000Z</time>
      </trkpt>
      <trkpt lat="43.69527" lon="3.98143">
        <ele>83.019683779528</ele>
        <time>2020-06-06T14:06:21.000Z</time>
      </trkpt>
      <trkpt lat="43.69524" lon="3.98138">
        <ele>82.822833385827</ele>
        <time>2020-06-06T14:06:22.000Z</time>
      </trkpt>
      <trkpt lat="43.69521" lon="3.98133">
        <ele>82.625982992126</ele>
        <time>2020-06-06T14:06:23.000Z</time>
      </trkpt>
      <trkpt lat="43.69518" lon="3.98128">
        <ele>82.429132598425</ele>
        <time>2020-06-06T14:06:24.000Z</time>
      </trkpt>
      <trkpt lat="43.69515" lon="3.98122">
        <ele>82.232282204724</ele>
        <time>2020-06-06T14:06:25.000Z</time>
      </trkpt>
      <trkpt lat="43.69511" lon="3.98117">
        <ele>82.035431811024</ele>
        <time>2020-06-06T14:06:26.000Z</time>
      </trkpt>
      <trkpt lat="43.69508" lon="3.98111">
        <ele>81.746651041268</ele>
        <time>2020-06-06T14:06:27.000Z</time>
      </trkpt>
      <trkpt lat="43.69504" lon="3.98106">
        <ele>81.437691307867</ele>
        <time>2020-06-06T14:06:28.000Z</time>
      </trkpt>
      <trkpt lat="43.69499" lon="3.98101">
        <ele>81.128731574465</ele>
        <time>2020-06-06T14:06:29.000Z</time>
      </trkpt>
      <trkpt lat="43.69493" lon="3.98097">
        <ele>80.819771841064</ele>
        <time>2020-06-06T14:06:30.000Z</time>
      </trkpt>
      <trkpt lat="43.69488" lon="3.98094">
        <ele>80.510812107662</ele>
        <time>2020-06-06T14:06:31.000Z</time>
      </trkpt>
      <trkpt lat="43.69483" lon="3.98091">
        <ele>80.201852374261</ele>
        <time>2020-06-06T14:06:32.000Z</time>
      </trkpt>
      <trkpt lat="43.69478" lon="3.98089">
        <ele>79.892892640859</ele>
        <time>2020-06-06T14:06:33.000Z</time>
      </trkpt>
      <trkpt lat="43.69474" lon="3.98088">
        <ele>79.583932907458</ele>
        <time>2020-06-06T14:06:34.000Z</time>
      </trkpt>
      <trkpt lat="43.69471" lon="3.98086">
        <ele>79.274973174056</ele>
        <time>2020-06-06T14:06:35.000Z</time>
      </trkpt>
      <trkpt lat="43.69469" lon="3.98085">
        <ele>79</ele>
        <time>2020-06-06T14:06:36.000Z</time>
      </trkpt>
      <trkpt lat="43.69469" lon="3.98085">
        <ele>79</ele>
        <time>2020-06-06T14:06:43.000Z</time>
      </trkpt>
      <trkpt lat="43.69466" lon="3.98078">
        <ele>78.006736004586</ele>
        <time>2020-06-06T14:07:32.000Z</time>
      </trkpt>
      <trkpt lat="43.69466" lon="3.98076">
        <ele>78.038585222237</ele>
        <time>2020-06-06T14:07:33.000Z</time>
      </trkpt>
      <trkpt lat="43.69467" lon="3.98072">
        <ele>78.145766395118</ele>
        <time>2020-06-06T14:07:34.000Z</time>
      </trkpt>
      <trkpt lat="43.69467" lon="3.98068">
        <ele>78.252947567999</ele>
        <time>2020-06-06T14:07:35.000Z</time>
      </trkpt>
      <trkpt lat="43.69467" lon="3.98063">
        <ele>78.36012874088</ele>
        <time>2020-06-06T14:07:36.000Z</time>
      </trkpt>
      <trkpt lat="43.69467" lon="3.98059">
        <ele>78.467309913761</ele>
        <time>2020-06-06T14:07:37.000Z</time>
      </trkpt>
      <trkpt lat="43.69468" lon="3.98054">
        <ele>78.574491086642</ele>
        <time>2020-06-06T14:07:38.000Z</time>
      </trkpt>
      <trkpt lat="43.69468" lon="3.98049">
        <ele>78.681672259523</ele>
        <time>2020-06-06T14:07:39.000Z</time>
      </trkpt>
      <trkpt lat="43.69469" lon="3.98044">
        <ele>78.788853432404</ele>
        <time>2020-06-06T14:07:40.000Z</time>
      </trkpt>
      <trkpt lat="43.69469" lon="3.98038">
        <ele>78.896034605285</ele>
        <time>2020-06-06T14:07:41.000Z</time>
      </trkpt>
      <trkpt lat="43.69469" lon="3.98032">
        <ele>79</ele>
        <time>2020-06-06T14:07:42.000Z</time>
      </trkpt>
      <trkpt lat="43.6947" lon="3.98027">
        <ele>79</ele>
        <time>2020-06-06T14:07:43.000Z</time>
      </trkpt>
      <trkpt lat="43.69471" lon="3.98021">
        <ele>79</ele>
        <time>2020-06-06T14:07:44.000Z</time>
      </trkpt>
      <trkpt lat="43.69472" lon="3.98016">
        <ele>79</ele>
        <time>2020-06-06T14:07:45.000Z</time>
      </trkpt>
      <trkpt lat="43.69473" lon="3.98011">
        <ele>79</ele>
        <time>2020-06-06T14:07:46.000Z</time>
      </trkpt>
      <trkpt lat="43.69474" lon="3.98006">
        <ele>79</ele>
        <time>2020-06-06T14:07:47.000Z</time>
      </trkpt>
      <trkpt lat="43.69475" lon="3.98001">
        <ele>79</ele>
        <time>2020-06-06T14:07:48.000Z</time>
      </trkpt>
      <trkpt lat="43.69476" lon="3.97996">
        <ele>79</ele>
        <time>2020-06-06T14:07:49.000Z</time>
      </trkpt>
      <trkpt lat="43.69477" lon="3.97992">
        <ele>79</ele>
        <time>2020-06-06T14:07:50.000Z</time>
      </trkpt>
      <trkpt lat="43.69477" lon="3.97988">
        <ele>79</ele>
        <time>2020-06-06T14:07:51.000Z</time>
      </trkpt>
      <trkpt lat="43.69478" lon="3.97983">
        <ele>79</ele>
        <time>2020-06-06T14:07:52.000Z</time>
      </trkpt>
      <trkpt lat="43.69479" lon="3.97978">
        <ele>79</ele>
        <time>2020-06-06T14:07:53.000Z</time>
      </trkpt>
      <trkpt lat="43.69481" lon="3.97973">
        <ele>79</ele>
        <time>2020-06-06T14:07:54.000Z</time>
      </trkpt>
      <trkpt lat="43.69482" lon="3.97968">
        <ele>79</ele>
        <time>2020-06-06T14:07:55.000Z</time>
      </trkpt>
      <trkpt lat="43.69483" lon="3.97963">
        <ele>79</ele>
        <time>2020-06-06T14:07:56.000Z</time>
      </trkpt>
      <trkpt lat="43.69484" lon="3.97957">
        <ele>79</ele>
        <time>2020-06-06T14:07:57.000Z</time>
      </trkpt>
      <trkpt lat="43.69486" lon="3.97952">
        <ele>79</ele>
        <time>2020-06-06T14:07:58.000Z</time>
      </trkpt>
      <trkpt lat="43.69488" lon="3.97947">
        <ele>79</ele>
        <time>2020-06-06T14:07:59.000Z</time>
      </trkpt>
      <trkpt lat="43.69489" lon="3.97942">
        <ele>79</ele>
        <time>2020-06-06T14:08:00.000Z</time>
      </trkpt>
      <trkpt lat="43.69491" lon="3.97938">
        <ele>79</ele>
        <time>2020-06-06T14:08:01.000Z</time>
      </trkpt>
      <trkpt lat="43.69493" lon="3.97934">
        <ele>78.989402395744</ele>
        <time>2020-06-06T14:08:02.000Z</time>
      </trkpt>
      <trkpt lat="43.69494" lon="3.97929">
        <ele>78.893063341464</ele>
        <time>2020-06-06T14:08:03.000Z</time>
      </trkpt>
      <trkpt lat="43.69497" lon="3.97925">
        <ele>78.796724287183</ele>
        <time>2020-06-06T14:08:04.000Z</time>
      </trkpt>
      <trkpt lat="43.69499" lon="3.97921">
        <ele>78.700385232903</ele>
        <time>2020-06-06T14:08:05.000Z</time>
      </trkpt>
      <trkpt lat="43.69501" lon="3.97917">
        <ele>78.604046178623</ele>
        <time>2020-06-06T14:08:06.000Z</time>
      </trkpt>
      <trkpt lat="43.69503" lon="3.97912">
        <ele>78.507707124342</ele>
        <time>2020-06-06T14:08:07.000Z</time>
      </trkpt>
      <trkpt lat="43.69505" lon="3.97907">
        <ele>78.411368070062</ele>
        <time>2020-06-06T14:08:08.000Z</time>
      </trkpt>
      <trkpt lat="43.69507" lon="3.97902">
        <ele>78.315029015782</ele>
        <time>2020-06-06T14:08:09.000Z</time>
      </trkpt>
      <trkpt lat="43.69509" lon="3.97897">
        <ele>78.218689961501</ele>
        <time>2020-06-06T14:08:10.000Z</time>
      </trkpt>
      <trkpt lat="43.69511" lon="3.97893">
        <ele>78.122350907221</ele>
        <time>2020-06-06T14:08:11.000Z</time>
      </trkpt>
      <trkpt lat="43.69513" lon="3.97888">
        <ele>78.026011852941</ele>
        <time>2020-06-06T14:08:12.000Z</time>
      </trkpt>
      <trkpt lat="43.69515" lon="3.97882">
        <ele>78</ele>
        <time>2020-06-06T14:08:13.000Z</time>
      </trkpt>
      <trkpt lat="43.69517" lon="3.97876">
        <ele>78</ele>
        <time>2020-06-06T14:08:14.000Z</time>
      </trkpt>
      <trkpt lat="43.69519" lon="3.97871">
        <ele>78</ele>
        <time>2020-06-06T14:08:15.000Z</time>
      </trkpt>
      <trkpt lat="43.69521" lon="3.97866">
        <ele>78</ele>
        <time>2020-06-06T14:08:16.000Z</time>
      </trkpt>
      <trkpt lat="43.69523" lon="3.97862">
        <ele>78</ele>
        <time>2020-06-06T14:08:17.000Z</time>
      </trkpt>
      <trkpt lat="43.69524" lon="3.97857">
        <ele>78</ele>
        <time>2020-06-06T14:08:18.000Z</time>
      </trkpt>
      <trkpt lat="43.69526" lon="3.97852">
        <ele>78</ele>
        <time>2020-06-06T14:08:19.000Z</time>
      </trkpt>
      <trkpt lat="43.69528" lon="3.97846">
        <ele>78</ele>
        <time>2020-06-06T14:08:20.000Z</time>
      </trkpt>
      <trkpt lat="43.6953" lon="3.97841">
        <ele>78</ele>
        <time>2020-06-06T14:08:21.000Z</time>
      </trkpt>
      <trkpt lat="43.69532" lon="3.97836">
        <ele>78.01100032</ele>
        <time>2020-06-06T14:08:22.000Z</time>
      </trkpt>
      <trkpt lat="43.69535" lon="3.97832">
        <ele>78.11100032</ele>
        <time>2020-06-06T14:08:23.000Z</time>
      </trkpt>
      <trkpt lat="43.69537" lon="3.97827">
        <ele>78.21100032</ele>
        <time>2020-06-06T14:08:24.000Z</time>
      </trkpt>
      <trkpt lat="43.6954" lon="3.97822">
        <ele>78.31100032</ele>
        <time>2020-06-06T14:08:25.000Z</time>
      </trkpt>
      <trkpt lat="43.69543" lon="3.97818">
        <ele>78.41100032</ele>
        <time>2020-06-06T14:08:26.000Z</time>
      </trkpt>
      <trkpt lat="43.69546" lon="3.97813">
        <ele>78.51100032</ele>
        <time>2020-06-06T14:08:27.000Z</time>
      </trkpt>
      <trkpt lat="43.69549" lon="3.97809">
        <ele>78.61100032</ele>
        <time>2020-06-06T14:08:28.000Z</time>
      </trkpt>
      <trkpt lat="43.69552" lon="3.97804">
        <ele>78.71100032</ele>
        <time>2020-06-06T14:08:29.000Z</time>
      </trkpt>
      <trkpt lat="43.69555" lon="3.97799">
        <ele>78.81100032</ele>
        <time>2020-06-06T14:08:30.000Z</time>
      </trkpt>
      <trkpt lat="43.69558" lon="3.97795">
        <ele>78.91100032</ele>
        <time>2020-06-06T14:08:31.000Z</time>
      </trkpt>
      <trkpt lat="43.69561" lon="3.9779">
        <ele>78.98899968</ele>
        <time>2020-06-06T14:08:32.000Z</time>
      </trkpt>
      <trkpt lat="43.69564" lon="3.97786">
        <ele>78.88899968</ele>
        <time>2020-06-06T14:08:33.000Z</time>
      </trkpt>
      <trkpt lat="43.69567" lon="3.9778">
        <ele>78.78899968</ele>
        <time>2020-06-06T14:08:34.000Z</time>
      </trkpt>
      <trkpt lat="43.69569" lon="3.97775">
        <ele>78.68899968</ele>
        <time>2020-06-06T14:08:35.000Z</time>
      </trkpt>
      <trkpt lat="43.69572" lon="3.9777">
        <ele>78.58899968</ele>
        <time>2020-06-06T14:08:36.000Z</time>
      </trkpt>
      <trkpt lat="43.69575" lon="3.97766">
        <ele>78.48899968</ele>
        <time>2020-06-06T14:08:37.000Z</time>
      </trkpt>
      <trkpt lat="43.69577" lon="3.97761">
        <ele>78.38899968</ele>
        <time>2020-06-06T14:08:38.000Z</time>
      </trkpt>
      <trkpt lat="43.6958" lon="3.97756">
        <ele>78.28899968</ele>
        <time>2020-06-06T14:08:39.000Z</time>
      </trkpt>
      <trkpt lat="43.69582" lon="3.97751">
        <ele>78.18899968</ele>
        <time>2020-06-06T14:08:40.000Z</time>
      </trkpt>
      <trkpt lat="43.69584" lon="3.97746">
        <ele>78.08899968</ele>
        <time>2020-06-06T14:08:41.000Z</time>
      </trkpt>
      <trkpt lat="43.69586" lon="3.9774">
        <ele>78.01100032</ele>
        <time>2020-06-06T14:08:42.000Z</time>
      </trkpt>
      <trkpt lat="43.69589" lon="3.97735">
        <ele>78.11100032</ele>
        <time>2020-06-06T14:08:43.000Z</time>
      </trkpt>
      <trkpt lat="43.69591" lon="3.97729">
        <ele>78.21100032</ele>
        <time>2020-06-06T14:08:44.000Z</time>
      </trkpt>
      <trkpt lat="43.69592" lon="3.97724">
        <ele>78.31100032</ele>
        <time>2020-06-06T14:08:45.000Z</time>
      </trkpt>
      <trkpt lat="43.69594" lon="3.97718">
        <ele>78.41100032</ele>
        <time>2020-06-06T14:08:46.000Z</time>
      </trkpt>
      <trkpt lat="43.69595" lon="3.97712">
        <ele>78.51100032</ele>
        <time>2020-06-06T14:08:47.000Z</time>
      </trkpt>
      <trkpt lat="43.69596" lon="3.97707">
        <ele>78.61100032</ele>
        <time>2020-06-06T14:08:48.000Z</time>
      </trkpt>
      <trkpt lat="43.69597" lon="3.97701">
        <ele>78.71100032</ele>
        <time>2020-06-06T14:08:49.000Z</time>
      </trkpt>
      <trkpt lat="43.69598" lon="3.97696">
        <ele>78.81100032</ele>
        <time>2020-06-06T14:08:50.000Z</time>
      </trkpt>
      <trkpt lat="43.69599" lon="3.9769">
        <ele>78.91100032</ele>
        <time>2020-06-06T14:08:51.000Z</time>
      </trkpt>
      <trkpt lat="43.696" lon="3.97684">
        <ele>79</ele>
        <time>2020-06-06T14:08:52.000Z</time>
      </trkpt>
      <trkpt lat="43.696" lon="3.97678">
        <ele>79</ele>
        <time>2020-06-06T14:08:53.000Z</time>
      </trkpt>
      <trkpt lat="43.69601" lon="3.97671">
        <ele>79</ele>
        <time>2020-06-06T14:08:54.000Z</time>
      </trkpt>
      <trkpt lat="43.69602" lon="3.97665">
        <ele>79</ele>
        <time>2020-06-06T14:08:55.000Z</time>
      </trkpt>
      <trkpt lat="43.69602" lon="3.97659">
        <ele>79</ele>
        <time>2020-06-06T14:08:56.000Z</time>
      </trkpt>
      <trkpt lat="43.69603" lon="3.97653">
        <ele>79</ele>
        <time>2020-06-06T14:08:57.000Z</time>
      </trkpt>
      <trkpt lat="43.69604" lon="3.97647">
        <ele>79</ele>
        <time>2020-06-06T14:08:58.000Z</time>
      </trkpt>
      <trkpt lat="43.69605" lon="3.97641">
        <ele>79</ele>
        <time>2020-06-06T14:08:59.000Z</time>
      </trkpt>
      <trkpt lat="43.69606" lon="3.97635">
        <ele>79</ele>
        <time>2020-06-06T14:09:00.000Z</time>
      </trkpt>
      <trkpt lat="43.69607" lon="3.9763">
        <ele>79</ele>
        <time>2020-06-06T14:09:01.000Z</time>
      </trkpt>
      <trkpt lat="43.69609" lon="3.97624">
        <ele>79</ele>
        <time>2020-06-06T14:09:02.000Z</time>
      </trkpt>
      <trkpt lat="43.6961" lon="3.97618">
        <ele>79</ele>
        <time>2020-06-06T14:09:03.000Z</time>
      </trkpt>
      <trkpt lat="43.69612" lon="3.97613">
        <ele>79</ele>
        <time>2020-06-06T14:09:04.000Z</time>
      </trkpt>
      <trkpt lat="43.69613" lon="3.97608">
        <ele>79</ele>
        <time>2020-06-06T14:09:05.000Z</time>
      </trkpt>
      <trkpt lat="43.69615" lon="3.97603">
        <ele>79</ele>
        <time>2020-06-06T14:09:06.000Z</time>
      </trkpt>
      <trkpt lat="43.69616" lon="3.97597">
        <ele>79</ele>
        <time>2020-06-06T14:09:07.000Z</time>
      </trkpt>
      <trkpt lat="43.69617" lon="3.97591">
        <ele>79</ele>
        <time>2020-06-06T14:09:08.000Z</time>
      </trkpt>
      <trkpt lat="43.69618" lon="3.97585">
        <ele>79</ele>
        <time>2020-06-06T14:09:09.000Z</time>
      </trkpt>
      <trkpt lat="43.6962" lon="3.9758">
        <ele>79</ele>
        <time>2020-06-06T14:09:10.000Z</time>
      </trkpt>
      <trkpt lat="43.69621" lon="3.97574">
        <ele>79</ele>
        <time>2020-06-06T14:09:11.000Z</time>
      </trkpt>
      <trkpt lat="43.69622" lon="3.97568">
        <ele>79</ele>
        <time>2020-06-06T14:09:12.000Z</time>
      </trkpt>
      <trkpt lat="43.69623" lon="3.97562">
        <ele>79</ele>
        <time>2020-06-06T14:09:13.000Z</time>
      </trkpt>
      <trkpt lat="43.69623" lon="3.97556">
        <ele>79</ele>
        <time>2020-06-06T14:09:14.000Z</time>
      </trkpt>
      <trkpt lat="43.69624" lon="3.9755">
        <ele>79</ele>
        <time>2020-06-06T14:09:15.000Z</time>
      </trkpt>
      <trkpt lat="43.69625" lon="3.97544">
        <ele>79</ele>
        <time>2020-06-06T14:09:16.000Z</time>
      </trkpt>
      <trkpt lat="43.69625" lon="3.97538">
        <ele>79</ele>
        <time>2020-06-06T14:09:17.000Z</time>
      </trkpt>
      <trkpt lat="43.69626" lon="3.97532">
        <ele>79</ele>
        <time>2020-06-06T14:09:18.000Z</time>
      </trkpt>
      <trkpt lat="43.69626" lon="3.97526">
        <ele>79</ele>
        <time>2020-06-06T14:09:19.000Z</time>
      </trkpt>
      <trkpt lat="43.69626" lon="3.9752">
        <ele>79</ele>
        <time>2020-06-06T14:09:20.000Z</time>
      </trkpt>
      <trkpt lat="43.69627" lon="3.97514">
        <ele>79</ele>
        <time>2020-06-06T14:09:21.000Z</time>
      </trkpt>
      <trkpt lat="43.69627" lon="3.97508">
        <ele>79</ele>
        <time>2020-06-06T14:09:22.000Z</time>
      </trkpt>
      <trkpt lat="43.69627" lon="3.97501">
        <ele>79</ele>
        <time>2020-06-06T14:09:23.000Z</time>
      </trkpt>
      <trkpt lat="43.69628" lon="3.97495">
        <ele>79</ele>
        <time>2020-06-06T14:09:24.000Z</time>
      </trkpt>
      <trkpt lat="43.69628" lon="3.97488">
        <ele>79</ele>
        <time>2020-06-06T14:09:25.000Z</time>
      </trkpt>
      <trkpt lat="43.69629" lon="3.97482">
        <ele>79</ele>
        <time>2020-06-06T14:09:26.000Z</time>
      </trkpt>
      <trkpt lat="43.69629" lon="3.97475">
        <ele>79</ele>
        <time>2020-06-06T14:09:27.000Z</time>
      </trkpt>
      <trkpt lat="43.6963" lon="3.97469">
        <ele>79</ele>
        <time>2020-06-06T14:09:28.000Z</time>
      </trkpt>
      <trkpt lat="43.6963" lon="3.97463">
        <ele>79</ele>
        <time>2020-06-06T14:09:29.000Z</time>
      </trkpt>
      <trkpt lat="43.6963" lon="3.97457">
        <ele>79</ele>
        <time>2020-06-06T14:09:30.000Z</time>
      </trkpt>
      <trkpt lat="43.6963" lon="3.97451">
        <ele>79</ele>
        <time>2020-06-06T14:09:31.000Z</time>
      </trkpt>
      <trkpt lat="43.6963" lon="3.97445">
        <ele>79</ele>
        <time>2020-06-06T14:09:32.000Z</time>
      </trkpt>
      <trkpt lat="43.6963" lon="3.97439">
        <ele>79.084264311639</ele>
        <time>2020-06-06T14:09:33.000Z</time>
      </trkpt>
      <trkpt lat="43.6963" lon="3.97433">
        <ele>79.185787187261</ele>
        <time>2020-06-06T14:09:34.000Z</time>
      </trkpt>
      <trkpt lat="43.6963" lon="3.97427">
        <ele>79.287310062882</ele>
        <time>2020-06-06T14:09:35.000Z</time>
      </trkpt>
      <trkpt lat="43.69629" lon="3.97421">
        <ele>79.388832938504</ele>
        <time>2020-06-06T14:09:36.000Z</time>
      </trkpt>
      <trkpt lat="43.69629" lon="3.97415">
        <ele>79.490355814126</ele>
        <time>2020-06-06T14:09:37.000Z</time>
      </trkpt>
      <trkpt lat="43.69629" lon="3.9741">
        <ele>79.591878689747</ele>
        <time>2020-06-06T14:09:38.000Z</time>
      </trkpt>
      <trkpt lat="43.69628" lon="3.97404">
        <ele>79.693401565369</ele>
        <time>2020-06-06T14:09:39.000Z</time>
      </trkpt>
      <trkpt lat="43.69628" lon="3.97399">
        <ele>79.794924440991</ele>
        <time>2020-06-06T14:09:40.000Z</time>
      </trkpt>
      <trkpt lat="43.69628" lon="3.97394">
        <ele>79.896447316612</ele>
        <time>2020-06-06T14:09:41.000Z</time>
      </trkpt>
      <trkpt lat="43.69627" lon="3.97391">
        <ele>79.997970192234</ele>
        <time>2020-06-06T14:09:42.000Z</time>
      </trkpt>
      <trkpt lat="43.69627" lon="3.97387">
        <ele>80</ele>
        <time>2020-06-06T14:09:44.000Z</time>
      </trkpt>
      <trkpt lat="43.69627" lon="3.97383">
        <ele>80</ele>
        <time>2020-06-06T14:09:46.000Z</time>
      </trkpt>
      <trkpt lat="43.69627" lon="3.97383">
        <ele>80</ele>
        <time>2020-06-06T14:09:51.000Z</time>
      </trkpt>
      <trkpt lat="43.69627" lon="3.9738">
        <ele>80</ele>
        <time>2020-06-06T14:10:36.000Z</time>
      </trkpt>
      <trkpt lat="43.69628" lon="3.9738">
        <ele>80</ele>
        <time>2020-06-06T14:10:40.000Z</time>
      </trkpt>
      <trkpt lat="43.69627" lon="3.97377">
        <ele>76.006591038414</ele>
        <time>2020-06-06T14:14:00.000Z</time>
      </trkpt>
      <trkpt lat="43.69627" lon="3.97375">
        <ele>76.069110594644</ele>
        <time>2020-06-06T14:14:01.000Z</time>
      </trkpt>
      <trkpt lat="43.69626" lon="3.97371">
        <ele>76.173822601442</ele>
        <time>2020-06-06T14:14:02.000Z</time>
      </trkpt>
      <trkpt lat="43.69626" lon="3.97368">
        <ele>76.27853460824</ele>
        <time>2020-06-06T14:14:03.000Z</time>
      </trkpt>
      <trkpt lat="43.69626" lon="3.97364">
        <ele>76.383246615038</ele>
        <time>2020-06-06T14:14:04.000Z</time>
      </trkpt>
      <trkpt lat="43.69625" lon="3.9736">
        <ele>76.487958621836</ele>
        <time>2020-06-06T14:14:05.000Z</time>
      </trkpt>
      <trkpt lat="43.69624" lon="3.97355">
        <ele>76.592670628634</ele>
        <time>2020-06-06T14:14:06.000Z</time>
      </trkpt>
      <trkpt lat="43.69624" lon="3.97351">
        <ele>76.697382635432</ele>
        <time>2020-06-06T14:14:07.000Z</time>
      </trkpt>
      <trkpt lat="43.69623" lon="3.97346">
        <ele>76.80209464223</ele>
        <time>2020-06-06T14:14:08.000Z</time>
      </trkpt>
      <trkpt lat="43.69623" lon="3.97341">
        <ele>76.906806649028</ele>
        <time>2020-06-06T14:14:09.000Z</time>
      </trkpt>
      <trkpt lat="43.69622" lon="3.97336">
        <ele>77.010700700389</ele>
        <time>2020-06-06T14:14:10.000Z</time>
      </trkpt>
      <trkpt lat="43.69621" lon="3.97331">
        <ele>77.107976964981</ele>
        <time>2020-06-06T14:14:11.000Z</time>
      </trkpt>
      <trkpt lat="43.6962" lon="3.97325">
        <ele>77.205253229572</ele>
        <time>2020-06-06T14:14:12.000Z</time>
      </trkpt>
      <trkpt lat="43.6962" lon="3.9732">
        <ele>77.302529494163</ele>
        <time>2020-06-06T14:14:13.000Z</time>
      </trkpt>
      <trkpt lat="43.69619" lon="3.97314">
        <ele>77.399805758755</ele>
        <time>2020-06-06T14:14:14.000Z</time>
      </trkpt>
      <trkpt lat="43.69618" lon="3.97309">
        <ele>77.497082023346</ele>
        <time>2020-06-06T14:14:15.000Z</time>
      </trkpt>
      <trkpt lat="43.69617" lon="3.97304">
        <ele>77.594358287938</ele>
        <time>2020-06-06T14:14:16.000Z</time>
      </trkpt>
      <trkpt lat="43.69616" lon="3.97299">
        <ele>77.691634552529</ele>
        <time>2020-06-06T14:14:17.000Z</time>
      </trkpt>
      <trkpt lat="43.69616" lon="3.97293">
        <ele>77.788910817121</ele>
        <time>2020-06-06T14:14:18.000Z</time>
      </trkpt>
      <trkpt lat="43.69615" lon="3.97288">
        <ele>77.886187081712</ele>
        <time>2020-06-06T14:14:19.000Z</time>
      </trkpt>
      <trkpt lat="43.69614" lon="3.97283">
        <ele>77.983463346303</ele>
        <time>2020-06-06T14:14:20.000Z</time>
      </trkpt>
      <trkpt lat="43.69613" lon="3.97278">
        <ele>78</ele>
        <time>2020-06-06T14:14:21.000Z</time>
      </trkpt>
      <trkpt lat="43.69612" lon="3.97273">
        <ele>78</ele>
        <time>2020-06-06T14:14:22.000Z</time>
      </trkpt>
      <trkpt lat="43.69612" lon="3.97269">
        <ele>78</ele>
        <time>2020-06-06T14:14:23.000Z</time>
      </trkpt>
      <trkpt lat="43.69611" lon="3.97265">
        <ele>78</ele>
        <time>2020-06-06T14:14:24.000Z</time>
      </trkpt>
      <trkpt lat="43.69611" lon="3.97261">
        <ele>78</ele>
        <time>2020-06-06T14:14:25.000Z</time>
      </trkpt>
      <trkpt lat="43.69611" lon="3.97255">
        <ele>78</ele>
        <time>2020-06-06T14:14:26.000Z</time>
      </trkpt>
      <trkpt lat="43.69611" lon="3.9725">
        <ele>78</ele>
        <time>2020-06-06T14:14:27.000Z</time>
      </trkpt>
      <trkpt lat="43.69611" lon="3.97245">
        <ele>78</ele>
        <time>2020-06-06T14:14:28.000Z</time>
      </trkpt>
      <trkpt lat="43.69612" lon="3.97239">
        <ele>78</ele>
        <time>2020-06-06T14:14:29.000Z</time>
      </trkpt>
      <trkpt lat="43.69614" lon="3.97234">
        <ele>78</ele>
        <time>2020-06-06T14:14:30.000Z</time>
      </trkpt>
      <trkpt lat="43.69615" lon="3.97229">
        <ele>78</ele>
        <time>2020-06-06T14:14:31.000Z</time>
      </trkpt>
      <trkpt lat="43.69617" lon="3.97224">
        <ele>78</ele>
        <time>2020-06-06T14:14:32.000Z</time>
      </trkpt>
      <trkpt lat="43.69619" lon="3.97218">
        <ele>78</ele>
        <time>2020-06-06T14:14:33.000Z</time>
      </trkpt>
      <trkpt lat="43.6962" lon="3.97212">
        <ele>78</ele>
        <time>2020-06-06T14:14:34.000Z</time>
      </trkpt>
      <trkpt lat="43.69621" lon="3.97207">
        <ele>78</ele>
        <time>2020-06-06T14:14:35.000Z</time>
      </trkpt>
      <trkpt lat="43.69622" lon="3.97201">
        <ele>78</ele>
        <time>2020-06-06T14:14:36.000Z</time>
      </trkpt>
      <trkpt lat="43.69623" lon="3.97195">
        <ele>78</ele>
        <time>2020-06-06T14:14:37.000Z</time>
      </trkpt>
      <trkpt lat="43.69624" lon="3.97189">
        <ele>78</ele>
        <time>2020-06-06T14:14:38.000Z</time>
      </trkpt>
      <trkpt lat="43.69624" lon="3.97184">
        <ele>78</ele>
        <time>2020-06-06T14:14:39.000Z</time>
      </trkpt>
      <trkpt lat="43.69625" lon="3.97179">
        <ele>78</ele>
        <time>2020-06-06T14:14:40.000Z</time>
      </trkpt>
      <trkpt lat="43.69625" lon="3.97173">
        <ele>78</ele>
        <time>2020-06-06T14:14:41.000Z</time>
      </trkpt>
      <trkpt lat="43.69625" lon="3.97168">
        <ele>78</ele>
        <time>2020-06-06T14:14:42.000Z</time>
      </trkpt>
      <trkpt lat="43.69624" lon="3.97162">
        <ele>78</ele>
        <time>2020-06-06T14:14:43.000Z</time>
      </trkpt>
      <trkpt lat="43.69624" lon="3.97156">
        <ele>78</ele>
        <time>2020-06-06T14:14:44.000Z</time>
      </trkpt>
      <trkpt lat="43.69623" lon="3.97151">
        <ele>78</ele>
        <time>2020-06-06T14:14:45.000Z</time>
      </trkpt>
      <trkpt lat="43.69623" lon="3.97145">
        <ele>78</ele>
        <time>2020-06-06T14:14:46.000Z</time>
      </trkpt>
      <trkpt lat="43.69623" lon="3.97139">
        <ele>78</ele>
        <time>2020-06-06T14:14:47.000Z</time>
      </trkpt>
      <trkpt lat="43.69623" lon="3.97133">
        <ele>78</ele>
        <time>2020-06-06T14:14:48.000Z</time>
      </trkpt>
      <trkpt lat="43.69622" lon="3.97127">
        <ele>78</ele>
        <time>2020-06-06T14:14:49.000Z</time>
      </trkpt>
      <trkpt lat="43.69622" lon="3.97121">
        <ele>78.01100032</ele>
        <time>2020-06-06T14:14:50.000Z</time>
      </trkpt>
      <trkpt lat="43.69622" lon="3.97115">
        <ele>78.11100032</ele>
        <time>2020-06-06T14:14:51.000Z</time>
      </trkpt>
      <trkpt lat="43.69621" lon="3.97109">
        <ele>78.21100032</ele>
        <time>2020-06-06T14:14:52.000Z</time>
      </trkpt>
      <trkpt lat="43.69621" lon="3.97103">
        <ele>78.31100032</ele>
        <time>2020-06-06T14:14:53.000Z</time>
      </trkpt>
      <trkpt lat="43.6962" lon="3.97097">
        <ele>78.41100032</ele>
        <time>2020-06-06T14:14:54.000Z</time>
      </trkpt>
      <trkpt lat="43.69619" lon="3.97092">
        <ele>78.51100032</ele>
        <time>2020-06-06T14:14:55.000Z</time>
      </trkpt>
      <trkpt lat="43.69618" lon="3.97087">
        <ele>78.61100032</ele>
        <time>2020-06-06T14:14:56.000Z</time>
      </trkpt>
      <trkpt lat="43.69617" lon="3.97082">
        <ele>78.71100032</ele>
        <time>2020-06-06T14:14:57.000Z</time>
      </trkpt>
      <trkpt lat="43.69617" lon="3.97078">
        <ele>78.81100032</ele>
        <time>2020-06-06T14:14:58.000Z</time>
      </trkpt>
      <trkpt lat="43.69616" lon="3.97074">
        <ele>78.91100032</ele>
        <time>2020-06-06T14:14:59.000Z</time>
      </trkpt>
      <trkpt lat="43.69614" lon="3.9707">
        <ele>79</ele>
        <time>2020-06-06T14:15:00.000Z</time>
      </trkpt>
      <trkpt lat="43.69612" lon="3.97065">
        <ele>79</ele>
        <time>2020-06-06T14:15:01.000Z</time>
      </trkpt>
      <trkpt lat="43.6961" lon="3.97061">
        <ele>79</ele>
        <time>2020-06-06T14:15:02.000Z</time>
      </trkpt>
      <trkpt lat="43.69608" lon="3.97056">
        <ele>79</ele>
        <time>2020-06-06T14:15:03.000Z</time>
      </trkpt>
      <trkpt lat="43.69607" lon="3.97052">
        <ele>79</ele>
        <time>2020-06-06T14:15:04.000Z</time>
      </trkpt>
      <trkpt lat="43.69605" lon="3.97048">
        <ele>79</ele>
        <time>2020-06-06T14:15:05.000Z</time>
      </trkpt>
      <trkpt lat="43.69604" lon="3.97045">
        <ele>79</ele>
        <time>2020-06-06T14:15:06.000Z</time>
      </trkpt>
      <trkpt lat="43.69604" lon="3.97042">
        <ele>79</ele>
        <time>2020-06-06T14:15:07.000Z</time>
      </trkpt>
      <trkpt lat="43.69603" lon="3.97038">
        <ele>79</ele>
        <time>2020-06-06T14:15:09.000Z</time>
      </trkpt>
      <trkpt lat="43.69602" lon="3.97035">
        <ele>78.88899968</ele>
        <time>2020-06-06T14:15:11.000Z</time>
      </trkpt>
      <trkpt lat="43.69599" lon="3.97033">
        <ele>78.58899968</ele>
        <time>2020-06-06T14:15:14.000Z</time>
      </trkpt>
      <trkpt lat="43.69597" lon="3.97031">
        <ele>78.48899968</ele>
        <time>2020-06-06T14:15:15.000Z</time>
      </trkpt>
      <trkpt lat="43.69593" lon="3.97028">
        <ele>78.38899968</ele>
        <time>2020-06-06T14:15:16.000Z</time>
      </trkpt>
      <trkpt lat="43.6959" lon="3.97025">
        <ele>78.28899968</ele>
        <time>2020-06-06T14:15:17.000Z</time>
      </trkpt>
      <trkpt lat="43.69587" lon="3.97022">
        <ele>78.18899968</ele>
        <time>2020-06-06T14:15:18.000Z</time>
      </trkpt>
      <trkpt lat="43.69585" lon="3.9702">
        <ele>78.08899968</ele>
        <time>2020-06-06T14:15:19.000Z</time>
      </trkpt>
      <trkpt lat="43.69585" lon="3.9702">
        <ele>78</ele>
        <time>2020-06-06T14:15:25.000Z</time>
      </trkpt>
      <trkpt lat="43.69583" lon="3.97025">
        <ele>77.001385041551</ele>
        <time>2020-06-06T14:15:54.000Z</time>
      </trkpt>
      <trkpt lat="43.69583" lon="3.97027">
        <ele>77</ele>
        <time>2020-06-06T14:15:55.000Z</time>
      </trkpt>
      <trkpt lat="43.69583" lon="3.97032">
        <ele>77</ele>
        <time>2020-06-06T14:15:57.000Z</time>
      </trkpt>
      <trkpt lat="43.69583" lon="3.97034">
        <ele>77</ele>
        <time>2020-06-06T14:15:58.000Z</time>
      </trkpt>
      <trkpt lat="43.69583" lon="3.97038">
        <ele>77</ele>
        <time>2020-06-06T14:15:59.000Z</time>
      </trkpt>
      <trkpt lat="43.69582" lon="3.97041">
        <ele>77</ele>
        <time>2020-06-06T14:16:00.000Z</time>
      </trkpt>
      <trkpt lat="43.69582" lon="3.97044">
        <ele>77</ele>
        <time>2020-06-06T14:16:01.000Z</time>
      </trkpt>
      <trkpt lat="43.69581" lon="3.97047">
        <ele>77</ele>
        <time>2020-06-06T14:16:02.000Z</time>
      </trkpt>
      <trkpt lat="43.69579" lon="3.9705">
        <ele>77</ele>
        <time>2020-06-06T14:16:03.000Z</time>
      </trkpt>
      <trkpt lat="43.69578" lon="3.97053">
        <ele>76.98950351145</ele>
        <time>2020-06-06T14:16:04.000Z</time>
      </trkpt>
      <trkpt lat="43.69577" lon="3.97056">
        <ele>76.894083664122</ele>
        <time>2020-06-06T14:16:05.000Z</time>
      </trkpt>
      <trkpt lat="43.69575" lon="3.9706">
        <ele>76.798663816794</ele>
        <time>2020-06-06T14:16:06.000Z</time>
      </trkpt>
      <trkpt lat="43.69574" lon="3.97065">
        <ele>76.703243969466</ele>
        <time>2020-06-06T14:16:07.000Z</time>
      </trkpt>
      <trkpt lat="43.69573" lon="3.97069">
        <ele>76.607824122137</ele>
        <time>2020-06-06T14:16:08.000Z</time>
      </trkpt>
      <trkpt lat="43.69571" lon="3.97073">
        <ele>76.512404274809</ele>
        <time>2020-06-06T14:16:09.000Z</time>
      </trkpt>
      <trkpt lat="43.6957" lon="3.97076">
        <ele>76.416984427481</ele>
        <time>2020-06-06T14:16:10.000Z</time>
      </trkpt>
      <trkpt lat="43.69568" lon="3.97078">
        <ele>76.321564580153</ele>
        <time>2020-06-06T14:16:11.000Z</time>
      </trkpt>
      <trkpt lat="43.69566" lon="3.97079">
        <ele>76.226144732824</ele>
        <time>2020-06-06T14:16:12.000Z</time>
      </trkpt>
      <trkpt lat="43.69564" lon="3.97079">
        <ele>76.130724885496</ele>
        <time>2020-06-06T14:16:13.000Z</time>
      </trkpt>
      <trkpt lat="43.69562" lon="3.97079">
        <ele>76.035305038168</ele>
        <time>2020-06-06T14:16:14.000Z</time>
      </trkpt>
      <trkpt lat="43.69561" lon="3.97076">
        <ele>75.871427918367</ele>
        <time>2020-06-06T14:16:15.000Z</time>
      </trkpt>
      <trkpt lat="43.6956" lon="3.97072">
        <ele>75.667346285714</ele>
        <time>2020-06-06T14:16:16.000Z</time>
      </trkpt>
      <trkpt lat="43.69559" lon="3.97068">
        <ele>75.463264653061</ele>
        <time>2020-06-06T14:16:17.000Z</time>
      </trkpt>
      <trkpt lat="43.6956" lon="3.97063">
        <ele>75.259183020408</ele>
        <time>2020-06-06T14:16:18.000Z</time>
      </trkpt>
      <trkpt lat="43.69561" lon="3.97058">
        <ele>75.055101387755</ele>
        <time>2020-06-06T14:16:19.000Z</time>
      </trkpt>
      <trkpt lat="43.69561" lon="3.97053">
        <ele>74.851019755102</ele>
        <time>2020-06-06T14:16:20.000Z</time>
      </trkpt>
      <trkpt lat="43.69561" lon="3.97048">
        <ele>74.646938122449</ele>
        <time>2020-06-06T14:16:21.000Z</time>
      </trkpt>
      <trkpt lat="43.69561" lon="3.97042">
        <ele>74.442856489796</ele>
        <time>2020-06-06T14:16:22.000Z</time>
      </trkpt>
      <trkpt lat="43.69561" lon="3.97037">
        <ele>74.238774857143</ele>
        <time>2020-06-06T14:16:23.000Z</time>
      </trkpt>
      <trkpt lat="43.69559" lon="3.97031">
        <ele>74.03469322449</ele>
        <time>2020-06-06T14:16:24.000Z</time>
      </trkpt>
      <trkpt lat="43.69559" lon="3.97026">
        <ele>74</ele>
        <time>2020-06-06T14:16:25.000Z</time>
      </trkpt>
      <trkpt lat="43.69559" lon="3.9702">
        <ele>74</ele>
        <time>2020-06-06T14:16:26.000Z</time>
      </trkpt>
      <trkpt lat="43.69558" lon="3.97014">
        <ele>74</ele>
        <time>2020-06-06T14:16:27.000Z</time>
      </trkpt>
      <trkpt lat="43.69559" lon="3.97008">
        <ele>74</ele>
        <time>2020-06-06T14:16:28.000Z</time>
      </trkpt>
      <trkpt lat="43.69559" lon="3.97002">
        <ele>74</ele>
        <time>2020-06-06T14:16:29.000Z</time>
      </trkpt>
      <trkpt lat="43.69559" lon="3.96997">
        <ele>74</ele>
        <time>2020-06-06T14:16:30.000Z</time>
      </trkpt>
      <trkpt lat="43.69559" lon="3.96991">
        <ele>74</ele>
        <time>2020-06-06T14:16:31.000Z</time>
      </trkpt>
      <trkpt lat="43.69558" lon="3.96985">
        <ele>74</ele>
        <time>2020-06-06T14:16:32.000Z</time>
      </trkpt>
      <trkpt lat="43.69558" lon="3.96979">
        <ele>74</ele>
        <time>2020-06-06T14:16:33.000Z</time>
      </trkpt>
      <trkpt lat="43.69557" lon="3.96973">
        <ele>74</ele>
        <time>2020-06-06T14:16:34.000Z</time>
      </trkpt>
      <trkpt lat="43.69557" lon="3.96967">
        <ele>74</ele>
        <time>2020-06-06T14:16:35.000Z</time>
      </trkpt>
      <trkpt lat="43.69557" lon="3.96961">
        <ele>74</ele>
        <time>2020-06-06T14:16:36.000Z</time>
      </trkpt>
      <trkpt lat="43.69558" lon="3.96955">
        <ele>74</ele>
        <time>2020-06-06T14:16:37.000Z</time>
      </trkpt>
      <trkpt lat="43.69558" lon="3.96949">
        <ele>74</ele>
        <time>2020-06-06T14:16:38.000Z</time>
      </trkpt>
      <trkpt lat="43.69558" lon="3.96943">
        <ele>74</ele>
        <time>2020-06-06T14:16:39.000Z</time>
      </trkpt>
      <trkpt lat="43.69558" lon="3.96937">
        <ele>74</ele>
        <time>2020-06-06T14:16:40.000Z</time>
      </trkpt>
      <trkpt lat="43.69558" lon="3.96931">
        <ele>74</ele>
        <time>2020-06-06T14:16:41.000Z</time>
      </trkpt>
      <trkpt lat="43.69557" lon="3.96926">
        <ele>74</ele>
        <time>2020-06-06T14:16:42.000Z</time>
      </trkpt>
      <trkpt lat="43.69556" lon="3.96921">
        <ele>74</ele>
        <time>2020-06-06T14:16:43.000Z</time>
      </trkpt>
      <trkpt lat="43.69555" lon="3.96917">
        <ele>73.98899968</ele>
        <time>2020-06-06T14:16:44.000Z</time>
      </trkpt>
      <trkpt lat="43.69553" lon="3.96913">
        <ele>73.88899968</ele>
        <time>2020-06-06T14:16:45.000Z</time>
      </trkpt>
      <trkpt lat="43.6955" lon="3.96908">
        <ele>73.78899968</ele>
        <time>2020-06-06T14:16:46.000Z</time>
      </trkpt>
      <trkpt lat="43.69548" lon="3.96903">
        <ele>73.68899968</ele>
        <time>2020-06-06T14:16:47.000Z</time>
      </trkpt>
      <trkpt lat="43.69546" lon="3.96897">
        <ele>73.58899968</ele>
        <time>2020-06-06T14:16:48.000Z</time>
      </trkpt>
      <trkpt lat="43.69544" lon="3.9689">
        <ele>73.48899968</ele>
        <time>2020-06-06T14:16:49.000Z</time>
      </trkpt>
      <trkpt lat="43.69543" lon="3.96883">
        <ele>73.38899968</ele>
        <time>2020-06-06T14:16:50.000Z</time>
      </trkpt>
      <trkpt lat="43.69542" lon="3.96877">
        <ele>73.28899968</ele>
        <time>2020-06-06T14:16:51.000Z</time>
      </trkpt>
      <trkpt lat="43.69541" lon="3.96871">
        <ele>73.18899968</ele>
        <time>2020-06-06T14:16:52.000Z</time>
      </trkpt>
      <trkpt lat="43.69539" lon="3.96865">
        <ele>73.08899968</ele>
        <time>2020-06-06T14:16:53.000Z</time>
      </trkpt>
      <trkpt lat="43.69538" lon="3.96859">
        <ele>73</ele>
        <time>2020-06-06T14:16:54.000Z</time>
      </trkpt>
      <trkpt lat="43.69536" lon="3.96853">
        <ele>73</ele>
        <time>2020-06-06T14:16:55.000Z</time>
      </trkpt>
      <trkpt lat="43.69535" lon="3.96846">
        <ele>73</ele>
        <time>2020-06-06T14:16:56.000Z</time>
      </trkpt>
      <trkpt lat="43.69533" lon="3.9684">
        <ele>73</ele>
        <time>2020-06-06T14:16:57.000Z</time>
      </trkpt>
      <trkpt lat="43.69532" lon="3.96834">
        <ele>73</ele>
        <time>2020-06-06T14:16:58.000Z</time>
      </trkpt>
      <trkpt lat="43.69529" lon="3.96828">
        <ele>73</ele>
        <time>2020-06-06T14:16:59.000Z</time>
      </trkpt>
      <trkpt lat="43.69526" lon="3.96823">
        <ele>73</ele>
        <time>2020-06-06T14:17:00.000Z</time>
      </trkpt>
      <trkpt lat="43.69524" lon="3.96817">
        <ele>73</ele>
        <time>2020-06-06T14:17:01.000Z</time>
      </trkpt>
      <trkpt lat="43.69524" lon="3.9681">
        <ele>73</ele>
        <time>2020-06-06T14:17:02.000Z</time>
      </trkpt>
      <trkpt lat="43.69523" lon="3.96804">
        <ele>73</ele>
        <time>2020-06-06T14:17:03.000Z</time>
      </trkpt>
      <trkpt lat="43.69523" lon="3.96798">
        <ele>73</ele>
        <time>2020-06-06T14:17:04.000Z</time>
      </trkpt>
      <trkpt lat="43.69522" lon="3.96792">
        <ele>73</ele>
        <time>2020-06-06T14:17:05.000Z</time>
      </trkpt>
      <trkpt lat="43.69521" lon="3.96787">
        <ele>73</ele>
        <time>2020-06-06T14:17:06.000Z</time>
      </trkpt>
      <trkpt lat="43.69519" lon="3.96784">
        <ele>73</ele>
        <time>2020-06-06T14:17:07.000Z</time>
      </trkpt>
      <trkpt lat="43.69515" lon="3.96781">
        <ele>73</ele>
        <time>2020-06-06T14:17:08.000Z</time>
      </trkpt>
      <trkpt lat="43.69512" lon="3.96777">
        <ele>73</ele>
        <time>2020-06-06T14:17:09.000Z</time>
      </trkpt>
      <trkpt lat="43.6951" lon="3.96772">
        <ele>73</ele>
        <time>2020-06-06T14:17:10.000Z</time>
      </trkpt>
      <trkpt lat="43.69509" lon="3.96766">
        <ele>73.139881904762</ele>
        <time>2020-06-06T14:17:11.000Z</time>
      </trkpt>
      <trkpt lat="43.69508" lon="3.9676">
        <ele>73.437500952381</ele>
        <time>2020-06-06T14:17:12.000Z</time>
      </trkpt>
      <trkpt lat="43.69507" lon="3.96755">
        <ele>73.73512</ele>
        <time>2020-06-06T14:17:13.000Z</time>
      </trkpt>
      <trkpt lat="43.69505" lon="3.96751">
        <ele>74</ele>
        <time>2020-06-06T14:17:14.000Z</time>
      </trkpt>
      <trkpt lat="43.69503" lon="3.96746">
        <ele>74</ele>
        <time>2020-06-06T14:17:15.000Z</time>
      </trkpt>
      <trkpt lat="43.69502" lon="3.96741">
        <ele>74</ele>
        <time>2020-06-06T14:17:16.000Z</time>
      </trkpt>
      <trkpt lat="43.69501" lon="3.96736">
        <ele>74</ele>
        <time>2020-06-06T14:17:17.000Z</time>
      </trkpt>
      <trkpt lat="43.695" lon="3.96731">
        <ele>74</ele>
        <time>2020-06-06T14:17:18.000Z</time>
      </trkpt>
      <trkpt lat="43.69499" lon="3.96725">
        <ele>74</ele>
        <time>2020-06-06T14:17:19.000Z</time>
      </trkpt>
      <trkpt lat="43.69498" lon="3.9672">
        <ele>74</ele>
        <time>2020-06-06T14:17:20.000Z</time>
      </trkpt>
      <trkpt lat="43.69496" lon="3.96714">
        <ele>74</ele>
        <time>2020-06-06T14:17:21.000Z</time>
      </trkpt>
      <trkpt lat="43.69495" lon="3.96709">
        <ele>74</ele>
        <time>2020-06-06T14:17:22.000Z</time>
      </trkpt>
      <trkpt lat="43.69493" lon="3.96703">
        <ele>74</ele>
        <time>2020-06-06T14:17:23.000Z</time>
      </trkpt>
      <trkpt lat="43.69492" lon="3.96698">
        <ele>74</ele>
        <time>2020-06-06T14:17:24.000Z</time>
      </trkpt>
      <trkpt lat="43.6949" lon="3.96693">
        <ele>74</ele>
        <time>2020-06-06T14:17:25.000Z</time>
      </trkpt>
      <trkpt lat="43.69487" lon="3.96689">
        <ele>74</ele>
        <time>2020-06-06T14:17:26.000Z</time>
      </trkpt>
      <trkpt lat="43.69484" lon="3.96685">
        <ele>74</ele>
        <time>2020-06-06T14:17:27.000Z</time>
      </trkpt>
      <trkpt lat="43.6948" lon="3.9668">
        <ele>74</ele>
        <time>2020-06-06T14:17:28.000Z</time>
      </trkpt>
      <trkpt lat="43.69477" lon="3.96674">
        <ele>74</ele>
        <time>2020-06-06T14:17:29.000Z</time>
      </trkpt>
      <trkpt lat="43.69474" lon="3.96669">
        <ele>74</ele>
        <time>2020-06-06T14:17:30.000Z</time>
      </trkpt>
      <trkpt lat="43.69471" lon="3.96663">
        <ele>74</ele>
        <time>2020-06-06T14:17:31.000Z</time>
      </trkpt>
      <trkpt lat="43.69469" lon="3.96657">
        <ele>74</ele>
        <time>2020-06-06T14:17:32.000Z</time>
      </trkpt>
      <trkpt lat="43.69468" lon="3.96651">
        <ele>74</ele>
        <time>2020-06-06T14:17:33.000Z</time>
      </trkpt>
      <trkpt lat="43.69468" lon="3.96646">
        <ele>74</ele>
        <time>2020-06-06T14:17:34.000Z</time>
      </trkpt>
      <trkpt lat="43.69467" lon="3.96642">
        <ele>73.82921744856</ele>
        <time>2020-06-06T14:17:35.000Z</time>
      </trkpt>
      <trkpt lat="43.69466" lon="3.96637">
        <ele>73.623456131687</ele>
        <time>2020-06-06T14:17:36.000Z</time>
      </trkpt>
      <trkpt lat="43.69466" lon="3.96631">
        <ele>73.417694814815</ele>
        <time>2020-06-06T14:17:37.000Z</time>
      </trkpt>
      <trkpt lat="43.69465" lon="3.96626">
        <ele>73.211933497942</ele>
        <time>2020-06-06T14:17:38.000Z</time>
      </trkpt>
      <trkpt lat="43.69464" lon="3.96621">
        <ele>73.00617218107</ele>
        <time>2020-06-06T14:17:39.000Z</time>
      </trkpt>
      <trkpt lat="43.69463" lon="3.96614">
        <ele>72.800410864198</ele>
        <time>2020-06-06T14:17:40.000Z</time>
      </trkpt>
      <trkpt lat="43.69462" lon="3.96607">
        <ele>72.594649547325</ele>
        <time>2020-06-06T14:17:41.000Z</time>
      </trkpt>
      <trkpt lat="43.69463" lon="3.966">
        <ele>72.388888230453</ele>
        <time>2020-06-06T14:17:42.000Z</time>
      </trkpt>
      <trkpt lat="43.69465" lon="3.96594">
        <ele>72.18312691358</ele>
        <time>2020-06-06T14:17:43.000Z</time>
      </trkpt>
      <trkpt lat="43.69467" lon="3.96589">
        <ele>72</ele>
        <time>2020-06-06T14:17:44.000Z</time>
      </trkpt>
      <trkpt lat="43.69469" lon="3.96583">
        <ele>72</ele>
        <time>2020-06-06T14:17:45.000Z</time>
      </trkpt>
      <trkpt lat="43.6947" lon="3.96578">
        <ele>72</ele>
        <time>2020-06-06T14:17:46.000Z</time>
      </trkpt>
      <trkpt lat="43.69472" lon="3.96572">
        <ele>72</ele>
        <time>2020-06-06T14:17:47.000Z</time>
      </trkpt>
      <trkpt lat="43.69474" lon="3.96567">
        <ele>72</ele>
        <time>2020-06-06T14:17:48.000Z</time>
      </trkpt>
      <trkpt lat="43.69476" lon="3.96562">
        <ele>72</ele>
        <time>2020-06-06T14:17:49.000Z</time>
      </trkpt>
      <trkpt lat="43.69478" lon="3.96557">
        <ele>72</ele>
        <time>2020-06-06T14:17:50.000Z</time>
      </trkpt>
      <trkpt lat="43.6948" lon="3.96552">
        <ele>72</ele>
        <time>2020-06-06T14:17:51.000Z</time>
      </trkpt>
      <trkpt lat="43.69483" lon="3.96548">
        <ele>72</ele>
        <time>2020-06-06T14:17:52.000Z</time>
      </trkpt>
      <trkpt lat="43.69485" lon="3.96544">
        <ele>72</ele>
        <time>2020-06-06T14:17:53.000Z</time>
      </trkpt>
      <trkpt lat="43.69487" lon="3.9654">
        <ele>72.01100032</ele>
        <time>2020-06-06T14:17:54.000Z</time>
      </trkpt>
      <trkpt lat="43.69489" lon="3.96535">
        <ele>72.11100032</ele>
        <time>2020-06-06T14:17:55.000Z</time>
      </trkpt>
      <trkpt lat="43.69491" lon="3.96531">
        <ele>72.21100032</ele>
        <time>2020-06-06T14:17:56.000Z</time>
      </trkpt>
      <trkpt lat="43.69493" lon="3.96527">
        <ele>72.31100032</ele>
        <time>2020-06-06T14:17:57.000Z</time>
      </trkpt>
      <trkpt lat="43.69496" lon="3.96523">
        <ele>72.41100032</ele>
        <time>2020-06-06T14:17:58.000Z</time>
      </trkpt>
      <trkpt lat="43.69498" lon="3.96519">
        <ele>72.51100032</ele>
        <time>2020-06-06T14:17:59.000Z</time>
      </trkpt>
      <trkpt lat="43.69501" lon="3.96515">
        <ele>72.61100032</ele>
        <time>2020-06-06T14:18:00.000Z</time>
      </trkpt>
      <trkpt lat="43.69503" lon="3.96512">
        <ele>72.71100032</ele>
        <time>2020-06-06T14:18:01.000Z</time>
      </trkpt>
      <trkpt lat="43.69506" lon="3.96509">
        <ele>72.81100032</ele>
        <time>2020-06-06T14:18:02.000Z</time>
      </trkpt>
      <trkpt lat="43.69508" lon="3.96506">
        <ele>72.91100032</ele>
        <time>2020-06-06T14:18:03.000Z</time>
      </trkpt>
      <trkpt lat="43.6951" lon="3.96502">
        <ele>73.01100032</ele>
        <time>2020-06-06T14:18:04.000Z</time>
      </trkpt>
      <trkpt lat="43.69511" lon="3.96498">
        <ele>73.11100032</ele>
        <time>2020-06-06T14:18:05.000Z</time>
      </trkpt>
      <trkpt lat="43.69513" lon="3.96494">
        <ele>73.21100032</ele>
        <time>2020-06-06T14:18:06.000Z</time>
      </trkpt>
      <trkpt lat="43.69515" lon="3.96491">
        <ele>73.31100032</ele>
        <time>2020-06-06T14:18:07.000Z</time>
      </trkpt>
      <trkpt lat="43.69517" lon="3.96488">
        <ele>73.41100032</ele>
        <time>2020-06-06T14:18:08.000Z</time>
      </trkpt>
      <trkpt lat="43.69519" lon="3.96485">
        <ele>73.51100032</ele>
        <time>2020-06-06T14:18:09.000Z</time>
      </trkpt>
      <trkpt lat="43.6952" lon="3.96482">
        <ele>73.61100032</ele>
        <time>2020-06-06T14:18:10.000Z</time>
      </trkpt>
      <trkpt lat="43.69522" lon="3.96478">
        <ele>73.71100032</ele>
        <time>2020-06-06T14:18:11.000Z</time>
      </trkpt>
      <trkpt lat="43.69523" lon="3.96473">
        <ele>73.81100032</ele>
        <time>2020-06-06T14:18:12.000Z</time>
      </trkpt>
      <trkpt lat="43.69524" lon="3.96468">
        <ele>73.91100032</ele>
        <time>2020-06-06T14:18:13.000Z</time>
      </trkpt>
      <trkpt lat="43.69524" lon="3.96463">
        <ele>74</ele>
        <time>2020-06-06T14:18:14.000Z</time>
      </trkpt>
      <trkpt lat="43.69525" lon="3.96458">
        <ele>74</ele>
        <time>2020-06-06T14:18:15.000Z</time>
      </trkpt>
      <trkpt lat="43.69525" lon="3.96452">
        <ele>74</ele>
        <time>2020-06-06T14:18:16.000Z</time>
      </trkpt>
      <trkpt lat="43.69525" lon="3.96446">
        <ele>74</ele>
        <time>2020-06-06T14:18:17.000Z</time>
      </trkpt>
      <trkpt lat="43.69525" lon="3.96439">
        <ele>74</ele>
        <time>2020-06-06T14:18:18.000Z</time>
      </trkpt>
      <trkpt lat="43.69526" lon="3.96433">
        <ele>74</ele>
        <time>2020-06-06T14:18:19.000Z</time>
      </trkpt>
      <trkpt lat="43.69527" lon="3.96426">
        <ele>74</ele>
        <time>2020-06-06T14:18:20.000Z</time>
      </trkpt>
      <trkpt lat="43.69528" lon="3.9642">
        <ele>74</ele>
        <time>2020-06-06T14:18:21.000Z</time>
      </trkpt>
      <trkpt lat="43.69528" lon="3.96413">
        <ele>74</ele>
        <time>2020-06-06T14:18:22.000Z</time>
      </trkpt>
      <trkpt lat="43.69529" lon="3.96407">
        <ele>74</ele>
        <time>2020-06-06T14:18:23.000Z</time>
      </trkpt>
      <trkpt lat="43.6953" lon="3.964">
        <ele>74</ele>
        <time>2020-06-06T14:18:24.000Z</time>
      </trkpt>
      <trkpt lat="43.69531" lon="3.96394">
        <ele>74</ele>
        <time>2020-06-06T14:18:25.000Z</time>
      </trkpt>
      <trkpt lat="43.69532" lon="3.96388">
        <ele>74</ele>
        <time>2020-06-06T14:18:26.000Z</time>
      </trkpt>
      <trkpt lat="43.69531" lon="3.96382">
        <ele>74</ele>
        <time>2020-06-06T14:18:27.000Z</time>
      </trkpt>
      <trkpt lat="43.69531" lon="3.96377">
        <ele>74</ele>
        <time>2020-06-06T14:18:28.000Z</time>
      </trkpt>
      <trkpt lat="43.6953" lon="3.96371">
        <ele>74</ele>
        <time>2020-06-06T14:18:29.000Z</time>
      </trkpt>
      <trkpt lat="43.69529" lon="3.96364">
        <ele>74</ele>
        <time>2020-06-06T14:18:30.000Z</time>
      </trkpt>
      <trkpt lat="43.69529" lon="3.96357">
        <ele>74</ele>
        <time>2020-06-06T14:18:31.000Z</time>
      </trkpt>
      <trkpt lat="43.6953" lon="3.9635">
        <ele>74</ele>
        <time>2020-06-06T14:18:32.000Z</time>
      </trkpt>
      <trkpt lat="43.69531" lon="3.96343">
        <ele>74</ele>
        <time>2020-06-06T14:18:33.000Z</time>
      </trkpt>
      <trkpt lat="43.69532" lon="3.96336">
        <ele>74</ele>
        <time>2020-06-06T14:18:34.000Z</time>
      </trkpt>
      <trkpt lat="43.69533" lon="3.9633">
        <ele>74</ele>
        <time>2020-06-06T14:18:35.000Z</time>
      </trkpt>
      <trkpt lat="43.69535" lon="3.96323">
        <ele>74</ele>
        <time>2020-06-06T14:18:36.000Z</time>
      </trkpt>
      <trkpt lat="43.69536" lon="3.96317">
        <ele>74</ele>
        <time>2020-06-06T14:18:37.000Z</time>
      </trkpt>
      <trkpt lat="43.69538" lon="3.96311">
        <ele>74</ele>
        <time>2020-06-06T14:18:38.000Z</time>
      </trkpt>
      <trkpt lat="43.69539" lon="3.96305">
        <ele>74</ele>
        <time>2020-06-06T14:18:39.000Z</time>
      </trkpt>
      <trkpt lat="43.6954" lon="3.96298">
        <ele>74</ele>
        <time>2020-06-06T14:18:40.000Z</time>
      </trkpt>
      <trkpt lat="43.69541" lon="3.96292">
        <ele>74</ele>
        <time>2020-06-06T14:18:41.000Z</time>
      </trkpt>
      <trkpt lat="43.69542" lon="3.96286">
        <ele>74</ele>
        <time>2020-06-06T14:18:42.000Z</time>
      </trkpt>
      <trkpt lat="43.69542" lon="3.9628">
        <ele>74</ele>
        <time>2020-06-06T14:18:43.000Z</time>
      </trkpt>
      <trkpt lat="43.69543" lon="3.96274">
        <ele>74</ele>
        <time>2020-06-06T14:18:44.000Z</time>
      </trkpt>
      <trkpt lat="43.69544" lon="3.96268">
        <ele>74</ele>
        <time>2020-06-06T14:18:45.000Z</time>
      </trkpt>
      <trkpt lat="43.69545" lon="3.96262">
        <ele>74</ele>
        <time>2020-06-06T14:18:46.000Z</time>
      </trkpt>
      <trkpt lat="43.69545" lon="3.96257">
        <ele>74</ele>
        <time>2020-06-06T14:18:47.000Z</time>
      </trkpt>
      <trkpt lat="43.69546" lon="3.96251">
        <ele>74</ele>
        <time>2020-06-06T14:18:48.000Z</time>
      </trkpt>
      <trkpt lat="43.69546" lon="3.96245">
        <ele>74</ele>
        <time>2020-06-06T14:18:49.000Z</time>
      </trkpt>
      <trkpt lat="43.69546" lon="3.96239">
        <ele>74</ele>
        <time>2020-06-06T14:18:50.000Z</time>
      </trkpt>
      <trkpt lat="43.69546" lon="3.96233">
        <ele>74</ele>
        <time>2020-06-06T14:18:51.000Z</time>
      </trkpt>
      <trkpt lat="43.69547" lon="3.96227">
        <ele>74</ele>
        <time>2020-06-06T14:18:52.000Z</time>
      </trkpt>
      <trkpt lat="43.69547" lon="3.96222">
        <ele>74</ele>
        <time>2020-06-06T14:18:53.000Z</time>
      </trkpt>
      <trkpt lat="43.69548" lon="3.96217">
        <ele>73.96699904</ele>
        <time>2020-06-06T14:18:54.000Z</time>
      </trkpt>
      <trkpt lat="43.69547" lon="3.96213">
        <ele>73.66699904</ele>
        <time>2020-06-06T14:18:55.000Z</time>
      </trkpt>
      <trkpt lat="43.69545" lon="3.96211">
        <ele>73.36699904</ele>
        <time>2020-06-06T14:18:56.000Z</time>
      </trkpt>
      <trkpt lat="43.69542" lon="3.9621">
        <ele>73.06699904</ele>
        <time>2020-06-06T14:18:57.000Z</time>
      </trkpt>
      <trkpt lat="43.69539" lon="3.9621">
        <ele>72.76699904</ele>
        <time>2020-06-06T14:18:58.000Z</time>
      </trkpt>
      <trkpt lat="43.69537" lon="3.9621">
        <ele>72.46699904</ele>
        <time>2020-06-06T14:18:59.000Z</time>
      </trkpt>
      <trkpt lat="43.69534" lon="3.96209">
        <ele>72.16699904</ele>
        <time>2020-06-06T14:19:00.000Z</time>
      </trkpt>
      <trkpt lat="43.69532" lon="3.96208">
        <ele>71.86699904</ele>
        <time>2020-06-06T14:19:01.000Z</time>
      </trkpt>
      <trkpt lat="43.6953" lon="3.96206">
        <ele>71.56699904</ele>
        <time>2020-06-06T14:19:02.000Z</time>
      </trkpt>
      <trkpt lat="43.69529" lon="3.96202">
        <ele>71.26699904</ele>
        <time>2020-06-06T14:19:03.000Z</time>
      </trkpt>
      <trkpt lat="43.69528" lon="3.96198">
        <ele>70.989065295227</ele>
        <time>2020-06-06T14:19:04.000Z</time>
      </trkpt>
      <trkpt lat="43.69528" lon="3.96193">
        <ele>70.889661779937</ele>
        <time>2020-06-06T14:19:05.000Z</time>
      </trkpt>
      <trkpt lat="43.69528" lon="3.96189">
        <ele>70.790258264647</ele>
        <time>2020-06-06T14:19:06.000Z</time>
      </trkpt>
      <trkpt lat="43.69526" lon="3.96187">
        <ele>70.690854749357</ele>
        <time>2020-06-06T14:19:07.000Z</time>
      </trkpt>
      <trkpt lat="43.69523" lon="3.96185">
        <ele>70.591451234067</ele>
        <time>2020-06-06T14:19:08.000Z</time>
      </trkpt>
      <trkpt lat="43.69519" lon="3.96185">
        <ele>70.492047718777</ele>
        <time>2020-06-06T14:19:09.000Z</time>
      </trkpt>
      <trkpt lat="43.69516" lon="3.96185">
        <ele>70.392644203487</ele>
        <time>2020-06-06T14:19:10.000Z</time>
      </trkpt>
      <trkpt lat="43.69514" lon="3.96184">
        <ele>70.293240688197</ele>
        <time>2020-06-06T14:19:11.000Z</time>
      </trkpt>
      <trkpt lat="43.69512" lon="3.9618">
        <ele>70.193837172907</ele>
        <time>2020-06-06T14:19:12.000Z</time>
      </trkpt>
      <trkpt lat="43.69511" lon="3.96175">
        <ele>70.094433657617</ele>
        <time>2020-06-06T14:19:13.000Z</time>
      </trkpt>
      <trkpt lat="43.69512" lon="3.9617">
        <ele>69.995107942142</ele>
        <time>2020-06-06T14:19:14.000Z</time>
      </trkpt>
      <trkpt lat="43.69514" lon="3.96164">
        <ele>69.897260522746</ele>
        <time>2020-06-06T14:19:15.000Z</time>
      </trkpt>
      <trkpt lat="43.69515" lon="3.96158">
        <ele>69.799413103351</ele>
        <time>2020-06-06T14:19:16.000Z</time>
      </trkpt>
      <trkpt lat="43.69517" lon="3.96152">
        <ele>69.701565683955</ele>
        <time>2020-06-06T14:19:17.000Z</time>
      </trkpt>
      <trkpt lat="43.69519" lon="3.96146">
        <ele>69.603718264559</ele>
        <time>2020-06-06T14:19:18.000Z</time>
      </trkpt>
      <trkpt lat="43.69521" lon="3.9614">
        <ele>69.505870845164</ele>
        <time>2020-06-06T14:19:19.000Z</time>
      </trkpt>
      <trkpt lat="43.69522" lon="3.96133">
        <ele>69.408023425768</ele>
        <time>2020-06-06T14:19:20.000Z</time>
      </trkpt>
      <trkpt lat="43.69525" lon="3.96128">
        <ele>69.310176006372</ele>
        <time>2020-06-06T14:19:21.000Z</time>
      </trkpt>
      <trkpt lat="43.69526" lon="3.96123">
        <ele>69.212328586977</ele>
        <time>2020-06-06T14:19:22.000Z</time>
      </trkpt>
      <trkpt lat="43.69526" lon="3.96117">
        <ele>69.114481167581</ele>
        <time>2020-06-06T14:19:23.000Z</time>
      </trkpt>
      <trkpt lat="43.69527" lon="3.96112">
        <ele>69.016633748185</ele>
        <time>2020-06-06T14:19:24.000Z</time>
      </trkpt>
      <trkpt lat="43.69529" lon="3.96108">
        <ele>68.82921744856</ele>
        <time>2020-06-06T14:19:25.000Z</time>
      </trkpt>
      <trkpt lat="43.69532" lon="3.96103">
        <ele>68.623456131687</ele>
        <time>2020-06-06T14:19:26.000Z</time>
      </trkpt>
      <trkpt lat="43.69534" lon="3.96097">
        <ele>68.417694814815</ele>
        <time>2020-06-06T14:19:27.000Z</time>
      </trkpt>
      <trkpt lat="43.69535" lon="3.96091">
        <ele>68.211933497942</ele>
        <time>2020-06-06T14:19:28.000Z</time>
      </trkpt>
      <trkpt lat="43.69535" lon="3.96085">
        <ele>68.00617218107</ele>
        <time>2020-06-06T14:19:29.000Z</time>
      </trkpt>
      <trkpt lat="43.69535" lon="3.96079">
        <ele>67.800410864198</ele>
        <time>2020-06-06T14:19:30.000Z</time>
      </trkpt>
      <trkpt lat="43.69536" lon="3.96072">
        <ele>67.594649547325</ele>
        <time>2020-06-06T14:19:31.000Z</time>
      </trkpt>
      <trkpt lat="43.69537" lon="3.96065">
        <ele>67.388888230453</ele>
        <time>2020-06-06T14:19:32.000Z</time>
      </trkpt>
      <trkpt lat="43.6954" lon="3.96059">
        <ele>67.18312691358</ele>
        <time>2020-06-06T14:19:33.000Z</time>
      </trkpt>
      <trkpt lat="43.69544" lon="3.96053">
        <ele>67</ele>
        <time>2020-06-06T14:19:34.000Z</time>
      </trkpt>
      <trkpt lat="43.69548" lon="3.96047">
        <ele>67</ele>
        <time>2020-06-06T14:19:35.000Z</time>
      </trkpt>
      <trkpt lat="43.69552" lon="3.96042">
        <ele>67</ele>
        <time>2020-06-06T14:19:36.000Z</time>
      </trkpt>
      <trkpt lat="43.69555" lon="3.96039">
        <ele>67</ele>
        <time>2020-06-06T14:19:37.000Z</time>
      </trkpt>
      <trkpt lat="43.69556" lon="3.96037">
        <ele>67</ele>
        <time>2020-06-06T14:19:38.000Z</time>
      </trkpt>
      <trkpt lat="43.69558" lon="3.96035">
        <ele>67</ele>
        <time>2020-06-06T14:19:39.000Z</time>
      </trkpt>
      <trkpt lat="43.6956" lon="3.96033">
        <ele>67</ele>
        <time>2020-06-06T14:19:40.000Z</time>
      </trkpt>
      <trkpt lat="43.6956" lon="3.9603">
        <ele>67</ele>
        <time>2020-06-06T14:19:41.000Z</time>
      </trkpt>
      <trkpt lat="43.6956" lon="3.96027">
        <ele>67</ele>
        <time>2020-06-06T14:19:42.000Z</time>
      </trkpt>
      <trkpt lat="43.69559" lon="3.96024">
        <ele>67</ele>
        <time>2020-06-06T14:19:43.000Z</time>
      </trkpt>
      <trkpt lat="43.69558" lon="3.9602">
        <ele>67</ele>
        <time>2020-06-06T14:19:44.000Z</time>
      </trkpt>
      <trkpt lat="43.69557" lon="3.96015">
        <ele>66.90070860362</ele>
        <time>2020-06-06T14:19:45.000Z</time>
      </trkpt>
      <trkpt lat="43.69557" lon="3.96009">
        <ele>66.799391513875</ele>
        <time>2020-06-06T14:19:46.000Z</time>
      </trkpt>
      <trkpt lat="43.69557" lon="3.96004">
        <ele>66.69807442413</ele>
        <time>2020-06-06T14:19:47.000Z</time>
      </trkpt>
      <trkpt lat="43.69558" lon="3.95998">
        <ele>66.596757334385</ele>
        <time>2020-06-06T14:19:48.000Z</time>
      </trkpt>
      <trkpt lat="43.69559" lon="3.95993">
        <ele>66.495440244639</ele>
        <time>2020-06-06T14:19:49.000Z</time>
      </trkpt>
      <trkpt lat="43.6956" lon="3.95988">
        <ele>66.394123154894</ele>
        <time>2020-06-06T14:19:50.000Z</time>
      </trkpt>
      <trkpt lat="43.69561" lon="3.95983">
        <ele>66.292806065149</ele>
        <time>2020-06-06T14:19:51.000Z</time>
      </trkpt>
      <trkpt lat="43.69561" lon="3.95978">
        <ele>66.191488975404</ele>
        <time>2020-06-06T14:19:52.000Z</time>
      </trkpt>
      <trkpt lat="43.69562" lon="3.95973">
        <ele>66.090171885659</ele>
        <time>2020-06-06T14:19:53.000Z</time>
      </trkpt>
      <trkpt lat="43.69563" lon="3.95968">
        <ele>65.98899968</ele>
        <time>2020-06-06T14:19:54.000Z</time>
      </trkpt>
      <trkpt lat="43.69564" lon="3.95963">
        <ele>65.88899968</ele>
        <time>2020-06-06T14:19:55.000Z</time>
      </trkpt>
      <trkpt lat="43.69565" lon="3.95957">
        <ele>65.78899968</ele>
        <time>2020-06-06T14:19:56.000Z</time>
      </trkpt>
      <trkpt lat="43.69566" lon="3.95952">
        <ele>65.68899968</ele>
        <time>2020-06-06T14:19:57.000Z</time>
      </trkpt>
      <trkpt lat="43.69568" lon="3.95947">
        <ele>65.58899968</ele>
        <time>2020-06-06T14:19:58.000Z</time>
      </trkpt>
      <trkpt lat="43.6957" lon="3.95943">
        <ele>65.48899968</ele>
        <time>2020-06-06T14:19:59.000Z</time>
      </trkpt>
      <trkpt lat="43.69572" lon="3.9594">
        <ele>65.38899968</ele>
        <time>2020-06-06T14:20:00.000Z</time>
      </trkpt>
      <trkpt lat="43.69575" lon="3.95937">
        <ele>65.28899968</ele>
        <time>2020-06-06T14:20:01.000Z</time>
      </trkpt>
      <trkpt lat="43.69577" lon="3.95934">
        <ele>65.18899968</ele>
        <time>2020-06-06T14:20:02.000Z</time>
      </trkpt>
      <trkpt lat="43.69579" lon="3.95931">
        <ele>65.08899968</ele>
        <time>2020-06-06T14:20:03.000Z</time>
      </trkpt>
      <trkpt lat="43.69581" lon="3.95928">
        <ele>65</ele>
        <time>2020-06-06T14:20:04.000Z</time>
      </trkpt>
      <trkpt lat="43.69582" lon="3.95925">
        <ele>65</ele>
        <time>2020-06-06T14:20:05.000Z</time>
      </trkpt>
      <trkpt lat="43.69584" lon="3.95922">
        <ele>65</ele>
        <time>2020-06-06T14:20:06.000Z</time>
      </trkpt>
      <trkpt lat="43.69586" lon="3.95918">
        <ele>65</ele>
        <time>2020-06-06T14:20:07.000Z</time>
      </trkpt>
      <trkpt lat="43.69587" lon="3.95914">
        <ele>65</ele>
        <time>2020-06-06T14:20:08.000Z</time>
      </trkpt>
      <trkpt lat="43.69589" lon="3.9591">
        <ele>65</ele>
        <time>2020-06-06T14:20:09.000Z</time>
      </trkpt>
      <trkpt lat="43.6959" lon="3.95905">
        <ele>65</ele>
        <time>2020-06-06T14:20:10.000Z</time>
      </trkpt>
      <trkpt lat="43.69592" lon="3.959">
        <ele>65</ele>
        <time>2020-06-06T14:20:11.000Z</time>
      </trkpt>
      <trkpt lat="43.69594" lon="3.95894">
        <ele>65</ele>
        <time>2020-06-06T14:20:12.000Z</time>
      </trkpt>
      <trkpt lat="43.69595" lon="3.95889">
        <ele>65</ele>
        <time>2020-06-06T14:20:13.000Z</time>
      </trkpt>
      <trkpt lat="43.69596" lon="3.95884">
        <ele>65</ele>
        <time>2020-06-06T14:20:14.000Z</time>
      </trkpt>
      <trkpt lat="43.69597" lon="3.95881">
        <ele>65</ele>
        <time>2020-06-06T14:20:15.000Z</time>
      </trkpt>
      <trkpt lat="43.69598" lon="3.95878">
        <ele>65</ele>
        <time>2020-06-06T14:20:16.000Z</time>
      </trkpt>
      <trkpt lat="43.69599" lon="3.95875">
        <ele>65</ele>
        <time>2020-06-06T14:20:17.000Z</time>
      </trkpt>
      <trkpt lat="43.696" lon="3.95872">
        <ele>65</ele>
        <time>2020-06-06T14:20:18.000Z</time>
      </trkpt>
      <trkpt lat="43.696" lon="3.95869">
        <ele>65</ele>
        <time>2020-06-06T14:20:19.000Z</time>
      </trkpt>
      <trkpt lat="43.69602" lon="3.95864">
        <ele>65</ele>
        <time>2020-06-06T14:20:21.000Z</time>
      </trkpt>
      <trkpt lat="43.69602" lon="3.95862">
        <ele>65</ele>
        <time>2020-06-06T14:20:22.000Z</time>
      </trkpt>
      <trkpt lat="43.69603" lon="3.95861">
        <ele>65</ele>
        <time>2020-06-06T14:20:27.000Z</time>
      </trkpt>
      <trkpt lat="43.69599" lon="3.95854">
        <ele>65.982161924755</ele>
        <time>2020-06-06T14:20:46.000Z</time>
      </trkpt>
      <trkpt lat="43.696" lon="3.95852">
        <ele>65.722222371302</ele>
        <time>2020-06-06T14:20:49.000Z</time>
      </trkpt>
      <trkpt lat="43.69601" lon="3.95848">
        <ele>65.407756751535</ele>
        <time>2020-06-06T14:20:52.000Z</time>
      </trkpt>
      <trkpt lat="43.69603" lon="3.95846">
        <ele>65.198113005023</ele>
        <time>2020-06-06T14:20:54.000Z</time>
      </trkpt>
      <trkpt lat="43.69605" lon="3.95843">
        <ele>64.989299299611</ele>
        <time>2020-06-06T14:20:56.000Z</time>
      </trkpt>
      <trkpt lat="43.69607" lon="3.95841">
        <ele>64.794746770428</ele>
        <time>2020-06-06T14:20:58.000Z</time>
      </trkpt>
      <trkpt lat="43.69609" lon="3.95837">
        <ele>64.600194241245</ele>
        <time>2020-06-06T14:21:00.000Z</time>
      </trkpt>
      <trkpt lat="43.6961" lon="3.95833">
        <ele>64.405641712062</ele>
        <time>2020-06-06T14:21:02.000Z</time>
      </trkpt>
      <trkpt lat="43.6961" lon="3.9583">
        <ele>64.308365447471</ele>
        <time>2020-06-06T14:21:03.000Z</time>
      </trkpt>
      <trkpt lat="43.6961" lon="3.95827">
        <ele>64.211089182879</ele>
        <time>2020-06-06T14:21:04.000Z</time>
      </trkpt>
      <trkpt lat="43.6961" lon="3.95824">
        <ele>64.113812918288</ele>
        <time>2020-06-06T14:21:05.000Z</time>
      </trkpt>
      <trkpt lat="43.6961" lon="3.95821">
        <ele>64.016536653697</ele>
        <time>2020-06-06T14:21:06.000Z</time>
      </trkpt>
      <trkpt lat="43.6961" lon="3.95817">
        <ele>64.08539127572</ele>
        <time>2020-06-06T14:21:07.000Z</time>
      </trkpt>
      <trkpt lat="43.6961" lon="3.95814">
        <ele>64.188271934156</ele>
        <time>2020-06-06T14:21:08.000Z</time>
      </trkpt>
      <trkpt lat="43.6961" lon="3.9581">
        <ele>64.291152592593</ele>
        <time>2020-06-06T14:21:09.000Z</time>
      </trkpt>
      <trkpt lat="43.6961" lon="3.95807">
        <ele>64.394033251029</ele>
        <time>2020-06-06T14:21:10.000Z</time>
      </trkpt>
      <trkpt lat="43.6961" lon="3.95803">
        <ele>64.496913909465</ele>
        <time>2020-06-06T14:21:11.000Z</time>
      </trkpt>
      <trkpt lat="43.6961" lon="3.958">
        <ele>64.599794567901</ele>
        <time>2020-06-06T14:21:12.000Z</time>
      </trkpt>
      <trkpt lat="43.69609" lon="3.95797">
        <ele>64.702675226337</ele>
        <time>2020-06-06T14:21:13.000Z</time>
      </trkpt>
      <trkpt lat="43.69608" lon="3.95794">
        <ele>64.805555884774</ele>
        <time>2020-06-06T14:21:14.000Z</time>
      </trkpt>
      <trkpt lat="43.69607" lon="3.95791">
        <ele>64.90843654321</ele>
        <time>2020-06-06T14:21:15.000Z</time>
      </trkpt>
      <trkpt lat="43.69606" lon="3.95788">
        <ele>64.989065295227</ele>
        <time>2020-06-06T14:21:16.000Z</time>
      </trkpt>
      <trkpt lat="43.69604" lon="3.95785">
        <ele>64.889661779937</ele>
        <time>2020-06-06T14:21:17.000Z</time>
      </trkpt>
      <trkpt lat="43.69603" lon="3.95782">
        <ele>64.790258264647</ele>
        <time>2020-06-06T14:21:18.000Z</time>
      </trkpt>
      <trkpt lat="43.69602" lon="3.95781">
        <ele>64.690854749357</ele>
        <time>2020-06-06T14:21:19.000Z</time>
      </trkpt>
      <trkpt lat="43.69599" lon="3.95781">
        <ele>64.492047718777</ele>
        <time>2020-06-06T14:21:21.000Z</time>
      </trkpt>
      <trkpt lat="43.69598" lon="3.95786">
        <ele>64.293240688197</ele>
        <time>2020-06-06T14:21:23.000Z</time>
      </trkpt>
      <trkpt lat="43.69596" lon="3.9579">
        <ele>64.193837172907</ele>
        <time>2020-06-06T14:21:24.000Z</time>
      </trkpt>
      <trkpt lat="43.69594" lon="3.95794">
        <ele>64.094433657617</ele>
        <time>2020-06-06T14:21:25.000Z</time>
      </trkpt>
      <trkpt lat="43.69591" lon="3.95797">
        <ele>64</ele>
        <time>2020-06-06T14:21:26.000Z</time>
      </trkpt>
      <trkpt lat="43.69587" lon="3.95799">
        <ele>64</ele>
        <time>2020-06-06T14:21:27.000Z</time>
      </trkpt>
      <trkpt lat="43.69583" lon="3.95801">
        <ele>64</ele>
        <time>2020-06-06T14:21:28.000Z</time>
      </trkpt>
      <trkpt lat="43.69578" lon="3.95803">
        <ele>64</ele>
        <time>2020-06-06T14:21:29.000Z</time>
      </trkpt>
      <trkpt lat="43.69574" lon="3.95805">
        <ele>64</ele>
        <time>2020-06-06T14:21:30.000Z</time>
      </trkpt>
      <trkpt lat="43.6957" lon="3.95807">
        <ele>64</ele>
        <time>2020-06-06T14:21:31.000Z</time>
      </trkpt>
      <trkpt lat="43.69565" lon="3.9581">
        <ele>64</ele>
        <time>2020-06-06T14:21:32.000Z</time>
      </trkpt>
      <trkpt lat="43.6956" lon="3.95812">
        <ele>64</ele>
        <time>2020-06-06T14:21:33.000Z</time>
      </trkpt>
      <trkpt lat="43.69556" lon="3.95815">
        <ele>64</ele>
        <time>2020-06-06T14:21:34.000Z</time>
      </trkpt>
      <trkpt lat="43.69551" lon="3.95817">
        <ele>64</ele>
        <time>2020-06-06T14:21:35.000Z</time>
      </trkpt>
      <trkpt lat="43.69547" lon="3.95819">
        <ele>64</ele>
        <time>2020-06-06T14:21:36.000Z</time>
      </trkpt>
      <trkpt lat="43.69545" lon="3.9582">
        <ele>64</ele>
        <time>2020-06-06T14:21:37.000Z</time>
      </trkpt>
      <trkpt lat="43.69542" lon="3.95821">
        <ele>64</ele>
        <time>2020-06-06T14:21:38.000Z</time>
      </trkpt>
      <trkpt lat="43.6954" lon="3.95822">
        <ele>64</ele>
        <time>2020-06-06T14:21:39.000Z</time>
      </trkpt>
      <trkpt lat="43.69539" lon="3.95823">
        <ele>64</ele>
        <time>2020-06-06T14:21:40.000Z</time>
      </trkpt>
      <trkpt lat="43.69537" lon="3.95825">
        <ele>64</ele>
        <time>2020-06-06T14:21:41.000Z</time>
      </trkpt>
      <trkpt lat="43.69535" lon="3.95826">
        <ele>64</ele>
        <time>2020-06-06T14:21:42.000Z</time>
      </trkpt>
      <trkpt lat="43.69533" lon="3.95827">
        <ele>64</ele>
        <time>2020-06-06T14:21:43.000Z</time>
      </trkpt>
      <trkpt lat="43.69531" lon="3.95829">
        <ele>64</ele>
        <time>2020-06-06T14:21:44.000Z</time>
      </trkpt>
      <trkpt lat="43.69529" lon="3.9583">
        <ele>64</ele>
        <time>2020-06-06T14:21:45.000Z</time>
      </trkpt>
      <trkpt lat="43.69527" lon="3.95832">
        <ele>64</ele>
        <time>2020-06-06T14:21:46.000Z</time>
      </trkpt>
      <trkpt lat="43.69525" lon="3.95832">
        <ele>64</ele>
        <time>2020-06-06T14:21:47.000Z</time>
      </trkpt>
      <trkpt lat="43.69524" lon="3.95833">
        <ele>64</ele>
        <time>2020-06-06T14:21:48.000Z</time>
      </trkpt>
      <trkpt lat="43.69521" lon="3.95834">
        <ele>64</ele>
        <time>2020-06-06T14:21:50.000Z</time>
      </trkpt>
      <trkpt lat="43.69518" lon="3.95835">
        <ele>64</ele>
        <time>2020-06-06T14:21:52.000Z</time>
      </trkpt>
      <trkpt lat="43.69514" lon="3.95835">
        <ele>64</ele>
        <time>2020-06-06T14:21:54.000Z</time>
      </trkpt>
      <trkpt lat="43.69511" lon="3.95836">
        <ele>64</ele>
        <time>2020-06-06T14:21:56.000Z</time>
      </trkpt>
      <trkpt lat="43.69507" lon="3.95836">
        <ele>63.798582672065</ele>
        <time>2020-06-06T14:21:58.000Z</time>
      </trkpt>
      <trkpt lat="43.69506" lon="3.95836">
        <ele>63.697368097166</ele>
        <time>2020-06-06T14:21:59.000Z</time>
      </trkpt>
      <trkpt lat="43.69504" lon="3.95836">
        <ele>63.596153522267</ele>
        <time>2020-06-06T14:22:00.000Z</time>
      </trkpt>
      <trkpt lat="43.69501" lon="3.95837">
        <ele>63.494938947368</ele>
        <time>2020-06-06T14:22:01.000Z</time>
      </trkpt>
      <trkpt lat="43.69498" lon="3.95837">
        <ele>63.39372437247</ele>
        <time>2020-06-06T14:22:02.000Z</time>
      </trkpt>
      <trkpt lat="43.69495" lon="3.95836">
        <ele>63.292509797571</ele>
        <time>2020-06-06T14:22:03.000Z</time>
      </trkpt>
      <trkpt lat="43.69492" lon="3.95836">
        <ele>63.191295222672</ele>
        <time>2020-06-06T14:22:04.000Z</time>
      </trkpt>
      <trkpt lat="43.69488" lon="3.95835">
        <ele>63.090080647773</ele>
        <time>2020-06-06T14:22:05.000Z</time>
      </trkpt>
      <trkpt lat="43.69484" lon="3.95834">
        <ele>63.01100032</ele>
        <time>2020-06-06T14:22:06.000Z</time>
      </trkpt>
      <trkpt lat="43.69481" lon="3.95833">
        <ele>63.11100032</ele>
        <time>2020-06-06T14:22:07.000Z</time>
      </trkpt>
      <trkpt lat="43.69477" lon="3.95832">
        <ele>63.21100032</ele>
        <time>2020-06-06T14:22:08.000Z</time>
      </trkpt>
      <trkpt lat="43.69474" lon="3.95831">
        <ele>63.31100032</ele>
        <time>2020-06-06T14:22:09.000Z</time>
      </trkpt>
      <trkpt lat="43.6947" lon="3.95829">
        <ele>63.41100032</ele>
        <time>2020-06-06T14:22:10.000Z</time>
      </trkpt>
      <trkpt lat="43.69466" lon="3.95828">
        <ele>63.51100032</ele>
        <time>2020-06-06T14:22:11.000Z</time>
      </trkpt>
      <trkpt lat="43.69463" lon="3.95827">
        <ele>63.61100032</ele>
        <time>2020-06-06T14:22:12.000Z</time>
      </trkpt>
      <trkpt lat="43.69459" lon="3.95825">
        <ele>63.71100032</ele>
        <time>2020-06-06T14:22:13.000Z</time>
      </trkpt>
      <trkpt lat="43.69456" lon="3.95824">
        <ele>63.81100032</ele>
        <time>2020-06-06T14:22:14.000Z</time>
      </trkpt>
      <trkpt lat="43.69454" lon="3.95823">
        <ele>63.91100032</ele>
        <time>2020-06-06T14:22:15.000Z</time>
      </trkpt>
      <trkpt lat="43.69451" lon="3.95821">
        <ele>64</ele>
        <time>2020-06-06T14:22:16.000Z</time>
      </trkpt>
      <trkpt lat="43.69448" lon="3.9582">
        <ele>64</ele>
        <time>2020-06-06T14:22:17.000Z</time>
      </trkpt>
      <trkpt lat="43.69444" lon="3.95819">
        <ele>64</ele>
        <time>2020-06-06T14:22:18.000Z</time>
      </trkpt>
      <trkpt lat="43.69441" lon="3.95817">
        <ele>64</ele>
        <time>2020-06-06T14:22:19.000Z</time>
      </trkpt>
      <trkpt lat="43.69437" lon="3.95816">
        <ele>64</ele>
        <time>2020-06-06T14:22:20.000Z</time>
      </trkpt>
      <trkpt lat="43.69434" lon="3.95815">
        <ele>64</ele>
        <time>2020-06-06T14:22:21.000Z</time>
      </trkpt>
      <trkpt lat="43.6943" lon="3.95814">
        <ele>64</ele>
        <time>2020-06-06T14:22:22.000Z</time>
      </trkpt>
      <trkpt lat="43.69427" lon="3.95813">
        <ele>64</ele>
        <time>2020-06-06T14:22:23.000Z</time>
      </trkpt>
      <trkpt lat="43.69423" lon="3.95812">
        <ele>64</ele>
        <time>2020-06-06T14:22:24.000Z</time>
      </trkpt>
      <trkpt lat="43.6942" lon="3.95811">
        <ele>64</ele>
        <time>2020-06-06T14:22:25.000Z</time>
      </trkpt>
      <trkpt lat="43.69418" lon="3.9581">
        <ele>64</ele>
        <time>2020-06-06T14:22:26.000Z</time>
      </trkpt>
      <trkpt lat="43.69415" lon="3.95809">
        <ele>64</ele>
        <time>2020-06-06T14:22:27.000Z</time>
      </trkpt>
      <trkpt lat="43.69413" lon="3.95808">
        <ele>64</ele>
        <time>2020-06-06T14:22:28.000Z</time>
      </trkpt>
      <trkpt lat="43.6941" lon="3.95807">
        <ele>64</ele>
        <time>2020-06-06T14:22:29.000Z</time>
      </trkpt>
      <trkpt lat="43.69408" lon="3.95806">
        <ele>64</ele>
        <time>2020-06-06T14:22:30.000Z</time>
      </trkpt>
      <trkpt lat="43.69405" lon="3.95805">
        <ele>64</ele>
        <time>2020-06-06T14:22:31.000Z</time>
      </trkpt>
      <trkpt lat="43.69402" lon="3.95804">
        <ele>64</ele>
        <time>2020-06-06T14:22:32.000Z</time>
      </trkpt>
      <trkpt lat="43.694" lon="3.95802">
        <ele>64</ele>
        <time>2020-06-06T14:22:33.000Z</time>
      </trkpt>
      <trkpt lat="43.69397" lon="3.958">
        <ele>64</ele>
        <time>2020-06-06T14:22:34.000Z</time>
      </trkpt>
      <trkpt lat="43.69394" lon="3.95798">
        <ele>64</ele>
        <time>2020-06-06T14:22:35.000Z</time>
      </trkpt>
      <trkpt lat="43.69391" lon="3.95796">
        <ele>64</ele>
        <time>2020-06-06T14:22:36.000Z</time>
      </trkpt>
      <trkpt lat="43.69388" lon="3.95795">
        <ele>64</ele>
        <time>2020-06-06T14:22:37.000Z</time>
      </trkpt>
      <trkpt lat="43.69386" lon="3.95794">
        <ele>64</ele>
        <time>2020-06-06T14:22:38.000Z</time>
      </trkpt>
      <trkpt lat="43.69383" lon="3.95793">
        <ele>64</ele>
        <time>2020-06-06T14:22:39.000Z</time>
      </trkpt>
      <trkpt lat="43.69381" lon="3.95792">
        <ele>64</ele>
        <time>2020-06-06T14:22:40.000Z</time>
      </trkpt>
      <trkpt lat="43.69379" lon="3.95791">
        <ele>64</ele>
        <time>2020-06-06T14:22:41.000Z</time>
      </trkpt>
      <trkpt lat="43.69377" lon="3.95791">
        <ele>64</ele>
        <time>2020-06-06T14:22:42.000Z</time>
      </trkpt>
      <trkpt lat="43.69376" lon="3.9579">
        <ele>64</ele>
        <time>2020-06-06T14:22:43.000Z</time>
      </trkpt>
      <trkpt lat="43.69374" lon="3.95789">
        <ele>64</ele>
        <time>2020-06-06T14:22:44.000Z</time>
      </trkpt>
      <trkpt lat="43.69372" lon="3.95788">
        <ele>64</ele>
        <time>2020-06-06T14:22:45.000Z</time>
      </trkpt>
      <trkpt lat="43.6937" lon="3.95787">
        <ele>64</ele>
        <time>2020-06-06T14:22:46.000Z</time>
      </trkpt>
      <trkpt lat="43.69368" lon="3.95786">
        <ele>64</ele>
        <time>2020-06-06T14:22:47.000Z</time>
      </trkpt>
      <trkpt lat="43.69366" lon="3.95786">
        <ele>64</ele>
        <time>2020-06-06T14:22:48.000Z</time>
      </trkpt>
      <trkpt lat="43.69364" lon="3.95785">
        <ele>64</ele>
        <time>2020-06-06T14:22:49.000Z</time>
      </trkpt>
      <trkpt lat="43.69361" lon="3.95784">
        <ele>64</ele>
        <time>2020-06-06T14:22:50.000Z</time>
      </trkpt>
      <trkpt lat="43.69359" lon="3.95783">
        <ele>64</ele>
        <time>2020-06-06T14:22:51.000Z</time>
      </trkpt>
      <trkpt lat="43.69356" lon="3.95782">
        <ele>64</ele>
        <time>2020-06-06T14:22:52.000Z</time>
      </trkpt>
      <trkpt lat="43.69353" lon="3.95782">
        <ele>64</ele>
        <time>2020-06-06T14:22:53.000Z</time>
      </trkpt>
      <trkpt lat="43.69351" lon="3.95781">
        <ele>64</ele>
        <time>2020-06-06T14:22:54.000Z</time>
      </trkpt>
      <trkpt lat="43.69348" lon="3.9578">
        <ele>64</ele>
        <time>2020-06-06T14:22:55.000Z</time>
      </trkpt>
      <trkpt lat="43.69345" lon="3.95778">
        <ele>64</ele>
        <time>2020-06-06T14:22:56.000Z</time>
      </trkpt>
      <trkpt lat="43.69343" lon="3.95778">
        <ele>64</ele>
        <time>2020-06-06T14:22:57.000Z</time>
      </trkpt>
      <trkpt lat="43.69341" lon="3.95777">
        <ele>64</ele>
        <time>2020-06-06T14:22:58.000Z</time>
      </trkpt>
      <trkpt lat="43.69338" lon="3.95777">
        <ele>64</ele>
        <time>2020-06-06T14:22:59.000Z</time>
      </trkpt>
      <trkpt lat="43.69336" lon="3.95776">
        <ele>64</ele>
        <time>2020-06-06T14:23:00.000Z</time>
      </trkpt>
      <trkpt lat="43.69334" lon="3.95775">
        <ele>64</ele>
        <time>2020-06-06T14:23:01.000Z</time>
      </trkpt>
      <trkpt lat="43.69331" lon="3.95775">
        <ele>64</ele>
        <time>2020-06-06T14:23:02.000Z</time>
      </trkpt>
      <trkpt lat="43.69329" lon="3.95774">
        <ele>64</ele>
        <time>2020-06-06T14:23:03.000Z</time>
      </trkpt>
      <trkpt lat="43.69327" lon="3.95773">
        <ele>64</ele>
        <time>2020-06-06T14:23:04.000Z</time>
      </trkpt>
      <trkpt lat="43.69325" lon="3.95773">
        <ele>64</ele>
        <time>2020-06-06T14:23:05.000Z</time>
      </trkpt>
      <trkpt lat="43.69322" lon="3.95772">
        <ele>64.01100032</ele>
        <time>2020-06-06T14:23:06.000Z</time>
      </trkpt>
      <trkpt lat="43.6932" lon="3.95772">
        <ele>64.11100032</ele>
        <time>2020-06-06T14:23:07.000Z</time>
      </trkpt>
      <trkpt lat="43.69318" lon="3.95771">
        <ele>64.21100032</ele>
        <time>2020-06-06T14:23:08.000Z</time>
      </trkpt>
      <trkpt lat="43.69315" lon="3.9577">
        <ele>64.31100032</ele>
        <time>2020-06-06T14:23:09.000Z</time>
      </trkpt>
      <trkpt lat="43.69313" lon="3.9577">
        <ele>64.41100032</ele>
        <time>2020-06-06T14:23:10.000Z</time>
      </trkpt>
      <trkpt lat="43.69311" lon="3.9577">
        <ele>64.51100032</ele>
        <time>2020-06-06T14:23:11.000Z</time>
      </trkpt>
      <trkpt lat="43.69309" lon="3.95769">
        <ele>64.61100032</ele>
        <time>2020-06-06T14:23:12.000Z</time>
      </trkpt>
      <trkpt lat="43.69306" lon="3.95767">
        <ele>64.81100032</ele>
        <time>2020-06-06T14:23:14.000Z</time>
      </trkpt>
      <trkpt lat="43.69304" lon="3.95766">
        <ele>65</ele>
        <time>2020-06-06T14:23:16.000Z</time>
      </trkpt>
      <trkpt lat="43.69302" lon="3.95767">
        <ele>65</ele>
        <time>2020-06-06T14:23:18.000Z</time>
      </trkpt>
      <trkpt lat="43.69299" lon="3.95767">
        <ele>65</ele>
        <time>2020-06-06T14:23:20.000Z</time>
      </trkpt>
      <trkpt lat="43.69297" lon="3.95766">
        <ele>65</ele>
        <time>2020-06-06T14:23:22.000Z</time>
      </trkpt>
      <trkpt lat="43.69297" lon="3.95765">
        <ele>65</ele>
        <time>2020-06-06T14:23:27.000Z</time>
      </trkpt>
      <trkpt lat="43.69294" lon="3.9577">
        <ele>65</ele>
        <time>2020-06-06T14:25:48.000Z</time>
      </trkpt>
      <trkpt lat="43.69295" lon="3.95773">
        <ele>65</ele>
        <time>2020-06-06T14:25:50.000Z</time>
      </trkpt>
      <trkpt lat="43.69297" lon="3.95774">
        <ele>65</ele>
        <time>2020-06-06T14:25:52.000Z</time>
      </trkpt>
      <trkpt lat="43.693" lon="3.95774">
        <ele>65</ele>
        <time>2020-06-06T14:25:54.000Z</time>
      </trkpt>
      <trkpt lat="43.69303" lon="3.95773">
        <ele>65</ele>
        <time>2020-06-06T14:25:56.000Z</time>
      </trkpt>
      <trkpt lat="43.69306" lon="3.95771">
        <ele>65</ele>
        <time>2020-06-06T14:25:57.000Z</time>
      </trkpt>
      <trkpt lat="43.69308" lon="3.95769">
        <ele>64.989422769231</ele>
        <time>2020-06-06T14:25:58.000Z</time>
      </trkpt>
      <trkpt lat="43.69311" lon="3.95767">
        <ele>64.893268923077</ele>
        <time>2020-06-06T14:25:59.000Z</time>
      </trkpt>
      <trkpt lat="43.69313" lon="3.95764">
        <ele>64.797115076923</ele>
        <time>2020-06-06T14:26:00.000Z</time>
      </trkpt>
      <trkpt lat="43.69314" lon="3.95762">
        <ele>64.700961230769</ele>
        <time>2020-06-06T14:26:01.000Z</time>
      </trkpt>
      <trkpt lat="43.69315" lon="3.95759">
        <ele>64.604807384615</ele>
        <time>2020-06-06T14:26:02.000Z</time>
      </trkpt>
      <trkpt lat="43.69316" lon="3.95756">
        <ele>64.508653538462</ele>
        <time>2020-06-06T14:26:03.000Z</time>
      </trkpt>
      <trkpt lat="43.69317" lon="3.95753">
        <ele>64.412499692308</ele>
        <time>2020-06-06T14:26:04.000Z</time>
      </trkpt>
      <trkpt lat="43.69317" lon="3.9575">
        <ele>64.316345846154</ele>
        <time>2020-06-06T14:26:05.000Z</time>
      </trkpt>
      <trkpt lat="43.69317" lon="3.95746">
        <ele>64.220192</ele>
        <time>2020-06-06T14:26:06.000Z</time>
      </trkpt>
      <trkpt lat="43.69318" lon="3.95743">
        <ele>64.124038153846</ele>
        <time>2020-06-06T14:26:07.000Z</time>
      </trkpt>
      <trkpt lat="43.69318" lon="3.95739">
        <ele>64.027884307692</ele>
        <time>2020-06-06T14:26:08.000Z</time>
      </trkpt>
      <trkpt lat="43.69319" lon="3.95735">
        <ele>64</ele>
        <time>2020-06-06T14:26:09.000Z</time>
      </trkpt>
      <trkpt lat="43.69319" lon="3.95732">
        <ele>64</ele>
        <time>2020-06-06T14:26:10.000Z</time>
      </trkpt>
      <trkpt lat="43.6932" lon="3.95728">
        <ele>64</ele>
        <time>2020-06-06T14:26:11.000Z</time>
      </trkpt>
      <trkpt lat="43.69321" lon="3.95725">
        <ele>64</ele>
        <time>2020-06-06T14:26:12.000Z</time>
      </trkpt>
      <trkpt lat="43.69321" lon="3.95721">
        <ele>64</ele>
        <time>2020-06-06T14:26:13.000Z</time>
      </trkpt>
      <trkpt lat="43.69322" lon="3.95717">
        <ele>64</ele>
        <time>2020-06-06T14:26:14.000Z</time>
      </trkpt>
      <trkpt lat="43.69322" lon="3.95714">
        <ele>64</ele>
        <time>2020-06-06T14:26:15.000Z</time>
      </trkpt>
      <trkpt lat="43.69322" lon="3.9571">
        <ele>64</ele>
        <time>2020-06-06T14:26:16.000Z</time>
      </trkpt>
      <trkpt lat="43.69322" lon="3.95707">
        <ele>64</ele>
        <time>2020-06-06T14:26:17.000Z</time>
      </trkpt>
      <trkpt lat="43.69322" lon="3.95703">
        <ele>64</ele>
        <time>2020-06-06T14:26:18.000Z</time>
      </trkpt>
      <trkpt lat="43.69322" lon="3.95699">
        <ele>64</ele>
        <time>2020-06-06T14:26:19.000Z</time>
      </trkpt>
      <trkpt lat="43.69322" lon="3.95696">
        <ele>64</ele>
        <time>2020-06-06T14:26:20.000Z</time>
      </trkpt>
      <trkpt lat="43.69322" lon="3.95692">
        <ele>64</ele>
        <time>2020-06-06T14:26:21.000Z</time>
      </trkpt>
      <trkpt lat="43.69323" lon="3.95689">
        <ele>64</ele>
        <time>2020-06-06T14:26:22.000Z</time>
      </trkpt>
      <trkpt lat="43.69324" lon="3.95686">
        <ele>64</ele>
        <time>2020-06-06T14:26:23.000Z</time>
      </trkpt>
      <trkpt lat="43.69325" lon="3.95683">
        <ele>64</ele>
        <time>2020-06-06T14:26:24.000Z</time>
      </trkpt>
      <trkpt lat="43.69326" lon="3.9568">
        <ele>64</ele>
        <time>2020-06-06T14:26:25.000Z</time>
      </trkpt>
      <trkpt lat="43.69327" lon="3.95677">
        <ele>64</ele>
        <time>2020-06-06T14:26:26.000Z</time>
      </trkpt>
      <trkpt lat="43.69327" lon="3.95673">
        <ele>64</ele>
        <time>2020-06-06T14:26:27.000Z</time>
      </trkpt>
      <trkpt lat="43.69327" lon="3.95669">
        <ele>64.010059724787</ele>
        <time>2020-06-06T14:26:28.000Z</time>
      </trkpt>
      <trkpt lat="43.69327" lon="3.95666">
        <ele>64.211267097798</ele>
        <time>2020-06-06T14:26:29.000Z</time>
      </trkpt>
      <trkpt lat="43.69326" lon="3.95663">
        <ele>64.412474470809</ele>
        <time>2020-06-06T14:26:30.000Z</time>
      </trkpt>
      <trkpt lat="43.69325" lon="3.9566">
        <ele>64.613681843819</ele>
        <time>2020-06-06T14:26:31.000Z</time>
      </trkpt>
      <trkpt lat="43.69323" lon="3.95658">
        <ele>64.81488921683</ele>
        <time>2020-06-06T14:26:32.000Z</time>
      </trkpt>
      <trkpt lat="43.69322" lon="3.95655">
        <ele>65.016096589841</ele>
        <time>2020-06-06T14:26:33.000Z</time>
      </trkpt>
      <trkpt lat="43.69321" lon="3.95652">
        <ele>65.217303962852</ele>
        <time>2020-06-06T14:26:34.000Z</time>
      </trkpt>
      <trkpt lat="43.69321" lon="3.95649">
        <ele>65.418511335862</ele>
        <time>2020-06-06T14:26:35.000Z</time>
      </trkpt>
      <trkpt lat="43.69321" lon="3.95645">
        <ele>65.619718708873</ele>
        <time>2020-06-06T14:26:36.000Z</time>
      </trkpt>
      <trkpt lat="43.6932" lon="3.95642">
        <ele>65.820926081884</ele>
        <time>2020-06-06T14:26:37.000Z</time>
      </trkpt>
      <trkpt lat="43.69319" lon="3.95639">
        <ele>66.010967414248</ele>
        <time>2020-06-06T14:26:38.000Z</time>
      </trkpt>
      <trkpt lat="43.69318" lon="3.95635">
        <ele>66.110668279747</ele>
        <time>2020-06-06T14:26:39.000Z</time>
      </trkpt>
      <trkpt lat="43.69317" lon="3.95632">
        <ele>66.210369145246</ele>
        <time>2020-06-06T14:26:40.000Z</time>
      </trkpt>
      <trkpt lat="43.69316" lon="3.95629">
        <ele>66.310070010745</ele>
        <time>2020-06-06T14:26:41.000Z</time>
      </trkpt>
      <trkpt lat="43.69315" lon="3.95627">
        <ele>66.409770876245</ele>
        <time>2020-06-06T14:26:42.000Z</time>
      </trkpt>
      <trkpt lat="43.69314" lon="3.95624">
        <ele>66.509471741744</ele>
        <time>2020-06-06T14:26:43.000Z</time>
      </trkpt>
      <trkpt lat="43.69314" lon="3.95622">
        <ele>66.609172607243</ele>
        <time>2020-06-06T14:26:44.000Z</time>
      </trkpt>
      <trkpt lat="43.69317" lon="3.9562">
        <ele>66.808574338241</ele>
        <time>2020-06-06T14:26:46.000Z</time>
      </trkpt>
      <trkpt lat="43.69318" lon="3.95619">
        <ele>67</ele>
        <time>2020-06-06T14:26:48.000Z</time>
      </trkpt>
      <trkpt lat="43.69318" lon="3.95619">
        <ele>67</ele>
        <time>2020-06-06T14:26:53.000Z</time>
      </trkpt>
      <trkpt lat="43.69315" lon="3.95609">
        <ele>67.99064999792</ele>
        <time>2020-06-06T14:28:00.000Z</time>
      </trkpt>
      <trkpt lat="43.69313" lon="3.95606">
        <ele>68.118757334076</ele>
        <time>2020-06-06T14:28:02.000Z</time>
      </trkpt>
      <trkpt lat="43.69309" lon="3.95604">
        <ele>68.340732995599</ele>
        <time>2020-06-06T14:28:04.000Z</time>
      </trkpt>
      <trkpt lat="43.69308" lon="3.95603">
        <ele>68.45172082636</ele>
        <time>2020-06-06T14:28:05.000Z</time>
      </trkpt>
      <trkpt lat="43.69306" lon="3.95601">
        <ele>68.562708657122</ele>
        <time>2020-06-06T14:28:06.000Z</time>
      </trkpt>
      <trkpt lat="43.69304" lon="3.95599">
        <ele>68.673696487883</ele>
        <time>2020-06-06T14:28:07.000Z</time>
      </trkpt>
      <trkpt lat="43.69303" lon="3.95597">
        <ele>68.784684318645</ele>
        <time>2020-06-06T14:28:08.000Z</time>
      </trkpt>
      <trkpt lat="43.69301" lon="3.95594">
        <ele>68.895672149406</ele>
        <time>2020-06-06T14:28:09.000Z</time>
      </trkpt>
      <trkpt lat="43.693" lon="3.95592">
        <ele>69.005865726415</ele>
        <time>2020-06-06T14:28:10.000Z</time>
      </trkpt>
      <trkpt lat="43.69299" lon="3.95589">
        <ele>69.103617406493</ele>
        <time>2020-06-06T14:28:11.000Z</time>
      </trkpt>
      <trkpt lat="43.69298" lon="3.95586">
        <ele>69.201369086571</ele>
        <time>2020-06-06T14:28:12.000Z</time>
      </trkpt>
      <trkpt lat="43.69298" lon="3.95583">
        <ele>69.299120766648</ele>
        <time>2020-06-06T14:28:13.000Z</time>
      </trkpt>
      <trkpt lat="43.69297" lon="3.9558">
        <ele>69.396872446726</ele>
        <time>2020-06-06T14:28:14.000Z</time>
      </trkpt>
      <trkpt lat="43.69297" lon="3.95577">
        <ele>69.494624126804</ele>
        <time>2020-06-06T14:28:15.000Z</time>
      </trkpt>
      <trkpt lat="43.69297" lon="3.95574">
        <ele>69.592375806882</ele>
        <time>2020-06-06T14:28:16.000Z</time>
      </trkpt>
      <trkpt lat="43.69297" lon="3.95571">
        <ele>69.690127486959</ele>
        <time>2020-06-06T14:28:17.000Z</time>
      </trkpt>
      <trkpt lat="43.69297" lon="3.95568">
        <ele>69.787879167037</ele>
        <time>2020-06-06T14:28:18.000Z</time>
      </trkpt>
      <trkpt lat="43.69297" lon="3.95564">
        <ele>69.885630847114</ele>
        <time>2020-06-06T14:28:19.000Z</time>
      </trkpt>
      <trkpt lat="43.69297" lon="3.95561">
        <ele>69.983382527192</ele>
        <time>2020-06-06T14:28:20.000Z</time>
      </trkpt>
      <trkpt lat="43.69298" lon="3.95557">
        <ele>70.08539127572</ele>
        <time>2020-06-06T14:28:21.000Z</time>
      </trkpt>
      <trkpt lat="43.69298" lon="3.95554">
        <ele>70.188271934156</ele>
        <time>2020-06-06T14:28:22.000Z</time>
      </trkpt>
      <trkpt lat="43.69299" lon="3.95551">
        <ele>70.291152592593</ele>
        <time>2020-06-06T14:28:23.000Z</time>
      </trkpt>
      <trkpt lat="43.69299" lon="3.95547">
        <ele>70.394033251029</ele>
        <time>2020-06-06T14:28:24.000Z</time>
      </trkpt>
      <trkpt lat="43.693" lon="3.95544">
        <ele>70.496913909465</ele>
        <time>2020-06-06T14:28:25.000Z</time>
      </trkpt>
      <trkpt lat="43.693" lon="3.95541">
        <ele>70.599794567901</ele>
        <time>2020-06-06T14:28:26.000Z</time>
      </trkpt>
      <trkpt lat="43.69301" lon="3.95537">
        <ele>70.702675226337</ele>
        <time>2020-06-06T14:28:27.000Z</time>
      </trkpt>
      <trkpt lat="43.69302" lon="3.95534">
        <ele>70.805555884774</ele>
        <time>2020-06-06T14:28:28.000Z</time>
      </trkpt>
      <trkpt lat="43.69302" lon="3.95531">
        <ele>70.90843654321</ele>
        <time>2020-06-06T14:28:29.000Z</time>
      </trkpt>
      <trkpt lat="43.69303" lon="3.95527">
        <ele>71.010945595525</ele>
        <time>2020-06-06T14:28:30.000Z</time>
      </trkpt>
      <trkpt lat="43.69303" lon="3.95524">
        <ele>71.11044811477</ele>
        <time>2020-06-06T14:28:31.000Z</time>
      </trkpt>
      <trkpt lat="43.69303" lon="3.9552">
        <ele>71.209950634014</ele>
        <time>2020-06-06T14:28:32.000Z</time>
      </trkpt>
      <trkpt lat="43.69304" lon="3.95517">
        <ele>71.309453153259</ele>
        <time>2020-06-06T14:28:33.000Z</time>
      </trkpt>
      <trkpt lat="43.69304" lon="3.95513">
        <ele>71.408955672503</ele>
        <time>2020-06-06T14:28:34.000Z</time>
      </trkpt>
      <trkpt lat="43.69304" lon="3.9551">
        <ele>71.508458191748</ele>
        <time>2020-06-06T14:28:35.000Z</time>
      </trkpt>
      <trkpt lat="43.69305" lon="3.95507">
        <ele>71.607960710993</ele>
        <time>2020-06-06T14:28:36.000Z</time>
      </trkpt>
      <trkpt lat="43.69305" lon="3.95503">
        <ele>71.707463230237</ele>
        <time>2020-06-06T14:28:37.000Z</time>
      </trkpt>
      <trkpt lat="43.69305" lon="3.955">
        <ele>71.806965749482</ele>
        <time>2020-06-06T14:28:38.000Z</time>
      </trkpt>
      <trkpt lat="43.69306" lon="3.95497">
        <ele>71.906468268726</ele>
        <time>2020-06-06T14:28:39.000Z</time>
      </trkpt>
      <trkpt lat="43.69306" lon="3.95494">
        <ele>72.011882447916</ele>
        <time>2020-06-06T14:28:40.000Z</time>
      </trkpt>
      <trkpt lat="43.69306" lon="3.9549">
        <ele>72.209902124419</ele>
        <time>2020-06-06T14:28:41.000Z</time>
      </trkpt>
      <trkpt lat="43.69307" lon="3.95487">
        <ele>72.407921800921</ele>
        <time>2020-06-06T14:28:42.000Z</time>
      </trkpt>
      <trkpt lat="43.69307" lon="3.95484">
        <ele>72.605941477423</ele>
        <time>2020-06-06T14:28:43.000Z</time>
      </trkpt>
      <trkpt lat="43.69307" lon="3.95481">
        <ele>72.803961153926</ele>
        <time>2020-06-06T14:28:44.000Z</time>
      </trkpt>
      <trkpt lat="43.69308" lon="3.95478">
        <ele>73.001980830428</ele>
        <time>2020-06-06T14:28:45.000Z</time>
      </trkpt>
      <trkpt lat="43.69308" lon="3.95475">
        <ele>73.20000050693</ele>
        <time>2020-06-06T14:28:46.000Z</time>
      </trkpt>
      <trkpt lat="43.69308" lon="3.95472">
        <ele>73.398020183433</ele>
        <time>2020-06-06T14:28:47.000Z</time>
      </trkpt>
      <trkpt lat="43.69308" lon="3.95469">
        <ele>73.596039859935</ele>
        <time>2020-06-06T14:28:48.000Z</time>
      </trkpt>
      <trkpt lat="43.69308" lon="3.95466">
        <ele>73.794059536438</ele>
        <time>2020-06-06T14:28:49.000Z</time>
      </trkpt>
      <trkpt lat="43.69307" lon="3.95462">
        <ele>73.99207921294</ele>
        <time>2020-06-06T14:28:50.000Z</time>
      </trkpt>
      <trkpt lat="43.69307" lon="3.95459">
        <ele>74.094768045731</ele>
        <time>2020-06-06T14:28:51.000Z</time>
      </trkpt>
      <trkpt lat="43.69307" lon="3.95456">
        <ele>74.193484760035</ele>
        <time>2020-06-06T14:28:52.000Z</time>
      </trkpt>
      <trkpt lat="43.69307" lon="3.95453">
        <ele>74.292201474338</ele>
        <time>2020-06-06T14:28:53.000Z</time>
      </trkpt>
      <trkpt lat="43.69307" lon="3.9545">
        <ele>74.390918188642</ele>
        <time>2020-06-06T14:28:54.000Z</time>
      </trkpt>
      <trkpt lat="43.69307" lon="3.95447">
        <ele>74.489634902945</ele>
        <time>2020-06-06T14:28:55.000Z</time>
      </trkpt>
      <trkpt lat="43.69307" lon="3.95444">
        <ele>74.588351617248</ele>
        <time>2020-06-06T14:28:56.000Z</time>
      </trkpt>
      <trkpt lat="43.69307" lon="3.95441">
        <ele>74.687068331552</ele>
        <time>2020-06-06T14:28:57.000Z</time>
      </trkpt>
      <trkpt lat="43.69307" lon="3.95438">
        <ele>74.785785045855</ele>
        <time>2020-06-06T14:28:58.000Z</time>
      </trkpt>
      <trkpt lat="43.69307" lon="3.95436">
        <ele>74.884501760158</ele>
        <time>2020-06-06T14:28:59.000Z</time>
      </trkpt>
      <trkpt lat="43.69306" lon="3.95433">
        <ele>74.983218474462</ele>
        <time>2020-06-06T14:29:00.000Z</time>
      </trkpt>
      <trkpt lat="43.69306" lon="3.9543">
        <ele>75.08539127572</ele>
        <time>2020-06-06T14:29:01.000Z</time>
      </trkpt>
      <trkpt lat="43.69305" lon="3.95428">
        <ele>75.188271934156</ele>
        <time>2020-06-06T14:29:02.000Z</time>
      </trkpt>
      <trkpt lat="43.69304" lon="3.95426">
        <ele>75.291152592593</ele>
        <time>2020-06-06T14:29:03.000Z</time>
      </trkpt>
      <trkpt lat="43.69302" lon="3.95423">
        <ele>75.394033251029</ele>
        <time>2020-06-06T14:29:04.000Z</time>
      </trkpt>
      <trkpt lat="43.69301" lon="3.95421">
        <ele>75.496913909465</ele>
        <time>2020-06-06T14:29:05.000Z</time>
      </trkpt>
      <trkpt lat="43.69299" lon="3.95419">
        <ele>75.599794567901</ele>
        <time>2020-06-06T14:29:06.000Z</time>
      </trkpt>
      <trkpt lat="43.69298" lon="3.95417">
        <ele>75.702675226337</ele>
        <time>2020-06-06T14:29:07.000Z</time>
      </trkpt>
      <trkpt lat="43.69297" lon="3.95415">
        <ele>75.805555884774</ele>
        <time>2020-06-06T14:29:08.000Z</time>
      </trkpt>
      <trkpt lat="43.69296" lon="3.95413">
        <ele>75.90843654321</ele>
        <time>2020-06-06T14:29:09.000Z</time>
      </trkpt>
      <trkpt lat="43.69295" lon="3.9541">
        <ele>76.02200064</ele>
        <time>2020-06-06T14:29:10.000Z</time>
      </trkpt>
      <trkpt lat="43.69294" lon="3.95407">
        <ele>76.22200064</ele>
        <time>2020-06-06T14:29:11.000Z</time>
      </trkpt>
      <trkpt lat="43.69294" lon="3.95405">
        <ele>76.42200064</ele>
        <time>2020-06-06T14:29:12.000Z</time>
      </trkpt>
      <trkpt lat="43.69293" lon="3.95402">
        <ele>76.62200064</ele>
        <time>2020-06-06T14:29:13.000Z</time>
      </trkpt>
      <trkpt lat="43.69292" lon="3.954">
        <ele>76.82200064</ele>
        <time>2020-06-06T14:29:14.000Z</time>
      </trkpt>
      <trkpt lat="43.69291" lon="3.95397">
        <ele>77.02200064</ele>
        <time>2020-06-06T14:29:15.000Z</time>
      </trkpt>
      <trkpt lat="43.69291" lon="3.95395">
        <ele>77.22200064</ele>
        <time>2020-06-06T14:29:16.000Z</time>
      </trkpt>
      <trkpt lat="43.6929" lon="3.95392">
        <ele>77.42200064</ele>
        <time>2020-06-06T14:29:17.000Z</time>
      </trkpt>
      <trkpt lat="43.6929" lon="3.95389">
        <ele>77.62200064</ele>
        <time>2020-06-06T14:29:18.000Z</time>
      </trkpt>
      <trkpt lat="43.6929" lon="3.95387">
        <ele>77.82200064</ele>
        <time>2020-06-06T14:29:19.000Z</time>
      </trkpt>
      <trkpt lat="43.69289" lon="3.95384">
        <ele>78.01100032</ele>
        <time>2020-06-06T14:29:20.000Z</time>
      </trkpt>
      <trkpt lat="43.69289" lon="3.95382">
        <ele>78.11100032</ele>
        <time>2020-06-06T14:29:21.000Z</time>
      </trkpt>
      <trkpt lat="43.69288" lon="3.9538">
        <ele>78.21100032</ele>
        <time>2020-06-06T14:29:22.000Z</time>
      </trkpt>
      <trkpt lat="43.69286" lon="3.95378">
        <ele>78.31100032</ele>
        <time>2020-06-06T14:29:23.000Z</time>
      </trkpt>
      <trkpt lat="43.69285" lon="3.95376">
        <ele>78.41100032</ele>
        <time>2020-06-06T14:29:24.000Z</time>
      </trkpt>
      <trkpt lat="43.69284" lon="3.95373">
        <ele>78.51100032</ele>
        <time>2020-06-06T14:29:25.000Z</time>
      </trkpt>
      <trkpt lat="43.69283" lon="3.95371">
        <ele>78.61100032</ele>
        <time>2020-06-06T14:29:26.000Z</time>
      </trkpt>
      <trkpt lat="43.69282" lon="3.95369">
        <ele>78.71100032</ele>
        <time>2020-06-06T14:29:27.000Z</time>
      </trkpt>
      <trkpt lat="43.69281" lon="3.95367">
        <ele>78.81100032</ele>
        <time>2020-06-06T14:29:28.000Z</time>
      </trkpt>
      <trkpt lat="43.6928" lon="3.95365">
        <ele>78.91100032</ele>
        <time>2020-06-06T14:29:29.000Z</time>
      </trkpt>
      <trkpt lat="43.69277" lon="3.95361">
        <ele>79.11100032</ele>
        <time>2020-06-06T14:29:31.000Z</time>
      </trkpt>
      <trkpt lat="43.69275" lon="3.95358">
        <ele>79.31100032</ele>
        <time>2020-06-06T14:29:33.000Z</time>
      </trkpt>
      <trkpt lat="43.69273" lon="3.95354">
        <ele>79.51100032</ele>
        <time>2020-06-06T14:29:35.000Z</time>
      </trkpt>
      <trkpt lat="43.69273" lon="3.95352">
        <ele>79.61100032</ele>
        <time>2020-06-06T14:29:36.000Z</time>
      </trkpt>
      <trkpt lat="43.69272" lon="3.95349">
        <ele>79.71100032</ele>
        <time>2020-06-06T14:29:37.000Z</time>
      </trkpt>
      <trkpt lat="43.69272" lon="3.95347">
        <ele>79.81100032</ele>
        <time>2020-06-06T14:29:38.000Z</time>
      </trkpt>
      <trkpt lat="43.69272" lon="3.95344">
        <ele>79.91100032</ele>
        <time>2020-06-06T14:29:39.000Z</time>
      </trkpt>
      <trkpt lat="43.69273" lon="3.95341">
        <ele>80.01100032</ele>
        <time>2020-06-06T14:29:40.000Z</time>
      </trkpt>
      <trkpt lat="43.69275" lon="3.95339">
        <ele>80.11100032</ele>
        <time>2020-06-06T14:29:41.000Z</time>
      </trkpt>
      <trkpt lat="43.69277" lon="3.95338">
        <ele>80.21100032</ele>
        <time>2020-06-06T14:29:42.000Z</time>
      </trkpt>
      <trkpt lat="43.69278" lon="3.95336">
        <ele>80.31100032</ele>
        <time>2020-06-06T14:29:43.000Z</time>
      </trkpt>
      <trkpt lat="43.69279" lon="3.95333">
        <ele>80.41100032</ele>
        <time>2020-06-06T14:29:44.000Z</time>
      </trkpt>
      <trkpt lat="43.6928" lon="3.95329">
        <ele>80.51100032</ele>
        <time>2020-06-06T14:29:45.000Z</time>
      </trkpt>
      <trkpt lat="43.69279" lon="3.95325">
        <ele>80.61100032</ele>
        <time>2020-06-06T14:29:46.000Z</time>
      </trkpt>
      <trkpt lat="43.69279" lon="3.95322">
        <ele>80.71100032</ele>
        <time>2020-06-06T14:29:47.000Z</time>
      </trkpt>
      <trkpt lat="43.69279" lon="3.95318">
        <ele>80.81100032</ele>
        <time>2020-06-06T14:29:48.000Z</time>
      </trkpt>
      <trkpt lat="43.6928" lon="3.95315">
        <ele>80.91100032</ele>
        <time>2020-06-06T14:29:49.000Z</time>
      </trkpt>
      <trkpt lat="43.69281" lon="3.95311">
        <ele>81.01100032</ele>
        <time>2020-06-06T14:29:50.000Z</time>
      </trkpt>
      <trkpt lat="43.69281" lon="3.95308">
        <ele>81.11100032</ele>
        <time>2020-06-06T14:29:51.000Z</time>
      </trkpt>
      <trkpt lat="43.69282" lon="3.95305">
        <ele>81.21100032</ele>
        <time>2020-06-06T14:29:52.000Z</time>
      </trkpt>
      <trkpt lat="43.69283" lon="3.95302">
        <ele>81.31100032</ele>
        <time>2020-06-06T14:29:53.000Z</time>
      </trkpt>
      <trkpt lat="43.69284" lon="3.95299">
        <ele>81.41100032</ele>
        <time>2020-06-06T14:29:54.000Z</time>
      </trkpt>
      <trkpt lat="43.69285" lon="3.95296">
        <ele>81.51100032</ele>
        <time>2020-06-06T14:29:55.000Z</time>
      </trkpt>
      <trkpt lat="43.69285" lon="3.95293">
        <ele>81.61100032</ele>
        <time>2020-06-06T14:29:56.000Z</time>
      </trkpt>
      <trkpt lat="43.69285" lon="3.9529">
        <ele>81.71100032</ele>
        <time>2020-06-06T14:29:57.000Z</time>
      </trkpt>
      <trkpt lat="43.69286" lon="3.95286">
        <ele>81.81100032</ele>
        <time>2020-06-06T14:29:58.000Z</time>
      </trkpt>
      <trkpt lat="43.69286" lon="3.95283">
        <ele>81.91100032</ele>
        <time>2020-06-06T14:29:59.000Z</time>
      </trkpt>
      <trkpt lat="43.69287" lon="3.9528">
        <ele>82.010923849557</ele>
        <time>2020-06-06T14:30:00.000Z</time>
      </trkpt>
      <trkpt lat="43.69289" lon="3.95277">
        <ele>82.110228683939</ele>
        <time>2020-06-06T14:30:01.000Z</time>
      </trkpt>
      <trkpt lat="43.6929" lon="3.95273">
        <ele>82.209533518321</ele>
        <time>2020-06-06T14:30:02.000Z</time>
      </trkpt>
      <trkpt lat="43.69291" lon="3.9527">
        <ele>82.308838352703</ele>
        <time>2020-06-06T14:30:03.000Z</time>
      </trkpt>
      <trkpt lat="43.69293" lon="3.95267">
        <ele>82.408143187085</ele>
        <time>2020-06-06T14:30:04.000Z</time>
      </trkpt>
      <trkpt lat="43.69294" lon="3.95264">
        <ele>82.507448021466</ele>
        <time>2020-06-06T14:30:05.000Z</time>
      </trkpt>
      <trkpt lat="43.69295" lon="3.95261">
        <ele>82.606752855848</ele>
        <time>2020-06-06T14:30:06.000Z</time>
      </trkpt>
      <trkpt lat="43.69297" lon="3.95259">
        <ele>82.70605769023</ele>
        <time>2020-06-06T14:30:07.000Z</time>
      </trkpt>
      <trkpt lat="43.69299" lon="3.95256">
        <ele>82.805362524612</ele>
        <time>2020-06-06T14:30:08.000Z</time>
      </trkpt>
      <trkpt lat="43.69301" lon="3.95254">
        <ele>82.904667358994</ele>
        <time>2020-06-06T14:30:09.000Z</time>
      </trkpt>
      <trkpt lat="43.69303" lon="3.95251">
        <ele>83.00402819868</ele>
        <time>2020-06-06T14:30:10.000Z</time>
      </trkpt>
      <trkpt lat="43.69305" lon="3.95248">
        <ele>83.104733165674</ele>
        <time>2020-06-06T14:30:11.000Z</time>
      </trkpt>
      <trkpt lat="43.69307" lon="3.95246">
        <ele>83.205438132669</ele>
        <time>2020-06-06T14:30:12.000Z</time>
      </trkpt>
      <trkpt lat="43.69308" lon="3.95243">
        <ele>83.306143099663</ele>
        <time>2020-06-06T14:30:13.000Z</time>
      </trkpt>
      <trkpt lat="43.69309" lon="3.95238">
        <ele>83.507553033652</ele>
        <time>2020-06-06T14:30:15.000Z</time>
      </trkpt>
      <trkpt lat="43.6931" lon="3.95236">
        <ele>83.608258000647</ele>
        <time>2020-06-06T14:30:16.000Z</time>
      </trkpt>
      <trkpt lat="43.69311" lon="3.95233">
        <ele>83.708962967642</ele>
        <time>2020-06-06T14:30:17.000Z</time>
      </trkpt>
      <trkpt lat="43.69313" lon="3.9523">
        <ele>83.809667934636</ele>
        <time>2020-06-06T14:30:18.000Z</time>
      </trkpt>
      <trkpt lat="43.69314" lon="3.95228">
        <ele>83.910372901631</ele>
        <time>2020-06-06T14:30:19.000Z</time>
      </trkpt>
      <trkpt lat="43.69316" lon="3.95225">
        <ele>84.01100032</ele>
        <time>2020-06-06T14:30:20.000Z</time>
      </trkpt>
      <trkpt lat="43.69317" lon="3.95223">
        <ele>84.11100032</ele>
        <time>2020-06-06T14:30:21.000Z</time>
      </trkpt>
      <trkpt lat="43.69319" lon="3.9522">
        <ele>84.21100032</ele>
        <time>2020-06-06T14:30:22.000Z</time>
      </trkpt>
      <trkpt lat="43.6932" lon="3.95217">
        <ele>84.31100032</ele>
        <time>2020-06-06T14:30:23.000Z</time>
      </trkpt>
      <trkpt lat="43.69322" lon="3.95213">
        <ele>84.41100032</ele>
        <time>2020-06-06T14:30:24.000Z</time>
      </trkpt>
      <trkpt lat="43.69323" lon="3.95209">
        <ele>84.51100032</ele>
        <time>2020-06-06T14:30:25.000Z</time>
      </trkpt>
      <trkpt lat="43.69325" lon="3.95205">
        <ele>84.61100032</ele>
        <time>2020-06-06T14:30:26.000Z</time>
      </trkpt>
      <trkpt lat="43.69327" lon="3.95202">
        <ele>84.71100032</ele>
        <time>2020-06-06T14:30:27.000Z</time>
      </trkpt>
      <trkpt lat="43.69329" lon="3.95198">
        <ele>84.81100032</ele>
        <time>2020-06-06T14:30:28.000Z</time>
      </trkpt>
      <trkpt lat="43.6933" lon="3.95195">
        <ele>84.91100032</ele>
        <time>2020-06-06T14:30:29.000Z</time>
      </trkpt>
      <trkpt lat="43.69333" lon="3.95191">
        <ele>85</ele>
        <time>2020-06-06T14:30:30.000Z</time>
      </trkpt>
      <trkpt lat="43.69336" lon="3.95188">
        <ele>85</ele>
        <time>2020-06-06T14:30:31.000Z</time>
      </trkpt>
      <trkpt lat="43.69339" lon="3.95185">
        <ele>85</ele>
        <time>2020-06-06T14:30:32.000Z</time>
      </trkpt>
      <trkpt lat="43.6934" lon="3.95181">
        <ele>85</ele>
        <time>2020-06-06T14:30:33.000Z</time>
      </trkpt>
      <trkpt lat="43.69342" lon="3.95177">
        <ele>85</ele>
        <time>2020-06-06T14:30:34.000Z</time>
      </trkpt>
      <trkpt lat="43.69344" lon="3.95173">
        <ele>85</ele>
        <time>2020-06-06T14:30:35.000Z</time>
      </trkpt>
      <trkpt lat="43.69346" lon="3.9517">
        <ele>85</ele>
        <time>2020-06-06T14:30:36.000Z</time>
      </trkpt>
      <trkpt lat="43.69348" lon="3.95167">
        <ele>85</ele>
        <time>2020-06-06T14:30:37.000Z</time>
      </trkpt>
      <trkpt lat="43.69351" lon="3.95164">
        <ele>85</ele>
        <time>2020-06-06T14:30:38.000Z</time>
      </trkpt>
      <trkpt lat="43.69353" lon="3.9516">
        <ele>85</ele>
        <time>2020-06-06T14:30:39.000Z</time>
      </trkpt>
      <trkpt lat="43.69355" lon="3.95157">
        <ele>85.01100032</ele>
        <time>2020-06-06T14:30:40.000Z</time>
      </trkpt>
      <trkpt lat="43.69356" lon="3.95153">
        <ele>85.11100032</ele>
        <time>2020-06-06T14:30:41.000Z</time>
      </trkpt>
      <trkpt lat="43.69358" lon="3.95149">
        <ele>85.21100032</ele>
        <time>2020-06-06T14:30:42.000Z</time>
      </trkpt>
      <trkpt lat="43.6936" lon="3.95144">
        <ele>85.31100032</ele>
        <time>2020-06-06T14:30:43.000Z</time>
      </trkpt>
      <trkpt lat="43.69362" lon="3.9514">
        <ele>85.41100032</ele>
        <time>2020-06-06T14:30:44.000Z</time>
      </trkpt>
      <trkpt lat="43.69365" lon="3.95135">
        <ele>85.51100032</ele>
        <time>2020-06-06T14:30:45.000Z</time>
      </trkpt>
      <trkpt lat="43.69367" lon="3.95131">
        <ele>85.61100032</ele>
        <time>2020-06-06T14:30:46.000Z</time>
      </trkpt>
      <trkpt lat="43.6937" lon="3.95126">
        <ele>85.71100032</ele>
        <time>2020-06-06T14:30:47.000Z</time>
      </trkpt>
      <trkpt lat="43.69373" lon="3.95122">
        <ele>85.81100032</ele>
        <time>2020-06-06T14:30:48.000Z</time>
      </trkpt>
      <trkpt lat="43.69376" lon="3.95118">
        <ele>85.91100032</ele>
        <time>2020-06-06T14:30:49.000Z</time>
      </trkpt>
      <trkpt lat="43.69378" lon="3.95115">
        <ele>86</ele>
        <time>2020-06-06T14:30:50.000Z</time>
      </trkpt>
      <trkpt lat="43.69381" lon="3.95113">
        <ele>86</ele>
        <time>2020-06-06T14:30:51.000Z</time>
      </trkpt>
      <trkpt lat="43.69384" lon="3.95111">
        <ele>86</ele>
        <time>2020-06-06T14:30:52.000Z</time>
      </trkpt>
      <trkpt lat="43.69386" lon="3.9511">
        <ele>86</ele>
        <time>2020-06-06T14:30:53.000Z</time>
      </trkpt>
      <trkpt lat="43.69389" lon="3.95109">
        <ele>86</ele>
        <time>2020-06-06T14:30:54.000Z</time>
      </trkpt>
      <trkpt lat="43.69391" lon="3.95108">
        <ele>86</ele>
        <time>2020-06-06T14:30:55.000Z</time>
      </trkpt>
      <trkpt lat="43.69394" lon="3.95108">
        <ele>86</ele>
        <time>2020-06-06T14:30:56.000Z</time>
      </trkpt>
      <trkpt lat="43.69397" lon="3.95107">
        <ele>86</ele>
        <time>2020-06-06T14:30:57.000Z</time>
      </trkpt>
      <trkpt lat="43.694" lon="3.95106">
        <ele>86</ele>
        <time>2020-06-06T14:30:58.000Z</time>
      </trkpt>
      <trkpt lat="43.69403" lon="3.95105">
        <ele>86</ele>
        <time>2020-06-06T14:30:59.000Z</time>
      </trkpt>
      <trkpt lat="43.69406" lon="3.95104">
        <ele>85.978598599222</ele>
        <time>2020-06-06T14:31:00.000Z</time>
      </trkpt>
      <trkpt lat="43.6941" lon="3.95102">
        <ele>85.784046070039</ele>
        <time>2020-06-06T14:31:01.000Z</time>
      </trkpt>
      <trkpt lat="43.69413" lon="3.95102">
        <ele>85.589493540856</ele>
        <time>2020-06-06T14:31:02.000Z</time>
      </trkpt>
      <trkpt lat="43.69417" lon="3.95101">
        <ele>85.394941011673</ele>
        <time>2020-06-06T14:31:03.000Z</time>
      </trkpt>
      <trkpt lat="43.69421" lon="3.95101">
        <ele>85.20038848249</ele>
        <time>2020-06-06T14:31:04.000Z</time>
      </trkpt>
      <trkpt lat="43.69425" lon="3.951">
        <ele>85.005835953307</ele>
        <time>2020-06-06T14:31:05.000Z</time>
      </trkpt>
      <trkpt lat="43.6943" lon="3.95099">
        <ele>84.811283424124</ele>
        <time>2020-06-06T14:31:06.000Z</time>
      </trkpt>
      <trkpt lat="43.69435" lon="3.95098">
        <ele>84.616730894942</ele>
        <time>2020-06-06T14:31:07.000Z</time>
      </trkpt>
      <trkpt lat="43.6944" lon="3.95096">
        <ele>84.422178365759</ele>
        <time>2020-06-06T14:31:08.000Z</time>
      </trkpt>
      <trkpt lat="43.69446" lon="3.95095">
        <ele>84.227625836576</ele>
        <time>2020-06-06T14:31:09.000Z</time>
      </trkpt>
      <trkpt lat="43.69451" lon="3.95094">
        <ele>84.033073307393</ele>
        <time>2020-06-06T14:31:10.000Z</time>
      </trkpt>
      <trkpt lat="43.69456" lon="3.95092">
        <ele>83.918706912871</ele>
        <time>2020-06-06T14:31:11.000Z</time>
      </trkpt>
      <trkpt lat="43.69462" lon="3.9509">
        <ele>83.820763812014</ele>
        <time>2020-06-06T14:31:12.000Z</time>
      </trkpt>
      <trkpt lat="43.69467" lon="3.95089">
        <ele>83.722820711158</ele>
        <time>2020-06-06T14:31:13.000Z</time>
      </trkpt>
      <trkpt lat="43.69472" lon="3.95087">
        <ele>83.624877610301</ele>
        <time>2020-06-06T14:31:14.000Z</time>
      </trkpt>
      <trkpt lat="43.69477" lon="3.95086">
        <ele>83.526934509445</ele>
        <time>2020-06-06T14:31:15.000Z</time>
      </trkpt>
      <trkpt lat="43.69482" lon="3.95085">
        <ele>83.428991408588</ele>
        <time>2020-06-06T14:31:16.000Z</time>
      </trkpt>
      <trkpt lat="43.69486" lon="3.95084">
        <ele>83.331048307731</ele>
        <time>2020-06-06T14:31:17.000Z</time>
      </trkpt>
      <trkpt lat="43.69491" lon="3.95083">
        <ele>83.233105206875</ele>
        <time>2020-06-06T14:31:18.000Z</time>
      </trkpt>
      <trkpt lat="43.69496" lon="3.95081">
        <ele>83.135162106018</ele>
        <time>2020-06-06T14:31:19.000Z</time>
      </trkpt>
      <trkpt lat="43.69501" lon="3.9508">
        <ele>83.037219005161</ele>
        <time>2020-06-06T14:31:20.000Z</time>
      </trkpt>
      <trkpt lat="43.69505" lon="3.95078">
        <ele>83.06332933687</ele>
        <time>2020-06-06T14:31:21.000Z</time>
      </trkpt>
      <trkpt lat="43.6951" lon="3.95077">
        <ele>83.165474482999</ele>
        <time>2020-06-06T14:31:22.000Z</time>
      </trkpt>
      <trkpt lat="43.69514" lon="3.95075">
        <ele>83.267619629127</ele>
        <time>2020-06-06T14:31:23.000Z</time>
      </trkpt>
      <trkpt lat="43.69518" lon="3.95073">
        <ele>83.369764775254</ele>
        <time>2020-06-06T14:31:24.000Z</time>
      </trkpt>
      <trkpt lat="43.69523" lon="3.95071">
        <ele>83.471909921383</ele>
        <time>2020-06-06T14:31:25.000Z</time>
      </trkpt>
      <trkpt lat="43.69528" lon="3.9507">
        <ele>83.574055067511</ele>
        <time>2020-06-06T14:31:26.000Z</time>
      </trkpt>
      <trkpt lat="43.69532" lon="3.95068">
        <ele>83.676200213639</ele>
        <time>2020-06-06T14:31:27.000Z</time>
      </trkpt>
      <trkpt lat="43.69537" lon="3.95066">
        <ele>83.778345359767</ele>
        <time>2020-06-06T14:31:28.000Z</time>
      </trkpt>
      <trkpt lat="43.69541" lon="3.95064">
        <ele>83.880490505895</ele>
        <time>2020-06-06T14:31:29.000Z</time>
      </trkpt>
      <trkpt lat="43.69545" lon="3.95063">
        <ele>83.982635652023</ele>
        <time>2020-06-06T14:31:30.000Z</time>
      </trkpt>
      <trkpt lat="43.69549" lon="3.95061">
        <ele>84</ele>
        <time>2020-06-06T14:31:31.000Z</time>
      </trkpt>
      <trkpt lat="43.69552" lon="3.9506">
        <ele>84</ele>
        <time>2020-06-06T14:31:32.000Z</time>
      </trkpt>
      <trkpt lat="43.69555" lon="3.95059">
        <ele>84</ele>
        <time>2020-06-06T14:31:33.000Z</time>
      </trkpt>
      <trkpt lat="43.69558" lon="3.95058">
        <ele>84</ele>
        <time>2020-06-06T14:31:34.000Z</time>
      </trkpt>
      <trkpt lat="43.69561" lon="3.95057">
        <ele>84</ele>
        <time>2020-06-06T14:31:35.000Z</time>
      </trkpt>
      <trkpt lat="43.69564" lon="3.95055">
        <ele>84</ele>
        <time>2020-06-06T14:31:36.000Z</time>
      </trkpt>
      <trkpt lat="43.69566" lon="3.95052">
        <ele>84</ele>
        <time>2020-06-06T14:31:37.000Z</time>
      </trkpt>
      <trkpt lat="43.69567" lon="3.95048">
        <ele>84</ele>
        <time>2020-06-06T14:31:38.000Z</time>
      </trkpt>
      <trkpt lat="43.69568" lon="3.95043">
        <ele>84</ele>
        <time>2020-06-06T14:31:39.000Z</time>
      </trkpt>
      <trkpt lat="43.69569" lon="3.95038">
        <ele>84.010859154467</ele>
        <time>2020-06-06T14:31:40.000Z</time>
      </trkpt>
      <trkpt lat="43.69569" lon="3.95034">
        <ele>84.10957586877</ele>
        <time>2020-06-06T14:31:41.000Z</time>
      </trkpt>
      <trkpt lat="43.69569" lon="3.95029">
        <ele>84.208292583074</ele>
        <time>2020-06-06T14:31:42.000Z</time>
      </trkpt>
      <trkpt lat="43.69568" lon="3.95024">
        <ele>84.307009297377</ele>
        <time>2020-06-06T14:31:43.000Z</time>
      </trkpt>
      <trkpt lat="43.69568" lon="3.9502">
        <ele>84.40572601168</ele>
        <time>2020-06-06T14:31:44.000Z</time>
      </trkpt>
      <trkpt lat="43.69567" lon="3.95015">
        <ele>84.504442725984</ele>
        <time>2020-06-06T14:31:45.000Z</time>
      </trkpt>
      <trkpt lat="43.69566" lon="3.9501">
        <ele>84.603159440287</ele>
        <time>2020-06-06T14:31:46.000Z</time>
      </trkpt>
      <trkpt lat="43.69565" lon="3.95006">
        <ele>84.701876154591</ele>
        <time>2020-06-06T14:31:47.000Z</time>
      </trkpt>
      <trkpt lat="43.69565" lon="3.95001">
        <ele>84.800592868894</ele>
        <time>2020-06-06T14:31:48.000Z</time>
      </trkpt>
      <trkpt lat="43.69564" lon="3.94997">
        <ele>84.899309583198</ele>
        <time>2020-06-06T14:31:49.000Z</time>
      </trkpt>
      <trkpt lat="43.69564" lon="3.94993">
        <ele>84.998026297501</ele>
        <time>2020-06-06T14:31:50.000Z</time>
      </trkpt>
      <trkpt lat="43.69563" lon="3.94988">
        <ele>85.09929139638</ele>
        <time>2020-06-06T14:31:51.000Z</time>
      </trkpt>
      <trkpt lat="43.69562" lon="3.94984">
        <ele>85.200608486125</ele>
        <time>2020-06-06T14:31:52.000Z</time>
      </trkpt>
      <trkpt lat="43.69561" lon="3.9498">
        <ele>85.30192557587</ele>
        <time>2020-06-06T14:31:53.000Z</time>
      </trkpt>
      <trkpt lat="43.69561" lon="3.94975">
        <ele>85.403242665615</ele>
        <time>2020-06-06T14:31:54.000Z</time>
      </trkpt>
      <trkpt lat="43.6956" lon="3.94971">
        <ele>85.504559755361</ele>
        <time>2020-06-06T14:31:55.000Z</time>
      </trkpt>
      <trkpt lat="43.69559" lon="3.94966">
        <ele>85.605876845106</ele>
        <time>2020-06-06T14:31:56.000Z</time>
      </trkpt>
      <trkpt lat="43.69559" lon="3.94962">
        <ele>85.707193934851</ele>
        <time>2020-06-06T14:31:57.000Z</time>
      </trkpt>
      <trkpt lat="43.69559" lon="3.94957">
        <ele>85.808511024596</ele>
        <time>2020-06-06T14:31:58.000Z</time>
      </trkpt>
      <trkpt lat="43.69559" lon="3.94952">
        <ele>85.909828114341</ele>
        <time>2020-06-06T14:31:59.000Z</time>
      </trkpt>
      <trkpt lat="43.69558" lon="3.94948">
        <ele>86.01100032</ele>
        <time>2020-06-06T14:32:00.000Z</time>
      </trkpt>
      <trkpt lat="43.69558" lon="3.94943">
        <ele>86.11100032</ele>
        <time>2020-06-06T14:32:01.000Z</time>
      </trkpt>
      <trkpt lat="43.69557" lon="3.94938">
        <ele>86.21100032</ele>
        <time>2020-06-06T14:32:02.000Z</time>
      </trkpt>
      <trkpt lat="43.69556" lon="3.94934">
        <ele>86.31100032</ele>
        <time>2020-06-06T14:32:03.000Z</time>
      </trkpt>
      <trkpt lat="43.69556" lon="3.94929">
        <ele>86.41100032</ele>
        <time>2020-06-06T14:32:04.000Z</time>
      </trkpt>
      <trkpt lat="43.69556" lon="3.94924">
        <ele>86.51100032</ele>
        <time>2020-06-06T14:32:05.000Z</time>
      </trkpt>
      <trkpt lat="43.69556" lon="3.94919">
        <ele>86.61100032</ele>
        <time>2020-06-06T14:32:06.000Z</time>
      </trkpt>
      <trkpt lat="43.69555" lon="3.94915">
        <ele>86.71100032</ele>
        <time>2020-06-06T14:32:07.000Z</time>
      </trkpt>
      <trkpt lat="43.69554" lon="3.9491">
        <ele>86.81100032</ele>
        <time>2020-06-06T14:32:08.000Z</time>
      </trkpt>
      <trkpt lat="43.69553" lon="3.94906">
        <ele>86.91100032</ele>
        <time>2020-06-06T14:32:09.000Z</time>
      </trkpt>
      <trkpt lat="43.69553" lon="3.94902">
        <ele>87.02200064</ele>
        <time>2020-06-06T14:32:10.000Z</time>
      </trkpt>
      <trkpt lat="43.69552" lon="3.94898">
        <ele>87.22200064</ele>
        <time>2020-06-06T14:32:11.000Z</time>
      </trkpt>
      <trkpt lat="43.69551" lon="3.94893">
        <ele>87.42200064</ele>
        <time>2020-06-06T14:32:12.000Z</time>
      </trkpt>
      <trkpt lat="43.69551" lon="3.94889">
        <ele>87.62200064</ele>
        <time>2020-06-06T14:32:13.000Z</time>
      </trkpt>
      <trkpt lat="43.6955" lon="3.94885">
        <ele>87.82200064</ele>
        <time>2020-06-06T14:32:14.000Z</time>
      </trkpt>
      <trkpt lat="43.6955" lon="3.94881">
        <ele>88.02200064</ele>
        <time>2020-06-06T14:32:15.000Z</time>
      </trkpt>
      <trkpt lat="43.69549" lon="3.94878">
        <ele>88.22200064</ele>
        <time>2020-06-06T14:32:16.000Z</time>
      </trkpt>
      <trkpt lat="43.69548" lon="3.94874">
        <ele>88.42200064</ele>
        <time>2020-06-06T14:32:17.000Z</time>
      </trkpt>
      <trkpt lat="43.69548" lon="3.9487">
        <ele>88.62200064</ele>
        <time>2020-06-06T14:32:18.000Z</time>
      </trkpt>
      <trkpt lat="43.69548" lon="3.94866">
        <ele>88.82200064</ele>
        <time>2020-06-06T14:32:19.000Z</time>
      </trkpt>
      <trkpt lat="43.69547" lon="3.94862">
        <ele>89.01100032</ele>
        <time>2020-06-06T14:32:20.000Z</time>
      </trkpt>
      <trkpt lat="43.69546" lon="3.94858">
        <ele>89.11100032</ele>
        <time>2020-06-06T14:32:21.000Z</time>
      </trkpt>
      <trkpt lat="43.69545" lon="3.94854">
        <ele>89.21100032</ele>
        <time>2020-06-06T14:32:22.000Z</time>
      </trkpt>
      <trkpt lat="43.69545" lon="3.9485">
        <ele>89.31100032</ele>
        <time>2020-06-06T14:32:23.000Z</time>
      </trkpt>
      <trkpt lat="43.69544" lon="3.94846">
        <ele>89.41100032</ele>
        <time>2020-06-06T14:32:24.000Z</time>
      </trkpt>
      <trkpt lat="43.69543" lon="3.94842">
        <ele>89.51100032</ele>
        <time>2020-06-06T14:32:25.000Z</time>
      </trkpt>
      <trkpt lat="43.69542" lon="3.94838">
        <ele>89.61100032</ele>
        <time>2020-06-06T14:32:26.000Z</time>
      </trkpt>
      <trkpt lat="43.69541" lon="3.94834">
        <ele>89.71100032</ele>
        <time>2020-06-06T14:32:27.000Z</time>
      </trkpt>
      <trkpt lat="43.6954" lon="3.9483">
        <ele>89.81100032</ele>
        <time>2020-06-06T14:32:28.000Z</time>
      </trkpt>
      <trkpt lat="43.69539" lon="3.94826">
        <ele>89.91100032</ele>
        <time>2020-06-06T14:32:29.000Z</time>
      </trkpt>
      <trkpt lat="43.69538" lon="3.94822">
        <ele>90</ele>
        <time>2020-06-06T14:32:30.000Z</time>
      </trkpt>
      <trkpt lat="43.69537" lon="3.94817">
        <ele>90</ele>
        <time>2020-06-06T14:32:31.000Z</time>
      </trkpt>
      <trkpt lat="43.69536" lon="3.94813">
        <ele>90</ele>
        <time>2020-06-06T14:32:32.000Z</time>
      </trkpt>
      <trkpt lat="43.69535" lon="3.94809">
        <ele>90</ele>
        <time>2020-06-06T14:32:33.000Z</time>
      </trkpt>
      <trkpt lat="43.69533" lon="3.94805">
        <ele>90</ele>
        <time>2020-06-06T14:32:34.000Z</time>
      </trkpt>
      <trkpt lat="43.69532" lon="3.948">
        <ele>90</ele>
        <time>2020-06-06T14:32:35.000Z</time>
      </trkpt>
      <trkpt lat="43.69531" lon="3.94796">
        <ele>90</ele>
        <time>2020-06-06T14:32:36.000Z</time>
      </trkpt>
      <trkpt lat="43.69529" lon="3.94792">
        <ele>90</ele>
        <time>2020-06-06T14:32:37.000Z</time>
      </trkpt>
      <trkpt lat="43.69528" lon="3.94787">
        <ele>90</ele>
        <time>2020-06-06T14:32:38.000Z</time>
      </trkpt>
      <trkpt lat="43.69527" lon="3.94782">
        <ele>90</ele>
        <time>2020-06-06T14:32:39.000Z</time>
      </trkpt>
      <trkpt lat="43.69525" lon="3.94777">
        <ele>90</ele>
        <time>2020-06-06T14:32:40.000Z</time>
      </trkpt>
      <trkpt lat="43.69524" lon="3.94772">
        <ele>90</ele>
        <time>2020-06-06T14:32:41.000Z</time>
      </trkpt>
      <trkpt lat="43.69522" lon="3.94767">
        <ele>90</ele>
        <time>2020-06-06T14:32:42.000Z</time>
      </trkpt>
      <trkpt lat="43.69521" lon="3.94762">
        <ele>90</ele>
        <time>2020-06-06T14:32:43.000Z</time>
      </trkpt>
      <trkpt lat="43.69519" lon="3.94756">
        <ele>90</ele>
        <time>2020-06-06T14:32:44.000Z</time>
      </trkpt>
      <trkpt lat="43.69517" lon="3.94751">
        <ele>90</ele>
        <time>2020-06-06T14:32:45.000Z</time>
      </trkpt>
      <trkpt lat="43.69516" lon="3.94745">
        <ele>90</ele>
        <time>2020-06-06T14:32:46.000Z</time>
      </trkpt>
      <trkpt lat="43.69514" lon="3.94739">
        <ele>90</ele>
        <time>2020-06-06T14:32:47.000Z</time>
      </trkpt>
      <trkpt lat="43.69512" lon="3.94734">
        <ele>90</ele>
        <time>2020-06-06T14:32:48.000Z</time>
      </trkpt>
      <trkpt lat="43.6951" lon="3.94728">
        <ele>90</ele>
        <time>2020-06-06T14:32:49.000Z</time>
      </trkpt>
      <trkpt lat="43.69508" lon="3.94722">
        <ele>90</ele>
        <time>2020-06-06T14:32:50.000Z</time>
      </trkpt>
      <trkpt lat="43.69507" lon="3.94716">
        <ele>90</ele>
        <time>2020-06-06T14:32:51.000Z</time>
      </trkpt>
      <trkpt lat="43.69505" lon="3.9471">
        <ele>90</ele>
        <time>2020-06-06T14:32:52.000Z</time>
      </trkpt>
      <trkpt lat="43.69503" lon="3.94704">
        <ele>90</ele>
        <time>2020-06-06T14:32:53.000Z</time>
      </trkpt>
      <trkpt lat="43.69502" lon="3.94698">
        <ele>90</ele>
        <time>2020-06-06T14:32:54.000Z</time>
      </trkpt>
      <trkpt lat="43.695" lon="3.94692">
        <ele>90</ele>
        <time>2020-06-06T14:32:55.000Z</time>
      </trkpt>
      <trkpt lat="43.69499" lon="3.94686">
        <ele>90</ele>
        <time>2020-06-06T14:32:56.000Z</time>
      </trkpt>
      <trkpt lat="43.69497" lon="3.9468">
        <ele>90</ele>
        <time>2020-06-06T14:32:57.000Z</time>
      </trkpt>
      <trkpt lat="43.69496" lon="3.94674">
        <ele>90</ele>
        <time>2020-06-06T14:32:58.000Z</time>
      </trkpt>
      <trkpt lat="43.69495" lon="3.94668">
        <ele>90</ele>
        <time>2020-06-06T14:32:59.000Z</time>
      </trkpt>
      <trkpt lat="43.69495" lon="3.94662">
        <ele>90.01100032</ele>
        <time>2020-06-06T14:33:00.000Z</time>
      </trkpt>
      <trkpt lat="43.69495" lon="3.94655">
        <ele>90.11100032</ele>
        <time>2020-06-06T14:33:01.000Z</time>
      </trkpt>
      <trkpt lat="43.69495" lon="3.94649">
        <ele>90.21100032</ele>
        <time>2020-06-06T14:33:02.000Z</time>
      </trkpt>
      <trkpt lat="43.69495" lon="3.94643">
        <ele>90.31100032</ele>
        <time>2020-06-06T14:33:03.000Z</time>
      </trkpt>
      <trkpt lat="43.69495" lon="3.94638">
        <ele>90.41100032</ele>
        <time>2020-06-06T14:33:04.000Z</time>
      </trkpt>
      <trkpt lat="43.69495" lon="3.94632">
        <ele>90.51100032</ele>
        <time>2020-06-06T14:33:05.000Z</time>
      </trkpt>
      <trkpt lat="43.69495" lon="3.94626">
        <ele>90.61100032</ele>
        <time>2020-06-06T14:33:06.000Z</time>
      </trkpt>
      <trkpt lat="43.69495" lon="3.94621">
        <ele>90.71100032</ele>
        <time>2020-06-06T14:33:07.000Z</time>
      </trkpt>
      <trkpt lat="43.69495" lon="3.94615">
        <ele>90.81100032</ele>
        <time>2020-06-06T14:33:08.000Z</time>
      </trkpt>
      <trkpt lat="43.69494" lon="3.94609">
        <ele>90.91100032</ele>
        <time>2020-06-06T14:33:09.000Z</time>
      </trkpt>
      <trkpt lat="43.69494" lon="3.94604">
        <ele>91</ele>
        <time>2020-06-06T14:33:10.000Z</time>
      </trkpt>
      <trkpt lat="43.69493" lon="3.94598">
        <ele>91</ele>
        <time>2020-06-06T14:33:11.000Z</time>
      </trkpt>
      <trkpt lat="43.69493" lon="3.94592">
        <ele>91</ele>
        <time>2020-06-06T14:33:12.000Z</time>
      </trkpt>
      <trkpt lat="43.69492" lon="3.94587">
        <ele>91</ele>
        <time>2020-06-06T14:33:13.000Z</time>
      </trkpt>
      <trkpt lat="43.69492" lon="3.94581">
        <ele>91</ele>
        <time>2020-06-06T14:33:14.000Z</time>
      </trkpt>
      <trkpt lat="43.69492" lon="3.94575">
        <ele>91</ele>
        <time>2020-06-06T14:33:15.000Z</time>
      </trkpt>
      <trkpt lat="43.69492" lon="3.94569">
        <ele>91</ele>
        <time>2020-06-06T14:33:16.000Z</time>
      </trkpt>
      <trkpt lat="43.69492" lon="3.94563">
        <ele>91</ele>
        <time>2020-06-06T14:33:17.000Z</time>
      </trkpt>
      <trkpt lat="43.69491" lon="3.94557">
        <ele>91</ele>
        <time>2020-06-06T14:33:18.000Z</time>
      </trkpt>
      <trkpt lat="43.69491" lon="3.9455">
        <ele>91</ele>
        <time>2020-06-06T14:33:19.000Z</time>
      </trkpt>
      <trkpt lat="43.69491" lon="3.94544">
        <ele>91</ele>
        <time>2020-06-06T14:33:20.000Z</time>
      </trkpt>
      <trkpt lat="43.69491" lon="3.94537">
        <ele>91</ele>
        <time>2020-06-06T14:33:21.000Z</time>
      </trkpt>
      <trkpt lat="43.6949" lon="3.9453">
        <ele>91</ele>
        <time>2020-06-06T14:33:22.000Z</time>
      </trkpt>
      <trkpt lat="43.6949" lon="3.94524">
        <ele>91</ele>
        <time>2020-06-06T14:33:23.000Z</time>
      </trkpt>
      <trkpt lat="43.69489" lon="3.94517">
        <ele>91</ele>
        <time>2020-06-06T14:33:24.000Z</time>
      </trkpt>
      <trkpt lat="43.69488" lon="3.9451">
        <ele>91</ele>
        <time>2020-06-06T14:33:25.000Z</time>
      </trkpt>
      <trkpt lat="43.69488" lon="3.94503">
        <ele>91</ele>
        <time>2020-06-06T14:33:26.000Z</time>
      </trkpt>
      <trkpt lat="43.69487" lon="3.94496">
        <ele>91</ele>
        <time>2020-06-06T14:33:27.000Z</time>
      </trkpt>
      <trkpt lat="43.69486" lon="3.9449">
        <ele>91</ele>
        <time>2020-06-06T14:33:28.000Z</time>
      </trkpt>
      <trkpt lat="43.69485" lon="3.94483">
        <ele>91</ele>
        <time>2020-06-06T14:33:29.000Z</time>
      </trkpt>
      <trkpt lat="43.69485" lon="3.94477">
        <ele>91</ele>
        <time>2020-06-06T14:33:30.000Z</time>
      </trkpt>
      <trkpt lat="43.69484" lon="3.9447">
        <ele>91.082559366789</ele>
        <time>2020-06-06T14:33:31.000Z</time>
      </trkpt>
      <trkpt lat="43.69483" lon="3.94464">
        <ele>91.185758575276</ele>
        <time>2020-06-06T14:33:32.000Z</time>
      </trkpt>
      <trkpt lat="43.69482" lon="3.94457">
        <ele>91.288957783763</ele>
        <time>2020-06-06T14:33:33.000Z</time>
      </trkpt>
      <trkpt lat="43.69481" lon="3.94451">
        <ele>91.39215699225</ele>
        <time>2020-06-06T14:33:34.000Z</time>
      </trkpt>
      <trkpt lat="43.6948" lon="3.94445">
        <ele>91.495356200737</ele>
        <time>2020-06-06T14:33:35.000Z</time>
      </trkpt>
      <trkpt lat="43.69479" lon="3.94439">
        <ele>91.598555409224</ele>
        <time>2020-06-06T14:33:36.000Z</time>
      </trkpt>
      <trkpt lat="43.69478" lon="3.94434">
        <ele>91.701754617711</ele>
        <time>2020-06-06T14:33:37.000Z</time>
      </trkpt>
      <trkpt lat="43.69476" lon="3.94428">
        <ele>91.804953826197</ele>
        <time>2020-06-06T14:33:38.000Z</time>
      </trkpt>
      <trkpt lat="43.69475" lon="3.94422">
        <ele>91.908153034684</ele>
        <time>2020-06-06T14:33:39.000Z</time>
      </trkpt>
      <trkpt lat="43.69474" lon="3.94417">
        <ele>91.98899968</ele>
        <time>2020-06-06T14:33:40.000Z</time>
      </trkpt>
      <trkpt lat="43.69473" lon="3.94411">
        <ele>91.88899968</ele>
        <time>2020-06-06T14:33:41.000Z</time>
      </trkpt>
      <trkpt lat="43.69472" lon="3.94406">
        <ele>91.78899968</ele>
        <time>2020-06-06T14:33:42.000Z</time>
      </trkpt>
      <trkpt lat="43.6947" lon="3.94402">
        <ele>91.68899968</ele>
        <time>2020-06-06T14:33:43.000Z</time>
      </trkpt>
      <trkpt lat="43.69469" lon="3.94397">
        <ele>91.58899968</ele>
        <time>2020-06-06T14:33:44.000Z</time>
      </trkpt>
      <trkpt lat="43.69469" lon="3.94393">
        <ele>91.48899968</ele>
        <time>2020-06-06T14:33:45.000Z</time>
      </trkpt>
      <trkpt lat="43.69468" lon="3.9439">
        <ele>91.38899968</ele>
        <time>2020-06-06T14:33:46.000Z</time>
      </trkpt>
      <trkpt lat="43.69468" lon="3.94386">
        <ele>91.28899968</ele>
        <time>2020-06-06T14:33:47.000Z</time>
      </trkpt>
      <trkpt lat="43.69467" lon="3.94383">
        <ele>91.18899968</ele>
        <time>2020-06-06T14:33:48.000Z</time>
      </trkpt>
      <trkpt lat="43.69466" lon="3.9438">
        <ele>91.08899968</ele>
        <time>2020-06-06T14:33:49.000Z</time>
      </trkpt>
      <trkpt lat="43.69465" lon="3.94377">
        <ele>90.98899968</ele>
        <time>2020-06-06T14:33:50.000Z</time>
      </trkpt>
      <trkpt lat="43.69464" lon="3.94374">
        <ele>90.88899968</ele>
        <time>2020-06-06T14:33:51.000Z</time>
      </trkpt>
      <trkpt lat="43.69463" lon="3.94372">
        <ele>90.78899968</ele>
        <time>2020-06-06T14:33:52.000Z</time>
      </trkpt>
      <trkpt lat="43.69462" lon="3.94367">
        <ele>90.58899968</ele>
        <time>2020-06-06T14:33:54.000Z</time>
      </trkpt>
      <trkpt lat="43.69461" lon="3.94363">
        <ele>90.38899968</ele>
        <time>2020-06-06T14:33:56.000Z</time>
      </trkpt>
      <trkpt lat="43.69461" lon="3.9436">
        <ele>90.28899968</ele>
        <time>2020-06-06T14:33:57.000Z</time>
      </trkpt>
      <trkpt lat="43.6946" lon="3.94355">
        <ele>90.08899968</ele>
        <time>2020-06-06T14:33:59.000Z</time>
      </trkpt>
      <trkpt lat="43.69459" lon="3.94353">
        <ele>90</ele>
        <time>2020-06-06T14:34:00.000Z</time>
      </trkpt>
      <trkpt lat="43.69458" lon="3.94351">
        <ele>90</ele>
        <time>2020-06-06T14:34:02.000Z</time>
      </trkpt>
      <trkpt lat="43.69458" lon="3.94352">
        <ele>90</ele>
        <time>2020-06-06T14:34:06.000Z</time>
      </trkpt>
      <trkpt lat="43.69452" lon="3.9435">
        <ele>89.012222103704</ele>
        <time>2020-06-06T14:34:33.000Z</time>
      </trkpt>
      <trkpt lat="43.69449" lon="3.94349">
        <ele>88.861925840235</ele>
        <time>2020-06-06T14:34:34.000Z</time>
      </trkpt>
      <trkpt lat="43.69446" lon="3.94347">
        <ele>88.652720539207</ele>
        <time>2020-06-06T14:34:35.000Z</time>
      </trkpt>
      <trkpt lat="43.69443" lon="3.94346">
        <ele>88.443515238179</ele>
        <time>2020-06-06T14:34:36.000Z</time>
      </trkpt>
      <trkpt lat="43.69439" lon="3.94345">
        <ele>88.234309937151</ele>
        <time>2020-06-06T14:34:37.000Z</time>
      </trkpt>
      <trkpt lat="43.69435" lon="3.94345">
        <ele>88.025104636123</ele>
        <time>2020-06-06T14:34:38.000Z</time>
      </trkpt>
      <trkpt lat="43.69431" lon="3.94347">
        <ele>87.815899335095</ele>
        <time>2020-06-06T14:34:39.000Z</time>
      </trkpt>
      <trkpt lat="43.69427" lon="3.94351">
        <ele>87.606694034067</ele>
        <time>2020-06-06T14:34:40.000Z</time>
      </trkpt>
      <trkpt lat="43.69424" lon="3.94355">
        <ele>87.397488733039</ele>
        <time>2020-06-06T14:34:41.000Z</time>
      </trkpt>
      <trkpt lat="43.6942" lon="3.94357">
        <ele>87.188283432011</ele>
        <time>2020-06-06T14:34:42.000Z</time>
      </trkpt>
      <trkpt lat="43.69416" lon="3.94359">
        <ele>86.98052456303</ele>
        <time>2020-06-06T14:34:43.000Z</time>
      </trkpt>
      <trkpt lat="43.69411" lon="3.94359">
        <ele>86.785782656815</ele>
        <time>2020-06-06T14:34:44.000Z</time>
      </trkpt>
      <trkpt lat="43.69406" lon="3.94358">
        <ele>86.591040750601</ele>
        <time>2020-06-06T14:34:45.000Z</time>
      </trkpt>
      <trkpt lat="43.69401" lon="3.94358">
        <ele>86.396298844386</ele>
        <time>2020-06-06T14:34:46.000Z</time>
      </trkpt>
      <trkpt lat="43.69397" lon="3.94361">
        <ele>86.201556938171</ele>
        <time>2020-06-06T14:34:47.000Z</time>
      </trkpt>
      <trkpt lat="43.69393" lon="3.94365">
        <ele>86.006815031956</ele>
        <time>2020-06-06T14:34:48.000Z</time>
      </trkpt>
      <trkpt lat="43.69389" lon="3.94369">
        <ele>85.812073125742</ele>
        <time>2020-06-06T14:34:49.000Z</time>
      </trkpt>
      <trkpt lat="43.69383" lon="3.94371">
        <ele>85.617331219527</ele>
        <time>2020-06-06T14:34:50.000Z</time>
      </trkpt>
      <trkpt lat="43.69378" lon="3.94372">
        <ele>85.422589313312</ele>
        <time>2020-06-06T14:34:51.000Z</time>
      </trkpt>
      <trkpt lat="43.69373" lon="3.94371">
        <ele>85.227847407097</ele>
        <time>2020-06-06T14:34:52.000Z</time>
      </trkpt>
      <trkpt lat="43.69368" lon="3.94371">
        <ele>85.033105500882</ele>
        <time>2020-06-06T14:34:53.000Z</time>
      </trkpt>
      <trkpt lat="43.69362" lon="3.94372">
        <ele>84.91460872428</ele>
        <time>2020-06-06T14:34:54.000Z</time>
      </trkpt>
      <trkpt lat="43.69357" lon="3.94372">
        <ele>84.811728065844</ele>
        <time>2020-06-06T14:34:55.000Z</time>
      </trkpt>
      <trkpt lat="43.69352" lon="3.94373">
        <ele>84.708847407407</ele>
        <time>2020-06-06T14:34:56.000Z</time>
      </trkpt>
      <trkpt lat="43.69346" lon="3.94374">
        <ele>84.605966748971</ele>
        <time>2020-06-06T14:34:57.000Z</time>
      </trkpt>
      <trkpt lat="43.69341" lon="3.94374">
        <ele>84.503086090535</ele>
        <time>2020-06-06T14:34:58.000Z</time>
      </trkpt>
      <trkpt lat="43.69336" lon="3.94372">
        <ele>84.400205432099</ele>
        <time>2020-06-06T14:34:59.000Z</time>
      </trkpt>
      <trkpt lat="43.69332" lon="3.9437">
        <ele>84.297324773663</ele>
        <time>2020-06-06T14:35:00.000Z</time>
      </trkpt>
      <trkpt lat="43.69329" lon="3.94369">
        <ele>84.194444115226</ele>
        <time>2020-06-06T14:35:01.000Z</time>
      </trkpt>
      <trkpt lat="43.69326" lon="3.94369">
        <ele>84.09156345679</ele>
        <time>2020-06-06T14:35:02.000Z</time>
      </trkpt>
      <trkpt lat="43.69323" lon="3.94369">
        <ele>84</ele>
        <time>2020-06-06T14:35:03.000Z</time>
      </trkpt>
      <trkpt lat="43.6932" lon="3.94368">
        <ele>84</ele>
        <time>2020-06-06T14:35:04.000Z</time>
      </trkpt>
      <trkpt lat="43.69318" lon="3.94367">
        <ele>84</ele>
        <time>2020-06-06T14:35:05.000Z</time>
      </trkpt>
      <trkpt lat="43.69316" lon="3.94367">
        <ele>84</ele>
        <time>2020-06-06T14:35:06.000Z</time>
      </trkpt>
      <trkpt lat="43.69314" lon="3.94367">
        <ele>84</ele>
        <time>2020-06-06T14:35:07.000Z</time>
      </trkpt>
      <trkpt lat="43.69311" lon="3.94368">
        <ele>84</ele>
        <time>2020-06-06T14:35:08.000Z</time>
      </trkpt>
      <trkpt lat="43.69309" lon="3.94368">
        <ele>84</ele>
        <time>2020-06-06T14:35:09.000Z</time>
      </trkpt>
      <trkpt lat="43.69306" lon="3.94369">
        <ele>84</ele>
        <time>2020-06-06T14:35:10.000Z</time>
      </trkpt>
      <trkpt lat="43.69303" lon="3.9437">
        <ele>84</ele>
        <time>2020-06-06T14:35:11.000Z</time>
      </trkpt>
      <trkpt lat="43.693" lon="3.9437">
        <ele>84</ele>
        <time>2020-06-06T14:35:12.000Z</time>
      </trkpt>
      <trkpt lat="43.69298" lon="3.94371">
        <ele>84.01100032</ele>
        <time>2020-06-06T14:35:13.000Z</time>
      </trkpt>
      <trkpt lat="43.69295" lon="3.94371">
        <ele>84.11100032</ele>
        <time>2020-06-06T14:35:14.000Z</time>
      </trkpt>
      <trkpt lat="43.69292" lon="3.94372">
        <ele>84.21100032</ele>
        <time>2020-06-06T14:35:15.000Z</time>
      </trkpt>
      <trkpt lat="43.6929" lon="3.94372">
        <ele>84.31100032</ele>
        <time>2020-06-06T14:35:16.000Z</time>
      </trkpt>
      <trkpt lat="43.69288" lon="3.94373">
        <ele>84.41100032</ele>
        <time>2020-06-06T14:35:17.000Z</time>
      </trkpt>
      <trkpt lat="43.69286" lon="3.94373">
        <ele>84.51100032</ele>
        <time>2020-06-06T14:35:18.000Z</time>
      </trkpt>
      <trkpt lat="43.69284" lon="3.94372">
        <ele>84.61100032</ele>
        <time>2020-06-06T14:35:19.000Z</time>
      </trkpt>
      <trkpt lat="43.69282" lon="3.94371">
        <ele>84.71100032</ele>
        <time>2020-06-06T14:35:20.000Z</time>
      </trkpt>
      <trkpt lat="43.6928" lon="3.94369">
        <ele>84.81100032</ele>
        <time>2020-06-06T14:35:21.000Z</time>
      </trkpt>
      <trkpt lat="43.69278" lon="3.94368">
        <ele>84.91100032</ele>
        <time>2020-06-06T14:35:22.000Z</time>
      </trkpt>
      <trkpt lat="43.69275" lon="3.94368">
        <ele>85.22200064</ele>
        <time>2020-06-06T14:35:24.000Z</time>
      </trkpt>
      <trkpt lat="43.69272" lon="3.94369">
        <ele>85.62200064</ele>
        <time>2020-06-06T14:35:26.000Z</time>
      </trkpt>
      <trkpt lat="43.69269" lon="3.94369">
        <ele>86.02200064</ele>
        <time>2020-06-06T14:35:28.000Z</time>
      </trkpt>
      <trkpt lat="43.69266" lon="3.9437">
        <ele>86.42200064</ele>
        <time>2020-06-06T14:35:30.000Z</time>
      </trkpt>
      <trkpt lat="43.69264" lon="3.9437">
        <ele>86.62200064</ele>
        <time>2020-06-06T14:35:31.000Z</time>
      </trkpt>
      <trkpt lat="43.69262" lon="3.94371">
        <ele>86.82200064</ele>
        <time>2020-06-06T14:35:32.000Z</time>
      </trkpt>
      <trkpt lat="43.69259" lon="3.94371">
        <ele>87</ele>
        <time>2020-06-06T14:35:33.000Z</time>
      </trkpt>
      <trkpt lat="43.69257" lon="3.94372">
        <ele>87</ele>
        <time>2020-06-06T14:35:34.000Z</time>
      </trkpt>
      <trkpt lat="43.69254" lon="3.94373">
        <ele>87</ele>
        <time>2020-06-06T14:35:35.000Z</time>
      </trkpt>
      <trkpt lat="43.69251" lon="3.94373">
        <ele>87</ele>
        <time>2020-06-06T14:35:36.000Z</time>
      </trkpt>
      <trkpt lat="43.69249" lon="3.94374">
        <ele>87</ele>
        <time>2020-06-06T14:35:37.000Z</time>
      </trkpt>
      <trkpt lat="43.69245" lon="3.94374">
        <ele>87</ele>
        <time>2020-06-06T14:35:38.000Z</time>
      </trkpt>
      <trkpt lat="43.69243" lon="3.94375">
        <ele>87</ele>
        <time>2020-06-06T14:35:39.000Z</time>
      </trkpt>
      <trkpt lat="43.6924" lon="3.94376">
        <ele>87</ele>
        <time>2020-06-06T14:35:40.000Z</time>
      </trkpt>
      <trkpt lat="43.69237" lon="3.94376">
        <ele>87</ele>
        <time>2020-06-06T14:35:41.000Z</time>
      </trkpt>
      <trkpt lat="43.69234" lon="3.94376">
        <ele>87</ele>
        <time>2020-06-06T14:35:42.000Z</time>
      </trkpt>
      <trkpt lat="43.69231" lon="3.94375">
        <ele>87.01100032</ele>
        <time>2020-06-06T14:35:43.000Z</time>
      </trkpt>
      <trkpt lat="43.69228" lon="3.94375">
        <ele>87.11100032</ele>
        <time>2020-06-06T14:35:44.000Z</time>
      </trkpt>
      <trkpt lat="43.69226" lon="3.94375">
        <ele>87.21100032</ele>
        <time>2020-06-06T14:35:45.000Z</time>
      </trkpt>
      <trkpt lat="43.69224" lon="3.94375">
        <ele>87.31100032</ele>
        <time>2020-06-06T14:35:46.000Z</time>
      </trkpt>
      <trkpt lat="43.69222" lon="3.94375">
        <ele>87.41100032</ele>
        <time>2020-06-06T14:35:47.000Z</time>
      </trkpt>
      <trkpt lat="43.6922" lon="3.94376">
        <ele>87.51100032</ele>
        <time>2020-06-06T14:35:48.000Z</time>
      </trkpt>
      <trkpt lat="43.69218" lon="3.94376">
        <ele>87.61100032</ele>
        <time>2020-06-06T14:35:49.000Z</time>
      </trkpt>
      <trkpt lat="43.69216" lon="3.94377">
        <ele>87.71100032</ele>
        <time>2020-06-06T14:35:50.000Z</time>
      </trkpt>
      <trkpt lat="43.69214" lon="3.94378">
        <ele>87.81100032</ele>
        <time>2020-06-06T14:35:51.000Z</time>
      </trkpt>
      <trkpt lat="43.69212" lon="3.9438">
        <ele>87.91100032</ele>
        <time>2020-06-06T14:35:52.000Z</time>
      </trkpt>
      <trkpt lat="43.69211" lon="3.94383">
        <ele>87.96699904</ele>
        <time>2020-06-06T14:35:53.000Z</time>
      </trkpt>
      <trkpt lat="43.69209" lon="3.94385">
        <ele>87.66699904</ele>
        <time>2020-06-06T14:35:54.000Z</time>
      </trkpt>
      <trkpt lat="43.69207" lon="3.94389">
        <ele>87.36699904</ele>
        <time>2020-06-06T14:35:55.000Z</time>
      </trkpt>
      <trkpt lat="43.69205" lon="3.94393">
        <ele>87.06699904</ele>
        <time>2020-06-06T14:35:56.000Z</time>
      </trkpt>
      <trkpt lat="43.69203" lon="3.94396">
        <ele>86.76699904</ele>
        <time>2020-06-06T14:35:57.000Z</time>
      </trkpt>
      <trkpt lat="43.692" lon="3.94398">
        <ele>86.46699904</ele>
        <time>2020-06-06T14:35:58.000Z</time>
      </trkpt>
      <trkpt lat="43.69197" lon="3.94397">
        <ele>86.16699904</ele>
        <time>2020-06-06T14:35:59.000Z</time>
      </trkpt>
      <trkpt lat="43.69194" lon="3.94396">
        <ele>85.86699904</ele>
        <time>2020-06-06T14:36:00.000Z</time>
      </trkpt>
      <trkpt lat="43.6919" lon="3.94395">
        <ele>85.56699904</ele>
        <time>2020-06-06T14:36:01.000Z</time>
      </trkpt>
      <trkpt lat="43.69186" lon="3.94394">
        <ele>85.26699904</ele>
        <time>2020-06-06T14:36:02.000Z</time>
      </trkpt>
      <trkpt lat="43.69183" lon="3.94396">
        <ele>84.98899968</ele>
        <time>2020-06-06T14:36:03.000Z</time>
      </trkpt>
      <trkpt lat="43.6918" lon="3.94398">
        <ele>84.88899968</ele>
        <time>2020-06-06T14:36:04.000Z</time>
      </trkpt>
      <trkpt lat="43.69177" lon="3.94401">
        <ele>84.78899968</ele>
        <time>2020-06-06T14:36:05.000Z</time>
      </trkpt>
      <trkpt lat="43.69174" lon="3.94404">
        <ele>84.68899968</ele>
        <time>2020-06-06T14:36:06.000Z</time>
      </trkpt>
      <trkpt lat="43.6917" lon="3.94407">
        <ele>84.58899968</ele>
        <time>2020-06-06T14:36:07.000Z</time>
      </trkpt>
      <trkpt lat="43.69165" lon="3.9441">
        <ele>84.48899968</ele>
        <time>2020-06-06T14:36:08.000Z</time>
      </trkpt>
      <trkpt lat="43.69161" lon="3.94412">
        <ele>84.38899968</ele>
        <time>2020-06-06T14:36:09.000Z</time>
      </trkpt>
      <trkpt lat="43.69157" lon="3.94413">
        <ele>84.28899968</ele>
        <time>2020-06-06T14:36:10.000Z</time>
      </trkpt>
      <trkpt lat="43.69153" lon="3.94414">
        <ele>84.18899968</ele>
        <time>2020-06-06T14:36:11.000Z</time>
      </trkpt>
      <trkpt lat="43.69149" lon="3.94416">
        <ele>84.08899968</ele>
        <time>2020-06-06T14:36:12.000Z</time>
      </trkpt>
      <trkpt lat="43.69145" lon="3.94417">
        <ele>83.98899968</ele>
        <time>2020-06-06T14:36:13.000Z</time>
      </trkpt>
      <trkpt lat="43.69141" lon="3.94418">
        <ele>83.88899968</ele>
        <time>2020-06-06T14:36:14.000Z</time>
      </trkpt>
      <trkpt lat="43.69137" lon="3.9442">
        <ele>83.78899968</ele>
        <time>2020-06-06T14:36:15.000Z</time>
      </trkpt>
      <trkpt lat="43.69133" lon="3.94421">
        <ele>83.68899968</ele>
        <time>2020-06-06T14:36:16.000Z</time>
      </trkpt>
      <trkpt lat="43.69129" lon="3.94422">
        <ele>83.58899968</ele>
        <time>2020-06-06T14:36:17.000Z</time>
      </trkpt>
      <trkpt lat="43.69126" lon="3.94424">
        <ele>83.48899968</ele>
        <time>2020-06-06T14:36:18.000Z</time>
      </trkpt>
      <trkpt lat="43.69124" lon="3.94426">
        <ele>83.38899968</ele>
        <time>2020-06-06T14:36:19.000Z</time>
      </trkpt>
      <trkpt lat="43.69121" lon="3.9443">
        <ele>83.28899968</ele>
        <time>2020-06-06T14:36:20.000Z</time>
      </trkpt>
      <trkpt lat="43.69118" lon="3.94434">
        <ele>83.18899968</ele>
        <time>2020-06-06T14:36:21.000Z</time>
      </trkpt>
      <trkpt lat="43.69115" lon="3.94438">
        <ele>83.08899968</ele>
        <time>2020-06-06T14:36:22.000Z</time>
      </trkpt>
      <trkpt lat="43.69112" lon="3.94443">
        <ele>83</ele>
        <time>2020-06-06T14:36:23.000Z</time>
      </trkpt>
      <trkpt lat="43.69108" lon="3.94446">
        <ele>83</ele>
        <time>2020-06-06T14:36:24.000Z</time>
      </trkpt>
      <trkpt lat="43.69104" lon="3.94449">
        <ele>83</ele>
        <time>2020-06-06T14:36:25.000Z</time>
      </trkpt>
      <trkpt lat="43.691" lon="3.94451">
        <ele>83</ele>
        <time>2020-06-06T14:36:26.000Z</time>
      </trkpt>
      <trkpt lat="43.69096" lon="3.94454">
        <ele>83</ele>
        <time>2020-06-06T14:36:27.000Z</time>
      </trkpt>
      <trkpt lat="43.69091" lon="3.94456">
        <ele>83</ele>
        <time>2020-06-06T14:36:28.000Z</time>
      </trkpt>
      <trkpt lat="43.69087" lon="3.94459">
        <ele>83</ele>
        <time>2020-06-06T14:36:29.000Z</time>
      </trkpt>
      <trkpt lat="43.69083" lon="3.94461">
        <ele>83</ele>
        <time>2020-06-06T14:36:30.000Z</time>
      </trkpt>
      <trkpt lat="43.69078" lon="3.94464">
        <ele>83</ele>
        <time>2020-06-06T14:36:31.000Z</time>
      </trkpt>
      <trkpt lat="43.69074" lon="3.94466">
        <ele>83</ele>
        <time>2020-06-06T14:36:32.000Z</time>
      </trkpt>
      <trkpt lat="43.6907" lon="3.94468">
        <ele>83</ele>
        <time>2020-06-06T14:36:33.000Z</time>
      </trkpt>
      <trkpt lat="43.69065" lon="3.9447">
        <ele>83</ele>
        <time>2020-06-06T14:36:34.000Z</time>
      </trkpt>
      <trkpt lat="43.69061" lon="3.94471">
        <ele>83</ele>
        <time>2020-06-06T14:36:35.000Z</time>
      </trkpt>
      <trkpt lat="43.69057" lon="3.94472">
        <ele>83</ele>
        <time>2020-06-06T14:36:36.000Z</time>
      </trkpt>
      <trkpt lat="43.69054" lon="3.9447">
        <ele>83</ele>
        <time>2020-06-06T14:36:37.000Z</time>
      </trkpt>
      <trkpt lat="43.69051" lon="3.94468">
        <ele>83</ele>
        <time>2020-06-06T14:36:38.000Z</time>
      </trkpt>
      <trkpt lat="43.69049" lon="3.94466">
        <ele>83</ele>
        <time>2020-06-06T14:36:39.000Z</time>
      </trkpt>
      <trkpt lat="43.69047" lon="3.94466">
        <ele>83</ele>
        <time>2020-06-06T14:36:40.000Z</time>
      </trkpt>
      <trkpt lat="43.69045" lon="3.94467">
        <ele>83</ele>
        <time>2020-06-06T14:36:41.000Z</time>
      </trkpt>
      <trkpt lat="43.69043" lon="3.94469">
        <ele>83</ele>
        <time>2020-06-06T14:36:42.000Z</time>
      </trkpt>
      <trkpt lat="43.69041" lon="3.94472">
        <ele>82.98899968</ele>
        <time>2020-06-06T14:36:43.000Z</time>
      </trkpt>
      <trkpt lat="43.69039" lon="3.94476">
        <ele>82.88899968</ele>
        <time>2020-06-06T14:36:44.000Z</time>
      </trkpt>
      <trkpt lat="43.69036" lon="3.9448">
        <ele>82.78899968</ele>
        <time>2020-06-06T14:36:45.000Z</time>
      </trkpt>
      <trkpt lat="43.69034" lon="3.94484">
        <ele>82.68899968</ele>
        <time>2020-06-06T14:36:46.000Z</time>
      </trkpt>
      <trkpt lat="43.69031" lon="3.94486">
        <ele>82.58899968</ele>
        <time>2020-06-06T14:36:47.000Z</time>
      </trkpt>
      <trkpt lat="43.69028" lon="3.94489">
        <ele>82.48899968</ele>
        <time>2020-06-06T14:36:48.000Z</time>
      </trkpt>
      <trkpt lat="43.69024" lon="3.94492">
        <ele>82.38899968</ele>
        <time>2020-06-06T14:36:49.000Z</time>
      </trkpt>
      <trkpt lat="43.69021" lon="3.94495">
        <ele>82.28899968</ele>
        <time>2020-06-06T14:36:50.000Z</time>
      </trkpt>
      <trkpt lat="43.69017" lon="3.94498">
        <ele>82.18899968</ele>
        <time>2020-06-06T14:36:51.000Z</time>
      </trkpt>
      <trkpt lat="43.69013" lon="3.945">
        <ele>82.08899968</ele>
        <time>2020-06-06T14:36:52.000Z</time>
      </trkpt>
      <trkpt lat="43.69008" lon="3.94503">
        <ele>82</ele>
        <time>2020-06-06T14:36:53.000Z</time>
      </trkpt>
      <trkpt lat="43.69003" lon="3.94505">
        <ele>82</ele>
        <time>2020-06-06T14:36:54.000Z</time>
      </trkpt>
      <trkpt lat="43.68999" lon="3.94509">
        <ele>82</ele>
        <time>2020-06-06T14:36:55.000Z</time>
      </trkpt>
      <trkpt lat="43.68995" lon="3.94512">
        <ele>82</ele>
        <time>2020-06-06T14:36:56.000Z</time>
      </trkpt>
      <trkpt lat="43.68992" lon="3.94515">
        <ele>82</ele>
        <time>2020-06-06T14:36:57.000Z</time>
      </trkpt>
      <trkpt lat="43.68987" lon="3.94517">
        <ele>82</ele>
        <time>2020-06-06T14:36:58.000Z</time>
      </trkpt>
      <trkpt lat="43.68983" lon="3.94519">
        <ele>82</ele>
        <time>2020-06-06T14:36:59.000Z</time>
      </trkpt>
      <trkpt lat="43.68978" lon="3.94521">
        <ele>82</ele>
        <time>2020-06-06T14:37:00.000Z</time>
      </trkpt>
      <trkpt lat="43.68973" lon="3.94523">
        <ele>82</ele>
        <time>2020-06-06T14:37:01.000Z</time>
      </trkpt>
      <trkpt lat="43.68968" lon="3.94526">
        <ele>82</ele>
        <time>2020-06-06T14:37:02.000Z</time>
      </trkpt>
      <trkpt lat="43.68963" lon="3.94529">
        <ele>81.96699904</ele>
        <time>2020-06-06T14:37:03.000Z</time>
      </trkpt>
      <trkpt lat="43.68958" lon="3.94532">
        <ele>81.66699904</ele>
        <time>2020-06-06T14:37:04.000Z</time>
      </trkpt>
      <trkpt lat="43.68953" lon="3.94536">
        <ele>81.36699904</ele>
        <time>2020-06-06T14:37:05.000Z</time>
      </trkpt>
      <trkpt lat="43.68948" lon="3.9454">
        <ele>81.06699904</ele>
        <time>2020-06-06T14:37:06.000Z</time>
      </trkpt>
      <trkpt lat="43.68943" lon="3.94543">
        <ele>80.76699904</ele>
        <time>2020-06-06T14:37:07.000Z</time>
      </trkpt>
      <trkpt lat="43.68938" lon="3.94547">
        <ele>80.46699904</ele>
        <time>2020-06-06T14:37:08.000Z</time>
      </trkpt>
      <trkpt lat="43.68933" lon="3.94551">
        <ele>80.16699904</ele>
        <time>2020-06-06T14:37:09.000Z</time>
      </trkpt>
      <trkpt lat="43.68927" lon="3.94554">
        <ele>79.86699904</ele>
        <time>2020-06-06T14:37:10.000Z</time>
      </trkpt>
      <trkpt lat="43.68922" lon="3.94555">
        <ele>79.56699904</ele>
        <time>2020-06-06T14:37:11.000Z</time>
      </trkpt>
      <trkpt lat="43.68918" lon="3.94555">
        <ele>79.26699904</ele>
        <time>2020-06-06T14:37:12.000Z</time>
      </trkpt>
      <trkpt lat="43.68914" lon="3.94553">
        <ele>78.97799936</ele>
        <time>2020-06-06T14:37:13.000Z</time>
      </trkpt>
      <trkpt lat="43.68911" lon="3.94552">
        <ele>78.77799936</ele>
        <time>2020-06-06T14:37:14.000Z</time>
      </trkpt>
      <trkpt lat="43.68909" lon="3.9455">
        <ele>78.57799936</ele>
        <time>2020-06-06T14:37:15.000Z</time>
      </trkpt>
      <trkpt lat="43.68907" lon="3.94548">
        <ele>78.37799936</ele>
        <time>2020-06-06T14:37:16.000Z</time>
      </trkpt>
      <trkpt lat="43.68906" lon="3.94546">
        <ele>78.17799936</ele>
        <time>2020-06-06T14:37:17.000Z</time>
      </trkpt>
      <trkpt lat="43.68904" lon="3.94544">
        <ele>77.97799936</ele>
        <time>2020-06-06T14:37:18.000Z</time>
      </trkpt>
      <trkpt lat="43.68901" lon="3.94542">
        <ele>77.77799936</ele>
        <time>2020-06-06T14:37:19.000Z</time>
      </trkpt>
      <trkpt lat="43.68899" lon="3.94541">
        <ele>77.57799936</ele>
        <time>2020-06-06T14:37:20.000Z</time>
      </trkpt>
      <trkpt lat="43.68896" lon="3.9454">
        <ele>77.37799936</ele>
        <time>2020-06-06T14:37:21.000Z</time>
      </trkpt>
      <trkpt lat="43.68893" lon="3.94539">
        <ele>77.17799936</ele>
        <time>2020-06-06T14:37:22.000Z</time>
      </trkpt>
      <trkpt lat="43.68891" lon="3.9454">
        <ele>76.96699904</ele>
        <time>2020-06-06T14:37:23.000Z</time>
      </trkpt>
      <trkpt lat="43.68888" lon="3.9454">
        <ele>76.66699904</ele>
        <time>2020-06-06T14:37:24.000Z</time>
      </trkpt>
      <trkpt lat="43.68885" lon="3.94541">
        <ele>76.36699904</ele>
        <time>2020-06-06T14:37:25.000Z</time>
      </trkpt>
      <trkpt lat="43.68882" lon="3.94541">
        <ele>76.06699904</ele>
        <time>2020-06-06T14:37:26.000Z</time>
      </trkpt>
      <trkpt lat="43.68879" lon="3.94543">
        <ele>75.76699904</ele>
        <time>2020-06-06T14:37:27.000Z</time>
      </trkpt>
      <trkpt lat="43.68876" lon="3.94545">
        <ele>75.46699904</ele>
        <time>2020-06-06T14:37:28.000Z</time>
      </trkpt>
      <trkpt lat="43.68873" lon="3.94549">
        <ele>75.16699904</ele>
        <time>2020-06-06T14:37:29.000Z</time>
      </trkpt>
      <trkpt lat="43.6887" lon="3.94553">
        <ele>74.86699904</ele>
        <time>2020-06-06T14:37:30.000Z</time>
      </trkpt>
      <trkpt lat="43.68868" lon="3.94558">
        <ele>74.56699904</ele>
        <time>2020-06-06T14:37:31.000Z</time>
      </trkpt>
      <trkpt lat="43.68866" lon="3.94562">
        <ele>74.26699904</ele>
        <time>2020-06-06T14:37:32.000Z</time>
      </trkpt>
      <trkpt lat="43.68866" lon="3.94566">
        <ele>73.967614377197</ele>
        <time>2020-06-06T14:37:33.000Z</time>
      </trkpt>
      <trkpt lat="43.68866" lon="3.9457">
        <ele>73.673208188983</ele>
        <time>2020-06-06T14:37:34.000Z</time>
      </trkpt>
      <trkpt lat="43.68866" lon="3.94574">
        <ele>73.378802000769</ele>
        <time>2020-06-06T14:37:35.000Z</time>
      </trkpt>
      <trkpt lat="43.68867" lon="3.94577">
        <ele>73.084395812555</ele>
        <time>2020-06-06T14:37:36.000Z</time>
      </trkpt>
      <trkpt lat="43.68868" lon="3.9458">
        <ele>72.789989624341</ele>
        <time>2020-06-06T14:37:37.000Z</time>
      </trkpt>
      <trkpt lat="43.6887" lon="3.94583">
        <ele>72.495583436127</ele>
        <time>2020-06-06T14:37:38.000Z</time>
      </trkpt>
      <trkpt lat="43.68871" lon="3.94586">
        <ele>72.201177247913</ele>
        <time>2020-06-06T14:37:39.000Z</time>
      </trkpt>
      <trkpt lat="43.68871" lon="3.9459">
        <ele>71.906771059699</ele>
        <time>2020-06-06T14:37:40.000Z</time>
      </trkpt>
      <trkpt lat="43.68869" lon="3.94594">
        <ele>71.612364871485</ele>
        <time>2020-06-06T14:37:41.000Z</time>
      </trkpt>
      <trkpt lat="43.68867" lon="3.94595">
        <ele>71.317958683271</ele>
        <time>2020-06-06T14:37:42.000Z</time>
      </trkpt>
      <trkpt lat="43.68864" lon="3.94596">
        <ele>71.023552495057</ele>
        <time>2020-06-06T14:37:43.000Z</time>
      </trkpt>
      <trkpt lat="43.68861" lon="3.94597">
        <ele>70.909090909091</ele>
        <time>2020-06-06T14:37:44.000Z</time>
      </trkpt>
      <trkpt lat="43.68858" lon="3.94599">
        <ele>70.810276679842</ele>
        <time>2020-06-06T14:37:45.000Z</time>
      </trkpt>
      <trkpt lat="43.68855" lon="3.94601">
        <ele>70.711462450593</ele>
        <time>2020-06-06T14:37:46.000Z</time>
      </trkpt>
      <trkpt lat="43.68852" lon="3.94604">
        <ele>70.612648221344</ele>
        <time>2020-06-06T14:37:47.000Z</time>
      </trkpt>
      <trkpt lat="43.68849" lon="3.94607">
        <ele>70.513833992095</ele>
        <time>2020-06-06T14:37:48.000Z</time>
      </trkpt>
      <trkpt lat="43.68846" lon="3.94609">
        <ele>70.415019762846</ele>
        <time>2020-06-06T14:37:49.000Z</time>
      </trkpt>
      <trkpt lat="43.68843" lon="3.94612">
        <ele>70.316205533597</ele>
        <time>2020-06-06T14:37:50.000Z</time>
      </trkpt>
      <trkpt lat="43.68841" lon="3.94614">
        <ele>70.217391304348</ele>
        <time>2020-06-06T14:37:51.000Z</time>
      </trkpt>
      <trkpt lat="43.68838" lon="3.94616">
        <ele>70.118577075099</ele>
        <time>2020-06-06T14:37:52.000Z</time>
      </trkpt>
      <trkpt lat="43.68835" lon="3.94618">
        <ele>70.01976284585</ele>
        <time>2020-06-06T14:37:53.000Z</time>
      </trkpt>
      <trkpt lat="43.68832" lon="3.9462">
        <ele>70</ele>
        <time>2020-06-06T14:37:54.000Z</time>
      </trkpt>
      <trkpt lat="43.68829" lon="3.94623">
        <ele>70</ele>
        <time>2020-06-06T14:37:55.000Z</time>
      </trkpt>
      <trkpt lat="43.68826" lon="3.94625">
        <ele>70</ele>
        <time>2020-06-06T14:37:56.000Z</time>
      </trkpt>
      <trkpt lat="43.68822" lon="3.94628">
        <ele>70</ele>
        <time>2020-06-06T14:37:57.000Z</time>
      </trkpt>
      <trkpt lat="43.68819" lon="3.94631">
        <ele>70</ele>
        <time>2020-06-06T14:37:58.000Z</time>
      </trkpt>
      <trkpt lat="43.68816" lon="3.94634">
        <ele>70</ele>
        <time>2020-06-06T14:37:59.000Z</time>
      </trkpt>
      <trkpt lat="43.68813" lon="3.94637">
        <ele>70</ele>
        <time>2020-06-06T14:38:00.000Z</time>
      </trkpt>
      <trkpt lat="43.6881" lon="3.9464">
        <ele>70</ele>
        <time>2020-06-06T14:38:01.000Z</time>
      </trkpt>
      <trkpt lat="43.68806" lon="3.94643">
        <ele>70</ele>
        <time>2020-06-06T14:38:02.000Z</time>
      </trkpt>
      <trkpt lat="43.68803" lon="3.94646">
        <ele>70</ele>
        <time>2020-06-06T14:38:03.000Z</time>
      </trkpt>
      <trkpt lat="43.68799" lon="3.94649">
        <ele>69.916245920082</ele>
        <time>2020-06-06T14:38:04.000Z</time>
      </trkpt>
      <trkpt lat="43.68796" lon="3.94652">
        <ele>69.815337779104</ele>
        <time>2020-06-06T14:38:05.000Z</time>
      </trkpt>
      <trkpt lat="43.68792" lon="3.94655">
        <ele>69.714429638126</ele>
        <time>2020-06-06T14:38:06.000Z</time>
      </trkpt>
      <trkpt lat="43.68788" lon="3.94657">
        <ele>69.613521497147</ele>
        <time>2020-06-06T14:38:07.000Z</time>
      </trkpt>
      <trkpt lat="43.68784" lon="3.9466">
        <ele>69.512613356169</ele>
        <time>2020-06-06T14:38:08.000Z</time>
      </trkpt>
      <trkpt lat="43.68781" lon="3.94662">
        <ele>69.411705215191</ele>
        <time>2020-06-06T14:38:09.000Z</time>
      </trkpt>
      <trkpt lat="43.68777" lon="3.94664">
        <ele>69.310797074213</ele>
        <time>2020-06-06T14:38:10.000Z</time>
      </trkpt>
      <trkpt lat="43.68774" lon="3.94665">
        <ele>69.209888933235</ele>
        <time>2020-06-06T14:38:11.000Z</time>
      </trkpt>
      <trkpt lat="43.6877" lon="3.94667">
        <ele>69.108980792257</ele>
        <time>2020-06-06T14:38:12.000Z</time>
      </trkpt>
      <trkpt lat="43.68767" lon="3.94668">
        <ele>69.008072651278</ele>
        <time>2020-06-06T14:38:13.000Z</time>
      </trkpt>
      <trkpt lat="43.68765" lon="3.94669">
        <ele>69</ele>
        <time>2020-06-06T14:38:14.000Z</time>
      </trkpt>
      <trkpt lat="43.68763" lon="3.94669">
        <ele>69</ele>
        <time>2020-06-06T14:38:15.000Z</time>
      </trkpt>
      <trkpt lat="43.68761" lon="3.94669">
        <ele>69</ele>
        <time>2020-06-06T14:38:16.000Z</time>
      </trkpt>
      <trkpt lat="43.68758" lon="3.94669">
        <ele>69</ele>
        <time>2020-06-06T14:38:17.000Z</time>
      </trkpt>
      <trkpt lat="43.68755" lon="3.94669">
        <ele>69</ele>
        <time>2020-06-06T14:38:18.000Z</time>
      </trkpt>
      <trkpt lat="43.68753" lon="3.94669">
        <ele>69</ele>
        <time>2020-06-06T14:38:19.000Z</time>
      </trkpt>
      <trkpt lat="43.6875" lon="3.9467">
        <ele>69</ele>
        <time>2020-06-06T14:38:20.000Z</time>
      </trkpt>
      <trkpt lat="43.68747" lon="3.9467">
        <ele>69</ele>
        <time>2020-06-06T14:38:21.000Z</time>
      </trkpt>
      <trkpt lat="43.68745" lon="3.94671">
        <ele>69</ele>
        <time>2020-06-06T14:38:22.000Z</time>
      </trkpt>
      <trkpt lat="43.68743" lon="3.94672">
        <ele>69</ele>
        <time>2020-06-06T14:38:23.000Z</time>
      </trkpt>
      <trkpt lat="43.6874" lon="3.94673">
        <ele>69</ele>
        <time>2020-06-06T14:38:24.000Z</time>
      </trkpt>
      <trkpt lat="43.68738" lon="3.94673">
        <ele>69</ele>
        <time>2020-06-06T14:38:25.000Z</time>
      </trkpt>
      <trkpt lat="43.68735" lon="3.94675">
        <ele>69</ele>
        <time>2020-06-06T14:38:26.000Z</time>
      </trkpt>
      <trkpt lat="43.68732" lon="3.94676">
        <ele>69</ele>
        <time>2020-06-06T14:38:27.000Z</time>
      </trkpt>
      <trkpt lat="43.6873" lon="3.94678">
        <ele>69</ele>
        <time>2020-06-06T14:38:28.000Z</time>
      </trkpt>
      <trkpt lat="43.68727" lon="3.9468">
        <ele>69</ele>
        <time>2020-06-06T14:38:29.000Z</time>
      </trkpt>
      <trkpt lat="43.68724" lon="3.94682">
        <ele>69</ele>
        <time>2020-06-06T14:38:30.000Z</time>
      </trkpt>
      <trkpt lat="43.68721" lon="3.94683">
        <ele>69</ele>
        <time>2020-06-06T14:38:31.000Z</time>
      </trkpt>
      <trkpt lat="43.68718" lon="3.94685">
        <ele>69</ele>
        <time>2020-06-06T14:38:32.000Z</time>
      </trkpt>
      <trkpt lat="43.68715" lon="3.94687">
        <ele>68.98899968</ele>
        <time>2020-06-06T14:38:33.000Z</time>
      </trkpt>
      <trkpt lat="43.68713" lon="3.94689">
        <ele>68.88899968</ele>
        <time>2020-06-06T14:38:34.000Z</time>
      </trkpt>
      <trkpt lat="43.6871" lon="3.94691">
        <ele>68.78899968</ele>
        <time>2020-06-06T14:38:35.000Z</time>
      </trkpt>
      <trkpt lat="43.68707" lon="3.94693">
        <ele>68.68899968</ele>
        <time>2020-06-06T14:38:36.000Z</time>
      </trkpt>
      <trkpt lat="43.68705" lon="3.94696">
        <ele>68.58899968</ele>
        <time>2020-06-06T14:38:37.000Z</time>
      </trkpt>
      <trkpt lat="43.68702" lon="3.94698">
        <ele>68.48899968</ele>
        <time>2020-06-06T14:38:38.000Z</time>
      </trkpt>
      <trkpt lat="43.68699" lon="3.94701">
        <ele>68.38899968</ele>
        <time>2020-06-06T14:38:39.000Z</time>
      </trkpt>
      <trkpt lat="43.68696" lon="3.94704">
        <ele>68.28899968</ele>
        <time>2020-06-06T14:38:40.000Z</time>
      </trkpt>
      <trkpt lat="43.68693" lon="3.94707">
        <ele>68.18899968</ele>
        <time>2020-06-06T14:38:41.000Z</time>
      </trkpt>
      <trkpt lat="43.68689" lon="3.9471">
        <ele>68.08899968</ele>
        <time>2020-06-06T14:38:42.000Z</time>
      </trkpt>
      <trkpt lat="43.68686" lon="3.94713">
        <ele>67.98899968</ele>
        <time>2020-06-06T14:38:43.000Z</time>
      </trkpt>
      <trkpt lat="43.68682" lon="3.94717">
        <ele>67.88899968</ele>
        <time>2020-06-06T14:38:44.000Z</time>
      </trkpt>
      <trkpt lat="43.68677" lon="3.9472">
        <ele>67.78899968</ele>
        <time>2020-06-06T14:38:45.000Z</time>
      </trkpt>
      <trkpt lat="43.68673" lon="3.94723">
        <ele>67.68899968</ele>
        <time>2020-06-06T14:38:46.000Z</time>
      </trkpt>
      <trkpt lat="43.68669" lon="3.94727">
        <ele>67.58899968</ele>
        <time>2020-06-06T14:38:47.000Z</time>
      </trkpt>
      <trkpt lat="43.68664" lon="3.9473">
        <ele>67.48899968</ele>
        <time>2020-06-06T14:38:48.000Z</time>
      </trkpt>
      <trkpt lat="43.6866" lon="3.94733">
        <ele>67.38899968</ele>
        <time>2020-06-06T14:38:49.000Z</time>
      </trkpt>
      <trkpt lat="43.68656" lon="3.94737">
        <ele>67.28899968</ele>
        <time>2020-06-06T14:38:50.000Z</time>
      </trkpt>
      <trkpt lat="43.68652" lon="3.9474">
        <ele>67.18899968</ele>
        <time>2020-06-06T14:38:51.000Z</time>
      </trkpt>
      <trkpt lat="43.68648" lon="3.94744">
        <ele>67.08899968</ele>
        <time>2020-06-06T14:38:52.000Z</time>
      </trkpt>
      <trkpt lat="43.68644" lon="3.94747">
        <ele>66.98899968</ele>
        <time>2020-06-06T14:38:53.000Z</time>
      </trkpt>
      <trkpt lat="43.6864" lon="3.94751">
        <ele>66.88899968</ele>
        <time>2020-06-06T14:38:54.000Z</time>
      </trkpt>
      <trkpt lat="43.68636" lon="3.94754">
        <ele>66.78899968</ele>
        <time>2020-06-06T14:38:55.000Z</time>
      </trkpt>
      <trkpt lat="43.68632" lon="3.94757">
        <ele>66.68899968</ele>
        <time>2020-06-06T14:38:56.000Z</time>
      </trkpt>
      <trkpt lat="43.68628" lon="3.9476">
        <ele>66.58899968</ele>
        <time>2020-06-06T14:38:57.000Z</time>
      </trkpt>
      <trkpt lat="43.68625" lon="3.94763">
        <ele>66.48899968</ele>
        <time>2020-06-06T14:38:58.000Z</time>
      </trkpt>
      <trkpt lat="43.68621" lon="3.94767">
        <ele>66.38899968</ele>
        <time>2020-06-06T14:38:59.000Z</time>
      </trkpt>
      <trkpt lat="43.68616" lon="3.94771">
        <ele>66.28899968</ele>
        <time>2020-06-06T14:39:00.000Z</time>
      </trkpt>
      <trkpt lat="43.68612" lon="3.94775">
        <ele>66.18899968</ele>
        <time>2020-06-06T14:39:01.000Z</time>
      </trkpt>
      <trkpt lat="43.68608" lon="3.9478">
        <ele>66.08899968</ele>
        <time>2020-06-06T14:39:02.000Z</time>
      </trkpt>
      <trkpt lat="43.68603" lon="3.94785">
        <ele>65.989215372549</ele>
        <time>2020-06-06T14:39:03.000Z</time>
      </trkpt>
      <trkpt lat="43.68599" lon="3.9479">
        <ele>65.891176156863</ele>
        <time>2020-06-06T14:39:04.000Z</time>
      </trkpt>
      <trkpt lat="43.68594" lon="3.94795">
        <ele>65.793136941176</ele>
        <time>2020-06-06T14:39:05.000Z</time>
      </trkpt>
      <trkpt lat="43.6859" lon="3.94799">
        <ele>65.69509772549</ele>
        <time>2020-06-06T14:39:06.000Z</time>
      </trkpt>
      <trkpt lat="43.68586" lon="3.94803">
        <ele>65.597058509804</ele>
        <time>2020-06-06T14:39:07.000Z</time>
      </trkpt>
      <trkpt lat="43.68582" lon="3.94807">
        <ele>65.499019294118</ele>
        <time>2020-06-06T14:39:08.000Z</time>
      </trkpt>
      <trkpt lat="43.68578" lon="3.94811">
        <ele>65.400980078431</ele>
        <time>2020-06-06T14:39:09.000Z</time>
      </trkpt>
      <trkpt lat="43.68574" lon="3.94815">
        <ele>65.302940862745</ele>
        <time>2020-06-06T14:39:10.000Z</time>
      </trkpt>
      <trkpt lat="43.6857" lon="3.94818">
        <ele>65.204901647059</ele>
        <time>2020-06-06T14:39:11.000Z</time>
      </trkpt>
      <trkpt lat="43.68566" lon="3.94822">
        <ele>65.106862431373</ele>
        <time>2020-06-06T14:39:12.000Z</time>
      </trkpt>
      <trkpt lat="43.68563" lon="3.94825">
        <ele>65.008823215686</ele>
        <time>2020-06-06T14:39:13.000Z</time>
      </trkpt>
      <trkpt lat="43.68559" lon="3.94828">
        <ele>64.90981146341</ele>
        <time>2020-06-06T14:39:14.000Z</time>
      </trkpt>
      <trkpt lat="43.68556" lon="3.94831">
        <ele>64.810703529955</ele>
        <time>2020-06-06T14:39:15.000Z</time>
      </trkpt>
      <trkpt lat="43.68553" lon="3.94834">
        <ele>64.7115955965</ele>
        <time>2020-06-06T14:39:16.000Z</time>
      </trkpt>
      <trkpt lat="43.6855" lon="3.94837">
        <ele>64.612487663044</ele>
        <time>2020-06-06T14:39:17.000Z</time>
      </trkpt>
      <trkpt lat="43.68547" lon="3.94839">
        <ele>64.513379729589</ele>
        <time>2020-06-06T14:39:18.000Z</time>
      </trkpt>
      <trkpt lat="43.68544" lon="3.94842">
        <ele>64.414271796134</ele>
        <time>2020-06-06T14:39:19.000Z</time>
      </trkpt>
      <trkpt lat="43.68541" lon="3.94845">
        <ele>64.315163862679</ele>
        <time>2020-06-06T14:39:20.000Z</time>
      </trkpt>
      <trkpt lat="43.68538" lon="3.94847">
        <ele>64.216055929223</ele>
        <time>2020-06-06T14:39:21.000Z</time>
      </trkpt>
      <trkpt lat="43.68535" lon="3.9485">
        <ele>64.116947995768</ele>
        <time>2020-06-06T14:39:22.000Z</time>
      </trkpt>
      <trkpt lat="43.68532" lon="3.94852">
        <ele>64.017840062313</ele>
        <time>2020-06-06T14:39:23.000Z</time>
      </trkpt>
      <trkpt lat="43.68529" lon="3.94855">
        <ele>64</ele>
        <time>2020-06-06T14:39:24.000Z</time>
      </trkpt>
      <trkpt lat="43.68526" lon="3.94858">
        <ele>64</ele>
        <time>2020-06-06T14:39:25.000Z</time>
      </trkpt>
      <trkpt lat="43.68523" lon="3.9486">
        <ele>64</ele>
        <time>2020-06-06T14:39:26.000Z</time>
      </trkpt>
      <trkpt lat="43.68519" lon="3.94863">
        <ele>64</ele>
        <time>2020-06-06T14:39:27.000Z</time>
      </trkpt>
      <trkpt lat="43.68516" lon="3.94866">
        <ele>64</ele>
        <time>2020-06-06T14:39:28.000Z</time>
      </trkpt>
      <trkpt lat="43.68513" lon="3.94869">
        <ele>64</ele>
        <time>2020-06-06T14:39:29.000Z</time>
      </trkpt>
      <trkpt lat="43.6851" lon="3.94872">
        <ele>64</ele>
        <time>2020-06-06T14:39:30.000Z</time>
      </trkpt>
      <trkpt lat="43.68507" lon="3.94874">
        <ele>64</ele>
        <time>2020-06-06T14:39:31.000Z</time>
      </trkpt>
      <trkpt lat="43.68504" lon="3.94877">
        <ele>64</ele>
        <time>2020-06-06T14:39:32.000Z</time>
      </trkpt>
      <trkpt lat="43.68502" lon="3.9488">
        <ele>64</ele>
        <time>2020-06-06T14:39:33.000Z</time>
      </trkpt>
      <trkpt lat="43.68499" lon="3.94882">
        <ele>64</ele>
        <time>2020-06-06T14:39:34.000Z</time>
      </trkpt>
      <trkpt lat="43.68496" lon="3.94885">
        <ele>64</ele>
        <time>2020-06-06T14:39:35.000Z</time>
      </trkpt>
      <trkpt lat="43.68493" lon="3.94887">
        <ele>64</ele>
        <time>2020-06-06T14:39:36.000Z</time>
      </trkpt>
      <trkpt lat="43.6849" lon="3.9489">
        <ele>64</ele>
        <time>2020-06-06T14:39:37.000Z</time>
      </trkpt>
      <trkpt lat="43.68487" lon="3.94892">
        <ele>64</ele>
        <time>2020-06-06T14:39:38.000Z</time>
      </trkpt>
      <trkpt lat="43.68485" lon="3.94895">
        <ele>64</ele>
        <time>2020-06-06T14:39:39.000Z</time>
      </trkpt>
      <trkpt lat="43.68482" lon="3.94897">
        <ele>64</ele>
        <time>2020-06-06T14:39:40.000Z</time>
      </trkpt>
      <trkpt lat="43.68479" lon="3.949">
        <ele>64</ele>
        <time>2020-06-06T14:39:41.000Z</time>
      </trkpt>
      <trkpt lat="43.68476" lon="3.94903">
        <ele>64</ele>
        <time>2020-06-06T14:39:42.000Z</time>
      </trkpt>
      <trkpt lat="43.68474" lon="3.94906">
        <ele>64</ele>
        <time>2020-06-06T14:39:43.000Z</time>
      </trkpt>
      <trkpt lat="43.68471" lon="3.94908">
        <ele>64</ele>
        <time>2020-06-06T14:39:44.000Z</time>
      </trkpt>
      <trkpt lat="43.68468" lon="3.9491">
        <ele>64</ele>
        <time>2020-06-06T14:39:45.000Z</time>
      </trkpt>
      <trkpt lat="43.68465" lon="3.94912">
        <ele>64</ele>
        <time>2020-06-06T14:39:46.000Z</time>
      </trkpt>
      <trkpt lat="43.68462" lon="3.94915">
        <ele>64</ele>
        <time>2020-06-06T14:39:47.000Z</time>
      </trkpt>
      <trkpt lat="43.68459" lon="3.94917">
        <ele>64</ele>
        <time>2020-06-06T14:39:48.000Z</time>
      </trkpt>
      <trkpt lat="43.68457" lon="3.94919">
        <ele>64</ele>
        <time>2020-06-06T14:39:49.000Z</time>
      </trkpt>
      <trkpt lat="43.68454" lon="3.94921">
        <ele>64</ele>
        <time>2020-06-06T14:39:50.000Z</time>
      </trkpt>
      <trkpt lat="43.68452" lon="3.94923">
        <ele>64</ele>
        <time>2020-06-06T14:39:51.000Z</time>
      </trkpt>
      <trkpt lat="43.68449" lon="3.94926">
        <ele>64</ele>
        <time>2020-06-06T14:39:52.000Z</time>
      </trkpt>
      <trkpt lat="43.68447" lon="3.94928">
        <ele>64</ele>
        <time>2020-06-06T14:39:53.000Z</time>
      </trkpt>
      <trkpt lat="43.68444" lon="3.9493">
        <ele>64</ele>
        <time>2020-06-06T14:39:54.000Z</time>
      </trkpt>
      <trkpt lat="43.68441" lon="3.94933">
        <ele>64</ele>
        <time>2020-06-06T14:39:55.000Z</time>
      </trkpt>
      <trkpt lat="43.68438" lon="3.94935">
        <ele>64</ele>
        <time>2020-06-06T14:39:56.000Z</time>
      </trkpt>
      <trkpt lat="43.68435" lon="3.94938">
        <ele>64</ele>
        <time>2020-06-06T14:39:57.000Z</time>
      </trkpt>
      <trkpt lat="43.68433" lon="3.9494">
        <ele>64</ele>
        <time>2020-06-06T14:39:58.000Z</time>
      </trkpt>
      <trkpt lat="43.6843" lon="3.94943">
        <ele>64</ele>
        <time>2020-06-06T14:39:59.000Z</time>
      </trkpt>
      <trkpt lat="43.68427" lon="3.94946">
        <ele>64</ele>
        <time>2020-06-06T14:40:00.000Z</time>
      </trkpt>
      <trkpt lat="43.68424" lon="3.94949">
        <ele>64</ele>
        <time>2020-06-06T14:40:01.000Z</time>
      </trkpt>
      <trkpt lat="43.68421" lon="3.94952">
        <ele>64</ele>
        <time>2020-06-06T14:40:02.000Z</time>
      </trkpt>
      <trkpt lat="43.68419" lon="3.94955">
        <ele>64</ele>
        <time>2020-06-06T14:40:03.000Z</time>
      </trkpt>
      <trkpt lat="43.68416" lon="3.94958">
        <ele>64</ele>
        <time>2020-06-06T14:40:04.000Z</time>
      </trkpt>
      <trkpt lat="43.68414" lon="3.94961">
        <ele>64</ele>
        <time>2020-06-06T14:40:05.000Z</time>
      </trkpt>
      <trkpt lat="43.68412" lon="3.94964">
        <ele>64</ele>
        <time>2020-06-06T14:40:06.000Z</time>
      </trkpt>
      <trkpt lat="43.68411" lon="3.94968">
        <ele>64</ele>
        <time>2020-06-06T14:40:07.000Z</time>
      </trkpt>
      <trkpt lat="43.68409" lon="3.94972">
        <ele>64</ele>
        <time>2020-06-06T14:40:08.000Z</time>
      </trkpt>
      <trkpt lat="43.68408" lon="3.94977">
        <ele>64</ele>
        <time>2020-06-06T14:40:09.000Z</time>
      </trkpt>
      <trkpt lat="43.68408" lon="3.94982">
        <ele>64</ele>
        <time>2020-06-06T14:40:10.000Z</time>
      </trkpt>
      <trkpt lat="43.68407" lon="3.94987">
        <ele>64</ele>
        <time>2020-06-06T14:40:11.000Z</time>
      </trkpt>
      <trkpt lat="43.68406" lon="3.94992">
        <ele>64</ele>
        <time>2020-06-06T14:40:12.000Z</time>
      </trkpt>
      <trkpt lat="43.68405" lon="3.94998">
        <ele>64.01100032</ele>
        <time>2020-06-06T14:40:13.000Z</time>
      </trkpt>
      <trkpt lat="43.68404" lon="3.95003">
        <ele>64.11100032</ele>
        <time>2020-06-06T14:40:14.000Z</time>
      </trkpt>
      <trkpt lat="43.68402" lon="3.95007">
        <ele>64.21100032</ele>
        <time>2020-06-06T14:40:15.000Z</time>
      </trkpt>
      <trkpt lat="43.684" lon="3.95012">
        <ele>64.31100032</ele>
        <time>2020-06-06T14:40:16.000Z</time>
      </trkpt>
      <trkpt lat="43.68398" lon="3.95016">
        <ele>64.41100032</ele>
        <time>2020-06-06T14:40:17.000Z</time>
      </trkpt>
      <trkpt lat="43.68395" lon="3.9502">
        <ele>64.51100032</ele>
        <time>2020-06-06T14:40:18.000Z</time>
      </trkpt>
      <trkpt lat="43.68392" lon="3.95024">
        <ele>64.61100032</ele>
        <time>2020-06-06T14:40:19.000Z</time>
      </trkpt>
      <trkpt lat="43.68389" lon="3.95028">
        <ele>64.71100032</ele>
        <time>2020-06-06T14:40:20.000Z</time>
      </trkpt>
      <trkpt lat="43.68386" lon="3.95032">
        <ele>64.81100032</ele>
        <time>2020-06-06T14:40:21.000Z</time>
      </trkpt>
      <trkpt lat="43.68383" lon="3.95035">
        <ele>64.91100032</ele>
        <time>2020-06-06T14:40:22.000Z</time>
      </trkpt>
      <trkpt lat="43.6838" lon="3.95038">
        <ele>65</ele>
        <time>2020-06-06T14:40:23.000Z</time>
      </trkpt>
      <trkpt lat="43.68377" lon="3.95041">
        <ele>65</ele>
        <time>2020-06-06T14:40:24.000Z</time>
      </trkpt>
      <trkpt lat="43.68374" lon="3.95044">
        <ele>65</ele>
        <time>2020-06-06T14:40:25.000Z</time>
      </trkpt>
      <trkpt lat="43.68372" lon="3.95047">
        <ele>65</ele>
        <time>2020-06-06T14:40:26.000Z</time>
      </trkpt>
      <trkpt lat="43.68371" lon="3.95051">
        <ele>65</ele>
        <time>2020-06-06T14:40:27.000Z</time>
      </trkpt>
      <trkpt lat="43.68368" lon="3.95054">
        <ele>65</ele>
        <time>2020-06-06T14:40:28.000Z</time>
      </trkpt>
      <trkpt lat="43.68367" lon="3.95057">
        <ele>65</ele>
        <time>2020-06-06T14:40:29.000Z</time>
      </trkpt>
      <trkpt lat="43.68365" lon="3.95059">
        <ele>65</ele>
        <time>2020-06-06T14:40:30.000Z</time>
      </trkpt>
      <trkpt lat="43.68363" lon="3.95063">
        <ele>65</ele>
        <time>2020-06-06T14:40:31.000Z</time>
      </trkpt>
      <trkpt lat="43.6836" lon="3.95067">
        <ele>65</ele>
        <time>2020-06-06T14:40:32.000Z</time>
      </trkpt>
      <trkpt lat="43.68357" lon="3.95071">
        <ele>65.02200064</ele>
        <time>2020-06-06T14:40:33.000Z</time>
      </trkpt>
      <trkpt lat="43.68355" lon="3.95075">
        <ele>65.22200064</ele>
        <time>2020-06-06T14:40:34.000Z</time>
      </trkpt>
      <trkpt lat="43.68352" lon="3.95079">
        <ele>65.42200064</ele>
        <time>2020-06-06T14:40:35.000Z</time>
      </trkpt>
      <trkpt lat="43.6835" lon="3.95082">
        <ele>65.62200064</ele>
        <time>2020-06-06T14:40:36.000Z</time>
      </trkpt>
      <trkpt lat="43.68347" lon="3.95086">
        <ele>65.82200064</ele>
        <time>2020-06-06T14:40:37.000Z</time>
      </trkpt>
      <trkpt lat="43.68344" lon="3.95089">
        <ele>66.02200064</ele>
        <time>2020-06-06T14:40:38.000Z</time>
      </trkpt>
      <trkpt lat="43.6834" lon="3.95092">
        <ele>66.22200064</ele>
        <time>2020-06-06T14:40:39.000Z</time>
      </trkpt>
      <trkpt lat="43.68337" lon="3.95095">
        <ele>66.42200064</ele>
        <time>2020-06-06T14:40:40.000Z</time>
      </trkpt>
      <trkpt lat="43.68334" lon="3.95096">
        <ele>66.62200064</ele>
        <time>2020-06-06T14:40:41.000Z</time>
      </trkpt>
      <trkpt lat="43.6833" lon="3.95099">
        <ele>66.82200064</ele>
        <time>2020-06-06T14:40:42.000Z</time>
      </trkpt>
      <trkpt lat="43.68327" lon="3.95101">
        <ele>67.01100032</ele>
        <time>2020-06-06T14:40:43.000Z</time>
      </trkpt>
      <trkpt lat="43.68324" lon="3.95104">
        <ele>67.11100032</ele>
        <time>2020-06-06T14:40:44.000Z</time>
      </trkpt>
      <trkpt lat="43.68321" lon="3.95106">
        <ele>67.21100032</ele>
        <time>2020-06-06T14:40:45.000Z</time>
      </trkpt>
      <trkpt lat="43.68318" lon="3.95107">
        <ele>67.31100032</ele>
        <time>2020-06-06T14:40:46.000Z</time>
      </trkpt>
      <trkpt lat="43.68315" lon="3.95109">
        <ele>67.41100032</ele>
        <time>2020-06-06T14:40:47.000Z</time>
      </trkpt>
      <trkpt lat="43.68312" lon="3.9511">
        <ele>67.51100032</ele>
        <time>2020-06-06T14:40:48.000Z</time>
      </trkpt>
      <trkpt lat="43.68308" lon="3.9511">
        <ele>67.61100032</ele>
        <time>2020-06-06T14:40:49.000Z</time>
      </trkpt>
      <trkpt lat="43.68304" lon="3.95111">
        <ele>67.71100032</ele>
        <time>2020-06-06T14:40:50.000Z</time>
      </trkpt>
      <trkpt lat="43.68301" lon="3.95112">
        <ele>67.81100032</ele>
        <time>2020-06-06T14:40:51.000Z</time>
      </trkpt>
      <trkpt lat="43.68298" lon="3.95114">
        <ele>67.91100032</ele>
        <time>2020-06-06T14:40:52.000Z</time>
      </trkpt>
      <trkpt lat="43.68294" lon="3.95114">
        <ele>68.01100032</ele>
        <time>2020-06-06T14:40:53.000Z</time>
      </trkpt>
      <trkpt lat="43.68289" lon="3.95115">
        <ele>68.11100032</ele>
        <time>2020-06-06T14:40:54.000Z</time>
      </trkpt>
      <trkpt lat="43.68285" lon="3.95115">
        <ele>68.21100032</ele>
        <time>2020-06-06T14:40:55.000Z</time>
      </trkpt>
      <trkpt lat="43.68281" lon="3.95116">
        <ele>68.31100032</ele>
        <time>2020-06-06T14:40:56.000Z</time>
      </trkpt>
      <trkpt lat="43.68276" lon="3.95116">
        <ele>68.41100032</ele>
        <time>2020-06-06T14:40:57.000Z</time>
      </trkpt>
      <trkpt lat="43.68272" lon="3.95115">
        <ele>68.51100032</ele>
        <time>2020-06-06T14:40:58.000Z</time>
      </trkpt>
      <trkpt lat="43.68268" lon="3.95115">
        <ele>68.61100032</ele>
        <time>2020-06-06T14:40:59.000Z</time>
      </trkpt>
      <trkpt lat="43.68264" lon="3.95116">
        <ele>68.71100032</ele>
        <time>2020-06-06T14:41:00.000Z</time>
      </trkpt>
      <trkpt lat="43.6826" lon="3.95117">
        <ele>68.81100032</ele>
        <time>2020-06-06T14:41:01.000Z</time>
      </trkpt>
      <trkpt lat="43.68257" lon="3.95119">
        <ele>68.91100032</ele>
        <time>2020-06-06T14:41:02.000Z</time>
      </trkpt>
      <trkpt lat="43.68253" lon="3.95121">
        <ele>69.02200064</ele>
        <time>2020-06-06T14:41:03.000Z</time>
      </trkpt>
      <trkpt lat="43.6825" lon="3.95123">
        <ele>69.22200064</ele>
        <time>2020-06-06T14:41:04.000Z</time>
      </trkpt>
      <trkpt lat="43.68248" lon="3.95125">
        <ele>69.42200064</ele>
        <time>2020-06-06T14:41:05.000Z</time>
      </trkpt>
      <trkpt lat="43.68245" lon="3.95126">
        <ele>69.62200064</ele>
        <time>2020-06-06T14:41:06.000Z</time>
      </trkpt>
      <trkpt lat="43.68244" lon="3.95127">
        <ele>69.82200064</ele>
        <time>2020-06-06T14:41:07.000Z</time>
      </trkpt>
      <trkpt lat="43.68242" lon="3.95127">
        <ele>70.02200064</ele>
        <time>2020-06-06T14:41:08.000Z</time>
      </trkpt>
      <trkpt lat="43.68238" lon="3.95127">
        <ele>70.42200064</ele>
        <time>2020-06-06T14:41:10.000Z</time>
      </trkpt>
      <trkpt lat="43.68235" lon="3.95128">
        <ele>70.62200064</ele>
        <time>2020-06-06T14:41:11.000Z</time>
      </trkpt>
      <trkpt lat="43.68232" lon="3.95128">
        <ele>70.82200064</ele>
        <time>2020-06-06T14:41:12.000Z</time>
      </trkpt>
      <trkpt lat="43.68229" lon="3.95129">
        <ele>71.01100032</ele>
        <time>2020-06-06T14:41:13.000Z</time>
      </trkpt>
      <trkpt lat="43.68227" lon="3.95129">
        <ele>71.11100032</ele>
        <time>2020-06-06T14:41:14.000Z</time>
      </trkpt>
      <trkpt lat="43.68224" lon="3.95131">
        <ele>71.21100032</ele>
        <time>2020-06-06T14:41:15.000Z</time>
      </trkpt>
      <trkpt lat="43.68222" lon="3.95132">
        <ele>71.31100032</ele>
        <time>2020-06-06T14:41:16.000Z</time>
      </trkpt>
      <trkpt lat="43.68219" lon="3.95134">
        <ele>71.41100032</ele>
        <time>2020-06-06T14:41:17.000Z</time>
      </trkpt>
      <trkpt lat="43.68216" lon="3.95135">
        <ele>71.51100032</ele>
        <time>2020-06-06T14:41:18.000Z</time>
      </trkpt>
      <trkpt lat="43.68214" lon="3.95136">
        <ele>71.61100032</ele>
        <time>2020-06-06T14:41:19.000Z</time>
      </trkpt>
      <trkpt lat="43.6821" lon="3.95137">
        <ele>71.71100032</ele>
        <time>2020-06-06T14:41:20.000Z</time>
      </trkpt>
      <trkpt lat="43.68208" lon="3.95138">
        <ele>71.81100032</ele>
        <time>2020-06-06T14:41:21.000Z</time>
      </trkpt>
      <trkpt lat="43.68205" lon="3.95139">
        <ele>71.91100032</ele>
        <time>2020-06-06T14:41:22.000Z</time>
      </trkpt>
      <trkpt lat="43.68203" lon="3.9514">
        <ele>72.010956494024</ele>
        <time>2020-06-06T14:41:23.000Z</time>
      </trkpt>
      <trkpt lat="43.68199" lon="3.95141">
        <ele>72.110558087649</ele>
        <time>2020-06-06T14:41:24.000Z</time>
      </trkpt>
      <trkpt lat="43.68197" lon="3.95143">
        <ele>72.210159681275</ele>
        <time>2020-06-06T14:41:25.000Z</time>
      </trkpt>
      <trkpt lat="43.68194" lon="3.95144">
        <ele>72.3097612749</ele>
        <time>2020-06-06T14:41:26.000Z</time>
      </trkpt>
      <trkpt lat="43.68192" lon="3.95145">
        <ele>72.409362868526</ele>
        <time>2020-06-06T14:41:27.000Z</time>
      </trkpt>
      <trkpt lat="43.68189" lon="3.95146">
        <ele>72.508964462151</ele>
        <time>2020-06-06T14:41:28.000Z</time>
      </trkpt>
      <trkpt lat="43.68187" lon="3.95148">
        <ele>72.608566055777</ele>
        <time>2020-06-06T14:41:29.000Z</time>
      </trkpt>
      <trkpt lat="43.68184" lon="3.95148">
        <ele>72.708167649402</ele>
        <time>2020-06-06T14:41:30.000Z</time>
      </trkpt>
      <trkpt lat="43.6818" lon="3.9515">
        <ele>72.807769243028</ele>
        <time>2020-06-06T14:41:31.000Z</time>
      </trkpt>
      <trkpt lat="43.68177" lon="3.95152">
        <ele>72.907370836653</ele>
        <time>2020-06-06T14:41:32.000Z</time>
      </trkpt>
      <trkpt lat="43.68173" lon="3.95153">
        <ele>73.007028433735</ele>
        <time>2020-06-06T14:41:33.000Z</time>
      </trkpt>
      <trkpt lat="43.6817" lon="3.95154">
        <ele>73.107430040161</ele>
        <time>2020-06-06T14:41:34.000Z</time>
      </trkpt>
      <trkpt lat="43.68167" lon="3.95155">
        <ele>73.207831646586</ele>
        <time>2020-06-06T14:41:35.000Z</time>
      </trkpt>
      <trkpt lat="43.68164" lon="3.95156">
        <ele>73.308233253012</ele>
        <time>2020-06-06T14:41:36.000Z</time>
      </trkpt>
      <trkpt lat="43.68161" lon="3.95158">
        <ele>73.408634859438</ele>
        <time>2020-06-06T14:41:37.000Z</time>
      </trkpt>
      <trkpt lat="43.68158" lon="3.95159">
        <ele>73.509036465864</ele>
        <time>2020-06-06T14:41:38.000Z</time>
      </trkpt>
      <trkpt lat="43.68155" lon="3.95161">
        <ele>73.609438072289</ele>
        <time>2020-06-06T14:41:39.000Z</time>
      </trkpt>
      <trkpt lat="43.68153" lon="3.95162">
        <ele>73.709839678715</ele>
        <time>2020-06-06T14:41:40.000Z</time>
      </trkpt>
      <trkpt lat="43.68151" lon="3.95163">
        <ele>73.810241285141</ele>
        <time>2020-06-06T14:41:41.000Z</time>
      </trkpt>
      <trkpt lat="43.68149" lon="3.95163">
        <ele>73.910642891566</ele>
        <time>2020-06-06T14:41:42.000Z</time>
      </trkpt>
      <trkpt lat="43.68146" lon="3.95163">
        <ele>74.01100032</ele>
        <time>2020-06-06T14:41:43.000Z</time>
      </trkpt>
      <trkpt lat="43.68144" lon="3.95163">
        <ele>74.11100032</ele>
        <time>2020-06-06T14:41:44.000Z</time>
      </trkpt>
      <trkpt lat="43.68142" lon="3.95162">
        <ele>74.21100032</ele>
        <time>2020-06-06T14:41:45.000Z</time>
      </trkpt>
      <trkpt lat="43.6814" lon="3.95162">
        <ele>74.31100032</ele>
        <time>2020-06-06T14:41:46.000Z</time>
      </trkpt>
      <trkpt lat="43.68138" lon="3.95162">
        <ele>74.41100032</ele>
        <time>2020-06-06T14:41:47.000Z</time>
      </trkpt>
      <trkpt lat="43.68136" lon="3.95162">
        <ele>74.51100032</ele>
        <time>2020-06-06T14:41:48.000Z</time>
      </trkpt>
      <trkpt lat="43.68135" lon="3.95161">
        <ele>74.61100032</ele>
        <time>2020-06-06T14:41:49.000Z</time>
      </trkpt>
      <trkpt lat="43.68133" lon="3.9516">
        <ele>74.71100032</ele>
        <time>2020-06-06T14:41:50.000Z</time>
      </trkpt>
      <trkpt lat="43.6813" lon="3.95158">
        <ele>74.91100032</ele>
        <time>2020-06-06T14:41:52.000Z</time>
      </trkpt>
      <trkpt lat="43.68126" lon="3.95157">
        <ele>75.11100032</ele>
        <time>2020-06-06T14:41:54.000Z</time>
      </trkpt>
      <trkpt lat="43.68125" lon="3.95156">
        <ele>75.21100032</ele>
        <time>2020-06-06T14:41:55.000Z</time>
      </trkpt>
      <trkpt lat="43.68123" lon="3.95155">
        <ele>75.31100032</ele>
        <time>2020-06-06T14:41:56.000Z</time>
      </trkpt>
      <trkpt lat="43.68121" lon="3.95154">
        <ele>75.41100032</ele>
        <time>2020-06-06T14:41:57.000Z</time>
      </trkpt>
      <trkpt lat="43.68119" lon="3.95153">
        <ele>75.51100032</ele>
        <time>2020-06-06T14:41:58.000Z</time>
      </trkpt>
      <trkpt lat="43.68116" lon="3.95152">
        <ele>75.71100032</ele>
        <time>2020-06-06T14:42:00.000Z</time>
      </trkpt>
      <trkpt lat="43.68114" lon="3.95151">
        <ele>75.81100032</ele>
        <time>2020-06-06T14:42:01.000Z</time>
      </trkpt>
      <trkpt lat="43.68112" lon="3.9515">
        <ele>75.91100032</ele>
        <time>2020-06-06T14:42:02.000Z</time>
      </trkpt>
      <trkpt lat="43.68111" lon="3.95149">
        <ele>76.010827086614</ele>
        <time>2020-06-06T14:42:03.000Z</time>
      </trkpt>
      <trkpt lat="43.68109" lon="3.95147">
        <ele>76.109252283465</ele>
        <time>2020-06-06T14:42:04.000Z</time>
      </trkpt>
      <trkpt lat="43.68107" lon="3.95143">
        <ele>76.306102677165</ele>
        <time>2020-06-06T14:42:06.000Z</time>
      </trkpt>
      <trkpt lat="43.68105" lon="3.9514">
        <ele>76.502953070866</ele>
        <time>2020-06-06T14:42:08.000Z</time>
      </trkpt>
      <trkpt lat="43.68103" lon="3.95139">
        <ele>76.601378267716</ele>
        <time>2020-06-06T14:42:09.000Z</time>
      </trkpt>
      <trkpt lat="43.68101" lon="3.95137">
        <ele>76.699803464567</ele>
        <time>2020-06-06T14:42:10.000Z</time>
      </trkpt>
      <trkpt lat="43.681" lon="3.95136">
        <ele>76.798228661417</ele>
        <time>2020-06-06T14:42:11.000Z</time>
      </trkpt>
      <trkpt lat="43.68098" lon="3.95134">
        <ele>76.896653858268</ele>
        <time>2020-06-06T14:42:12.000Z</time>
      </trkpt>
      <trkpt lat="43.68096" lon="3.95133">
        <ele>76.995079055118</ele>
        <time>2020-06-06T14:42:13.000Z</time>
      </trkpt>
      <trkpt lat="43.68094" lon="3.95131">
        <ele>77.193090081301</ele>
        <time>2020-06-06T14:42:14.000Z</time>
      </trkpt>
      <trkpt lat="43.68092" lon="3.9513">
        <ele>77.396342113821</ele>
        <time>2020-06-06T14:42:15.000Z</time>
      </trkpt>
      <trkpt lat="43.68091" lon="3.95128">
        <ele>77.599594146342</ele>
        <time>2020-06-06T14:42:16.000Z</time>
      </trkpt>
      <trkpt lat="43.68089" lon="3.95127">
        <ele>77.802846178862</ele>
        <time>2020-06-06T14:42:17.000Z</time>
      </trkpt>
      <trkpt lat="43.68087" lon="3.95125">
        <ele>78.006098211382</ele>
        <time>2020-06-06T14:42:18.000Z</time>
      </trkpt>
      <trkpt lat="43.68086" lon="3.95123">
        <ele>78.209350243902</ele>
        <time>2020-06-06T14:42:19.000Z</time>
      </trkpt>
      <trkpt lat="43.68083" lon="3.95121">
        <ele>78.615854308943</ele>
        <time>2020-06-06T14:42:21.000Z</time>
      </trkpt>
      <trkpt lat="43.68081" lon="3.95121">
        <ele>78.819106341463</ele>
        <time>2020-06-06T14:42:22.000Z</time>
      </trkpt>
      <trkpt lat="43.68079" lon="3.9512">
        <ele>79.02200064</ele>
        <time>2020-06-06T14:42:23.000Z</time>
      </trkpt>
      <trkpt lat="43.68077" lon="3.95119">
        <ele>79.22200064</ele>
        <time>2020-06-06T14:42:24.000Z</time>
      </trkpt>
      <trkpt lat="43.68076" lon="3.95118">
        <ele>79.42200064</ele>
        <time>2020-06-06T14:42:25.000Z</time>
      </trkpt>
      <trkpt lat="43.68074" lon="3.95116">
        <ele>79.62200064</ele>
        <time>2020-06-06T14:42:26.000Z</time>
      </trkpt>
      <trkpt lat="43.68073" lon="3.95114">
        <ele>79.82200064</ele>
        <time>2020-06-06T14:42:27.000Z</time>
      </trkpt>
      <trkpt lat="43.68071" lon="3.9511">
        <ele>80.22200064</ele>
        <time>2020-06-06T14:42:29.000Z</time>
      </trkpt>
      <trkpt lat="43.68069" lon="3.95106">
        <ele>80.62200064</ele>
        <time>2020-06-06T14:42:31.000Z</time>
      </trkpt>
      <trkpt lat="43.68069" lon="3.95102">
        <ele>81</ele>
        <time>2020-06-06T14:42:33.000Z</time>
      </trkpt>
      <trkpt lat="43.6807" lon="3.95098">
        <ele>81</ele>
        <time>2020-06-06T14:42:35.000Z</time>
      </trkpt>
      <trkpt lat="43.68071" lon="3.95093">
        <ele>81</ele>
        <time>2020-06-06T14:42:37.000Z</time>
      </trkpt>
      <trkpt lat="43.68071" lon="3.9509">
        <ele>81</ele>
        <time>2020-06-06T14:42:38.000Z</time>
      </trkpt>
      <trkpt lat="43.68071" lon="3.95088">
        <ele>81</ele>
        <time>2020-06-06T14:42:39.000Z</time>
      </trkpt>
      <trkpt lat="43.6807" lon="3.95083">
        <ele>81</ele>
        <time>2020-06-06T14:42:41.000Z</time>
      </trkpt>
      <trkpt lat="43.68069" lon="3.9508">
        <ele>81</ele>
        <time>2020-06-06T14:42:42.000Z</time>
      </trkpt>
      <trkpt lat="43.68068" lon="3.95078">
        <ele>81</ele>
        <time>2020-06-06T14:42:43.000Z</time>
      </trkpt>
      <trkpt lat="43.68066" lon="3.95076">
        <ele>81</ele>
        <time>2020-06-06T14:42:44.000Z</time>
      </trkpt>
      <trkpt lat="43.68064" lon="3.95073">
        <ele>81</ele>
        <time>2020-06-06T14:42:45.000Z</time>
      </trkpt>
      <trkpt lat="43.68061" lon="3.9507">
        <ele>81</ele>
        <time>2020-06-06T14:42:46.000Z</time>
      </trkpt>
      <trkpt lat="43.6806" lon="3.95067">
        <ele>81</ele>
        <time>2020-06-06T14:42:47.000Z</time>
      </trkpt>
      <trkpt lat="43.68058" lon="3.95063">
        <ele>81</ele>
        <time>2020-06-06T14:42:48.000Z</time>
      </trkpt>
      <trkpt lat="43.68055" lon="3.9506">
        <ele>81</ele>
        <time>2020-06-06T14:42:49.000Z</time>
      </trkpt>
      <trkpt lat="43.68053" lon="3.95057">
        <ele>81</ele>
        <time>2020-06-06T14:42:50.000Z</time>
      </trkpt>
      <trkpt lat="43.68051" lon="3.95053">
        <ele>81</ele>
        <time>2020-06-06T14:42:51.000Z</time>
      </trkpt>
      <trkpt lat="43.68049" lon="3.9505">
        <ele>81</ele>
        <time>2020-06-06T14:42:52.000Z</time>
      </trkpt>
      <trkpt lat="43.68046" lon="3.95047">
        <ele>80.98899968</ele>
        <time>2020-06-06T14:42:53.000Z</time>
      </trkpt>
      <trkpt lat="43.68043" lon="3.95044">
        <ele>80.88899968</ele>
        <time>2020-06-06T14:42:54.000Z</time>
      </trkpt>
      <trkpt lat="43.6804" lon="3.95041">
        <ele>80.78899968</ele>
        <time>2020-06-06T14:42:55.000Z</time>
      </trkpt>
      <trkpt lat="43.68037" lon="3.95038">
        <ele>80.68899968</ele>
        <time>2020-06-06T14:42:56.000Z</time>
      </trkpt>
      <trkpt lat="43.68034" lon="3.95035">
        <ele>80.58899968</ele>
        <time>2020-06-06T14:42:57.000Z</time>
      </trkpt>
      <trkpt lat="43.68031" lon="3.95032">
        <ele>80.48899968</ele>
        <time>2020-06-06T14:42:58.000Z</time>
      </trkpt>
      <trkpt lat="43.68027" lon="3.95029">
        <ele>80.38899968</ele>
        <time>2020-06-06T14:42:59.000Z</time>
      </trkpt>
      <trkpt lat="43.68024" lon="3.95026">
        <ele>80.28899968</ele>
        <time>2020-06-06T14:43:00.000Z</time>
      </trkpt>
      <trkpt lat="43.68021" lon="3.95022">
        <ele>80.18899968</ele>
        <time>2020-06-06T14:43:01.000Z</time>
      </trkpt>
      <trkpt lat="43.68017" lon="3.95019">
        <ele>80.08899968</ele>
        <time>2020-06-06T14:43:02.000Z</time>
      </trkpt>
      <trkpt lat="43.68014" lon="3.95016">
        <ele>80</ele>
        <time>2020-06-06T14:43:03.000Z</time>
      </trkpt>
      <trkpt lat="43.6801" lon="3.95013">
        <ele>80</ele>
        <time>2020-06-06T14:43:04.000Z</time>
      </trkpt>
      <trkpt lat="43.68007" lon="3.95009">
        <ele>80</ele>
        <time>2020-06-06T14:43:05.000Z</time>
      </trkpt>
      <trkpt lat="43.68003" lon="3.95005">
        <ele>80</ele>
        <time>2020-06-06T14:43:06.000Z</time>
      </trkpt>
      <trkpt lat="43.68" lon="3.95001">
        <ele>80</ele>
        <time>2020-06-06T14:43:07.000Z</time>
      </trkpt>
      <trkpt lat="43.67997" lon="3.94998">
        <ele>80</ele>
        <time>2020-06-06T14:43:08.000Z</time>
      </trkpt>
      <trkpt lat="43.67993" lon="3.94994">
        <ele>80</ele>
        <time>2020-06-06T14:43:09.000Z</time>
      </trkpt>
      <trkpt lat="43.6799" lon="3.9499">
        <ele>80</ele>
        <time>2020-06-06T14:43:10.000Z</time>
      </trkpt>
      <trkpt lat="43.67986" lon="3.94987">
        <ele>80</ele>
        <time>2020-06-06T14:43:11.000Z</time>
      </trkpt>
      <trkpt lat="43.67982" lon="3.94985">
        <ele>80</ele>
        <time>2020-06-06T14:43:12.000Z</time>
      </trkpt>
      <trkpt lat="43.67979" lon="3.94982">
        <ele>79.98899968</ele>
        <time>2020-06-06T14:43:13.000Z</time>
      </trkpt>
      <trkpt lat="43.67975" lon="3.94981">
        <ele>79.88899968</ele>
        <time>2020-06-06T14:43:14.000Z</time>
      </trkpt>
      <trkpt lat="43.67972" lon="3.94978">
        <ele>79.78899968</ele>
        <time>2020-06-06T14:43:15.000Z</time>
      </trkpt>
      <trkpt lat="43.67969" lon="3.94976">
        <ele>79.68899968</ele>
        <time>2020-06-06T14:43:16.000Z</time>
      </trkpt>
      <trkpt lat="43.67966" lon="3.94975">
        <ele>79.58899968</ele>
        <time>2020-06-06T14:43:17.000Z</time>
      </trkpt>
      <trkpt lat="43.67962" lon="3.94974">
        <ele>79.48899968</ele>
        <time>2020-06-06T14:43:18.000Z</time>
      </trkpt>
      <trkpt lat="43.67958" lon="3.94972">
        <ele>79.38899968</ele>
        <time>2020-06-06T14:43:19.000Z</time>
      </trkpt>
      <trkpt lat="43.67955" lon="3.94969">
        <ele>79.28899968</ele>
        <time>2020-06-06T14:43:20.000Z</time>
      </trkpt>
      <trkpt lat="43.67951" lon="3.94968">
        <ele>79.18899968</ele>
        <time>2020-06-06T14:43:21.000Z</time>
      </trkpt>
      <trkpt lat="43.67948" lon="3.94966">
        <ele>79.08899968</ele>
        <time>2020-06-06T14:43:22.000Z</time>
      </trkpt>
      <trkpt lat="43.67945" lon="3.94965">
        <ele>78.989010665818</ele>
        <time>2020-06-06T14:43:23.000Z</time>
      </trkpt>
      <trkpt lat="43.67942" lon="3.94964">
        <ele>78.889110533981</ele>
        <time>2020-06-06T14:43:24.000Z</time>
      </trkpt>
      <trkpt lat="43.67939" lon="3.94965">
        <ele>78.789210402145</ele>
        <time>2020-06-06T14:43:25.000Z</time>
      </trkpt>
      <trkpt lat="43.67936" lon="3.94967">
        <ele>78.689310270309</ele>
        <time>2020-06-06T14:43:26.000Z</time>
      </trkpt>
      <trkpt lat="43.67933" lon="3.9497">
        <ele>78.589410138473</ele>
        <time>2020-06-06T14:43:27.000Z</time>
      </trkpt>
      <trkpt lat="43.6793" lon="3.94973">
        <ele>78.489510006637</ele>
        <time>2020-06-06T14:43:28.000Z</time>
      </trkpt>
      <trkpt lat="43.67926" lon="3.94976">
        <ele>78.3896098748</ele>
        <time>2020-06-06T14:43:29.000Z</time>
      </trkpt>
      <trkpt lat="43.67922" lon="3.94979">
        <ele>78.289709742964</ele>
        <time>2020-06-06T14:43:30.000Z</time>
      </trkpt>
      <trkpt lat="43.67918" lon="3.94981">
        <ele>78.189809611128</ele>
        <time>2020-06-06T14:43:31.000Z</time>
      </trkpt>
      <trkpt lat="43.67914" lon="3.94984">
        <ele>78.089909479292</ele>
        <time>2020-06-06T14:43:32.000Z</time>
      </trkpt>
      <trkpt lat="43.67909" lon="3.94987">
        <ele>77.989989352556</ele>
        <time>2020-06-06T14:43:33.000Z</time>
      </trkpt>
      <trkpt lat="43.67905" lon="3.94989">
        <ele>77.88988928452</ele>
        <time>2020-06-06T14:43:34.000Z</time>
      </trkpt>
      <trkpt lat="43.679" lon="3.94992">
        <ele>77.789789216484</ele>
        <time>2020-06-06T14:43:35.000Z</time>
      </trkpt>
      <trkpt lat="43.67895" lon="3.94994">
        <ele>77.689689148448</ele>
        <time>2020-06-06T14:43:36.000Z</time>
      </trkpt>
      <trkpt lat="43.67891" lon="3.94997">
        <ele>77.589589080412</ele>
        <time>2020-06-06T14:43:37.000Z</time>
      </trkpt>
      <trkpt lat="43.67886" lon="3.95">
        <ele>77.489489012376</ele>
        <time>2020-06-06T14:43:38.000Z</time>
      </trkpt>
      <trkpt lat="43.67882" lon="3.95002">
        <ele>77.38938894434</ele>
        <time>2020-06-06T14:43:39.000Z</time>
      </trkpt>
      <trkpt lat="43.67877" lon="3.95004">
        <ele>77.289288876304</ele>
        <time>2020-06-06T14:43:40.000Z</time>
      </trkpt>
      <trkpt lat="43.67872" lon="3.95006">
        <ele>77.189188808268</ele>
        <time>2020-06-06T14:43:41.000Z</time>
      </trkpt>
      <trkpt lat="43.67868" lon="3.95008">
        <ele>77.089088740232</ele>
        <time>2020-06-06T14:43:42.000Z</time>
      </trkpt>
      <trkpt lat="43.67863" lon="3.9501">
        <ele>76.98899968</ele>
        <time>2020-06-06T14:43:43.000Z</time>
      </trkpt>
      <trkpt lat="43.67858" lon="3.95012">
        <ele>76.88899968</ele>
        <time>2020-06-06T14:43:44.000Z</time>
      </trkpt>
      <trkpt lat="43.67854" lon="3.95014">
        <ele>76.78899968</ele>
        <time>2020-06-06T14:43:45.000Z</time>
      </trkpt>
      <trkpt lat="43.67849" lon="3.95016">
        <ele>76.68899968</ele>
        <time>2020-06-06T14:43:46.000Z</time>
      </trkpt>
      <trkpt lat="43.67844" lon="3.95018">
        <ele>76.58899968</ele>
        <time>2020-06-06T14:43:47.000Z</time>
      </trkpt>
      <trkpt lat="43.67839" lon="3.9502">
        <ele>76.48899968</ele>
        <time>2020-06-06T14:43:48.000Z</time>
      </trkpt>
      <trkpt lat="43.67834" lon="3.95022">
        <ele>76.38899968</ele>
        <time>2020-06-06T14:43:49.000Z</time>
      </trkpt>
      <trkpt lat="43.6783" lon="3.95024">
        <ele>76.28899968</ele>
        <time>2020-06-06T14:43:50.000Z</time>
      </trkpt>
      <trkpt lat="43.67825" lon="3.95026">
        <ele>76.18899968</ele>
        <time>2020-06-06T14:43:51.000Z</time>
      </trkpt>
      <trkpt lat="43.67821" lon="3.95028">
        <ele>76.08899968</ele>
        <time>2020-06-06T14:43:52.000Z</time>
      </trkpt>
      <trkpt lat="43.67816" lon="3.9503">
        <ele>75.989247002386</ele>
        <time>2020-06-06T14:43:53.000Z</time>
      </trkpt>
      <trkpt lat="43.67812" lon="3.95033">
        <ele>75.891495322308</ele>
        <time>2020-06-06T14:43:54.000Z</time>
      </trkpt>
      <trkpt lat="43.67808" lon="3.95036">
        <ele>75.793743642231</ele>
        <time>2020-06-06T14:43:55.000Z</time>
      </trkpt>
      <trkpt lat="43.67805" lon="3.95038">
        <ele>75.695991962153</ele>
        <time>2020-06-06T14:43:56.000Z</time>
      </trkpt>
      <trkpt lat="43.67802" lon="3.95041">
        <ele>75.598240282075</ele>
        <time>2020-06-06T14:43:57.000Z</time>
      </trkpt>
      <trkpt lat="43.67799" lon="3.95042">
        <ele>75.500488601998</ele>
        <time>2020-06-06T14:43:58.000Z</time>
      </trkpt>
      <trkpt lat="43.67796" lon="3.95042">
        <ele>75.40273692192</ele>
        <time>2020-06-06T14:43:59.000Z</time>
      </trkpt>
      <trkpt lat="43.67793" lon="3.95041">
        <ele>75.304985241842</ele>
        <time>2020-06-06T14:44:00.000Z</time>
      </trkpt>
      <trkpt lat="43.67791" lon="3.95038">
        <ele>75.207233561765</ele>
        <time>2020-06-06T14:44:01.000Z</time>
      </trkpt>
      <trkpt lat="43.67791" lon="3.95033">
        <ele>75.109481881687</ele>
        <time>2020-06-06T14:44:02.000Z</time>
      </trkpt>
      <trkpt lat="43.67792" lon="3.95029">
        <ele>75.011730201609</ele>
        <time>2020-06-06T14:44:03.000Z</time>
      </trkpt>
      <trkpt lat="43.67794" lon="3.95025">
        <ele>74.909928322597</ele>
        <time>2020-06-06T14:44:04.000Z</time>
      </trkpt>
      <trkpt lat="43.67796" lon="3.95022">
        <ele>74.807574143729</ele>
        <time>2020-06-06T14:44:05.000Z</time>
      </trkpt>
      <trkpt lat="43.67798" lon="3.95018">
        <ele>74.705219964862</ele>
        <time>2020-06-06T14:44:06.000Z</time>
      </trkpt>
      <trkpt lat="43.678" lon="3.95014">
        <ele>74.602865785995</ele>
        <time>2020-06-06T14:44:07.000Z</time>
      </trkpt>
      <trkpt lat="43.67801" lon="3.95009">
        <ele>74.500511607128</ele>
        <time>2020-06-06T14:44:08.000Z</time>
      </trkpt>
      <trkpt lat="43.67802" lon="3.95004">
        <ele>74.39815742826</ele>
        <time>2020-06-06T14:44:09.000Z</time>
      </trkpt>
      <trkpt lat="43.67804" lon="3.94999">
        <ele>74.295803249393</ele>
        <time>2020-06-06T14:44:10.000Z</time>
      </trkpt>
      <trkpt lat="43.67806" lon="3.94994">
        <ele>74.193449070526</ele>
        <time>2020-06-06T14:44:11.000Z</time>
      </trkpt>
      <trkpt lat="43.67808" lon="3.9499">
        <ele>74.091094891658</ele>
        <time>2020-06-06T14:44:12.000Z</time>
      </trkpt>
      <trkpt lat="43.67809" lon="3.94985">
        <ele>74</ele>
        <time>2020-06-06T14:44:13.000Z</time>
      </trkpt>
      <trkpt lat="43.67809" lon="3.94979">
        <ele>74</ele>
        <time>2020-06-06T14:44:14.000Z</time>
      </trkpt>
      <trkpt lat="43.6781" lon="3.94974">
        <ele>74</ele>
        <time>2020-06-06T14:44:15.000Z</time>
      </trkpt>
      <trkpt lat="43.67812" lon="3.94968">
        <ele>74</ele>
        <time>2020-06-06T14:44:16.000Z</time>
      </trkpt>
      <trkpt lat="43.67813" lon="3.94963">
        <ele>74</ele>
        <time>2020-06-06T14:44:17.000Z</time>
      </trkpt>
      <trkpt lat="43.67815" lon="3.94957">
        <ele>74</ele>
        <time>2020-06-06T14:44:18.000Z</time>
      </trkpt>
      <trkpt lat="43.67816" lon="3.94951">
        <ele>74</ele>
        <time>2020-06-06T14:44:19.000Z</time>
      </trkpt>
      <trkpt lat="43.67818" lon="3.94945">
        <ele>74</ele>
        <time>2020-06-06T14:44:20.000Z</time>
      </trkpt>
      <trkpt lat="43.6782" lon="3.9494">
        <ele>74</ele>
        <time>2020-06-06T14:44:21.000Z</time>
      </trkpt>
      <trkpt lat="43.67822" lon="3.94934">
        <ele>74</ele>
        <time>2020-06-06T14:44:22.000Z</time>
      </trkpt>
      <trkpt lat="43.67824" lon="3.94928">
        <ele>74</ele>
        <time>2020-06-06T14:44:23.000Z</time>
      </trkpt>
      <trkpt lat="43.67825" lon="3.94923">
        <ele>74.08539127572</ele>
        <time>2020-06-06T14:44:24.000Z</time>
      </trkpt>
      <trkpt lat="43.67826" lon="3.94917">
        <ele>74.188271934156</ele>
        <time>2020-06-06T14:44:25.000Z</time>
      </trkpt>
      <trkpt lat="43.67828" lon="3.94912">
        <ele>74.291152592593</ele>
        <time>2020-06-06T14:44:26.000Z</time>
      </trkpt>
      <trkpt lat="43.6783" lon="3.94906">
        <ele>74.394033251029</ele>
        <time>2020-06-06T14:44:27.000Z</time>
      </trkpt>
      <trkpt lat="43.67832" lon="3.94901">
        <ele>74.496913909465</ele>
        <time>2020-06-06T14:44:28.000Z</time>
      </trkpt>
      <trkpt lat="43.67833" lon="3.94896">
        <ele>74.599794567901</ele>
        <time>2020-06-06T14:44:29.000Z</time>
      </trkpt>
      <trkpt lat="43.67834" lon="3.9489">
        <ele>74.702675226337</ele>
        <time>2020-06-06T14:44:30.000Z</time>
      </trkpt>
      <trkpt lat="43.67836" lon="3.94884">
        <ele>74.805555884774</ele>
        <time>2020-06-06T14:44:31.000Z</time>
      </trkpt>
      <trkpt lat="43.67837" lon="3.94879">
        <ele>74.90843654321</ele>
        <time>2020-06-06T14:44:32.000Z</time>
      </trkpt>
      <trkpt lat="43.67837" lon="3.94873">
        <ele>75</ele>
        <time>2020-06-06T14:44:33.000Z</time>
      </trkpt>
      <trkpt lat="43.67838" lon="3.94867">
        <ele>75</ele>
        <time>2020-06-06T14:44:34.000Z</time>
      </trkpt>
      <trkpt lat="43.67838" lon="3.94861">
        <ele>75</ele>
        <time>2020-06-06T14:44:35.000Z</time>
      </trkpt>
      <trkpt lat="43.67838" lon="3.94855">
        <ele>75</ele>
        <time>2020-06-06T14:44:36.000Z</time>
      </trkpt>
      <trkpt lat="43.67838" lon="3.94849">
        <ele>75</ele>
        <time>2020-06-06T14:44:37.000Z</time>
      </trkpt>
      <trkpt lat="43.67838" lon="3.94844">
        <ele>75</ele>
        <time>2020-06-06T14:44:38.000Z</time>
      </trkpt>
      <trkpt lat="43.67836" lon="3.94839">
        <ele>75</ele>
        <time>2020-06-06T14:44:39.000Z</time>
      </trkpt>
      <trkpt lat="43.67834" lon="3.94834">
        <ele>75</ele>
        <time>2020-06-06T14:44:40.000Z</time>
      </trkpt>
      <trkpt lat="43.67832" lon="3.94829">
        <ele>75</ele>
        <time>2020-06-06T14:44:41.000Z</time>
      </trkpt>
      <trkpt lat="43.67829" lon="3.94824">
        <ele>75</ele>
        <time>2020-06-06T14:44:42.000Z</time>
      </trkpt>
      <trkpt lat="43.67827" lon="3.94819">
        <ele>75</ele>
        <time>2020-06-06T14:44:43.000Z</time>
      </trkpt>
      <trkpt lat="43.67824" lon="3.94814">
        <ele>75.097461960597</ele>
        <time>2020-06-06T14:44:44.000Z</time>
      </trkpt>
      <trkpt lat="43.67821" lon="3.9481">
        <ele>75.198984836218</ele>
        <time>2020-06-06T14:44:45.000Z</time>
      </trkpt>
      <trkpt lat="43.67819" lon="3.94805">
        <ele>75.30050771184</ele>
        <time>2020-06-06T14:44:46.000Z</time>
      </trkpt>
      <trkpt lat="43.67816" lon="3.94801">
        <ele>75.402030587462</ele>
        <time>2020-06-06T14:44:47.000Z</time>
      </trkpt>
      <trkpt lat="43.67814" lon="3.94797">
        <ele>75.503553463083</ele>
        <time>2020-06-06T14:44:48.000Z</time>
      </trkpt>
      <trkpt lat="43.67812" lon="3.94792">
        <ele>75.605076338705</ele>
        <time>2020-06-06T14:44:49.000Z</time>
      </trkpt>
      <trkpt lat="43.67809" lon="3.94788">
        <ele>75.706599214327</ele>
        <time>2020-06-06T14:44:50.000Z</time>
      </trkpt>
      <trkpt lat="43.67807" lon="3.94784">
        <ele>75.808122089948</ele>
        <time>2020-06-06T14:44:51.000Z</time>
      </trkpt>
      <trkpt lat="43.67805" lon="3.94779">
        <ele>75.90964496557</ele>
        <time>2020-06-06T14:44:52.000Z</time>
      </trkpt>
      <trkpt lat="43.67802" lon="3.94776">
        <ele>76.03300096</ele>
        <time>2020-06-06T14:44:53.000Z</time>
      </trkpt>
      <trkpt lat="43.678" lon="3.94772">
        <ele>76.33300096</ele>
        <time>2020-06-06T14:44:54.000Z</time>
      </trkpt>
      <trkpt lat="43.67798" lon="3.9477">
        <ele>76.63300096</ele>
        <time>2020-06-06T14:44:55.000Z</time>
      </trkpt>
      <trkpt lat="43.67796" lon="3.94767">
        <ele>76.93300096</ele>
        <time>2020-06-06T14:44:56.000Z</time>
      </trkpt>
      <trkpt lat="43.67794" lon="3.94765">
        <ele>77.23300096</ele>
        <time>2020-06-06T14:44:57.000Z</time>
      </trkpt>
      <trkpt lat="43.67792" lon="3.94763">
        <ele>77.53300096</ele>
        <time>2020-06-06T14:44:58.000Z</time>
      </trkpt>
      <trkpt lat="43.6779" lon="3.94761">
        <ele>77.83300096</ele>
        <time>2020-06-06T14:44:59.000Z</time>
      </trkpt>
      <trkpt lat="43.67788" lon="3.94759">
        <ele>78.13300096</ele>
        <time>2020-06-06T14:45:00.000Z</time>
      </trkpt>
      <trkpt lat="43.67785" lon="3.94757">
        <ele>78.43300096</ele>
        <time>2020-06-06T14:45:01.000Z</time>
      </trkpt>
      <trkpt lat="43.67783" lon="3.94756">
        <ele>78.73300096</ele>
        <time>2020-06-06T14:45:02.000Z</time>
      </trkpt>
      <trkpt lat="43.67781" lon="3.94754">
        <ele>79.03300096</ele>
        <time>2020-06-06T14:45:03.000Z</time>
      </trkpt>
      <trkpt lat="43.67779" lon="3.94752">
        <ele>79.33300096</ele>
        <time>2020-06-06T14:45:04.000Z</time>
      </trkpt>
      <trkpt lat="43.67777" lon="3.9475">
        <ele>79.63300096</ele>
        <time>2020-06-06T14:45:05.000Z</time>
      </trkpt>
      <trkpt lat="43.67776" lon="3.94749">
        <ele>79.93300096</ele>
        <time>2020-06-06T14:45:06.000Z</time>
      </trkpt>
      <trkpt lat="43.67774" lon="3.94747">
        <ele>80.23300096</ele>
        <time>2020-06-06T14:45:07.000Z</time>
      </trkpt>
      <trkpt lat="43.67772" lon="3.94746">
        <ele>80.53300096</ele>
        <time>2020-06-06T14:45:08.000Z</time>
      </trkpt>
      <trkpt lat="43.6777" lon="3.94744">
        <ele>80.83300096</ele>
        <time>2020-06-06T14:45:09.000Z</time>
      </trkpt>
      <trkpt lat="43.67768" lon="3.94743">
        <ele>81.13300096</ele>
        <time>2020-06-06T14:45:10.000Z</time>
      </trkpt>
      <trkpt lat="43.67766" lon="3.94742">
        <ele>81.43300096</ele>
        <time>2020-06-06T14:45:11.000Z</time>
      </trkpt>
      <trkpt lat="43.67764" lon="3.9474">
        <ele>81.73300096</ele>
        <time>2020-06-06T14:45:12.000Z</time>
      </trkpt>
      <trkpt lat="43.67762" lon="3.94738">
        <ele>82.01100032</ele>
        <time>2020-06-06T14:45:13.000Z</time>
      </trkpt>
      <trkpt lat="43.6776" lon="3.94737">
        <ele>82.11100032</ele>
        <time>2020-06-06T14:45:14.000Z</time>
      </trkpt>
      <trkpt lat="43.67758" lon="3.94734">
        <ele>82.21100032</ele>
        <time>2020-06-06T14:45:15.000Z</time>
      </trkpt>
      <trkpt lat="43.67756" lon="3.94732">
        <ele>82.31100032</ele>
        <time>2020-06-06T14:45:16.000Z</time>
      </trkpt>
      <trkpt lat="43.67755" lon="3.9473">
        <ele>82.41100032</ele>
        <time>2020-06-06T14:45:17.000Z</time>
      </trkpt>
      <trkpt lat="43.67753" lon="3.94728">
        <ele>82.51100032</ele>
        <time>2020-06-06T14:45:18.000Z</time>
      </trkpt>
      <trkpt lat="43.67751" lon="3.94725">
        <ele>82.61100032</ele>
        <time>2020-06-06T14:45:19.000Z</time>
      </trkpt>
      <trkpt lat="43.6775" lon="3.94722">
        <ele>82.71100032</ele>
        <time>2020-06-06T14:45:20.000Z</time>
      </trkpt>
      <trkpt lat="43.67748" lon="3.9472">
        <ele>82.81100032</ele>
        <time>2020-06-06T14:45:21.000Z</time>
      </trkpt>
      <trkpt lat="43.67747" lon="3.94717">
        <ele>82.91100032</ele>
        <time>2020-06-06T14:45:22.000Z</time>
      </trkpt>
      <trkpt lat="43.67745" lon="3.94715">
        <ele>83.01100032</ele>
        <time>2020-06-06T14:45:23.000Z</time>
      </trkpt>
      <trkpt lat="43.67743" lon="3.94712">
        <ele>83.11100032</ele>
        <time>2020-06-06T14:45:24.000Z</time>
      </trkpt>
      <trkpt lat="43.67742" lon="3.94709">
        <ele>83.21100032</ele>
        <time>2020-06-06T14:45:25.000Z</time>
      </trkpt>
      <trkpt lat="43.6774" lon="3.94707">
        <ele>83.31100032</ele>
        <time>2020-06-06T14:45:26.000Z</time>
      </trkpt>
      <trkpt lat="43.67738" lon="3.94704">
        <ele>83.41100032</ele>
        <time>2020-06-06T14:45:27.000Z</time>
      </trkpt>
      <trkpt lat="43.67737" lon="3.94702">
        <ele>83.51100032</ele>
        <time>2020-06-06T14:45:28.000Z</time>
      </trkpt>
      <trkpt lat="43.67735" lon="3.947">
        <ele>83.61100032</ele>
        <time>2020-06-06T14:45:29.000Z</time>
      </trkpt>
      <trkpt lat="43.67733" lon="3.94697">
        <ele>83.71100032</ele>
        <time>2020-06-06T14:45:30.000Z</time>
      </trkpt>
      <trkpt lat="43.67732" lon="3.94695">
        <ele>83.81100032</ele>
        <time>2020-06-06T14:45:31.000Z</time>
      </trkpt>
      <trkpt lat="43.6773" lon="3.94693">
        <ele>83.91100032</ele>
        <time>2020-06-06T14:45:32.000Z</time>
      </trkpt>
      <trkpt lat="43.67728" lon="3.9469">
        <ele>84.01100032</ele>
        <time>2020-06-06T14:45:33.000Z</time>
      </trkpt>
      <trkpt lat="43.67726" lon="3.94687">
        <ele>84.11100032</ele>
        <time>2020-06-06T14:45:34.000Z</time>
      </trkpt>
      <trkpt lat="43.67725" lon="3.94684">
        <ele>84.21100032</ele>
        <time>2020-06-06T14:45:35.000Z</time>
      </trkpt>
      <trkpt lat="43.67723" lon="3.94681">
        <ele>84.31100032</ele>
        <time>2020-06-06T14:45:36.000Z</time>
      </trkpt>
      <trkpt lat="43.67722" lon="3.94679">
        <ele>84.41100032</ele>
        <time>2020-06-06T14:45:37.000Z</time>
      </trkpt>
      <trkpt lat="43.6772" lon="3.94676">
        <ele>84.51100032</ele>
        <time>2020-06-06T14:45:38.000Z</time>
      </trkpt>
      <trkpt lat="43.67719" lon="3.94674">
        <ele>84.61100032</ele>
        <time>2020-06-06T14:45:39.000Z</time>
      </trkpt>
      <trkpt lat="43.67718" lon="3.94671">
        <ele>84.71100032</ele>
        <time>2020-06-06T14:45:40.000Z</time>
      </trkpt>
      <trkpt lat="43.67716" lon="3.94669">
        <ele>84.81100032</ele>
        <time>2020-06-06T14:45:41.000Z</time>
      </trkpt>
      <trkpt lat="43.67715" lon="3.94666">
        <ele>84.91100032</ele>
        <time>2020-06-06T14:45:42.000Z</time>
      </trkpt>
      <trkpt lat="43.67713" lon="3.94664">
        <ele>85.021804407312</ele>
        <time>2020-06-06T14:45:43.000Z</time>
      </trkpt>
      <trkpt lat="43.67712" lon="3.94661">
        <ele>85.220020525675</ele>
        <time>2020-06-06T14:45:44.000Z</time>
      </trkpt>
      <trkpt lat="43.67711" lon="3.94659">
        <ele>85.418236644039</ele>
        <time>2020-06-06T14:45:45.000Z</time>
      </trkpt>
      <trkpt lat="43.67709" lon="3.94656">
        <ele>85.616452762403</ele>
        <time>2020-06-06T14:45:46.000Z</time>
      </trkpt>
      <trkpt lat="43.67708" lon="3.94654">
        <ele>85.814668880767</ele>
        <time>2020-06-06T14:45:47.000Z</time>
      </trkpt>
      <trkpt lat="43.67706" lon="3.94651">
        <ele>86.012884999131</ele>
        <time>2020-06-06T14:45:48.000Z</time>
      </trkpt>
      <trkpt lat="43.67705" lon="3.94648">
        <ele>86.211101117495</ele>
        <time>2020-06-06T14:45:49.000Z</time>
      </trkpt>
      <trkpt lat="43.67703" lon="3.94646">
        <ele>86.409317235859</ele>
        <time>2020-06-06T14:45:50.000Z</time>
      </trkpt>
      <trkpt lat="43.67702" lon="3.94643">
        <ele>86.607533354223</ele>
        <time>2020-06-06T14:45:51.000Z</time>
      </trkpt>
      <trkpt lat="43.67701" lon="3.9464">
        <ele>86.805749472587</ele>
        <time>2020-06-06T14:45:52.000Z</time>
      </trkpt>
      <trkpt lat="43.677" lon="3.94637">
        <ele>87</ele>
        <time>2020-06-06T14:45:53.000Z</time>
      </trkpt>
      <trkpt lat="43.67699" lon="3.94635">
        <ele>87</ele>
        <time>2020-06-06T14:45:54.000Z</time>
      </trkpt>
      <trkpt lat="43.67698" lon="3.94632">
        <ele>87</ele>
        <time>2020-06-06T14:45:55.000Z</time>
      </trkpt>
      <trkpt lat="43.67697" lon="3.94629">
        <ele>87</ele>
        <time>2020-06-06T14:45:56.000Z</time>
      </trkpt>
      <trkpt lat="43.67696" lon="3.94627">
        <ele>87</ele>
        <time>2020-06-06T14:45:57.000Z</time>
      </trkpt>
      <trkpt lat="43.67694" lon="3.94624">
        <ele>87</ele>
        <time>2020-06-06T14:45:58.000Z</time>
      </trkpt>
      <trkpt lat="43.67693" lon="3.94622">
        <ele>87</ele>
        <time>2020-06-06T14:45:59.000Z</time>
      </trkpt>
      <trkpt lat="43.67692" lon="3.9462">
        <ele>87</ele>
        <time>2020-06-06T14:46:00.000Z</time>
      </trkpt>
      <trkpt lat="43.6769" lon="3.94618">
        <ele>87</ele>
        <time>2020-06-06T14:46:01.000Z</time>
      </trkpt>
      <trkpt lat="43.67689" lon="3.94616">
        <ele>87</ele>
        <time>2020-06-06T14:46:02.000Z</time>
      </trkpt>
      <trkpt lat="43.67687" lon="3.94614">
        <ele>87</ele>
        <time>2020-06-06T14:46:03.000Z</time>
      </trkpt>
      <trkpt lat="43.67686" lon="3.94612">
        <ele>87</ele>
        <time>2020-06-06T14:46:04.000Z</time>
      </trkpt>
      <trkpt lat="43.67685" lon="3.94609">
        <ele>87</ele>
        <time>2020-06-06T14:46:05.000Z</time>
      </trkpt>
      <trkpt lat="43.67683" lon="3.94607">
        <ele>87</ele>
        <time>2020-06-06T14:46:06.000Z</time>
      </trkpt>
      <trkpt lat="43.67682" lon="3.94604">
        <ele>87</ele>
        <time>2020-06-06T14:46:07.000Z</time>
      </trkpt>
      <trkpt lat="43.6768" lon="3.94601">
        <ele>87</ele>
        <time>2020-06-06T14:46:08.000Z</time>
      </trkpt>
      <trkpt lat="43.67678" lon="3.94598">
        <ele>87</ele>
        <time>2020-06-06T14:46:09.000Z</time>
      </trkpt>
      <trkpt lat="43.67677" lon="3.94594">
        <ele>87</ele>
        <time>2020-06-06T14:46:10.000Z</time>
      </trkpt>
      <trkpt lat="43.67675" lon="3.94591">
        <ele>87</ele>
        <time>2020-06-06T14:46:11.000Z</time>
      </trkpt>
      <trkpt lat="43.67673" lon="3.94587">
        <ele>87</ele>
        <time>2020-06-06T14:46:12.000Z</time>
      </trkpt>
      <trkpt lat="43.67671" lon="3.94583">
        <ele>86.989299299611</ele>
        <time>2020-06-06T14:46:13.000Z</time>
      </trkpt>
      <trkpt lat="43.6767" lon="3.94578">
        <ele>86.892023035019</ele>
        <time>2020-06-06T14:46:14.000Z</time>
      </trkpt>
      <trkpt lat="43.67669" lon="3.94572">
        <ele>86.794746770428</ele>
        <time>2020-06-06T14:46:15.000Z</time>
      </trkpt>
      <trkpt lat="43.67668" lon="3.94567">
        <ele>86.697470505837</ele>
        <time>2020-06-06T14:46:16.000Z</time>
      </trkpt>
      <trkpt lat="43.67667" lon="3.94561">
        <ele>86.600194241245</ele>
        <time>2020-06-06T14:46:17.000Z</time>
      </trkpt>
      <trkpt lat="43.67665" lon="3.94555">
        <ele>86.502917976654</ele>
        <time>2020-06-06T14:46:18.000Z</time>
      </trkpt>
      <trkpt lat="43.67664" lon="3.94549">
        <ele>86.405641712062</ele>
        <time>2020-06-06T14:46:19.000Z</time>
      </trkpt>
      <trkpt lat="43.67662" lon="3.94542">
        <ele>86.308365447471</ele>
        <time>2020-06-06T14:46:20.000Z</time>
      </trkpt>
      <trkpt lat="43.67661" lon="3.94536">
        <ele>86.211089182879</ele>
        <time>2020-06-06T14:46:21.000Z</time>
      </trkpt>
      <trkpt lat="43.67659" lon="3.94529">
        <ele>86.113812918288</ele>
        <time>2020-06-06T14:46:22.000Z</time>
      </trkpt>
      <trkpt lat="43.67658" lon="3.94521">
        <ele>86.016536653697</ele>
        <time>2020-06-06T14:46:23.000Z</time>
      </trkpt>
      <trkpt lat="43.67656" lon="3.94514">
        <ele>85.74382617284</ele>
        <time>2020-06-06T14:46:24.000Z</time>
      </trkpt>
      <trkpt lat="43.67655" lon="3.94506">
        <ele>85.435184197531</ele>
        <time>2020-06-06T14:46:25.000Z</time>
      </trkpt>
      <trkpt lat="43.67654" lon="3.94498">
        <ele>85.126542222222</ele>
        <time>2020-06-06T14:46:26.000Z</time>
      </trkpt>
      <trkpt lat="43.67653" lon="3.9449">
        <ele>84.817900246914</ele>
        <time>2020-06-06T14:46:27.000Z</time>
      </trkpt>
      <trkpt lat="43.67651" lon="3.94481">
        <ele>84.509258271605</ele>
        <time>2020-06-06T14:46:28.000Z</time>
      </trkpt>
      <trkpt lat="43.6765" lon="3.94472">
        <ele>84.200616296296</ele>
        <time>2020-06-06T14:46:29.000Z</time>
      </trkpt>
      <trkpt lat="43.67648" lon="3.94463">
        <ele>83.891974320988</ele>
        <time>2020-06-06T14:46:30.000Z</time>
      </trkpt>
      <trkpt lat="43.67647" lon="3.94454">
        <ele>83.583332345679</ele>
        <time>2020-06-06T14:46:31.000Z</time>
      </trkpt>
      <trkpt lat="43.67646" lon="3.94445">
        <ele>83.27469037037</ele>
        <time>2020-06-06T14:46:32.000Z</time>
      </trkpt>
      <trkpt lat="43.67645" lon="3.94436">
        <ele>82.95599872</ele>
        <time>2020-06-06T14:46:33.000Z</time>
      </trkpt>
      <trkpt lat="43.67644" lon="3.94427">
        <ele>82.55599872</ele>
        <time>2020-06-06T14:46:34.000Z</time>
      </trkpt>
      <trkpt lat="43.67643" lon="3.94419">
        <ele>82.15599872</ele>
        <time>2020-06-06T14:46:35.000Z</time>
      </trkpt>
      <trkpt lat="43.67643" lon="3.94411">
        <ele>81.75599872</ele>
        <time>2020-06-06T14:46:36.000Z</time>
      </trkpt>
      <trkpt lat="43.67642" lon="3.94403">
        <ele>81.35599872</ele>
        <time>2020-06-06T14:46:37.000Z</time>
      </trkpt>
      <trkpt lat="43.67642" lon="3.94396">
        <ele>80.95599872</ele>
        <time>2020-06-06T14:46:38.000Z</time>
      </trkpt>
      <trkpt lat="43.67642" lon="3.94389">
        <ele>80.55599872</ele>
        <time>2020-06-06T14:46:39.000Z</time>
      </trkpt>
      <trkpt lat="43.67643" lon="3.94382">
        <ele>80.15599872</ele>
        <time>2020-06-06T14:46:40.000Z</time>
      </trkpt>
      <trkpt lat="43.67643" lon="3.94375">
        <ele>79.75599872</ele>
        <time>2020-06-06T14:46:41.000Z</time>
      </trkpt>
      <trkpt lat="43.67644" lon="3.94368">
        <ele>79.35599872</ele>
        <time>2020-06-06T14:46:42.000Z</time>
      </trkpt>
      <trkpt lat="43.67647" lon="3.94363">
        <ele>78.96699904</ele>
        <time>2020-06-06T14:46:43.000Z</time>
      </trkpt>
      <trkpt lat="43.6765" lon="3.94358">
        <ele>78.66699904</ele>
        <time>2020-06-06T14:46:44.000Z</time>
      </trkpt>
      <trkpt lat="43.67654" lon="3.94354">
        <ele>78.36699904</ele>
        <time>2020-06-06T14:46:45.000Z</time>
      </trkpt>
      <trkpt lat="43.67658" lon="3.94352">
        <ele>78.06699904</ele>
        <time>2020-06-06T14:46:46.000Z</time>
      </trkpt>
      <trkpt lat="43.67663" lon="3.9435">
        <ele>77.76699904</ele>
        <time>2020-06-06T14:46:47.000Z</time>
      </trkpt>
      <trkpt lat="43.67668" lon="3.94348">
        <ele>77.46699904</ele>
        <time>2020-06-06T14:46:48.000Z</time>
      </trkpt>
      <trkpt lat="43.67673" lon="3.94346">
        <ele>77.16699904</ele>
        <time>2020-06-06T14:46:49.000Z</time>
      </trkpt>
      <trkpt lat="43.67678" lon="3.94344">
        <ele>76.86699904</ele>
        <time>2020-06-06T14:46:50.000Z</time>
      </trkpt>
      <trkpt lat="43.67684" lon="3.94343">
        <ele>76.56699904</ele>
        <time>2020-06-06T14:46:51.000Z</time>
      </trkpt>
      <trkpt lat="43.67688" lon="3.94342">
        <ele>76.26699904</ele>
        <time>2020-06-06T14:46:52.000Z</time>
      </trkpt>
      <trkpt lat="43.67693" lon="3.94341">
        <ele>75.989172913386</ele>
        <time>2020-06-06T14:46:53.000Z</time>
      </trkpt>
      <trkpt lat="43.67698" lon="3.94341">
        <ele>75.890747716535</ele>
        <time>2020-06-06T14:46:54.000Z</time>
      </trkpt>
      <trkpt lat="43.67701" lon="3.9434">
        <ele>75.792322519685</ele>
        <time>2020-06-06T14:46:55.000Z</time>
      </trkpt>
      <trkpt lat="43.67705" lon="3.94339">
        <ele>75.693897322835</ele>
        <time>2020-06-06T14:46:56.000Z</time>
      </trkpt>
      <trkpt lat="43.67708" lon="3.94337">
        <ele>75.595472125984</ele>
        <time>2020-06-06T14:46:57.000Z</time>
      </trkpt>
      <trkpt lat="43.67712" lon="3.94335">
        <ele>75.497046929134</ele>
        <time>2020-06-06T14:46:58.000Z</time>
      </trkpt>
      <trkpt lat="43.67715" lon="3.94333">
        <ele>75.398621732284</ele>
        <time>2020-06-06T14:46:59.000Z</time>
      </trkpt>
      <trkpt lat="43.67718" lon="3.94329">
        <ele>75.300196535433</ele>
        <time>2020-06-06T14:47:00.000Z</time>
      </trkpt>
      <trkpt lat="43.67718" lon="3.94324">
        <ele>75.201771338583</ele>
        <time>2020-06-06T14:47:01.000Z</time>
      </trkpt>
      <trkpt lat="43.67719" lon="3.94319">
        <ele>75.103346141732</ele>
        <time>2020-06-06T14:47:02.000Z</time>
      </trkpt>
      <trkpt lat="43.67719" lon="3.94314">
        <ele>75.004920944882</ele>
        <time>2020-06-06T14:47:03.000Z</time>
      </trkpt>
      <trkpt lat="43.67719" lon="3.94309">
        <ele>74.90345495935</ele>
        <time>2020-06-06T14:47:04.000Z</time>
      </trkpt>
      <trkpt lat="43.67719" lon="3.94304">
        <ele>74.801828943089</ele>
        <time>2020-06-06T14:47:05.000Z</time>
      </trkpt>
      <trkpt lat="43.6772" lon="3.94299">
        <ele>74.700202926829</ele>
        <time>2020-06-06T14:47:06.000Z</time>
      </trkpt>
      <trkpt lat="43.67721" lon="3.94294">
        <ele>74.598576910569</ele>
        <time>2020-06-06T14:47:07.000Z</time>
      </trkpt>
      <trkpt lat="43.67722" lon="3.9429">
        <ele>74.496950894309</ele>
        <time>2020-06-06T14:47:08.000Z</time>
      </trkpt>
      <trkpt lat="43.67724" lon="3.94285">
        <ele>74.395324878049</ele>
        <time>2020-06-06T14:47:09.000Z</time>
      </trkpt>
      <trkpt lat="43.67726" lon="3.94281">
        <ele>74.293698861789</ele>
        <time>2020-06-06T14:47:10.000Z</time>
      </trkpt>
      <trkpt lat="43.67729" lon="3.94278">
        <ele>74.192072845529</ele>
        <time>2020-06-06T14:47:11.000Z</time>
      </trkpt>
      <trkpt lat="43.67732" lon="3.94274">
        <ele>74.090446829268</ele>
        <time>2020-06-06T14:47:12.000Z</time>
      </trkpt>
      <trkpt lat="43.67734" lon="3.94271">
        <ele>73.98899968</ele>
        <time>2020-06-06T14:47:13.000Z</time>
      </trkpt>
      <trkpt lat="43.67737" lon="3.94268">
        <ele>73.88899968</ele>
        <time>2020-06-06T14:47:14.000Z</time>
      </trkpt>
      <trkpt lat="43.67739" lon="3.94266">
        <ele>73.78899968</ele>
        <time>2020-06-06T14:47:15.000Z</time>
      </trkpt>
      <trkpt lat="43.67742" lon="3.94264">
        <ele>73.68899968</ele>
        <time>2020-06-06T14:47:16.000Z</time>
      </trkpt>
      <trkpt lat="43.67745" lon="3.94262">
        <ele>73.58899968</ele>
        <time>2020-06-06T14:47:17.000Z</time>
      </trkpt>
      <trkpt lat="43.67748" lon="3.9426">
        <ele>73.48899968</ele>
        <time>2020-06-06T14:47:18.000Z</time>
      </trkpt>
      <trkpt lat="43.67751" lon="3.94258">
        <ele>73.38899968</ele>
        <time>2020-06-06T14:47:19.000Z</time>
      </trkpt>
      <trkpt lat="43.67753" lon="3.94256">
        <ele>73.28899968</ele>
        <time>2020-06-06T14:47:20.000Z</time>
      </trkpt>
      <trkpt lat="43.67756" lon="3.94254">
        <ele>73.18899968</ele>
        <time>2020-06-06T14:47:21.000Z</time>
      </trkpt>
      <trkpt lat="43.67759" lon="3.94252">
        <ele>73.08899968</ele>
        <time>2020-06-06T14:47:22.000Z</time>
      </trkpt>
      <trkpt lat="43.67761" lon="3.94249">
        <ele>73</ele>
        <time>2020-06-06T14:47:23.000Z</time>
      </trkpt>
      <trkpt lat="43.67764" lon="3.94247">
        <ele>73</ele>
        <time>2020-06-06T14:47:24.000Z</time>
      </trkpt>
      <trkpt lat="43.67767" lon="3.94245">
        <ele>73</ele>
        <time>2020-06-06T14:47:25.000Z</time>
      </trkpt>
      <trkpt lat="43.6777" lon="3.94242">
        <ele>73</ele>
        <time>2020-06-06T14:47:26.000Z</time>
      </trkpt>
      <trkpt lat="43.67772" lon="3.9424">
        <ele>73</ele>
        <time>2020-06-06T14:47:27.000Z</time>
      </trkpt>
      <trkpt lat="43.67775" lon="3.94237">
        <ele>73</ele>
        <time>2020-06-06T14:47:28.000Z</time>
      </trkpt>
      <trkpt lat="43.67778" lon="3.94234">
        <ele>73</ele>
        <time>2020-06-06T14:47:29.000Z</time>
      </trkpt>
      <trkpt lat="43.67781" lon="3.94232">
        <ele>73</ele>
        <time>2020-06-06T14:47:30.000Z</time>
      </trkpt>
      <trkpt lat="43.67783" lon="3.94229">
        <ele>73</ele>
        <time>2020-06-06T14:47:31.000Z</time>
      </trkpt>
      <trkpt lat="43.67786" lon="3.94226">
        <ele>73</ele>
        <time>2020-06-06T14:47:32.000Z</time>
      </trkpt>
      <trkpt lat="43.67789" lon="3.94223">
        <ele>73</ele>
        <time>2020-06-06T14:47:33.000Z</time>
      </trkpt>
      <trkpt lat="43.67792" lon="3.9422">
        <ele>73</ele>
        <time>2020-06-06T14:47:34.000Z</time>
      </trkpt>
      <trkpt lat="43.67794" lon="3.94217">
        <ele>73</ele>
        <time>2020-06-06T14:47:35.000Z</time>
      </trkpt>
      <trkpt lat="43.67797" lon="3.94214">
        <ele>73</ele>
        <time>2020-06-06T14:47:36.000Z</time>
      </trkpt>
      <trkpt lat="43.67801" lon="3.94212">
        <ele>73</ele>
        <time>2020-06-06T14:47:37.000Z</time>
      </trkpt>
      <trkpt lat="43.67804" lon="3.94209">
        <ele>73</ele>
        <time>2020-06-06T14:47:38.000Z</time>
      </trkpt>
      <trkpt lat="43.67807" lon="3.94207">
        <ele>73</ele>
        <time>2020-06-06T14:47:39.000Z</time>
      </trkpt>
      <trkpt lat="43.6781" lon="3.94205">
        <ele>73</ele>
        <time>2020-06-06T14:47:40.000Z</time>
      </trkpt>
      <trkpt lat="43.67813" lon="3.94202">
        <ele>73</ele>
        <time>2020-06-06T14:47:41.000Z</time>
      </trkpt>
      <trkpt lat="43.67816" lon="3.942">
        <ele>73</ele>
        <time>2020-06-06T14:47:42.000Z</time>
      </trkpt>
      <trkpt lat="43.67819" lon="3.94198">
        <ele>73</ele>
        <time>2020-06-06T14:47:43.000Z</time>
      </trkpt>
      <trkpt lat="43.67822" lon="3.94196">
        <ele>73</ele>
        <time>2020-06-06T14:47:44.000Z</time>
      </trkpt>
      <trkpt lat="43.67825" lon="3.94193">
        <ele>73</ele>
        <time>2020-06-06T14:47:45.000Z</time>
      </trkpt>
      <trkpt lat="43.67828" lon="3.94191">
        <ele>73</ele>
        <time>2020-06-06T14:47:46.000Z</time>
      </trkpt>
      <trkpt lat="43.67831" lon="3.94188">
        <ele>73</ele>
        <time>2020-06-06T14:47:47.000Z</time>
      </trkpt>
      <trkpt lat="43.67834" lon="3.94185">
        <ele>73</ele>
        <time>2020-06-06T14:47:48.000Z</time>
      </trkpt>
      <trkpt lat="43.67837" lon="3.94183">
        <ele>73</ele>
        <time>2020-06-06T14:47:49.000Z</time>
      </trkpt>
      <trkpt lat="43.67841" lon="3.94181">
        <ele>73</ele>
        <time>2020-06-06T14:47:50.000Z</time>
      </trkpt>
      <trkpt lat="43.67845" lon="3.94179">
        <ele>73</ele>
        <time>2020-06-06T14:47:51.000Z</time>
      </trkpt>
      <trkpt lat="43.67848" lon="3.94177">
        <ele>73</ele>
        <time>2020-06-06T14:47:52.000Z</time>
      </trkpt>
      <trkpt lat="43.67852" lon="3.94176">
        <ele>73</ele>
        <time>2020-06-06T14:47:53.000Z</time>
      </trkpt>
      <trkpt lat="43.67856" lon="3.94175">
        <ele>73</ele>
        <time>2020-06-06T14:47:54.000Z</time>
      </trkpt>
      <trkpt lat="43.67859" lon="3.94174">
        <ele>73</ele>
        <time>2020-06-06T14:47:55.000Z</time>
      </trkpt>
      <trkpt lat="43.67863" lon="3.94173">
        <ele>73</ele>
        <time>2020-06-06T14:47:56.000Z</time>
      </trkpt>
      <trkpt lat="43.67866" lon="3.94173">
        <ele>73</ele>
        <time>2020-06-06T14:47:57.000Z</time>
      </trkpt>
      <trkpt lat="43.6787" lon="3.94172">
        <ele>73</ele>
        <time>2020-06-06T14:47:58.000Z</time>
      </trkpt>
      <trkpt lat="43.67873" lon="3.94172">
        <ele>73</ele>
        <time>2020-06-06T14:47:59.000Z</time>
      </trkpt>
      <trkpt lat="43.67876" lon="3.94171">
        <ele>73</ele>
        <time>2020-06-06T14:48:00.000Z</time>
      </trkpt>
      <trkpt lat="43.6788" lon="3.94171">
        <ele>73</ele>
        <time>2020-06-06T14:48:01.000Z</time>
      </trkpt>
      <trkpt lat="43.67883" lon="3.94171">
        <ele>73</ele>
        <time>2020-06-06T14:48:02.000Z</time>
      </trkpt>
      <trkpt lat="43.67887" lon="3.94171">
        <ele>73</ele>
        <time>2020-06-06T14:48:03.000Z</time>
      </trkpt>
      <trkpt lat="43.6789" lon="3.94171">
        <ele>73</ele>
        <time>2020-06-06T14:48:04.000Z</time>
      </trkpt>
      <trkpt lat="43.67894" lon="3.94172">
        <ele>73</ele>
        <time>2020-06-06T14:48:05.000Z</time>
      </trkpt>
      <trkpt lat="43.67898" lon="3.94172">
        <ele>73</ele>
        <time>2020-06-06T14:48:06.000Z</time>
      </trkpt>
      <trkpt lat="43.67901" lon="3.94173">
        <ele>73</ele>
        <time>2020-06-06T14:48:07.000Z</time>
      </trkpt>
      <trkpt lat="43.67905" lon="3.94174">
        <ele>73</ele>
        <time>2020-06-06T14:48:08.000Z</time>
      </trkpt>
      <trkpt lat="43.67909" lon="3.94175">
        <ele>73</ele>
        <time>2020-06-06T14:48:09.000Z</time>
      </trkpt>
      <trkpt lat="43.67913" lon="3.94175">
        <ele>73</ele>
        <time>2020-06-06T14:48:10.000Z</time>
      </trkpt>
      <trkpt lat="43.67917" lon="3.94176">
        <ele>73</ele>
        <time>2020-06-06T14:48:11.000Z</time>
      </trkpt>
      <trkpt lat="43.67921" lon="3.94175">
        <ele>73</ele>
        <time>2020-06-06T14:48:12.000Z</time>
      </trkpt>
      <trkpt lat="43.67924" lon="3.94173">
        <ele>73</ele>
        <time>2020-06-06T14:48:13.000Z</time>
      </trkpt>
      <trkpt lat="43.67928" lon="3.9417">
        <ele>73</ele>
        <time>2020-06-06T14:48:14.000Z</time>
      </trkpt>
      <trkpt lat="43.6793" lon="3.94166">
        <ele>73</ele>
        <time>2020-06-06T14:48:15.000Z</time>
      </trkpt>
      <trkpt lat="43.67932" lon="3.94161">
        <ele>73</ele>
        <time>2020-06-06T14:48:16.000Z</time>
      </trkpt>
      <trkpt lat="43.67934" lon="3.94157">
        <ele>73</ele>
        <time>2020-06-06T14:48:17.000Z</time>
      </trkpt>
      <trkpt lat="43.67935" lon="3.94153">
        <ele>73</ele>
        <time>2020-06-06T14:48:18.000Z</time>
      </trkpt>
      <trkpt lat="43.67936" lon="3.9415">
        <ele>73</ele>
        <time>2020-06-06T14:48:19.000Z</time>
      </trkpt>
      <trkpt lat="43.67935" lon="3.94146">
        <ele>73</ele>
        <time>2020-06-06T14:48:20.000Z</time>
      </trkpt>
      <trkpt lat="43.67933" lon="3.94142">
        <ele>73</ele>
        <time>2020-06-06T14:48:21.000Z</time>
      </trkpt>
      <trkpt lat="43.67931" lon="3.94139">
        <ele>73</ele>
        <time>2020-06-06T14:48:22.000Z</time>
      </trkpt>
      <trkpt lat="43.67928" lon="3.94136">
        <ele>72.98899968</ele>
        <time>2020-06-06T14:48:23.000Z</time>
      </trkpt>
      <trkpt lat="43.67924" lon="3.94131">
        <ele>72.88899968</ele>
        <time>2020-06-06T14:48:24.000Z</time>
      </trkpt>
      <trkpt lat="43.67922" lon="3.94126">
        <ele>72.78899968</ele>
        <time>2020-06-06T14:48:25.000Z</time>
      </trkpt>
      <trkpt lat="43.67919" lon="3.94119">
        <ele>72.68899968</ele>
        <time>2020-06-06T14:48:26.000Z</time>
      </trkpt>
      <trkpt lat="43.67916" lon="3.94114">
        <ele>72.58899968</ele>
        <time>2020-06-06T14:48:27.000Z</time>
      </trkpt>
      <trkpt lat="43.67913" lon="3.94109">
        <ele>72.48899968</ele>
        <time>2020-06-06T14:48:28.000Z</time>
      </trkpt>
      <trkpt lat="43.6791" lon="3.94104">
        <ele>72.38899968</ele>
        <time>2020-06-06T14:48:29.000Z</time>
      </trkpt>
      <trkpt lat="43.67907" lon="3.94101">
        <ele>72.28899968</ele>
        <time>2020-06-06T14:48:30.000Z</time>
      </trkpt>
      <trkpt lat="43.67903" lon="3.94098">
        <ele>72.18899968</ele>
        <time>2020-06-06T14:48:31.000Z</time>
      </trkpt>
      <trkpt lat="43.679" lon="3.94095">
        <ele>72.08899968</ele>
        <time>2020-06-06T14:48:32.000Z</time>
      </trkpt>
      <trkpt lat="43.67898" lon="3.94091">
        <ele>71.967031997453</ele>
        <time>2020-06-06T14:48:33.000Z</time>
      </trkpt>
      <trkpt lat="43.67897" lon="3.94087">
        <ele>71.667331601944</ele>
        <time>2020-06-06T14:48:34.000Z</time>
      </trkpt>
      <trkpt lat="43.67896" lon="3.94083">
        <ele>71.367631206436</ele>
        <time>2020-06-06T14:48:35.000Z</time>
      </trkpt>
      <trkpt lat="43.67895" lon="3.94077">
        <ele>71.067930810927</ele>
        <time>2020-06-06T14:48:36.000Z</time>
      </trkpt>
      <trkpt lat="43.67894" lon="3.9407">
        <ele>70.768230415418</ele>
        <time>2020-06-06T14:48:37.000Z</time>
      </trkpt>
      <trkpt lat="43.67892" lon="3.94063">
        <ele>70.46853001991</ele>
        <time>2020-06-06T14:48:38.000Z</time>
      </trkpt>
      <trkpt lat="43.6789" lon="3.94056">
        <ele>70.168829624401</ele>
        <time>2020-06-06T14:48:39.000Z</time>
      </trkpt>
      <trkpt lat="43.67888" lon="3.94048">
        <ele>69.869129228893</ele>
        <time>2020-06-06T14:48:40.000Z</time>
      </trkpt>
      <trkpt lat="43.67887" lon="3.9404">
        <ele>69.569428833384</ele>
        <time>2020-06-06T14:48:41.000Z</time>
      </trkpt>
      <trkpt lat="43.67885" lon="3.94033">
        <ele>69.269728437875</ele>
        <time>2020-06-06T14:48:42.000Z</time>
      </trkpt>
      <trkpt lat="43.67884" lon="3.94025">
        <ele>68.959957410224</ele>
        <time>2020-06-06T14:48:43.000Z</time>
      </trkpt>
      <trkpt lat="43.67883" lon="3.94018">
        <ele>68.55955713808</ele>
        <time>2020-06-06T14:48:44.000Z</time>
      </trkpt>
      <trkpt lat="43.6788" lon="3.9401">
        <ele>68.159156865936</ele>
        <time>2020-06-06T14:48:45.000Z</time>
      </trkpt>
      <trkpt lat="43.67877" lon="3.94003">
        <ele>67.758756593792</ele>
        <time>2020-06-06T14:48:46.000Z</time>
      </trkpt>
      <trkpt lat="43.67874" lon="3.93997">
        <ele>67.358356321648</ele>
        <time>2020-06-06T14:48:47.000Z</time>
      </trkpt>
      <trkpt lat="43.67871" lon="3.9399">
        <ele>66.957956049504</ele>
        <time>2020-06-06T14:48:48.000Z</time>
      </trkpt>
      <trkpt lat="43.67868" lon="3.93982">
        <ele>66.557555777359</ele>
        <time>2020-06-06T14:48:49.000Z</time>
      </trkpt>
      <trkpt lat="43.67866" lon="3.93974">
        <ele>66.157155505215</ele>
        <time>2020-06-06T14:48:50.000Z</time>
      </trkpt>
      <trkpt lat="43.67864" lon="3.93967">
        <ele>65.756755233071</ele>
        <time>2020-06-06T14:48:51.000Z</time>
      </trkpt>
      <trkpt lat="43.67862" lon="3.93959">
        <ele>65.356354960927</ele>
        <time>2020-06-06T14:48:52.000Z</time>
      </trkpt>
      <trkpt lat="43.6786" lon="3.93952">
        <ele>64.95599872</ele>
        <time>2020-06-06T14:48:53.000Z</time>
      </trkpt>
      <trkpt lat="43.67859" lon="3.93944">
        <ele>64.55599872</ele>
        <time>2020-06-06T14:48:54.000Z</time>
      </trkpt>
      <trkpt lat="43.67857" lon="3.93937">
        <ele>64.15599872</ele>
        <time>2020-06-06T14:48:55.000Z</time>
      </trkpt>
      <trkpt lat="43.67856" lon="3.9393">
        <ele>63.75599872</ele>
        <time>2020-06-06T14:48:56.000Z</time>
      </trkpt>
      <trkpt lat="43.67855" lon="3.93923">
        <ele>63.35599872</ele>
        <time>2020-06-06T14:48:57.000Z</time>
      </trkpt>
      <trkpt lat="43.67854" lon="3.93917">
        <ele>62.95599872</ele>
        <time>2020-06-06T14:48:58.000Z</time>
      </trkpt>
      <trkpt lat="43.67853" lon="3.9391">
        <ele>62.55599872</ele>
        <time>2020-06-06T14:48:59.000Z</time>
      </trkpt>
      <trkpt lat="43.67852" lon="3.93903">
        <ele>62.15599872</ele>
        <time>2020-06-06T14:49:00.000Z</time>
      </trkpt>
      <trkpt lat="43.67851" lon="3.93897">
        <ele>61.75599872</ele>
        <time>2020-06-06T14:49:01.000Z</time>
      </trkpt>
      <trkpt lat="43.6785" lon="3.9389">
        <ele>61.35599872</ele>
        <time>2020-06-06T14:49:02.000Z</time>
      </trkpt>
      <trkpt lat="43.67849" lon="3.93883">
        <ele>60.98899968</ele>
        <time>2020-06-06T14:49:03.000Z</time>
      </trkpt>
      <trkpt lat="43.67848" lon="3.93877">
        <ele>60.88899968</ele>
        <time>2020-06-06T14:49:04.000Z</time>
      </trkpt>
      <trkpt lat="43.67846" lon="3.93871">
        <ele>60.78899968</ele>
        <time>2020-06-06T14:49:05.000Z</time>
      </trkpt>
      <trkpt lat="43.67845" lon="3.93865">
        <ele>60.68899968</ele>
        <time>2020-06-06T14:49:06.000Z</time>
      </trkpt>
      <trkpt lat="43.67845" lon="3.93859">
        <ele>60.58899968</ele>
        <time>2020-06-06T14:49:07.000Z</time>
      </trkpt>
      <trkpt lat="43.67844" lon="3.93855">
        <ele>60.48899968</ele>
        <time>2020-06-06T14:49:08.000Z</time>
      </trkpt>
      <trkpt lat="43.67842" lon="3.93851">
        <ele>60.38899968</ele>
        <time>2020-06-06T14:49:09.000Z</time>
      </trkpt>
      <trkpt lat="43.6784" lon="3.9385">
        <ele>60.28899968</ele>
        <time>2020-06-06T14:49:10.000Z</time>
      </trkpt>
      <trkpt lat="43.67837" lon="3.93851">
        <ele>60.18899968</ele>
        <time>2020-06-06T14:49:11.000Z</time>
      </trkpt>
      <trkpt lat="43.67835" lon="3.93853">
        <ele>60.08899968</ele>
        <time>2020-06-06T14:49:12.000Z</time>
      </trkpt>
      <trkpt lat="43.67831" lon="3.93856">
        <ele>60</ele>
        <time>2020-06-06T14:49:13.000Z</time>
      </trkpt>
      <trkpt lat="43.67828" lon="3.93858">
        <ele>60</ele>
        <time>2020-06-06T14:49:14.000Z</time>
      </trkpt>
      <trkpt lat="43.67825" lon="3.93862">
        <ele>60</ele>
        <time>2020-06-06T14:49:15.000Z</time>
      </trkpt>
      <trkpt lat="43.67821" lon="3.93865">
        <ele>60</ele>
        <time>2020-06-06T14:49:16.000Z</time>
      </trkpt>
      <trkpt lat="43.67818" lon="3.93868">
        <ele>60</ele>
        <time>2020-06-06T14:49:17.000Z</time>
      </trkpt>
      <trkpt lat="43.67814" lon="3.93872">
        <ele>60</ele>
        <time>2020-06-06T14:49:18.000Z</time>
      </trkpt>
      <trkpt lat="43.6781" lon="3.93875">
        <ele>60</ele>
        <time>2020-06-06T14:49:19.000Z</time>
      </trkpt>
      <trkpt lat="43.67806" lon="3.93879">
        <ele>60</ele>
        <time>2020-06-06T14:49:20.000Z</time>
      </trkpt>
      <trkpt lat="43.67802" lon="3.93883">
        <ele>60</ele>
        <time>2020-06-06T14:49:21.000Z</time>
      </trkpt>
      <trkpt lat="43.67798" lon="3.93886">
        <ele>60</ele>
        <time>2020-06-06T14:49:22.000Z</time>
      </trkpt>
      <trkpt lat="43.67795" lon="3.9389">
        <ele>60.001009778431</ele>
        <time>2020-06-06T14:49:23.000Z</time>
      </trkpt>
      <trkpt lat="43.67791" lon="3.93894">
        <ele>60.10201994474</ele>
        <time>2020-06-06T14:49:24.000Z</time>
      </trkpt>
      <trkpt lat="43.67787" lon="3.93897">
        <ele>60.20303011105</ele>
        <time>2020-06-06T14:49:25.000Z</time>
      </trkpt>
      <trkpt lat="43.67783" lon="3.939">
        <ele>60.304040277359</ele>
        <time>2020-06-06T14:49:26.000Z</time>
      </trkpt>
      <trkpt lat="43.67779" lon="3.93903">
        <ele>60.405050443669</ele>
        <time>2020-06-06T14:49:27.000Z</time>
      </trkpt>
      <trkpt lat="43.67775" lon="3.93906">
        <ele>60.506060609979</ele>
        <time>2020-06-06T14:49:28.000Z</time>
      </trkpt>
      <trkpt lat="43.6777" lon="3.93909">
        <ele>60.607070776288</ele>
        <time>2020-06-06T14:49:29.000Z</time>
      </trkpt>
      <trkpt lat="43.67766" lon="3.93912">
        <ele>60.708080942598</ele>
        <time>2020-06-06T14:49:30.000Z</time>
      </trkpt>
      <trkpt lat="43.67763" lon="3.93914">
        <ele>60.809091108907</ele>
        <time>2020-06-06T14:49:31.000Z</time>
      </trkpt>
      <trkpt lat="43.67759" lon="3.93915">
        <ele>60.910101275217</ele>
        <time>2020-06-06T14:49:32.000Z</time>
      </trkpt>
      <trkpt lat="43.67756" lon="3.93917">
        <ele>61.02200064</ele>
        <time>2020-06-06T14:49:33.000Z</time>
      </trkpt>
      <trkpt lat="43.67752" lon="3.93918">
        <ele>61.22200064</ele>
        <time>2020-06-06T14:49:34.000Z</time>
      </trkpt>
      <trkpt lat="43.67749" lon="3.93919">
        <ele>61.42200064</ele>
        <time>2020-06-06T14:49:35.000Z</time>
      </trkpt>
      <trkpt lat="43.67747" lon="3.9392">
        <ele>61.62200064</ele>
        <time>2020-06-06T14:49:36.000Z</time>
      </trkpt>
      <trkpt lat="43.67744" lon="3.93921">
        <ele>61.82200064</ele>
        <time>2020-06-06T14:49:37.000Z</time>
      </trkpt>
      <trkpt lat="43.67742" lon="3.93921">
        <ele>62.02200064</ele>
        <time>2020-06-06T14:49:38.000Z</time>
      </trkpt>
      <trkpt lat="43.6774" lon="3.93922">
        <ele>62.22200064</ele>
        <time>2020-06-06T14:49:39.000Z</time>
      </trkpt>
      <trkpt lat="43.67737" lon="3.93922">
        <ele>62.62200064</ele>
        <time>2020-06-06T14:49:41.000Z</time>
      </trkpt>
      <trkpt lat="43.67734" lon="3.93923">
        <ele>63.02200064</ele>
        <time>2020-06-06T14:49:43.000Z</time>
      </trkpt>
      <trkpt lat="43.67732" lon="3.93923">
        <ele>63.22200064</ele>
        <time>2020-06-06T14:49:44.000Z</time>
      </trkpt>
      <trkpt lat="43.6773" lon="3.93924">
        <ele>63.42200064</ele>
        <time>2020-06-06T14:49:45.000Z</time>
      </trkpt>
      <trkpt lat="43.67728" lon="3.93924">
        <ele>63.62200064</ele>
        <time>2020-06-06T14:49:46.000Z</time>
      </trkpt>
      <trkpt lat="43.67725" lon="3.93926">
        <ele>63.82200064</ele>
        <time>2020-06-06T14:49:47.000Z</time>
      </trkpt>
      <trkpt lat="43.67722" lon="3.93927">
        <ele>64.02200064</ele>
        <time>2020-06-06T14:49:48.000Z</time>
      </trkpt>
      <trkpt lat="43.6772" lon="3.93928">
        <ele>64.22200064</ele>
        <time>2020-06-06T14:49:49.000Z</time>
      </trkpt>
      <trkpt lat="43.67717" lon="3.93929">
        <ele>64.42200064</ele>
        <time>2020-06-06T14:49:50.000Z</time>
      </trkpt>
      <trkpt lat="43.67715" lon="3.93928">
        <ele>64.62200064</ele>
        <time>2020-06-06T14:49:51.000Z</time>
      </trkpt>
      <trkpt lat="43.67713" lon="3.93927">
        <ele>64.82200064</ele>
        <time>2020-06-06T14:49:52.000Z</time>
      </trkpt>
      <trkpt lat="43.67711" lon="3.93926">
        <ele>65.01100032</ele>
        <time>2020-06-06T14:49:53.000Z</time>
      </trkpt>
      <trkpt lat="43.67709" lon="3.93924">
        <ele>65.11100032</ele>
        <time>2020-06-06T14:49:54.000Z</time>
      </trkpt>
      <trkpt lat="43.67708" lon="3.93923">
        <ele>65.21100032</ele>
        <time>2020-06-06T14:49:55.000Z</time>
      </trkpt>
      <trkpt lat="43.67706" lon="3.9392">
        <ele>65.31100032</ele>
        <time>2020-06-06T14:49:56.000Z</time>
      </trkpt>
      <trkpt lat="43.67704" lon="3.93916">
        <ele>65.41100032</ele>
        <time>2020-06-06T14:49:57.000Z</time>
      </trkpt>
      <trkpt lat="43.67702" lon="3.93912">
        <ele>65.51100032</ele>
        <time>2020-06-06T14:49:58.000Z</time>
      </trkpt>
      <trkpt lat="43.67699" lon="3.93908">
        <ele>65.61100032</ele>
        <time>2020-06-06T14:49:59.000Z</time>
      </trkpt>
      <trkpt lat="43.67696" lon="3.93904">
        <ele>65.71100032</ele>
        <time>2020-06-06T14:50:00.000Z</time>
      </trkpt>
      <trkpt lat="43.67693" lon="3.93899">
        <ele>65.81100032</ele>
        <time>2020-06-06T14:50:01.000Z</time>
      </trkpt>
      <trkpt lat="43.67692" lon="3.93893">
        <ele>65.91100032</ele>
        <time>2020-06-06T14:50:02.000Z</time>
      </trkpt>
      <trkpt lat="43.67692" lon="3.93887">
        <ele>66.01100032</ele>
        <time>2020-06-06T14:50:03.000Z</time>
      </trkpt>
      <trkpt lat="43.67692" lon="3.93881">
        <ele>66.11100032</ele>
        <time>2020-06-06T14:50:04.000Z</time>
      </trkpt>
      <trkpt lat="43.6769" lon="3.93876">
        <ele>66.21100032</ele>
        <time>2020-06-06T14:50:05.000Z</time>
      </trkpt>
      <trkpt lat="43.67689" lon="3.93872">
        <ele>66.31100032</ele>
        <time>2020-06-06T14:50:06.000Z</time>
      </trkpt>
      <trkpt lat="43.67688" lon="3.93867">
        <ele>66.41100032</ele>
        <time>2020-06-06T14:50:07.000Z</time>
      </trkpt>
      <trkpt lat="43.67687" lon="3.93862">
        <ele>66.51100032</ele>
        <time>2020-06-06T14:50:08.000Z</time>
      </trkpt>
      <trkpt lat="43.67687" lon="3.93856">
        <ele>66.61100032</ele>
        <time>2020-06-06T14:50:09.000Z</time>
      </trkpt>
      <trkpt lat="43.67686" lon="3.93851">
        <ele>66.71100032</ele>
        <time>2020-06-06T14:50:10.000Z</time>
      </trkpt>
      <trkpt lat="43.67686" lon="3.93846">
        <ele>66.81100032</ele>
        <time>2020-06-06T14:50:11.000Z</time>
      </trkpt>
      <trkpt lat="43.67685" lon="3.93844">
        <ele>66.91100032</ele>
        <time>2020-06-06T14:50:12.000Z</time>
      </trkpt>
      <trkpt lat="43.67684" lon="3.93841">
        <ele>67.01100032</ele>
        <time>2020-06-06T14:50:13.000Z</time>
      </trkpt>
      <trkpt lat="43.67683" lon="3.93837">
        <ele>67.11100032</ele>
        <time>2020-06-06T14:50:14.000Z</time>
      </trkpt>
      <trkpt lat="43.67683" lon="3.93835">
        <ele>67.21100032</ele>
        <time>2020-06-06T14:50:15.000Z</time>
      </trkpt>
      <trkpt lat="43.67683" lon="3.93831">
        <ele>67.31100032</ele>
        <time>2020-06-06T14:50:16.000Z</time>
      </trkpt>
      <trkpt lat="43.67682" lon="3.93827">
        <ele>67.41100032</ele>
        <time>2020-06-06T14:50:17.000Z</time>
      </trkpt>
      <trkpt lat="43.67682" lon="3.93822">
        <ele>67.51100032</ele>
        <time>2020-06-06T14:50:18.000Z</time>
      </trkpt>
      <trkpt lat="43.67682" lon="3.93817">
        <ele>67.61100032</ele>
        <time>2020-06-06T14:50:19.000Z</time>
      </trkpt>
      <trkpt lat="43.67683" lon="3.93812">
        <ele>67.71100032</ele>
        <time>2020-06-06T14:50:20.000Z</time>
      </trkpt>
      <trkpt lat="43.67685" lon="3.93808">
        <ele>67.81100032</ele>
        <time>2020-06-06T14:50:21.000Z</time>
      </trkpt>
      <trkpt lat="43.67687" lon="3.93805">
        <ele>67.91100032</ele>
        <time>2020-06-06T14:50:22.000Z</time>
      </trkpt>
      <trkpt lat="43.67689" lon="3.93801">
        <ele>67.98899968</ele>
        <time>2020-06-06T14:50:23.000Z</time>
      </trkpt>
      <trkpt lat="43.67691" lon="3.93797">
        <ele>67.88899968</ele>
        <time>2020-06-06T14:50:24.000Z</time>
      </trkpt>
      <trkpt lat="43.67692" lon="3.93793">
        <ele>67.78899968</ele>
        <time>2020-06-06T14:50:25.000Z</time>
      </trkpt>
      <trkpt lat="43.67693" lon="3.9379">
        <ele>67.68899968</ele>
        <time>2020-06-06T14:50:26.000Z</time>
      </trkpt>
      <trkpt lat="43.67693" lon="3.93786">
        <ele>67.58899968</ele>
        <time>2020-06-06T14:50:27.000Z</time>
      </trkpt>
      <trkpt lat="43.67692" lon="3.93783">
        <ele>67.48899968</ele>
        <time>2020-06-06T14:50:28.000Z</time>
      </trkpt>
      <trkpt lat="43.67691" lon="3.93779">
        <ele>67.38899968</ele>
        <time>2020-06-06T14:50:29.000Z</time>
      </trkpt>
      <trkpt lat="43.67691" lon="3.93774">
        <ele>67.28899968</ele>
        <time>2020-06-06T14:50:30.000Z</time>
      </trkpt>
      <trkpt lat="43.67693" lon="3.9377">
        <ele>67.18899968</ele>
        <time>2020-06-06T14:50:31.000Z</time>
      </trkpt>
      <trkpt lat="43.67694" lon="3.93767">
        <ele>67.08899968</ele>
        <time>2020-06-06T14:50:32.000Z</time>
      </trkpt>
      <trkpt lat="43.67696" lon="3.93763">
        <ele>66.978598599222</ele>
        <time>2020-06-06T14:50:33.000Z</time>
      </trkpt>
      <trkpt lat="43.67697" lon="3.93759">
        <ele>66.784046070039</ele>
        <time>2020-06-06T14:50:34.000Z</time>
      </trkpt>
      <trkpt lat="43.67698" lon="3.93755">
        <ele>66.589493540856</ele>
        <time>2020-06-06T14:50:35.000Z</time>
      </trkpt>
      <trkpt lat="43.67698" lon="3.93752">
        <ele>66.394941011673</ele>
        <time>2020-06-06T14:50:36.000Z</time>
      </trkpt>
      <trkpt lat="43.67697" lon="3.93748">
        <ele>66.20038848249</ele>
        <time>2020-06-06T14:50:37.000Z</time>
      </trkpt>
      <trkpt lat="43.67695" lon="3.93745">
        <ele>66.005835953307</ele>
        <time>2020-06-06T14:50:38.000Z</time>
      </trkpt>
      <trkpt lat="43.67692" lon="3.93742">
        <ele>65.811283424124</ele>
        <time>2020-06-06T14:50:39.000Z</time>
      </trkpt>
      <trkpt lat="43.6769" lon="3.93739">
        <ele>65.616730894942</ele>
        <time>2020-06-06T14:50:40.000Z</time>
      </trkpt>
      <trkpt lat="43.67688" lon="3.93737">
        <ele>65.422178365759</ele>
        <time>2020-06-06T14:50:41.000Z</time>
      </trkpt>
      <trkpt lat="43.67685" lon="3.93736">
        <ele>65.227625836576</ele>
        <time>2020-06-06T14:50:42.000Z</time>
      </trkpt>
      <trkpt lat="43.67683" lon="3.93734">
        <ele>65.033073307393</ele>
        <time>2020-06-06T14:50:43.000Z</time>
      </trkpt>
      <trkpt lat="43.6768" lon="3.93732">
        <ele>65</ele>
        <time>2020-06-06T14:50:44.000Z</time>
      </trkpt>
      <trkpt lat="43.67677" lon="3.93731">
        <ele>65</ele>
        <time>2020-06-06T14:50:45.000Z</time>
      </trkpt>
      <trkpt lat="43.67675" lon="3.93729">
        <ele>65</ele>
        <time>2020-06-06T14:50:46.000Z</time>
      </trkpt>
      <trkpt lat="43.67672" lon="3.93728">
        <ele>65</ele>
        <time>2020-06-06T14:50:47.000Z</time>
      </trkpt>
      <trkpt lat="43.67669" lon="3.93727">
        <ele>65</ele>
        <time>2020-06-06T14:50:48.000Z</time>
      </trkpt>
      <trkpt lat="43.67666" lon="3.93725">
        <ele>65</ele>
        <time>2020-06-06T14:50:49.000Z</time>
      </trkpt>
      <trkpt lat="43.67664" lon="3.93724">
        <ele>65</ele>
        <time>2020-06-06T14:50:50.000Z</time>
      </trkpt>
      <trkpt lat="43.67661" lon="3.93723">
        <ele>65</ele>
        <time>2020-06-06T14:50:51.000Z</time>
      </trkpt>
      <trkpt lat="43.67658" lon="3.93721">
        <ele>65</ele>
        <time>2020-06-06T14:50:52.000Z</time>
      </trkpt>
      <trkpt lat="43.67655" lon="3.93719">
        <ele>65.01100032</ele>
        <time>2020-06-06T14:50:53.000Z</time>
      </trkpt>
      <trkpt lat="43.67652" lon="3.93718">
        <ele>65.11100032</ele>
        <time>2020-06-06T14:50:54.000Z</time>
      </trkpt>
      <trkpt lat="43.67649" lon="3.93716">
        <ele>65.21100032</ele>
        <time>2020-06-06T14:50:55.000Z</time>
      </trkpt>
      <trkpt lat="43.67646" lon="3.93714">
        <ele>65.31100032</ele>
        <time>2020-06-06T14:50:56.000Z</time>
      </trkpt>
      <trkpt lat="43.67644" lon="3.93712">
        <ele>65.41100032</ele>
        <time>2020-06-06T14:50:57.000Z</time>
      </trkpt>
      <trkpt lat="43.67641" lon="3.93711">
        <ele>65.51100032</ele>
        <time>2020-06-06T14:50:58.000Z</time>
      </trkpt>
      <trkpt lat="43.67638" lon="3.93709">
        <ele>65.61100032</ele>
        <time>2020-06-06T14:50:59.000Z</time>
      </trkpt>
      <trkpt lat="43.67635" lon="3.93707">
        <ele>65.71100032</ele>
        <time>2020-06-06T14:51:00.000Z</time>
      </trkpt>
      <trkpt lat="43.67632" lon="3.93704">
        <ele>65.81100032</ele>
        <time>2020-06-06T14:51:01.000Z</time>
      </trkpt>
      <trkpt lat="43.67629" lon="3.93702">
        <ele>65.91100032</ele>
        <time>2020-06-06T14:51:02.000Z</time>
      </trkpt>
      <trkpt lat="43.67626" lon="3.937">
        <ele>66</ele>
        <time>2020-06-06T14:51:03.000Z</time>
      </trkpt>
      <trkpt lat="43.67622" lon="3.93699">
        <ele>66</ele>
        <time>2020-06-06T14:51:04.000Z</time>
      </trkpt>
      <trkpt lat="43.67619" lon="3.93697">
        <ele>66</ele>
        <time>2020-06-06T14:51:05.000Z</time>
      </trkpt>
      <trkpt lat="43.67615" lon="3.93696">
        <ele>66</ele>
        <time>2020-06-06T14:51:06.000Z</time>
      </trkpt>
      <trkpt lat="43.67611" lon="3.93694">
        <ele>66</ele>
        <time>2020-06-06T14:51:07.000Z</time>
      </trkpt>
      <trkpt lat="43.67607" lon="3.93693">
        <ele>66</ele>
        <time>2020-06-06T14:51:08.000Z</time>
      </trkpt>
      <trkpt lat="43.67604" lon="3.93691">
        <ele>66</ele>
        <time>2020-06-06T14:51:09.000Z</time>
      </trkpt>
      <trkpt lat="43.676" lon="3.9369">
        <ele>66</ele>
        <time>2020-06-06T14:51:10.000Z</time>
      </trkpt>
      <trkpt lat="43.67596" lon="3.93687">
        <ele>66</ele>
        <time>2020-06-06T14:51:11.000Z</time>
      </trkpt>
      <trkpt lat="43.67592" lon="3.93684">
        <ele>66</ele>
        <time>2020-06-06T14:51:12.000Z</time>
      </trkpt>
      <trkpt lat="43.67589" lon="3.93681">
        <ele>66</ele>
        <time>2020-06-06T14:51:13.000Z</time>
      </trkpt>
      <trkpt lat="43.67585" lon="3.93677">
        <ele>66</ele>
        <time>2020-06-06T14:51:14.000Z</time>
      </trkpt>
      <trkpt lat="43.67582" lon="3.93673">
        <ele>66</ele>
        <time>2020-06-06T14:51:15.000Z</time>
      </trkpt>
      <trkpt lat="43.67579" lon="3.93669">
        <ele>66</ele>
        <time>2020-06-06T14:51:16.000Z</time>
      </trkpt>
      <trkpt lat="43.67576" lon="3.93665">
        <ele>66</ele>
        <time>2020-06-06T14:51:17.000Z</time>
      </trkpt>
      <trkpt lat="43.67574" lon="3.93661">
        <ele>66</ele>
        <time>2020-06-06T14:51:18.000Z</time>
      </trkpt>
      <trkpt lat="43.67573" lon="3.93656">
        <ele>66</ele>
        <time>2020-06-06T14:51:19.000Z</time>
      </trkpt>
      <trkpt lat="43.67573" lon="3.93651">
        <ele>66</ele>
        <time>2020-06-06T14:51:20.000Z</time>
      </trkpt>
      <trkpt lat="43.67572" lon="3.93645">
        <ele>66</ele>
        <time>2020-06-06T14:51:21.000Z</time>
      </trkpt>
      <trkpt lat="43.67572" lon="3.93638">
        <ele>66</ele>
        <time>2020-06-06T14:51:22.000Z</time>
      </trkpt>
      <trkpt lat="43.67571" lon="3.93631">
        <ele>66</ele>
        <time>2020-06-06T14:51:23.000Z</time>
      </trkpt>
      <trkpt lat="43.6757" lon="3.93624">
        <ele>66</ele>
        <time>2020-06-06T14:51:24.000Z</time>
      </trkpt>
      <trkpt lat="43.67568" lon="3.93617">
        <ele>66</ele>
        <time>2020-06-06T14:51:25.000Z</time>
      </trkpt>
      <trkpt lat="43.67567" lon="3.93611">
        <ele>66</ele>
        <time>2020-06-06T14:51:26.000Z</time>
      </trkpt>
      <trkpt lat="43.67566" lon="3.93604">
        <ele>66</ele>
        <time>2020-06-06T14:51:27.000Z</time>
      </trkpt>
      <trkpt lat="43.67565" lon="3.93597">
        <ele>66</ele>
        <time>2020-06-06T14:51:28.000Z</time>
      </trkpt>
      <trkpt lat="43.67564" lon="3.93591">
        <ele>66</ele>
        <time>2020-06-06T14:51:29.000Z</time>
      </trkpt>
      <trkpt lat="43.67563" lon="3.93584">
        <ele>66</ele>
        <time>2020-06-06T14:51:30.000Z</time>
      </trkpt>
      <trkpt lat="43.67562" lon="3.93578">
        <ele>66</ele>
        <time>2020-06-06T14:51:31.000Z</time>
      </trkpt>
      <trkpt lat="43.67561" lon="3.93573">
        <ele>66</ele>
        <time>2020-06-06T14:51:32.000Z</time>
      </trkpt>
      <trkpt lat="43.6756" lon="3.93567">
        <ele>66</ele>
        <time>2020-06-06T14:51:33.000Z</time>
      </trkpt>
      <trkpt lat="43.67559" lon="3.93562">
        <ele>66</ele>
        <time>2020-06-06T14:51:34.000Z</time>
      </trkpt>
      <trkpt lat="43.67558" lon="3.93556">
        <ele>66</ele>
        <time>2020-06-06T14:51:35.000Z</time>
      </trkpt>
      <trkpt lat="43.67556" lon="3.9355">
        <ele>66</ele>
        <time>2020-06-06T14:51:36.000Z</time>
      </trkpt>
      <trkpt lat="43.67555" lon="3.93545">
        <ele>66</ele>
        <time>2020-06-06T14:51:37.000Z</time>
      </trkpt>
      <trkpt lat="43.67554" lon="3.9354">
        <ele>66</ele>
        <time>2020-06-06T14:51:38.000Z</time>
      </trkpt>
      <trkpt lat="43.67553" lon="3.93535">
        <ele>66</ele>
        <time>2020-06-06T14:51:39.000Z</time>
      </trkpt>
      <trkpt lat="43.67552" lon="3.9353">
        <ele>66</ele>
        <time>2020-06-06T14:51:40.000Z</time>
      </trkpt>
      <trkpt lat="43.67551" lon="3.93525">
        <ele>66</ele>
        <time>2020-06-06T14:51:41.000Z</time>
      </trkpt>
      <trkpt lat="43.67549" lon="3.93519">
        <ele>66</ele>
        <time>2020-06-06T14:51:42.000Z</time>
      </trkpt>
      <trkpt lat="43.67548" lon="3.93514">
        <ele>65.989299299611</ele>
        <time>2020-06-06T14:51:43.000Z</time>
      </trkpt>
      <trkpt lat="43.67546" lon="3.93509">
        <ele>65.892023035019</ele>
        <time>2020-06-06T14:51:44.000Z</time>
      </trkpt>
      <trkpt lat="43.67544" lon="3.93504">
        <ele>65.794746770428</ele>
        <time>2020-06-06T14:51:45.000Z</time>
      </trkpt>
      <trkpt lat="43.67542" lon="3.93499">
        <ele>65.697470505837</ele>
        <time>2020-06-06T14:51:46.000Z</time>
      </trkpt>
      <trkpt lat="43.67539" lon="3.93495">
        <ele>65.600194241245</ele>
        <time>2020-06-06T14:51:47.000Z</time>
      </trkpt>
      <trkpt lat="43.67536" lon="3.93491">
        <ele>65.502917976654</ele>
        <time>2020-06-06T14:51:48.000Z</time>
      </trkpt>
      <trkpt lat="43.67532" lon="3.93486">
        <ele>65.405641712062</ele>
        <time>2020-06-06T14:51:49.000Z</time>
      </trkpt>
      <trkpt lat="43.67529" lon="3.93481">
        <ele>65.308365447471</ele>
        <time>2020-06-06T14:51:50.000Z</time>
      </trkpt>
      <trkpt lat="43.67525" lon="3.93475">
        <ele>65.211089182879</ele>
        <time>2020-06-06T14:51:51.000Z</time>
      </trkpt>
      <trkpt lat="43.6752" lon="3.93469">
        <ele>65.113812918288</ele>
        <time>2020-06-06T14:51:52.000Z</time>
      </trkpt>
      <trkpt lat="43.67515" lon="3.93464">
        <ele>65.016536653697</ele>
        <time>2020-06-06T14:51:53.000Z</time>
      </trkpt>
      <trkpt lat="43.67512" lon="3.93459">
        <ele>64.74382617284</ele>
        <time>2020-06-06T14:51:54.000Z</time>
      </trkpt>
      <trkpt lat="43.67511" lon="3.93454">
        <ele>64.435184197531</ele>
        <time>2020-06-06T14:51:55.000Z</time>
      </trkpt>
      <trkpt lat="43.6751" lon="3.9345">
        <ele>64.126542222222</ele>
        <time>2020-06-06T14:51:56.000Z</time>
      </trkpt>
      <trkpt lat="43.6751" lon="3.93446">
        <ele>63.817900246914</ele>
        <time>2020-06-06T14:51:57.000Z</time>
      </trkpt>
      <trkpt lat="43.6751" lon="3.93441">
        <ele>63.509258271605</ele>
        <time>2020-06-06T14:51:58.000Z</time>
      </trkpt>
      <trkpt lat="43.6751" lon="3.93436">
        <ele>63.200616296296</ele>
        <time>2020-06-06T14:51:59.000Z</time>
      </trkpt>
      <trkpt lat="43.67509" lon="3.93431">
        <ele>62.891974320988</ele>
        <time>2020-06-06T14:52:00.000Z</time>
      </trkpt>
      <trkpt lat="43.67507" lon="3.93426">
        <ele>62.583332345679</ele>
        <time>2020-06-06T14:52:01.000Z</time>
      </trkpt>
      <trkpt lat="43.67504" lon="3.93422">
        <ele>62.27469037037</ele>
        <time>2020-06-06T14:52:02.000Z</time>
      </trkpt>
      <trkpt lat="43.675" lon="3.93419">
        <ele>61.989054418416</ele>
        <time>2020-06-06T14:52:03.000Z</time>
      </trkpt>
      <trkpt lat="43.67496" lon="3.93417">
        <ele>61.8895520259</ele>
        <time>2020-06-06T14:52:04.000Z</time>
      </trkpt>
      <trkpt lat="43.67492" lon="3.93414">
        <ele>61.790049633385</ele>
        <time>2020-06-06T14:52:05.000Z</time>
      </trkpt>
      <trkpt lat="43.67488" lon="3.9341">
        <ele>61.69054724087</ele>
        <time>2020-06-06T14:52:06.000Z</time>
      </trkpt>
      <trkpt lat="43.67484" lon="3.93406">
        <ele>61.591044848355</ele>
        <time>2020-06-06T14:52:07.000Z</time>
      </trkpt>
      <trkpt lat="43.67481" lon="3.93401">
        <ele>61.49154245584</ele>
        <time>2020-06-06T14:52:08.000Z</time>
      </trkpt>
      <trkpt lat="43.67477" lon="3.93397">
        <ele>61.392040063325</ele>
        <time>2020-06-06T14:52:09.000Z</time>
      </trkpt>
      <trkpt lat="43.67474" lon="3.93394">
        <ele>61.29253767081</ele>
        <time>2020-06-06T14:52:10.000Z</time>
      </trkpt>
      <trkpt lat="43.6747" lon="3.9339">
        <ele>61.193035278295</ele>
        <time>2020-06-06T14:52:11.000Z</time>
      </trkpt>
      <trkpt lat="43.67467" lon="3.93385">
        <ele>61.09353288578</ele>
        <time>2020-06-06T14:52:12.000Z</time>
      </trkpt>
      <trkpt lat="43.67464" lon="3.93381">
        <ele>60.993970486645</ele>
        <time>2020-06-06T14:52:13.000Z</time>
      </trkpt>
      <trkpt lat="43.67462" lon="3.93376">
        <ele>60.893467877115</ele>
        <time>2020-06-06T14:52:14.000Z</time>
      </trkpt>
      <trkpt lat="43.6746" lon="3.93371">
        <ele>60.792965267585</ele>
        <time>2020-06-06T14:52:15.000Z</time>
      </trkpt>
      <trkpt lat="43.67457" lon="3.93368">
        <ele>60.692462658054</ele>
        <time>2020-06-06T14:52:16.000Z</time>
      </trkpt>
      <trkpt lat="43.67453" lon="3.93366">
        <ele>60.591960048524</ele>
        <time>2020-06-06T14:52:17.000Z</time>
      </trkpt>
      <trkpt lat="43.67448" lon="3.93364">
        <ele>60.491457438994</ele>
        <time>2020-06-06T14:52:18.000Z</time>
      </trkpt>
      <trkpt lat="43.67444" lon="3.93362">
        <ele>60.390954829464</ele>
        <time>2020-06-06T14:52:19.000Z</time>
      </trkpt>
      <trkpt lat="43.67439" lon="3.9336">
        <ele>60.290452219934</ele>
        <time>2020-06-06T14:52:20.000Z</time>
      </trkpt>
      <trkpt lat="43.67434" lon="3.93356">
        <ele>60.189949610404</ele>
        <time>2020-06-06T14:52:21.000Z</time>
      </trkpt>
      <trkpt lat="43.67429" lon="3.93351">
        <ele>60.089447000873</ele>
        <time>2020-06-06T14:52:22.000Z</time>
      </trkpt>
      <trkpt lat="43.67426" lon="3.93344">
        <ele>59.98899968</ele>
        <time>2020-06-06T14:52:23.000Z</time>
      </trkpt>
      <trkpt lat="43.67423" lon="3.93338">
        <ele>59.88899968</ele>
        <time>2020-06-06T14:52:24.000Z</time>
      </trkpt>
      <trkpt lat="43.67421" lon="3.93331">
        <ele>59.78899968</ele>
        <time>2020-06-06T14:52:25.000Z</time>
      </trkpt>
      <trkpt lat="43.67419" lon="3.93325">
        <ele>59.68899968</ele>
        <time>2020-06-06T14:52:26.000Z</time>
      </trkpt>
      <trkpt lat="43.67417" lon="3.93319">
        <ele>59.58899968</ele>
        <time>2020-06-06T14:52:27.000Z</time>
      </trkpt>
      <trkpt lat="43.67415" lon="3.93313">
        <ele>59.48899968</ele>
        <time>2020-06-06T14:52:28.000Z</time>
      </trkpt>
      <trkpt lat="43.67414" lon="3.93307">
        <ele>59.38899968</ele>
        <time>2020-06-06T14:52:29.000Z</time>
      </trkpt>
      <trkpt lat="43.67414" lon="3.93301">
        <ele>59.28899968</ele>
        <time>2020-06-06T14:52:30.000Z</time>
      </trkpt>
      <trkpt lat="43.67413" lon="3.93294">
        <ele>59.18899968</ele>
        <time>2020-06-06T14:52:31.000Z</time>
      </trkpt>
      <trkpt lat="43.67413" lon="3.93288">
        <ele>59.08899968</ele>
        <time>2020-06-06T14:52:32.000Z</time>
      </trkpt>
      <trkpt lat="43.67415" lon="3.93282">
        <ele>59</ele>
        <time>2020-06-06T14:52:33.000Z</time>
      </trkpt>
      <trkpt lat="43.67416" lon="3.93276">
        <ele>59</ele>
        <time>2020-06-06T14:52:34.000Z</time>
      </trkpt>
      <trkpt lat="43.67418" lon="3.93271">
        <ele>59</ele>
        <time>2020-06-06T14:52:35.000Z</time>
      </trkpt>
      <trkpt lat="43.6742" lon="3.93266">
        <ele>59</ele>
        <time>2020-06-06T14:52:36.000Z</time>
      </trkpt>
      <trkpt lat="43.67421" lon="3.93261">
        <ele>59</ele>
        <time>2020-06-06T14:52:37.000Z</time>
      </trkpt>
      <trkpt lat="43.6742" lon="3.93256">
        <ele>59</ele>
        <time>2020-06-06T14:52:38.000Z</time>
      </trkpt>
      <trkpt lat="43.6742" lon="3.93253">
        <ele>59</ele>
        <time>2020-06-06T14:52:39.000Z</time>
      </trkpt>
      <trkpt lat="43.67418" lon="3.9325">
        <ele>59</ele>
        <time>2020-06-06T14:52:40.000Z</time>
      </trkpt>
      <trkpt lat="43.67416" lon="3.93248">
        <ele>59</ele>
        <time>2020-06-06T14:52:41.000Z</time>
      </trkpt>
      <trkpt lat="43.67413" lon="3.93246">
        <ele>59</ele>
        <time>2020-06-06T14:52:42.000Z</time>
      </trkpt>
      <trkpt lat="43.6741" lon="3.93244">
        <ele>59</ele>
        <time>2020-06-06T14:52:43.000Z</time>
      </trkpt>
      <trkpt lat="43.67408" lon="3.93241">
        <ele>59.198580456573</ele>
        <time>2020-06-06T14:52:44.000Z</time>
      </trkpt>
      <trkpt lat="43.67405" lon="3.93239">
        <ele>59.401214898851</ele>
        <time>2020-06-06T14:52:45.000Z</time>
      </trkpt>
      <trkpt lat="43.67403" lon="3.93236">
        <ele>59.60384934113</ele>
        <time>2020-06-06T14:52:46.000Z</time>
      </trkpt>
      <trkpt lat="43.674" lon="3.93233">
        <ele>59.806483783409</ele>
        <time>2020-06-06T14:52:47.000Z</time>
      </trkpt>
      <trkpt lat="43.67398" lon="3.9323">
        <ele>60.009118225687</ele>
        <time>2020-06-06T14:52:48.000Z</time>
      </trkpt>
      <trkpt lat="43.67395" lon="3.93227">
        <ele>60.211752667966</ele>
        <time>2020-06-06T14:52:49.000Z</time>
      </trkpt>
      <trkpt lat="43.67393" lon="3.93224">
        <ele>60.414387110245</ele>
        <time>2020-06-06T14:52:50.000Z</time>
      </trkpt>
      <trkpt lat="43.6739" lon="3.9322">
        <ele>60.617021552523</ele>
        <time>2020-06-06T14:52:51.000Z</time>
      </trkpt>
      <trkpt lat="43.67388" lon="3.93215">
        <ele>60.819655994802</ele>
        <time>2020-06-06T14:52:52.000Z</time>
      </trkpt>
      <trkpt lat="43.67385" lon="3.9321">
        <ele>61</ele>
        <time>2020-06-06T14:52:53.000Z</time>
      </trkpt>
      <trkpt lat="43.67383" lon="3.93205">
        <ele>61</ele>
        <time>2020-06-06T14:52:54.000Z</time>
      </trkpt>
      <trkpt lat="43.67381" lon="3.932">
        <ele>61</ele>
        <time>2020-06-06T14:52:55.000Z</time>
      </trkpt>
      <trkpt lat="43.6738" lon="3.93194">
        <ele>61</ele>
        <time>2020-06-06T14:52:56.000Z</time>
      </trkpt>
      <trkpt lat="43.67378" lon="3.93188">
        <ele>61</ele>
        <time>2020-06-06T14:52:57.000Z</time>
      </trkpt>
      <trkpt lat="43.67376" lon="3.93182">
        <ele>61</ele>
        <time>2020-06-06T14:52:58.000Z</time>
      </trkpt>
      <trkpt lat="43.67374" lon="3.93176">
        <ele>61</ele>
        <time>2020-06-06T14:52:59.000Z</time>
      </trkpt>
      <trkpt lat="43.67373" lon="3.9317">
        <ele>61</ele>
        <time>2020-06-06T14:53:00.000Z</time>
      </trkpt>
      <trkpt lat="43.6737" lon="3.93164">
        <ele>61</ele>
        <time>2020-06-06T14:53:01.000Z</time>
      </trkpt>
      <trkpt lat="43.67368" lon="3.93157">
        <ele>61</ele>
        <time>2020-06-06T14:53:02.000Z</time>
      </trkpt>
      <trkpt lat="43.67367" lon="3.93151">
        <ele>61</ele>
        <time>2020-06-06T14:53:03.000Z</time>
      </trkpt>
      <trkpt lat="43.67365" lon="3.93144">
        <ele>61</ele>
        <time>2020-06-06T14:53:04.000Z</time>
      </trkpt>
      <trkpt lat="43.67363" lon="3.93138">
        <ele>61</ele>
        <time>2020-06-06T14:53:05.000Z</time>
      </trkpt>
      <trkpt lat="43.67361" lon="3.93132">
        <ele>61</ele>
        <time>2020-06-06T14:53:06.000Z</time>
      </trkpt>
      <trkpt lat="43.67359" lon="3.93125">
        <ele>61</ele>
        <time>2020-06-06T14:53:07.000Z</time>
      </trkpt>
      <trkpt lat="43.67357" lon="3.93119">
        <ele>61</ele>
        <time>2020-06-06T14:53:08.000Z</time>
      </trkpt>
      <trkpt lat="43.67355" lon="3.93113">
        <ele>61</ele>
        <time>2020-06-06T14:53:09.000Z</time>
      </trkpt>
      <trkpt lat="43.67353" lon="3.93107">
        <ele>61</ele>
        <time>2020-06-06T14:53:10.000Z</time>
      </trkpt>
      <trkpt lat="43.67351" lon="3.93101">
        <ele>61</ele>
        <time>2020-06-06T14:53:11.000Z</time>
      </trkpt>
      <trkpt lat="43.67349" lon="3.93095">
        <ele>61</ele>
        <time>2020-06-06T14:53:12.000Z</time>
      </trkpt>
      <trkpt lat="43.67346" lon="3.93089">
        <ele>61</ele>
        <time>2020-06-06T14:53:13.000Z</time>
      </trkpt>
      <trkpt lat="43.67344" lon="3.93084">
        <ele>61</ele>
        <time>2020-06-06T14:53:14.000Z</time>
      </trkpt>
      <trkpt lat="43.67341" lon="3.93078">
        <ele>61</ele>
        <time>2020-06-06T14:53:15.000Z</time>
      </trkpt>
      <trkpt lat="43.67338" lon="3.93073">
        <ele>61</ele>
        <time>2020-06-06T14:53:16.000Z</time>
      </trkpt>
      <trkpt lat="43.67336" lon="3.93068">
        <ele>61</ele>
        <time>2020-06-06T14:53:17.000Z</time>
      </trkpt>
      <trkpt lat="43.67334" lon="3.93062">
        <ele>61</ele>
        <time>2020-06-06T14:53:18.000Z</time>
      </trkpt>
      <trkpt lat="43.67331" lon="3.93058">
        <ele>61</ele>
        <time>2020-06-06T14:53:19.000Z</time>
      </trkpt>
      <trkpt lat="43.67328" lon="3.93053">
        <ele>61</ele>
        <time>2020-06-06T14:53:20.000Z</time>
      </trkpt>
      <trkpt lat="43.67325" lon="3.93048">
        <ele>61</ele>
        <time>2020-06-06T14:53:21.000Z</time>
      </trkpt>
      <trkpt lat="43.67322" lon="3.93043">
        <ele>61</ele>
        <time>2020-06-06T14:53:22.000Z</time>
      </trkpt>
      <trkpt lat="43.67319" lon="3.93038">
        <ele>60.97799936</ele>
        <time>2020-06-06T14:53:23.000Z</time>
      </trkpt>
      <trkpt lat="43.67316" lon="3.93033">
        <ele>60.77799936</ele>
        <time>2020-06-06T14:53:24.000Z</time>
      </trkpt>
      <trkpt lat="43.67313" lon="3.93029">
        <ele>60.57799936</ele>
        <time>2020-06-06T14:53:25.000Z</time>
      </trkpt>
      <trkpt lat="43.67309" lon="3.93024">
        <ele>60.37799936</ele>
        <time>2020-06-06T14:53:26.000Z</time>
      </trkpt>
      <trkpt lat="43.67306" lon="3.9302">
        <ele>60.17799936</ele>
        <time>2020-06-06T14:53:27.000Z</time>
      </trkpt>
      <trkpt lat="43.67302" lon="3.93015">
        <ele>59.97799936</ele>
        <time>2020-06-06T14:53:28.000Z</time>
      </trkpt>
      <trkpt lat="43.67298" lon="3.9301">
        <ele>59.77799936</ele>
        <time>2020-06-06T14:53:29.000Z</time>
      </trkpt>
      <trkpt lat="43.67294" lon="3.93005">
        <ele>59.57799936</ele>
        <time>2020-06-06T14:53:30.000Z</time>
      </trkpt>
      <trkpt lat="43.67291" lon="3.93">
        <ele>59.37799936</ele>
        <time>2020-06-06T14:53:31.000Z</time>
      </trkpt>
      <trkpt lat="43.67288" lon="3.92995">
        <ele>59.17799936</ele>
        <time>2020-06-06T14:53:32.000Z</time>
      </trkpt>
      <trkpt lat="43.67286" lon="3.92991">
        <ele>59</ele>
        <time>2020-06-06T14:53:33.000Z</time>
      </trkpt>
      <trkpt lat="43.67285" lon="3.92986">
        <ele>59</ele>
        <time>2020-06-06T14:53:34.000Z</time>
      </trkpt>
      <trkpt lat="43.67286" lon="3.92981">
        <ele>59</ele>
        <time>2020-06-06T14:53:35.000Z</time>
      </trkpt>
      <trkpt lat="43.67287" lon="3.92977">
        <ele>59</ele>
        <time>2020-06-06T14:53:36.000Z</time>
      </trkpt>
      <trkpt lat="43.6729" lon="3.92973">
        <ele>59</ele>
        <time>2020-06-06T14:53:37.000Z</time>
      </trkpt>
      <trkpt lat="43.67293" lon="3.9297">
        <ele>59</ele>
        <time>2020-06-06T14:53:38.000Z</time>
      </trkpt>
      <trkpt lat="43.67297" lon="3.92968">
        <ele>59</ele>
        <time>2020-06-06T14:53:39.000Z</time>
      </trkpt>
      <trkpt lat="43.67301" lon="3.92965">
        <ele>59</ele>
        <time>2020-06-06T14:53:40.000Z</time>
      </trkpt>
      <trkpt lat="43.67305" lon="3.92963">
        <ele>59</ele>
        <time>2020-06-06T14:53:41.000Z</time>
      </trkpt>
      <trkpt lat="43.67309" lon="3.9296">
        <ele>59</ele>
        <time>2020-06-06T14:53:42.000Z</time>
      </trkpt>
      <trkpt lat="43.67312" lon="3.92956">
        <ele>59</ele>
        <time>2020-06-06T14:53:43.000Z</time>
      </trkpt>
      <trkpt lat="43.67316" lon="3.92952">
        <ele>59</ele>
        <time>2020-06-06T14:53:44.000Z</time>
      </trkpt>
      <trkpt lat="43.67319" lon="3.92948">
        <ele>59</ele>
        <time>2020-06-06T14:53:45.000Z</time>
      </trkpt>
      <trkpt lat="43.67322" lon="3.92944">
        <ele>59</ele>
        <time>2020-06-06T14:53:46.000Z</time>
      </trkpt>
      <trkpt lat="43.67325" lon="3.92941">
        <ele>59</ele>
        <time>2020-06-06T14:53:47.000Z</time>
      </trkpt>
      <trkpt lat="43.67328" lon="3.92938">
        <ele>59</ele>
        <time>2020-06-06T14:53:48.000Z</time>
      </trkpt>
      <trkpt lat="43.67331" lon="3.92935">
        <ele>59</ele>
        <time>2020-06-06T14:53:49.000Z</time>
      </trkpt>
      <trkpt lat="43.67334" lon="3.92932">
        <ele>59</ele>
        <time>2020-06-06T14:53:50.000Z</time>
      </trkpt>
      <trkpt lat="43.67337" lon="3.9293">
        <ele>59</ele>
        <time>2020-06-06T14:53:51.000Z</time>
      </trkpt>
      <trkpt lat="43.6734" lon="3.92928">
        <ele>59</ele>
        <time>2020-06-06T14:53:52.000Z</time>
      </trkpt>
      <trkpt lat="43.67343" lon="3.92927">
        <ele>59</ele>
        <time>2020-06-06T14:53:53.000Z</time>
      </trkpt>
      <trkpt lat="43.67347" lon="3.92925">
        <ele>59.08539127572</ele>
        <time>2020-06-06T14:53:54.000Z</time>
      </trkpt>
      <trkpt lat="43.6735" lon="3.92924">
        <ele>59.188271934156</ele>
        <time>2020-06-06T14:53:55.000Z</time>
      </trkpt>
      <trkpt lat="43.67354" lon="3.92922">
        <ele>59.291152592593</ele>
        <time>2020-06-06T14:53:56.000Z</time>
      </trkpt>
      <trkpt lat="43.67357" lon="3.9292">
        <ele>59.394033251029</ele>
        <time>2020-06-06T14:53:57.000Z</time>
      </trkpt>
      <trkpt lat="43.67361" lon="3.92918">
        <ele>59.496913909465</ele>
        <time>2020-06-06T14:53:58.000Z</time>
      </trkpt>
      <trkpt lat="43.67365" lon="3.92916">
        <ele>59.599794567901</ele>
        <time>2020-06-06T14:53:59.000Z</time>
      </trkpt>
      <trkpt lat="43.67368" lon="3.92914">
        <ele>59.702675226337</ele>
        <time>2020-06-06T14:54:00.000Z</time>
      </trkpt>
      <trkpt lat="43.67372" lon="3.92913">
        <ele>59.805555884774</ele>
        <time>2020-06-06T14:54:01.000Z</time>
      </trkpt>
      <trkpt lat="43.67376" lon="3.92911">
        <ele>59.90843654321</ele>
        <time>2020-06-06T14:54:02.000Z</time>
      </trkpt>
      <trkpt lat="43.67381" lon="3.92909">
        <ele>60</ele>
        <time>2020-06-06T14:54:03.000Z</time>
      </trkpt>
      <trkpt lat="43.67385" lon="3.92907">
        <ele>60</ele>
        <time>2020-06-06T14:54:04.000Z</time>
      </trkpt>
      <trkpt lat="43.67389" lon="3.92905">
        <ele>60</ele>
        <time>2020-06-06T14:54:05.000Z</time>
      </trkpt>
      <trkpt lat="43.67394" lon="3.92903">
        <ele>60</ele>
        <time>2020-06-06T14:54:06.000Z</time>
      </trkpt>
      <trkpt lat="43.67398" lon="3.92902">
        <ele>60</ele>
        <time>2020-06-06T14:54:07.000Z</time>
      </trkpt>
      <trkpt lat="43.67402" lon="3.92901">
        <ele>60</ele>
        <time>2020-06-06T14:54:08.000Z</time>
      </trkpt>
      <trkpt lat="43.67407" lon="3.92899">
        <ele>60</ele>
        <time>2020-06-06T14:54:09.000Z</time>
      </trkpt>
      <trkpt lat="43.67411" lon="3.92898">
        <ele>60</ele>
        <time>2020-06-06T14:54:10.000Z</time>
      </trkpt>
      <trkpt lat="43.67416" lon="3.92896">
        <ele>60</ele>
        <time>2020-06-06T14:54:11.000Z</time>
      </trkpt>
      <trkpt lat="43.6742" lon="3.92894">
        <ele>60</ele>
        <time>2020-06-06T14:54:12.000Z</time>
      </trkpt>
      <trkpt lat="43.67424" lon="3.92891">
        <ele>60</ele>
        <time>2020-06-06T14:54:13.000Z</time>
      </trkpt>
      <trkpt lat="43.67427" lon="3.92889">
        <ele>60</ele>
        <time>2020-06-06T14:54:14.000Z</time>
      </trkpt>
      <trkpt lat="43.67431" lon="3.92887">
        <ele>60</ele>
        <time>2020-06-06T14:54:15.000Z</time>
      </trkpt>
      <trkpt lat="43.67434" lon="3.92884">
        <ele>60</ele>
        <time>2020-06-06T14:54:16.000Z</time>
      </trkpt>
      <trkpt lat="43.67437" lon="3.92881">
        <ele>60</ele>
        <time>2020-06-06T14:54:17.000Z</time>
      </trkpt>
      <trkpt lat="43.67441" lon="3.92878">
        <ele>60</ele>
        <time>2020-06-06T14:54:18.000Z</time>
      </trkpt>
      <trkpt lat="43.67445" lon="3.92874">
        <ele>60</ele>
        <time>2020-06-06T14:54:19.000Z</time>
      </trkpt>
      <trkpt lat="43.67449" lon="3.92871">
        <ele>60</ele>
        <time>2020-06-06T14:54:20.000Z</time>
      </trkpt>
      <trkpt lat="43.67453" lon="3.92868">
        <ele>60</ele>
        <time>2020-06-06T14:54:21.000Z</time>
      </trkpt>
      <trkpt lat="43.67457" lon="3.92864">
        <ele>60</ele>
        <time>2020-06-06T14:54:22.000Z</time>
      </trkpt>
      <trkpt lat="43.67461" lon="3.92861">
        <ele>60</ele>
        <time>2020-06-06T14:54:23.000Z</time>
      </trkpt>
      <trkpt lat="43.67465" lon="3.92859">
        <ele>60.083504879838</ele>
        <time>2020-06-06T14:54:24.000Z</time>
      </trkpt>
      <trkpt lat="43.67468" lon="3.92858">
        <ele>60.186597731363</ele>
        <time>2020-06-06T14:54:25.000Z</time>
      </trkpt>
      <trkpt lat="43.67472" lon="3.92857">
        <ele>60.289690582889</ele>
        <time>2020-06-06T14:54:26.000Z</time>
      </trkpt>
      <trkpt lat="43.67475" lon="3.92855">
        <ele>60.392783434414</ele>
        <time>2020-06-06T14:54:27.000Z</time>
      </trkpt>
      <trkpt lat="43.67477" lon="3.92852">
        <ele>60.495876285939</ele>
        <time>2020-06-06T14:54:28.000Z</time>
      </trkpt>
      <trkpt lat="43.67479" lon="3.92848">
        <ele>60.598969137464</ele>
        <time>2020-06-06T14:54:29.000Z</time>
      </trkpt>
      <trkpt lat="43.67481" lon="3.92846">
        <ele>60.702061988989</ele>
        <time>2020-06-06T14:54:30.000Z</time>
      </trkpt>
      <trkpt lat="43.67482" lon="3.92843">
        <ele>60.805154840514</ele>
        <time>2020-06-06T14:54:31.000Z</time>
      </trkpt>
      <trkpt lat="43.67483" lon="3.92839">
        <ele>60.90824769204</ele>
        <time>2020-06-06T14:54:32.000Z</time>
      </trkpt>
      <trkpt lat="43.67484" lon="3.92835">
        <ele>60.98899968</ele>
        <time>2020-06-06T14:54:33.000Z</time>
      </trkpt>
      <trkpt lat="43.67486" lon="3.92829">
        <ele>60.88899968</ele>
        <time>2020-06-06T14:54:34.000Z</time>
      </trkpt>
      <trkpt lat="43.67489" lon="3.92824">
        <ele>60.78899968</ele>
        <time>2020-06-06T14:54:35.000Z</time>
      </trkpt>
      <trkpt lat="43.67491" lon="3.92818">
        <ele>60.68899968</ele>
        <time>2020-06-06T14:54:36.000Z</time>
      </trkpt>
      <trkpt lat="43.67494" lon="3.92812">
        <ele>60.58899968</ele>
        <time>2020-06-06T14:54:37.000Z</time>
      </trkpt>
      <trkpt lat="43.67497" lon="3.92806">
        <ele>60.48899968</ele>
        <time>2020-06-06T14:54:38.000Z</time>
      </trkpt>
      <trkpt lat="43.67499" lon="3.92801">
        <ele>60.38899968</ele>
        <time>2020-06-06T14:54:39.000Z</time>
      </trkpt>
      <trkpt lat="43.67501" lon="3.92796">
        <ele>60.28899968</ele>
        <time>2020-06-06T14:54:40.000Z</time>
      </trkpt>
      <trkpt lat="43.67502" lon="3.92791">
        <ele>60.18899968</ele>
        <time>2020-06-06T14:54:41.000Z</time>
      </trkpt>
      <trkpt lat="43.67504" lon="3.92786">
        <ele>60.08899968</ele>
        <time>2020-06-06T14:54:42.000Z</time>
      </trkpt>
      <trkpt lat="43.67506" lon="3.9278">
        <ele>59.97799936</ele>
        <time>2020-06-06T14:54:43.000Z</time>
      </trkpt>
      <trkpt lat="43.67509" lon="3.92775">
        <ele>59.77799936</ele>
        <time>2020-06-06T14:54:44.000Z</time>
      </trkpt>
      <trkpt lat="43.67513" lon="3.92771">
        <ele>59.57799936</ele>
        <time>2020-06-06T14:54:45.000Z</time>
      </trkpt>
      <trkpt lat="43.67517" lon="3.92766">
        <ele>59.37799936</ele>
        <time>2020-06-06T14:54:46.000Z</time>
      </trkpt>
      <trkpt lat="43.67521" lon="3.92762">
        <ele>59.17799936</ele>
        <time>2020-06-06T14:54:47.000Z</time>
      </trkpt>
      <trkpt lat="43.67525" lon="3.92757">
        <ele>58.97799936</ele>
        <time>2020-06-06T14:54:48.000Z</time>
      </trkpt>
      <trkpt lat="43.67529" lon="3.92754">
        <ele>58.77799936</ele>
        <time>2020-06-06T14:54:49.000Z</time>
      </trkpt>
      <trkpt lat="43.67532" lon="3.92749">
        <ele>58.57799936</ele>
        <time>2020-06-06T14:54:50.000Z</time>
      </trkpt>
      <trkpt lat="43.67534" lon="3.92744">
        <ele>58.37799936</ele>
        <time>2020-06-06T14:54:51.000Z</time>
      </trkpt>
      <trkpt lat="43.67535" lon="3.92739">
        <ele>58.17799936</ele>
        <time>2020-06-06T14:54:52.000Z</time>
      </trkpt>
      <trkpt lat="43.67536" lon="3.92733">
        <ele>57.978494004772</ele>
        <time>2020-06-06T14:54:53.000Z</time>
      </trkpt>
      <trkpt lat="43.67537" lon="3.92727">
        <ele>57.782990644617</ele>
        <time>2020-06-06T14:54:54.000Z</time>
      </trkpt>
      <trkpt lat="43.67536" lon="3.92721">
        <ele>57.587487284462</ele>
        <time>2020-06-06T14:54:55.000Z</time>
      </trkpt>
      <trkpt lat="43.67534" lon="3.92716">
        <ele>57.391983924306</ele>
        <time>2020-06-06T14:54:56.000Z</time>
      </trkpt>
      <trkpt lat="43.67531" lon="3.92712">
        <ele>57.196480564151</ele>
        <time>2020-06-06T14:54:57.000Z</time>
      </trkpt>
      <trkpt lat="43.67528" lon="3.92708">
        <ele>57.000977203995</ele>
        <time>2020-06-06T14:54:58.000Z</time>
      </trkpt>
      <trkpt lat="43.67524" lon="3.92704">
        <ele>56.80547384384</ele>
        <time>2020-06-06T14:54:59.000Z</time>
      </trkpt>
      <trkpt lat="43.6752" lon="3.927">
        <ele>56.609970483685</ele>
        <time>2020-06-06T14:55:00.000Z</time>
      </trkpt>
      <trkpt lat="43.67516" lon="3.92697">
        <ele>56.414467123529</ele>
        <time>2020-06-06T14:55:01.000Z</time>
      </trkpt>
      <trkpt lat="43.67512" lon="3.92694">
        <ele>56.218963763374</ele>
        <time>2020-06-06T14:55:02.000Z</time>
      </trkpt>
      <trkpt lat="43.67508" lon="3.92691">
        <ele>56.023460403219</ele>
        <time>2020-06-06T14:55:03.000Z</time>
      </trkpt>
      <trkpt lat="43.67504" lon="3.92689">
        <ele>55.909928322597</ele>
        <time>2020-06-06T14:55:04.000Z</time>
      </trkpt>
      <trkpt lat="43.675" lon="3.92686">
        <ele>55.807574143729</ele>
        <time>2020-06-06T14:55:05.000Z</time>
      </trkpt>
      <trkpt lat="43.67495" lon="3.92683">
        <ele>55.705219964862</ele>
        <time>2020-06-06T14:55:06.000Z</time>
      </trkpt>
      <trkpt lat="43.67492" lon="3.9268">
        <ele>55.602865785995</ele>
        <time>2020-06-06T14:55:07.000Z</time>
      </trkpt>
      <trkpt lat="43.67488" lon="3.92678">
        <ele>55.500511607128</ele>
        <time>2020-06-06T14:55:08.000Z</time>
      </trkpt>
      <trkpt lat="43.67484" lon="3.92676">
        <ele>55.39815742826</ele>
        <time>2020-06-06T14:55:09.000Z</time>
      </trkpt>
      <trkpt lat="43.6748" lon="3.92674">
        <ele>55.295803249393</ele>
        <time>2020-06-06T14:55:10.000Z</time>
      </trkpt>
      <trkpt lat="43.67476" lon="3.92673">
        <ele>55.193449070526</ele>
        <time>2020-06-06T14:55:11.000Z</time>
      </trkpt>
      <trkpt lat="43.67472" lon="3.92672">
        <ele>55.091094891658</ele>
        <time>2020-06-06T14:55:12.000Z</time>
      </trkpt>
      <trkpt lat="43.67469" lon="3.92671">
        <ele>55</ele>
        <time>2020-06-06T14:55:13.000Z</time>
      </trkpt>
      <trkpt lat="43.67466" lon="3.92669">
        <ele>55</ele>
        <time>2020-06-06T14:55:14.000Z</time>
      </trkpt>
      <trkpt lat="43.67463" lon="3.92668">
        <ele>55</ele>
        <time>2020-06-06T14:55:15.000Z</time>
      </trkpt>
      <trkpt lat="43.67461" lon="3.92667">
        <ele>55</ele>
        <time>2020-06-06T14:55:16.000Z</time>
      </trkpt>
      <trkpt lat="43.67459" lon="3.92665">
        <ele>55</ele>
        <time>2020-06-06T14:55:18.000Z</time>
      </trkpt>
      <trkpt lat="43.67458" lon="3.92664">
        <ele>55</ele>
        <time>2020-06-06T14:55:23.000Z</time>
      </trkpt>
      <trkpt lat="43.67455" lon="3.92655">
        <ele>55</ele>
        <time>2020-06-06T14:55:36.000Z</time>
      </trkpt>
      <trkpt lat="43.67454" lon="3.92653">
        <ele>55</ele>
        <time>2020-06-06T14:55:37.000Z</time>
      </trkpt>
      <trkpt lat="43.67454" lon="3.9265">
        <ele>55</ele>
        <time>2020-06-06T14:55:38.000Z</time>
      </trkpt>
      <trkpt lat="43.67453" lon="3.92646">
        <ele>55</ele>
        <time>2020-06-06T14:55:39.000Z</time>
      </trkpt>
      <trkpt lat="43.67451" lon="3.92642">
        <ele>55</ele>
        <time>2020-06-06T14:55:40.000Z</time>
      </trkpt>
      <trkpt lat="43.67449" lon="3.92637">
        <ele>55</ele>
        <time>2020-06-06T14:55:41.000Z</time>
      </trkpt>
      <trkpt lat="43.67447" lon="3.92631">
        <ele>55</ele>
        <time>2020-06-06T14:55:42.000Z</time>
      </trkpt>
      <trkpt lat="43.67444" lon="3.92625">
        <ele>55</ele>
        <time>2020-06-06T14:55:43.000Z</time>
      </trkpt>
      <trkpt lat="43.67441" lon="3.9262">
        <ele>55</ele>
        <time>2020-06-06T14:55:44.000Z</time>
      </trkpt>
      <trkpt lat="43.67438" lon="3.92614">
        <ele>55</ele>
        <time>2020-06-06T14:55:45.000Z</time>
      </trkpt>
      <trkpt lat="43.67436" lon="3.92608">
        <ele>55</ele>
        <time>2020-06-06T14:55:46.000Z</time>
      </trkpt>
      <trkpt lat="43.67435" lon="3.92602">
        <ele>55</ele>
        <time>2020-06-06T14:55:47.000Z</time>
      </trkpt>
      <trkpt lat="43.67435" lon="3.92596">
        <ele>55</ele>
        <time>2020-06-06T14:55:48.000Z</time>
      </trkpt>
      <trkpt lat="43.67436" lon="3.92589">
        <ele>55</ele>
        <time>2020-06-06T14:55:49.000Z</time>
      </trkpt>
      <trkpt lat="43.67437" lon="3.92583">
        <ele>55</ele>
        <time>2020-06-06T14:55:50.000Z</time>
      </trkpt>
      <trkpt lat="43.67439" lon="3.92577">
        <ele>55</ele>
        <time>2020-06-06T14:55:51.000Z</time>
      </trkpt>
      <trkpt lat="43.6744" lon="3.92571">
        <ele>55</ele>
        <time>2020-06-06T14:55:52.000Z</time>
      </trkpt>
      <trkpt lat="43.67441" lon="3.92564">
        <ele>55</ele>
        <time>2020-06-06T14:55:53.000Z</time>
      </trkpt>
      <trkpt lat="43.67441" lon="3.92558">
        <ele>55</ele>
        <time>2020-06-06T14:55:54.000Z</time>
      </trkpt>
      <trkpt lat="43.67441" lon="3.92552">
        <ele>55</ele>
        <time>2020-06-06T14:55:55.000Z</time>
      </trkpt>
      <trkpt lat="43.67441" lon="3.92547">
        <ele>55</ele>
        <time>2020-06-06T14:55:56.000Z</time>
      </trkpt>
      <trkpt lat="43.67439" lon="3.92544">
        <ele>54.91460872428</ele>
        <time>2020-06-06T14:55:57.000Z</time>
      </trkpt>
      <trkpt lat="43.67436" lon="3.92543">
        <ele>54.811728065844</ele>
        <time>2020-06-06T14:55:58.000Z</time>
      </trkpt>
      <trkpt lat="43.67432" lon="3.92544">
        <ele>54.708847407407</ele>
        <time>2020-06-06T14:55:59.000Z</time>
      </trkpt>
      <trkpt lat="43.67428" lon="3.92545">
        <ele>54.605966748971</ele>
        <time>2020-06-06T14:56:00.000Z</time>
      </trkpt>
      <trkpt lat="43.67425" lon="3.92546">
        <ele>54.503086090535</ele>
        <time>2020-06-06T14:56:01.000Z</time>
      </trkpt>
      <trkpt lat="43.67421" lon="3.92548">
        <ele>54.400205432099</ele>
        <time>2020-06-06T14:56:02.000Z</time>
      </trkpt>
      <trkpt lat="43.67416" lon="3.9255">
        <ele>54.297324773663</ele>
        <time>2020-06-06T14:56:03.000Z</time>
      </trkpt>
      <trkpt lat="43.67412" lon="3.92551">
        <ele>54.194444115226</ele>
        <time>2020-06-06T14:56:04.000Z</time>
      </trkpt>
      <trkpt lat="43.67408" lon="3.92552">
        <ele>54.09156345679</ele>
        <time>2020-06-06T14:56:05.000Z</time>
      </trkpt>
      <trkpt lat="43.67403" lon="3.92554">
        <ele>54</ele>
        <time>2020-06-06T14:56:06.000Z</time>
      </trkpt>
      <trkpt lat="43.67398" lon="3.92555">
        <ele>54</ele>
        <time>2020-06-06T14:56:07.000Z</time>
      </trkpt>
      <trkpt lat="43.67394" lon="3.92556">
        <ele>54</ele>
        <time>2020-06-06T14:56:08.000Z</time>
      </trkpt>
      <trkpt lat="43.67389" lon="3.92558">
        <ele>54</ele>
        <time>2020-06-06T14:56:09.000Z</time>
      </trkpt>
      <trkpt lat="43.67384" lon="3.92559">
        <ele>54</ele>
        <time>2020-06-06T14:56:10.000Z</time>
      </trkpt>
      <trkpt lat="43.67379" lon="3.92561">
        <ele>54</ele>
        <time>2020-06-06T14:56:11.000Z</time>
      </trkpt>
      <trkpt lat="43.67373" lon="3.92562">
        <ele>54</ele>
        <time>2020-06-06T14:56:12.000Z</time>
      </trkpt>
      <trkpt lat="43.67368" lon="3.92564">
        <ele>54</ele>
        <time>2020-06-06T14:56:13.000Z</time>
      </trkpt>
      <trkpt lat="43.67363" lon="3.92565">
        <ele>54</ele>
        <time>2020-06-06T14:56:14.000Z</time>
      </trkpt>
      <trkpt lat="43.67358" lon="3.92566">
        <ele>54</ele>
        <time>2020-06-06T14:56:15.000Z</time>
      </trkpt>
      <trkpt lat="43.67353" lon="3.92567">
        <ele>53.992110458629</ele>
        <time>2020-06-06T14:56:16.000Z</time>
      </trkpt>
      <trkpt lat="43.67348" lon="3.92568">
        <ele>53.893491191485</ele>
        <time>2020-06-06T14:56:17.000Z</time>
      </trkpt>
      <trkpt lat="43.67343" lon="3.92569">
        <ele>53.794871924341</ele>
        <time>2020-06-06T14:56:18.000Z</time>
      </trkpt>
      <trkpt lat="43.67339" lon="3.9257">
        <ele>53.696252657197</ele>
        <time>2020-06-06T14:56:19.000Z</time>
      </trkpt>
      <trkpt lat="43.67334" lon="3.92571">
        <ele>53.597633390054</ele>
        <time>2020-06-06T14:56:20.000Z</time>
      </trkpt>
      <trkpt lat="43.6733" lon="3.92573">
        <ele>53.49901412291</ele>
        <time>2020-06-06T14:56:21.000Z</time>
      </trkpt>
      <trkpt lat="43.67327" lon="3.92574">
        <ele>53.400394855767</ele>
        <time>2020-06-06T14:56:22.000Z</time>
      </trkpt>
      <trkpt lat="43.67325" lon="3.92574">
        <ele>53.301775588623</ele>
        <time>2020-06-06T14:56:23.000Z</time>
      </trkpt>
      <trkpt lat="43.67322" lon="3.92573">
        <ele>53.104537054336</ele>
        <time>2020-06-06T14:56:25.000Z</time>
      </trkpt>
      <trkpt lat="43.67321" lon="3.92571">
        <ele>53.005917787192</ele>
        <time>2020-06-06T14:56:26.000Z</time>
      </trkpt>
      <trkpt lat="43.67319" lon="3.92569">
        <ele>52.904374921872</ele>
        <time>2020-06-06T14:56:27.000Z</time>
      </trkpt>
      <trkpt lat="43.67316" lon="3.92568">
        <ele>52.802645422726</ele>
        <time>2020-06-06T14:56:28.000Z</time>
      </trkpt>
      <trkpt lat="43.67312" lon="3.92568">
        <ele>52.70091592358</ele>
        <time>2020-06-06T14:56:29.000Z</time>
      </trkpt>
      <trkpt lat="43.67309" lon="3.92568">
        <ele>52.599186424434</ele>
        <time>2020-06-06T14:56:30.000Z</time>
      </trkpt>
      <trkpt lat="43.67305" lon="3.92568">
        <ele>52.497456925289</ele>
        <time>2020-06-06T14:56:31.000Z</time>
      </trkpt>
      <trkpt lat="43.67303" lon="3.92566">
        <ele>52.395727426143</ele>
        <time>2020-06-06T14:56:32.000Z</time>
      </trkpt>
      <trkpt lat="43.67301" lon="3.92564">
        <ele>52.293997926997</ele>
        <time>2020-06-06T14:56:33.000Z</time>
      </trkpt>
      <trkpt lat="43.673" lon="3.9256">
        <ele>52.192268427851</ele>
        <time>2020-06-06T14:56:34.000Z</time>
      </trkpt>
      <trkpt lat="43.67301" lon="3.92557">
        <ele>52.090538928705</ele>
        <time>2020-06-06T14:56:35.000Z</time>
      </trkpt>
      <trkpt lat="43.67302" lon="3.92554">
        <ele>51.844100674157</ele>
        <time>2020-06-06T14:56:37.000Z</time>
      </trkpt>
      <trkpt lat="43.67304" lon="3.92554">
        <ele>51.001404044944</ele>
        <time>2020-06-06T14:56:43.000Z</time>
      </trkpt>
      <trkpt lat="43.673" lon="3.92557">
        <ele>51</ele>
        <time>2020-06-06T14:56:50.000Z</time>
      </trkpt>
      <trkpt lat="43.67299" lon="3.92556">
        <ele>51.092179500014</ele>
        <time>2020-06-06T14:56:51.000Z</time>
      </trkpt>
      <trkpt lat="43.67299" lon="3.92553">
        <ele>51.930166828752</ele>
        <time>2020-06-06T14:56:57.000Z</time>
      </trkpt>
      <trkpt lat="43.67296" lon="3.92534">
        <ele>53.983197198278</ele>
        <time>2020-06-06T14:57:40.000Z</time>
      </trkpt>
      <trkpt lat="43.67297" lon="3.92534">
        <ele>54</ele>
        <time>2020-06-06T14:57:45.000Z</time>
      </trkpt>
      <trkpt lat="43.673" lon="3.9253">
        <ele>54</ele>
        <time>2020-06-06T14:57:54.000Z</time>
      </trkpt>
      <trkpt lat="43.67302" lon="3.92529">
        <ele>53.806909918699</ele>
        <time>2020-06-06T14:57:55.000Z</time>
      </trkpt>
      <trkpt lat="43.67305" lon="3.92528">
        <ele>53.400405853658</ele>
        <time>2020-06-06T14:57:57.000Z</time>
      </trkpt>
      <trkpt lat="43.67306" lon="3.92528">
        <ele>53.197153821138</ele>
        <time>2020-06-06T14:57:58.000Z</time>
      </trkpt>
      <trkpt lat="43.67309" lon="3.92528">
        <ele>52.993901788618</ele>
        <time>2020-06-06T14:57:59.000Z</time>
      </trkpt>
      <trkpt lat="43.67311" lon="3.92527">
        <ele>52.790649756098</ele>
        <time>2020-06-06T14:58:00.000Z</time>
      </trkpt>
      <trkpt lat="43.67314" lon="3.92527">
        <ele>52.587397723577</ele>
        <time>2020-06-06T14:58:01.000Z</time>
      </trkpt>
      <trkpt lat="43.67317" lon="3.92526">
        <ele>52.384145691057</ele>
        <time>2020-06-06T14:58:02.000Z</time>
      </trkpt>
      <trkpt lat="43.6732" lon="3.92525">
        <ele>52.180893658537</ele>
        <time>2020-06-06T14:58:03.000Z</time>
      </trkpt>
      <trkpt lat="43.67323" lon="3.92524">
        <ele>52</ele>
        <time>2020-06-06T14:58:04.000Z</time>
      </trkpt>
      <trkpt lat="43.67326" lon="3.92524">
        <ele>52</ele>
        <time>2020-06-06T14:58:05.000Z</time>
      </trkpt>
      <trkpt lat="43.6733" lon="3.92524">
        <ele>52</ele>
        <time>2020-06-06T14:58:06.000Z</time>
      </trkpt>
      <trkpt lat="43.67333" lon="3.92524">
        <ele>52</ele>
        <time>2020-06-06T14:58:07.000Z</time>
      </trkpt>
      <trkpt lat="43.67336" lon="3.92524">
        <ele>52</ele>
        <time>2020-06-06T14:58:08.000Z</time>
      </trkpt>
      <trkpt lat="43.6734" lon="3.92525">
        <ele>52</ele>
        <time>2020-06-06T14:58:09.000Z</time>
      </trkpt>
      <trkpt lat="43.67344" lon="3.92525">
        <ele>52</ele>
        <time>2020-06-06T14:58:10.000Z</time>
      </trkpt>
      <trkpt lat="43.67347" lon="3.92525">
        <ele>52</ele>
        <time>2020-06-06T14:58:11.000Z</time>
      </trkpt>
      <trkpt lat="43.6735" lon="3.92524">
        <ele>52</ele>
        <time>2020-06-06T14:58:12.000Z</time>
      </trkpt>
      <trkpt lat="43.67352" lon="3.92522">
        <ele>52</ele>
        <time>2020-06-06T14:58:13.000Z</time>
      </trkpt>
      <trkpt lat="43.67353" lon="3.92519">
        <ele>52</ele>
        <time>2020-06-06T14:58:14.000Z</time>
      </trkpt>
      <trkpt lat="43.67352" lon="3.92515">
        <ele>52</ele>
        <time>2020-06-06T14:58:15.000Z</time>
      </trkpt>
      <trkpt lat="43.67351" lon="3.92511">
        <ele>52</ele>
        <time>2020-06-06T14:58:16.000Z</time>
      </trkpt>
      <trkpt lat="43.67349" lon="3.92507">
        <ele>52</ele>
        <time>2020-06-06T14:58:17.000Z</time>
      </trkpt>
      <trkpt lat="43.67347" lon="3.92503">
        <ele>52</ele>
        <time>2020-06-06T14:58:18.000Z</time>
      </trkpt>
      <trkpt lat="43.67346" lon="3.92498">
        <ele>52</ele>
        <time>2020-06-06T14:58:19.000Z</time>
      </trkpt>
      <trkpt lat="43.67344" lon="3.92494">
        <ele>52</ele>
        <time>2020-06-06T14:58:20.000Z</time>
      </trkpt>
      <trkpt lat="43.67342" lon="3.92489">
        <ele>52</ele>
        <time>2020-06-06T14:58:21.000Z</time>
      </trkpt>
      <trkpt lat="43.67341" lon="3.92485">
        <ele>52</ele>
        <time>2020-06-06T14:58:22.000Z</time>
      </trkpt>
      <trkpt lat="43.67339" lon="3.9248">
        <ele>52</ele>
        <time>2020-06-06T14:58:23.000Z</time>
      </trkpt>
      <trkpt lat="43.67337" lon="3.92476">
        <ele>52.010934704773</ele>
        <time>2020-06-06T14:58:24.000Z</time>
      </trkpt>
      <trkpt lat="43.67336" lon="3.92471">
        <ele>52.110338220063</ele>
        <time>2020-06-06T14:58:25.000Z</time>
      </trkpt>
      <trkpt lat="43.67334" lon="3.92466">
        <ele>52.209741735353</ele>
        <time>2020-06-06T14:58:26.000Z</time>
      </trkpt>
      <trkpt lat="43.67332" lon="3.92461">
        <ele>52.309145250643</ele>
        <time>2020-06-06T14:58:27.000Z</time>
      </trkpt>
      <trkpt lat="43.6733" lon="3.92457">
        <ele>52.408548765933</ele>
        <time>2020-06-06T14:58:28.000Z</time>
      </trkpt>
      <trkpt lat="43.67329" lon="3.92452">
        <ele>52.507952281223</ele>
        <time>2020-06-06T14:58:29.000Z</time>
      </trkpt>
      <trkpt lat="43.67327" lon="3.92448">
        <ele>52.607355796513</ele>
        <time>2020-06-06T14:58:30.000Z</time>
      </trkpt>
      <trkpt lat="43.67325" lon="3.92443">
        <ele>52.706759311803</ele>
        <time>2020-06-06T14:58:31.000Z</time>
      </trkpt>
      <trkpt lat="43.67325" lon="3.92439">
        <ele>52.806162827093</ele>
        <time>2020-06-06T14:58:32.000Z</time>
      </trkpt>
      <trkpt lat="43.67327" lon="3.92435">
        <ele>52.905566342383</ele>
        <time>2020-06-06T14:58:33.000Z</time>
      </trkpt>
      <trkpt lat="43.67329" lon="3.92432">
        <ele>53.005004689494</ele>
        <time>2020-06-06T14:58:34.000Z</time>
      </trkpt>
      <trkpt lat="43.67332" lon="3.9243">
        <ele>53.105104885787</ele>
        <time>2020-06-06T14:58:35.000Z</time>
      </trkpt>
      <trkpt lat="43.67335" lon="3.92428">
        <ele>53.205205082079</ele>
        <time>2020-06-06T14:58:36.000Z</time>
      </trkpt>
      <trkpt lat="43.67338" lon="3.92425">
        <ele>53.305305278371</ele>
        <time>2020-06-06T14:58:37.000Z</time>
      </trkpt>
      <trkpt lat="43.67341" lon="3.92422">
        <ele>53.405405474664</ele>
        <time>2020-06-06T14:58:38.000Z</time>
      </trkpt>
      <trkpt lat="43.67344" lon="3.92419">
        <ele>53.505505670956</ele>
        <time>2020-06-06T14:58:39.000Z</time>
      </trkpt>
      <trkpt lat="43.67347" lon="3.92416">
        <ele>53.605605867249</ele>
        <time>2020-06-06T14:58:40.000Z</time>
      </trkpt>
      <trkpt lat="43.67349" lon="3.92414">
        <ele>53.705706063541</ele>
        <time>2020-06-06T14:58:41.000Z</time>
      </trkpt>
      <trkpt lat="43.67352" lon="3.92411">
        <ele>53.805806259834</ele>
        <time>2020-06-06T14:58:42.000Z</time>
      </trkpt>
      <trkpt lat="43.67355" lon="3.92408">
        <ele>53.905906456126</ele>
        <time>2020-06-06T14:58:43.000Z</time>
      </trkpt>
      <trkpt lat="43.67357" lon="3.92405">
        <ele>54</ele>
        <time>2020-06-06T14:58:44.000Z</time>
      </trkpt>
      <trkpt lat="43.6736" lon="3.92402">
        <ele>54</ele>
        <time>2020-06-06T14:58:45.000Z</time>
      </trkpt>
      <trkpt lat="43.67363" lon="3.92399">
        <ele>54</ele>
        <time>2020-06-06T14:58:46.000Z</time>
      </trkpt>
      <trkpt lat="43.67366" lon="3.92397">
        <ele>54</ele>
        <time>2020-06-06T14:58:47.000Z</time>
      </trkpt>
      <trkpt lat="43.67369" lon="3.92394">
        <ele>54</ele>
        <time>2020-06-06T14:58:48.000Z</time>
      </trkpt>
      <trkpt lat="43.67372" lon="3.92391">
        <ele>54</ele>
        <time>2020-06-06T14:58:49.000Z</time>
      </trkpt>
      <trkpt lat="43.67375" lon="3.92388">
        <ele>54</ele>
        <time>2020-06-06T14:58:50.000Z</time>
      </trkpt>
      <trkpt lat="43.67378" lon="3.92386">
        <ele>54</ele>
        <time>2020-06-06T14:58:51.000Z</time>
      </trkpt>
      <trkpt lat="43.67381" lon="3.92384">
        <ele>54</ele>
        <time>2020-06-06T14:58:52.000Z</time>
      </trkpt>
      <trkpt lat="43.67383" lon="3.92381">
        <ele>54</ele>
        <time>2020-06-06T14:58:53.000Z</time>
      </trkpt>
      <trkpt lat="43.67385" lon="3.92378">
        <ele>54.01100032</ele>
        <time>2020-06-06T14:58:54.000Z</time>
      </trkpt>
      <trkpt lat="43.67386" lon="3.92374">
        <ele>54.11100032</ele>
        <time>2020-06-06T14:58:55.000Z</time>
      </trkpt>
      <trkpt lat="43.67387" lon="3.9237">
        <ele>54.21100032</ele>
        <time>2020-06-06T14:58:56.000Z</time>
      </trkpt>
      <trkpt lat="43.67386" lon="3.92365">
        <ele>54.31100032</ele>
        <time>2020-06-06T14:58:57.000Z</time>
      </trkpt>
      <trkpt lat="43.67384" lon="3.92361">
        <ele>54.41100032</ele>
        <time>2020-06-06T14:58:58.000Z</time>
      </trkpt>
      <trkpt lat="43.67382" lon="3.92356">
        <ele>54.51100032</ele>
        <time>2020-06-06T14:58:59.000Z</time>
      </trkpt>
      <trkpt lat="43.6738" lon="3.92352">
        <ele>54.61100032</ele>
        <time>2020-06-06T14:59:00.000Z</time>
      </trkpt>
      <trkpt lat="43.67378" lon="3.92348">
        <ele>54.71100032</ele>
        <time>2020-06-06T14:59:01.000Z</time>
      </trkpt>
      <trkpt lat="43.67375" lon="3.92343">
        <ele>54.81100032</ele>
        <time>2020-06-06T14:59:02.000Z</time>
      </trkpt>
      <trkpt lat="43.67373" lon="3.92339">
        <ele>54.91100032</ele>
        <time>2020-06-06T14:59:03.000Z</time>
      </trkpt>
      <trkpt lat="43.67371" lon="3.92335">
        <ele>54.989032585752</ele>
        <time>2020-06-06T14:59:04.000Z</time>
      </trkpt>
      <trkpt lat="43.67369" lon="3.9233">
        <ele>54.889331720253</ele>
        <time>2020-06-06T14:59:05.000Z</time>
      </trkpt>
      <trkpt lat="43.67366" lon="3.92326">
        <ele>54.789630854754</ele>
        <time>2020-06-06T14:59:06.000Z</time>
      </trkpt>
      <trkpt lat="43.67364" lon="3.92322">
        <ele>54.689929989255</ele>
        <time>2020-06-06T14:59:07.000Z</time>
      </trkpt>
      <trkpt lat="43.67362" lon="3.92317">
        <ele>54.590229123755</ele>
        <time>2020-06-06T14:59:08.000Z</time>
      </trkpt>
      <trkpt lat="43.6736" lon="3.92313">
        <ele>54.490528258256</ele>
        <time>2020-06-06T14:59:09.000Z</time>
      </trkpt>
      <trkpt lat="43.67358" lon="3.92309">
        <ele>54.390827392757</ele>
        <time>2020-06-06T14:59:10.000Z</time>
      </trkpt>
      <trkpt lat="43.67355" lon="3.92304">
        <ele>54.291126527258</ele>
        <time>2020-06-06T14:59:11.000Z</time>
      </trkpt>
      <trkpt lat="43.67354" lon="3.923">
        <ele>54.191425661759</ele>
        <time>2020-06-06T14:59:12.000Z</time>
      </trkpt>
      <trkpt lat="43.67352" lon="3.92296">
        <ele>54.091724796259</ele>
        <time>2020-06-06T14:59:13.000Z</time>
      </trkpt>
      <trkpt lat="43.67353" lon="3.92291">
        <ele>54.008024074792</ele>
        <time>2020-06-06T14:59:14.000Z</time>
      </trkpt>
      <trkpt lat="43.67354" lon="3.92287">
        <ele>54.108325009693</ele>
        <time>2020-06-06T14:59:15.000Z</time>
      </trkpt>
      <trkpt lat="43.67357" lon="3.92285">
        <ele>54.208625944594</ele>
        <time>2020-06-06T14:59:16.000Z</time>
      </trkpt>
      <trkpt lat="43.67361" lon="3.92284">
        <ele>54.308926879495</ele>
        <time>2020-06-06T14:59:17.000Z</time>
      </trkpt>
      <trkpt lat="43.67364" lon="3.92283">
        <ele>54.409227814396</ele>
        <time>2020-06-06T14:59:18.000Z</time>
      </trkpt>
      <trkpt lat="43.67368" lon="3.92283">
        <ele>54.509528749297</ele>
        <time>2020-06-06T14:59:19.000Z</time>
      </trkpt>
      <trkpt lat="43.67371" lon="3.92282">
        <ele>54.609829684198</ele>
        <time>2020-06-06T14:59:20.000Z</time>
      </trkpt>
      <trkpt lat="43.67375" lon="3.92281">
        <ele>54.710130619099</ele>
        <time>2020-06-06T14:59:21.000Z</time>
      </trkpt>
      <trkpt lat="43.67378" lon="3.92281">
        <ele>54.810431554</ele>
        <time>2020-06-06T14:59:22.000Z</time>
      </trkpt>
      <trkpt lat="43.67382" lon="3.9228">
        <ele>54.910732488901</ele>
        <time>2020-06-06T14:59:23.000Z</time>
      </trkpt>
      <trkpt lat="43.67386" lon="3.9228">
        <ele>55</ele>
        <time>2020-06-06T14:59:24.000Z</time>
      </trkpt>
      <trkpt lat="43.67389" lon="3.92279">
        <ele>55</ele>
        <time>2020-06-06T14:59:25.000Z</time>
      </trkpt>
      <trkpt lat="43.67393" lon="3.92279">
        <ele>55</ele>
        <time>2020-06-06T14:59:26.000Z</time>
      </trkpt>
      <trkpt lat="43.67396" lon="3.92278">
        <ele>55</ele>
        <time>2020-06-06T14:59:27.000Z</time>
      </trkpt>
      <trkpt lat="43.674" lon="3.92278">
        <ele>55</ele>
        <time>2020-06-06T14:59:28.000Z</time>
      </trkpt>
      <trkpt lat="43.67404" lon="3.92277">
        <ele>55</ele>
        <time>2020-06-06T14:59:29.000Z</time>
      </trkpt>
      <trkpt lat="43.67407" lon="3.92277">
        <ele>55</ele>
        <time>2020-06-06T14:59:30.000Z</time>
      </trkpt>
      <trkpt lat="43.67411" lon="3.92276">
        <ele>55</ele>
        <time>2020-06-06T14:59:31.000Z</time>
      </trkpt>
      <trkpt lat="43.67415" lon="3.92275">
        <ele>55</ele>
        <time>2020-06-06T14:59:32.000Z</time>
      </trkpt>
      <trkpt lat="43.67419" lon="3.92275">
        <ele>55</ele>
        <time>2020-06-06T14:59:33.000Z</time>
      </trkpt>
      <trkpt lat="43.67423" lon="3.92274">
        <ele>55</ele>
        <time>2020-06-06T14:59:34.000Z</time>
      </trkpt>
      <trkpt lat="43.67427" lon="3.92273">
        <ele>55.08539127572</ele>
        <time>2020-06-06T14:59:35.000Z</time>
      </trkpt>
      <trkpt lat="43.67431" lon="3.92273">
        <ele>55.188271934156</ele>
        <time>2020-06-06T14:59:36.000Z</time>
      </trkpt>
      <trkpt lat="43.67435" lon="3.92272">
        <ele>55.291152592593</ele>
        <time>2020-06-06T14:59:37.000Z</time>
      </trkpt>
      <trkpt lat="43.67439" lon="3.92271">
        <ele>55.394033251029</ele>
        <time>2020-06-06T14:59:38.000Z</time>
      </trkpt>
      <trkpt lat="43.67443" lon="3.92271">
        <ele>55.496913909465</ele>
        <time>2020-06-06T14:59:39.000Z</time>
      </trkpt>
      <trkpt lat="43.67448" lon="3.9227">
        <ele>55.599794567901</ele>
        <time>2020-06-06T14:59:40.000Z</time>
      </trkpt>
      <trkpt lat="43.67452" lon="3.9227">
        <ele>55.702675226337</ele>
        <time>2020-06-06T14:59:41.000Z</time>
      </trkpt>
      <trkpt lat="43.67456" lon="3.92269">
        <ele>55.805555884774</ele>
        <time>2020-06-06T14:59:42.000Z</time>
      </trkpt>
      <trkpt lat="43.67461" lon="3.92269">
        <ele>55.90843654321</ele>
        <time>2020-06-06T14:59:43.000Z</time>
      </trkpt>
      <trkpt lat="43.67465" lon="3.92268">
        <ele>56</ele>
        <time>2020-06-06T14:59:44.000Z</time>
      </trkpt>
      <trkpt lat="43.67469" lon="3.92267">
        <ele>56</ele>
        <time>2020-06-06T14:59:45.000Z</time>
      </trkpt>
      <trkpt lat="43.67473" lon="3.92266">
        <ele>56</ele>
        <time>2020-06-06T14:59:46.000Z</time>
      </trkpt>
      <trkpt lat="43.67477" lon="3.92266">
        <ele>56</ele>
        <time>2020-06-06T14:59:47.000Z</time>
      </trkpt>
      <trkpt lat="43.67481" lon="3.92265">
        <ele>56</ele>
        <time>2020-06-06T14:59:48.000Z</time>
      </trkpt>
      <trkpt lat="43.67485" lon="3.92264">
        <ele>56</ele>
        <time>2020-06-06T14:59:49.000Z</time>
      </trkpt>
      <trkpt lat="43.67489" lon="3.92263">
        <ele>56</ele>
        <time>2020-06-06T14:59:50.000Z</time>
      </trkpt>
      <trkpt lat="43.67494" lon="3.92262">
        <ele>56</ele>
        <time>2020-06-06T14:59:51.000Z</time>
      </trkpt>
      <trkpt lat="43.67498" lon="3.92261">
        <ele>56</ele>
        <time>2020-06-06T14:59:52.000Z</time>
      </trkpt>
      <trkpt lat="43.67502" lon="3.9226">
        <ele>56</ele>
        <time>2020-06-06T14:59:53.000Z</time>
      </trkpt>
      <trkpt lat="43.67506" lon="3.92258">
        <ele>56</ele>
        <time>2020-06-06T14:59:54.000Z</time>
      </trkpt>
      <trkpt lat="43.6751" lon="3.92257">
        <ele>56</ele>
        <time>2020-06-06T14:59:55.000Z</time>
      </trkpt>
      <trkpt lat="43.67514" lon="3.92256">
        <ele>56</ele>
        <time>2020-06-06T14:59:56.000Z</time>
      </trkpt>
      <trkpt lat="43.67518" lon="3.92255">
        <ele>56</ele>
        <time>2020-06-06T14:59:57.000Z</time>
      </trkpt>
      <trkpt lat="43.67522" lon="3.92254">
        <ele>56</ele>
        <time>2020-06-06T14:59:58.000Z</time>
      </trkpt>
      <trkpt lat="43.67527" lon="3.92253">
        <ele>56</ele>
        <time>2020-06-06T14:59:59.000Z</time>
      </trkpt>
      <trkpt lat="43.67531" lon="3.92251">
        <ele>56</ele>
        <time>2020-06-06T15:00:00.000Z</time>
      </trkpt>
      <trkpt lat="43.67535" lon="3.9225">
        <ele>56</ele>
        <time>2020-06-06T15:00:01.000Z</time>
      </trkpt>
      <trkpt lat="43.67539" lon="3.92248">
        <ele>56</ele>
        <time>2020-06-06T15:00:02.000Z</time>
      </trkpt>
      <trkpt lat="43.67543" lon="3.92247">
        <ele>56</ele>
        <time>2020-06-06T15:00:03.000Z</time>
      </trkpt>
      <trkpt lat="43.67547" lon="3.92246">
        <ele>56.008866677008</ele>
        <time>2020-06-06T15:00:04.000Z</time>
      </trkpt>
      <trkpt lat="43.67551" lon="3.92244">
        <ele>56.107388813434</ele>
        <time>2020-06-06T15:00:05.000Z</time>
      </trkpt>
      <trkpt lat="43.67555" lon="3.92243">
        <ele>56.205910949861</ele>
        <time>2020-06-06T15:00:06.000Z</time>
      </trkpt>
      <trkpt lat="43.6756" lon="3.92242">
        <ele>56.304433086287</ele>
        <time>2020-06-06T15:00:07.000Z</time>
      </trkpt>
      <trkpt lat="43.67564" lon="3.9224">
        <ele>56.402955222714</ele>
        <time>2020-06-06T15:00:08.000Z</time>
      </trkpt>
      <trkpt lat="43.67568" lon="3.92239">
        <ele>56.50147735914</ele>
        <time>2020-06-06T15:00:09.000Z</time>
      </trkpt>
      <trkpt lat="43.67572" lon="3.92237">
        <ele>56.599999495567</ele>
        <time>2020-06-06T15:00:10.000Z</time>
      </trkpt>
      <trkpt lat="43.67576" lon="3.92236">
        <ele>56.698521631993</ele>
        <time>2020-06-06T15:00:11.000Z</time>
      </trkpt>
      <trkpt lat="43.6758" lon="3.92234">
        <ele>56.79704376842</ele>
        <time>2020-06-06T15:00:12.000Z</time>
      </trkpt>
      <trkpt lat="43.67584" lon="3.92232">
        <ele>56.895565904846</ele>
        <time>2020-06-06T15:00:13.000Z</time>
      </trkpt>
      <trkpt lat="43.67588" lon="3.92231">
        <ele>56.994088041273</ele>
        <time>2020-06-06T15:00:14.000Z</time>
      </trkpt>
      <trkpt lat="43.67591" lon="3.92229">
        <ele>57</ele>
        <time>2020-06-06T15:00:15.000Z</time>
      </trkpt>
      <trkpt lat="43.67594" lon="3.92228">
        <ele>57</ele>
        <time>2020-06-06T15:00:16.000Z</time>
      </trkpt>
      <trkpt lat="43.67598" lon="3.92226">
        <ele>57</ele>
        <time>2020-06-06T15:00:17.000Z</time>
      </trkpt>
      <trkpt lat="43.67601" lon="3.92224">
        <ele>57</ele>
        <time>2020-06-06T15:00:18.000Z</time>
      </trkpt>
      <trkpt lat="43.67605" lon="3.92222">
        <ele>57</ele>
        <time>2020-06-06T15:00:19.000Z</time>
      </trkpt>
      <trkpt lat="43.67608" lon="3.9222">
        <ele>57</ele>
        <time>2020-06-06T15:00:20.000Z</time>
      </trkpt>
      <trkpt lat="43.67612" lon="3.92219">
        <ele>57</ele>
        <time>2020-06-06T15:00:21.000Z</time>
      </trkpt>
      <trkpt lat="43.67616" lon="3.92217">
        <ele>57</ele>
        <time>2020-06-06T15:00:22.000Z</time>
      </trkpt>
      <trkpt lat="43.6762" lon="3.92216">
        <ele>57</ele>
        <time>2020-06-06T15:00:23.000Z</time>
      </trkpt>
      <trkpt lat="43.67624" lon="3.92215">
        <ele>57</ele>
        <time>2020-06-06T15:00:24.000Z</time>
      </trkpt>
      <trkpt lat="43.67627" lon="3.92214">
        <ele>57</ele>
        <time>2020-06-06T15:00:25.000Z</time>
      </trkpt>
      <trkpt lat="43.67631" lon="3.92215">
        <ele>57</ele>
        <time>2020-06-06T15:00:26.000Z</time>
      </trkpt>
      <trkpt lat="43.67634" lon="3.92217">
        <ele>57</ele>
        <time>2020-06-06T15:00:27.000Z</time>
      </trkpt>
      <trkpt lat="43.67638" lon="3.92219">
        <ele>57</ele>
        <time>2020-06-06T15:00:28.000Z</time>
      </trkpt>
      <trkpt lat="43.67641" lon="3.92222">
        <ele>57</ele>
        <time>2020-06-06T15:00:29.000Z</time>
      </trkpt>
      <trkpt lat="43.67644" lon="3.92224">
        <ele>57</ele>
        <time>2020-06-06T15:00:30.000Z</time>
      </trkpt>
      <trkpt lat="43.67647" lon="3.92226">
        <ele>57</ele>
        <time>2020-06-06T15:00:31.000Z</time>
      </trkpt>
      <trkpt lat="43.6765" lon="3.92227">
        <ele>57</ele>
        <time>2020-06-06T15:00:32.000Z</time>
      </trkpt>
      <trkpt lat="43.67654" lon="3.92227">
        <ele>57</ele>
        <time>2020-06-06T15:00:33.000Z</time>
      </trkpt>
      <trkpt lat="43.67657" lon="3.92227">
        <ele>57</ele>
        <time>2020-06-06T15:00:34.000Z</time>
      </trkpt>
      <trkpt lat="43.67661" lon="3.92226">
        <ele>57</ele>
        <time>2020-06-06T15:00:35.000Z</time>
      </trkpt>
      <trkpt lat="43.67665" lon="3.92225">
        <ele>57</ele>
        <time>2020-06-06T15:00:36.000Z</time>
      </trkpt>
      <trkpt lat="43.67668" lon="3.92224">
        <ele>57</ele>
        <time>2020-06-06T15:00:37.000Z</time>
      </trkpt>
      <trkpt lat="43.67672" lon="3.92223">
        <ele>57</ele>
        <time>2020-06-06T15:00:38.000Z</time>
      </trkpt>
      <trkpt lat="43.67676" lon="3.92222">
        <ele>57</ele>
        <time>2020-06-06T15:00:39.000Z</time>
      </trkpt>
      <trkpt lat="43.6768" lon="3.92221">
        <ele>57</ele>
        <time>2020-06-06T15:00:40.000Z</time>
      </trkpt>
      <trkpt lat="43.67684" lon="3.9222">
        <ele>57</ele>
        <time>2020-06-06T15:00:41.000Z</time>
      </trkpt>
      <trkpt lat="43.67687" lon="3.92218">
        <ele>57</ele>
        <time>2020-06-06T15:00:42.000Z</time>
      </trkpt>
      <trkpt lat="43.67691" lon="3.92217">
        <ele>57</ele>
        <time>2020-06-06T15:00:43.000Z</time>
      </trkpt>
      <trkpt lat="43.67694" lon="3.92216">
        <ele>57</ele>
        <time>2020-06-06T15:00:44.000Z</time>
      </trkpt>
      <trkpt lat="43.67698" lon="3.92214">
        <ele>57</ele>
        <time>2020-06-06T15:00:45.000Z</time>
      </trkpt>
      <trkpt lat="43.67701" lon="3.92213">
        <ele>57</ele>
        <time>2020-06-06T15:00:46.000Z</time>
      </trkpt>
      <trkpt lat="43.67705" lon="3.92212">
        <ele>57</ele>
        <time>2020-06-06T15:00:47.000Z</time>
      </trkpt>
      <trkpt lat="43.67708" lon="3.9221">
        <ele>57</ele>
        <time>2020-06-06T15:00:48.000Z</time>
      </trkpt>
      <trkpt lat="43.67712" lon="3.92209">
        <ele>57</ele>
        <time>2020-06-06T15:00:49.000Z</time>
      </trkpt>
      <trkpt lat="43.67716" lon="3.92208">
        <ele>57</ele>
        <time>2020-06-06T15:00:50.000Z</time>
      </trkpt>
      <trkpt lat="43.67719" lon="3.92206">
        <ele>57</ele>
        <time>2020-06-06T15:00:51.000Z</time>
      </trkpt>
      <trkpt lat="43.67723" lon="3.92205">
        <ele>57</ele>
        <time>2020-06-06T15:00:52.000Z</time>
      </trkpt>
      <trkpt lat="43.67727" lon="3.92203">
        <ele>57</ele>
        <time>2020-06-06T15:00:53.000Z</time>
      </trkpt>
      <trkpt lat="43.6773" lon="3.92202">
        <ele>57.01100032</ele>
        <time>2020-06-06T15:00:54.000Z</time>
      </trkpt>
      <trkpt lat="43.67734" lon="3.922">
        <ele>57.11100032</ele>
        <time>2020-06-06T15:00:55.000Z</time>
      </trkpt>
      <trkpt lat="43.67738" lon="3.92199">
        <ele>57.21100032</ele>
        <time>2020-06-06T15:00:56.000Z</time>
      </trkpt>
      <trkpt lat="43.67742" lon="3.92197">
        <ele>57.31100032</ele>
        <time>2020-06-06T15:00:57.000Z</time>
      </trkpt>
      <trkpt lat="43.67746" lon="3.92196">
        <ele>57.41100032</ele>
        <time>2020-06-06T15:00:58.000Z</time>
      </trkpt>
      <trkpt lat="43.6775" lon="3.92195">
        <ele>57.51100032</ele>
        <time>2020-06-06T15:00:59.000Z</time>
      </trkpt>
      <trkpt lat="43.67754" lon="3.92193">
        <ele>57.61100032</ele>
        <time>2020-06-06T15:01:00.000Z</time>
      </trkpt>
      <trkpt lat="43.67759" lon="3.92191">
        <ele>57.71100032</ele>
        <time>2020-06-06T15:01:01.000Z</time>
      </trkpt>
      <trkpt lat="43.67763" lon="3.92189">
        <ele>57.81100032</ele>
        <time>2020-06-06T15:01:02.000Z</time>
      </trkpt>
      <trkpt lat="43.67767" lon="3.92187">
        <ele>57.91100032</ele>
        <time>2020-06-06T15:01:03.000Z</time>
      </trkpt>
      <trkpt lat="43.67771" lon="3.92185">
        <ele>58</ele>
        <time>2020-06-06T15:01:04.000Z</time>
      </trkpt>
      <trkpt lat="43.67775" lon="3.92183">
        <ele>58</ele>
        <time>2020-06-06T15:01:05.000Z</time>
      </trkpt>
      <trkpt lat="43.67779" lon="3.92181">
        <ele>58</ele>
        <time>2020-06-06T15:01:06.000Z</time>
      </trkpt>
      <trkpt lat="43.67782" lon="3.92179">
        <ele>58</ele>
        <time>2020-06-06T15:01:07.000Z</time>
      </trkpt>
      <trkpt lat="43.67786" lon="3.92177">
        <ele>58</ele>
        <time>2020-06-06T15:01:08.000Z</time>
      </trkpt>
      <trkpt lat="43.6779" lon="3.92175">
        <ele>58</ele>
        <time>2020-06-06T15:01:09.000Z</time>
      </trkpt>
      <trkpt lat="43.67793" lon="3.92173">
        <ele>58</ele>
        <time>2020-06-06T15:01:10.000Z</time>
      </trkpt>
      <trkpt lat="43.67796" lon="3.92171">
        <ele>58</ele>
        <time>2020-06-06T15:01:11.000Z</time>
      </trkpt>
      <trkpt lat="43.678" lon="3.92169">
        <ele>58</ele>
        <time>2020-06-06T15:01:12.000Z</time>
      </trkpt>
      <trkpt lat="43.67803" lon="3.92166">
        <ele>58</ele>
        <time>2020-06-06T15:01:13.000Z</time>
      </trkpt>
      <trkpt lat="43.67806" lon="3.92164">
        <ele>58.010690304588</ele>
        <time>2020-06-06T15:01:14.000Z</time>
      </trkpt>
      <trkpt lat="43.67809" lon="3.92161">
        <ele>58.107872064644</ele>
        <time>2020-06-06T15:01:15.000Z</time>
      </trkpt>
      <trkpt lat="43.67812" lon="3.92158">
        <ele>58.205053824701</ele>
        <time>2020-06-06T15:01:16.000Z</time>
      </trkpt>
      <trkpt lat="43.67815" lon="3.92155">
        <ele>58.302235584757</ele>
        <time>2020-06-06T15:01:17.000Z</time>
      </trkpt>
      <trkpt lat="43.67817" lon="3.92153">
        <ele>58.399417344814</ele>
        <time>2020-06-06T15:01:18.000Z</time>
      </trkpt>
      <trkpt lat="43.6782" lon="3.9215">
        <ele>58.49659910487</ele>
        <time>2020-06-06T15:01:19.000Z</time>
      </trkpt>
      <trkpt lat="43.67823" lon="3.92147">
        <ele>58.593780864927</ele>
        <time>2020-06-06T15:01:20.000Z</time>
      </trkpt>
      <trkpt lat="43.67826" lon="3.92144">
        <ele>58.690962624983</ele>
        <time>2020-06-06T15:01:21.000Z</time>
      </trkpt>
      <trkpt lat="43.67829" lon="3.92141">
        <ele>58.78814438504</ele>
        <time>2020-06-06T15:01:22.000Z</time>
      </trkpt>
      <trkpt lat="43.67832" lon="3.92138">
        <ele>58.885326145097</ele>
        <time>2020-06-06T15:01:23.000Z</time>
      </trkpt>
      <trkpt lat="43.67835" lon="3.92134">
        <ele>58.982507905153</ele>
        <time>2020-06-06T15:01:24.000Z</time>
      </trkpt>
      <trkpt lat="43.67838" lon="3.92131">
        <ele>59</ele>
        <time>2020-06-06T15:01:25.000Z</time>
      </trkpt>
      <trkpt lat="43.67841" lon="3.92128">
        <ele>59</ele>
        <time>2020-06-06T15:01:26.000Z</time>
      </trkpt>
      <trkpt lat="43.67844" lon="3.92126">
        <ele>59</ele>
        <time>2020-06-06T15:01:27.000Z</time>
      </trkpt>
      <trkpt lat="43.67847" lon="3.92123">
        <ele>59</ele>
        <time>2020-06-06T15:01:28.000Z</time>
      </trkpt>
      <trkpt lat="43.6785" lon="3.9212">
        <ele>59</ele>
        <time>2020-06-06T15:01:29.000Z</time>
      </trkpt>
      <trkpt lat="43.67853" lon="3.92117">
        <ele>59</ele>
        <time>2020-06-06T15:01:30.000Z</time>
      </trkpt>
      <trkpt lat="43.67856" lon="3.92114">
        <ele>59</ele>
        <time>2020-06-06T15:01:31.000Z</time>
      </trkpt>
      <trkpt lat="43.6786" lon="3.92111">
        <ele>59</ele>
        <time>2020-06-06T15:01:32.000Z</time>
      </trkpt>
      <trkpt lat="43.67863" lon="3.92107">
        <ele>59</ele>
        <time>2020-06-06T15:01:33.000Z</time>
      </trkpt>
      <trkpt lat="43.67866" lon="3.92104">
        <ele>59.010902189826</ele>
        <time>2020-06-06T15:01:34.000Z</time>
      </trkpt>
      <trkpt lat="43.6787" lon="3.92101">
        <ele>59.110010123281</ele>
        <time>2020-06-06T15:01:35.000Z</time>
      </trkpt>
      <trkpt lat="43.67873" lon="3.92098">
        <ele>59.209118056736</ele>
        <time>2020-06-06T15:01:36.000Z</time>
      </trkpt>
      <trkpt lat="43.67876" lon="3.92095">
        <ele>59.308225990191</ele>
        <time>2020-06-06T15:01:37.000Z</time>
      </trkpt>
      <trkpt lat="43.67879" lon="3.92092">
        <ele>59.407333923647</ele>
        <time>2020-06-06T15:01:38.000Z</time>
      </trkpt>
      <trkpt lat="43.67882" lon="3.92089">
        <ele>59.506441857102</ele>
        <time>2020-06-06T15:01:39.000Z</time>
      </trkpt>
      <trkpt lat="43.67885" lon="3.92086">
        <ele>59.605549790557</ele>
        <time>2020-06-06T15:01:40.000Z</time>
      </trkpt>
      <trkpt lat="43.67889" lon="3.92083">
        <ele>59.704657724012</ele>
        <time>2020-06-06T15:01:41.000Z</time>
      </trkpt>
      <trkpt lat="43.67892" lon="3.9208">
        <ele>59.803765657468</ele>
        <time>2020-06-06T15:01:42.000Z</time>
      </trkpt>
      <trkpt lat="43.67895" lon="3.92077">
        <ele>59.902873590923</ele>
        <time>2020-06-06T15:01:43.000Z</time>
      </trkpt>
      <trkpt lat="43.67898" lon="3.92074">
        <ele>60.002017519613</ele>
        <time>2020-06-06T15:01:44.000Z</time>
      </trkpt>
      <trkpt lat="43.67901" lon="3.9207">
        <ele>60.102925790927</ele>
        <time>2020-06-06T15:01:45.000Z</time>
      </trkpt>
      <trkpt lat="43.67904" lon="3.92067">
        <ele>60.203834062241</ele>
        <time>2020-06-06T15:01:46.000Z</time>
      </trkpt>
      <trkpt lat="43.67907" lon="3.92064">
        <ele>60.304742333555</ele>
        <time>2020-06-06T15:01:47.000Z</time>
      </trkpt>
      <trkpt lat="43.67909" lon="3.92062">
        <ele>60.405650604868</ele>
        <time>2020-06-06T15:01:48.000Z</time>
      </trkpt>
      <trkpt lat="43.67911" lon="3.92059">
        <ele>60.506558876182</ele>
        <time>2020-06-06T15:01:49.000Z</time>
      </trkpt>
      <trkpt lat="43.67913" lon="3.92057">
        <ele>60.607467147496</ele>
        <time>2020-06-06T15:01:50.000Z</time>
      </trkpt>
      <trkpt lat="43.67915" lon="3.92055">
        <ele>60.70837541881</ele>
        <time>2020-06-06T15:01:51.000Z</time>
      </trkpt>
      <trkpt lat="43.67917" lon="3.92053">
        <ele>60.809283690124</ele>
        <time>2020-06-06T15:01:52.000Z</time>
      </trkpt>
      <trkpt lat="43.67919" lon="3.92051">
        <ele>61.01100032</ele>
        <time>2020-06-06T15:01:54.000Z</time>
      </trkpt>
      <trkpt lat="43.6792" lon="3.92048">
        <ele>61.21100032</ele>
        <time>2020-06-06T15:01:56.000Z</time>
      </trkpt>
      <trkpt lat="43.67921" lon="3.92045">
        <ele>61.41100032</ele>
        <time>2020-06-06T15:01:58.000Z</time>
      </trkpt>
      <trkpt lat="43.6792" lon="3.92041">
        <ele>61.61100032</ele>
        <time>2020-06-06T15:02:00.000Z</time>
      </trkpt>
      <trkpt lat="43.67918" lon="3.92038">
        <ele>61.81100032</ele>
        <time>2020-06-06T15:02:02.000Z</time>
      </trkpt>
      <trkpt lat="43.67916" lon="3.92036">
        <ele>61.91100032</ele>
        <time>2020-06-06T15:02:03.000Z</time>
      </trkpt>
      <trkpt lat="43.67914" lon="3.92035">
        <ele>62</ele>
        <time>2020-06-06T15:02:04.000Z</time>
      </trkpt>
      <trkpt lat="43.67911" lon="3.92033">
        <ele>62</ele>
        <time>2020-06-06T15:02:05.000Z</time>
      </trkpt>
      <trkpt lat="43.67909" lon="3.92032">
        <ele>62</ele>
        <time>2020-06-06T15:02:06.000Z</time>
      </trkpt>
      <trkpt lat="43.67906" lon="3.92031">
        <ele>62</ele>
        <time>2020-06-06T15:02:07.000Z</time>
      </trkpt>
      <trkpt lat="43.67904" lon="3.92029">
        <ele>62</ele>
        <time>2020-06-06T15:02:08.000Z</time>
      </trkpt>
      <trkpt lat="43.67901" lon="3.92027">
        <ele>62</ele>
        <time>2020-06-06T15:02:09.000Z</time>
      </trkpt>
      <trkpt lat="43.67898" lon="3.92025">
        <ele>62</ele>
        <time>2020-06-06T15:02:10.000Z</time>
      </trkpt>
      <trkpt lat="43.67896" lon="3.92024">
        <ele>62</ele>
        <time>2020-06-06T15:02:11.000Z</time>
      </trkpt>
      <trkpt lat="43.67893" lon="3.92022">
        <ele>62</ele>
        <time>2020-06-06T15:02:12.000Z</time>
      </trkpt>
      <trkpt lat="43.67891" lon="3.92021">
        <ele>62</ele>
        <time>2020-06-06T15:02:13.000Z</time>
      </trkpt>
      <trkpt lat="43.67888" lon="3.92019">
        <ele>62.01100032</ele>
        <time>2020-06-06T15:02:14.000Z</time>
      </trkpt>
      <trkpt lat="43.67886" lon="3.92018">
        <ele>62.11100032</ele>
        <time>2020-06-06T15:02:15.000Z</time>
      </trkpt>
      <trkpt lat="43.67884" lon="3.92016">
        <ele>62.21100032</ele>
        <time>2020-06-06T15:02:16.000Z</time>
      </trkpt>
      <trkpt lat="43.67882" lon="3.92015">
        <ele>62.31100032</ele>
        <time>2020-06-06T15:02:17.000Z</time>
      </trkpt>
      <trkpt lat="43.6788" lon="3.92013">
        <ele>62.41100032</ele>
        <time>2020-06-06T15:02:18.000Z</time>
      </trkpt>
      <trkpt lat="43.67878" lon="3.92011">
        <ele>62.51100032</ele>
        <time>2020-06-06T15:02:19.000Z</time>
      </trkpt>
      <trkpt lat="43.67875" lon="3.92009">
        <ele>62.61100032</ele>
        <time>2020-06-06T15:02:20.000Z</time>
      </trkpt>
      <trkpt lat="43.67873" lon="3.92007">
        <ele>62.71100032</ele>
        <time>2020-06-06T15:02:21.000Z</time>
      </trkpt>
      <trkpt lat="43.6787" lon="3.92006">
        <ele>62.81100032</ele>
        <time>2020-06-06T15:02:22.000Z</time>
      </trkpt>
      <trkpt lat="43.67867" lon="3.92004">
        <ele>62.91100032</ele>
        <time>2020-06-06T15:02:23.000Z</time>
      </trkpt>
      <trkpt lat="43.67865" lon="3.92002">
        <ele>63.01100032</ele>
        <time>2020-06-06T15:02:24.000Z</time>
      </trkpt>
      <trkpt lat="43.67862" lon="3.92001">
        <ele>63.11100032</ele>
        <time>2020-06-06T15:02:25.000Z</time>
      </trkpt>
      <trkpt lat="43.6786" lon="3.91998">
        <ele>63.21100032</ele>
        <time>2020-06-06T15:02:26.000Z</time>
      </trkpt>
      <trkpt lat="43.67857" lon="3.91996">
        <ele>63.31100032</ele>
        <time>2020-06-06T15:02:27.000Z</time>
      </trkpt>
      <trkpt lat="43.67855" lon="3.91994">
        <ele>63.41100032</ele>
        <time>2020-06-06T15:02:28.000Z</time>
      </trkpt>
      <trkpt lat="43.67852" lon="3.91993">
        <ele>63.51100032</ele>
        <time>2020-06-06T15:02:29.000Z</time>
      </trkpt>
      <trkpt lat="43.6785" lon="3.91991">
        <ele>63.61100032</ele>
        <time>2020-06-06T15:02:30.000Z</time>
      </trkpt>
      <trkpt lat="43.67847" lon="3.9199">
        <ele>63.71100032</ele>
        <time>2020-06-06T15:02:31.000Z</time>
      </trkpt>
      <trkpt lat="43.67845" lon="3.91988">
        <ele>63.81100032</ele>
        <time>2020-06-06T15:02:32.000Z</time>
      </trkpt>
      <trkpt lat="43.67842" lon="3.91986">
        <ele>63.91100032</ele>
        <time>2020-06-06T15:02:33.000Z</time>
      </trkpt>
      <trkpt lat="43.6784" lon="3.91984">
        <ele>64.01100032</ele>
        <time>2020-06-06T15:02:34.000Z</time>
      </trkpt>
      <trkpt lat="43.67837" lon="3.91982">
        <ele>64.11100032</ele>
        <time>2020-06-06T15:02:35.000Z</time>
      </trkpt>
      <trkpt lat="43.67834" lon="3.9198">
        <ele>64.21100032</ele>
        <time>2020-06-06T15:02:36.000Z</time>
      </trkpt>
      <trkpt lat="43.67831" lon="3.91977">
        <ele>64.31100032</ele>
        <time>2020-06-06T15:02:37.000Z</time>
      </trkpt>
      <trkpt lat="43.67828" lon="3.91974">
        <ele>64.41100032</ele>
        <time>2020-06-06T15:02:38.000Z</time>
      </trkpt>
      <trkpt lat="43.67825" lon="3.91971">
        <ele>64.51100032</ele>
        <time>2020-06-06T15:02:39.000Z</time>
      </trkpt>
      <trkpt lat="43.67822" lon="3.91969">
        <ele>64.61100032</ele>
        <time>2020-06-06T15:02:40.000Z</time>
      </trkpt>
      <trkpt lat="43.67819" lon="3.91966">
        <ele>64.71100032</ele>
        <time>2020-06-06T15:02:41.000Z</time>
      </trkpt>
      <trkpt lat="43.67816" lon="3.91963">
        <ele>64.81100032</ele>
        <time>2020-06-06T15:02:42.000Z</time>
      </trkpt>
      <trkpt lat="43.67813" lon="3.91961">
        <ele>64.91100032</ele>
        <time>2020-06-06T15:02:43.000Z</time>
      </trkpt>
      <trkpt lat="43.6781" lon="3.91958">
        <ele>65</ele>
        <time>2020-06-06T15:02:44.000Z</time>
      </trkpt>
      <trkpt lat="43.67807" lon="3.91955">
        <ele>65</ele>
        <time>2020-06-06T15:02:45.000Z</time>
      </trkpt>
      <trkpt lat="43.67805" lon="3.91953">
        <ele>65</ele>
        <time>2020-06-06T15:02:46.000Z</time>
      </trkpt>
      <trkpt lat="43.67803" lon="3.91951">
        <ele>65</ele>
        <time>2020-06-06T15:02:47.000Z</time>
      </trkpt>
      <trkpt lat="43.67801" lon="3.91948">
        <ele>65</ele>
        <time>2020-06-06T15:02:48.000Z</time>
      </trkpt>
      <trkpt lat="43.67799" lon="3.91946">
        <ele>65</ele>
        <time>2020-06-06T15:02:49.000Z</time>
      </trkpt>
      <trkpt lat="43.67797" lon="3.91945">
        <ele>65</ele>
        <time>2020-06-06T15:02:50.000Z</time>
      </trkpt>
      <trkpt lat="43.67796" lon="3.91943">
        <ele>65</ele>
        <time>2020-06-06T15:02:51.000Z</time>
      </trkpt>
      <trkpt lat="43.67794" lon="3.91941">
        <ele>65</ele>
        <time>2020-06-06T15:02:52.000Z</time>
      </trkpt>
      <trkpt lat="43.67793" lon="3.91939">
        <ele>65</ele>
        <time>2020-06-06T15:02:53.000Z</time>
      </trkpt>
      <trkpt lat="43.67792" lon="3.91937">
        <ele>65</ele>
        <time>2020-06-06T15:02:54.000Z</time>
      </trkpt>
      <trkpt lat="43.6779" lon="3.91935">
        <ele>65</ele>
        <time>2020-06-06T15:02:55.000Z</time>
      </trkpt>
      <trkpt lat="43.67788" lon="3.91933">
        <ele>65</ele>
        <time>2020-06-06T15:02:56.000Z</time>
      </trkpt>
      <trkpt lat="43.67785" lon="3.91931">
        <ele>65</ele>
        <time>2020-06-06T15:02:57.000Z</time>
      </trkpt>
      <trkpt lat="43.67782" lon="3.91929">
        <ele>65</ele>
        <time>2020-06-06T15:02:58.000Z</time>
      </trkpt>
      <trkpt lat="43.6778" lon="3.91927">
        <ele>65</ele>
        <time>2020-06-06T15:02:59.000Z</time>
      </trkpt>
      <trkpt lat="43.67777" lon="3.91924">
        <ele>65</ele>
        <time>2020-06-06T15:03:00.000Z</time>
      </trkpt>
      <trkpt lat="43.67774" lon="3.91922">
        <ele>65</ele>
        <time>2020-06-06T15:03:01.000Z</time>
      </trkpt>
      <trkpt lat="43.67772" lon="3.91919">
        <ele>65</ele>
        <time>2020-06-06T15:03:02.000Z</time>
      </trkpt>
      <trkpt lat="43.67769" lon="3.91917">
        <ele>65</ele>
        <time>2020-06-06T15:03:03.000Z</time>
      </trkpt>
      <trkpt lat="43.67767" lon="3.91915">
        <ele>65</ele>
        <time>2020-06-06T15:03:04.000Z</time>
      </trkpt>
      <trkpt lat="43.67765" lon="3.91913">
        <ele>65</ele>
        <time>2020-06-06T15:03:05.000Z</time>
      </trkpt>
      <trkpt lat="43.67763" lon="3.9191">
        <ele>65</ele>
        <time>2020-06-06T15:03:06.000Z</time>
      </trkpt>
      <trkpt lat="43.6776" lon="3.91908">
        <ele>65</ele>
        <time>2020-06-06T15:03:07.000Z</time>
      </trkpt>
      <trkpt lat="43.67759" lon="3.91906">
        <ele>65</ele>
        <time>2020-06-06T15:03:08.000Z</time>
      </trkpt>
      <trkpt lat="43.67757" lon="3.91904">
        <ele>65</ele>
        <time>2020-06-06T15:03:09.000Z</time>
      </trkpt>
      <trkpt lat="43.67755" lon="3.91902">
        <ele>65</ele>
        <time>2020-06-06T15:03:10.000Z</time>
      </trkpt>
      <trkpt lat="43.67753" lon="3.919">
        <ele>65</ele>
        <time>2020-06-06T15:03:11.000Z</time>
      </trkpt>
      <trkpt lat="43.67751" lon="3.91899">
        <ele>65</ele>
        <time>2020-06-06T15:03:12.000Z</time>
      </trkpt>
      <trkpt lat="43.6775" lon="3.91897">
        <ele>65</ele>
        <time>2020-06-06T15:03:13.000Z</time>
      </trkpt>
      <trkpt lat="43.67748" lon="3.91894">
        <ele>65</ele>
        <time>2020-06-06T15:03:14.000Z</time>
      </trkpt>
      <trkpt lat="43.67746" lon="3.91892">
        <ele>65</ele>
        <time>2020-06-06T15:03:15.000Z</time>
      </trkpt>
      <trkpt lat="43.67744" lon="3.9189">
        <ele>65</ele>
        <time>2020-06-06T15:03:16.000Z</time>
      </trkpt>
      <trkpt lat="43.67741" lon="3.91888">
        <ele>65</ele>
        <time>2020-06-06T15:03:17.000Z</time>
      </trkpt>
      <trkpt lat="43.67739" lon="3.91885">
        <ele>65</ele>
        <time>2020-06-06T15:03:18.000Z</time>
      </trkpt>
      <trkpt lat="43.67736" lon="3.91883">
        <ele>65</ele>
        <time>2020-06-06T15:03:19.000Z</time>
      </trkpt>
      <trkpt lat="43.67734" lon="3.9188">
        <ele>65</ele>
        <time>2020-06-06T15:03:20.000Z</time>
      </trkpt>
      <trkpt lat="43.67731" lon="3.91877">
        <ele>65</ele>
        <time>2020-06-06T15:03:21.000Z</time>
      </trkpt>
      <trkpt lat="43.67728" lon="3.91875">
        <ele>65</ele>
        <time>2020-06-06T15:03:22.000Z</time>
      </trkpt>
      <trkpt lat="43.67726" lon="3.91872">
        <ele>65</ele>
        <time>2020-06-06T15:03:23.000Z</time>
      </trkpt>
      <trkpt lat="43.67723" lon="3.91869">
        <ele>65</ele>
        <time>2020-06-06T15:03:24.000Z</time>
      </trkpt>
      <trkpt lat="43.67721" lon="3.91867">
        <ele>65</ele>
        <time>2020-06-06T15:03:25.000Z</time>
      </trkpt>
      <trkpt lat="43.67718" lon="3.91864">
        <ele>65</ele>
        <time>2020-06-06T15:03:26.000Z</time>
      </trkpt>
      <trkpt lat="43.67716" lon="3.91862">
        <ele>65</ele>
        <time>2020-06-06T15:03:27.000Z</time>
      </trkpt>
      <trkpt lat="43.67714" lon="3.91859">
        <ele>65</ele>
        <time>2020-06-06T15:03:28.000Z</time>
      </trkpt>
      <trkpt lat="43.67711" lon="3.91857">
        <ele>65</ele>
        <time>2020-06-06T15:03:29.000Z</time>
      </trkpt>
      <trkpt lat="43.67709" lon="3.91855">
        <ele>65</ele>
        <time>2020-06-06T15:03:30.000Z</time>
      </trkpt>
      <trkpt lat="43.67706" lon="3.91853">
        <ele>65</ele>
        <time>2020-06-06T15:03:31.000Z</time>
      </trkpt>
      <trkpt lat="43.67704" lon="3.91849">
        <ele>65</ele>
        <time>2020-06-06T15:03:32.000Z</time>
      </trkpt>
      <trkpt lat="43.67701" lon="3.91846">
        <ele>65</ele>
        <time>2020-06-06T15:03:33.000Z</time>
      </trkpt>
      <trkpt lat="43.67699" lon="3.91843">
        <ele>65</ele>
        <time>2020-06-06T15:03:34.000Z</time>
      </trkpt>
      <trkpt lat="43.67697" lon="3.91841">
        <ele>65.098377021259</ele>
        <time>2020-06-06T15:03:35.000Z</time>
      </trkpt>
      <trkpt lat="43.67694" lon="3.91839">
        <ele>65.199796965386</ele>
        <time>2020-06-06T15:03:36.000Z</time>
      </trkpt>
      <trkpt lat="43.67692" lon="3.91836">
        <ele>65.301216909512</ele>
        <time>2020-06-06T15:03:37.000Z</time>
      </trkpt>
      <trkpt lat="43.6769" lon="3.91834">
        <ele>65.402636853638</ele>
        <time>2020-06-06T15:03:38.000Z</time>
      </trkpt>
      <trkpt lat="43.67688" lon="3.91831">
        <ele>65.504056797765</ele>
        <time>2020-06-06T15:03:39.000Z</time>
      </trkpt>
      <trkpt lat="43.67685" lon="3.91829">
        <ele>65.605476741892</ele>
        <time>2020-06-06T15:03:40.000Z</time>
      </trkpt>
      <trkpt lat="43.67683" lon="3.91826">
        <ele>65.706896686018</ele>
        <time>2020-06-06T15:03:41.000Z</time>
      </trkpt>
      <trkpt lat="43.6768" lon="3.91824">
        <ele>65.808316630145</ele>
        <time>2020-06-06T15:03:42.000Z</time>
      </trkpt>
      <trkpt lat="43.67678" lon="3.91821">
        <ele>65.909736574271</ele>
        <time>2020-06-06T15:03:43.000Z</time>
      </trkpt>
      <trkpt lat="43.67675" lon="3.91818">
        <ele>66</ele>
        <time>2020-06-06T15:03:44.000Z</time>
      </trkpt>
      <trkpt lat="43.67672" lon="3.91815">
        <ele>66</ele>
        <time>2020-06-06T15:03:45.000Z</time>
      </trkpt>
      <trkpt lat="43.67669" lon="3.91813">
        <ele>66</ele>
        <time>2020-06-06T15:03:46.000Z</time>
      </trkpt>
      <trkpt lat="43.67666" lon="3.9181">
        <ele>66</ele>
        <time>2020-06-06T15:03:47.000Z</time>
      </trkpt>
      <trkpt lat="43.67664" lon="3.91807">
        <ele>66</ele>
        <time>2020-06-06T15:03:48.000Z</time>
      </trkpt>
      <trkpt lat="43.67661" lon="3.91804">
        <ele>66</ele>
        <time>2020-06-06T15:03:49.000Z</time>
      </trkpt>
      <trkpt lat="43.67658" lon="3.91802">
        <ele>66</ele>
        <time>2020-06-06T15:03:50.000Z</time>
      </trkpt>
      <trkpt lat="43.67656" lon="3.91799">
        <ele>66</ele>
        <time>2020-06-06T15:03:51.000Z</time>
      </trkpt>
      <trkpt lat="43.67653" lon="3.91797">
        <ele>66</ele>
        <time>2020-06-06T15:03:52.000Z</time>
      </trkpt>
      <trkpt lat="43.67651" lon="3.91794">
        <ele>66</ele>
        <time>2020-06-06T15:03:53.000Z</time>
      </trkpt>
      <trkpt lat="43.67649" lon="3.91792">
        <ele>66</ele>
        <time>2020-06-06T15:03:54.000Z</time>
      </trkpt>
      <trkpt lat="43.67647" lon="3.9179">
        <ele>66</ele>
        <time>2020-06-06T15:03:55.000Z</time>
      </trkpt>
      <trkpt lat="43.67644" lon="3.91788">
        <ele>66</ele>
        <time>2020-06-06T15:03:56.000Z</time>
      </trkpt>
      <trkpt lat="43.67642" lon="3.91786">
        <ele>66</ele>
        <time>2020-06-06T15:03:57.000Z</time>
      </trkpt>
      <trkpt lat="43.6764" lon="3.91784">
        <ele>66</ele>
        <time>2020-06-06T15:03:58.000Z</time>
      </trkpt>
      <trkpt lat="43.67638" lon="3.91782">
        <ele>66</ele>
        <time>2020-06-06T15:03:59.000Z</time>
      </trkpt>
      <trkpt lat="43.67635" lon="3.91779">
        <ele>66</ele>
        <time>2020-06-06T15:04:00.000Z</time>
      </trkpt>
      <trkpt lat="43.67633" lon="3.91777">
        <ele>66</ele>
        <time>2020-06-06T15:04:01.000Z</time>
      </trkpt>
      <trkpt lat="43.67631" lon="3.91774">
        <ele>66</ele>
        <time>2020-06-06T15:04:02.000Z</time>
      </trkpt>
      <trkpt lat="43.67628" lon="3.91772">
        <ele>66</ele>
        <time>2020-06-06T15:04:03.000Z</time>
      </trkpt>
      <trkpt lat="43.67625" lon="3.91769">
        <ele>66</ele>
        <time>2020-06-06T15:04:04.000Z</time>
      </trkpt>
      <trkpt lat="43.67623" lon="3.91766">
        <ele>66</ele>
        <time>2020-06-06T15:04:05.000Z</time>
      </trkpt>
      <trkpt lat="43.6762" lon="3.91764">
        <ele>66</ele>
        <time>2020-06-06T15:04:06.000Z</time>
      </trkpt>
      <trkpt lat="43.67617" lon="3.91761">
        <ele>66</ele>
        <time>2020-06-06T15:04:07.000Z</time>
      </trkpt>
      <trkpt lat="43.67614" lon="3.91758">
        <ele>66</ele>
        <time>2020-06-06T15:04:08.000Z</time>
      </trkpt>
      <trkpt lat="43.67612" lon="3.91756">
        <ele>66</ele>
        <time>2020-06-06T15:04:09.000Z</time>
      </trkpt>
      <trkpt lat="43.67609" lon="3.91753">
        <ele>66</ele>
        <time>2020-06-06T15:04:10.000Z</time>
      </trkpt>
      <trkpt lat="43.67607" lon="3.9175">
        <ele>66</ele>
        <time>2020-06-06T15:04:11.000Z</time>
      </trkpt>
      <trkpt lat="43.67605" lon="3.91747">
        <ele>66</ele>
        <time>2020-06-06T15:04:12.000Z</time>
      </trkpt>
      <trkpt lat="43.67602" lon="3.91745">
        <ele>66</ele>
        <time>2020-06-06T15:04:13.000Z</time>
      </trkpt>
      <trkpt lat="43.676" lon="3.91742">
        <ele>65.98899968</ele>
        <time>2020-06-06T15:04:14.000Z</time>
      </trkpt>
      <trkpt lat="43.67598" lon="3.9174">
        <ele>65.88899968</ele>
        <time>2020-06-06T15:04:15.000Z</time>
      </trkpt>
      <trkpt lat="43.67596" lon="3.91737">
        <ele>65.78899968</ele>
        <time>2020-06-06T15:04:16.000Z</time>
      </trkpt>
      <trkpt lat="43.67593" lon="3.91735">
        <ele>65.68899968</ele>
        <time>2020-06-06T15:04:17.000Z</time>
      </trkpt>
      <trkpt lat="43.67591" lon="3.91733">
        <ele>65.58899968</ele>
        <time>2020-06-06T15:04:18.000Z</time>
      </trkpt>
      <trkpt lat="43.67589" lon="3.9173">
        <ele>65.48899968</ele>
        <time>2020-06-06T15:04:19.000Z</time>
      </trkpt>
      <trkpt lat="43.67586" lon="3.91728">
        <ele>65.38899968</ele>
        <time>2020-06-06T15:04:20.000Z</time>
      </trkpt>
      <trkpt lat="43.67584" lon="3.91726">
        <ele>65.28899968</ele>
        <time>2020-06-06T15:04:21.000Z</time>
      </trkpt>
      <trkpt lat="43.67581" lon="3.91723">
        <ele>65.18899968</ele>
        <time>2020-06-06T15:04:22.000Z</time>
      </trkpt>
      <trkpt lat="43.67578" lon="3.91721">
        <ele>65.08899968</ele>
        <time>2020-06-06T15:04:23.000Z</time>
      </trkpt>
      <trkpt lat="43.67576" lon="3.91718">
        <ele>65.010700700389</ele>
        <time>2020-06-06T15:04:24.000Z</time>
      </trkpt>
      <trkpt lat="43.67574" lon="3.91716">
        <ele>65.107976964981</ele>
        <time>2020-06-06T15:04:25.000Z</time>
      </trkpt>
      <trkpt lat="43.67571" lon="3.91714">
        <ele>65.205253229572</ele>
        <time>2020-06-06T15:04:26.000Z</time>
      </trkpt>
      <trkpt lat="43.6757" lon="3.91712">
        <ele>65.302529494163</ele>
        <time>2020-06-06T15:04:27.000Z</time>
      </trkpt>
      <trkpt lat="43.67568" lon="3.9171">
        <ele>65.399805758755</ele>
        <time>2020-06-06T15:04:28.000Z</time>
      </trkpt>
      <trkpt lat="43.67566" lon="3.91707">
        <ele>65.497082023346</ele>
        <time>2020-06-06T15:04:29.000Z</time>
      </trkpt>
      <trkpt lat="43.67564" lon="3.91705">
        <ele>65.594358287938</ele>
        <time>2020-06-06T15:04:30.000Z</time>
      </trkpt>
      <trkpt lat="43.67563" lon="3.91702">
        <ele>65.691634552529</ele>
        <time>2020-06-06T15:04:31.000Z</time>
      </trkpt>
      <trkpt lat="43.67561" lon="3.91699">
        <ele>65.788910817121</ele>
        <time>2020-06-06T15:04:32.000Z</time>
      </trkpt>
      <trkpt lat="43.67559" lon="3.91697">
        <ele>65.886187081712</ele>
        <time>2020-06-06T15:04:33.000Z</time>
      </trkpt>
      <trkpt lat="43.67556" lon="3.91694">
        <ele>65.983463346303</ele>
        <time>2020-06-06T15:04:34.000Z</time>
      </trkpt>
      <trkpt lat="43.67554" lon="3.91691">
        <ele>66</ele>
        <time>2020-06-06T15:04:35.000Z</time>
      </trkpt>
      <trkpt lat="43.67551" lon="3.91689">
        <ele>66</ele>
        <time>2020-06-06T15:04:36.000Z</time>
      </trkpt>
      <trkpt lat="43.67549" lon="3.91686">
        <ele>66</ele>
        <time>2020-06-06T15:04:37.000Z</time>
      </trkpt>
      <trkpt lat="43.67546" lon="3.91684">
        <ele>66</ele>
        <time>2020-06-06T15:04:38.000Z</time>
      </trkpt>
      <trkpt lat="43.67543" lon="3.91681">
        <ele>66</ele>
        <time>2020-06-06T15:04:39.000Z</time>
      </trkpt>
      <trkpt lat="43.6754" lon="3.91679">
        <ele>66</ele>
        <time>2020-06-06T15:04:40.000Z</time>
      </trkpt>
      <trkpt lat="43.67537" lon="3.91677">
        <ele>66</ele>
        <time>2020-06-06T15:04:41.000Z</time>
      </trkpt>
      <trkpt lat="43.67535" lon="3.91674">
        <ele>66</ele>
        <time>2020-06-06T15:04:42.000Z</time>
      </trkpt>
      <trkpt lat="43.67532" lon="3.91671">
        <ele>66</ele>
        <time>2020-06-06T15:04:43.000Z</time>
      </trkpt>
      <trkpt lat="43.6753" lon="3.91668">
        <ele>66</ele>
        <time>2020-06-06T15:04:44.000Z</time>
      </trkpt>
      <trkpt lat="43.67527" lon="3.91665">
        <ele>66</ele>
        <time>2020-06-06T15:04:45.000Z</time>
      </trkpt>
      <trkpt lat="43.67524" lon="3.91663">
        <ele>66</ele>
        <time>2020-06-06T15:04:46.000Z</time>
      </trkpt>
      <trkpt lat="43.67522" lon="3.9166">
        <ele>66</ele>
        <time>2020-06-06T15:04:47.000Z</time>
      </trkpt>
      <trkpt lat="43.67519" lon="3.91658">
        <ele>66</ele>
        <time>2020-06-06T15:04:48.000Z</time>
      </trkpt>
      <trkpt lat="43.67517" lon="3.91655">
        <ele>66</ele>
        <time>2020-06-06T15:04:49.000Z</time>
      </trkpt>
      <trkpt lat="43.67514" lon="3.91653">
        <ele>66</ele>
        <time>2020-06-06T15:04:50.000Z</time>
      </trkpt>
      <trkpt lat="43.67512" lon="3.91651">
        <ele>66</ele>
        <time>2020-06-06T15:04:51.000Z</time>
      </trkpt>
      <trkpt lat="43.6751" lon="3.91649">
        <ele>66</ele>
        <time>2020-06-06T15:04:52.000Z</time>
      </trkpt>
      <trkpt lat="43.67508" lon="3.91646">
        <ele>66</ele>
        <time>2020-06-06T15:04:53.000Z</time>
      </trkpt>
      <trkpt lat="43.67505" lon="3.91644">
        <ele>66</ele>
        <time>2020-06-06T15:04:54.000Z</time>
      </trkpt>
      <trkpt lat="43.67503" lon="3.91642">
        <ele>66</ele>
        <time>2020-06-06T15:04:55.000Z</time>
      </trkpt>
      <trkpt lat="43.67502" lon="3.9164">
        <ele>66</ele>
        <time>2020-06-06T15:04:56.000Z</time>
      </trkpt>
      <trkpt lat="43.675" lon="3.91638">
        <ele>66</ele>
        <time>2020-06-06T15:04:57.000Z</time>
      </trkpt>
      <trkpt lat="43.67498" lon="3.91636">
        <ele>66</ele>
        <time>2020-06-06T15:04:58.000Z</time>
      </trkpt>
      <trkpt lat="43.67497" lon="3.91634">
        <ele>66</ele>
        <time>2020-06-06T15:04:59.000Z</time>
      </trkpt>
      <trkpt lat="43.67495" lon="3.91632">
        <ele>66</ele>
        <time>2020-06-06T15:05:00.000Z</time>
      </trkpt>
      <trkpt lat="43.67493" lon="3.9163">
        <ele>66</ele>
        <time>2020-06-06T15:05:01.000Z</time>
      </trkpt>
      <trkpt lat="43.67492" lon="3.91628">
        <ele>66</ele>
        <time>2020-06-06T15:05:02.000Z</time>
      </trkpt>
      <trkpt lat="43.6749" lon="3.91626">
        <ele>66</ele>
        <time>2020-06-06T15:05:03.000Z</time>
      </trkpt>
      <trkpt lat="43.67487" lon="3.91624">
        <ele>65.98899968</ele>
        <time>2020-06-06T15:05:04.000Z</time>
      </trkpt>
      <trkpt lat="43.67485" lon="3.91621">
        <ele>65.88899968</ele>
        <time>2020-06-06T15:05:05.000Z</time>
      </trkpt>
      <trkpt lat="43.67483" lon="3.91619">
        <ele>65.78899968</ele>
        <time>2020-06-06T15:05:06.000Z</time>
      </trkpt>
      <trkpt lat="43.67481" lon="3.91617">
        <ele>65.68899968</ele>
        <time>2020-06-06T15:05:07.000Z</time>
      </trkpt>
      <trkpt lat="43.67479" lon="3.91614">
        <ele>65.58899968</ele>
        <time>2020-06-06T15:05:08.000Z</time>
      </trkpt>
      <trkpt lat="43.67477" lon="3.91611">
        <ele>65.48899968</ele>
        <time>2020-06-06T15:05:09.000Z</time>
      </trkpt>
      <trkpt lat="43.67475" lon="3.91608">
        <ele>65.38899968</ele>
        <time>2020-06-06T15:05:10.000Z</time>
      </trkpt>
      <trkpt lat="43.67473" lon="3.91605">
        <ele>65.28899968</ele>
        <time>2020-06-06T15:05:11.000Z</time>
      </trkpt>
      <trkpt lat="43.67471" lon="3.91603">
        <ele>65.18899968</ele>
        <time>2020-06-06T15:05:12.000Z</time>
      </trkpt>
      <trkpt lat="43.67469" lon="3.916">
        <ele>65.08899968</ele>
        <time>2020-06-06T15:05:13.000Z</time>
      </trkpt>
      <trkpt lat="43.67466" lon="3.91598">
        <ele>64.98899968</ele>
        <time>2020-06-06T15:05:14.000Z</time>
      </trkpt>
      <trkpt lat="43.67464" lon="3.91595">
        <ele>64.88899968</ele>
        <time>2020-06-06T15:05:15.000Z</time>
      </trkpt>
      <trkpt lat="43.67461" lon="3.91593">
        <ele>64.78899968</ele>
        <time>2020-06-06T15:05:16.000Z</time>
      </trkpt>
      <trkpt lat="43.67459" lon="3.91591">
        <ele>64.68899968</ele>
        <time>2020-06-06T15:05:17.000Z</time>
      </trkpt>
      <trkpt lat="43.67456" lon="3.91588">
        <ele>64.58899968</ele>
        <time>2020-06-06T15:05:18.000Z</time>
      </trkpt>
      <trkpt lat="43.67454" lon="3.91585">
        <ele>64.48899968</ele>
        <time>2020-06-06T15:05:19.000Z</time>
      </trkpt>
      <trkpt lat="43.67451" lon="3.91582">
        <ele>64.38899968</ele>
        <time>2020-06-06T15:05:20.000Z</time>
      </trkpt>
      <trkpt lat="43.67449" lon="3.9158">
        <ele>64.28899968</ele>
        <time>2020-06-06T15:05:21.000Z</time>
      </trkpt>
      <trkpt lat="43.67446" lon="3.91577">
        <ele>64.18899968</ele>
        <time>2020-06-06T15:05:22.000Z</time>
      </trkpt>
      <trkpt lat="43.67444" lon="3.91574">
        <ele>64.08899968</ele>
        <time>2020-06-06T15:05:23.000Z</time>
      </trkpt>
      <trkpt lat="43.67441" lon="3.9157">
        <ele>64</ele>
        <time>2020-06-06T15:05:24.000Z</time>
      </trkpt>
      <trkpt lat="43.67438" lon="3.91567">
        <ele>64</ele>
        <time>2020-06-06T15:05:25.000Z</time>
      </trkpt>
      <trkpt lat="43.67436" lon="3.91564">
        <ele>64</ele>
        <time>2020-06-06T15:05:26.000Z</time>
      </trkpt>
      <trkpt lat="43.67433" lon="3.91561">
        <ele>64</ele>
        <time>2020-06-06T15:05:27.000Z</time>
      </trkpt>
      <trkpt lat="43.67431" lon="3.91558">
        <ele>64</ele>
        <time>2020-06-06T15:05:28.000Z</time>
      </trkpt>
      <trkpt lat="43.67429" lon="3.91554">
        <ele>64</ele>
        <time>2020-06-06T15:05:29.000Z</time>
      </trkpt>
      <trkpt lat="43.67427" lon="3.91551">
        <ele>64</ele>
        <time>2020-06-06T15:05:30.000Z</time>
      </trkpt>
      <trkpt lat="43.67425" lon="3.91549">
        <ele>64</ele>
        <time>2020-06-06T15:05:31.000Z</time>
      </trkpt>
      <trkpt lat="43.67422" lon="3.91546">
        <ele>64</ele>
        <time>2020-06-06T15:05:32.000Z</time>
      </trkpt>
      <trkpt lat="43.67421" lon="3.91543">
        <ele>64</ele>
        <time>2020-06-06T15:05:33.000Z</time>
      </trkpt>
      <trkpt lat="43.67419" lon="3.9154">
        <ele>64</ele>
        <time>2020-06-06T15:05:34.000Z</time>
      </trkpt>
      <trkpt lat="43.67417" lon="3.91537">
        <ele>64</ele>
        <time>2020-06-06T15:05:35.000Z</time>
      </trkpt>
      <trkpt lat="43.67415" lon="3.91534">
        <ele>64</ele>
        <time>2020-06-06T15:05:36.000Z</time>
      </trkpt>
      <trkpt lat="43.67412" lon="3.91532">
        <ele>64</ele>
        <time>2020-06-06T15:05:37.000Z</time>
      </trkpt>
      <trkpt lat="43.67409" lon="3.91529">
        <ele>64</ele>
        <time>2020-06-06T15:05:38.000Z</time>
      </trkpt>
      <trkpt lat="43.67407" lon="3.91526">
        <ele>64</ele>
        <time>2020-06-06T15:05:39.000Z</time>
      </trkpt>
      <trkpt lat="43.67405" lon="3.91523">
        <ele>64</ele>
        <time>2020-06-06T15:05:40.000Z</time>
      </trkpt>
      <trkpt lat="43.67402" lon="3.9152">
        <ele>64</ele>
        <time>2020-06-06T15:05:41.000Z</time>
      </trkpt>
      <trkpt lat="43.67399" lon="3.91517">
        <ele>64</ele>
        <time>2020-06-06T15:05:42.000Z</time>
      </trkpt>
      <trkpt lat="43.67397" lon="3.91513">
        <ele>64</ele>
        <time>2020-06-06T15:05:43.000Z</time>
      </trkpt>
      <trkpt lat="43.67393" lon="3.9151">
        <ele>64</ele>
        <time>2020-06-06T15:05:44.000Z</time>
      </trkpt>
      <trkpt lat="43.67391" lon="3.91507">
        <ele>64.08539127572</ele>
        <time>2020-06-06T15:05:45.000Z</time>
      </trkpt>
      <trkpt lat="43.67388" lon="3.91504">
        <ele>64.188271934156</ele>
        <time>2020-06-06T15:05:46.000Z</time>
      </trkpt>
      <trkpt lat="43.67384" lon="3.91501">
        <ele>64.291152592593</ele>
        <time>2020-06-06T15:05:47.000Z</time>
      </trkpt>
      <trkpt lat="43.67381" lon="3.91498">
        <ele>64.394033251029</ele>
        <time>2020-06-06T15:05:48.000Z</time>
      </trkpt>
      <trkpt lat="43.67377" lon="3.91495">
        <ele>64.496913909465</ele>
        <time>2020-06-06T15:05:49.000Z</time>
      </trkpt>
      <trkpt lat="43.67374" lon="3.91492">
        <ele>64.599794567901</ele>
        <time>2020-06-06T15:05:50.000Z</time>
      </trkpt>
      <trkpt lat="43.67371" lon="3.91489">
        <ele>64.702675226337</ele>
        <time>2020-06-06T15:05:51.000Z</time>
      </trkpt>
      <trkpt lat="43.67368" lon="3.91486">
        <ele>64.805555884774</ele>
        <time>2020-06-06T15:05:52.000Z</time>
      </trkpt>
      <trkpt lat="43.67365" lon="3.91483">
        <ele>64.90843654321</ele>
        <time>2020-06-06T15:05:53.000Z</time>
      </trkpt>
      <trkpt lat="43.67362" lon="3.9148">
        <ele>65</ele>
        <time>2020-06-06T15:05:54.000Z</time>
      </trkpt>
      <trkpt lat="43.67359" lon="3.91477">
        <ele>65</ele>
        <time>2020-06-06T15:05:55.000Z</time>
      </trkpt>
      <trkpt lat="43.67356" lon="3.91474">
        <ele>65</ele>
        <time>2020-06-06T15:05:56.000Z</time>
      </trkpt>
      <trkpt lat="43.67354" lon="3.91471">
        <ele>65</ele>
        <time>2020-06-06T15:05:57.000Z</time>
      </trkpt>
      <trkpt lat="43.67351" lon="3.91469">
        <ele>65</ele>
        <time>2020-06-06T15:05:58.000Z</time>
      </trkpt>
      <trkpt lat="43.6735" lon="3.91466">
        <ele>65</ele>
        <time>2020-06-06T15:05:59.000Z</time>
      </trkpt>
      <trkpt lat="43.67348" lon="3.91463">
        <ele>65</ele>
        <time>2020-06-06T15:06:00.000Z</time>
      </trkpt>
      <trkpt lat="43.67345" lon="3.9146">
        <ele>65</ele>
        <time>2020-06-06T15:06:01.000Z</time>
      </trkpt>
      <trkpt lat="43.67342" lon="3.91458">
        <ele>65</ele>
        <time>2020-06-06T15:06:02.000Z</time>
      </trkpt>
      <trkpt lat="43.67339" lon="3.91455">
        <ele>65</ele>
        <time>2020-06-06T15:06:03.000Z</time>
      </trkpt>
      <trkpt lat="43.67335" lon="3.91452">
        <ele>65.01100032</ele>
        <time>2020-06-06T15:06:04.000Z</time>
      </trkpt>
      <trkpt lat="43.67332" lon="3.91449">
        <ele>65.11100032</ele>
        <time>2020-06-06T15:06:05.000Z</time>
      </trkpt>
      <trkpt lat="43.67329" lon="3.91446">
        <ele>65.21100032</ele>
        <time>2020-06-06T15:06:06.000Z</time>
      </trkpt>
      <trkpt lat="43.67327" lon="3.91443">
        <ele>65.31100032</ele>
        <time>2020-06-06T15:06:07.000Z</time>
      </trkpt>
      <trkpt lat="43.67324" lon="3.91441">
        <ele>65.41100032</ele>
        <time>2020-06-06T15:06:08.000Z</time>
      </trkpt>
      <trkpt lat="43.67321" lon="3.91438">
        <ele>65.51100032</ele>
        <time>2020-06-06T15:06:09.000Z</time>
      </trkpt>
      <trkpt lat="43.67319" lon="3.91435">
        <ele>65.61100032</ele>
        <time>2020-06-06T15:06:10.000Z</time>
      </trkpt>
      <trkpt lat="43.67316" lon="3.91432">
        <ele>65.71100032</ele>
        <time>2020-06-06T15:06:11.000Z</time>
      </trkpt>
      <trkpt lat="43.67313" lon="3.9143">
        <ele>65.81100032</ele>
        <time>2020-06-06T15:06:12.000Z</time>
      </trkpt>
      <trkpt lat="43.6731" lon="3.91427">
        <ele>65.91100032</ele>
        <time>2020-06-06T15:06:13.000Z</time>
      </trkpt>
      <trkpt lat="43.67308" lon="3.91424">
        <ele>66</ele>
        <time>2020-06-06T15:06:14.000Z</time>
      </trkpt>
      <trkpt lat="43.67306" lon="3.91421">
        <ele>66</ele>
        <time>2020-06-06T15:06:15.000Z</time>
      </trkpt>
      <trkpt lat="43.67302" lon="3.91417">
        <ele>66</ele>
        <time>2020-06-06T15:06:16.000Z</time>
      </trkpt>
      <trkpt lat="43.67297" lon="3.91414">
        <ele>66</ele>
        <time>2020-06-06T15:06:17.000Z</time>
      </trkpt>
      <trkpt lat="43.67291" lon="3.9141">
        <ele>66</ele>
        <time>2020-06-06T15:06:18.000Z</time>
      </trkpt>
      <trkpt lat="43.67287" lon="3.91407">
        <ele>66</ele>
        <time>2020-06-06T15:06:19.000Z</time>
      </trkpt>
      <trkpt lat="43.67283" lon="3.91403">
        <ele>66</ele>
        <time>2020-06-06T15:06:20.000Z</time>
      </trkpt>
      <trkpt lat="43.67279" lon="3.914">
        <ele>66</ele>
        <time>2020-06-06T15:06:21.000Z</time>
      </trkpt>
      <trkpt lat="43.67275" lon="3.91397">
        <ele>66</ele>
        <time>2020-06-06T15:06:22.000Z</time>
      </trkpt>
      <trkpt lat="43.67272" lon="3.91394">
        <ele>66</ele>
        <time>2020-06-06T15:06:23.000Z</time>
      </trkpt>
      <trkpt lat="43.67269" lon="3.91391">
        <ele>66</ele>
        <time>2020-06-06T15:06:24.000Z</time>
      </trkpt>
      <trkpt lat="43.67266" lon="3.91388">
        <ele>65.929915983264</ele>
        <time>2020-06-06T15:06:25.000Z</time>
      </trkpt>
      <trkpt lat="43.67262" lon="3.91385">
        <ele>65.825313472803</ele>
        <time>2020-06-06T15:06:26.000Z</time>
      </trkpt>
      <trkpt lat="43.67259" lon="3.91382">
        <ele>65.720710962343</ele>
        <time>2020-06-06T15:06:27.000Z</time>
      </trkpt>
      <trkpt lat="43.67256" lon="3.91379">
        <ele>65.616108451883</ele>
        <time>2020-06-06T15:06:28.000Z</time>
      </trkpt>
      <trkpt lat="43.67253" lon="3.91377">
        <ele>65.511505941423</ele>
        <time>2020-06-06T15:06:29.000Z</time>
      </trkpt>
      <trkpt lat="43.6725" lon="3.91374">
        <ele>65.406903430962</ele>
        <time>2020-06-06T15:06:30.000Z</time>
      </trkpt>
      <trkpt lat="43.67247" lon="3.91371">
        <ele>65.302300920502</ele>
        <time>2020-06-06T15:06:31.000Z</time>
      </trkpt>
      <trkpt lat="43.67244" lon="3.91369">
        <ele>65.197698410042</ele>
        <time>2020-06-06T15:06:32.000Z</time>
      </trkpt>
      <trkpt lat="43.67242" lon="3.91367">
        <ele>65.093095899582</ele>
        <time>2020-06-06T15:06:33.000Z</time>
      </trkpt>
      <trkpt lat="43.67239" lon="3.91366">
        <ele>64.98899968</ele>
        <time>2020-06-06T15:06:34.000Z</time>
      </trkpt>
      <trkpt lat="43.67237" lon="3.91364">
        <ele>64.88899968</ele>
        <time>2020-06-06T15:06:35.000Z</time>
      </trkpt>
      <trkpt lat="43.67236" lon="3.91363">
        <ele>64.78899968</ele>
        <time>2020-06-06T15:06:36.000Z</time>
      </trkpt>
      <trkpt lat="43.67234" lon="3.91362">
        <ele>64.68899968</ele>
        <time>2020-06-06T15:06:37.000Z</time>
      </trkpt>
      <trkpt lat="43.67231" lon="3.9136">
        <ele>64.48899968</ele>
        <time>2020-06-06T15:06:39.000Z</time>
      </trkpt>
      <trkpt lat="43.67229" lon="3.91358">
        <ele>64.28899968</ele>
        <time>2020-06-06T15:06:41.000Z</time>
      </trkpt>
      <trkpt lat="43.67227" lon="3.91357">
        <ele>64.08899968</ele>
        <time>2020-06-06T15:06:43.000Z</time>
      </trkpt>
      <trkpt lat="43.67225" lon="3.91355">
        <ele>63.88899968</ele>
        <time>2020-06-06T15:06:45.000Z</time>
      </trkpt>
      <trkpt lat="43.67224" lon="3.91353">
        <ele>63.68899968</ele>
        <time>2020-06-06T15:06:47.000Z</time>
      </trkpt>
      <trkpt lat="43.67224" lon="3.9135">
        <ele>63.48899968</ele>
        <time>2020-06-06T15:06:49.000Z</time>
      </trkpt>
      <trkpt lat="43.67224" lon="3.91349">
        <ele>63</ele>
        <time>2020-06-06T15:06:55.000Z</time>
      </trkpt>
      <trkpt lat="43.67232" lon="3.91348">
        <ele>63</ele>
        <time>2020-06-06T15:07:02.000Z</time>
      </trkpt>
      <trkpt lat="43.67233" lon="3.91347">
        <ele>63</ele>
        <time>2020-06-06T15:07:03.000Z</time>
      </trkpt>
      <trkpt lat="43.67235" lon="3.91344">
        <ele>63</ele>
        <time>2020-06-06T15:07:04.000Z</time>
      </trkpt>
      <trkpt lat="43.67236" lon="3.9134">
        <ele>63</ele>
        <time>2020-06-06T15:07:05.000Z</time>
      </trkpt>
      <trkpt lat="43.67237" lon="3.91335">
        <ele>63</ele>
        <time>2020-06-06T15:07:06.000Z</time>
      </trkpt>
      <trkpt lat="43.67239" lon="3.9133">
        <ele>63</ele>
        <time>2020-06-06T15:07:07.000Z</time>
      </trkpt>
      <trkpt lat="43.67241" lon="3.91325">
        <ele>63</ele>
        <time>2020-06-06T15:07:08.000Z</time>
      </trkpt>
      <trkpt lat="43.67243" lon="3.9132">
        <ele>63</ele>
        <time>2020-06-06T15:07:09.000Z</time>
      </trkpt>
      <trkpt lat="43.67245" lon="3.91315">
        <ele>63</ele>
        <time>2020-06-06T15:07:10.000Z</time>
      </trkpt>
      <trkpt lat="43.67248" lon="3.9131">
        <ele>63</ele>
        <time>2020-06-06T15:07:11.000Z</time>
      </trkpt>
      <trkpt lat="43.6725" lon="3.91305">
        <ele>63</ele>
        <time>2020-06-06T15:07:12.000Z</time>
      </trkpt>
      <trkpt lat="43.67252" lon="3.91301">
        <ele>63</ele>
        <time>2020-06-06T15:07:13.000Z</time>
      </trkpt>
      <trkpt lat="43.67255" lon="3.91296">
        <ele>63</ele>
        <time>2020-06-06T15:07:14.000Z</time>
      </trkpt>
      <trkpt lat="43.67257" lon="3.91292">
        <ele>63</ele>
        <time>2020-06-06T15:07:15.000Z</time>
      </trkpt>
      <trkpt lat="43.67258" lon="3.91288">
        <ele>63</ele>
        <time>2020-06-06T15:07:16.000Z</time>
      </trkpt>
      <trkpt lat="43.6726" lon="3.91285">
        <ele>63</ele>
        <time>2020-06-06T15:07:17.000Z</time>
      </trkpt>
      <trkpt lat="43.67262" lon="3.91282">
        <ele>63</ele>
        <time>2020-06-06T15:07:18.000Z</time>
      </trkpt>
      <trkpt lat="43.67263" lon="3.91279">
        <ele>63</ele>
        <time>2020-06-06T15:07:19.000Z</time>
      </trkpt>
      <trkpt lat="43.67265" lon="3.91276">
        <ele>63</ele>
        <time>2020-06-06T15:07:20.000Z</time>
      </trkpt>
      <trkpt lat="43.67266" lon="3.91272">
        <ele>63</ele>
        <time>2020-06-06T15:07:21.000Z</time>
      </trkpt>
      <trkpt lat="43.67268" lon="3.91269">
        <ele>63</ele>
        <time>2020-06-06T15:07:22.000Z</time>
      </trkpt>
      <trkpt lat="43.6727" lon="3.91266">
        <ele>63</ele>
        <time>2020-06-06T15:07:23.000Z</time>
      </trkpt>
      <trkpt lat="43.67271" lon="3.91262">
        <ele>63</ele>
        <time>2020-06-06T15:07:24.000Z</time>
      </trkpt>
      <trkpt lat="43.67273" lon="3.91259">
        <ele>63</ele>
        <time>2020-06-06T15:07:25.000Z</time>
      </trkpt>
      <trkpt lat="43.67275" lon="3.91256">
        <ele>63</ele>
        <time>2020-06-06T15:07:26.000Z</time>
      </trkpt>
      <trkpt lat="43.67277" lon="3.91252">
        <ele>63</ele>
        <time>2020-06-06T15:07:27.000Z</time>
      </trkpt>
      <trkpt lat="43.67279" lon="3.91249">
        <ele>63</ele>
        <time>2020-06-06T15:07:28.000Z</time>
      </trkpt>
      <trkpt lat="43.6728" lon="3.91246">
        <ele>63</ele>
        <time>2020-06-06T15:07:29.000Z</time>
      </trkpt>
      <trkpt lat="43.67282" lon="3.91242">
        <ele>63</ele>
        <time>2020-06-06T15:07:30.000Z</time>
      </trkpt>
      <trkpt lat="43.67284" lon="3.91239">
        <ele>63</ele>
        <time>2020-06-06T15:07:31.000Z</time>
      </trkpt>
      <trkpt lat="43.67285" lon="3.91236">
        <ele>63.010934704773</ele>
        <time>2020-06-06T15:07:32.000Z</time>
      </trkpt>
      <trkpt lat="43.67287" lon="3.91233">
        <ele>63.110338220063</ele>
        <time>2020-06-06T15:07:33.000Z</time>
      </trkpt>
      <trkpt lat="43.67289" lon="3.9123">
        <ele>63.209741735353</ele>
        <time>2020-06-06T15:07:34.000Z</time>
      </trkpt>
      <trkpt lat="43.67291" lon="3.91226">
        <ele>63.309145250643</ele>
        <time>2020-06-06T15:07:35.000Z</time>
      </trkpt>
      <trkpt lat="43.67293" lon="3.91223">
        <ele>63.408548765933</ele>
        <time>2020-06-06T15:07:36.000Z</time>
      </trkpt>
      <trkpt lat="43.67295" lon="3.9122">
        <ele>63.507952281223</ele>
        <time>2020-06-06T15:07:37.000Z</time>
      </trkpt>
      <trkpt lat="43.67298" lon="3.91217">
        <ele>63.607355796513</ele>
        <time>2020-06-06T15:07:38.000Z</time>
      </trkpt>
      <trkpt lat="43.673" lon="3.91214">
        <ele>63.706759311803</ele>
        <time>2020-06-06T15:07:39.000Z</time>
      </trkpt>
      <trkpt lat="43.67302" lon="3.91211">
        <ele>63.806162827093</ele>
        <time>2020-06-06T15:07:40.000Z</time>
      </trkpt>
      <trkpt lat="43.67304" lon="3.91208">
        <ele>63.905566342383</ele>
        <time>2020-06-06T15:07:41.000Z</time>
      </trkpt>
      <trkpt lat="43.67306" lon="3.91205">
        <ele>64</ele>
        <time>2020-06-06T15:07:42.000Z</time>
      </trkpt>
      <trkpt lat="43.67308" lon="3.91202">
        <ele>64</ele>
        <time>2020-06-06T15:07:43.000Z</time>
      </trkpt>
      <trkpt lat="43.6731" lon="3.912">
        <ele>64</ele>
        <time>2020-06-06T15:07:44.000Z</time>
      </trkpt>
      <trkpt lat="43.67313" lon="3.91198">
        <ele>64</ele>
        <time>2020-06-06T15:07:45.000Z</time>
      </trkpt>
      <trkpt lat="43.67315" lon="3.91196">
        <ele>64</ele>
        <time>2020-06-06T15:07:46.000Z</time>
      </trkpt>
      <trkpt lat="43.67317" lon="3.91194">
        <ele>64</ele>
        <time>2020-06-06T15:07:47.000Z</time>
      </trkpt>
      <trkpt lat="43.6732" lon="3.91192">
        <ele>64</ele>
        <time>2020-06-06T15:07:48.000Z</time>
      </trkpt>
      <trkpt lat="43.67322" lon="3.9119">
        <ele>64</ele>
        <time>2020-06-06T15:07:49.000Z</time>
      </trkpt>
      <trkpt lat="43.67324" lon="3.91188">
        <ele>64</ele>
        <time>2020-06-06T15:07:50.000Z</time>
      </trkpt>
      <trkpt lat="43.67326" lon="3.91186">
        <ele>64</ele>
        <time>2020-06-06T15:07:51.000Z</time>
      </trkpt>
      <trkpt lat="43.67328" lon="3.91184">
        <ele>64</ele>
        <time>2020-06-06T15:07:52.000Z</time>
      </trkpt>
      <trkpt lat="43.67331" lon="3.91182">
        <ele>64</ele>
        <time>2020-06-06T15:07:53.000Z</time>
      </trkpt>
      <trkpt lat="43.67333" lon="3.91181">
        <ele>64</ele>
        <time>2020-06-06T15:07:54.000Z</time>
      </trkpt>
      <trkpt lat="43.67334" lon="3.91179">
        <ele>64</ele>
        <time>2020-06-06T15:07:55.000Z</time>
      </trkpt>
      <trkpt lat="43.67337" lon="3.91177">
        <ele>64</ele>
        <time>2020-06-06T15:07:56.000Z</time>
      </trkpt>
      <trkpt lat="43.67339" lon="3.91175">
        <ele>64</ele>
        <time>2020-06-06T15:07:57.000Z</time>
      </trkpt>
      <trkpt lat="43.67342" lon="3.91174">
        <ele>64</ele>
        <time>2020-06-06T15:07:58.000Z</time>
      </trkpt>
      <trkpt lat="43.67344" lon="3.91172">
        <ele>64</ele>
        <time>2020-06-06T15:07:59.000Z</time>
      </trkpt>
      <trkpt lat="43.67346" lon="3.91171">
        <ele>64</ele>
        <time>2020-06-06T15:08:00.000Z</time>
      </trkpt>
      <trkpt lat="43.67348" lon="3.91169">
        <ele>64</ele>
        <time>2020-06-06T15:08:01.000Z</time>
      </trkpt>
      <trkpt lat="43.6735" lon="3.91167">
        <ele>64.010795207601</ele>
        <time>2020-06-06T15:08:02.000Z</time>
      </trkpt>
      <trkpt lat="43.67352" lon="3.91166">
        <ele>64.108930603672</ele>
        <time>2020-06-06T15:08:03.000Z</time>
      </trkpt>
      <trkpt lat="43.67354" lon="3.91164">
        <ele>64.207065999744</ele>
        <time>2020-06-06T15:08:04.000Z</time>
      </trkpt>
      <trkpt lat="43.67355" lon="3.91161">
        <ele>64.305201395815</ele>
        <time>2020-06-06T15:08:05.000Z</time>
      </trkpt>
      <trkpt lat="43.67356" lon="3.91158">
        <ele>64.403336791886</ele>
        <time>2020-06-06T15:08:06.000Z</time>
      </trkpt>
      <trkpt lat="43.67356" lon="3.91154">
        <ele>64.599607584029</ele>
        <time>2020-06-06T15:08:08.000Z</time>
      </trkpt>
      <trkpt lat="43.67356" lon="3.91151">
        <ele>64.6977429801</ele>
        <time>2020-06-06T15:08:09.000Z</time>
      </trkpt>
      <trkpt lat="43.67356" lon="3.91147">
        <ele>64.795878376172</ele>
        <time>2020-06-06T15:08:10.000Z</time>
      </trkpt>
      <trkpt lat="43.67356" lon="3.91144">
        <ele>64.894013772243</ele>
        <time>2020-06-06T15:08:11.000Z</time>
      </trkpt>
      <trkpt lat="43.67356" lon="3.9114">
        <ele>64.992149168314</ele>
        <time>2020-06-06T15:08:12.000Z</time>
      </trkpt>
      <trkpt lat="43.67356" lon="3.91137">
        <ele>65.187563771682</ele>
        <time>2020-06-06T15:08:13.000Z</time>
      </trkpt>
      <trkpt lat="43.67356" lon="3.91133">
        <ele>65.391437436554</ele>
        <time>2020-06-06T15:08:14.000Z</time>
      </trkpt>
      <trkpt lat="43.67356" lon="3.9113">
        <ele>65.595311101427</ele>
        <time>2020-06-06T15:08:15.000Z</time>
      </trkpt>
      <trkpt lat="43.67356" lon="3.91126">
        <ele>65.799184766299</ele>
        <time>2020-06-06T15:08:16.000Z</time>
      </trkpt>
      <trkpt lat="43.67355" lon="3.91123">
        <ele>66.003058431171</ele>
        <time>2020-06-06T15:08:17.000Z</time>
      </trkpt>
      <trkpt lat="43.67355" lon="3.9112">
        <ele>66.206932096043</ele>
        <time>2020-06-06T15:08:18.000Z</time>
      </trkpt>
      <trkpt lat="43.67353" lon="3.91117">
        <ele>66.410805760915</ele>
        <time>2020-06-06T15:08:19.000Z</time>
      </trkpt>
      <trkpt lat="43.67352" lon="3.91113">
        <ele>66.614679425787</ele>
        <time>2020-06-06T15:08:20.000Z</time>
      </trkpt>
      <trkpt lat="43.67352" lon="3.9111">
        <ele>66.81855309066</ele>
        <time>2020-06-06T15:08:21.000Z</time>
      </trkpt>
      <trkpt lat="43.67351" lon="3.91108">
        <ele>67.02200064</ele>
        <time>2020-06-06T15:08:22.000Z</time>
      </trkpt>
      <trkpt lat="43.67349" lon="3.91105">
        <ele>67.22200064</ele>
        <time>2020-06-06T15:08:23.000Z</time>
      </trkpt>
      <trkpt lat="43.67348" lon="3.91103">
        <ele>67.42200064</ele>
        <time>2020-06-06T15:08:24.000Z</time>
      </trkpt>
      <trkpt lat="43.67346" lon="3.911">
        <ele>67.62200064</ele>
        <time>2020-06-06T15:08:25.000Z</time>
      </trkpt>
      <trkpt lat="43.67344" lon="3.91098">
        <ele>67.82200064</ele>
        <time>2020-06-06T15:08:26.000Z</time>
      </trkpt>
      <trkpt lat="43.67342" lon="3.91095">
        <ele>68.02200064</ele>
        <time>2020-06-06T15:08:27.000Z</time>
      </trkpt>
      <trkpt lat="43.6734" lon="3.91093">
        <ele>68.22200064</ele>
        <time>2020-06-06T15:08:28.000Z</time>
      </trkpt>
      <trkpt lat="43.67339" lon="3.91091">
        <ele>68.42200064</ele>
        <time>2020-06-06T15:08:29.000Z</time>
      </trkpt>
      <trkpt lat="43.67338" lon="3.91088">
        <ele>68.62200064</ele>
        <time>2020-06-06T15:08:30.000Z</time>
      </trkpt>
      <trkpt lat="43.67337" lon="3.91086">
        <ele>68.82200064</ele>
        <time>2020-06-06T15:08:31.000Z</time>
      </trkpt>
      <trkpt lat="43.67337" lon="3.91083">
        <ele>69.02200064</ele>
        <time>2020-06-06T15:08:32.000Z</time>
      </trkpt>
      <trkpt lat="43.67336" lon="3.91081">
        <ele>69.22200064</ele>
        <time>2020-06-06T15:08:33.000Z</time>
      </trkpt>
      <trkpt lat="43.67336" lon="3.91078">
        <ele>69.42200064</ele>
        <time>2020-06-06T15:08:34.000Z</time>
      </trkpt>
      <trkpt lat="43.67335" lon="3.91076">
        <ele>69.62200064</ele>
        <time>2020-06-06T15:08:35.000Z</time>
      </trkpt>
      <trkpt lat="43.67335" lon="3.91074">
        <ele>69.82200064</ele>
        <time>2020-06-06T15:08:36.000Z</time>
      </trkpt>
      <trkpt lat="43.67334" lon="3.91071">
        <ele>70.02200064</ele>
        <time>2020-06-06T15:08:37.000Z</time>
      </trkpt>
      <trkpt lat="43.67333" lon="3.91069">
        <ele>70.22200064</ele>
        <time>2020-06-06T15:08:38.000Z</time>
      </trkpt>
      <trkpt lat="43.67332" lon="3.91067">
        <ele>70.42200064</ele>
        <time>2020-06-06T15:08:39.000Z</time>
      </trkpt>
      <trkpt lat="43.67331" lon="3.91064">
        <ele>70.62200064</ele>
        <time>2020-06-06T15:08:40.000Z</time>
      </trkpt>
      <trkpt lat="43.6733" lon="3.91062">
        <ele>70.82200064</ele>
        <time>2020-06-06T15:08:41.000Z</time>
      </trkpt>
      <trkpt lat="43.67329" lon="3.9106">
        <ele>71.02200064</ele>
        <time>2020-06-06T15:08:42.000Z</time>
      </trkpt>
      <trkpt lat="43.67327" lon="3.91057">
        <ele>71.22200064</ele>
        <time>2020-06-06T15:08:43.000Z</time>
      </trkpt>
      <trkpt lat="43.67326" lon="3.91055">
        <ele>71.42200064</ele>
        <time>2020-06-06T15:08:44.000Z</time>
      </trkpt>
      <trkpt lat="43.67325" lon="3.91053">
        <ele>71.62200064</ele>
        <time>2020-06-06T15:08:45.000Z</time>
      </trkpt>
      <trkpt lat="43.67325" lon="3.9105">
        <ele>71.82200064</ele>
        <time>2020-06-06T15:08:46.000Z</time>
      </trkpt>
      <trkpt lat="43.67324" lon="3.91048">
        <ele>72.02200064</ele>
        <time>2020-06-06T15:08:47.000Z</time>
      </trkpt>
      <trkpt lat="43.67322" lon="3.91045">
        <ele>72.22200064</ele>
        <time>2020-06-06T15:08:48.000Z</time>
      </trkpt>
      <trkpt lat="43.67321" lon="3.91042">
        <ele>72.42200064</ele>
        <time>2020-06-06T15:08:49.000Z</time>
      </trkpt>
      <trkpt lat="43.6732" lon="3.91039">
        <ele>72.62200064</ele>
        <time>2020-06-06T15:08:50.000Z</time>
      </trkpt>
      <trkpt lat="43.67318" lon="3.91036">
        <ele>72.82200064</ele>
        <time>2020-06-06T15:08:51.000Z</time>
      </trkpt>
      <trkpt lat="43.67316" lon="3.91033">
        <ele>73.01100032</ele>
        <time>2020-06-06T15:08:52.000Z</time>
      </trkpt>
      <trkpt lat="43.67314" lon="3.9103">
        <ele>73.11100032</ele>
        <time>2020-06-06T15:08:53.000Z</time>
      </trkpt>
      <trkpt lat="43.67311" lon="3.91027">
        <ele>73.21100032</ele>
        <time>2020-06-06T15:08:54.000Z</time>
      </trkpt>
      <trkpt lat="43.67309" lon="3.91024">
        <ele>73.31100032</ele>
        <time>2020-06-06T15:08:55.000Z</time>
      </trkpt>
      <trkpt lat="43.67307" lon="3.91021">
        <ele>73.41100032</ele>
        <time>2020-06-06T15:08:56.000Z</time>
      </trkpt>
      <trkpt lat="43.67304" lon="3.91017">
        <ele>73.51100032</ele>
        <time>2020-06-06T15:08:57.000Z</time>
      </trkpt>
      <trkpt lat="43.67302" lon="3.91014">
        <ele>73.61100032</ele>
        <time>2020-06-06T15:08:58.000Z</time>
      </trkpt>
      <trkpt lat="43.673" lon="3.9101">
        <ele>73.71100032</ele>
        <time>2020-06-06T15:08:59.000Z</time>
      </trkpt>
      <trkpt lat="43.67299" lon="3.91005">
        <ele>73.81100032</ele>
        <time>2020-06-06T15:09:00.000Z</time>
      </trkpt>
      <trkpt lat="43.67298" lon="3.91001">
        <ele>73.91100032</ele>
        <time>2020-06-06T15:09:01.000Z</time>
      </trkpt>
      <trkpt lat="43.67298" lon="3.90997">
        <ele>74.010891399039</ele>
        <time>2020-06-06T15:09:02.000Z</time>
      </trkpt>
      <trkpt lat="43.67298" lon="3.90993">
        <ele>74.10990123729</ele>
        <time>2020-06-06T15:09:03.000Z</time>
      </trkpt>
      <trkpt lat="43.67297" lon="3.9099">
        <ele>74.208911075541</ele>
        <time>2020-06-06T15:09:04.000Z</time>
      </trkpt>
      <trkpt lat="43.67296" lon="3.90987">
        <ele>74.307920913793</ele>
        <time>2020-06-06T15:09:05.000Z</time>
      </trkpt>
      <trkpt lat="43.67295" lon="3.90985">
        <ele>74.406930752044</ele>
        <time>2020-06-06T15:09:06.000Z</time>
      </trkpt>
      <trkpt lat="43.67293" lon="3.90983">
        <ele>74.505940590295</ele>
        <time>2020-06-06T15:09:07.000Z</time>
      </trkpt>
      <trkpt lat="43.67291" lon="3.90982">
        <ele>74.604950428546</ele>
        <time>2020-06-06T15:09:08.000Z</time>
      </trkpt>
      <trkpt lat="43.67288" lon="3.90981">
        <ele>74.703960266797</ele>
        <time>2020-06-06T15:09:09.000Z</time>
      </trkpt>
      <trkpt lat="43.67285" lon="3.90979">
        <ele>74.802970105049</ele>
        <time>2020-06-06T15:09:10.000Z</time>
      </trkpt>
      <trkpt lat="43.67283" lon="3.90978">
        <ele>74.9019799433</ele>
        <time>2020-06-06T15:09:11.000Z</time>
      </trkpt>
      <trkpt lat="43.67281" lon="3.90973">
        <ele>75</ele>
        <time>2020-06-06T15:09:12.000Z</time>
      </trkpt>
      <trkpt lat="43.67279" lon="3.90968">
        <ele>75</ele>
        <time>2020-06-06T15:09:13.000Z</time>
      </trkpt>
      <trkpt lat="43.67278" lon="3.90963">
        <ele>75</ele>
        <time>2020-06-06T15:09:14.000Z</time>
      </trkpt>
      <trkpt lat="43.67277" lon="3.90958">
        <ele>75</ele>
        <time>2020-06-06T15:09:15.000Z</time>
      </trkpt>
      <trkpt lat="43.67277" lon="3.90954">
        <ele>75</ele>
        <time>2020-06-06T15:09:16.000Z</time>
      </trkpt>
      <trkpt lat="43.67276" lon="3.90951">
        <ele>75</ele>
        <time>2020-06-06T15:09:17.000Z</time>
      </trkpt>
      <trkpt lat="43.67274" lon="3.9095">
        <ele>75</ele>
        <time>2020-06-06T15:09:18.000Z</time>
      </trkpt>
      <trkpt lat="43.67272" lon="3.90948">
        <ele>75</ele>
        <time>2020-06-06T15:09:19.000Z</time>
      </trkpt>
      <trkpt lat="43.67269" lon="3.90945">
        <ele>75</ele>
        <time>2020-06-06T15:09:20.000Z</time>
      </trkpt>
      <trkpt lat="43.67267" lon="3.90943">
        <ele>75</ele>
        <time>2020-06-06T15:09:21.000Z</time>
      </trkpt>
      <trkpt lat="43.67263" lon="3.9094">
        <ele>75</ele>
        <time>2020-06-06T15:09:22.000Z</time>
      </trkpt>
      <trkpt lat="43.6726" lon="3.90938">
        <ele>75</ele>
        <time>2020-06-06T15:09:23.000Z</time>
      </trkpt>
      <trkpt lat="43.67256" lon="3.90938">
        <ele>75</ele>
        <time>2020-06-06T15:09:24.000Z</time>
      </trkpt>
      <trkpt lat="43.67253" lon="3.9094">
        <ele>75</ele>
        <time>2020-06-06T15:09:25.000Z</time>
      </trkpt>
      <trkpt lat="43.67249" lon="3.90943">
        <ele>75</ele>
        <time>2020-06-06T15:09:26.000Z</time>
      </trkpt>
      <trkpt lat="43.67246" lon="3.90944">
        <ele>75</ele>
        <time>2020-06-06T15:09:27.000Z</time>
      </trkpt>
      <trkpt lat="43.67242" lon="3.90943">
        <ele>75</ele>
        <time>2020-06-06T15:09:28.000Z</time>
      </trkpt>
      <trkpt lat="43.67239" lon="3.9094">
        <ele>75</ele>
        <time>2020-06-06T15:09:29.000Z</time>
      </trkpt>
      <trkpt lat="43.67235" lon="3.90937">
        <ele>75</ele>
        <time>2020-06-06T15:09:30.000Z</time>
      </trkpt>
      <trkpt lat="43.67231" lon="3.90934">
        <ele>75</ele>
        <time>2020-06-06T15:09:31.000Z</time>
      </trkpt>
      <trkpt lat="43.67228" lon="3.90931">
        <ele>74.98899968</ele>
        <time>2020-06-06T15:09:32.000Z</time>
      </trkpt>
      <trkpt lat="43.67226" lon="3.90926">
        <ele>74.88899968</ele>
        <time>2020-06-06T15:09:33.000Z</time>
      </trkpt>
      <trkpt lat="43.67225" lon="3.90919">
        <ele>74.78899968</ele>
        <time>2020-06-06T15:09:34.000Z</time>
      </trkpt>
      <trkpt lat="43.67224" lon="3.90912">
        <ele>74.68899968</ele>
        <time>2020-06-06T15:09:35.000Z</time>
      </trkpt>
      <trkpt lat="43.67225" lon="3.90906">
        <ele>74.58899968</ele>
        <time>2020-06-06T15:09:36.000Z</time>
      </trkpt>
      <trkpt lat="43.67226" lon="3.909">
        <ele>74.48899968</ele>
        <time>2020-06-06T15:09:37.000Z</time>
      </trkpt>
      <trkpt lat="43.67227" lon="3.90893">
        <ele>74.38899968</ele>
        <time>2020-06-06T15:09:38.000Z</time>
      </trkpt>
      <trkpt lat="43.67228" lon="3.90886">
        <ele>74.28899968</ele>
        <time>2020-06-06T15:09:39.000Z</time>
      </trkpt>
      <trkpt lat="43.67229" lon="3.9088">
        <ele>74.18899968</ele>
        <time>2020-06-06T15:09:40.000Z</time>
      </trkpt>
      <trkpt lat="43.67231" lon="3.90875">
        <ele>74.08899968</ele>
        <time>2020-06-06T15:09:41.000Z</time>
      </trkpt>
      <trkpt lat="43.67233" lon="3.9087">
        <ele>74</ele>
        <time>2020-06-06T15:09:42.000Z</time>
      </trkpt>
      <trkpt lat="43.67234" lon="3.90865">
        <ele>74</ele>
        <time>2020-06-06T15:09:43.000Z</time>
      </trkpt>
      <trkpt lat="43.67233" lon="3.90861">
        <ele>74</ele>
        <time>2020-06-06T15:09:44.000Z</time>
      </trkpt>
      <trkpt lat="43.67231" lon="3.90858">
        <ele>74</ele>
        <time>2020-06-06T15:09:45.000Z</time>
      </trkpt>
      <trkpt lat="43.67229" lon="3.90856">
        <ele>74</ele>
        <time>2020-06-06T15:09:46.000Z</time>
      </trkpt>
      <trkpt lat="43.67225" lon="3.90854">
        <ele>74</ele>
        <time>2020-06-06T15:09:47.000Z</time>
      </trkpt>
      <trkpt lat="43.67221" lon="3.90851">
        <ele>74</ele>
        <time>2020-06-06T15:09:48.000Z</time>
      </trkpt>
      <trkpt lat="43.67217" lon="3.90849">
        <ele>74</ele>
        <time>2020-06-06T15:09:49.000Z</time>
      </trkpt>
      <trkpt lat="43.67214" lon="3.90846">
        <ele>74</ele>
        <time>2020-06-06T15:09:50.000Z</time>
      </trkpt>
      <trkpt lat="43.6721" lon="3.90842">
        <ele>74</ele>
        <time>2020-06-06T15:09:51.000Z</time>
      </trkpt>
      <trkpt lat="43.67207" lon="3.9084">
        <ele>74.01100032</ele>
        <time>2020-06-06T15:09:52.000Z</time>
      </trkpt>
      <trkpt lat="43.67204" lon="3.90838">
        <ele>74.11100032</ele>
        <time>2020-06-06T15:09:53.000Z</time>
      </trkpt>
      <trkpt lat="43.67201" lon="3.90837">
        <ele>74.21100032</ele>
        <time>2020-06-06T15:09:54.000Z</time>
      </trkpt>
      <trkpt lat="43.67199" lon="3.90838">
        <ele>74.31100032</ele>
        <time>2020-06-06T15:09:55.000Z</time>
      </trkpt>
      <trkpt lat="43.67196" lon="3.90838">
        <ele>74.41100032</ele>
        <time>2020-06-06T15:09:56.000Z</time>
      </trkpt>
      <trkpt lat="43.67193" lon="3.90839">
        <ele>74.51100032</ele>
        <time>2020-06-06T15:09:57.000Z</time>
      </trkpt>
      <trkpt lat="43.67191" lon="3.90839">
        <ele>74.61100032</ele>
        <time>2020-06-06T15:09:58.000Z</time>
      </trkpt>
      <trkpt lat="43.67189" lon="3.90838">
        <ele>74.71100032</ele>
        <time>2020-06-06T15:09:59.000Z</time>
      </trkpt>
      <trkpt lat="43.67186" lon="3.90836">
        <ele>74.81100032</ele>
        <time>2020-06-06T15:10:00.000Z</time>
      </trkpt>
      <trkpt lat="43.67185" lon="3.90834">
        <ele>74.91100032</ele>
        <time>2020-06-06T15:10:01.000Z</time>
      </trkpt>
      <trkpt lat="43.67184" lon="3.90831">
        <ele>75</ele>
        <time>2020-06-06T15:10:02.000Z</time>
      </trkpt>
      <trkpt lat="43.67185" lon="3.90829">
        <ele>75</ele>
        <time>2020-06-06T15:10:03.000Z</time>
      </trkpt>
      <trkpt lat="43.67187" lon="3.90827">
        <ele>75</ele>
        <time>2020-06-06T15:10:04.000Z</time>
      </trkpt>
      <trkpt lat="43.67189" lon="3.90826">
        <ele>75</ele>
        <time>2020-06-06T15:10:05.000Z</time>
      </trkpt>
      <trkpt lat="43.67192" lon="3.90826">
        <ele>75</ele>
        <time>2020-06-06T15:10:06.000Z</time>
      </trkpt>
      <trkpt lat="43.67194" lon="3.90824">
        <ele>75</ele>
        <time>2020-06-06T15:10:07.000Z</time>
      </trkpt>
      <trkpt lat="43.67197" lon="3.90822">
        <ele>75</ele>
        <time>2020-06-06T15:10:08.000Z</time>
      </trkpt>
      <trkpt lat="43.67201" lon="3.90822">
        <ele>75</ele>
        <time>2020-06-06T15:10:09.000Z</time>
      </trkpt>
      <trkpt lat="43.67204" lon="3.90822">
        <ele>75</ele>
        <time>2020-06-06T15:10:10.000Z</time>
      </trkpt>
      <trkpt lat="43.67208" lon="3.90822">
        <ele>75</ele>
        <time>2020-06-06T15:10:11.000Z</time>
      </trkpt>
      <trkpt lat="43.67211" lon="3.90822">
        <ele>75.010827086614</ele>
        <time>2020-06-06T15:10:12.000Z</time>
      </trkpt>
      <trkpt lat="43.67215" lon="3.90821">
        <ele>75.109252283465</ele>
        <time>2020-06-06T15:10:13.000Z</time>
      </trkpt>
      <trkpt lat="43.67219" lon="3.90819">
        <ele>75.207677480315</ele>
        <time>2020-06-06T15:10:14.000Z</time>
      </trkpt>
      <trkpt lat="43.67222" lon="3.90818">
        <ele>75.306102677165</ele>
        <time>2020-06-06T15:10:15.000Z</time>
      </trkpt>
      <trkpt lat="43.67225" lon="3.9082">
        <ele>75.404527874016</ele>
        <time>2020-06-06T15:10:16.000Z</time>
      </trkpt>
      <trkpt lat="43.67227" lon="3.90822">
        <ele>75.502953070866</ele>
        <time>2020-06-06T15:10:17.000Z</time>
      </trkpt>
      <trkpt lat="43.6723" lon="3.90825">
        <ele>75.601378267716</ele>
        <time>2020-06-06T15:10:18.000Z</time>
      </trkpt>
      <trkpt lat="43.67232" lon="3.90826">
        <ele>75.699803464567</ele>
        <time>2020-06-06T15:10:19.000Z</time>
      </trkpt>
      <trkpt lat="43.67235" lon="3.90824">
        <ele>75.896653858268</ele>
        <time>2020-06-06T15:10:21.000Z</time>
      </trkpt>
      <trkpt lat="43.67235" lon="3.9082">
        <ele>75.995079055118</ele>
        <time>2020-06-06T15:10:22.000Z</time>
      </trkpt>
      <trkpt lat="43.67235" lon="3.90816">
        <ele>76.093873833992</ele>
        <time>2020-06-06T15:10:23.000Z</time>
      </trkpt>
      <trkpt lat="43.67236" lon="3.90812">
        <ele>76.192688063241</ele>
        <time>2020-06-06T15:10:24.000Z</time>
      </trkpt>
      <trkpt lat="43.67237" lon="3.90807">
        <ele>76.29150229249</ele>
        <time>2020-06-06T15:10:25.000Z</time>
      </trkpt>
      <trkpt lat="43.67237" lon="3.90803">
        <ele>76.390316521739</ele>
        <time>2020-06-06T15:10:26.000Z</time>
      </trkpt>
      <trkpt lat="43.67238" lon="3.90798">
        <ele>76.489130750988</ele>
        <time>2020-06-06T15:10:27.000Z</time>
      </trkpt>
      <trkpt lat="43.67239" lon="3.90792">
        <ele>76.587944980237</ele>
        <time>2020-06-06T15:10:28.000Z</time>
      </trkpt>
      <trkpt lat="43.6724" lon="3.90787">
        <ele>76.686759209486</ele>
        <time>2020-06-06T15:10:29.000Z</time>
      </trkpt>
      <trkpt lat="43.6724" lon="3.90782">
        <ele>76.785573438735</ele>
        <time>2020-06-06T15:10:30.000Z</time>
      </trkpt>
      <trkpt lat="43.67241" lon="3.90777">
        <ele>76.884387667984</ele>
        <time>2020-06-06T15:10:31.000Z</time>
      </trkpt>
      <trkpt lat="43.67241" lon="3.90772">
        <ele>76.983201897233</ele>
        <time>2020-06-06T15:10:32.000Z</time>
      </trkpt>
      <trkpt lat="43.67241" lon="3.90768">
        <ele>77</ele>
        <time>2020-06-06T15:10:33.000Z</time>
      </trkpt>
      <trkpt lat="43.67243" lon="3.90763">
        <ele>77</ele>
        <time>2020-06-06T15:10:34.000Z</time>
      </trkpt>
      <trkpt lat="43.67245" lon="3.9076">
        <ele>77</ele>
        <time>2020-06-06T15:10:35.000Z</time>
      </trkpt>
      <trkpt lat="43.67247" lon="3.90761">
        <ele>77</ele>
        <time>2020-06-06T15:10:36.000Z</time>
      </trkpt>
      <trkpt lat="43.6725" lon="3.90763">
        <ele>77</ele>
        <time>2020-06-06T15:10:37.000Z</time>
      </trkpt>
      <trkpt lat="43.67254" lon="3.90765">
        <ele>77</ele>
        <time>2020-06-06T15:10:38.000Z</time>
      </trkpt>
      <trkpt lat="43.67256" lon="3.90766">
        <ele>77</ele>
        <time>2020-06-06T15:10:39.000Z</time>
      </trkpt>
      <trkpt lat="43.6726" lon="3.90766">
        <ele>77</ele>
        <time>2020-06-06T15:10:40.000Z</time>
      </trkpt>
      <trkpt lat="43.67263" lon="3.90766">
        <ele>77</ele>
        <time>2020-06-06T15:10:41.000Z</time>
      </trkpt>
      <trkpt lat="43.67266" lon="3.90766">
        <ele>77</ele>
        <time>2020-06-06T15:10:42.000Z</time>
      </trkpt>
      <trkpt lat="43.67269" lon="3.90766">
        <ele>77</ele>
        <time>2020-06-06T15:10:43.000Z</time>
      </trkpt>
      <trkpt lat="43.67273" lon="3.90765">
        <ele>77</ele>
        <time>2020-06-06T15:10:44.000Z</time>
      </trkpt>
      <trkpt lat="43.67276" lon="3.90764">
        <ele>77</ele>
        <time>2020-06-06T15:10:45.000Z</time>
      </trkpt>
      <trkpt lat="43.67279" lon="3.90763">
        <ele>77</ele>
        <time>2020-06-06T15:10:46.000Z</time>
      </trkpt>
      <trkpt lat="43.67282" lon="3.90763">
        <ele>77</ele>
        <time>2020-06-06T15:10:47.000Z</time>
      </trkpt>
      <trkpt lat="43.67285" lon="3.90762">
        <ele>77</ele>
        <time>2020-06-06T15:10:48.000Z</time>
      </trkpt>
      <trkpt lat="43.67287" lon="3.90761">
        <ele>77</ele>
        <time>2020-06-06T15:10:49.000Z</time>
      </trkpt>
      <trkpt lat="43.6729" lon="3.9076">
        <ele>77</ele>
        <time>2020-06-06T15:10:50.000Z</time>
      </trkpt>
      <trkpt lat="43.67292" lon="3.90759">
        <ele>77</ele>
        <time>2020-06-06T15:10:51.000Z</time>
      </trkpt>
      <trkpt lat="43.67295" lon="3.90758">
        <ele>77</ele>
        <time>2020-06-06T15:10:52.000Z</time>
      </trkpt>
      <trkpt lat="43.67298" lon="3.90756">
        <ele>77</ele>
        <time>2020-06-06T15:10:53.000Z</time>
      </trkpt>
      <trkpt lat="43.67303" lon="3.90755">
        <ele>77</ele>
        <time>2020-06-06T15:10:54.000Z</time>
      </trkpt>
      <trkpt lat="43.67307" lon="3.90755">
        <ele>77</ele>
        <time>2020-06-06T15:10:55.000Z</time>
      </trkpt>
      <trkpt lat="43.6731" lon="3.90753">
        <ele>77</ele>
        <time>2020-06-06T15:10:56.000Z</time>
      </trkpt>
      <trkpt lat="43.67313" lon="3.90751">
        <ele>77</ele>
        <time>2020-06-06T15:10:57.000Z</time>
      </trkpt>
      <trkpt lat="43.67315" lon="3.9075">
        <ele>77</ele>
        <time>2020-06-06T15:10:58.000Z</time>
      </trkpt>
      <trkpt lat="43.67318" lon="3.90751">
        <ele>77</ele>
        <time>2020-06-06T15:10:59.000Z</time>
      </trkpt>
      <trkpt lat="43.67321" lon="3.90751">
        <ele>77</ele>
        <time>2020-06-06T15:11:00.000Z</time>
      </trkpt>
      <trkpt lat="43.67323" lon="3.9075">
        <ele>77</ele>
        <time>2020-06-06T15:11:01.000Z</time>
      </trkpt>
      <trkpt lat="43.67327" lon="3.90748">
        <ele>76.96699904</ele>
        <time>2020-06-06T15:11:02.000Z</time>
      </trkpt>
      <trkpt lat="43.67332" lon="3.90746">
        <ele>76.66699904</ele>
        <time>2020-06-06T15:11:03.000Z</time>
      </trkpt>
      <trkpt lat="43.67338" lon="3.90743">
        <ele>76.36699904</ele>
        <time>2020-06-06T15:11:04.000Z</time>
      </trkpt>
      <trkpt lat="43.67343" lon="3.9074">
        <ele>76.06699904</ele>
        <time>2020-06-06T15:11:05.000Z</time>
      </trkpt>
      <trkpt lat="43.67347" lon="3.90738">
        <ele>75.76699904</ele>
        <time>2020-06-06T15:11:06.000Z</time>
      </trkpt>
      <trkpt lat="43.67353" lon="3.90735">
        <ele>75.46699904</ele>
        <time>2020-06-06T15:11:07.000Z</time>
      </trkpt>
      <trkpt lat="43.67359" lon="3.90733">
        <ele>75.16699904</ele>
        <time>2020-06-06T15:11:08.000Z</time>
      </trkpt>
      <trkpt lat="43.67365" lon="3.9073">
        <ele>74.86699904</ele>
        <time>2020-06-06T15:11:09.000Z</time>
      </trkpt>
      <trkpt lat="43.6737" lon="3.90726">
        <ele>74.56699904</ele>
        <time>2020-06-06T15:11:10.000Z</time>
      </trkpt>
      <trkpt lat="43.67375" lon="3.90722">
        <ele>74.26699904</ele>
        <time>2020-06-06T15:11:11.000Z</time>
      </trkpt>
      <trkpt lat="43.6738" lon="3.90717">
        <ele>74</ele>
        <time>2020-06-06T15:11:12.000Z</time>
      </trkpt>
      <trkpt lat="43.67384" lon="3.90711">
        <ele>74</ele>
        <time>2020-06-06T15:11:13.000Z</time>
      </trkpt>
      <trkpt lat="43.67387" lon="3.90704">
        <ele>74</ele>
        <time>2020-06-06T15:11:14.000Z</time>
      </trkpt>
      <trkpt lat="43.67389" lon="3.90696">
        <ele>74</ele>
        <time>2020-06-06T15:11:15.000Z</time>
      </trkpt>
      <trkpt lat="43.67391" lon="3.90689">
        <ele>74</ele>
        <time>2020-06-06T15:11:16.000Z</time>
      </trkpt>
      <trkpt lat="43.67392" lon="3.90683">
        <ele>74</ele>
        <time>2020-06-06T15:11:17.000Z</time>
      </trkpt>
      <trkpt lat="43.67393" lon="3.90677">
        <ele>74</ele>
        <time>2020-06-06T15:11:18.000Z</time>
      </trkpt>
      <trkpt lat="43.67392" lon="3.90673">
        <ele>74</ele>
        <time>2020-06-06T15:11:19.000Z</time>
      </trkpt>
      <trkpt lat="43.67391" lon="3.90669">
        <ele>74</ele>
        <time>2020-06-06T15:11:20.000Z</time>
      </trkpt>
      <trkpt lat="43.6739" lon="3.90665">
        <ele>74</ele>
        <time>2020-06-06T15:11:21.000Z</time>
      </trkpt>
      <trkpt lat="43.6739" lon="3.9066">
        <ele>74.01100032</ele>
        <time>2020-06-06T15:11:22.000Z</time>
      </trkpt>
      <trkpt lat="43.67392" lon="3.90657">
        <ele>74.11100032</ele>
        <time>2020-06-06T15:11:23.000Z</time>
      </trkpt>
      <trkpt lat="43.67395" lon="3.90655">
        <ele>74.21100032</ele>
        <time>2020-06-06T15:11:24.000Z</time>
      </trkpt>
      <trkpt lat="43.67397" lon="3.90652">
        <ele>74.31100032</ele>
        <time>2020-06-06T15:11:25.000Z</time>
      </trkpt>
      <trkpt lat="43.67399" lon="3.90648">
        <ele>74.41100032</ele>
        <time>2020-06-06T15:11:26.000Z</time>
      </trkpt>
      <trkpt lat="43.674" lon="3.90645">
        <ele>74.51100032</ele>
        <time>2020-06-06T15:11:27.000Z</time>
      </trkpt>
      <trkpt lat="43.67402" lon="3.90643">
        <ele>74.61100032</ele>
        <time>2020-06-06T15:11:28.000Z</time>
      </trkpt>
      <trkpt lat="43.67404" lon="3.90641">
        <ele>74.71100032</ele>
        <time>2020-06-06T15:11:29.000Z</time>
      </trkpt>
      <trkpt lat="43.67406" lon="3.9064">
        <ele>74.81100032</ele>
        <time>2020-06-06T15:11:30.000Z</time>
      </trkpt>
      <trkpt lat="43.67409" lon="3.9064">
        <ele>75</ele>
        <time>2020-06-06T15:11:32.000Z</time>
      </trkpt>
      <trkpt lat="43.67412" lon="3.9064">
        <ele>75</ele>
        <time>2020-06-06T15:11:33.000Z</time>
      </trkpt>
      <trkpt lat="43.67413" lon="3.90638">
        <ele>75</ele>
        <time>2020-06-06T15:11:34.000Z</time>
      </trkpt>
      <trkpt lat="43.67415" lon="3.90636">
        <ele>75</ele>
        <time>2020-06-06T15:11:35.000Z</time>
      </trkpt>
      <trkpt lat="43.67416" lon="3.90633">
        <ele>75</ele>
        <time>2020-06-06T15:11:36.000Z</time>
      </trkpt>
      <trkpt lat="43.67417" lon="3.9063">
        <ele>75</ele>
        <time>2020-06-06T15:11:37.000Z</time>
      </trkpt>
      <trkpt lat="43.67419" lon="3.90627">
        <ele>75</ele>
        <time>2020-06-06T15:11:38.000Z</time>
      </trkpt>
      <trkpt lat="43.67422" lon="3.90625">
        <ele>75</ele>
        <time>2020-06-06T15:11:39.000Z</time>
      </trkpt>
      <trkpt lat="43.67425" lon="3.90623">
        <ele>75</ele>
        <time>2020-06-06T15:11:40.000Z</time>
      </trkpt>
      <trkpt lat="43.67427" lon="3.90621">
        <ele>75</ele>
        <time>2020-06-06T15:11:41.000Z</time>
      </trkpt>
      <trkpt lat="43.67429" lon="3.90618">
        <ele>75.010869881423</ele>
        <time>2020-06-06T15:11:42.000Z</time>
      </trkpt>
      <trkpt lat="43.6743" lon="3.90615">
        <ele>75.109684110672</ele>
        <time>2020-06-06T15:11:43.000Z</time>
      </trkpt>
      <trkpt lat="43.67431" lon="3.90612">
        <ele>75.208498339921</ele>
        <time>2020-06-06T15:11:44.000Z</time>
      </trkpt>
      <trkpt lat="43.67431" lon="3.90609">
        <ele>75.30731256917</ele>
        <time>2020-06-06T15:11:45.000Z</time>
      </trkpt>
      <trkpt lat="43.67431" lon="3.90605">
        <ele>75.406126798419</ele>
        <time>2020-06-06T15:11:46.000Z</time>
      </trkpt>
      <trkpt lat="43.67432" lon="3.90601">
        <ele>75.504941027668</ele>
        <time>2020-06-06T15:11:47.000Z</time>
      </trkpt>
      <trkpt lat="43.67432" lon="3.90597">
        <ele>75.603755256917</ele>
        <time>2020-06-06T15:11:48.000Z</time>
      </trkpt>
      <trkpt lat="43.67433" lon="3.90592">
        <ele>75.702569486166</ele>
        <time>2020-06-06T15:11:49.000Z</time>
      </trkpt>
      <trkpt lat="43.67433" lon="3.90587">
        <ele>75.801383715415</ele>
        <time>2020-06-06T15:11:50.000Z</time>
      </trkpt>
      <trkpt lat="43.67432" lon="3.90582">
        <ele>75.900197944664</ele>
        <time>2020-06-06T15:11:51.000Z</time>
      </trkpt>
      <trkpt lat="43.67433" lon="3.90578">
        <ele>75.999012173913</ele>
        <time>2020-06-06T15:11:52.000Z</time>
      </trkpt>
      <trkpt lat="43.67434" lon="3.90574">
        <ele>76.100202753036</ele>
        <time>2020-06-06T15:11:53.000Z</time>
      </trkpt>
      <trkpt lat="43.67433" lon="3.9057">
        <ele>76.201417327935</ele>
        <time>2020-06-06T15:11:54.000Z</time>
      </trkpt>
      <trkpt lat="43.67434" lon="3.90565">
        <ele>76.302631902834</ele>
        <time>2020-06-06T15:11:55.000Z</time>
      </trkpt>
      <trkpt lat="43.67435" lon="3.90561">
        <ele>76.403846477733</ele>
        <time>2020-06-06T15:11:56.000Z</time>
      </trkpt>
      <trkpt lat="43.67436" lon="3.90558">
        <ele>76.505061052632</ele>
        <time>2020-06-06T15:11:57.000Z</time>
      </trkpt>
      <trkpt lat="43.67436" lon="3.90555">
        <ele>76.707490202429</ele>
        <time>2020-06-06T15:11:59.000Z</time>
      </trkpt>
      <trkpt lat="43.67435" lon="3.90553">
        <ele>76.909919352227</ele>
        <time>2020-06-06T15:12:01.000Z</time>
      </trkpt>
      <trkpt lat="43.67431" lon="3.90551">
        <ele>77.11100032</ele>
        <time>2020-06-06T15:12:03.000Z</time>
      </trkpt>
      <trkpt lat="43.67427" lon="3.9055">
        <ele>77.31100032</ele>
        <time>2020-06-06T15:12:05.000Z</time>
      </trkpt>
      <trkpt lat="43.67426" lon="3.90547">
        <ele>77.41100032</ele>
        <time>2020-06-06T15:12:06.000Z</time>
      </trkpt>
      <trkpt lat="43.67425" lon="3.90544">
        <ele>77.51100032</ele>
        <time>2020-06-06T15:12:07.000Z</time>
      </trkpt>
      <trkpt lat="43.67426" lon="3.90542">
        <ele>77.61100032</ele>
        <time>2020-06-06T15:12:08.000Z</time>
      </trkpt>
      <trkpt lat="43.67426" lon="3.90539">
        <ele>77.71100032</ele>
        <time>2020-06-06T15:12:09.000Z</time>
      </trkpt>
      <trkpt lat="43.67426" lon="3.90536">
        <ele>77.81100032</ele>
        <time>2020-06-06T15:12:10.000Z</time>
      </trkpt>
      <trkpt lat="43.67427" lon="3.90533">
        <ele>77.91100032</ele>
        <time>2020-06-06T15:12:11.000Z</time>
      </trkpt>
      <trkpt lat="43.67429" lon="3.90529">
        <ele>78</ele>
        <time>2020-06-06T15:12:12.000Z</time>
      </trkpt>
      <trkpt lat="43.6743" lon="3.90525">
        <ele>78</ele>
        <time>2020-06-06T15:12:13.000Z</time>
      </trkpt>
      <trkpt lat="43.67431" lon="3.9052">
        <ele>78</ele>
        <time>2020-06-06T15:12:14.000Z</time>
      </trkpt>
      <trkpt lat="43.67431" lon="3.90516">
        <ele>78</ele>
        <time>2020-06-06T15:12:15.000Z</time>
      </trkpt>
      <trkpt lat="43.6743" lon="3.90511">
        <ele>78</ele>
        <time>2020-06-06T15:12:16.000Z</time>
      </trkpt>
      <trkpt lat="43.67428" lon="3.90508">
        <ele>78</ele>
        <time>2020-06-06T15:12:17.000Z</time>
      </trkpt>
      <trkpt lat="43.67425" lon="3.90505">
        <ele>78</ele>
        <time>2020-06-06T15:12:18.000Z</time>
      </trkpt>
      <trkpt lat="43.67424" lon="3.90502">
        <ele>78</ele>
        <time>2020-06-06T15:12:19.000Z</time>
      </trkpt>
      <trkpt lat="43.67424" lon="3.90498">
        <ele>78</ele>
        <time>2020-06-06T15:12:20.000Z</time>
      </trkpt>
      <trkpt lat="43.67426" lon="3.90494">
        <ele>78</ele>
        <time>2020-06-06T15:12:21.000Z</time>
      </trkpt>
      <trkpt lat="43.67428" lon="3.9049">
        <ele>77.989021643739</ele>
        <time>2020-06-06T15:12:22.000Z</time>
      </trkpt>
      <trkpt lat="43.67428" lon="3.90486">
        <ele>77.889221308282</ele>
        <time>2020-06-06T15:12:23.000Z</time>
      </trkpt>
      <trkpt lat="43.6743" lon="3.90482">
        <ele>77.789420972825</ele>
        <time>2020-06-06T15:12:24.000Z</time>
      </trkpt>
      <trkpt lat="43.67431" lon="3.90478">
        <ele>77.689620637368</ele>
        <time>2020-06-06T15:12:25.000Z</time>
      </trkpt>
      <trkpt lat="43.6743" lon="3.90475">
        <ele>77.589820301911</ele>
        <time>2020-06-06T15:12:26.000Z</time>
      </trkpt>
      <trkpt lat="43.67429" lon="3.90473">
        <ele>77.490019966454</ele>
        <time>2020-06-06T15:12:27.000Z</time>
      </trkpt>
      <trkpt lat="43.67426" lon="3.9047">
        <ele>77.390219630997</ele>
        <time>2020-06-06T15:12:28.000Z</time>
      </trkpt>
      <trkpt lat="43.67425" lon="3.90468">
        <ele>77.290419295541</ele>
        <time>2020-06-06T15:12:29.000Z</time>
      </trkpt>
      <trkpt lat="43.67424" lon="3.90465">
        <ele>77.190618960084</ele>
        <time>2020-06-06T15:12:30.000Z</time>
      </trkpt>
      <trkpt lat="43.67424" lon="3.90461">
        <ele>77.090818624627</ele>
        <time>2020-06-06T15:12:31.000Z</time>
      </trkpt>
      <trkpt lat="43.67425" lon="3.90457">
        <ele>76.990982278786</ele>
        <time>2020-06-06T15:12:32.000Z</time>
      </trkpt>
      <trkpt lat="43.67427" lon="3.90452">
        <ele>76.890781813728</ele>
        <time>2020-06-06T15:12:33.000Z</time>
      </trkpt>
      <trkpt lat="43.67435" lon="3.90445">
        <ele>76.590180418553</ele>
        <time>2020-06-06T15:12:36.000Z</time>
      </trkpt>
      <trkpt lat="43.67446" lon="3.9044">
        <ele>76.289579023377</ele>
        <time>2020-06-06T15:12:39.000Z</time>
      </trkpt>
      <trkpt lat="43.67448" lon="3.90441">
        <ele>76.189378558319</ele>
        <time>2020-06-06T15:12:40.000Z</time>
      </trkpt>
      <trkpt lat="43.67454" lon="3.90438">
        <ele>75.77799936</ele>
        <time>2020-06-06T15:12:43.000Z</time>
      </trkpt>
      <trkpt lat="43.67457" lon="3.90435">
        <ele>75.57799936</ele>
        <time>2020-06-06T15:12:44.000Z</time>
      </trkpt>
      <trkpt lat="43.67461" lon="3.90431">
        <ele>75.37799936</ele>
        <time>2020-06-06T15:12:45.000Z</time>
      </trkpt>
      <trkpt lat="43.67462" lon="3.90427">
        <ele>75.17799936</ele>
        <time>2020-06-06T15:12:46.000Z</time>
      </trkpt>
      <trkpt lat="43.67463" lon="3.90423">
        <ele>74.97799936</ele>
        <time>2020-06-06T15:12:47.000Z</time>
      </trkpt>
      <trkpt lat="43.67463" lon="3.90419">
        <ele>74.77799936</ele>
        <time>2020-06-06T15:12:48.000Z</time>
      </trkpt>
      <trkpt lat="43.67463" lon="3.90415">
        <ele>74.57799936</ele>
        <time>2020-06-06T15:12:49.000Z</time>
      </trkpt>
      <trkpt lat="43.67462" lon="3.90413">
        <ele>74.37799936</ele>
        <time>2020-06-06T15:12:50.000Z</time>
      </trkpt>
      <trkpt lat="43.67462" lon="3.90408">
        <ele>73.98899968</ele>
        <time>2020-06-06T15:12:52.000Z</time>
      </trkpt>
      <trkpt lat="43.67462" lon="3.90404">
        <ele>73.78899968</ele>
        <time>2020-06-06T15:12:54.000Z</time>
      </trkpt>
      <trkpt lat="43.67461" lon="3.90399">
        <ele>73.58899968</ele>
        <time>2020-06-06T15:12:56.000Z</time>
      </trkpt>
      <trkpt lat="43.67461" lon="3.90397">
        <ele>73.48899968</ele>
        <time>2020-06-06T15:12:57.000Z</time>
      </trkpt>
      <trkpt lat="43.67459" lon="3.90394">
        <ele>73.38899968</ele>
        <time>2020-06-06T15:12:58.000Z</time>
      </trkpt>
      <trkpt lat="43.67458" lon="3.90391">
        <ele>73.28899968</ele>
        <time>2020-06-06T15:12:59.000Z</time>
      </trkpt>
      <trkpt lat="43.67456" lon="3.90387">
        <ele>73.18899968</ele>
        <time>2020-06-06T15:13:00.000Z</time>
      </trkpt>
      <trkpt lat="43.67455" lon="3.90382">
        <ele>73.08899968</ele>
        <time>2020-06-06T15:13:01.000Z</time>
      </trkpt>
      <trkpt lat="43.67453" lon="3.90378">
        <ele>73.02200064</ele>
        <time>2020-06-06T15:13:02.000Z</time>
      </trkpt>
      <trkpt lat="43.67451" lon="3.90375">
        <ele>73.22200064</ele>
        <time>2020-06-06T15:13:03.000Z</time>
      </trkpt>
      <trkpt lat="43.6745" lon="3.90373">
        <ele>73.42200064</ele>
        <time>2020-06-06T15:13:04.000Z</time>
      </trkpt>
      <trkpt lat="43.67448" lon="3.90371">
        <ele>73.82200064</ele>
        <time>2020-06-06T15:13:06.000Z</time>
      </trkpt>
      <trkpt lat="43.67446" lon="3.90369">
        <ele>74.22200064</ele>
        <time>2020-06-06T15:13:08.000Z</time>
      </trkpt>
      <trkpt lat="43.67445" lon="3.90366">
        <ele>74.62200064</ele>
        <time>2020-06-06T15:13:10.000Z</time>
      </trkpt>
      <trkpt lat="43.67443" lon="3.90364">
        <ele>75.01207499027</ele>
        <time>2020-06-06T15:13:12.000Z</time>
      </trkpt>
      <trkpt lat="43.67442" lon="3.90366">
        <ele>75.560922217898</ele>
        <time>2020-06-06T15:13:17.000Z</time>
      </trkpt>
      <trkpt lat="43.67442" lon="3.90366">
        <ele>76</ele>
        <time>2020-06-06T15:13:21.000Z</time>
      </trkpt>
      <trkpt lat="43.67436" lon="3.90372">
        <ele>76</ele>
        <time>2020-06-06T15:13:32.000Z</time>
      </trkpt>
      <trkpt lat="43.67434" lon="3.90372">
        <ele>76</ele>
        <time>2020-06-06T15:13:33.000Z</time>
      </trkpt>
      <trkpt lat="43.67432" lon="3.9037">
        <ele>76</ele>
        <time>2020-06-06T15:13:34.000Z</time>
      </trkpt>
      <trkpt lat="43.67431" lon="3.90367">
        <ele>76</ele>
        <time>2020-06-06T15:13:35.000Z</time>
      </trkpt>
      <trkpt lat="43.6743" lon="3.90364">
        <ele>76</ele>
        <time>2020-06-06T15:13:36.000Z</time>
      </trkpt>
      <trkpt lat="43.67429" lon="3.90361">
        <ele>76</ele>
        <time>2020-06-06T15:13:37.000Z</time>
      </trkpt>
      <trkpt lat="43.67429" lon="3.90357">
        <ele>76</ele>
        <time>2020-06-06T15:13:38.000Z</time>
      </trkpt>
      <trkpt lat="43.6743" lon="3.90353">
        <ele>76</ele>
        <time>2020-06-06T15:13:39.000Z</time>
      </trkpt>
      <trkpt lat="43.67431" lon="3.90349">
        <ele>76</ele>
        <time>2020-06-06T15:13:40.000Z</time>
      </trkpt>
      <trkpt lat="43.67434" lon="3.90348">
        <ele>76</ele>
        <time>2020-06-06T15:13:41.000Z</time>
      </trkpt>
      <trkpt lat="43.67436" lon="3.90348">
        <ele>76</ele>
        <time>2020-06-06T15:13:42.000Z</time>
      </trkpt>
      <trkpt lat="43.67438" lon="3.90348">
        <ele>76</ele>
        <time>2020-06-06T15:13:43.000Z</time>
      </trkpt>
      <trkpt lat="43.6744" lon="3.90346">
        <ele>76</ele>
        <time>2020-06-06T15:13:44.000Z</time>
      </trkpt>
      <trkpt lat="43.67442" lon="3.90345">
        <ele>76</ele>
        <time>2020-06-06T15:13:45.000Z</time>
      </trkpt>
      <trkpt lat="43.67444" lon="3.90345">
        <ele>76</ele>
        <time>2020-06-06T15:13:46.000Z</time>
      </trkpt>
      <trkpt lat="43.67446" lon="3.90346">
        <ele>76</ele>
        <time>2020-06-06T15:13:47.000Z</time>
      </trkpt>
      <trkpt lat="43.67448" lon="3.90346">
        <ele>76</ele>
        <time>2020-06-06T15:13:48.000Z</time>
      </trkpt>
      <trkpt lat="43.6745" lon="3.90345">
        <ele>76</ele>
        <time>2020-06-06T15:13:49.000Z</time>
      </trkpt>
      <trkpt lat="43.67452" lon="3.90343">
        <ele>76</ele>
        <time>2020-06-06T15:13:50.000Z</time>
      </trkpt>
      <trkpt lat="43.67454" lon="3.9034">
        <ele>76</ele>
        <time>2020-06-06T15:13:51.000Z</time>
      </trkpt>
      <trkpt lat="43.67455" lon="3.90337">
        <ele>76</ele>
        <time>2020-06-06T15:13:52.000Z</time>
      </trkpt>
      <trkpt lat="43.67457" lon="3.90337">
        <ele>76</ele>
        <time>2020-06-06T15:13:53.000Z</time>
      </trkpt>
      <trkpt lat="43.67459" lon="3.90338">
        <ele>76</ele>
        <time>2020-06-06T15:13:54.000Z</time>
      </trkpt>
      <trkpt lat="43.67461" lon="3.90339">
        <ele>76</ele>
        <time>2020-06-06T15:13:55.000Z</time>
      </trkpt>
      <trkpt lat="43.67464" lon="3.90339">
        <ele>76</ele>
        <time>2020-06-06T15:13:56.000Z</time>
      </trkpt>
      <trkpt lat="43.67466" lon="3.90337">
        <ele>76</ele>
        <time>2020-06-06T15:13:57.000Z</time>
      </trkpt>
      <trkpt lat="43.67468" lon="3.90334">
        <ele>76</ele>
        <time>2020-06-06T15:13:58.000Z</time>
      </trkpt>
      <trkpt lat="43.6747" lon="3.90331">
        <ele>76</ele>
        <time>2020-06-06T15:13:59.000Z</time>
      </trkpt>
      <trkpt lat="43.67472" lon="3.90328">
        <ele>76</ele>
        <time>2020-06-06T15:14:00.000Z</time>
      </trkpt>
      <trkpt lat="43.67474" lon="3.90325">
        <ele>76</ele>
        <time>2020-06-06T15:14:01.000Z</time>
      </trkpt>
      <trkpt lat="43.67475" lon="3.90321">
        <ele>76.01100032</ele>
        <time>2020-06-06T15:14:02.000Z</time>
      </trkpt>
      <trkpt lat="43.67476" lon="3.90318">
        <ele>76.11100032</ele>
        <time>2020-06-06T15:14:03.000Z</time>
      </trkpt>
      <trkpt lat="43.67478" lon="3.90316">
        <ele>76.21100032</ele>
        <time>2020-06-06T15:14:04.000Z</time>
      </trkpt>
      <trkpt lat="43.6748" lon="3.90315">
        <ele>76.31100032</ele>
        <time>2020-06-06T15:14:05.000Z</time>
      </trkpt>
      <trkpt lat="43.67483" lon="3.90315">
        <ele>76.41100032</ele>
        <time>2020-06-06T15:14:06.000Z</time>
      </trkpt>
      <trkpt lat="43.67485" lon="3.90314">
        <ele>76.51100032</ele>
        <time>2020-06-06T15:14:07.000Z</time>
      </trkpt>
      <trkpt lat="43.67487" lon="3.90312">
        <ele>76.61100032</ele>
        <time>2020-06-06T15:14:08.000Z</time>
      </trkpt>
      <trkpt lat="43.67489" lon="3.90309">
        <ele>76.71100032</ele>
        <time>2020-06-06T15:14:09.000Z</time>
      </trkpt>
      <trkpt lat="43.67491" lon="3.90307">
        <ele>76.81100032</ele>
        <time>2020-06-06T15:14:10.000Z</time>
      </trkpt>
      <trkpt lat="43.67493" lon="3.90307">
        <ele>76.91100032</ele>
        <time>2020-06-06T15:14:11.000Z</time>
      </trkpt>
      <trkpt lat="43.67496" lon="3.90307">
        <ele>76.989172913386</ele>
        <time>2020-06-06T15:14:12.000Z</time>
      </trkpt>
      <trkpt lat="43.67497" lon="3.90305">
        <ele>76.890747716535</ele>
        <time>2020-06-06T15:14:13.000Z</time>
      </trkpt>
      <trkpt lat="43.675" lon="3.90302">
        <ele>76.792322519685</ele>
        <time>2020-06-06T15:14:14.000Z</time>
      </trkpt>
      <trkpt lat="43.67502" lon="3.90299">
        <ele>76.693897322835</ele>
        <time>2020-06-06T15:14:15.000Z</time>
      </trkpt>
      <trkpt lat="43.67504" lon="3.90296">
        <ele>76.595472125984</ele>
        <time>2020-06-06T15:14:16.000Z</time>
      </trkpt>
      <trkpt lat="43.67507" lon="3.90293">
        <ele>76.497046929134</ele>
        <time>2020-06-06T15:14:17.000Z</time>
      </trkpt>
      <trkpt lat="43.67508" lon="3.9029">
        <ele>76.398621732284</ele>
        <time>2020-06-06T15:14:18.000Z</time>
      </trkpt>
      <trkpt lat="43.67508" lon="3.90287">
        <ele>76.300196535433</ele>
        <time>2020-06-06T15:14:19.000Z</time>
      </trkpt>
      <trkpt lat="43.67509" lon="3.90284">
        <ele>76.201771338583</ele>
        <time>2020-06-06T15:14:20.000Z</time>
      </trkpt>
      <trkpt lat="43.6751" lon="3.9028">
        <ele>76.103346141732</ele>
        <time>2020-06-06T15:14:21.000Z</time>
      </trkpt>
      <trkpt lat="43.67511" lon="3.90277">
        <ele>76.004920944882</ele>
        <time>2020-06-06T15:14:22.000Z</time>
      </trkpt>
      <trkpt lat="43.67512" lon="3.90273">
        <ele>76</ele>
        <time>2020-06-06T15:14:23.000Z</time>
      </trkpt>
      <trkpt lat="43.67514" lon="3.90269">
        <ele>76</ele>
        <time>2020-06-06T15:14:24.000Z</time>
      </trkpt>
      <trkpt lat="43.67515" lon="3.90266">
        <ele>76</ele>
        <time>2020-06-06T15:14:25.000Z</time>
      </trkpt>
      <trkpt lat="43.67517" lon="3.90263">
        <ele>76</ele>
        <time>2020-06-06T15:14:26.000Z</time>
      </trkpt>
      <trkpt lat="43.67519" lon="3.9026">
        <ele>76</ele>
        <time>2020-06-06T15:14:27.000Z</time>
      </trkpt>
      <trkpt lat="43.67519" lon="3.90257">
        <ele>76</ele>
        <time>2020-06-06T15:14:28.000Z</time>
      </trkpt>
      <trkpt lat="43.67519" lon="3.90254">
        <ele>76</ele>
        <time>2020-06-06T15:14:29.000Z</time>
      </trkpt>
      <trkpt lat="43.6752" lon="3.90249">
        <ele>76</ele>
        <time>2020-06-06T15:14:31.000Z</time>
      </trkpt>
      <trkpt lat="43.6752" lon="3.90246">
        <ele>75.98899968</ele>
        <time>2020-06-06T15:14:32.000Z</time>
      </trkpt>
      <trkpt lat="43.67522" lon="3.90245">
        <ele>75.88899968</ele>
        <time>2020-06-06T15:14:33.000Z</time>
      </trkpt>
      <trkpt lat="43.67524" lon="3.90244">
        <ele>75.78899968</ele>
        <time>2020-06-06T15:14:34.000Z</time>
      </trkpt>
      <trkpt lat="43.67526" lon="3.90241">
        <ele>75.68899968</ele>
        <time>2020-06-06T15:14:35.000Z</time>
      </trkpt>
      <trkpt lat="43.67527" lon="3.90237">
        <ele>75.58899968</ele>
        <time>2020-06-06T15:14:36.000Z</time>
      </trkpt>
      <trkpt lat="43.67528" lon="3.90234">
        <ele>75.48899968</ele>
        <time>2020-06-06T15:14:37.000Z</time>
      </trkpt>
      <trkpt lat="43.67528" lon="3.90231">
        <ele>75.38899968</ele>
        <time>2020-06-06T15:14:38.000Z</time>
      </trkpt>
      <trkpt lat="43.67527" lon="3.90228">
        <ele>75.28899968</ele>
        <time>2020-06-06T15:14:39.000Z</time>
      </trkpt>
      <trkpt lat="43.67526" lon="3.90225">
        <ele>75.18899968</ele>
        <time>2020-06-06T15:14:40.000Z</time>
      </trkpt>
      <trkpt lat="43.67525" lon="3.90222">
        <ele>75.08899968</ele>
        <time>2020-06-06T15:14:41.000Z</time>
      </trkpt>
      <trkpt lat="43.67524" lon="3.90219">
        <ele>75</ele>
        <time>2020-06-06T15:14:42.000Z</time>
      </trkpt>
      <trkpt lat="43.67522" lon="3.90217">
        <ele>75</ele>
        <time>2020-06-06T15:14:43.000Z</time>
      </trkpt>
      <trkpt lat="43.6752" lon="3.90215">
        <ele>75</ele>
        <time>2020-06-06T15:14:44.000Z</time>
      </trkpt>
      <trkpt lat="43.67518" lon="3.90213">
        <ele>75</ele>
        <time>2020-06-06T15:14:45.000Z</time>
      </trkpt>
      <trkpt lat="43.67517" lon="3.90211">
        <ele>75</ele>
        <time>2020-06-06T15:14:46.000Z</time>
      </trkpt>
      <trkpt lat="43.67517" lon="3.90209">
        <ele>75</ele>
        <time>2020-06-06T15:14:47.000Z</time>
      </trkpt>
      <trkpt lat="43.67519" lon="3.90207">
        <ele>75</ele>
        <time>2020-06-06T15:14:48.000Z</time>
      </trkpt>
      <trkpt lat="43.67522" lon="3.90206">
        <ele>75</ele>
        <time>2020-06-06T15:14:49.000Z</time>
      </trkpt>
      <trkpt lat="43.67524" lon="3.90206">
        <ele>75</ele>
        <time>2020-06-06T15:14:50.000Z</time>
      </trkpt>
      <trkpt lat="43.67527" lon="3.90207">
        <ele>75</ele>
        <time>2020-06-06T15:14:51.000Z</time>
      </trkpt>
      <trkpt lat="43.6753" lon="3.90206">
        <ele>75</ele>
        <time>2020-06-06T15:14:52.000Z</time>
      </trkpt>
      <trkpt lat="43.67532" lon="3.90204">
        <ele>75</ele>
        <time>2020-06-06T15:14:53.000Z</time>
      </trkpt>
      <trkpt lat="43.67534" lon="3.90201">
        <ele>75</ele>
        <time>2020-06-06T15:14:54.000Z</time>
      </trkpt>
      <trkpt lat="43.67536" lon="3.90197">
        <ele>75</ele>
        <time>2020-06-06T15:14:55.000Z</time>
      </trkpt>
      <trkpt lat="43.67537" lon="3.90193">
        <ele>75</ele>
        <time>2020-06-06T15:14:56.000Z</time>
      </trkpt>
      <trkpt lat="43.67538" lon="3.90189">
        <ele>75</ele>
        <time>2020-06-06T15:14:57.000Z</time>
      </trkpt>
      <trkpt lat="43.67538" lon="3.90186">
        <ele>75</ele>
        <time>2020-06-06T15:14:58.000Z</time>
      </trkpt>
      <trkpt lat="43.67538" lon="3.90182">
        <ele>75</ele>
        <time>2020-06-06T15:15:00.000Z</time>
      </trkpt>
      <trkpt lat="43.67535" lon="3.9018">
        <ele>75</ele>
        <time>2020-06-06T15:15:02.000Z</time>
      </trkpt>
      <trkpt lat="43.67533" lon="3.9018">
        <ele>75.396342113821</ele>
        <time>2020-06-06T15:15:04.000Z</time>
      </trkpt>
      <trkpt lat="43.67531" lon="3.9018">
        <ele>75.599594146342</ele>
        <time>2020-06-06T15:15:05.000Z</time>
      </trkpt>
      <trkpt lat="43.67529" lon="3.90181">
        <ele>75.802846178862</ele>
        <time>2020-06-06T15:15:06.000Z</time>
      </trkpt>
      <trkpt lat="43.67527" lon="3.90181">
        <ele>76.006098211382</ele>
        <time>2020-06-06T15:15:07.000Z</time>
      </trkpt>
      <trkpt lat="43.67524" lon="3.90181">
        <ele>76.209350243902</ele>
        <time>2020-06-06T15:15:08.000Z</time>
      </trkpt>
      <trkpt lat="43.67522" lon="3.90182">
        <ele>76.412602276423</ele>
        <time>2020-06-06T15:15:09.000Z</time>
      </trkpt>
      <trkpt lat="43.6752" lon="3.90183">
        <ele>76.615854308943</ele>
        <time>2020-06-06T15:15:10.000Z</time>
      </trkpt>
      <trkpt lat="43.67518" lon="3.90183">
        <ele>76.819106341463</ele>
        <time>2020-06-06T15:15:11.000Z</time>
      </trkpt>
      <trkpt lat="43.67516" lon="3.90183">
        <ele>77.01100032</ele>
        <time>2020-06-06T15:15:12.000Z</time>
      </trkpt>
      <trkpt lat="43.67514" lon="3.90183">
        <ele>77.11100032</ele>
        <time>2020-06-06T15:15:13.000Z</time>
      </trkpt>
      <trkpt lat="43.67512" lon="3.90183">
        <ele>77.21100032</ele>
        <time>2020-06-06T15:15:14.000Z</time>
      </trkpt>
      <trkpt lat="43.67509" lon="3.90183">
        <ele>77.31100032</ele>
        <time>2020-06-06T15:15:15.000Z</time>
      </trkpt>
      <trkpt lat="43.67506" lon="3.90183">
        <ele>77.41100032</ele>
        <time>2020-06-06T15:15:16.000Z</time>
      </trkpt>
      <trkpt lat="43.67503" lon="3.90184">
        <ele>77.51100032</ele>
        <time>2020-06-06T15:15:17.000Z</time>
      </trkpt>
      <trkpt lat="43.675" lon="3.90186">
        <ele>77.61100032</ele>
        <time>2020-06-06T15:15:18.000Z</time>
      </trkpt>
      <trkpt lat="43.67497" lon="3.90188">
        <ele>77.71100032</ele>
        <time>2020-06-06T15:15:19.000Z</time>
      </trkpt>
      <trkpt lat="43.67494" lon="3.9019">
        <ele>77.81100032</ele>
        <time>2020-06-06T15:15:20.000Z</time>
      </trkpt>
      <trkpt lat="43.67491" lon="3.90191">
        <ele>77.91100032</ele>
        <time>2020-06-06T15:15:21.000Z</time>
      </trkpt>
      <trkpt lat="43.67487" lon="3.90192">
        <ele>78.02200064</ele>
        <time>2020-06-06T15:15:22.000Z</time>
      </trkpt>
      <trkpt lat="43.67484" lon="3.90193">
        <ele>78.22200064</ele>
        <time>2020-06-06T15:15:23.000Z</time>
      </trkpt>
      <trkpt lat="43.67481" lon="3.90194">
        <ele>78.42200064</ele>
        <time>2020-06-06T15:15:24.000Z</time>
      </trkpt>
      <trkpt lat="43.67478" lon="3.90193">
        <ele>78.62200064</ele>
        <time>2020-06-06T15:15:25.000Z</time>
      </trkpt>
      <trkpt lat="43.67475" lon="3.90193">
        <ele>78.82200064</ele>
        <time>2020-06-06T15:15:26.000Z</time>
      </trkpt>
      <trkpt lat="43.67473" lon="3.90192">
        <ele>79.02200064</ele>
        <time>2020-06-06T15:15:27.000Z</time>
      </trkpt>
      <trkpt lat="43.67471" lon="3.9019">
        <ele>79.22200064</ele>
        <time>2020-06-06T15:15:28.000Z</time>
      </trkpt>
      <trkpt lat="43.67468" lon="3.9019">
        <ele>79.42200064</ele>
        <time>2020-06-06T15:15:29.000Z</time>
      </trkpt>
      <trkpt lat="43.67466" lon="3.90189">
        <ele>79.62200064</ele>
        <time>2020-06-06T15:15:30.000Z</time>
      </trkpt>
      <trkpt lat="43.67463" lon="3.90188">
        <ele>79.82200064</ele>
        <time>2020-06-06T15:15:31.000Z</time>
      </trkpt>
      <trkpt lat="43.67461" lon="3.90187">
        <ele>80</ele>
        <time>2020-06-06T15:15:32.000Z</time>
      </trkpt>
      <trkpt lat="43.67458" lon="3.90187">
        <ele>80</ele>
        <time>2020-06-06T15:15:33.000Z</time>
      </trkpt>
      <trkpt lat="43.67455" lon="3.90186">
        <ele>80</ele>
        <time>2020-06-06T15:15:34.000Z</time>
      </trkpt>
      <trkpt lat="43.67452" lon="3.90185">
        <ele>80</ele>
        <time>2020-06-06T15:15:35.000Z</time>
      </trkpt>
      <trkpt lat="43.67449" lon="3.90183">
        <ele>80</ele>
        <time>2020-06-06T15:15:36.000Z</time>
      </trkpt>
      <trkpt lat="43.67447" lon="3.90182">
        <ele>80</ele>
        <time>2020-06-06T15:15:37.000Z</time>
      </trkpt>
      <trkpt lat="43.67444" lon="3.90181">
        <ele>80</ele>
        <time>2020-06-06T15:15:38.000Z</time>
      </trkpt>
      <trkpt lat="43.67441" lon="3.9018">
        <ele>80</ele>
        <time>2020-06-06T15:15:39.000Z</time>
      </trkpt>
      <trkpt lat="43.67438" lon="3.90179">
        <ele>80</ele>
        <time>2020-06-06T15:15:40.000Z</time>
      </trkpt>
      <trkpt lat="43.67435" lon="3.90178">
        <ele>80</ele>
        <time>2020-06-06T15:15:41.000Z</time>
      </trkpt>
      <trkpt lat="43.67432" lon="3.90177">
        <ele>80</ele>
        <time>2020-06-06T15:15:42.000Z</time>
      </trkpt>
      <trkpt lat="43.67429" lon="3.90176">
        <ele>80</ele>
        <time>2020-06-06T15:15:43.000Z</time>
      </trkpt>
      <trkpt lat="43.67427" lon="3.90175">
        <ele>80</ele>
        <time>2020-06-06T15:15:44.000Z</time>
      </trkpt>
      <trkpt lat="43.67424" lon="3.90174">
        <ele>80</ele>
        <time>2020-06-06T15:15:45.000Z</time>
      </trkpt>
      <trkpt lat="43.67421" lon="3.90174">
        <ele>80</ele>
        <time>2020-06-06T15:15:46.000Z</time>
      </trkpt>
      <trkpt lat="43.67418" lon="3.90173">
        <ele>80</ele>
        <time>2020-06-06T15:15:47.000Z</time>
      </trkpt>
      <trkpt lat="43.67415" lon="3.90173">
        <ele>80</ele>
        <time>2020-06-06T15:15:48.000Z</time>
      </trkpt>
      <trkpt lat="43.67412" lon="3.90172">
        <ele>80</ele>
        <time>2020-06-06T15:15:49.000Z</time>
      </trkpt>
      <trkpt lat="43.67409" lon="3.90172">
        <ele>80</ele>
        <time>2020-06-06T15:15:50.000Z</time>
      </trkpt>
      <trkpt lat="43.67406" lon="3.90171">
        <ele>80</ele>
        <time>2020-06-06T15:15:51.000Z</time>
      </trkpt>
      <trkpt lat="43.67403" lon="3.90171">
        <ele>80</ele>
        <time>2020-06-06T15:15:52.000Z</time>
      </trkpt>
      <trkpt lat="43.67399" lon="3.90171">
        <ele>80</ele>
        <time>2020-06-06T15:15:53.000Z</time>
      </trkpt>
      <trkpt lat="43.67396" lon="3.9017">
        <ele>80</ele>
        <time>2020-06-06T15:15:54.000Z</time>
      </trkpt>
      <trkpt lat="43.67393" lon="3.9017">
        <ele>80</ele>
        <time>2020-06-06T15:15:55.000Z</time>
      </trkpt>
      <trkpt lat="43.6739" lon="3.90169">
        <ele>80</ele>
        <time>2020-06-06T15:15:56.000Z</time>
      </trkpt>
      <trkpt lat="43.67386" lon="3.90167">
        <ele>80</ele>
        <time>2020-06-06T15:15:57.000Z</time>
      </trkpt>
      <trkpt lat="43.67383" lon="3.90166">
        <ele>80</ele>
        <time>2020-06-06T15:15:58.000Z</time>
      </trkpt>
      <trkpt lat="43.67379" lon="3.90165">
        <ele>80</ele>
        <time>2020-06-06T15:15:59.000Z</time>
      </trkpt>
      <trkpt lat="43.67375" lon="3.90163">
        <ele>80</ele>
        <time>2020-06-06T15:16:00.000Z</time>
      </trkpt>
      <trkpt lat="43.67372" lon="3.9016">
        <ele>80</ele>
        <time>2020-06-06T15:16:01.000Z</time>
      </trkpt>
      <trkpt lat="43.67368" lon="3.90158">
        <ele>80</ele>
        <time>2020-06-06T15:16:02.000Z</time>
      </trkpt>
      <trkpt lat="43.67364" lon="3.90157">
        <ele>80</ele>
        <time>2020-06-06T15:16:03.000Z</time>
      </trkpt>
      <trkpt lat="43.6736" lon="3.90155">
        <ele>80</ele>
        <time>2020-06-06T15:16:04.000Z</time>
      </trkpt>
      <trkpt lat="43.67356" lon="3.90153">
        <ele>80</ele>
        <time>2020-06-06T15:16:05.000Z</time>
      </trkpt>
      <trkpt lat="43.67352" lon="3.90152">
        <ele>80</ele>
        <time>2020-06-06T15:16:06.000Z</time>
      </trkpt>
      <trkpt lat="43.67349" lon="3.9015">
        <ele>80</ele>
        <time>2020-06-06T15:16:07.000Z</time>
      </trkpt>
      <trkpt lat="43.67346" lon="3.90148">
        <ele>80</ele>
        <time>2020-06-06T15:16:08.000Z</time>
      </trkpt>
      <trkpt lat="43.67343" lon="3.90146">
        <ele>80</ele>
        <time>2020-06-06T15:16:09.000Z</time>
      </trkpt>
      <trkpt lat="43.6734" lon="3.90144">
        <ele>80</ele>
        <time>2020-06-06T15:16:10.000Z</time>
      </trkpt>
      <trkpt lat="43.67337" lon="3.90142">
        <ele>80</ele>
        <time>2020-06-06T15:16:11.000Z</time>
      </trkpt>
      <trkpt lat="43.67335" lon="3.9014">
        <ele>80.01100032</ele>
        <time>2020-06-06T15:16:12.000Z</time>
      </trkpt>
      <trkpt lat="43.67332" lon="3.90138">
        <ele>80.11100032</ele>
        <time>2020-06-06T15:16:13.000Z</time>
      </trkpt>
      <trkpt lat="43.67329" lon="3.90136">
        <ele>80.21100032</ele>
        <time>2020-06-06T15:16:14.000Z</time>
      </trkpt>
      <trkpt lat="43.67326" lon="3.90134">
        <ele>80.31100032</ele>
        <time>2020-06-06T15:16:15.000Z</time>
      </trkpt>
      <trkpt lat="43.67323" lon="3.90133">
        <ele>80.41100032</ele>
        <time>2020-06-06T15:16:16.000Z</time>
      </trkpt>
      <trkpt lat="43.6732" lon="3.90132">
        <ele>80.51100032</ele>
        <time>2020-06-06T15:16:17.000Z</time>
      </trkpt>
      <trkpt lat="43.67316" lon="3.90131">
        <ele>80.61100032</ele>
        <time>2020-06-06T15:16:18.000Z</time>
      </trkpt>
      <trkpt lat="43.67313" lon="3.9013">
        <ele>80.71100032</ele>
        <time>2020-06-06T15:16:19.000Z</time>
      </trkpt>
      <trkpt lat="43.67309" lon="3.90128">
        <ele>80.81100032</ele>
        <time>2020-06-06T15:16:20.000Z</time>
      </trkpt>
      <trkpt lat="43.67306" lon="3.90128">
        <ele>80.91100032</ele>
        <time>2020-06-06T15:16:21.000Z</time>
      </trkpt>
      <trkpt lat="43.67302" lon="3.90127">
        <ele>81.010891399039</ele>
        <time>2020-06-06T15:16:22.000Z</time>
      </trkpt>
      <trkpt lat="43.67299" lon="3.90126">
        <ele>81.10990123729</ele>
        <time>2020-06-06T15:16:23.000Z</time>
      </trkpt>
      <trkpt lat="43.67295" lon="3.90125">
        <ele>81.208911075541</ele>
        <time>2020-06-06T15:16:24.000Z</time>
      </trkpt>
      <trkpt lat="43.67292" lon="3.90125">
        <ele>81.307920913793</ele>
        <time>2020-06-06T15:16:25.000Z</time>
      </trkpt>
      <trkpt lat="43.67289" lon="3.90124">
        <ele>81.406930752044</ele>
        <time>2020-06-06T15:16:26.000Z</time>
      </trkpt>
      <trkpt lat="43.67286" lon="3.90124">
        <ele>81.505940590295</ele>
        <time>2020-06-06T15:16:27.000Z</time>
      </trkpt>
      <trkpt lat="43.67283" lon="3.90123">
        <ele>81.604950428546</ele>
        <time>2020-06-06T15:16:28.000Z</time>
      </trkpt>
      <trkpt lat="43.6728" lon="3.90122">
        <ele>81.703960266797</ele>
        <time>2020-06-06T15:16:29.000Z</time>
      </trkpt>
      <trkpt lat="43.67278" lon="3.90122">
        <ele>81.802970105049</ele>
        <time>2020-06-06T15:16:30.000Z</time>
      </trkpt>
      <trkpt lat="43.67275" lon="3.90124">
        <ele>81.9019799433</ele>
        <time>2020-06-06T15:16:31.000Z</time>
      </trkpt>
      <trkpt lat="43.67271" lon="3.90125">
        <ele>82</ele>
        <time>2020-06-06T15:16:32.000Z</time>
      </trkpt>
      <trkpt lat="43.67268" lon="3.90127">
        <ele>82</ele>
        <time>2020-06-06T15:16:33.000Z</time>
      </trkpt>
      <trkpt lat="43.67266" lon="3.90129">
        <ele>82</ele>
        <time>2020-06-06T15:16:34.000Z</time>
      </trkpt>
      <trkpt lat="43.67263" lon="3.90132">
        <ele>82</ele>
        <time>2020-06-06T15:16:35.000Z</time>
      </trkpt>
      <trkpt lat="43.6726" lon="3.90134">
        <ele>82</ele>
        <time>2020-06-06T15:16:36.000Z</time>
      </trkpt>
      <trkpt lat="43.67257" lon="3.90135">
        <ele>82</ele>
        <time>2020-06-06T15:16:37.000Z</time>
      </trkpt>
      <trkpt lat="43.67254" lon="3.90137">
        <ele>82</ele>
        <time>2020-06-06T15:16:38.000Z</time>
      </trkpt>
      <trkpt lat="43.67251" lon="3.90139">
        <ele>82</ele>
        <time>2020-06-06T15:16:39.000Z</time>
      </trkpt>
      <trkpt lat="43.67248" lon="3.90141">
        <ele>82</ele>
        <time>2020-06-06T15:16:40.000Z</time>
      </trkpt>
      <trkpt lat="43.67245" lon="3.90142">
        <ele>82</ele>
        <time>2020-06-06T15:16:41.000Z</time>
      </trkpt>
      <trkpt lat="43.67242" lon="3.90143">
        <ele>82</ele>
        <time>2020-06-06T15:16:42.000Z</time>
      </trkpt>
      <trkpt lat="43.67239" lon="3.90143">
        <ele>82</ele>
        <time>2020-06-06T15:16:43.000Z</time>
      </trkpt>
      <trkpt lat="43.67237" lon="3.90144">
        <ele>82</ele>
        <time>2020-06-06T15:16:44.000Z</time>
      </trkpt>
      <trkpt lat="43.67235" lon="3.90145">
        <ele>82</ele>
        <time>2020-06-06T15:16:45.000Z</time>
      </trkpt>
      <trkpt lat="43.67232" lon="3.90145">
        <ele>82</ele>
        <time>2020-06-06T15:16:46.000Z</time>
      </trkpt>
      <trkpt lat="43.67229" lon="3.90146">
        <ele>82</ele>
        <time>2020-06-06T15:16:47.000Z</time>
      </trkpt>
      <trkpt lat="43.67226" lon="3.90146">
        <ele>82</ele>
        <time>2020-06-06T15:16:48.000Z</time>
      </trkpt>
      <trkpt lat="43.67224" lon="3.90146">
        <ele>82</ele>
        <time>2020-06-06T15:16:49.000Z</time>
      </trkpt>
      <trkpt lat="43.67221" lon="3.90146">
        <ele>82</ele>
        <time>2020-06-06T15:16:50.000Z</time>
      </trkpt>
      <trkpt lat="43.67218" lon="3.90147">
        <ele>82</ele>
        <time>2020-06-06T15:16:51.000Z</time>
      </trkpt>
      <trkpt lat="43.67215" lon="3.90148">
        <ele>82</ele>
        <time>2020-06-06T15:16:52.000Z</time>
      </trkpt>
      <trkpt lat="43.67212" lon="3.90149">
        <ele>82</ele>
        <time>2020-06-06T15:16:53.000Z</time>
      </trkpt>
      <trkpt lat="43.67209" lon="3.90149">
        <ele>82</ele>
        <time>2020-06-06T15:16:54.000Z</time>
      </trkpt>
      <trkpt lat="43.67205" lon="3.90149">
        <ele>82</ele>
        <time>2020-06-06T15:16:55.000Z</time>
      </trkpt>
      <trkpt lat="43.67202" lon="3.90148">
        <ele>82</ele>
        <time>2020-06-06T15:16:56.000Z</time>
      </trkpt>
      <trkpt lat="43.67199" lon="3.90148">
        <ele>82</ele>
        <time>2020-06-06T15:16:57.000Z</time>
      </trkpt>
      <trkpt lat="43.67196" lon="3.90147">
        <ele>82</ele>
        <time>2020-06-06T15:16:58.000Z</time>
      </trkpt>
      <trkpt lat="43.67193" lon="3.90146">
        <ele>82</ele>
        <time>2020-06-06T15:16:59.000Z</time>
      </trkpt>
      <trkpt lat="43.6719" lon="3.90143">
        <ele>82</ele>
        <time>2020-06-06T15:17:00.000Z</time>
      </trkpt>
      <trkpt lat="43.67187" lon="3.90141">
        <ele>82</ele>
        <time>2020-06-06T15:17:01.000Z</time>
      </trkpt>
      <trkpt lat="43.67185" lon="3.9014">
        <ele>82</ele>
        <time>2020-06-06T15:17:02.000Z</time>
      </trkpt>
      <trkpt lat="43.67183" lon="3.90141">
        <ele>81.94473961989</ele>
        <time>2020-06-06T15:17:03.000Z</time>
      </trkpt>
      <trkpt lat="43.67182" lon="3.90144">
        <ele>81.838469658141</ele>
        <time>2020-06-06T15:17:04.000Z</time>
      </trkpt>
      <trkpt lat="43.67181" lon="3.90147">
        <ele>81.732199696391</ele>
        <time>2020-06-06T15:17:05.000Z</time>
      </trkpt>
      <trkpt lat="43.67179" lon="3.90151">
        <ele>81.625929734641</ele>
        <time>2020-06-06T15:17:06.000Z</time>
      </trkpt>
      <trkpt lat="43.67178" lon="3.90154">
        <ele>81.519659772892</ele>
        <time>2020-06-06T15:17:07.000Z</time>
      </trkpt>
      <trkpt lat="43.67176" lon="3.90157">
        <ele>81.413389811142</ele>
        <time>2020-06-06T15:17:08.000Z</time>
      </trkpt>
      <trkpt lat="43.67174" lon="3.9016">
        <ele>81.307119849393</ele>
        <time>2020-06-06T15:17:09.000Z</time>
      </trkpt>
      <trkpt lat="43.67172" lon="3.90162">
        <ele>81.200849887643</ele>
        <time>2020-06-06T15:17:10.000Z</time>
      </trkpt>
      <trkpt lat="43.67171" lon="3.90166">
        <ele>81.094579925893</ele>
        <time>2020-06-06T15:17:11.000Z</time>
      </trkpt>
      <trkpt lat="43.67169" lon="3.90169">
        <ele>81</ele>
        <time>2020-06-06T15:17:12.000Z</time>
      </trkpt>
      <trkpt lat="43.67166" lon="3.90171">
        <ele>81</ele>
        <time>2020-06-06T15:17:13.000Z</time>
      </trkpt>
      <trkpt lat="43.67164" lon="3.90173">
        <ele>81</ele>
        <time>2020-06-06T15:17:14.000Z</time>
      </trkpt>
      <trkpt lat="43.67161" lon="3.90174">
        <ele>81</ele>
        <time>2020-06-06T15:17:15.000Z</time>
      </trkpt>
      <trkpt lat="43.67158" lon="3.90176">
        <ele>81</ele>
        <time>2020-06-06T15:17:16.000Z</time>
      </trkpt>
      <trkpt lat="43.67156" lon="3.90178">
        <ele>81</ele>
        <time>2020-06-06T15:17:17.000Z</time>
      </trkpt>
      <trkpt lat="43.67154" lon="3.9018">
        <ele>81</ele>
        <time>2020-06-06T15:17:18.000Z</time>
      </trkpt>
      <trkpt lat="43.67152" lon="3.90182">
        <ele>81</ele>
        <time>2020-06-06T15:17:19.000Z</time>
      </trkpt>
      <trkpt lat="43.67149" lon="3.90184">
        <ele>81</ele>
        <time>2020-06-06T15:17:20.000Z</time>
      </trkpt>
      <trkpt lat="43.67146" lon="3.90186">
        <ele>81</ele>
        <time>2020-06-06T15:17:21.000Z</time>
      </trkpt>
      <trkpt lat="43.67143" lon="3.90185">
        <ele>81.02200064</ele>
        <time>2020-06-06T15:17:22.000Z</time>
      </trkpt>
      <trkpt lat="43.67139" lon="3.90184">
        <ele>81.22200064</ele>
        <time>2020-06-06T15:17:23.000Z</time>
      </trkpt>
      <trkpt lat="43.67136" lon="3.90184">
        <ele>81.42200064</ele>
        <time>2020-06-06T15:17:24.000Z</time>
      </trkpt>
      <trkpt lat="43.67133" lon="3.90184">
        <ele>81.62200064</ele>
        <time>2020-06-06T15:17:25.000Z</time>
      </trkpt>
      <trkpt lat="43.67131" lon="3.90185">
        <ele>81.82200064</ele>
        <time>2020-06-06T15:17:26.000Z</time>
      </trkpt>
      <trkpt lat="43.67128" lon="3.90186">
        <ele>82.02200064</ele>
        <time>2020-06-06T15:17:27.000Z</time>
      </trkpt>
      <trkpt lat="43.67125" lon="3.90187">
        <ele>82.22200064</ele>
        <time>2020-06-06T15:17:28.000Z</time>
      </trkpt>
      <trkpt lat="43.67122" lon="3.90187">
        <ele>82.42200064</ele>
        <time>2020-06-06T15:17:29.000Z</time>
      </trkpt>
      <trkpt lat="43.67119" lon="3.90188">
        <ele>82.62200064</ele>
        <time>2020-06-06T15:17:30.000Z</time>
      </trkpt>
      <trkpt lat="43.67116" lon="3.90188">
        <ele>82.82200064</ele>
        <time>2020-06-06T15:17:31.000Z</time>
      </trkpt>
      <trkpt lat="43.67113" lon="3.90188">
        <ele>83</ele>
        <time>2020-06-06T15:17:32.000Z</time>
      </trkpt>
      <trkpt lat="43.6711" lon="3.90188">
        <ele>83</ele>
        <time>2020-06-06T15:17:33.000Z</time>
      </trkpt>
      <trkpt lat="43.67107" lon="3.90188">
        <ele>83</ele>
        <time>2020-06-06T15:17:34.000Z</time>
      </trkpt>
      <trkpt lat="43.67104" lon="3.90187">
        <ele>83</ele>
        <time>2020-06-06T15:17:35.000Z</time>
      </trkpt>
      <trkpt lat="43.67101" lon="3.90187">
        <ele>83</ele>
        <time>2020-06-06T15:17:36.000Z</time>
      </trkpt>
      <trkpt lat="43.67097" lon="3.90186">
        <ele>83</ele>
        <time>2020-06-06T15:17:37.000Z</time>
      </trkpt>
      <trkpt lat="43.67094" lon="3.90185">
        <ele>83</ele>
        <time>2020-06-06T15:17:38.000Z</time>
      </trkpt>
      <trkpt lat="43.67091" lon="3.90184">
        <ele>83</ele>
        <time>2020-06-06T15:17:39.000Z</time>
      </trkpt>
      <trkpt lat="43.67088" lon="3.90183">
        <ele>83</ele>
        <time>2020-06-06T15:17:40.000Z</time>
      </trkpt>
      <trkpt lat="43.67086" lon="3.90181">
        <ele>83</ele>
        <time>2020-06-06T15:17:41.000Z</time>
      </trkpt>
      <trkpt lat="43.67083" lon="3.90179">
        <ele>83.021485</ele>
        <time>2020-06-06T15:17:42.000Z</time>
      </trkpt>
      <trkpt lat="43.67082" lon="3.90176">
        <ele>83.2167975</ele>
        <time>2020-06-06T15:17:43.000Z</time>
      </trkpt>
      <trkpt lat="43.6708" lon="3.90172">
        <ele>83.41211</ele>
        <time>2020-06-06T15:17:44.000Z</time>
      </trkpt>
      <trkpt lat="43.6708" lon="3.90169">
        <ele>83.6074225</ele>
        <time>2020-06-06T15:17:45.000Z</time>
      </trkpt>
      <trkpt lat="43.6708" lon="3.90165">
        <ele>83.802735</ele>
        <time>2020-06-06T15:17:46.000Z</time>
      </trkpt>
      <trkpt lat="43.6708" lon="3.90162">
        <ele>83.9980475</ele>
        <time>2020-06-06T15:17:47.000Z</time>
      </trkpt>
      <trkpt lat="43.67081" lon="3.9016">
        <ele>84.19336</ele>
        <time>2020-06-06T15:17:48.000Z</time>
      </trkpt>
      <trkpt lat="43.67081" lon="3.90157">
        <ele>84.3886725</ele>
        <time>2020-06-06T15:17:49.000Z</time>
      </trkpt>
      <trkpt lat="43.67081" lon="3.90152">
        <ele>84.7792975</ele>
        <time>2020-06-06T15:17:51.000Z</time>
      </trkpt>
      <trkpt lat="43.67081" lon="3.90148">
        <ele>85.267419016393</ele>
        <time>2020-06-06T15:17:53.000Z</time>
      </trkpt>
      <trkpt lat="43.67081" lon="3.90145">
        <ele>85.882173114754</ele>
        <time>2020-06-06T15:17:55.000Z</time>
      </trkpt>
      <trkpt lat="43.67079" lon="3.90141">
        <ele>86.496927213115</ele>
        <time>2020-06-06T15:17:57.000Z</time>
      </trkpt>
      <trkpt lat="43.67077" lon="3.90138">
        <ele>87.111681311475</ele>
        <time>2020-06-06T15:17:59.000Z</time>
      </trkpt>
      <trkpt lat="43.67076" lon="3.90133">
        <ele>87.726435409836</ele>
        <time>2020-06-06T15:18:01.000Z</time>
      </trkpt>
      <trkpt lat="43.67076" lon="3.90129">
        <ele>88.22200064</ele>
        <time>2020-06-06T15:18:03.000Z</time>
      </trkpt>
      <trkpt lat="43.67075" lon="3.90125">
        <ele>88.62200064</ele>
        <time>2020-06-06T15:18:05.000Z</time>
      </trkpt>
      <trkpt lat="43.67075" lon="3.9012">
        <ele>89.02200064</ele>
        <time>2020-06-06T15:18:07.000Z</time>
      </trkpt>
      <trkpt lat="43.67074" lon="3.90116">
        <ele>89.42200064</ele>
        <time>2020-06-06T15:18:09.000Z</time>
      </trkpt>
      <trkpt lat="43.67074" lon="3.90111">
        <ele>89.82200064</ele>
        <time>2020-06-06T15:18:11.000Z</time>
      </trkpt>
      <trkpt lat="43.67073" lon="3.90106">
        <ele>90.22200064</ele>
        <time>2020-06-06T15:18:13.000Z</time>
      </trkpt>
      <trkpt lat="43.67072" lon="3.90102">
        <ele>90.62200064</ele>
        <time>2020-06-06T15:18:15.000Z</time>
      </trkpt>
      <trkpt lat="43.67071" lon="3.901">
        <ele>90.82200064</ele>
        <time>2020-06-06T15:18:16.000Z</time>
      </trkpt>
      <trkpt lat="43.6707" lon="3.90098">
        <ele>91.02200064</ele>
        <time>2020-06-06T15:18:17.000Z</time>
      </trkpt>
      <trkpt lat="43.6707" lon="3.90095">
        <ele>91.22200064</ele>
        <time>2020-06-06T15:18:18.000Z</time>
      </trkpt>
      <trkpt lat="43.67069" lon="3.90092">
        <ele>91.42200064</ele>
        <time>2020-06-06T15:18:19.000Z</time>
      </trkpt>
      <trkpt lat="43.67069" lon="3.90089">
        <ele>91.62200064</ele>
        <time>2020-06-06T15:18:20.000Z</time>
      </trkpt>
      <trkpt lat="43.67068" lon="3.90086">
        <ele>91.82200064</ele>
        <time>2020-06-06T15:18:21.000Z</time>
      </trkpt>
      <trkpt lat="43.67067" lon="3.90084">
        <ele>92.010721552766</ele>
        <time>2020-06-06T15:18:22.000Z</time>
      </trkpt>
      <trkpt lat="43.67067" lon="3.9008">
        <ele>92.108187378908</ele>
        <time>2020-06-06T15:18:23.000Z</time>
      </trkpt>
      <trkpt lat="43.67066" lon="3.90077">
        <ele>92.205653205051</ele>
        <time>2020-06-06T15:18:24.000Z</time>
      </trkpt>
      <trkpt lat="43.67065" lon="3.90074">
        <ele>92.303119031193</ele>
        <time>2020-06-06T15:18:25.000Z</time>
      </trkpt>
      <trkpt lat="43.67064" lon="3.90071">
        <ele>92.400584857335</ele>
        <time>2020-06-06T15:18:26.000Z</time>
      </trkpt>
      <trkpt lat="43.67064" lon="3.90068">
        <ele>92.498050683477</ele>
        <time>2020-06-06T15:18:27.000Z</time>
      </trkpt>
      <trkpt lat="43.67064" lon="3.90065">
        <ele>92.595516509619</ele>
        <time>2020-06-06T15:18:28.000Z</time>
      </trkpt>
      <trkpt lat="43.67064" lon="3.90062">
        <ele>92.692982335761</ele>
        <time>2020-06-06T15:18:29.000Z</time>
      </trkpt>
      <trkpt lat="43.67064" lon="3.90059">
        <ele>92.790448161904</ele>
        <time>2020-06-06T15:18:30.000Z</time>
      </trkpt>
      <trkpt lat="43.67064" lon="3.90055">
        <ele>92.985379814188</ele>
        <time>2020-06-06T15:18:32.000Z</time>
      </trkpt>
      <trkpt lat="43.67064" lon="3.90051">
        <ele>93</ele>
        <time>2020-06-06T15:18:33.000Z</time>
      </trkpt>
      <trkpt lat="43.67064" lon="3.90048">
        <ele>93</ele>
        <time>2020-06-06T15:18:34.000Z</time>
      </trkpt>
      <trkpt lat="43.67064" lon="3.90043">
        <ele>93</ele>
        <time>2020-06-06T15:18:35.000Z</time>
      </trkpt>
      <trkpt lat="43.67064" lon="3.90039">
        <ele>93</ele>
        <time>2020-06-06T15:18:36.000Z</time>
      </trkpt>
      <trkpt lat="43.67064" lon="3.90036">
        <ele>93</ele>
        <time>2020-06-06T15:18:37.000Z</time>
      </trkpt>
      <trkpt lat="43.67064" lon="3.90033">
        <ele>93</ele>
        <time>2020-06-06T15:18:38.000Z</time>
      </trkpt>
      <trkpt lat="43.67063" lon="3.90031">
        <ele>93</ele>
        <time>2020-06-06T15:18:39.000Z</time>
      </trkpt>
      <trkpt lat="43.67062" lon="3.90027">
        <ele>93</ele>
        <time>2020-06-06T15:18:40.000Z</time>
      </trkpt>
      <trkpt lat="43.67061" lon="3.90024">
        <ele>93</ele>
        <time>2020-06-06T15:18:41.000Z</time>
      </trkpt>
      <trkpt lat="43.6706" lon="3.9002">
        <ele>93.01207499027</ele>
        <time>2020-06-06T15:18:42.000Z</time>
      </trkpt>
      <trkpt lat="43.67059" lon="3.90017">
        <ele>93.121844435796</ele>
        <time>2020-06-06T15:18:43.000Z</time>
      </trkpt>
      <trkpt lat="43.67058" lon="3.90015">
        <ele>93.231613881321</ele>
        <time>2020-06-06T15:18:44.000Z</time>
      </trkpt>
      <trkpt lat="43.67056" lon="3.90012">
        <ele>93.451152772372</ele>
        <time>2020-06-06T15:18:46.000Z</time>
      </trkpt>
      <trkpt lat="43.67056" lon="3.9001">
        <ele>94</ele>
        <time>2020-06-06T15:18:51.000Z</time>
      </trkpt>
      <trkpt lat="43.67054" lon="3.9">
        <ele>95.982281290886</ele>
        <time>2020-06-06T15:19:00.000Z</time>
      </trkpt>
      <trkpt lat="43.67055" lon="3.89998">
        <ele>96</ele>
        <time>2020-06-06T15:19:01.000Z</time>
      </trkpt>
      <trkpt lat="43.67056" lon="3.89995">
        <ele>96</ele>
        <time>2020-06-06T15:19:02.000Z</time>
      </trkpt>
      <trkpt lat="43.67057" lon="3.89992">
        <ele>96</ele>
        <time>2020-06-06T15:19:03.000Z</time>
      </trkpt>
      <trkpt lat="43.67058" lon="3.8999">
        <ele>96</ele>
        <time>2020-06-06T15:19:04.000Z</time>
      </trkpt>
      <trkpt lat="43.67059" lon="3.89987">
        <ele>96</ele>
        <time>2020-06-06T15:19:05.000Z</time>
      </trkpt>
      <trkpt lat="43.6706" lon="3.89983">
        <ele>96</ele>
        <time>2020-06-06T15:19:07.000Z</time>
      </trkpt>
      <trkpt lat="43.6706" lon="3.89978">
        <ele>96</ele>
        <time>2020-06-06T15:19:09.000Z</time>
      </trkpt>
      <trkpt lat="43.67059" lon="3.89976">
        <ele>96</ele>
        <time>2020-06-06T15:19:10.000Z</time>
      </trkpt>
      <trkpt lat="43.67058" lon="3.89973">
        <ele>96</ele>
        <time>2020-06-06T15:19:11.000Z</time>
      </trkpt>
      <trkpt lat="43.67057" lon="3.89971">
        <ele>96</ele>
        <time>2020-06-06T15:19:12.000Z</time>
      </trkpt>
      <trkpt lat="43.67055" lon="3.89969">
        <ele>96</ele>
        <time>2020-06-06T15:19:13.000Z</time>
      </trkpt>
      <trkpt lat="43.67055" lon="3.89966">
        <ele>96</ele>
        <time>2020-06-06T15:19:14.000Z</time>
      </trkpt>
      <trkpt lat="43.67054" lon="3.89962">
        <ele>96</ele>
        <time>2020-06-06T15:19:15.000Z</time>
      </trkpt>
      <trkpt lat="43.67054" lon="3.89957">
        <ele>96</ele>
        <time>2020-06-06T15:19:16.000Z</time>
      </trkpt>
      <trkpt lat="43.67054" lon="3.89952">
        <ele>96</ele>
        <time>2020-06-06T15:19:17.000Z</time>
      </trkpt>
      <trkpt lat="43.67054" lon="3.89948">
        <ele>96</ele>
        <time>2020-06-06T15:19:18.000Z</time>
      </trkpt>
      <trkpt lat="43.67053" lon="3.89943">
        <ele>96</ele>
        <time>2020-06-06T15:19:19.000Z</time>
      </trkpt>
      <trkpt lat="43.67052" lon="3.89938">
        <ele>96</ele>
        <time>2020-06-06T15:19:20.000Z</time>
      </trkpt>
      <trkpt lat="43.67051" lon="3.89933">
        <ele>96</ele>
        <time>2020-06-06T15:19:21.000Z</time>
      </trkpt>
      <trkpt lat="43.67051" lon="3.89929">
        <ele>96</ele>
        <time>2020-06-06T15:19:22.000Z</time>
      </trkpt>
      <trkpt lat="43.6705" lon="3.89925">
        <ele>96</ele>
        <time>2020-06-06T15:19:23.000Z</time>
      </trkpt>
      <trkpt lat="43.6705" lon="3.89921">
        <ele>96</ele>
        <time>2020-06-06T15:19:24.000Z</time>
      </trkpt>
      <trkpt lat="43.6705" lon="3.89916">
        <ele>96</ele>
        <time>2020-06-06T15:19:25.000Z</time>
      </trkpt>
      <trkpt lat="43.6705" lon="3.89911">
        <ele>96</ele>
        <time>2020-06-06T15:19:26.000Z</time>
      </trkpt>
      <trkpt lat="43.6705" lon="3.89905">
        <ele>96</ele>
        <time>2020-06-06T15:19:27.000Z</time>
      </trkpt>
      <trkpt lat="43.67051" lon="3.899">
        <ele>96</ele>
        <time>2020-06-06T15:19:28.000Z</time>
      </trkpt>
      <trkpt lat="43.67051" lon="3.89894">
        <ele>96</ele>
        <time>2020-06-06T15:19:29.000Z</time>
      </trkpt>
      <trkpt lat="43.67052" lon="3.89889">
        <ele>96</ele>
        <time>2020-06-06T15:19:30.000Z</time>
      </trkpt>
      <trkpt lat="43.67052" lon="3.89885">
        <ele>96</ele>
        <time>2020-06-06T15:19:31.000Z</time>
      </trkpt>
      <trkpt lat="43.67053" lon="3.8988">
        <ele>96</ele>
        <time>2020-06-06T15:19:32.000Z</time>
      </trkpt>
      <trkpt lat="43.67053" lon="3.89876">
        <ele>96</ele>
        <time>2020-06-06T15:19:33.000Z</time>
      </trkpt>
      <trkpt lat="43.67053" lon="3.89871">
        <ele>96</ele>
        <time>2020-06-06T15:19:34.000Z</time>
      </trkpt>
      <trkpt lat="43.67053" lon="3.89867">
        <ele>96</ele>
        <time>2020-06-06T15:19:35.000Z</time>
      </trkpt>
      <trkpt lat="43.67053" lon="3.89863">
        <ele>96</ele>
        <time>2020-06-06T15:19:36.000Z</time>
      </trkpt>
      <trkpt lat="43.67052" lon="3.89858">
        <ele>96</ele>
        <time>2020-06-06T15:19:37.000Z</time>
      </trkpt>
      <trkpt lat="43.67051" lon="3.89853">
        <ele>96</ele>
        <time>2020-06-06T15:19:38.000Z</time>
      </trkpt>
      <trkpt lat="43.6705" lon="3.89847">
        <ele>96</ele>
        <time>2020-06-06T15:19:39.000Z</time>
      </trkpt>
      <trkpt lat="43.67049" lon="3.89841">
        <ele>96</ele>
        <time>2020-06-06T15:19:40.000Z</time>
      </trkpt>
      <trkpt lat="43.67048" lon="3.89836">
        <ele>96</ele>
        <time>2020-06-06T15:19:41.000Z</time>
      </trkpt>
      <trkpt lat="43.67048" lon="3.89831">
        <ele>96</ele>
        <time>2020-06-06T15:19:42.000Z</time>
      </trkpt>
      <trkpt lat="43.67047" lon="3.89826">
        <ele>96</ele>
        <time>2020-06-06T15:19:43.000Z</time>
      </trkpt>
      <trkpt lat="43.67046" lon="3.89821">
        <ele>96</ele>
        <time>2020-06-06T15:19:44.000Z</time>
      </trkpt>
      <trkpt lat="43.67045" lon="3.89817">
        <ele>96</ele>
        <time>2020-06-06T15:19:45.000Z</time>
      </trkpt>
      <trkpt lat="43.67045" lon="3.89812">
        <ele>96</ele>
        <time>2020-06-06T15:19:46.000Z</time>
      </trkpt>
      <trkpt lat="43.67044" lon="3.89807">
        <ele>96</ele>
        <time>2020-06-06T15:19:47.000Z</time>
      </trkpt>
      <trkpt lat="43.67044" lon="3.89802">
        <ele>96</ele>
        <time>2020-06-06T15:19:48.000Z</time>
      </trkpt>
      <trkpt lat="43.67043" lon="3.89798">
        <ele>96</ele>
        <time>2020-06-06T15:19:49.000Z</time>
      </trkpt>
      <trkpt lat="43.67043" lon="3.89794">
        <ele>96.01100032</ele>
        <time>2020-06-06T15:19:50.000Z</time>
      </trkpt>
      <trkpt lat="43.67042" lon="3.89789">
        <ele>96.11100032</ele>
        <time>2020-06-06T15:19:51.000Z</time>
      </trkpt>
      <trkpt lat="43.67042" lon="3.89784">
        <ele>96.21100032</ele>
        <time>2020-06-06T15:19:52.000Z</time>
      </trkpt>
      <trkpt lat="43.67041" lon="3.89778">
        <ele>96.31100032</ele>
        <time>2020-06-06T15:19:53.000Z</time>
      </trkpt>
      <trkpt lat="43.67041" lon="3.89772">
        <ele>96.41100032</ele>
        <time>2020-06-06T15:19:54.000Z</time>
      </trkpt>
      <trkpt lat="43.6704" lon="3.89767">
        <ele>96.51100032</ele>
        <time>2020-06-06T15:19:55.000Z</time>
      </trkpt>
      <trkpt lat="43.67039" lon="3.89762">
        <ele>96.61100032</ele>
        <time>2020-06-06T15:19:56.000Z</time>
      </trkpt>
      <trkpt lat="43.67039" lon="3.89756">
        <ele>96.71100032</ele>
        <time>2020-06-06T15:19:57.000Z</time>
      </trkpt>
      <trkpt lat="43.67039" lon="3.89751">
        <ele>96.81100032</ele>
        <time>2020-06-06T15:19:58.000Z</time>
      </trkpt>
      <trkpt lat="43.67039" lon="3.89746">
        <ele>96.91100032</ele>
        <time>2020-06-06T15:19:59.000Z</time>
      </trkpt>
      <trkpt lat="43.67039" lon="3.89742">
        <ele>97</ele>
        <time>2020-06-06T15:20:00.000Z</time>
      </trkpt>
      <trkpt lat="43.67039" lon="3.89738">
        <ele>97</ele>
        <time>2020-06-06T15:20:01.000Z</time>
      </trkpt>
      <trkpt lat="43.67039" lon="3.89734">
        <ele>97</ele>
        <time>2020-06-06T15:20:02.000Z</time>
      </trkpt>
      <trkpt lat="43.67039" lon="3.8973">
        <ele>97</ele>
        <time>2020-06-06T15:20:03.000Z</time>
      </trkpt>
      <trkpt lat="43.6704" lon="3.89727">
        <ele>97</ele>
        <time>2020-06-06T15:20:04.000Z</time>
      </trkpt>
      <trkpt lat="43.67041" lon="3.89724">
        <ele>97</ele>
        <time>2020-06-06T15:20:05.000Z</time>
      </trkpt>
      <trkpt lat="43.67041" lon="3.89721">
        <ele>97</ele>
        <time>2020-06-06T15:20:06.000Z</time>
      </trkpt>
      <trkpt lat="43.6704" lon="3.89716">
        <ele>97</ele>
        <time>2020-06-06T15:20:08.000Z</time>
      </trkpt>
      <trkpt lat="43.6704" lon="3.89713">
        <ele>97</ele>
        <time>2020-06-06T15:20:09.000Z</time>
      </trkpt>
      <trkpt lat="43.6704" lon="3.89709">
        <ele>97.01100032</ele>
        <time>2020-06-06T15:20:10.000Z</time>
      </trkpt>
      <trkpt lat="43.67039" lon="3.89705">
        <ele>97.11100032</ele>
        <time>2020-06-06T15:20:11.000Z</time>
      </trkpt>
      <trkpt lat="43.67039" lon="3.897">
        <ele>97.21100032</ele>
        <time>2020-06-06T15:20:12.000Z</time>
      </trkpt>
      <trkpt lat="43.67038" lon="3.89696">
        <ele>97.31100032</ele>
        <time>2020-06-06T15:20:13.000Z</time>
      </trkpt>
      <trkpt lat="43.67038" lon="3.89692">
        <ele>97.41100032</ele>
        <time>2020-06-06T15:20:14.000Z</time>
      </trkpt>
      <trkpt lat="43.67038" lon="3.89687">
        <ele>97.51100032</ele>
        <time>2020-06-06T15:20:15.000Z</time>
      </trkpt>
      <trkpt lat="43.67037" lon="3.89683">
        <ele>97.61100032</ele>
        <time>2020-06-06T15:20:16.000Z</time>
      </trkpt>
      <trkpt lat="43.67038" lon="3.89679">
        <ele>97.71100032</ele>
        <time>2020-06-06T15:20:17.000Z</time>
      </trkpt>
      <trkpt lat="43.67037" lon="3.89675">
        <ele>97.81100032</ele>
        <time>2020-06-06T15:20:18.000Z</time>
      </trkpt>
      <trkpt lat="43.67037" lon="3.89671">
        <ele>97.91100032</ele>
        <time>2020-06-06T15:20:19.000Z</time>
      </trkpt>
      <trkpt lat="43.67037" lon="3.89667">
        <ele>98.010732009461</ele>
        <time>2020-06-06T15:20:20.000Z</time>
      </trkpt>
      <trkpt lat="43.67036" lon="3.89664">
        <ele>98.108292893696</ele>
        <time>2020-06-06T15:20:21.000Z</time>
      </trkpt>
      <trkpt lat="43.67036" lon="3.89659">
        <ele>98.205853777932</ele>
        <time>2020-06-06T15:20:22.000Z</time>
      </trkpt>
      <trkpt lat="43.67036" lon="3.89655">
        <ele>98.303414662168</ele>
        <time>2020-06-06T15:20:23.000Z</time>
      </trkpt>
      <trkpt lat="43.67035" lon="3.8965">
        <ele>98.400975546403</ele>
        <time>2020-06-06T15:20:24.000Z</time>
      </trkpt>
      <trkpt lat="43.67035" lon="3.89646">
        <ele>98.498536430639</ele>
        <time>2020-06-06T15:20:25.000Z</time>
      </trkpt>
      <trkpt lat="43.67035" lon="3.89641">
        <ele>98.596097314875</ele>
        <time>2020-06-06T15:20:26.000Z</time>
      </trkpt>
      <trkpt lat="43.67036" lon="3.89636">
        <ele>98.69365819911</ele>
        <time>2020-06-06T15:20:27.000Z</time>
      </trkpt>
      <trkpt lat="43.67036" lon="3.89631">
        <ele>98.791219083346</ele>
        <time>2020-06-06T15:20:28.000Z</time>
      </trkpt>
      <trkpt lat="43.67037" lon="3.89627">
        <ele>98.888779967582</ele>
        <time>2020-06-06T15:20:29.000Z</time>
      </trkpt>
      <trkpt lat="43.67036" lon="3.89622">
        <ele>98.986340851817</ele>
        <time>2020-06-06T15:20:30.000Z</time>
      </trkpt>
      <trkpt lat="43.67036" lon="3.89617">
        <ele>99</ele>
        <time>2020-06-06T15:20:31.000Z</time>
      </trkpt>
      <trkpt lat="43.67035" lon="3.89613">
        <ele>99</ele>
        <time>2020-06-06T15:20:32.000Z</time>
      </trkpt>
      <trkpt lat="43.67035" lon="3.89609">
        <ele>99</ele>
        <time>2020-06-06T15:20:33.000Z</time>
      </trkpt>
      <trkpt lat="43.67034" lon="3.89604">
        <ele>99</ele>
        <time>2020-06-06T15:20:34.000Z</time>
      </trkpt>
      <trkpt lat="43.67032" lon="3.896">
        <ele>99</ele>
        <time>2020-06-06T15:20:35.000Z</time>
      </trkpt>
      <trkpt lat="43.67032" lon="3.89595">
        <ele>99</ele>
        <time>2020-06-06T15:20:36.000Z</time>
      </trkpt>
      <trkpt lat="43.67031" lon="3.89591">
        <ele>99</ele>
        <time>2020-06-06T15:20:37.000Z</time>
      </trkpt>
      <trkpt lat="43.6703" lon="3.89586">
        <ele>99</ele>
        <time>2020-06-06T15:20:38.000Z</time>
      </trkpt>
      <trkpt lat="43.6703" lon="3.89581">
        <ele>99</ele>
        <time>2020-06-06T15:20:39.000Z</time>
      </trkpt>
      <trkpt lat="43.67029" lon="3.89577">
        <ele>99.01100032</ele>
        <time>2020-06-06T15:20:40.000Z</time>
      </trkpt>
      <trkpt lat="43.67029" lon="3.89572">
        <ele>99.11100032</ele>
        <time>2020-06-06T15:20:41.000Z</time>
      </trkpt>
      <trkpt lat="43.67029" lon="3.89568">
        <ele>99.21100032</ele>
        <time>2020-06-06T15:20:42.000Z</time>
      </trkpt>
      <trkpt lat="43.67029" lon="3.89563">
        <ele>99.31100032</ele>
        <time>2020-06-06T15:20:43.000Z</time>
      </trkpt>
      <trkpt lat="43.67029" lon="3.89558">
        <ele>99.41100032</ele>
        <time>2020-06-06T15:20:44.000Z</time>
      </trkpt>
      <trkpt lat="43.6703" lon="3.89553">
        <ele>99.51100032</ele>
        <time>2020-06-06T15:20:45.000Z</time>
      </trkpt>
      <trkpt lat="43.67031" lon="3.89549">
        <ele>99.61100032</ele>
        <time>2020-06-06T15:20:46.000Z</time>
      </trkpt>
      <trkpt lat="43.67031" lon="3.89544">
        <ele>99.71100032</ele>
        <time>2020-06-06T15:20:47.000Z</time>
      </trkpt>
      <trkpt lat="43.67032" lon="3.8954">
        <ele>99.81100032</ele>
        <time>2020-06-06T15:20:48.000Z</time>
      </trkpt>
      <trkpt lat="43.67033" lon="3.89536">
        <ele>99.91100032</ele>
        <time>2020-06-06T15:20:49.000Z</time>
      </trkpt>
      <trkpt lat="43.67034" lon="3.89531">
        <ele>100.01100032</ele>
        <time>2020-06-06T15:20:50.000Z</time>
      </trkpt>
      <trkpt lat="43.67034" lon="3.89527">
        <ele>100.11100032</ele>
        <time>2020-06-06T15:20:51.000Z</time>
      </trkpt>
      <trkpt lat="43.67035" lon="3.89522">
        <ele>100.21100032</ele>
        <time>2020-06-06T15:20:52.000Z</time>
      </trkpt>
      <trkpt lat="43.67035" lon="3.89518">
        <ele>100.31100032</ele>
        <time>2020-06-06T15:20:53.000Z</time>
      </trkpt>
      <trkpt lat="43.67035" lon="3.89513">
        <ele>100.41100032</ele>
        <time>2020-06-06T15:20:54.000Z</time>
      </trkpt>
      <trkpt lat="43.67036" lon="3.89509">
        <ele>100.51100032</ele>
        <time>2020-06-06T15:20:55.000Z</time>
      </trkpt>
      <trkpt lat="43.67036" lon="3.89504">
        <ele>100.61100032</ele>
        <time>2020-06-06T15:20:56.000Z</time>
      </trkpt>
      <trkpt lat="43.67037" lon="3.895">
        <ele>100.71100032</ele>
        <time>2020-06-06T15:20:57.000Z</time>
      </trkpt>
      <trkpt lat="43.67037" lon="3.89496">
        <ele>100.81100032</ele>
        <time>2020-06-06T15:20:58.000Z</time>
      </trkpt>
      <trkpt lat="43.67036" lon="3.89491">
        <ele>100.91100032</ele>
        <time>2020-06-06T15:20:59.000Z</time>
      </trkpt>
      <trkpt lat="43.67036" lon="3.89486">
        <ele>101.01070070039</ele>
        <time>2020-06-06T15:21:00.000Z</time>
      </trkpt>
      <trkpt lat="43.67036" lon="3.89482">
        <ele>101.10797696498</ele>
        <time>2020-06-06T15:21:01.000Z</time>
      </trkpt>
      <trkpt lat="43.67036" lon="3.89477">
        <ele>101.20525322957</ele>
        <time>2020-06-06T15:21:02.000Z</time>
      </trkpt>
      <trkpt lat="43.67035" lon="3.89473">
        <ele>101.30252949416</ele>
        <time>2020-06-06T15:21:03.000Z</time>
      </trkpt>
      <trkpt lat="43.67035" lon="3.89468">
        <ele>101.39980575875</ele>
        <time>2020-06-06T15:21:04.000Z</time>
      </trkpt>
      <trkpt lat="43.67035" lon="3.89463">
        <ele>101.49708202335</ele>
        <time>2020-06-06T15:21:05.000Z</time>
      </trkpt>
      <trkpt lat="43.67035" lon="3.89458">
        <ele>101.59435828794</ele>
        <time>2020-06-06T15:21:06.000Z</time>
      </trkpt>
      <trkpt lat="43.67035" lon="3.89453">
        <ele>101.69163455253</ele>
        <time>2020-06-06T15:21:07.000Z</time>
      </trkpt>
      <trkpt lat="43.67036" lon="3.89448">
        <ele>101.78891081712</ele>
        <time>2020-06-06T15:21:08.000Z</time>
      </trkpt>
      <trkpt lat="43.67036" lon="3.89443">
        <ele>101.88618708171</ele>
        <time>2020-06-06T15:21:09.000Z</time>
      </trkpt>
      <trkpt lat="43.67036" lon="3.89439">
        <ele>101.9834633463</ele>
        <time>2020-06-06T15:21:10.000Z</time>
      </trkpt>
      <trkpt lat="43.67036" lon="3.89436">
        <ele>102.08539127572</ele>
        <time>2020-06-06T15:21:11.000Z</time>
      </trkpt>
      <trkpt lat="43.67036" lon="3.89432">
        <ele>102.18827193416</ele>
        <time>2020-06-06T15:21:12.000Z</time>
      </trkpt>
      <trkpt lat="43.67036" lon="3.89429">
        <ele>102.29115259259</ele>
        <time>2020-06-06T15:21:13.000Z</time>
      </trkpt>
      <trkpt lat="43.67035" lon="3.89425">
        <ele>102.39403325103</ele>
        <time>2020-06-06T15:21:14.000Z</time>
      </trkpt>
      <trkpt lat="43.67035" lon="3.89421">
        <ele>102.49691390946</ele>
        <time>2020-06-06T15:21:15.000Z</time>
      </trkpt>
      <trkpt lat="43.67034" lon="3.89416">
        <ele>102.5997945679</ele>
        <time>2020-06-06T15:21:16.000Z</time>
      </trkpt>
      <trkpt lat="43.67033" lon="3.89412">
        <ele>102.70267522634</ele>
        <time>2020-06-06T15:21:17.000Z</time>
      </trkpt>
      <trkpt lat="43.67033" lon="3.89407">
        <ele>102.80555588477</ele>
        <time>2020-06-06T15:21:18.000Z</time>
      </trkpt>
      <trkpt lat="43.67032" lon="3.89403">
        <ele>102.90843654321</ele>
        <time>2020-06-06T15:21:19.000Z</time>
      </trkpt>
      <trkpt lat="43.67032" lon="3.89398">
        <ele>103.01100032</ele>
        <time>2020-06-06T15:21:20.000Z</time>
      </trkpt>
      <trkpt lat="43.67032" lon="3.89394">
        <ele>103.11100032</ele>
        <time>2020-06-06T15:21:21.000Z</time>
      </trkpt>
      <trkpt lat="43.67031" lon="3.89389">
        <ele>103.21100032</ele>
        <time>2020-06-06T15:21:22.000Z</time>
      </trkpt>
      <trkpt lat="43.67031" lon="3.89385">
        <ele>103.31100032</ele>
        <time>2020-06-06T15:21:23.000Z</time>
      </trkpt>
      <trkpt lat="43.6703" lon="3.89381">
        <ele>103.41100032</ele>
        <time>2020-06-06T15:21:24.000Z</time>
      </trkpt>
      <trkpt lat="43.6703" lon="3.89378">
        <ele>103.51100032</ele>
        <time>2020-06-06T15:21:25.000Z</time>
      </trkpt>
      <trkpt lat="43.6703" lon="3.89374">
        <ele>103.61100032</ele>
        <time>2020-06-06T15:21:26.000Z</time>
      </trkpt>
      <trkpt lat="43.67029" lon="3.8937">
        <ele>103.71100032</ele>
        <time>2020-06-06T15:21:27.000Z</time>
      </trkpt>
      <trkpt lat="43.67028" lon="3.89366">
        <ele>103.81100032</ele>
        <time>2020-06-06T15:21:28.000Z</time>
      </trkpt>
      <trkpt lat="43.67028" lon="3.89362">
        <ele>103.91100032</ele>
        <time>2020-06-06T15:21:29.000Z</time>
      </trkpt>
      <trkpt lat="43.67028" lon="3.89357">
        <ele>104.01100032</ele>
        <time>2020-06-06T15:21:30.000Z</time>
      </trkpt>
      <trkpt lat="43.67027" lon="3.89352">
        <ele>104.11100032</ele>
        <time>2020-06-06T15:21:31.000Z</time>
      </trkpt>
      <trkpt lat="43.67027" lon="3.89348">
        <ele>104.21100032</ele>
        <time>2020-06-06T15:21:32.000Z</time>
      </trkpt>
      <trkpt lat="43.67027" lon="3.89345">
        <ele>104.31100032</ele>
        <time>2020-06-06T15:21:33.000Z</time>
      </trkpt>
      <trkpt lat="43.67026" lon="3.8934">
        <ele>104.41100032</ele>
        <time>2020-06-06T15:21:34.000Z</time>
      </trkpt>
      <trkpt lat="43.67026" lon="3.89335">
        <ele>104.51100032</ele>
        <time>2020-06-06T15:21:35.000Z</time>
      </trkpt>
      <trkpt lat="43.67025" lon="3.8933">
        <ele>104.61100032</ele>
        <time>2020-06-06T15:21:36.000Z</time>
      </trkpt>
      <trkpt lat="43.67025" lon="3.89326">
        <ele>104.71100032</ele>
        <time>2020-06-06T15:21:37.000Z</time>
      </trkpt>
      <trkpt lat="43.67024" lon="3.89321">
        <ele>104.81100032</ele>
        <time>2020-06-06T15:21:38.000Z</time>
      </trkpt>
      <trkpt lat="43.67024" lon="3.89316">
        <ele>104.91100032</ele>
        <time>2020-06-06T15:21:39.000Z</time>
      </trkpt>
      <trkpt lat="43.67024" lon="3.89311">
        <ele>105.02200064</ele>
        <time>2020-06-06T15:21:40.000Z</time>
      </trkpt>
      <trkpt lat="43.67024" lon="3.89306">
        <ele>105.22200064</ele>
        <time>2020-06-06T15:21:41.000Z</time>
      </trkpt>
      <trkpt lat="43.67023" lon="3.89302">
        <ele>105.42200064</ele>
        <time>2020-06-06T15:21:42.000Z</time>
      </trkpt>
      <trkpt lat="43.67023" lon="3.89298">
        <ele>105.62200064</ele>
        <time>2020-06-06T15:21:43.000Z</time>
      </trkpt>
      <trkpt lat="43.67022" lon="3.89294">
        <ele>105.82200064</ele>
        <time>2020-06-06T15:21:44.000Z</time>
      </trkpt>
      <trkpt lat="43.67022" lon="3.8929">
        <ele>106.02200064</ele>
        <time>2020-06-06T15:21:45.000Z</time>
      </trkpt>
      <trkpt lat="43.67021" lon="3.89285">
        <ele>106.22200064</ele>
        <time>2020-06-06T15:21:46.000Z</time>
      </trkpt>
      <trkpt lat="43.67021" lon="3.89281">
        <ele>106.42200064</ele>
        <time>2020-06-06T15:21:47.000Z</time>
      </trkpt>
      <trkpt lat="43.67021" lon="3.89277">
        <ele>106.62200064</ele>
        <time>2020-06-06T15:21:48.000Z</time>
      </trkpt>
      <trkpt lat="43.67021" lon="3.89273">
        <ele>106.82200064</ele>
        <time>2020-06-06T15:21:49.000Z</time>
      </trkpt>
      <trkpt lat="43.6702" lon="3.89269">
        <ele>107.01100032</ele>
        <time>2020-06-06T15:21:50.000Z</time>
      </trkpt>
      <trkpt lat="43.6702" lon="3.89265">
        <ele>107.11100032</ele>
        <time>2020-06-06T15:21:51.000Z</time>
      </trkpt>
      <trkpt lat="43.67019" lon="3.89262">
        <ele>107.21100032</ele>
        <time>2020-06-06T15:21:52.000Z</time>
      </trkpt>
      <trkpt lat="43.67018" lon="3.89258">
        <ele>107.31100032</ele>
        <time>2020-06-06T15:21:53.000Z</time>
      </trkpt>
      <trkpt lat="43.67018" lon="3.89254">
        <ele>107.41100032</ele>
        <time>2020-06-06T15:21:54.000Z</time>
      </trkpt>
      <trkpt lat="43.67017" lon="3.8925">
        <ele>107.51100032</ele>
        <time>2020-06-06T15:21:55.000Z</time>
      </trkpt>
      <trkpt lat="43.67017" lon="3.89246">
        <ele>107.61100032</ele>
        <time>2020-06-06T15:21:56.000Z</time>
      </trkpt>
      <trkpt lat="43.67017" lon="3.89243">
        <ele>107.71100032</ele>
        <time>2020-06-06T15:21:57.000Z</time>
      </trkpt>
      <trkpt lat="43.67016" lon="3.89239">
        <ele>107.81100032</ele>
        <time>2020-06-06T15:21:58.000Z</time>
      </trkpt>
      <trkpt lat="43.67015" lon="3.89236">
        <ele>107.91100032</ele>
        <time>2020-06-06T15:21:59.000Z</time>
      </trkpt>
      <trkpt lat="43.67016" lon="3.89233">
        <ele>108.01100032</ele>
        <time>2020-06-06T15:22:00.000Z</time>
      </trkpt>
      <trkpt lat="43.67016" lon="3.89229">
        <ele>108.11100032</ele>
        <time>2020-06-06T15:22:01.000Z</time>
      </trkpt>
      <trkpt lat="43.67018" lon="3.89226">
        <ele>108.21100032</ele>
        <time>2020-06-06T15:22:02.000Z</time>
      </trkpt>
      <trkpt lat="43.6702" lon="3.89224">
        <ele>108.31100032</ele>
        <time>2020-06-06T15:22:03.000Z</time>
      </trkpt>
      <trkpt lat="43.67023" lon="3.89222">
        <ele>108.41100032</ele>
        <time>2020-06-06T15:22:04.000Z</time>
      </trkpt>
      <trkpt lat="43.67025" lon="3.8922">
        <ele>108.51100032</ele>
        <time>2020-06-06T15:22:05.000Z</time>
      </trkpt>
      <trkpt lat="43.67026" lon="3.89219">
        <ele>108.61100032</ele>
        <time>2020-06-06T15:22:06.000Z</time>
      </trkpt>
      <trkpt lat="43.67029" lon="3.89216">
        <ele>108.81100032</ele>
        <time>2020-06-06T15:22:08.000Z</time>
      </trkpt>
      <trkpt lat="43.67032" lon="3.89214">
        <ele>108.91100032</ele>
        <time>2020-06-06T15:22:09.000Z</time>
      </trkpt>
      <trkpt lat="43.67034" lon="3.89214">
        <ele>108.98899968</ele>
        <time>2020-06-06T15:22:10.000Z</time>
      </trkpt>
      <trkpt lat="43.67036" lon="3.89213">
        <ele>108.88899968</ele>
        <time>2020-06-06T15:22:11.000Z</time>
      </trkpt>
      <trkpt lat="43.67038" lon="3.89212">
        <ele>108.78899968</ele>
        <time>2020-06-06T15:22:12.000Z</time>
      </trkpt>
      <trkpt lat="43.6704" lon="3.8921">
        <ele>108.68899968</ele>
        <time>2020-06-06T15:22:13.000Z</time>
      </trkpt>
      <trkpt lat="43.67042" lon="3.89208">
        <ele>108.58899968</ele>
        <time>2020-06-06T15:22:14.000Z</time>
      </trkpt>
      <trkpt lat="43.67043" lon="3.89205">
        <ele>108.48899968</ele>
        <time>2020-06-06T15:22:15.000Z</time>
      </trkpt>
      <trkpt lat="43.67043" lon="3.89202">
        <ele>108.38899968</ele>
        <time>2020-06-06T15:22:16.000Z</time>
      </trkpt>
      <trkpt lat="43.67043" lon="3.89199">
        <ele>108.28899968</ele>
        <time>2020-06-06T15:22:17.000Z</time>
      </trkpt>
      <trkpt lat="43.67042" lon="3.89196">
        <ele>108.18899968</ele>
        <time>2020-06-06T15:22:18.000Z</time>
      </trkpt>
      <trkpt lat="43.67042" lon="3.89193">
        <ele>108.08899968</ele>
        <time>2020-06-06T15:22:19.000Z</time>
      </trkpt>
      <trkpt lat="43.67041" lon="3.89189">
        <ele>108.01070070039</ele>
        <time>2020-06-06T15:22:20.000Z</time>
      </trkpt>
      <trkpt lat="43.67041" lon="3.89186">
        <ele>108.10797696498</ele>
        <time>2020-06-06T15:22:21.000Z</time>
      </trkpt>
      <trkpt lat="43.6704" lon="3.89183">
        <ele>108.20525322957</ele>
        <time>2020-06-06T15:22:22.000Z</time>
      </trkpt>
      <trkpt lat="43.6704" lon="3.8918">
        <ele>108.30252949416</ele>
        <time>2020-06-06T15:22:23.000Z</time>
      </trkpt>
      <trkpt lat="43.6704" lon="3.89177">
        <ele>108.39980575875</ele>
        <time>2020-06-06T15:22:24.000Z</time>
      </trkpt>
      <trkpt lat="43.67039" lon="3.89174">
        <ele>108.49708202335</ele>
        <time>2020-06-06T15:22:25.000Z</time>
      </trkpt>
      <trkpt lat="43.67039" lon="3.89171">
        <ele>108.59435828794</ele>
        <time>2020-06-06T15:22:26.000Z</time>
      </trkpt>
      <trkpt lat="43.67039" lon="3.89167">
        <ele>108.69163455253</ele>
        <time>2020-06-06T15:22:27.000Z</time>
      </trkpt>
      <trkpt lat="43.67038" lon="3.89164">
        <ele>108.78891081712</ele>
        <time>2020-06-06T15:22:28.000Z</time>
      </trkpt>
      <trkpt lat="43.67038" lon="3.89161">
        <ele>108.88618708171</ele>
        <time>2020-06-06T15:22:29.000Z</time>
      </trkpt>
      <trkpt lat="43.67038" lon="3.89158">
        <ele>108.9834633463</ele>
        <time>2020-06-06T15:22:30.000Z</time>
      </trkpt>
      <trkpt lat="43.67037" lon="3.89155">
        <ele>109.08539127572</ele>
        <time>2020-06-06T15:22:31.000Z</time>
      </trkpt>
      <trkpt lat="43.67037" lon="3.89152">
        <ele>109.18827193416</ele>
        <time>2020-06-06T15:22:32.000Z</time>
      </trkpt>
      <trkpt lat="43.67037" lon="3.89149">
        <ele>109.29115259259</ele>
        <time>2020-06-06T15:22:33.000Z</time>
      </trkpt>
      <trkpt lat="43.67036" lon="3.89146">
        <ele>109.39403325103</ele>
        <time>2020-06-06T15:22:34.000Z</time>
      </trkpt>
      <trkpt lat="43.67035" lon="3.89143">
        <ele>109.49691390946</ele>
        <time>2020-06-06T15:22:35.000Z</time>
      </trkpt>
      <trkpt lat="43.67035" lon="3.8914">
        <ele>109.5997945679</ele>
        <time>2020-06-06T15:22:36.000Z</time>
      </trkpt>
      <trkpt lat="43.67034" lon="3.89137">
        <ele>109.70267522634</ele>
        <time>2020-06-06T15:22:37.000Z</time>
      </trkpt>
      <trkpt lat="43.67034" lon="3.89134">
        <ele>109.80555588477</ele>
        <time>2020-06-06T15:22:38.000Z</time>
      </trkpt>
      <trkpt lat="43.67034" lon="3.89131">
        <ele>109.90843654321</ele>
        <time>2020-06-06T15:22:39.000Z</time>
      </trkpt>
      <trkpt lat="43.67034" lon="3.89128">
        <ele>110</ele>
        <time>2020-06-06T15:22:40.000Z</time>
      </trkpt>
      <trkpt lat="43.67034" lon="3.89125">
        <ele>110</ele>
        <time>2020-06-06T15:22:41.000Z</time>
      </trkpt>
      <trkpt lat="43.67034" lon="3.89122">
        <ele>110</ele>
        <time>2020-06-06T15:22:42.000Z</time>
      </trkpt>
      <trkpt lat="43.67033" lon="3.89118">
        <ele>110</ele>
        <time>2020-06-06T15:22:43.000Z</time>
      </trkpt>
      <trkpt lat="43.67033" lon="3.89115">
        <ele>110</ele>
        <time>2020-06-06T15:22:44.000Z</time>
      </trkpt>
      <trkpt lat="43.67033" lon="3.89112">
        <ele>110</ele>
        <time>2020-06-06T15:22:45.000Z</time>
      </trkpt>
      <trkpt lat="43.67032" lon="3.89109">
        <ele>110</ele>
        <time>2020-06-06T15:22:46.000Z</time>
      </trkpt>
      <trkpt lat="43.67032" lon="3.89106">
        <ele>110</ele>
        <time>2020-06-06T15:22:47.000Z</time>
      </trkpt>
      <trkpt lat="43.67031" lon="3.89103">
        <ele>110</ele>
        <time>2020-06-06T15:22:48.000Z</time>
      </trkpt>
      <trkpt lat="43.67031" lon="3.891">
        <ele>110</ele>
        <time>2020-06-06T15:22:49.000Z</time>
      </trkpt>
      <trkpt lat="43.6703" lon="3.89097">
        <ele>110</ele>
        <time>2020-06-06T15:22:50.000Z</time>
      </trkpt>
      <trkpt lat="43.67029" lon="3.89093">
        <ele>110.08811409836</ele>
        <time>2020-06-06T15:22:51.000Z</time>
      </trkpt>
      <trkpt lat="43.67029" lon="3.8909">
        <ele>110.19057311475</ele>
        <time>2020-06-06T15:22:52.000Z</time>
      </trkpt>
      <trkpt lat="43.67028" lon="3.89087">
        <ele>110.29303213115</ele>
        <time>2020-06-06T15:22:53.000Z</time>
      </trkpt>
      <trkpt lat="43.67028" lon="3.89084">
        <ele>110.39549114754</ele>
        <time>2020-06-06T15:22:54.000Z</time>
      </trkpt>
      <trkpt lat="43.67027" lon="3.89081">
        <ele>110.49795016393</ele>
        <time>2020-06-06T15:22:55.000Z</time>
      </trkpt>
      <trkpt lat="43.67027" lon="3.89078">
        <ele>110.60040918033</ele>
        <time>2020-06-06T15:22:56.000Z</time>
      </trkpt>
      <trkpt lat="43.67026" lon="3.89075">
        <ele>110.70286819672</ele>
        <time>2020-06-06T15:22:57.000Z</time>
      </trkpt>
      <trkpt lat="43.67026" lon="3.89072">
        <ele>110.80532721312</ele>
        <time>2020-06-06T15:22:58.000Z</time>
      </trkpt>
      <trkpt lat="43.67025" lon="3.89069">
        <ele>110.90778622951</ele>
        <time>2020-06-06T15:22:59.000Z</time>
      </trkpt>
      <trkpt lat="43.67024" lon="3.89066">
        <ele>111.02001875798</ele>
        <time>2020-06-06T15:23:00.000Z</time>
      </trkpt>
      <trkpt lat="43.67023" lon="3.89062">
        <ele>111.22021915056</ele>
        <time>2020-06-06T15:23:01.000Z</time>
      </trkpt>
      <trkpt lat="43.67023" lon="3.89059">
        <ele>111.42041954315</ele>
        <time>2020-06-06T15:23:02.000Z</time>
      </trkpt>
      <trkpt lat="43.67022" lon="3.89055">
        <ele>111.62061993573</ele>
        <time>2020-06-06T15:23:03.000Z</time>
      </trkpt>
      <trkpt lat="43.67021" lon="3.89052">
        <ele>111.82082032832</ele>
        <time>2020-06-06T15:23:04.000Z</time>
      </trkpt>
      <trkpt lat="43.6702" lon="3.89049">
        <ele>112.0210207209</ele>
        <time>2020-06-06T15:23:05.000Z</time>
      </trkpt>
      <trkpt lat="43.6702" lon="3.89045">
        <ele>112.22122111349</ele>
        <time>2020-06-06T15:23:06.000Z</time>
      </trkpt>
      <trkpt lat="43.67019" lon="3.89042">
        <ele>112.42142150607</ele>
        <time>2020-06-06T15:23:07.000Z</time>
      </trkpt>
      <trkpt lat="43.67019" lon="3.89039">
        <ele>112.62162189866</ele>
        <time>2020-06-06T15:23:08.000Z</time>
      </trkpt>
      <trkpt lat="43.67019" lon="3.89035">
        <ele>112.82182229124</ele>
        <time>2020-06-06T15:23:09.000Z</time>
      </trkpt>
      <trkpt lat="43.67018" lon="3.89032">
        <ele>113</ele>
        <time>2020-06-06T15:23:10.000Z</time>
      </trkpt>
      <trkpt lat="43.67018" lon="3.89029">
        <ele>113</ele>
        <time>2020-06-06T15:23:11.000Z</time>
      </trkpt>
      <trkpt lat="43.67017" lon="3.89026">
        <ele>113</ele>
        <time>2020-06-06T15:23:12.000Z</time>
      </trkpt>
      <trkpt lat="43.67016" lon="3.89022">
        <ele>113</ele>
        <time>2020-06-06T15:23:13.000Z</time>
      </trkpt>
      <trkpt lat="43.67016" lon="3.89019">
        <ele>113</ele>
        <time>2020-06-06T15:23:14.000Z</time>
      </trkpt>
      <trkpt lat="43.67016" lon="3.89015">
        <ele>113</ele>
        <time>2020-06-06T15:23:15.000Z</time>
      </trkpt>
      <trkpt lat="43.67015" lon="3.89012">
        <ele>113</ele>
        <time>2020-06-06T15:23:16.000Z</time>
      </trkpt>
      <trkpt lat="43.67015" lon="3.89009">
        <ele>113</ele>
        <time>2020-06-06T15:23:17.000Z</time>
      </trkpt>
      <trkpt lat="43.67015" lon="3.89005">
        <ele>113</ele>
        <time>2020-06-06T15:23:18.000Z</time>
      </trkpt>
      <trkpt lat="43.67015" lon="3.89002">
        <ele>113</ele>
        <time>2020-06-06T15:23:19.000Z</time>
      </trkpt>
      <trkpt lat="43.67014" lon="3.88999">
        <ele>113.02200064</ele>
        <time>2020-06-06T15:23:20.000Z</time>
      </trkpt>
      <trkpt lat="43.67014" lon="3.88996">
        <ele>113.22200064</ele>
        <time>2020-06-06T15:23:21.000Z</time>
      </trkpt>
      <trkpt lat="43.67014" lon="3.88993">
        <ele>113.42200064</ele>
        <time>2020-06-06T15:23:22.000Z</time>
      </trkpt>
      <trkpt lat="43.67014" lon="3.8899">
        <ele>113.62200064</ele>
        <time>2020-06-06T15:23:23.000Z</time>
      </trkpt>
      <trkpt lat="43.67014" lon="3.88987">
        <ele>113.82200064</ele>
        <time>2020-06-06T15:23:24.000Z</time>
      </trkpt>
      <trkpt lat="43.67015" lon="3.88984">
        <ele>114.02200064</ele>
        <time>2020-06-06T15:23:25.000Z</time>
      </trkpt>
      <trkpt lat="43.67014" lon="3.8898">
        <ele>114.22200064</ele>
        <time>2020-06-06T15:23:26.000Z</time>
      </trkpt>
      <trkpt lat="43.67014" lon="3.88978">
        <ele>114.42200064</ele>
        <time>2020-06-06T15:23:27.000Z</time>
      </trkpt>
      <trkpt lat="43.67014" lon="3.88975">
        <ele>114.62200064</ele>
        <time>2020-06-06T15:23:28.000Z</time>
      </trkpt>
      <trkpt lat="43.67013" lon="3.88971">
        <ele>114.82200064</ele>
        <time>2020-06-06T15:23:29.000Z</time>
      </trkpt>
      <trkpt lat="43.67013" lon="3.88968">
        <ele>115.01100032</ele>
        <time>2020-06-06T15:23:30.000Z</time>
      </trkpt>
      <trkpt lat="43.67013" lon="3.88965">
        <ele>115.11100032</ele>
        <time>2020-06-06T15:23:31.000Z</time>
      </trkpt>
      <trkpt lat="43.67013" lon="3.88962">
        <ele>115.21100032</ele>
        <time>2020-06-06T15:23:32.000Z</time>
      </trkpt>
      <trkpt lat="43.67012" lon="3.88958">
        <ele>115.31100032</ele>
        <time>2020-06-06T15:23:33.000Z</time>
      </trkpt>
      <trkpt lat="43.67011" lon="3.88955">
        <ele>115.41100032</ele>
        <time>2020-06-06T15:23:34.000Z</time>
      </trkpt>
      <trkpt lat="43.67011" lon="3.88952">
        <ele>115.51100032</ele>
        <time>2020-06-06T15:23:35.000Z</time>
      </trkpt>
      <trkpt lat="43.6701" lon="3.8895">
        <ele>115.61100032</ele>
        <time>2020-06-06T15:23:36.000Z</time>
      </trkpt>
      <trkpt lat="43.6701" lon="3.88947">
        <ele>115.71100032</ele>
        <time>2020-06-06T15:23:37.000Z</time>
      </trkpt>
      <trkpt lat="43.67009" lon="3.88942">
        <ele>115.91100032</ele>
        <time>2020-06-06T15:23:39.000Z</time>
      </trkpt>
      <trkpt lat="43.6701" lon="3.88938">
        <ele>116.02200064</ele>
        <time>2020-06-06T15:23:40.000Z</time>
      </trkpt>
      <trkpt lat="43.67009" lon="3.88935">
        <ele>116.22200064</ele>
        <time>2020-06-06T15:23:41.000Z</time>
      </trkpt>
      <trkpt lat="43.67009" lon="3.88932">
        <ele>116.42200064</ele>
        <time>2020-06-06T15:23:42.000Z</time>
      </trkpt>
      <trkpt lat="43.67008" lon="3.88928">
        <ele>116.62200064</ele>
        <time>2020-06-06T15:23:43.000Z</time>
      </trkpt>
      <trkpt lat="43.67008" lon="3.88924">
        <ele>116.82200064</ele>
        <time>2020-06-06T15:23:44.000Z</time>
      </trkpt>
      <trkpt lat="43.67008" lon="3.88921">
        <ele>117.02200064</ele>
        <time>2020-06-06T15:23:45.000Z</time>
      </trkpt>
      <trkpt lat="43.67008" lon="3.88918">
        <ele>117.22200064</ele>
        <time>2020-06-06T15:23:46.000Z</time>
      </trkpt>
      <trkpt lat="43.67007" lon="3.88915">
        <ele>117.42200064</ele>
        <time>2020-06-06T15:23:47.000Z</time>
      </trkpt>
      <trkpt lat="43.67006" lon="3.88912">
        <ele>117.62200064</ele>
        <time>2020-06-06T15:23:48.000Z</time>
      </trkpt>
      <trkpt lat="43.67006" lon="3.88909">
        <ele>117.82200064</ele>
        <time>2020-06-06T15:23:49.000Z</time>
      </trkpt>
      <trkpt lat="43.67006" lon="3.88906">
        <ele>118.01100032</ele>
        <time>2020-06-06T15:23:50.000Z</time>
      </trkpt>
      <trkpt lat="43.67006" lon="3.88903">
        <ele>118.11100032</ele>
        <time>2020-06-06T15:23:51.000Z</time>
      </trkpt>
      <trkpt lat="43.67005" lon="3.88899">
        <ele>118.21100032</ele>
        <time>2020-06-06T15:23:52.000Z</time>
      </trkpt>
      <trkpt lat="43.67004" lon="3.88896">
        <ele>118.31100032</ele>
        <time>2020-06-06T15:23:53.000Z</time>
      </trkpt>
      <trkpt lat="43.67003" lon="3.88893">
        <ele>118.41100032</ele>
        <time>2020-06-06T15:23:54.000Z</time>
      </trkpt>
      <trkpt lat="43.67002" lon="3.88889">
        <ele>118.51100032</ele>
        <time>2020-06-06T15:23:55.000Z</time>
      </trkpt>
      <trkpt lat="43.67002" lon="3.88886">
        <ele>118.61100032</ele>
        <time>2020-06-06T15:23:56.000Z</time>
      </trkpt>
      <trkpt lat="43.67002" lon="3.88882">
        <ele>118.71100032</ele>
        <time>2020-06-06T15:23:57.000Z</time>
      </trkpt>
      <trkpt lat="43.67001" lon="3.88878">
        <ele>118.81100032</ele>
        <time>2020-06-06T15:23:58.000Z</time>
      </trkpt>
      <trkpt lat="43.67001" lon="3.88874">
        <ele>118.91100032</ele>
        <time>2020-06-06T15:23:59.000Z</time>
      </trkpt>
      <trkpt lat="43.67" lon="3.8887">
        <ele>119.01100032</ele>
        <time>2020-06-06T15:24:00.000Z</time>
      </trkpt>
      <trkpt lat="43.67" lon="3.88867">
        <ele>119.11100032</ele>
        <time>2020-06-06T15:24:01.000Z</time>
      </trkpt>
      <trkpt lat="43.67001" lon="3.88863">
        <ele>119.21100032</ele>
        <time>2020-06-06T15:24:02.000Z</time>
      </trkpt>
      <trkpt lat="43.67001" lon="3.88859">
        <ele>119.31100032</ele>
        <time>2020-06-06T15:24:03.000Z</time>
      </trkpt>
      <trkpt lat="43.67" lon="3.88855">
        <ele>119.41100032</ele>
        <time>2020-06-06T15:24:04.000Z</time>
      </trkpt>
      <trkpt lat="43.67" lon="3.88852">
        <ele>119.51100032</ele>
        <time>2020-06-06T15:24:05.000Z</time>
      </trkpt>
      <trkpt lat="43.67001" lon="3.88849">
        <ele>119.61100032</ele>
        <time>2020-06-06T15:24:06.000Z</time>
      </trkpt>
      <trkpt lat="43.67" lon="3.88846">
        <ele>119.71100032</ele>
        <time>2020-06-06T15:24:07.000Z</time>
      </trkpt>
      <trkpt lat="43.67" lon="3.88842">
        <ele>119.81100032</ele>
        <time>2020-06-06T15:24:08.000Z</time>
      </trkpt>
      <trkpt lat="43.67" lon="3.88837">
        <ele>119.91100032</ele>
        <time>2020-06-06T15:24:09.000Z</time>
      </trkpt>
      <trkpt lat="43.67001" lon="3.88833">
        <ele>120</ele>
        <time>2020-06-06T15:24:10.000Z</time>
      </trkpt>
      <trkpt lat="43.67001" lon="3.88828">
        <ele>120</ele>
        <time>2020-06-06T15:24:11.000Z</time>
      </trkpt>
      <trkpt lat="43.67001" lon="3.88823">
        <ele>120</ele>
        <time>2020-06-06T15:24:12.000Z</time>
      </trkpt>
      <trkpt lat="43.67001" lon="3.88818">
        <ele>120</ele>
        <time>2020-06-06T15:24:13.000Z</time>
      </trkpt>
      <trkpt lat="43.67" lon="3.88813">
        <ele>120</ele>
        <time>2020-06-06T15:24:14.000Z</time>
      </trkpt>
      <trkpt lat="43.67001" lon="3.88808">
        <ele>120</ele>
        <time>2020-06-06T15:24:15.000Z</time>
      </trkpt>
      <trkpt lat="43.67001" lon="3.88804">
        <ele>120</ele>
        <time>2020-06-06T15:24:16.000Z</time>
      </trkpt>
      <trkpt lat="43.67001" lon="3.88799">
        <ele>120</ele>
        <time>2020-06-06T15:24:17.000Z</time>
      </trkpt>
      <trkpt lat="43.67001" lon="3.88794">
        <ele>120</ele>
        <time>2020-06-06T15:24:18.000Z</time>
      </trkpt>
      <trkpt lat="43.67001" lon="3.88789">
        <ele>120</ele>
        <time>2020-06-06T15:24:19.000Z</time>
      </trkpt>
      <trkpt lat="43.67" lon="3.88784">
        <ele>120</ele>
        <time>2020-06-06T15:24:20.000Z</time>
      </trkpt>
      <trkpt lat="43.66999" lon="3.88778">
        <ele>120.12447324894</ele>
        <time>2020-06-06T15:24:21.000Z</time>
      </trkpt>
      <trkpt lat="43.66999" lon="3.88774">
        <ele>120.33544371308</ele>
        <time>2020-06-06T15:24:22.000Z</time>
      </trkpt>
      <trkpt lat="43.66999" lon="3.88769">
        <ele>120.54641417721</ele>
        <time>2020-06-06T15:24:23.000Z</time>
      </trkpt>
      <trkpt lat="43.66999" lon="3.88765">
        <ele>120.75738464135</ele>
        <time>2020-06-06T15:24:24.000Z</time>
      </trkpt>
      <trkpt lat="43.66999" lon="3.88761">
        <ele>120.96835510549</ele>
        <time>2020-06-06T15:24:25.000Z</time>
      </trkpt>
      <trkpt lat="43.66999" lon="3.88756">
        <ele>121.17932556962</ele>
        <time>2020-06-06T15:24:26.000Z</time>
      </trkpt>
      <trkpt lat="43.66999" lon="3.88751">
        <ele>121.39029603376</ele>
        <time>2020-06-06T15:24:27.000Z</time>
      </trkpt>
      <trkpt lat="43.67" lon="3.88747">
        <ele>121.60126649789</ele>
        <time>2020-06-06T15:24:28.000Z</time>
      </trkpt>
      <trkpt lat="43.67" lon="3.88743">
        <ele>121.81223696202</ele>
        <time>2020-06-06T15:24:29.000Z</time>
      </trkpt>
      <trkpt lat="43.67" lon="3.88739">
        <ele>122</ele>
        <time>2020-06-06T15:24:30.000Z</time>
      </trkpt>
      <trkpt lat="43.67" lon="3.88734">
        <ele>122</ele>
        <time>2020-06-06T15:24:31.000Z</time>
      </trkpt>
      <trkpt lat="43.66999" lon="3.8873">
        <ele>122</ele>
        <time>2020-06-06T15:24:32.000Z</time>
      </trkpt>
      <trkpt lat="43.66999" lon="3.88725">
        <ele>122</ele>
        <time>2020-06-06T15:24:33.000Z</time>
      </trkpt>
      <trkpt lat="43.66998" lon="3.88721">
        <ele>122</ele>
        <time>2020-06-06T15:24:34.000Z</time>
      </trkpt>
      <trkpt lat="43.66998" lon="3.88716">
        <ele>122</ele>
        <time>2020-06-06T15:24:35.000Z</time>
      </trkpt>
      <trkpt lat="43.66998" lon="3.88712">
        <ele>122</ele>
        <time>2020-06-06T15:24:36.000Z</time>
      </trkpt>
      <trkpt lat="43.66997" lon="3.88707">
        <ele>122</ele>
        <time>2020-06-06T15:24:37.000Z</time>
      </trkpt>
      <trkpt lat="43.66997" lon="3.88703">
        <ele>122</ele>
        <time>2020-06-06T15:24:38.000Z</time>
      </trkpt>
      <trkpt lat="43.66997" lon="3.88698">
        <ele>122</ele>
        <time>2020-06-06T15:24:39.000Z</time>
      </trkpt>
      <trkpt lat="43.66997" lon="3.88693">
        <ele>121.98917291339</ele>
        <time>2020-06-06T15:24:40.000Z</time>
      </trkpt>
      <trkpt lat="43.66996" lon="3.88687">
        <ele>121.89074771654</ele>
        <time>2020-06-06T15:24:41.000Z</time>
      </trkpt>
      <trkpt lat="43.66996" lon="3.88681">
        <ele>121.79232251969</ele>
        <time>2020-06-06T15:24:42.000Z</time>
      </trkpt>
      <trkpt lat="43.66996" lon="3.88675">
        <ele>121.69389732283</ele>
        <time>2020-06-06T15:24:43.000Z</time>
      </trkpt>
      <trkpt lat="43.66996" lon="3.88669">
        <ele>121.59547212598</ele>
        <time>2020-06-06T15:24:44.000Z</time>
      </trkpt>
      <trkpt lat="43.66996" lon="3.88663">
        <ele>121.49704692913</ele>
        <time>2020-06-06T15:24:45.000Z</time>
      </trkpt>
      <trkpt lat="43.66996" lon="3.88656">
        <ele>121.39862173228</ele>
        <time>2020-06-06T15:24:46.000Z</time>
      </trkpt>
      <trkpt lat="43.66996" lon="3.88648">
        <ele>121.30019653543</ele>
        <time>2020-06-06T15:24:47.000Z</time>
      </trkpt>
      <trkpt lat="43.66996" lon="3.8864">
        <ele>121.20177133858</ele>
        <time>2020-06-06T15:24:48.000Z</time>
      </trkpt>
      <trkpt lat="43.66997" lon="3.88632">
        <ele>121.10334614173</ele>
        <time>2020-06-06T15:24:49.000Z</time>
      </trkpt>
      <trkpt lat="43.66997" lon="3.88625">
        <ele>121.00492094488</ele>
        <time>2020-06-06T15:24:50.000Z</time>
      </trkpt>
      <trkpt lat="43.66998" lon="3.88617">
        <ele>120.8069099187</ele>
        <time>2020-06-06T15:24:51.000Z</time>
      </trkpt>
      <trkpt lat="43.66999" lon="3.8861">
        <ele>120.60365788618</ele>
        <time>2020-06-06T15:24:52.000Z</time>
      </trkpt>
      <trkpt lat="43.66999" lon="3.88603">
        <ele>120.40040585366</ele>
        <time>2020-06-06T15:24:53.000Z</time>
      </trkpt>
      <trkpt lat="43.66997" lon="3.88597">
        <ele>120.19715382114</ele>
        <time>2020-06-06T15:24:54.000Z</time>
      </trkpt>
      <trkpt lat="43.66995" lon="3.88591">
        <ele>119.99390178862</ele>
        <time>2020-06-06T15:24:55.000Z</time>
      </trkpt>
      <trkpt lat="43.66992" lon="3.88585">
        <ele>119.7906497561</ele>
        <time>2020-06-06T15:24:56.000Z</time>
      </trkpt>
      <trkpt lat="43.66987" lon="3.88582">
        <ele>119.58739772358</ele>
        <time>2020-06-06T15:24:57.000Z</time>
      </trkpt>
      <trkpt lat="43.66982" lon="3.8858">
        <ele>119.38414569106</ele>
        <time>2020-06-06T15:24:58.000Z</time>
      </trkpt>
      <trkpt lat="43.66978" lon="3.88579">
        <ele>119.18089365854</ele>
        <time>2020-06-06T15:24:59.000Z</time>
      </trkpt>
      <trkpt lat="43.66973" lon="3.88577">
        <ele>118.98899968</ele>
        <time>2020-06-06T15:25:00.000Z</time>
      </trkpt>
      <trkpt lat="43.66968" lon="3.88574">
        <ele>118.88899968</ele>
        <time>2020-06-06T15:25:01.000Z</time>
      </trkpt>
      <trkpt lat="43.66963" lon="3.88572">
        <ele>118.78899968</ele>
        <time>2020-06-06T15:25:02.000Z</time>
      </trkpt>
      <trkpt lat="43.66959" lon="3.88571">
        <ele>118.68899968</ele>
        <time>2020-06-06T15:25:03.000Z</time>
      </trkpt>
      <trkpt lat="43.66956" lon="3.8857">
        <ele>118.58899968</ele>
        <time>2020-06-06T15:25:04.000Z</time>
      </trkpt>
      <trkpt lat="43.66953" lon="3.88569">
        <ele>118.48899968</ele>
        <time>2020-06-06T15:25:05.000Z</time>
      </trkpt>
      <trkpt lat="43.66949" lon="3.88569">
        <ele>118.38899968</ele>
        <time>2020-06-06T15:25:06.000Z</time>
      </trkpt>
      <trkpt lat="43.66946" lon="3.88567">
        <ele>118.28899968</ele>
        <time>2020-06-06T15:25:07.000Z</time>
      </trkpt>
      <trkpt lat="43.66943" lon="3.88566">
        <ele>118.18899968</ele>
        <time>2020-06-06T15:25:08.000Z</time>
      </trkpt>
      <trkpt lat="43.66939" lon="3.88564">
        <ele>118.08899968</ele>
        <time>2020-06-06T15:25:09.000Z</time>
      </trkpt>
      <trkpt lat="43.66934" lon="3.88562">
        <ele>117.9449984</ele>
        <time>2020-06-06T15:25:10.000Z</time>
      </trkpt>
      <trkpt lat="43.66928" lon="3.88559">
        <ele>117.4449984</ele>
        <time>2020-06-06T15:25:11.000Z</time>
      </trkpt>
      <trkpt lat="43.66922" lon="3.88556">
        <ele>116.9449984</ele>
        <time>2020-06-06T15:25:12.000Z</time>
      </trkpt>
      <trkpt lat="43.66915" lon="3.88553">
        <ele>116.4449984</ele>
        <time>2020-06-06T15:25:13.000Z</time>
      </trkpt>
      <trkpt lat="43.66908" lon="3.8855">
        <ele>115.9449984</ele>
        <time>2020-06-06T15:25:14.000Z</time>
      </trkpt>
      <trkpt lat="43.66901" lon="3.88547">
        <ele>115.4449984</ele>
        <time>2020-06-06T15:25:15.000Z</time>
      </trkpt>
      <trkpt lat="43.66894" lon="3.88541">
        <ele>114.9449984</ele>
        <time>2020-06-06T15:25:16.000Z</time>
      </trkpt>
      <trkpt lat="43.66886" lon="3.88535">
        <ele>114.4449984</ele>
        <time>2020-06-06T15:25:17.000Z</time>
      </trkpt>
      <trkpt lat="43.66879" lon="3.88529">
        <ele>113.9449984</ele>
        <time>2020-06-06T15:25:18.000Z</time>
      </trkpt>
      <trkpt lat="43.66871" lon="3.88523">
        <ele>113.4449984</ele>
        <time>2020-06-06T15:25:19.000Z</time>
      </trkpt>
      <trkpt lat="43.66864" lon="3.88517">
        <ele>112.92128576957</ele>
        <time>2020-06-06T15:25:20.000Z</time>
      </trkpt>
      <trkpt lat="43.66856" lon="3.88511">
        <ele>112.20572267293</ele>
        <time>2020-06-06T15:25:21.000Z</time>
      </trkpt>
      <trkpt lat="43.6685" lon="3.88506">
        <ele>111.49015957629</ele>
        <time>2020-06-06T15:25:22.000Z</time>
      </trkpt>
      <trkpt lat="43.66845" lon="3.88501">
        <ele>110.77459647966</ele>
        <time>2020-06-06T15:25:23.000Z</time>
      </trkpt>
      <trkpt lat="43.66841" lon="3.88496">
        <ele>110.05903338302</ele>
        <time>2020-06-06T15:25:24.000Z</time>
      </trkpt>
      <trkpt lat="43.66836" lon="3.88493">
        <ele>109.34347028639</ele>
        <time>2020-06-06T15:25:25.000Z</time>
      </trkpt>
      <trkpt lat="43.66831" lon="3.88489">
        <ele>108.62790718975</ele>
        <time>2020-06-06T15:25:26.000Z</time>
      </trkpt>
      <trkpt lat="43.66825" lon="3.88485">
        <ele>107.91234409311</ele>
        <time>2020-06-06T15:25:27.000Z</time>
      </trkpt>
      <trkpt lat="43.6682" lon="3.88479">
        <ele>107.19678099648</ele>
        <time>2020-06-06T15:25:28.000Z</time>
      </trkpt>
      <trkpt lat="43.66815" lon="3.88472">
        <ele>106.48121789984</ele>
        <time>2020-06-06T15:25:29.000Z</time>
      </trkpt>
      <trkpt lat="43.6681" lon="3.88466">
        <ele>105.7656548032</ele>
        <time>2020-06-06T15:25:30.000Z</time>
      </trkpt>
      <trkpt lat="43.66806" lon="3.8846">
        <ele>105.05009170657</ele>
        <time>2020-06-06T15:25:31.000Z</time>
      </trkpt>
      <trkpt lat="43.66802" lon="3.88455">
        <ele>104.49838308355</ele>
        <time>2020-06-06T15:25:32.000Z</time>
      </trkpt>
      <trkpt lat="43.66798" lon="3.8845">
        <ele>103.95900819919</ele>
        <time>2020-06-06T15:25:33.000Z</time>
      </trkpt>
      <trkpt lat="43.66795" lon="3.88446">
        <ele>103.41963331483</ele>
        <time>2020-06-06T15:25:34.000Z</time>
      </trkpt>
      <trkpt lat="43.66792" lon="3.88442">
        <ele>102.88025843047</ele>
        <time>2020-06-06T15:25:35.000Z</time>
      </trkpt>
      <trkpt lat="43.66789" lon="3.88438">
        <ele>102.34088354611</ele>
        <time>2020-06-06T15:25:36.000Z</time>
      </trkpt>
      <trkpt lat="43.66786" lon="3.88435">
        <ele>101.80150866176</ele>
        <time>2020-06-06T15:25:37.000Z</time>
      </trkpt>
      <trkpt lat="43.66784" lon="3.88432">
        <ele>101.2621337774</ele>
        <time>2020-06-06T15:25:38.000Z</time>
      </trkpt>
      <trkpt lat="43.66782" lon="3.88429">
        <ele>100.72275889304</ele>
        <time>2020-06-06T15:25:39.000Z</time>
      </trkpt>
      <trkpt lat="43.66779" lon="3.88425">
        <ele>100.18338400868</ele>
        <time>2020-06-06T15:25:40.000Z</time>
      </trkpt>
      <trkpt lat="43.66777" lon="3.88421">
        <ele>99.930889405356</ele>
        <time>2020-06-06T15:25:41.000Z</time>
      </trkpt>
      <trkpt lat="43.66775" lon="3.88417">
        <ele>99.826177398558</ele>
        <time>2020-06-06T15:25:42.000Z</time>
      </trkpt>
      <trkpt lat="43.66774" lon="3.88413">
        <ele>99.72146539176</ele>
        <time>2020-06-06T15:25:43.000Z</time>
      </trkpt>
      <trkpt lat="43.66773" lon="3.88409">
        <ele>99.616753384962</ele>
        <time>2020-06-06T15:25:44.000Z</time>
      </trkpt>
      <trkpt lat="43.66772" lon="3.88405">
        <ele>99.512041378164</ele>
        <time>2020-06-06T15:25:45.000Z</time>
      </trkpt>
      <trkpt lat="43.66772" lon="3.88401">
        <ele>99.407329371366</ele>
        <time>2020-06-06T15:25:46.000Z</time>
      </trkpt>
      <trkpt lat="43.66772" lon="3.88396">
        <ele>99.302617364568</ele>
        <time>2020-06-06T15:25:47.000Z</time>
      </trkpt>
      <trkpt lat="43.66773" lon="3.88393">
        <ele>99.19790535777</ele>
        <time>2020-06-06T15:25:48.000Z</time>
      </trkpt>
      <trkpt lat="43.66773" lon="3.88389">
        <ele>99.093193350972</ele>
        <time>2020-06-06T15:25:49.000Z</time>
      </trkpt>
      <trkpt lat="43.66773" lon="3.88386">
        <ele>98.97799936</ele>
        <time>2020-06-06T15:25:50.000Z</time>
      </trkpt>
      <trkpt lat="43.66774" lon="3.88384">
        <ele>98.77799936</ele>
        <time>2020-06-06T15:25:51.000Z</time>
      </trkpt>
      <trkpt lat="43.66774" lon="3.88379">
        <ele>98.37799936</ele>
        <time>2020-06-06T15:25:53.000Z</time>
      </trkpt>
      <trkpt lat="43.66773" lon="3.88376">
        <ele>98.17799936</ele>
        <time>2020-06-06T15:25:54.000Z</time>
      </trkpt>
      <trkpt lat="43.66771" lon="3.88374">
        <ele>97.97799936</ele>
        <time>2020-06-06T15:25:55.000Z</time>
      </trkpt>
      <trkpt lat="43.66768" lon="3.88372">
        <ele>97.77799936</ele>
        <time>2020-06-06T15:25:56.000Z</time>
      </trkpt>
      <trkpt lat="43.66764" lon="3.88371">
        <ele>97.57799936</ele>
        <time>2020-06-06T15:25:57.000Z</time>
      </trkpt>
      <trkpt lat="43.6676" lon="3.88373">
        <ele>97.37799936</ele>
        <time>2020-06-06T15:25:58.000Z</time>
      </trkpt>
      <trkpt lat="43.66757" lon="3.88377">
        <ele>97.17799936</ele>
        <time>2020-06-06T15:25:59.000Z</time>
      </trkpt>
      <trkpt lat="43.66753" lon="3.88382">
        <ele>96.956086574955</ele>
        <time>2020-06-06T15:26:00.000Z</time>
      </trkpt>
      <trkpt lat="43.66751" lon="3.88387">
        <ele>96.556885233127</ele>
        <time>2020-06-06T15:26:01.000Z</time>
      </trkpt>
      <trkpt lat="43.66747" lon="3.88393">
        <ele>96.1576838913</ele>
        <time>2020-06-06T15:26:02.000Z</time>
      </trkpt>
      <trkpt lat="43.66744" lon="3.88398">
        <ele>95.758482549472</ele>
        <time>2020-06-06T15:26:03.000Z</time>
      </trkpt>
      <trkpt lat="43.66739" lon="3.88402">
        <ele>95.359281207645</ele>
        <time>2020-06-06T15:26:04.000Z</time>
      </trkpt>
      <trkpt lat="43.66735" lon="3.88406">
        <ele>94.960079865817</ele>
        <time>2020-06-06T15:26:05.000Z</time>
      </trkpt>
      <trkpt lat="43.6673" lon="3.88409">
        <ele>94.56087852399</ele>
        <time>2020-06-06T15:26:06.000Z</time>
      </trkpt>
      <trkpt lat="43.66724" lon="3.8841">
        <ele>94.161677182162</ele>
        <time>2020-06-06T15:26:07.000Z</time>
      </trkpt>
      <trkpt lat="43.66718" lon="3.88409">
        <ele>93.762475840335</ele>
        <time>2020-06-06T15:26:08.000Z</time>
      </trkpt>
      <trkpt lat="43.66712" lon="3.88408">
        <ele>93.363274498507</ele>
        <time>2020-06-06T15:26:09.000Z</time>
      </trkpt>
      <trkpt lat="43.66706" lon="3.88407">
        <ele>92.97300096</ele>
        <time>2020-06-06T15:26:10.000Z</time>
      </trkpt>
      <trkpt lat="43.667" lon="3.88404">
        <ele>92.67300096</ele>
        <time>2020-06-06T15:26:11.000Z</time>
      </trkpt>
      <trkpt lat="43.66695" lon="3.884">
        <ele>92.37300096</ele>
        <time>2020-06-06T15:26:12.000Z</time>
      </trkpt>
      <trkpt lat="43.6669" lon="3.88396">
        <ele>92.07300096</ele>
        <time>2020-06-06T15:26:13.000Z</time>
      </trkpt>
      <trkpt lat="43.66686" lon="3.88392">
        <ele>91.77300096</ele>
        <time>2020-06-06T15:26:14.000Z</time>
      </trkpt>
      <trkpt lat="43.66681" lon="3.88388">
        <ele>91.47300096</ele>
        <time>2020-06-06T15:26:15.000Z</time>
      </trkpt>
      <trkpt lat="43.66676" lon="3.88384">
        <ele>91.17300096</ele>
        <time>2020-06-06T15:26:16.000Z</time>
      </trkpt>
      <trkpt lat="43.66671" lon="3.8838">
        <ele>90.87300096</ele>
        <time>2020-06-06T15:26:17.000Z</time>
      </trkpt>
      <trkpt lat="43.66666" lon="3.88377">
        <ele>90.57300096</ele>
        <time>2020-06-06T15:26:18.000Z</time>
      </trkpt>
      <trkpt lat="43.66661" lon="3.88372">
        <ele>90.27300096</ele>
        <time>2020-06-06T15:26:19.000Z</time>
      </trkpt>
      <trkpt lat="43.66656" lon="3.88367">
        <ele>89.981964557572</ele>
        <time>2020-06-06T15:26:20.000Z</time>
      </trkpt>
      <trkpt lat="43.66651" lon="3.88363">
        <ele>89.781563627456</ele>
        <time>2020-06-06T15:26:21.000Z</time>
      </trkpt>
      <trkpt lat="43.66646" lon="3.88358">
        <ele>89.581162697339</ele>
        <time>2020-06-06T15:26:22.000Z</time>
      </trkpt>
      <trkpt lat="43.66642" lon="3.88353">
        <ele>89.380761767222</ele>
        <time>2020-06-06T15:26:23.000Z</time>
      </trkpt>
      <trkpt lat="43.66637" lon="3.88348">
        <ele>89.180360837105</ele>
        <time>2020-06-06T15:26:24.000Z</time>
      </trkpt>
      <trkpt lat="43.66633" lon="3.88342">
        <ele>88.979959906988</ele>
        <time>2020-06-06T15:26:25.000Z</time>
      </trkpt>
      <trkpt lat="43.66629" lon="3.88337">
        <ele>88.779558976871</ele>
        <time>2020-06-06T15:26:26.000Z</time>
      </trkpt>
      <trkpt lat="43.66625" lon="3.88331">
        <ele>88.579158046755</ele>
        <time>2020-06-06T15:26:27.000Z</time>
      </trkpt>
      <trkpt lat="43.66621" lon="3.88325">
        <ele>88.378757116638</ele>
        <time>2020-06-06T15:26:28.000Z</time>
      </trkpt>
      <trkpt lat="43.66616" lon="3.88319">
        <ele>88.178356186521</ele>
        <time>2020-06-06T15:26:29.000Z</time>
      </trkpt>
      <trkpt lat="43.66612" lon="3.88313">
        <ele>88</ele>
        <time>2020-06-06T15:26:30.000Z</time>
      </trkpt>
      <trkpt lat="43.66609" lon="3.88307">
        <ele>88</ele>
        <time>2020-06-06T15:26:31.000Z</time>
      </trkpt>
      <trkpt lat="43.66605" lon="3.88301">
        <ele>88</ele>
        <time>2020-06-06T15:26:32.000Z</time>
      </trkpt>
      <trkpt lat="43.66602" lon="3.88295">
        <ele>88</ele>
        <time>2020-06-06T15:26:33.000Z</time>
      </trkpt>
      <trkpt lat="43.666" lon="3.8829">
        <ele>88</ele>
        <time>2020-06-06T15:26:34.000Z</time>
      </trkpt>
      <trkpt lat="43.66597" lon="3.88284">
        <ele>88</ele>
        <time>2020-06-06T15:26:35.000Z</time>
      </trkpt>
      <trkpt lat="43.66595" lon="3.8828">
        <ele>88</ele>
        <time>2020-06-06T15:26:36.000Z</time>
      </trkpt>
      <trkpt lat="43.66594" lon="3.88276">
        <ele>88</ele>
        <time>2020-06-06T15:26:37.000Z</time>
      </trkpt>
      <trkpt lat="43.66592" lon="3.88274">
        <ele>88</ele>
        <time>2020-06-06T15:26:38.000Z</time>
      </trkpt>
      <trkpt lat="43.66592" lon="3.88271">
        <ele>88</ele>
        <time>2020-06-06T15:26:39.000Z</time>
      </trkpt>
      <trkpt lat="43.66592" lon="3.88268">
        <ele>88</ele>
        <time>2020-06-06T15:26:40.000Z</time>
      </trkpt>
      <trkpt lat="43.66591" lon="3.88265">
        <ele>88</ele>
        <time>2020-06-06T15:26:41.000Z</time>
      </trkpt>
      <trkpt lat="43.6659" lon="3.88262">
        <ele>88</ele>
        <time>2020-06-06T15:26:42.000Z</time>
      </trkpt>
      <trkpt lat="43.66589" lon="3.8826">
        <ele>88</ele>
        <time>2020-06-06T15:26:43.000Z</time>
      </trkpt>
      <trkpt lat="43.66586" lon="3.88259">
        <ele>88</ele>
        <time>2020-06-06T15:26:44.000Z</time>
      </trkpt>
      <trkpt lat="43.66583" lon="3.8826">
        <ele>88</ele>
        <time>2020-06-06T15:26:45.000Z</time>
      </trkpt>
      <trkpt lat="43.6658" lon="3.8826">
        <ele>88</ele>
        <time>2020-06-06T15:26:46.000Z</time>
      </trkpt>
      <trkpt lat="43.66576" lon="3.88259">
        <ele>88</ele>
        <time>2020-06-06T15:26:47.000Z</time>
      </trkpt>
      <trkpt lat="43.66572" lon="3.88258">
        <ele>88</ele>
        <time>2020-06-06T15:26:48.000Z</time>
      </trkpt>
      <trkpt lat="43.66569" lon="3.88255">
        <ele>88</ele>
        <time>2020-06-06T15:26:49.000Z</time>
      </trkpt>
      <trkpt lat="43.66565" lon="3.88253">
        <ele>87.98899968</ele>
        <time>2020-06-06T15:26:50.000Z</time>
      </trkpt>
      <trkpt lat="43.66562" lon="3.8825">
        <ele>87.88899968</ele>
        <time>2020-06-06T15:26:51.000Z</time>
      </trkpt>
      <trkpt lat="43.66559" lon="3.88247">
        <ele>87.78899968</ele>
        <time>2020-06-06T15:26:52.000Z</time>
      </trkpt>
      <trkpt lat="43.66556" lon="3.88243">
        <ele>87.68899968</ele>
        <time>2020-06-06T15:26:53.000Z</time>
      </trkpt>
      <trkpt lat="43.66553" lon="3.88239">
        <ele>87.58899968</ele>
        <time>2020-06-06T15:26:54.000Z</time>
      </trkpt>
      <trkpt lat="43.6655" lon="3.88233">
        <ele>87.48899968</ele>
        <time>2020-06-06T15:26:55.000Z</time>
      </trkpt>
      <trkpt lat="43.66547" lon="3.88228">
        <ele>87.38899968</ele>
        <time>2020-06-06T15:26:56.000Z</time>
      </trkpt>
      <trkpt lat="43.66543" lon="3.88223">
        <ele>87.28899968</ele>
        <time>2020-06-06T15:26:57.000Z</time>
      </trkpt>
      <trkpt lat="43.6654" lon="3.88218">
        <ele>87.18899968</ele>
        <time>2020-06-06T15:26:58.000Z</time>
      </trkpt>
      <trkpt lat="43.66537" lon="3.88214">
        <ele>87.08899968</ele>
        <time>2020-06-06T15:26:59.000Z</time>
      </trkpt>
      <trkpt lat="43.66534" lon="3.8821">
        <ele>86.989288883571</ele>
        <time>2020-06-06T15:27:00.000Z</time>
      </trkpt>
      <trkpt lat="43.6653" lon="3.88207">
        <ele>86.891917930464</ele>
        <time>2020-06-06T15:27:01.000Z</time>
      </trkpt>
      <trkpt lat="43.66527" lon="3.88203">
        <ele>86.794546977356</ele>
        <time>2020-06-06T15:27:02.000Z</time>
      </trkpt>
      <trkpt lat="43.66524" lon="3.882">
        <ele>86.697176024249</ele>
        <time>2020-06-06T15:27:03.000Z</time>
      </trkpt>
      <trkpt lat="43.66521" lon="3.88197">
        <ele>86.599805071142</ele>
        <time>2020-06-06T15:27:04.000Z</time>
      </trkpt>
      <trkpt lat="43.66518" lon="3.88194">
        <ele>86.502434118034</ele>
        <time>2020-06-06T15:27:05.000Z</time>
      </trkpt>
      <trkpt lat="43.66515" lon="3.88191">
        <ele>86.405063164927</ele>
        <time>2020-06-06T15:27:06.000Z</time>
      </trkpt>
      <trkpt lat="43.66512" lon="3.88189">
        <ele>86.307692211819</ele>
        <time>2020-06-06T15:27:07.000Z</time>
      </trkpt>
      <trkpt lat="43.66509" lon="3.88186">
        <ele>86.210321258712</ele>
        <time>2020-06-06T15:27:08.000Z</time>
      </trkpt>
      <trkpt lat="43.66506" lon="3.88183">
        <ele>86.112950305605</ele>
        <time>2020-06-06T15:27:09.000Z</time>
      </trkpt>
      <trkpt lat="43.66503" lon="3.88181">
        <ele>86.015579352497</ele>
        <time>2020-06-06T15:27:10.000Z</time>
      </trkpt>
      <trkpt lat="43.665" lon="3.88179">
        <ele>85.913669036356</ele>
        <time>2020-06-06T15:27:11.000Z</time>
      </trkpt>
      <trkpt lat="43.66497" lon="3.88176">
        <ele>85.810894079636</ele>
        <time>2020-06-06T15:27:12.000Z</time>
      </trkpt>
      <trkpt lat="43.66493" lon="3.88174">
        <ele>85.708119122917</ele>
        <time>2020-06-06T15:27:13.000Z</time>
      </trkpt>
      <trkpt lat="43.6649" lon="3.88171">
        <ele>85.605344166197</ele>
        <time>2020-06-06T15:27:14.000Z</time>
      </trkpt>
      <trkpt lat="43.66487" lon="3.88168">
        <ele>85.502569209478</ele>
        <time>2020-06-06T15:27:15.000Z</time>
      </trkpt>
      <trkpt lat="43.66483" lon="3.88166">
        <ele>85.399794252759</ele>
        <time>2020-06-06T15:27:16.000Z</time>
      </trkpt>
      <trkpt lat="43.66479" lon="3.88162">
        <ele>85.297019296039</ele>
        <time>2020-06-06T15:27:17.000Z</time>
      </trkpt>
      <trkpt lat="43.66475" lon="3.88159">
        <ele>85.19424433932</ele>
        <time>2020-06-06T15:27:18.000Z</time>
      </trkpt>
      <trkpt lat="43.66471" lon="3.88155">
        <ele>85.0914693826</ele>
        <time>2020-06-06T15:27:19.000Z</time>
      </trkpt>
      <trkpt lat="43.66467" lon="3.88151">
        <ele>84.97799936</ele>
        <time>2020-06-06T15:27:20.000Z</time>
      </trkpt>
      <trkpt lat="43.66463" lon="3.88148">
        <ele>84.77799936</ele>
        <time>2020-06-06T15:27:21.000Z</time>
      </trkpt>
      <trkpt lat="43.66459" lon="3.88143">
        <ele>84.57799936</ele>
        <time>2020-06-06T15:27:22.000Z</time>
      </trkpt>
      <trkpt lat="43.66455" lon="3.88139">
        <ele>84.37799936</ele>
        <time>2020-06-06T15:27:23.000Z</time>
      </trkpt>
      <trkpt lat="43.66451" lon="3.88135">
        <ele>84.17799936</ele>
        <time>2020-06-06T15:27:24.000Z</time>
      </trkpt>
      <trkpt lat="43.66446" lon="3.88131">
        <ele>83.97799936</ele>
        <time>2020-06-06T15:27:25.000Z</time>
      </trkpt>
      <trkpt lat="43.66442" lon="3.88127">
        <ele>83.77799936</ele>
        <time>2020-06-06T15:27:26.000Z</time>
      </trkpt>
      <trkpt lat="43.66438" lon="3.88123">
        <ele>83.57799936</ele>
        <time>2020-06-06T15:27:27.000Z</time>
      </trkpt>
      <trkpt lat="43.66434" lon="3.88119">
        <ele>83.37799936</ele>
        <time>2020-06-06T15:27:28.000Z</time>
      </trkpt>
      <trkpt lat="43.66429" lon="3.88115">
        <ele>83.17799936</ele>
        <time>2020-06-06T15:27:29.000Z</time>
      </trkpt>
      <trkpt lat="43.66425" lon="3.88112">
        <ele>82.98899968</ele>
        <time>2020-06-06T15:27:30.000Z</time>
      </trkpt>
      <trkpt lat="43.6642" lon="3.88109">
        <ele>82.88899968</ele>
        <time>2020-06-06T15:27:31.000Z</time>
      </trkpt>
      <trkpt lat="43.66416" lon="3.88106">
        <ele>82.78899968</ele>
        <time>2020-06-06T15:27:32.000Z</time>
      </trkpt>
      <trkpt lat="43.66411" lon="3.88104">
        <ele>82.68899968</ele>
        <time>2020-06-06T15:27:33.000Z</time>
      </trkpt>
      <trkpt lat="43.66406" lon="3.88101">
        <ele>82.58899968</ele>
        <time>2020-06-06T15:27:34.000Z</time>
      </trkpt>
      <trkpt lat="43.66402" lon="3.88099">
        <ele>82.48899968</ele>
        <time>2020-06-06T15:27:35.000Z</time>
      </trkpt>
      <trkpt lat="43.66397" lon="3.88096">
        <ele>82.38899968</ele>
        <time>2020-06-06T15:27:36.000Z</time>
      </trkpt>
      <trkpt lat="43.66392" lon="3.88093">
        <ele>82.28899968</ele>
        <time>2020-06-06T15:27:37.000Z</time>
      </trkpt>
      <trkpt lat="43.66388" lon="3.8809">
        <ele>82.18899968</ele>
        <time>2020-06-06T15:27:38.000Z</time>
      </trkpt>
      <trkpt lat="43.66383" lon="3.88088">
        <ele>82.08899968</ele>
        <time>2020-06-06T15:27:39.000Z</time>
      </trkpt>
      <trkpt lat="43.66378" lon="3.88085">
        <ele>81.97799936</ele>
        <time>2020-06-06T15:27:40.000Z</time>
      </trkpt>
      <trkpt lat="43.66373" lon="3.88083">
        <ele>81.77799936</ele>
        <time>2020-06-06T15:27:41.000Z</time>
      </trkpt>
      <trkpt lat="43.66368" lon="3.8808">
        <ele>81.57799936</ele>
        <time>2020-06-06T15:27:42.000Z</time>
      </trkpt>
      <trkpt lat="43.66363" lon="3.88077">
        <ele>81.37799936</ele>
        <time>2020-06-06T15:27:43.000Z</time>
      </trkpt>
      <trkpt lat="43.66358" lon="3.88075">
        <ele>81.17799936</ele>
        <time>2020-06-06T15:27:44.000Z</time>
      </trkpt>
      <trkpt lat="43.66354" lon="3.88072">
        <ele>80.97799936</ele>
        <time>2020-06-06T15:27:45.000Z</time>
      </trkpt>
      <trkpt lat="43.66349" lon="3.88069">
        <ele>80.77799936</ele>
        <time>2020-06-06T15:27:46.000Z</time>
      </trkpt>
      <trkpt lat="43.66344" lon="3.88067">
        <ele>80.57799936</ele>
        <time>2020-06-06T15:27:47.000Z</time>
      </trkpt>
      <trkpt lat="43.66339" lon="3.88064">
        <ele>80.37799936</ele>
        <time>2020-06-06T15:27:48.000Z</time>
      </trkpt>
      <trkpt lat="43.66335" lon="3.88061">
        <ele>80.17799936</ele>
        <time>2020-06-06T15:27:49.000Z</time>
      </trkpt>
      <trkpt lat="43.6633" lon="3.88059">
        <ele>80</ele>
        <time>2020-06-06T15:27:50.000Z</time>
      </trkpt>
      <trkpt lat="43.66325" lon="3.88056">
        <ele>80</ele>
        <time>2020-06-06T15:27:51.000Z</time>
      </trkpt>
      <trkpt lat="43.66321" lon="3.88053">
        <ele>80</ele>
        <time>2020-06-06T15:27:52.000Z</time>
      </trkpt>
      <trkpt lat="43.66316" lon="3.88051">
        <ele>80</ele>
        <time>2020-06-06T15:27:53.000Z</time>
      </trkpt>
      <trkpt lat="43.66312" lon="3.88048">
        <ele>80</ele>
        <time>2020-06-06T15:27:54.000Z</time>
      </trkpt>
      <trkpt lat="43.66308" lon="3.88046">
        <ele>80</ele>
        <time>2020-06-06T15:27:55.000Z</time>
      </trkpt>
      <trkpt lat="43.66303" lon="3.88043">
        <ele>80</ele>
        <time>2020-06-06T15:27:56.000Z</time>
      </trkpt>
      <trkpt lat="43.66299" lon="3.88041">
        <ele>80</ele>
        <time>2020-06-06T15:27:57.000Z</time>
      </trkpt>
      <trkpt lat="43.66295" lon="3.88038">
        <ele>80</ele>
        <time>2020-06-06T15:27:58.000Z</time>
      </trkpt>
      <trkpt lat="43.66291" lon="3.88036">
        <ele>80</ele>
        <time>2020-06-06T15:27:59.000Z</time>
      </trkpt>
      <trkpt lat="43.66287" lon="3.88033">
        <ele>79.98899968</ele>
        <time>2020-06-06T15:28:00.000Z</time>
      </trkpt>
      <trkpt lat="43.66283" lon="3.88031">
        <ele>79.88899968</ele>
        <time>2020-06-06T15:28:01.000Z</time>
      </trkpt>
      <trkpt lat="43.66279" lon="3.88029">
        <ele>79.78899968</ele>
        <time>2020-06-06T15:28:02.000Z</time>
      </trkpt>
      <trkpt lat="43.66275" lon="3.88028">
        <ele>79.68899968</ele>
        <time>2020-06-06T15:28:03.000Z</time>
      </trkpt>
      <trkpt lat="43.6627" lon="3.88028">
        <ele>79.58899968</ele>
        <time>2020-06-06T15:28:04.000Z</time>
      </trkpt>
      <trkpt lat="43.66266" lon="3.88028">
        <ele>79.48899968</ele>
        <time>2020-06-06T15:28:05.000Z</time>
      </trkpt>
      <trkpt lat="43.66262" lon="3.8803">
        <ele>79.38899968</ele>
        <time>2020-06-06T15:28:06.000Z</time>
      </trkpt>
      <trkpt lat="43.66258" lon="3.88031">
        <ele>79.28899968</ele>
        <time>2020-06-06T15:28:07.000Z</time>
      </trkpt>
      <trkpt lat="43.66253" lon="3.88032">
        <ele>79.18899968</ele>
        <time>2020-06-06T15:28:08.000Z</time>
      </trkpt>
      <trkpt lat="43.66249" lon="3.88034">
        <ele>79.08899968</ele>
        <time>2020-06-06T15:28:09.000Z</time>
      </trkpt>
      <trkpt lat="43.66245" lon="3.88035">
        <ele>78.989021643739</ele>
        <time>2020-06-06T15:28:10.000Z</time>
      </trkpt>
      <trkpt lat="43.6624" lon="3.88037">
        <ele>78.889221308282</ele>
        <time>2020-06-06T15:28:11.000Z</time>
      </trkpt>
      <trkpt lat="43.66236" lon="3.88039">
        <ele>78.789420972825</ele>
        <time>2020-06-06T15:28:12.000Z</time>
      </trkpt>
      <trkpt lat="43.66231" lon="3.88041">
        <ele>78.689620637368</ele>
        <time>2020-06-06T15:28:13.000Z</time>
      </trkpt>
      <trkpt lat="43.66227" lon="3.88043">
        <ele>78.589820301911</ele>
        <time>2020-06-06T15:28:14.000Z</time>
      </trkpt>
      <trkpt lat="43.66224" lon="3.88046">
        <ele>78.490019966454</ele>
        <time>2020-06-06T15:28:15.000Z</time>
      </trkpt>
      <trkpt lat="43.66221" lon="3.8805">
        <ele>78.390219630997</ele>
        <time>2020-06-06T15:28:16.000Z</time>
      </trkpt>
      <trkpt lat="43.66218" lon="3.88054">
        <ele>78.290419295541</ele>
        <time>2020-06-06T15:28:17.000Z</time>
      </trkpt>
      <trkpt lat="43.66215" lon="3.88058">
        <ele>78.190618960084</ele>
        <time>2020-06-06T15:28:18.000Z</time>
      </trkpt>
      <trkpt lat="43.66213" lon="3.88063">
        <ele>78.090818624627</ele>
        <time>2020-06-06T15:28:19.000Z</time>
      </trkpt>
      <trkpt lat="43.66212" lon="3.88069">
        <ele>78</ele>
        <time>2020-06-06T15:28:20.000Z</time>
      </trkpt>
      <trkpt lat="43.6621" lon="3.88074">
        <ele>78</ele>
        <time>2020-06-06T15:28:21.000Z</time>
      </trkpt>
      <trkpt lat="43.66209" lon="3.8808">
        <ele>78</ele>
        <time>2020-06-06T15:28:22.000Z</time>
      </trkpt>
      <trkpt lat="43.66207" lon="3.88086">
        <ele>78</ele>
        <time>2020-06-06T15:28:23.000Z</time>
      </trkpt>
      <trkpt lat="43.66205" lon="3.88091">
        <ele>78</ele>
        <time>2020-06-06T15:28:24.000Z</time>
      </trkpt>
      <trkpt lat="43.66203" lon="3.88096">
        <ele>78</ele>
        <time>2020-06-06T15:28:25.000Z</time>
      </trkpt>
      <trkpt lat="43.662" lon="3.881">
        <ele>78</ele>
        <time>2020-06-06T15:28:26.000Z</time>
      </trkpt>
      <trkpt lat="43.66197" lon="3.88104">
        <ele>78</ele>
        <time>2020-06-06T15:28:27.000Z</time>
      </trkpt>
      <trkpt lat="43.66194" lon="3.88106">
        <ele>78</ele>
        <time>2020-06-06T15:28:28.000Z</time>
      </trkpt>
      <trkpt lat="43.6619" lon="3.88107">
        <ele>78</ele>
        <time>2020-06-06T15:28:29.000Z</time>
      </trkpt>
      <trkpt lat="43.66187" lon="3.88108">
        <ele>78</ele>
        <time>2020-06-06T15:28:30.000Z</time>
      </trkpt>
      <trkpt lat="43.66183" lon="3.88109">
        <ele>77.916495120162</ele>
        <time>2020-06-06T15:28:31.000Z</time>
      </trkpt>
      <trkpt lat="43.66179" lon="3.8811">
        <ele>77.813402268637</ele>
        <time>2020-06-06T15:28:32.000Z</time>
      </trkpt>
      <trkpt lat="43.66175" lon="3.88111">
        <ele>77.710309417111</ele>
        <time>2020-06-06T15:28:33.000Z</time>
      </trkpt>
      <trkpt lat="43.6617" lon="3.88112">
        <ele>77.607216565586</ele>
        <time>2020-06-06T15:28:34.000Z</time>
      </trkpt>
      <trkpt lat="43.66166" lon="3.88112">
        <ele>77.504123714061</ele>
        <time>2020-06-06T15:28:35.000Z</time>
      </trkpt>
      <trkpt lat="43.66161" lon="3.88113">
        <ele>77.401030862536</ele>
        <time>2020-06-06T15:28:36.000Z</time>
      </trkpt>
      <trkpt lat="43.66156" lon="3.88113">
        <ele>77.297938011011</ele>
        <time>2020-06-06T15:28:37.000Z</time>
      </trkpt>
      <trkpt lat="43.66151" lon="3.88112">
        <ele>77.194845159485</ele>
        <time>2020-06-06T15:28:38.000Z</time>
      </trkpt>
      <trkpt lat="43.66145" lon="3.8811">
        <ele>77.09175230796</ele>
        <time>2020-06-06T15:28:39.000Z</time>
      </trkpt>
      <trkpt lat="43.6614" lon="3.88108">
        <ele>76.967929086236</ele>
        <time>2020-06-06T15:28:40.000Z</time>
      </trkpt>
      <trkpt lat="43.66134" lon="3.88106">
        <ele>76.676383806067</ele>
        <time>2020-06-06T15:28:41.000Z</time>
      </trkpt>
      <trkpt lat="43.66128" lon="3.88103">
        <ele>76.384838525897</ele>
        <time>2020-06-06T15:28:42.000Z</time>
      </trkpt>
      <trkpt lat="43.66122" lon="3.88101">
        <ele>76.093293245728</ele>
        <time>2020-06-06T15:28:43.000Z</time>
      </trkpt>
      <trkpt lat="43.66115" lon="3.881">
        <ele>75.801747965558</ele>
        <time>2020-06-06T15:28:44.000Z</time>
      </trkpt>
      <trkpt lat="43.66108" lon="3.88099">
        <ele>75.510202685389</ele>
        <time>2020-06-06T15:28:45.000Z</time>
      </trkpt>
      <trkpt lat="43.66101" lon="3.88098">
        <ele>75.218657405219</ele>
        <time>2020-06-06T15:28:46.000Z</time>
      </trkpt>
      <trkpt lat="43.66093" lon="3.88097">
        <ele>74.927112125049</ele>
        <time>2020-06-06T15:28:47.000Z</time>
      </trkpt>
      <trkpt lat="43.66085" lon="3.88096">
        <ele>74.63556684488</ele>
        <time>2020-06-06T15:28:48.000Z</time>
      </trkpt>
      <trkpt lat="43.66077" lon="3.88095">
        <ele>74.34402156471</ele>
        <time>2020-06-06T15:28:49.000Z</time>
      </trkpt>
      <trkpt lat="43.66068" lon="3.88094">
        <ele>74.052476284541</ele>
        <time>2020-06-06T15:28:50.000Z</time>
      </trkpt>
      <trkpt lat="43.6606" lon="3.88092">
        <ele>73.672652344813</ele>
        <time>2020-06-06T15:28:51.000Z</time>
      </trkpt>
      <trkpt lat="43.66051" lon="3.8809">
        <ele>73.273451002985</ele>
        <time>2020-06-06T15:28:52.000Z</time>
      </trkpt>
      <trkpt lat="43.66042" lon="3.88088">
        <ele>72.874249661158</ele>
        <time>2020-06-06T15:28:53.000Z</time>
      </trkpt>
      <trkpt lat="43.66033" lon="3.88086">
        <ele>72.47504831933</ele>
        <time>2020-06-06T15:28:54.000Z</time>
      </trkpt>
      <trkpt lat="43.66025" lon="3.88082">
        <ele>72.075846977503</ele>
        <time>2020-06-06T15:28:55.000Z</time>
      </trkpt>
      <trkpt lat="43.66017" lon="3.88079">
        <ele>71.676645635675</ele>
        <time>2020-06-06T15:28:56.000Z</time>
      </trkpt>
      <trkpt lat="43.66009" lon="3.88076">
        <ele>71.277444293848</ele>
        <time>2020-06-06T15:28:57.000Z</time>
      </trkpt>
      <trkpt lat="43.66001" lon="3.88073">
        <ele>70.87824295202</ele>
        <time>2020-06-06T15:28:58.000Z</time>
      </trkpt>
      <trkpt lat="43.65993" lon="3.88069">
        <ele>70.479041610193</ele>
        <time>2020-06-06T15:28:59.000Z</time>
      </trkpt>
      <trkpt lat="43.65986" lon="3.88065">
        <ele>70.079840268366</ele>
        <time>2020-06-06T15:29:00.000Z</time>
      </trkpt>
      <trkpt lat="43.6598" lon="3.88061">
        <ele>69.918864150027</ele>
        <time>2020-06-06T15:29:01.000Z</time>
      </trkpt>
      <trkpt lat="43.65975" lon="3.88057">
        <ele>69.817444337561</ele>
        <time>2020-06-06T15:29:02.000Z</time>
      </trkpt>
      <trkpt lat="43.6597" lon="3.88052">
        <ele>69.716024525096</ele>
        <time>2020-06-06T15:29:03.000Z</time>
      </trkpt>
      <trkpt lat="43.65967" lon="3.88047">
        <ele>69.61460471263</ele>
        <time>2020-06-06T15:29:04.000Z</time>
      </trkpt>
      <trkpt lat="43.65963" lon="3.88044">
        <ele>69.513184900164</ele>
        <time>2020-06-06T15:29:05.000Z</time>
      </trkpt>
      <trkpt lat="43.65959" lon="3.8804">
        <ele>69.411765087698</ele>
        <time>2020-06-06T15:29:06.000Z</time>
      </trkpt>
      <trkpt lat="43.65955" lon="3.88038">
        <ele>69.310345275232</ele>
        <time>2020-06-06T15:29:07.000Z</time>
      </trkpt>
      <trkpt lat="43.65951" lon="3.88035">
        <ele>69.208925462766</ele>
        <time>2020-06-06T15:29:08.000Z</time>
      </trkpt>
      <trkpt lat="43.65947" lon="3.88033">
        <ele>69.107505650301</ele>
        <time>2020-06-06T15:29:09.000Z</time>
      </trkpt>
      <trkpt lat="43.65944" lon="3.8803">
        <ele>69.006085837835</ele>
        <time>2020-06-06T15:29:10.000Z</time>
      </trkpt>
      <trkpt lat="43.6594" lon="3.88027">
        <ele>68.904374921872</ele>
        <time>2020-06-06T15:29:11.000Z</time>
      </trkpt>
      <trkpt lat="43.65937" lon="3.88024">
        <ele>68.802645422726</ele>
        <time>2020-06-06T15:29:12.000Z</time>
      </trkpt>
      <trkpt lat="43.65934" lon="3.88021">
        <ele>68.70091592358</ele>
        <time>2020-06-06T15:29:13.000Z</time>
      </trkpt>
      <trkpt lat="43.65931" lon="3.88019">
        <ele>68.599186424434</ele>
        <time>2020-06-06T15:29:14.000Z</time>
      </trkpt>
      <trkpt lat="43.65928" lon="3.88017">
        <ele>68.497456925289</ele>
        <time>2020-06-06T15:29:15.000Z</time>
      </trkpt>
      <trkpt lat="43.65926" lon="3.88015">
        <ele>68.395727426143</ele>
        <time>2020-06-06T15:29:16.000Z</time>
      </trkpt>
      <trkpt lat="43.65926" lon="3.88014">
        <ele>68</ele>
        <time>2020-06-06T15:29:22.000Z</time>
      </trkpt>
      <trkpt lat="43.65921" lon="3.88016">
        <ele>68</ele>
        <time>2020-06-06T15:29:53.000Z</time>
      </trkpt>
      <trkpt lat="43.65919" lon="3.88018">
        <ele>67.930890653042</ele>
        <time>2020-06-06T15:29:54.000Z</time>
      </trkpt>
      <trkpt lat="43.65917" lon="3.88018">
        <ele>67.826178505897</ele>
        <time>2020-06-06T15:29:55.000Z</time>
      </trkpt>
      <trkpt lat="43.65915" lon="3.88016">
        <ele>67.721466358751</ele>
        <time>2020-06-06T15:29:56.000Z</time>
      </trkpt>
      <trkpt lat="43.65914" lon="3.88013">
        <ele>67.616754211606</ele>
        <time>2020-06-06T15:29:57.000Z</time>
      </trkpt>
      <trkpt lat="43.65912" lon="3.8801">
        <ele>67.512042064461</ele>
        <time>2020-06-06T15:29:58.000Z</time>
      </trkpt>
      <trkpt lat="43.6591" lon="3.88008">
        <ele>67.407329917316</ele>
        <time>2020-06-06T15:29:59.000Z</time>
      </trkpt>
      <trkpt lat="43.65907" lon="3.88007">
        <ele>67.302617770171</ele>
        <time>2020-06-06T15:30:00.000Z</time>
      </trkpt>
      <trkpt lat="43.65904" lon="3.88008">
        <ele>67.197905623026</ele>
        <time>2020-06-06T15:30:01.000Z</time>
      </trkpt>
      <trkpt lat="43.659" lon="3.88009">
        <ele>67.09319347588</ele>
        <time>2020-06-06T15:30:02.000Z</time>
      </trkpt>
      <trkpt lat="43.65896" lon="3.88009">
        <ele>67</ele>
        <time>2020-06-06T15:30:03.000Z</time>
      </trkpt>
      <trkpt lat="43.65891" lon="3.88009">
        <ele>67</ele>
        <time>2020-06-06T15:30:04.000Z</time>
      </trkpt>
      <trkpt lat="43.65886" lon="3.88009">
        <ele>67</ele>
        <time>2020-06-06T15:30:05.000Z</time>
      </trkpt>
      <trkpt lat="43.65881" lon="3.88008">
        <ele>67</ele>
        <time>2020-06-06T15:30:06.000Z</time>
      </trkpt>
      <trkpt lat="43.65876" lon="3.88007">
        <ele>67</ele>
        <time>2020-06-06T15:30:07.000Z</time>
      </trkpt>
      <trkpt lat="43.65871" lon="3.88007">
        <ele>67</ele>
        <time>2020-06-06T15:30:08.000Z</time>
      </trkpt>
      <trkpt lat="43.65867" lon="3.88006">
        <ele>67</ele>
        <time>2020-06-06T15:30:09.000Z</time>
      </trkpt>
      <trkpt lat="43.65863" lon="3.88004">
        <ele>67</ele>
        <time>2020-06-06T15:30:10.000Z</time>
      </trkpt>
      <trkpt lat="43.65859" lon="3.88002">
        <ele>67</ele>
        <time>2020-06-06T15:30:11.000Z</time>
      </trkpt>
      <trkpt lat="43.65856" lon="3.88001">
        <ele>67</ele>
        <time>2020-06-06T15:30:12.000Z</time>
      </trkpt>
      <trkpt lat="43.65854" lon="3.88">
        <ele>67</ele>
        <time>2020-06-06T15:30:13.000Z</time>
      </trkpt>
      <trkpt lat="43.65851" lon="3.87998">
        <ele>66.915551553995</ele>
        <time>2020-06-06T15:30:14.000Z</time>
      </trkpt>
      <trkpt lat="43.65849" lon="3.87996">
        <ele>66.812564840435</ele>
        <time>2020-06-06T15:30:15.000Z</time>
      </trkpt>
      <trkpt lat="43.65846" lon="3.87996">
        <ele>66.709578126874</ele>
        <time>2020-06-06T15:30:16.000Z</time>
      </trkpt>
      <trkpt lat="43.65843" lon="3.87996">
        <ele>66.606591413314</ele>
        <time>2020-06-06T15:30:17.000Z</time>
      </trkpt>
      <trkpt lat="43.65839" lon="3.87996">
        <ele>66.503604699753</ele>
        <time>2020-06-06T15:30:18.000Z</time>
      </trkpt>
      <trkpt lat="43.65835" lon="3.87994">
        <ele>66.400617986193</ele>
        <time>2020-06-06T15:30:19.000Z</time>
      </trkpt>
      <trkpt lat="43.65832" lon="3.87991">
        <ele>66.297631272632</ele>
        <time>2020-06-06T15:30:20.000Z</time>
      </trkpt>
      <trkpt lat="43.6583" lon="3.87989">
        <ele>66.194644559072</ele>
        <time>2020-06-06T15:30:21.000Z</time>
      </trkpt>
      <trkpt lat="43.65828" lon="3.87986">
        <ele>66.091657845511</ele>
        <time>2020-06-06T15:30:22.000Z</time>
      </trkpt>
      <trkpt lat="43.65827" lon="3.87984">
        <ele>66.01207499027</ele>
        <time>2020-06-06T15:30:23.000Z</time>
      </trkpt>
      <trkpt lat="43.65826" lon="3.87981">
        <ele>66.121844435796</ele>
        <time>2020-06-06T15:30:24.000Z</time>
      </trkpt>
      <trkpt lat="43.65824" lon="3.87978">
        <ele>66.341383326847</ele>
        <time>2020-06-06T15:30:26.000Z</time>
      </trkpt>
      <trkpt lat="43.65823" lon="3.87978">
        <ele>67</ele>
        <time>2020-06-06T15:30:32.000Z</time>
      </trkpt>
      <trkpt lat="43.65811" lon="3.87986">
        <ele>66.011851846233</ele>
        <time>2020-06-06T15:30:39.000Z</time>
      </trkpt>
      <trkpt lat="43.65806" lon="3.87987">
        <ele>65.907237156285</ele>
        <time>2020-06-06T15:30:40.000Z</time>
      </trkpt>
      <trkpt lat="43.65802" lon="3.87988">
        <ele>65.805300323849</ele>
        <time>2020-06-06T15:30:41.000Z</time>
      </trkpt>
      <trkpt lat="43.65797" lon="3.87988">
        <ele>65.703363491413</ele>
        <time>2020-06-06T15:30:42.000Z</time>
      </trkpt>
      <trkpt lat="43.65791" lon="3.87989">
        <ele>65.601426658977</ele>
        <time>2020-06-06T15:30:43.000Z</time>
      </trkpt>
      <trkpt lat="43.65786" lon="3.8799">
        <ele>65.499489826541</ele>
        <time>2020-06-06T15:30:44.000Z</time>
      </trkpt>
      <trkpt lat="43.6578" lon="3.87989">
        <ele>65.397552994105</ele>
        <time>2020-06-06T15:30:45.000Z</time>
      </trkpt>
      <trkpt lat="43.65774" lon="3.87988">
        <ele>65.295616161669</ele>
        <time>2020-06-06T15:30:46.000Z</time>
      </trkpt>
      <trkpt lat="43.65769" lon="3.87988">
        <ele>65.193679329233</ele>
        <time>2020-06-06T15:30:47.000Z</time>
      </trkpt>
      <trkpt lat="43.65764" lon="3.87989">
        <ele>65.091742496797</ele>
        <time>2020-06-06T15:30:48.000Z</time>
      </trkpt>
      <trkpt lat="43.65758" lon="3.8799">
        <ele>64.971290055083</ele>
        <time>2020-06-06T15:30:49.000Z</time>
      </trkpt>
      <trkpt lat="43.65753" lon="3.87991">
        <ele>64.6842089791</ele>
        <time>2020-06-06T15:30:50.000Z</time>
      </trkpt>
      <trkpt lat="43.65747" lon="3.87991">
        <ele>64.397127903117</ele>
        <time>2020-06-06T15:30:51.000Z</time>
      </trkpt>
      <trkpt lat="43.65742" lon="3.87992">
        <ele>64.110046827134</ele>
        <time>2020-06-06T15:30:52.000Z</time>
      </trkpt>
      <trkpt lat="43.65737" lon="3.87993">
        <ele>63.822965751151</ele>
        <time>2020-06-06T15:30:53.000Z</time>
      </trkpt>
      <trkpt lat="43.65733" lon="3.87995">
        <ele>63.535884675168</ele>
        <time>2020-06-06T15:30:54.000Z</time>
      </trkpt>
      <trkpt lat="43.65728" lon="3.87998">
        <ele>63.248803599185</ele>
        <time>2020-06-06T15:30:55.000Z</time>
      </trkpt>
      <trkpt lat="43.65724" lon="3.88002">
        <ele>62.961722523202</ele>
        <time>2020-06-06T15:30:56.000Z</time>
      </trkpt>
      <trkpt lat="43.6572" lon="3.88007">
        <ele>62.674641447219</ele>
        <time>2020-06-06T15:30:57.000Z</time>
      </trkpt>
      <trkpt lat="43.65716" lon="3.88011">
        <ele>62.387560371236</ele>
        <time>2020-06-06T15:30:58.000Z</time>
      </trkpt>
      <trkpt lat="43.65712" lon="3.88015">
        <ele>62.100479295253</ele>
        <time>2020-06-06T15:30:59.000Z</time>
      </trkpt>
      <trkpt lat="43.65707" lon="3.88018">
        <ele>61.931866117814</ele>
        <time>2020-06-06T15:31:00.000Z</time>
      </trkpt>
      <trkpt lat="43.65702" lon="3.88021">
        <ele>61.827044244558</ele>
        <time>2020-06-06T15:31:01.000Z</time>
      </trkpt>
      <trkpt lat="43.65697" lon="3.88022">
        <ele>61.722222371302</ele>
        <time>2020-06-06T15:31:02.000Z</time>
      </trkpt>
      <trkpt lat="43.65691" lon="3.88024">
        <ele>61.617400498046</ele>
        <time>2020-06-06T15:31:03.000Z</time>
      </trkpt>
      <trkpt lat="43.65686" lon="3.88025">
        <ele>61.512578624791</ele>
        <time>2020-06-06T15:31:04.000Z</time>
      </trkpt>
      <trkpt lat="43.65681" lon="3.88026">
        <ele>61.407756751535</ele>
        <time>2020-06-06T15:31:05.000Z</time>
      </trkpt>
      <trkpt lat="43.65675" lon="3.88027">
        <ele>61.302934878279</ele>
        <time>2020-06-06T15:31:06.000Z</time>
      </trkpt>
      <trkpt lat="43.65671" lon="3.88028">
        <ele>61.198113005023</ele>
        <time>2020-06-06T15:31:07.000Z</time>
      </trkpt>
      <trkpt lat="43.65666" lon="3.88028">
        <ele>61.093291131768</ele>
        <time>2020-06-06T15:31:08.000Z</time>
      </trkpt>
      <trkpt lat="43.65661" lon="3.88028">
        <ele>60.989278447234</ele>
        <time>2020-06-06T15:31:09.000Z</time>
      </trkpt>
      <trkpt lat="43.65656" lon="3.88027">
        <ele>60.891812621092</ele>
        <time>2020-06-06T15:31:10.000Z</time>
      </trkpt>
      <trkpt lat="43.65651" lon="3.88028">
        <ele>60.794346794949</ele>
        <time>2020-06-06T15:31:11.000Z</time>
      </trkpt>
      <trkpt lat="43.65646" lon="3.88029">
        <ele>60.696880968807</ele>
        <time>2020-06-06T15:31:12.000Z</time>
      </trkpt>
      <trkpt lat="43.65641" lon="3.8803">
        <ele>60.599415142665</ele>
        <time>2020-06-06T15:31:13.000Z</time>
      </trkpt>
      <trkpt lat="43.65636" lon="3.88032">
        <ele>60.501949316523</ele>
        <time>2020-06-06T15:31:14.000Z</time>
      </trkpt>
      <trkpt lat="43.65632" lon="3.88033">
        <ele>60.404483490381</ele>
        <time>2020-06-06T15:31:15.000Z</time>
      </trkpt>
      <trkpt lat="43.65629" lon="3.88036">
        <ele>60.307017664239</ele>
        <time>2020-06-06T15:31:16.000Z</time>
      </trkpt>
      <trkpt lat="43.65625" lon="3.88039">
        <ele>60.209551838096</ele>
        <time>2020-06-06T15:31:17.000Z</time>
      </trkpt>
      <trkpt lat="43.65622" lon="3.88042">
        <ele>60.112086011954</ele>
        <time>2020-06-06T15:31:18.000Z</time>
      </trkpt>
      <trkpt lat="43.65619" lon="3.88046">
        <ele>60.014620185812</ele>
        <time>2020-06-06T15:31:19.000Z</time>
      </trkpt>
      <trkpt lat="43.65615" lon="3.88049">
        <ele>59.912731277359</ele>
        <time>2020-06-06T15:31:20.000Z</time>
      </trkpt>
      <trkpt lat="43.65612" lon="3.88052">
        <ele>59.810061805379</ele>
        <time>2020-06-06T15:31:21.000Z</time>
      </trkpt>
      <trkpt lat="43.65608" lon="3.88054">
        <ele>59.707392333399</ele>
        <time>2020-06-06T15:31:22.000Z</time>
      </trkpt>
      <trkpt lat="43.65605" lon="3.88056">
        <ele>59.60472286142</ele>
        <time>2020-06-06T15:31:23.000Z</time>
      </trkpt>
      <trkpt lat="43.65601" lon="3.88058">
        <ele>59.50205338944</ele>
        <time>2020-06-06T15:31:24.000Z</time>
      </trkpt>
      <trkpt lat="43.65598" lon="3.88059">
        <ele>59.39938391746</ele>
        <time>2020-06-06T15:31:25.000Z</time>
      </trkpt>
      <trkpt lat="43.65595" lon="3.88061">
        <ele>59.29671444548</ele>
        <time>2020-06-06T15:31:26.000Z</time>
      </trkpt>
      <trkpt lat="43.65592" lon="3.88062">
        <ele>59.1940449735</ele>
        <time>2020-06-06T15:31:27.000Z</time>
      </trkpt>
      <trkpt lat="43.65588" lon="3.88064">
        <ele>59.09137550152</ele>
        <time>2020-06-06T15:31:28.000Z</time>
      </trkpt>
      <trkpt lat="43.65584" lon="3.88065">
        <ele>58.98899968</ele>
        <time>2020-06-06T15:31:29.000Z</time>
      </trkpt>
      <trkpt lat="43.6558" lon="3.88066">
        <ele>58.88899968</ele>
        <time>2020-06-06T15:31:30.000Z</time>
      </trkpt>
      <trkpt lat="43.65576" lon="3.88067">
        <ele>58.78899968</ele>
        <time>2020-06-06T15:31:31.000Z</time>
      </trkpt>
      <trkpt lat="43.65572" lon="3.88068">
        <ele>58.68899968</ele>
        <time>2020-06-06T15:31:32.000Z</time>
      </trkpt>
      <trkpt lat="43.65568" lon="3.88069">
        <ele>58.58899968</ele>
        <time>2020-06-06T15:31:33.000Z</time>
      </trkpt>
      <trkpt lat="43.65564" lon="3.8807">
        <ele>58.48899968</ele>
        <time>2020-06-06T15:31:34.000Z</time>
      </trkpt>
      <trkpt lat="43.6556" lon="3.8807">
        <ele>58.38899968</ele>
        <time>2020-06-06T15:31:35.000Z</time>
      </trkpt>
      <trkpt lat="43.65556" lon="3.88069">
        <ele>58.28899968</ele>
        <time>2020-06-06T15:31:36.000Z</time>
      </trkpt>
      <trkpt lat="43.65552" lon="3.88067">
        <ele>58.18899968</ele>
        <time>2020-06-06T15:31:37.000Z</time>
      </trkpt>
      <trkpt lat="43.65548" lon="3.88066">
        <ele>58.08899968</ele>
        <time>2020-06-06T15:31:38.000Z</time>
      </trkpt>
      <trkpt lat="43.65545" lon="3.88065">
        <ele>57.98899968</ele>
        <time>2020-06-06T15:31:39.000Z</time>
      </trkpt>
      <trkpt lat="43.65541" lon="3.88063">
        <ele>57.88899968</ele>
        <time>2020-06-06T15:31:40.000Z</time>
      </trkpt>
      <trkpt lat="43.65539" lon="3.88062">
        <ele>57.78899968</ele>
        <time>2020-06-06T15:31:41.000Z</time>
      </trkpt>
      <trkpt lat="43.65536" lon="3.8806">
        <ele>57.68899968</ele>
        <time>2020-06-06T15:31:42.000Z</time>
      </trkpt>
      <trkpt lat="43.65534" lon="3.88061">
        <ele>57.58899968</ele>
        <time>2020-06-06T15:31:43.000Z</time>
      </trkpt>
      <trkpt lat="43.65531" lon="3.88063">
        <ele>57.48899968</ele>
        <time>2020-06-06T15:31:44.000Z</time>
      </trkpt>
      <trkpt lat="43.65529" lon="3.88065">
        <ele>57.38899968</ele>
        <time>2020-06-06T15:31:45.000Z</time>
      </trkpt>
      <trkpt lat="43.65527" lon="3.88067">
        <ele>57.28899968</ele>
        <time>2020-06-06T15:31:46.000Z</time>
      </trkpt>
      <trkpt lat="43.65525" lon="3.88069">
        <ele>57.18899968</ele>
        <time>2020-06-06T15:31:47.000Z</time>
      </trkpt>
      <trkpt lat="43.65522" lon="3.88072">
        <ele>57.08899968</ele>
        <time>2020-06-06T15:31:48.000Z</time>
      </trkpt>
      <trkpt lat="43.6552" lon="3.88074">
        <ele>57</ele>
        <time>2020-06-06T15:31:49.000Z</time>
      </trkpt>
      <trkpt lat="43.65517" lon="3.88077">
        <ele>57</ele>
        <time>2020-06-06T15:31:50.000Z</time>
      </trkpt>
      <trkpt lat="43.65515" lon="3.88079">
        <ele>57</ele>
        <time>2020-06-06T15:31:51.000Z</time>
      </trkpt>
      <trkpt lat="43.65513" lon="3.8808">
        <ele>57</ele>
        <time>2020-06-06T15:31:52.000Z</time>
      </trkpt>
      <trkpt lat="43.6551" lon="3.88082">
        <ele>57</ele>
        <time>2020-06-06T15:31:53.000Z</time>
      </trkpt>
      <trkpt lat="43.65508" lon="3.88084">
        <ele>57</ele>
        <time>2020-06-06T15:31:54.000Z</time>
      </trkpt>
      <trkpt lat="43.65506" lon="3.88086">
        <ele>57</ele>
        <time>2020-06-06T15:31:55.000Z</time>
      </trkpt>
      <trkpt lat="43.65504" lon="3.88088">
        <ele>57</ele>
        <time>2020-06-06T15:31:56.000Z</time>
      </trkpt>
      <trkpt lat="43.65502" lon="3.88089">
        <ele>57</ele>
        <time>2020-06-06T15:31:57.000Z</time>
      </trkpt>
      <trkpt lat="43.655" lon="3.8809">
        <ele>57</ele>
        <time>2020-06-06T15:31:58.000Z</time>
      </trkpt>
      <trkpt lat="43.65497" lon="3.8809">
        <ele>56.805076078806</ele>
        <time>2020-06-06T15:32:00.000Z</time>
      </trkpt>
      <trkpt lat="43.65495" lon="3.88088">
        <ele>56.39898457632</ele>
        <time>2020-06-06T15:32:02.000Z</time>
      </trkpt>
      <trkpt lat="43.65494" lon="3.8809">
        <ele>55.383755820103</ele>
        <time>2020-06-06T15:32:07.000Z</time>
      </trkpt>
      <trkpt lat="43.65492" lon="3.8809">
        <ele>54.98899968</ele>
        <time>2020-06-06T15:32:09.000Z</time>
      </trkpt>
      <trkpt lat="43.65489" lon="3.88091">
        <ele>54.78899968</ele>
        <time>2020-06-06T15:32:11.000Z</time>
      </trkpt>
      <trkpt lat="43.65488" lon="3.88092">
        <ele>54.68899968</ele>
        <time>2020-06-06T15:32:12.000Z</time>
      </trkpt>
      <trkpt lat="43.65486" lon="3.88094">
        <ele>54.58899968</ele>
        <time>2020-06-06T15:32:13.000Z</time>
      </trkpt>
      <trkpt lat="43.65484" lon="3.88095">
        <ele>54.48899968</ele>
        <time>2020-06-06T15:32:14.000Z</time>
      </trkpt>
      <trkpt lat="43.65483" lon="3.88096">
        <ele>54.38899968</ele>
        <time>2020-06-06T15:32:15.000Z</time>
      </trkpt>
      <trkpt lat="43.65481" lon="3.88098">
        <ele>54.28899968</ele>
        <time>2020-06-06T15:32:16.000Z</time>
      </trkpt>
      <trkpt lat="43.65478" lon="3.88099">
        <ele>54.18899968</ele>
        <time>2020-06-06T15:32:17.000Z</time>
      </trkpt>
      <trkpt lat="43.65476" lon="3.881">
        <ele>54.08899968</ele>
        <time>2020-06-06T15:32:18.000Z</time>
      </trkpt>
      <trkpt lat="43.65474" lon="3.88102">
        <ele>53.98899968</ele>
        <time>2020-06-06T15:32:19.000Z</time>
      </trkpt>
      <trkpt lat="43.65472" lon="3.88103">
        <ele>53.88899968</ele>
        <time>2020-06-06T15:32:20.000Z</time>
      </trkpt>
      <trkpt lat="43.65471" lon="3.88104">
        <ele>53.78899968</ele>
        <time>2020-06-06T15:32:21.000Z</time>
      </trkpt>
      <trkpt lat="43.65469" lon="3.88106">
        <ele>53.68899968</ele>
        <time>2020-06-06T15:32:22.000Z</time>
      </trkpt>
      <trkpt lat="43.65467" lon="3.88107">
        <ele>53.58899968</ele>
        <time>2020-06-06T15:32:23.000Z</time>
      </trkpt>
      <trkpt lat="43.65465" lon="3.88108">
        <ele>53.48899968</ele>
        <time>2020-06-06T15:32:24.000Z</time>
      </trkpt>
      <trkpt lat="43.65463" lon="3.8811">
        <ele>53.38899968</ele>
        <time>2020-06-06T15:32:25.000Z</time>
      </trkpt>
      <trkpt lat="43.65462" lon="3.88112">
        <ele>53.28899968</ele>
        <time>2020-06-06T15:32:26.000Z</time>
      </trkpt>
      <trkpt lat="43.6546" lon="3.88112">
        <ele>53.18899968</ele>
        <time>2020-06-06T15:32:27.000Z</time>
      </trkpt>
      <trkpt lat="43.65457" lon="3.88113">
        <ele>53.08899968</ele>
        <time>2020-06-06T15:32:28.000Z</time>
      </trkpt>
      <trkpt lat="43.65455" lon="3.88115">
        <ele>53</ele>
        <time>2020-06-06T15:32:29.000Z</time>
      </trkpt>
      <trkpt lat="43.65453" lon="3.88116">
        <ele>53</ele>
        <time>2020-06-06T15:32:30.000Z</time>
      </trkpt>
      <trkpt lat="43.65451" lon="3.88118">
        <ele>53</ele>
        <time>2020-06-06T15:32:31.000Z</time>
      </trkpt>
      <trkpt lat="43.65449" lon="3.88119">
        <ele>53</ele>
        <time>2020-06-06T15:32:32.000Z</time>
      </trkpt>
      <trkpt lat="43.65447" lon="3.88121">
        <ele>53</ele>
        <time>2020-06-06T15:32:33.000Z</time>
      </trkpt>
      <trkpt lat="43.65445" lon="3.88122">
        <ele>53</ele>
        <time>2020-06-06T15:32:34.000Z</time>
      </trkpt>
      <trkpt lat="43.65442" lon="3.88122">
        <ele>53</ele>
        <time>2020-06-06T15:32:35.000Z</time>
      </trkpt>
      <trkpt lat="43.6544" lon="3.88122">
        <ele>53</ele>
        <time>2020-06-06T15:32:36.000Z</time>
      </trkpt>
      <trkpt lat="43.65438" lon="3.88124">
        <ele>53</ele>
        <time>2020-06-06T15:32:37.000Z</time>
      </trkpt>
      <trkpt lat="43.65436" lon="3.88126">
        <ele>53</ele>
        <time>2020-06-06T15:32:38.000Z</time>
      </trkpt>
      <trkpt lat="43.65436" lon="3.88128">
        <ele>53</ele>
        <time>2020-06-06T15:32:39.000Z</time>
      </trkpt>
      <trkpt lat="43.65436" lon="3.8813">
        <ele>53</ele>
        <time>2020-06-06T15:32:40.000Z</time>
      </trkpt>
      <trkpt lat="43.65436" lon="3.88133">
        <ele>53</ele>
        <time>2020-06-06T15:32:41.000Z</time>
      </trkpt>
      <trkpt lat="43.65437" lon="3.88135">
        <ele>53</ele>
        <time>2020-06-06T15:32:42.000Z</time>
      </trkpt>
      <trkpt lat="43.65438" lon="3.88136">
        <ele>53</ele>
        <time>2020-06-06T15:32:48.000Z</time>
      </trkpt>
      <trkpt lat="43.65436" lon="3.88135">
        <ele>53.99141400664</ele>
        <time>2020-06-06T15:33:25.000Z</time>
      </trkpt>
      <trkpt lat="43.65436" lon="3.88135">
        <ele>54</ele>
        <time>2020-06-06T15:33:29.000Z</time>
      </trkpt>
      <trkpt lat="43.65435" lon="3.8813">
        <ele>54</ele>
        <time>2020-06-06T15:34:25.000Z</time>
      </trkpt>
      <trkpt lat="43.65435" lon="3.88129">
        <ele>54</ele>
        <time>2020-06-06T15:34:32.000Z</time>
      </trkpt>
      <trkpt lat="43.65437" lon="3.88136">
        <ele>54.999792735378</ele>
        <time>2020-06-06T15:37:45.000Z</time>
      </trkpt>
      <trkpt lat="43.65437" lon="3.88136">
        <ele>55</ele>
        <time>2020-06-06T15:37:48.000Z</time>
      </trkpt>
      <trkpt lat="43.65436" lon="3.88125">
        <ele>55</ele>
        <time>2020-06-06T15:38:09.000Z</time>
      </trkpt>
      <trkpt lat="43.65438" lon="3.88124">
        <ele>54.90345495935</ele>
        <time>2020-06-06T15:38:10.000Z</time>
      </trkpt>
      <trkpt lat="43.6544" lon="3.88123">
        <ele>54.801828943089</ele>
        <time>2020-06-06T15:38:11.000Z</time>
      </trkpt>
      <trkpt lat="43.65443" lon="3.88122">
        <ele>54.700202926829</ele>
        <time>2020-06-06T15:38:12.000Z</time>
      </trkpt>
      <trkpt lat="43.65445" lon="3.8812">
        <ele>54.598576910569</ele>
        <time>2020-06-06T15:38:13.000Z</time>
      </trkpt>
      <trkpt lat="43.65448" lon="3.88118">
        <ele>54.496950894309</ele>
        <time>2020-06-06T15:38:14.000Z</time>
      </trkpt>
      <trkpt lat="43.6545" lon="3.88117">
        <ele>54.395324878049</ele>
        <time>2020-06-06T15:38:15.000Z</time>
      </trkpt>
      <trkpt lat="43.65453" lon="3.88115">
        <ele>54.293698861789</ele>
        <time>2020-06-06T15:38:16.000Z</time>
      </trkpt>
      <trkpt lat="43.65455" lon="3.88113">
        <ele>54.192072845529</ele>
        <time>2020-06-06T15:38:17.000Z</time>
      </trkpt>
      <trkpt lat="43.65457" lon="3.88112">
        <ele>54.090446829268</ele>
        <time>2020-06-06T15:38:18.000Z</time>
      </trkpt>
      <trkpt lat="43.65459" lon="3.88111">
        <ele>54</ele>
        <time>2020-06-06T15:38:19.000Z</time>
      </trkpt>
      <trkpt lat="43.65461" lon="3.88109">
        <ele>54</ele>
        <time>2020-06-06T15:38:20.000Z</time>
      </trkpt>
      <trkpt lat="43.65463" lon="3.88108">
        <ele>54</ele>
        <time>2020-06-06T15:38:21.000Z</time>
      </trkpt>
      <trkpt lat="43.65465" lon="3.88106">
        <ele>54</ele>
        <time>2020-06-06T15:38:22.000Z</time>
      </trkpt>
      <trkpt lat="43.65468" lon="3.88103">
        <ele>54</ele>
        <time>2020-06-06T15:38:23.000Z</time>
      </trkpt>
      <trkpt lat="43.65471" lon="3.88101">
        <ele>54</ele>
        <time>2020-06-06T15:38:24.000Z</time>
      </trkpt>
      <trkpt lat="43.65473" lon="3.88099">
        <ele>54</ele>
        <time>2020-06-06T15:38:25.000Z</time>
      </trkpt>
      <trkpt lat="43.65476" lon="3.88098">
        <ele>54</ele>
        <time>2020-06-06T15:38:26.000Z</time>
      </trkpt>
      <trkpt lat="43.65479" lon="3.88097">
        <ele>54</ele>
        <time>2020-06-06T15:38:27.000Z</time>
      </trkpt>
      <trkpt lat="43.65481" lon="3.88095">
        <ele>54</ele>
        <time>2020-06-06T15:38:28.000Z</time>
      </trkpt>
      <trkpt lat="43.65484" lon="3.88094">
        <ele>54</ele>
        <time>2020-06-06T15:38:29.000Z</time>
      </trkpt>
      <trkpt lat="43.65486" lon="3.88092">
        <ele>53.919371302064</ele>
        <time>2020-06-06T15:38:30.000Z</time>
      </trkpt>
      <trkpt lat="43.65488" lon="3.88091">
        <ele>53.821042854212</ele>
        <time>2020-06-06T15:38:31.000Z</time>
      </trkpt>
      <trkpt lat="43.6549" lon="3.8809">
        <ele>53.722714406361</ele>
        <time>2020-06-06T15:38:32.000Z</time>
      </trkpt>
      <trkpt lat="43.65493" lon="3.88088">
        <ele>53.526057510657</ele>
        <time>2020-06-06T15:38:34.000Z</time>
      </trkpt>
      <trkpt lat="43.65494" lon="3.88085">
        <ele>53.231072167102</ele>
        <time>2020-06-06T15:38:37.000Z</time>
      </trkpt>
      <trkpt lat="43.65496" lon="3.88083">
        <ele>53.034415271399</ele>
        <time>2020-06-06T15:38:39.000Z</time>
      </trkpt>
      <trkpt lat="43.65499" lon="3.88083">
        <ele>53</ele>
        <time>2020-06-06T15:38:41.000Z</time>
      </trkpt>
      <trkpt lat="43.65501" lon="3.88083">
        <ele>53</ele>
        <time>2020-06-06T15:38:43.000Z</time>
      </trkpt>
      <trkpt lat="43.65504" lon="3.88082">
        <ele>53</ele>
        <time>2020-06-06T15:38:45.000Z</time>
      </trkpt>
      <trkpt lat="43.65506" lon="3.88079">
        <ele>53</ele>
        <time>2020-06-06T15:38:47.000Z</time>
      </trkpt>
      <trkpt lat="43.65508" lon="3.88078">
        <ele>53</ele>
        <time>2020-06-06T15:38:48.000Z</time>
      </trkpt>
      <trkpt lat="43.6551" lon="3.88076">
        <ele>53</ele>
        <time>2020-06-06T15:38:49.000Z</time>
      </trkpt>
      <trkpt lat="43.65512" lon="3.88074">
        <ele>52.604462082296</ele>
        <time>2020-06-06T15:38:51.000Z</time>
      </trkpt>
      <trkpt lat="43.65514" lon="3.88072">
        <ele>52.401622457365</ele>
        <time>2020-06-06T15:38:52.000Z</time>
      </trkpt>
      <trkpt lat="43.65515" lon="3.88071">
        <ele>52.198782832433</ele>
        <time>2020-06-06T15:38:53.000Z</time>
      </trkpt>
      <trkpt lat="43.65517" lon="3.88069">
        <ele>51.995943207501</ele>
        <time>2020-06-06T15:38:54.000Z</time>
      </trkpt>
      <trkpt lat="43.65519" lon="3.88067">
        <ele>51.79310358257</ele>
        <time>2020-06-06T15:38:55.000Z</time>
      </trkpt>
      <trkpt lat="43.65521" lon="3.88065">
        <ele>51.590263957638</ele>
        <time>2020-06-06T15:38:56.000Z</time>
      </trkpt>
      <trkpt lat="43.65524" lon="3.88063">
        <ele>51.387424332706</ele>
        <time>2020-06-06T15:38:57.000Z</time>
      </trkpt>
      <trkpt lat="43.65526" lon="3.88061">
        <ele>51.184584707775</ele>
        <time>2020-06-06T15:38:58.000Z</time>
      </trkpt>
      <trkpt lat="43.65529" lon="3.8806">
        <ele>51.009017721214</ele>
        <time>2020-06-06T15:38:59.000Z</time>
      </trkpt>
      <trkpt lat="43.6553" lon="3.88058">
        <ele>51.109218186272</ele>
        <time>2020-06-06T15:39:00.000Z</time>
      </trkpt>
      <trkpt lat="43.65532" lon="3.88056">
        <ele>51.209418651331</ele>
        <time>2020-06-06T15:39:01.000Z</time>
      </trkpt>
      <trkpt lat="43.65534" lon="3.88055">
        <ele>51.309619116389</ele>
        <time>2020-06-06T15:39:02.000Z</time>
      </trkpt>
      <trkpt lat="43.65534" lon="3.88049">
        <ele>51.510020046506</ele>
        <time>2020-06-06T15:39:04.000Z</time>
      </trkpt>
      <trkpt lat="43.65534" lon="3.88046">
        <ele>51.610220511564</ele>
        <time>2020-06-06T15:39:05.000Z</time>
      </trkpt>
      <trkpt lat="43.65533" lon="3.88042">
        <ele>51.710420976623</ele>
        <time>2020-06-06T15:39:06.000Z</time>
      </trkpt>
      <trkpt lat="43.65532" lon="3.88038">
        <ele>51.810621441681</ele>
        <time>2020-06-06T15:39:07.000Z</time>
      </trkpt>
      <trkpt lat="43.65531" lon="3.88033">
        <ele>51.910821906739</ele>
        <time>2020-06-06T15:39:08.000Z</time>
      </trkpt>
      <trkpt lat="43.6553" lon="3.88029">
        <ele>51.98899968</ele>
        <time>2020-06-06T15:39:09.000Z</time>
      </trkpt>
      <trkpt lat="43.65529" lon="3.88023">
        <ele>51.88899968</ele>
        <time>2020-06-06T15:39:10.000Z</time>
      </trkpt>
      <trkpt lat="43.65528" lon="3.88018">
        <ele>51.78899968</ele>
        <time>2020-06-06T15:39:11.000Z</time>
      </trkpt>
      <trkpt lat="43.65527" lon="3.88013">
        <ele>51.68899968</ele>
        <time>2020-06-06T15:39:12.000Z</time>
      </trkpt>
      <trkpt lat="43.65525" lon="3.88007">
        <ele>51.58899968</ele>
        <time>2020-06-06T15:39:13.000Z</time>
      </trkpt>
      <trkpt lat="43.65524" lon="3.88002">
        <ele>51.48899968</ele>
        <time>2020-06-06T15:39:14.000Z</time>
      </trkpt>
      <trkpt lat="43.65523" lon="3.87996">
        <ele>51.38899968</ele>
        <time>2020-06-06T15:39:15.000Z</time>
      </trkpt>
      <trkpt lat="43.65521" lon="3.87991">
        <ele>51.28899968</ele>
        <time>2020-06-06T15:39:16.000Z</time>
      </trkpt>
      <trkpt lat="43.65519" lon="3.87985">
        <ele>51.18899968</ele>
        <time>2020-06-06T15:39:17.000Z</time>
      </trkpt>
      <trkpt lat="43.65518" lon="3.8798">
        <ele>51.08899968</ele>
        <time>2020-06-06T15:39:18.000Z</time>
      </trkpt>
      <trkpt lat="43.65517" lon="3.87975">
        <ele>51</ele>
        <time>2020-06-06T15:39:19.000Z</time>
      </trkpt>
      <trkpt lat="43.65515" lon="3.8797">
        <ele>51</ele>
        <time>2020-06-06T15:39:20.000Z</time>
      </trkpt>
      <trkpt lat="43.65514" lon="3.87965">
        <ele>51</ele>
        <time>2020-06-06T15:39:21.000Z</time>
      </trkpt>
      <trkpt lat="43.65513" lon="3.87959">
        <ele>51</ele>
        <time>2020-06-06T15:39:22.000Z</time>
      </trkpt>
      <trkpt lat="43.65512" lon="3.87954">
        <ele>51</ele>
        <time>2020-06-06T15:39:23.000Z</time>
      </trkpt>
      <trkpt lat="43.65511" lon="3.87949">
        <ele>51</ele>
        <time>2020-06-06T15:39:24.000Z</time>
      </trkpt>
      <trkpt lat="43.6551" lon="3.87944">
        <ele>51</ele>
        <time>2020-06-06T15:39:25.000Z</time>
      </trkpt>
      <trkpt lat="43.65509" lon="3.87939">
        <ele>51</ele>
        <time>2020-06-06T15:39:26.000Z</time>
      </trkpt>
      <trkpt lat="43.65507" lon="3.87934">
        <ele>51</ele>
        <time>2020-06-06T15:39:27.000Z</time>
      </trkpt>
      <trkpt lat="43.65506" lon="3.87928">
        <ele>51</ele>
        <time>2020-06-06T15:39:28.000Z</time>
      </trkpt>
      <trkpt lat="43.65504" lon="3.87923">
        <ele>51</ele>
        <time>2020-06-06T15:39:29.000Z</time>
      </trkpt>
      <trkpt lat="43.65502" lon="3.87918">
        <ele>51</ele>
        <time>2020-06-06T15:39:30.000Z</time>
      </trkpt>
      <trkpt lat="43.655" lon="3.87913">
        <ele>51</ele>
        <time>2020-06-06T15:39:31.000Z</time>
      </trkpt>
      <trkpt lat="43.65499" lon="3.87908">
        <ele>51</ele>
        <time>2020-06-06T15:39:32.000Z</time>
      </trkpt>
      <trkpt lat="43.65497" lon="3.87902">
        <ele>51</ele>
        <time>2020-06-06T15:39:33.000Z</time>
      </trkpt>
      <trkpt lat="43.65496" lon="3.87897">
        <ele>51</ele>
        <time>2020-06-06T15:39:34.000Z</time>
      </trkpt>
      <trkpt lat="43.65494" lon="3.87892">
        <ele>51</ele>
        <time>2020-06-06T15:39:35.000Z</time>
      </trkpt>
      <trkpt lat="43.65493" lon="3.87887">
        <ele>51</ele>
        <time>2020-06-06T15:39:36.000Z</time>
      </trkpt>
      <trkpt lat="43.65492" lon="3.87883">
        <ele>51</ele>
        <time>2020-06-06T15:39:37.000Z</time>
      </trkpt>
      <trkpt lat="43.65491" lon="3.87878">
        <ele>51</ele>
        <time>2020-06-06T15:39:38.000Z</time>
      </trkpt>
      <trkpt lat="43.6549" lon="3.87873">
        <ele>51</ele>
        <time>2020-06-06T15:39:39.000Z</time>
      </trkpt>
      <trkpt lat="43.65489" lon="3.87869">
        <ele>51</ele>
        <time>2020-06-06T15:39:40.000Z</time>
      </trkpt>
      <trkpt lat="43.65489" lon="3.87864">
        <ele>51</ele>
        <time>2020-06-06T15:39:41.000Z</time>
      </trkpt>
      <trkpt lat="43.65489" lon="3.87859">
        <ele>51</ele>
        <time>2020-06-06T15:39:42.000Z</time>
      </trkpt>
      <trkpt lat="43.65489" lon="3.87854">
        <ele>51</ele>
        <time>2020-06-06T15:39:43.000Z</time>
      </trkpt>
      <trkpt lat="43.65489" lon="3.87849">
        <ele>51</ele>
        <time>2020-06-06T15:39:44.000Z</time>
      </trkpt>
      <trkpt lat="43.6549" lon="3.87844">
        <ele>51</ele>
        <time>2020-06-06T15:39:45.000Z</time>
      </trkpt>
      <trkpt lat="43.65491" lon="3.87839">
        <ele>51</ele>
        <time>2020-06-06T15:39:46.000Z</time>
      </trkpt>
      <trkpt lat="43.65491" lon="3.87833">
        <ele>51</ele>
        <time>2020-06-06T15:39:47.000Z</time>
      </trkpt>
      <trkpt lat="43.65492" lon="3.87828">
        <ele>51</ele>
        <time>2020-06-06T15:39:48.000Z</time>
      </trkpt>
      <trkpt lat="43.65492" lon="3.87822">
        <ele>51</ele>
        <time>2020-06-06T15:39:49.000Z</time>
      </trkpt>
      <trkpt lat="43.65492" lon="3.87816">
        <ele>51</ele>
        <time>2020-06-06T15:39:50.000Z</time>
      </trkpt>
      <trkpt lat="43.65492" lon="3.8781">
        <ele>51</ele>
        <time>2020-06-06T15:39:51.000Z</time>
      </trkpt>
      <trkpt lat="43.65492" lon="3.87804">
        <ele>51</ele>
        <time>2020-06-06T15:39:52.000Z</time>
      </trkpt>
      <trkpt lat="43.65493" lon="3.87799">
        <ele>51</ele>
        <time>2020-06-06T15:39:53.000Z</time>
      </trkpt>
      <trkpt lat="43.65493" lon="3.87793">
        <ele>51</ele>
        <time>2020-06-06T15:39:54.000Z</time>
      </trkpt>
      <trkpt lat="43.65493" lon="3.87787">
        <ele>51</ele>
        <time>2020-06-06T15:39:55.000Z</time>
      </trkpt>
      <trkpt lat="43.65493" lon="3.87781">
        <ele>51</ele>
        <time>2020-06-06T15:39:56.000Z</time>
      </trkpt>
      <trkpt lat="43.65494" lon="3.87775">
        <ele>51</ele>
        <time>2020-06-06T15:39:57.000Z</time>
      </trkpt>
      <trkpt lat="43.65494" lon="3.87769">
        <ele>51</ele>
        <time>2020-06-06T15:39:58.000Z</time>
      </trkpt>
      <trkpt lat="43.65494" lon="3.87762">
        <ele>51</ele>
        <time>2020-06-06T15:39:59.000Z</time>
      </trkpt>
      <trkpt lat="43.65494" lon="3.87756">
        <ele>51</ele>
        <time>2020-06-06T15:40:00.000Z</time>
      </trkpt>
      <trkpt lat="43.65495" lon="3.8775">
        <ele>51</ele>
        <time>2020-06-06T15:40:01.000Z</time>
      </trkpt>
      <trkpt lat="43.65495" lon="3.87744">
        <ele>51</ele>
        <time>2020-06-06T15:40:02.000Z</time>
      </trkpt>
      <trkpt lat="43.65495" lon="3.87739">
        <ele>51</ele>
        <time>2020-06-06T15:40:03.000Z</time>
      </trkpt>
      <trkpt lat="43.65495" lon="3.87733">
        <ele>51</ele>
        <time>2020-06-06T15:40:04.000Z</time>
      </trkpt>
      <trkpt lat="43.65495" lon="3.87727">
        <ele>51</ele>
        <time>2020-06-06T15:40:05.000Z</time>
      </trkpt>
      <trkpt lat="43.65496" lon="3.87722">
        <ele>51</ele>
        <time>2020-06-06T15:40:06.000Z</time>
      </trkpt>
      <trkpt lat="43.65496" lon="3.87717">
        <ele>51</ele>
        <time>2020-06-06T15:40:07.000Z</time>
      </trkpt>
      <trkpt lat="43.65497" lon="3.87712">
        <ele>51</ele>
        <time>2020-06-06T15:40:08.000Z</time>
      </trkpt>
      <trkpt lat="43.65497" lon="3.87708">
        <ele>51.01100032</ele>
        <time>2020-06-06T15:40:09.000Z</time>
      </trkpt>
      <trkpt lat="43.65497" lon="3.87703">
        <ele>51.11100032</ele>
        <time>2020-06-06T15:40:10.000Z</time>
      </trkpt>
      <trkpt lat="43.65498" lon="3.87698">
        <ele>51.21100032</ele>
        <time>2020-06-06T15:40:11.000Z</time>
      </trkpt>
      <trkpt lat="43.65498" lon="3.87693">
        <ele>51.31100032</ele>
        <time>2020-06-06T15:40:12.000Z</time>
      </trkpt>
      <trkpt lat="43.65498" lon="3.87689">
        <ele>51.41100032</ele>
        <time>2020-06-06T15:40:13.000Z</time>
      </trkpt>
      <trkpt lat="43.65498" lon="3.87684">
        <ele>51.51100032</ele>
        <time>2020-06-06T15:40:14.000Z</time>
      </trkpt>
      <trkpt lat="43.65498" lon="3.8768">
        <ele>51.61100032</ele>
        <time>2020-06-06T15:40:15.000Z</time>
      </trkpt>
      <trkpt lat="43.65498" lon="3.87676">
        <ele>51.71100032</ele>
        <time>2020-06-06T15:40:16.000Z</time>
      </trkpt>
      <trkpt lat="43.65497" lon="3.87673">
        <ele>51.81100032</ele>
        <time>2020-06-06T15:40:17.000Z</time>
      </trkpt>
      <trkpt lat="43.65497" lon="3.87668">
        <ele>51.91100032</ele>
        <time>2020-06-06T15:40:18.000Z</time>
      </trkpt>
      <trkpt lat="43.65497" lon="3.87664">
        <ele>52.01100032</ele>
        <time>2020-06-06T15:40:19.000Z</time>
      </trkpt>
      <trkpt lat="43.65498" lon="3.8766">
        <ele>52.11100032</ele>
        <time>2020-06-06T15:40:20.000Z</time>
      </trkpt>
      <trkpt lat="43.65498" lon="3.87655">
        <ele>52.21100032</ele>
        <time>2020-06-06T15:40:21.000Z</time>
      </trkpt>
      <trkpt lat="43.65498" lon="3.87651">
        <ele>52.31100032</ele>
        <time>2020-06-06T15:40:22.000Z</time>
      </trkpt>
      <trkpt lat="43.65498" lon="3.87646">
        <ele>52.41100032</ele>
        <time>2020-06-06T15:40:23.000Z</time>
      </trkpt>
      <trkpt lat="43.65498" lon="3.87641">
        <ele>52.51100032</ele>
        <time>2020-06-06T15:40:24.000Z</time>
      </trkpt>
      <trkpt lat="43.65499" lon="3.87636">
        <ele>52.61100032</ele>
        <time>2020-06-06T15:40:25.000Z</time>
      </trkpt>
      <trkpt lat="43.65499" lon="3.87631">
        <ele>52.71100032</ele>
        <time>2020-06-06T15:40:26.000Z</time>
      </trkpt>
      <trkpt lat="43.65499" lon="3.87626">
        <ele>52.81100032</ele>
        <time>2020-06-06T15:40:27.000Z</time>
      </trkpt>
      <trkpt lat="43.65499" lon="3.87621">
        <ele>52.91100032</ele>
        <time>2020-06-06T15:40:28.000Z</time>
      </trkpt>
      <trkpt lat="43.655" lon="3.87615">
        <ele>53</ele>
        <time>2020-06-06T15:40:29.000Z</time>
      </trkpt>
      <trkpt lat="43.655" lon="3.8761">
        <ele>53</ele>
        <time>2020-06-06T15:40:30.000Z</time>
      </trkpt>
      <trkpt lat="43.655" lon="3.87605">
        <ele>53</ele>
        <time>2020-06-06T15:40:31.000Z</time>
      </trkpt>
      <trkpt lat="43.655" lon="3.876">
        <ele>53</ele>
        <time>2020-06-06T15:40:32.000Z</time>
      </trkpt>
      <trkpt lat="43.655" lon="3.87595">
        <ele>53</ele>
        <time>2020-06-06T15:40:33.000Z</time>
      </trkpt>
      <trkpt lat="43.65501" lon="3.8759">
        <ele>53</ele>
        <time>2020-06-06T15:40:34.000Z</time>
      </trkpt>
      <trkpt lat="43.65501" lon="3.87585">
        <ele>53</ele>
        <time>2020-06-06T15:40:35.000Z</time>
      </trkpt>
      <trkpt lat="43.65501" lon="3.8758">
        <ele>53</ele>
        <time>2020-06-06T15:40:36.000Z</time>
      </trkpt>
      <trkpt lat="43.65501" lon="3.87575">
        <ele>53</ele>
        <time>2020-06-06T15:40:37.000Z</time>
      </trkpt>
      <trkpt lat="43.65501" lon="3.8757">
        <ele>53</ele>
        <time>2020-06-06T15:40:38.000Z</time>
      </trkpt>
      <trkpt lat="43.655" lon="3.87564">
        <ele>52.98899968</ele>
        <time>2020-06-06T15:40:39.000Z</time>
      </trkpt>
      <trkpt lat="43.655" lon="3.87559">
        <ele>52.88899968</ele>
        <time>2020-06-06T15:40:40.000Z</time>
      </trkpt>
      <trkpt lat="43.65501" lon="3.87554">
        <ele>52.78899968</ele>
        <time>2020-06-06T15:40:41.000Z</time>
      </trkpt>
      <trkpt lat="43.65502" lon="3.8755">
        <ele>52.68899968</ele>
        <time>2020-06-06T15:40:42.000Z</time>
      </trkpt>
      <trkpt lat="43.65502" lon="3.87546">
        <ele>52.58899968</ele>
        <time>2020-06-06T15:40:43.000Z</time>
      </trkpt>
      <trkpt lat="43.65502" lon="3.8754">
        <ele>52.48899968</ele>
        <time>2020-06-06T15:40:44.000Z</time>
      </trkpt>
      <trkpt lat="43.65502" lon="3.87536">
        <ele>52.38899968</ele>
        <time>2020-06-06T15:40:45.000Z</time>
      </trkpt>
      <trkpt lat="43.65502" lon="3.87531">
        <ele>52.28899968</ele>
        <time>2020-06-06T15:40:46.000Z</time>
      </trkpt>
      <trkpt lat="43.65501" lon="3.87526">
        <ele>52.18899968</ele>
        <time>2020-06-06T15:40:47.000Z</time>
      </trkpt>
      <trkpt lat="43.65501" lon="3.8752">
        <ele>52.08899968</ele>
        <time>2020-06-06T15:40:48.000Z</time>
      </trkpt>
      <trkpt lat="43.65502" lon="3.87515">
        <ele>51.97799936</ele>
        <time>2020-06-06T15:40:49.000Z</time>
      </trkpt>
      <trkpt lat="43.65502" lon="3.8751">
        <ele>51.77799936</ele>
        <time>2020-06-06T15:40:50.000Z</time>
      </trkpt>
      <trkpt lat="43.65502" lon="3.87504">
        <ele>51.57799936</ele>
        <time>2020-06-06T15:40:51.000Z</time>
      </trkpt>
      <trkpt lat="43.65502" lon="3.87499">
        <ele>51.37799936</ele>
        <time>2020-06-06T15:40:52.000Z</time>
      </trkpt>
      <trkpt lat="43.65502" lon="3.87493">
        <ele>51.17799936</ele>
        <time>2020-06-06T15:40:53.000Z</time>
      </trkpt>
      <trkpt lat="43.65502" lon="3.87487">
        <ele>50.97799936</ele>
        <time>2020-06-06T15:40:54.000Z</time>
      </trkpt>
      <trkpt lat="43.65502" lon="3.87481">
        <ele>50.77799936</ele>
        <time>2020-06-06T15:40:55.000Z</time>
      </trkpt>
      <trkpt lat="43.65501" lon="3.87475">
        <ele>50.57799936</ele>
        <time>2020-06-06T15:40:56.000Z</time>
      </trkpt>
      <trkpt lat="43.65501" lon="3.87469">
        <ele>50.37799936</ele>
        <time>2020-06-06T15:40:57.000Z</time>
      </trkpt>
      <trkpt lat="43.65501" lon="3.87463">
        <ele>50.17799936</ele>
        <time>2020-06-06T15:40:58.000Z</time>
      </trkpt>
      <trkpt lat="43.655" lon="3.87457">
        <ele>50</ele>
        <time>2020-06-06T15:40:59.000Z</time>
      </trkpt>
      <trkpt lat="43.65498" lon="3.87452">
        <ele>50</ele>
        <time>2020-06-06T15:41:00.000Z</time>
      </trkpt>
      <trkpt lat="43.65495" lon="3.87449">
        <ele>50</ele>
        <time>2020-06-06T15:41:01.000Z</time>
      </trkpt>
      <trkpt lat="43.65492" lon="3.87447">
        <ele>50</ele>
        <time>2020-06-06T15:41:02.000Z</time>
      </trkpt>
      <trkpt lat="43.6549" lon="3.87445">
        <ele>50</ele>
        <time>2020-06-06T15:41:03.000Z</time>
      </trkpt>
      <trkpt lat="43.65487" lon="3.87443">
        <ele>50</ele>
        <time>2020-06-06T15:41:04.000Z</time>
      </trkpt>
      <trkpt lat="43.65478" lon="3.87438">
        <ele>50</ele>
        <time>2020-06-06T15:41:07.000Z</time>
      </trkpt>
      <trkpt lat="43.65469" lon="3.87442">
        <ele>49.98899968</ele>
        <time>2020-06-06T15:41:09.000Z</time>
      </trkpt>
      <trkpt lat="43.65457" lon="3.87451">
        <ele>49.78899968</ele>
        <time>2020-06-06T15:41:11.000Z</time>
      </trkpt>
      <trkpt lat="43.65453" lon="3.87451">
        <ele>49.68899968</ele>
        <time>2020-06-06T15:41:12.000Z</time>
      </trkpt>
      <trkpt lat="43.65449" lon="3.8745">
        <ele>49.58899968</ele>
        <time>2020-06-06T15:41:13.000Z</time>
      </trkpt>
      <trkpt lat="43.65447" lon="3.87449">
        <ele>49.48899968</ele>
        <time>2020-06-06T15:41:14.000Z</time>
      </trkpt>
      <trkpt lat="43.65444" lon="3.87448">
        <ele>49.38899968</ele>
        <time>2020-06-06T15:41:15.000Z</time>
      </trkpt>
      <trkpt lat="43.65441" lon="3.87447">
        <ele>49.28899968</ele>
        <time>2020-06-06T15:41:16.000Z</time>
      </trkpt>
      <trkpt lat="43.65438" lon="3.87447">
        <ele>49.18899968</ele>
        <time>2020-06-06T15:41:17.000Z</time>
      </trkpt>
      <trkpt lat="43.65435" lon="3.87448">
        <ele>49.08899968</ele>
        <time>2020-06-06T15:41:18.000Z</time>
      </trkpt>
      <trkpt lat="43.65432" lon="3.87448">
        <ele>49</ele>
        <time>2020-06-06T15:41:19.000Z</time>
      </trkpt>
      <trkpt lat="43.65429" lon="3.87449">
        <ele>49</ele>
        <time>2020-06-06T15:41:20.000Z</time>
      </trkpt>
      <trkpt lat="43.65426" lon="3.87449">
        <ele>49</ele>
        <time>2020-06-06T15:41:21.000Z</time>
      </trkpt>
      <trkpt lat="43.65423" lon="3.87448">
        <ele>49</ele>
        <time>2020-06-06T15:41:22.000Z</time>
      </trkpt>
      <trkpt lat="43.65421" lon="3.87446">
        <ele>49</ele>
        <time>2020-06-06T15:41:23.000Z</time>
      </trkpt>
      <trkpt lat="43.65419" lon="3.87444">
        <ele>49</ele>
        <time>2020-06-06T15:41:24.000Z</time>
      </trkpt>
      <trkpt lat="43.65417" lon="3.87442">
        <ele>49</ele>
        <time>2020-06-06T15:41:25.000Z</time>
      </trkpt>
      <trkpt lat="43.65415" lon="3.8744">
        <ele>49</ele>
        <time>2020-06-06T15:41:26.000Z</time>
      </trkpt>
      <trkpt lat="43.65413" lon="3.87438">
        <ele>49</ele>
        <time>2020-06-06T15:41:27.000Z</time>
      </trkpt>
      <trkpt lat="43.65413" lon="3.87435">
        <ele>49</ele>
        <time>2020-06-06T15:41:28.000Z</time>
      </trkpt>
      <trkpt lat="43.65413" lon="3.87431">
        <ele>49.02138058258</ele>
        <time>2020-06-06T15:41:29.000Z</time>
      </trkpt>
      <trkpt lat="43.65414" lon="3.87427">
        <ele>49.215743860919</ele>
        <time>2020-06-06T15:41:30.000Z</time>
      </trkpt>
      <trkpt lat="43.65413" lon="3.87424">
        <ele>49.410107139259</ele>
        <time>2020-06-06T15:41:31.000Z</time>
      </trkpt>
      <trkpt lat="43.65412" lon="3.8742">
        <ele>49.604470417598</ele>
        <time>2020-06-06T15:41:32.000Z</time>
      </trkpt>
      <trkpt lat="43.6541" lon="3.87417">
        <ele>49.798833695938</ele>
        <time>2020-06-06T15:41:33.000Z</time>
      </trkpt>
      <trkpt lat="43.65407" lon="3.87415">
        <ele>49.993196974277</ele>
        <time>2020-06-06T15:41:34.000Z</time>
      </trkpt>
      <trkpt lat="43.65405" lon="3.87413">
        <ele>50.187560252616</ele>
        <time>2020-06-06T15:41:35.000Z</time>
      </trkpt>
      <trkpt lat="43.65402" lon="3.8741">
        <ele>50.381923530956</ele>
        <time>2020-06-06T15:41:36.000Z</time>
      </trkpt>
      <trkpt lat="43.654" lon="3.87408">
        <ele>50.576286809295</ele>
        <time>2020-06-06T15:41:37.000Z</time>
      </trkpt>
      <trkpt lat="43.65398" lon="3.87406">
        <ele>50.770650087635</ele>
        <time>2020-06-06T15:41:38.000Z</time>
      </trkpt>
      <trkpt lat="43.65396" lon="3.87403">
        <ele>50.965013365974</ele>
        <time>2020-06-06T15:41:39.000Z</time>
      </trkpt>
      <trkpt lat="43.65395" lon="3.87401">
        <ele>51</ele>
        <time>2020-06-06T15:41:40.000Z</time>
      </trkpt>
      <trkpt lat="43.65393" lon="3.87398">
        <ele>51</ele>
        <time>2020-06-06T15:41:41.000Z</time>
      </trkpt>
      <trkpt lat="43.65391" lon="3.87395">
        <ele>51</ele>
        <time>2020-06-06T15:41:42.000Z</time>
      </trkpt>
      <trkpt lat="43.65388" lon="3.87392">
        <ele>51</ele>
        <time>2020-06-06T15:41:43.000Z</time>
      </trkpt>
      <trkpt lat="43.65386" lon="3.8739">
        <ele>51</ele>
        <time>2020-06-06T15:41:44.000Z</time>
      </trkpt>
      <trkpt lat="43.65383" lon="3.87387">
        <ele>51</ele>
        <time>2020-06-06T15:41:45.000Z</time>
      </trkpt>
      <trkpt lat="43.6538" lon="3.87385">
        <ele>51</ele>
        <time>2020-06-06T15:41:46.000Z</time>
      </trkpt>
      <trkpt lat="43.65378" lon="3.87382">
        <ele>51</ele>
        <time>2020-06-06T15:41:47.000Z</time>
      </trkpt>
      <trkpt lat="43.65375" lon="3.87379">
        <ele>51</ele>
        <time>2020-06-06T15:41:48.000Z</time>
      </trkpt>
      <trkpt lat="43.65373" lon="3.87377">
        <ele>51</ele>
        <time>2020-06-06T15:41:49.000Z</time>
      </trkpt>
      <trkpt lat="43.6537" lon="3.87374">
        <ele>50.916751891737</ele>
        <time>2020-06-06T15:41:50.000Z</time>
      </trkpt>
      <trkpt lat="43.65368" lon="3.87371">
        <ele>50.815229016115</ele>
        <time>2020-06-06T15:41:51.000Z</time>
      </trkpt>
      <trkpt lat="43.65365" lon="3.87369">
        <ele>50.713706140493</ele>
        <time>2020-06-06T15:41:52.000Z</time>
      </trkpt>
      <trkpt lat="43.65363" lon="3.87366">
        <ele>50.612183264872</ele>
        <time>2020-06-06T15:41:53.000Z</time>
      </trkpt>
      <trkpt lat="43.65361" lon="3.87363">
        <ele>50.51066038925</ele>
        <time>2020-06-06T15:41:54.000Z</time>
      </trkpt>
      <trkpt lat="43.65358" lon="3.8736">
        <ele>50.409137513628</ele>
        <time>2020-06-06T15:41:55.000Z</time>
      </trkpt>
      <trkpt lat="43.65356" lon="3.87357">
        <ele>50.307614638007</ele>
        <time>2020-06-06T15:41:56.000Z</time>
      </trkpt>
      <trkpt lat="43.65354" lon="3.87353">
        <ele>50.206091762385</ele>
        <time>2020-06-06T15:41:57.000Z</time>
      </trkpt>
      <trkpt lat="43.65351" lon="3.8735">
        <ele>50.104568886764</ele>
        <time>2020-06-06T15:41:58.000Z</time>
      </trkpt>
      <trkpt lat="43.65349" lon="3.87346">
        <ele>50.003046011142</ele>
        <time>2020-06-06T15:41:59.000Z</time>
      </trkpt>
      <trkpt lat="43.65346" lon="3.87343">
        <ele>50</ele>
        <time>2020-06-06T15:42:00.000Z</time>
      </trkpt>
      <trkpt lat="43.65344" lon="3.87339">
        <ele>50</ele>
        <time>2020-06-06T15:42:01.000Z</time>
      </trkpt>
      <trkpt lat="43.65342" lon="3.87335">
        <ele>50</ele>
        <time>2020-06-06T15:42:02.000Z</time>
      </trkpt>
      <trkpt lat="43.65339" lon="3.87331">
        <ele>50</ele>
        <time>2020-06-06T15:42:03.000Z</time>
      </trkpt>
      <trkpt lat="43.65337" lon="3.87326">
        <ele>50</ele>
        <time>2020-06-06T15:42:04.000Z</time>
      </trkpt>
      <trkpt lat="43.65335" lon="3.87322">
        <ele>50</ele>
        <time>2020-06-06T15:42:05.000Z</time>
      </trkpt>
      <trkpt lat="43.65333" lon="3.87317">
        <ele>50</ele>
        <time>2020-06-06T15:42:06.000Z</time>
      </trkpt>
      <trkpt lat="43.65331" lon="3.87312">
        <ele>50</ele>
        <time>2020-06-06T15:42:07.000Z</time>
      </trkpt>
      <trkpt lat="43.65329" lon="3.87307">
        <ele>50</ele>
        <time>2020-06-06T15:42:08.000Z</time>
      </trkpt>
      <trkpt lat="43.65328" lon="3.87301">
        <ele>50</ele>
        <time>2020-06-06T15:42:09.000Z</time>
      </trkpt>
      <trkpt lat="43.65327" lon="3.87296">
        <ele>49.899797246964</ele>
        <time>2020-06-06T15:42:10.000Z</time>
      </trkpt>
      <trkpt lat="43.65326" lon="3.87289">
        <ele>49.798582672065</ele>
        <time>2020-06-06T15:42:11.000Z</time>
      </trkpt>
      <trkpt lat="43.65326" lon="3.87283">
        <ele>49.697368097166</ele>
        <time>2020-06-06T15:42:12.000Z</time>
      </trkpt>
      <trkpt lat="43.65326" lon="3.87277">
        <ele>49.596153522267</ele>
        <time>2020-06-06T15:42:13.000Z</time>
      </trkpt>
      <trkpt lat="43.65325" lon="3.87271">
        <ele>49.494938947368</ele>
        <time>2020-06-06T15:42:14.000Z</time>
      </trkpt>
      <trkpt lat="43.65322" lon="3.87265">
        <ele>49.39372437247</ele>
        <time>2020-06-06T15:42:15.000Z</time>
      </trkpt>
      <trkpt lat="43.65318" lon="3.87261">
        <ele>49.292509797571</ele>
        <time>2020-06-06T15:42:16.000Z</time>
      </trkpt>
      <trkpt lat="43.65314" lon="3.87257">
        <ele>49.191295222672</ele>
        <time>2020-06-06T15:42:17.000Z</time>
      </trkpt>
      <trkpt lat="43.6531" lon="3.87254">
        <ele>49.090080647773</ele>
        <time>2020-06-06T15:42:18.000Z</time>
      </trkpt>
      <trkpt lat="43.65306" lon="3.8725">
        <ele>48.98899968</ele>
        <time>2020-06-06T15:42:19.000Z</time>
      </trkpt>
      <trkpt lat="43.65302" lon="3.87247">
        <ele>48.88899968</ele>
        <time>2020-06-06T15:42:20.000Z</time>
      </trkpt>
      <trkpt lat="43.65299" lon="3.87244">
        <ele>48.78899968</ele>
        <time>2020-06-06T15:42:21.000Z</time>
      </trkpt>
      <trkpt lat="43.65295" lon="3.87241">
        <ele>48.68899968</ele>
        <time>2020-06-06T15:42:22.000Z</time>
      </trkpt>
      <trkpt lat="43.65291" lon="3.87237">
        <ele>48.58899968</ele>
        <time>2020-06-06T15:42:23.000Z</time>
      </trkpt>
      <trkpt lat="43.65287" lon="3.87234">
        <ele>48.48899968</ele>
        <time>2020-06-06T15:42:24.000Z</time>
      </trkpt>
      <trkpt lat="43.65284" lon="3.87231">
        <ele>48.38899968</ele>
        <time>2020-06-06T15:42:25.000Z</time>
      </trkpt>
      <trkpt lat="43.6528" lon="3.87228">
        <ele>48.28899968</ele>
        <time>2020-06-06T15:42:26.000Z</time>
      </trkpt>
      <trkpt lat="43.65276" lon="3.87225">
        <ele>48.18899968</ele>
        <time>2020-06-06T15:42:27.000Z</time>
      </trkpt>
      <trkpt lat="43.65272" lon="3.87221">
        <ele>48.08899968</ele>
        <time>2020-06-06T15:42:28.000Z</time>
      </trkpt>
      <trkpt lat="43.65268" lon="3.87218">
        <ele>47.98899968</ele>
        <time>2020-06-06T15:42:29.000Z</time>
      </trkpt>
      <trkpt lat="43.65264" lon="3.87215">
        <ele>47.88899968</ele>
        <time>2020-06-06T15:42:30.000Z</time>
      </trkpt>
      <trkpt lat="43.6526" lon="3.87211">
        <ele>47.78899968</ele>
        <time>2020-06-06T15:42:31.000Z</time>
      </trkpt>
      <trkpt lat="43.65256" lon="3.87208">
        <ele>47.68899968</ele>
        <time>2020-06-06T15:42:32.000Z</time>
      </trkpt>
      <trkpt lat="43.65253" lon="3.87204">
        <ele>47.58899968</ele>
        <time>2020-06-06T15:42:33.000Z</time>
      </trkpt>
      <trkpt lat="43.65249" lon="3.872">
        <ele>47.48899968</ele>
        <time>2020-06-06T15:42:34.000Z</time>
      </trkpt>
      <trkpt lat="43.65246" lon="3.87196">
        <ele>47.38899968</ele>
        <time>2020-06-06T15:42:35.000Z</time>
      </trkpt>
      <trkpt lat="43.65242" lon="3.87192">
        <ele>47.28899968</ele>
        <time>2020-06-06T15:42:36.000Z</time>
      </trkpt>
      <trkpt lat="43.65239" lon="3.87187">
        <ele>47.18899968</ele>
        <time>2020-06-06T15:42:37.000Z</time>
      </trkpt>
      <trkpt lat="43.65236" lon="3.87183">
        <ele>47.08899968</ele>
        <time>2020-06-06T15:42:38.000Z</time>
      </trkpt>
      <trkpt lat="43.65233" lon="3.87179">
        <ele>46.98899968</ele>
        <time>2020-06-06T15:42:39.000Z</time>
      </trkpt>
      <trkpt lat="43.6523" lon="3.87175">
        <ele>46.88899968</ele>
        <time>2020-06-06T15:42:40.000Z</time>
      </trkpt>
      <trkpt lat="43.65227" lon="3.87171">
        <ele>46.78899968</ele>
        <time>2020-06-06T15:42:41.000Z</time>
      </trkpt>
      <trkpt lat="43.65224" lon="3.87167">
        <ele>46.68899968</ele>
        <time>2020-06-06T15:42:42.000Z</time>
      </trkpt>
      <trkpt lat="43.65221" lon="3.87163">
        <ele>46.58899968</ele>
        <time>2020-06-06T15:42:43.000Z</time>
      </trkpt>
      <trkpt lat="43.65219" lon="3.8716">
        <ele>46.48899968</ele>
        <time>2020-06-06T15:42:44.000Z</time>
      </trkpt>
      <trkpt lat="43.65217" lon="3.87156">
        <ele>46.38899968</ele>
        <time>2020-06-06T15:42:45.000Z</time>
      </trkpt>
      <trkpt lat="43.65214" lon="3.87152">
        <ele>46.28899968</ele>
        <time>2020-06-06T15:42:46.000Z</time>
      </trkpt>
      <trkpt lat="43.65211" lon="3.87149">
        <ele>46.18899968</ele>
        <time>2020-06-06T15:42:47.000Z</time>
      </trkpt>
      <trkpt lat="43.65209" lon="3.87145">
        <ele>46.08899968</ele>
        <time>2020-06-06T15:42:48.000Z</time>
      </trkpt>
      <trkpt lat="43.65207" lon="3.87141">
        <ele>46</ele>
        <time>2020-06-06T15:42:49.000Z</time>
      </trkpt>
      <trkpt lat="43.65205" lon="3.87137">
        <ele>46</ele>
        <time>2020-06-06T15:42:50.000Z</time>
      </trkpt>
      <trkpt lat="43.65203" lon="3.87133">
        <ele>46</ele>
        <time>2020-06-06T15:42:51.000Z</time>
      </trkpt>
      <trkpt lat="43.65201" lon="3.87129">
        <ele>46</ele>
        <time>2020-06-06T15:42:52.000Z</time>
      </trkpt>
      <trkpt lat="43.65199" lon="3.87125">
        <ele>46</ele>
        <time>2020-06-06T15:42:53.000Z</time>
      </trkpt>
      <trkpt lat="43.65197" lon="3.87121">
        <ele>46</ele>
        <time>2020-06-06T15:42:54.000Z</time>
      </trkpt>
      <trkpt lat="43.65195" lon="3.87117">
        <ele>46</ele>
        <time>2020-06-06T15:42:55.000Z</time>
      </trkpt>
      <trkpt lat="43.65192" lon="3.87114">
        <ele>46</ele>
        <time>2020-06-06T15:42:56.000Z</time>
      </trkpt>
      <trkpt lat="43.6519" lon="3.87109">
        <ele>46</ele>
        <time>2020-06-06T15:42:57.000Z</time>
      </trkpt>
      <trkpt lat="43.65188" lon="3.87105">
        <ele>46</ele>
        <time>2020-06-06T15:42:58.000Z</time>
      </trkpt>
      <trkpt lat="43.65186" lon="3.871">
        <ele>45.989483448117</ele>
        <time>2020-06-06T15:42:59.000Z</time>
      </trkpt>
      <trkpt lat="43.65183" lon="3.87095">
        <ele>45.893881212157</ele>
        <time>2020-06-06T15:43:00.000Z</time>
      </trkpt>
      <trkpt lat="43.65181" lon="3.87089">
        <ele>45.798278976196</ele>
        <time>2020-06-06T15:43:01.000Z</time>
      </trkpt>
      <trkpt lat="43.6518" lon="3.87084">
        <ele>45.702676740236</ele>
        <time>2020-06-06T15:43:02.000Z</time>
      </trkpt>
      <trkpt lat="43.65178" lon="3.8708">
        <ele>45.607074504276</ele>
        <time>2020-06-06T15:43:03.000Z</time>
      </trkpt>
      <trkpt lat="43.65176" lon="3.87075">
        <ele>45.511472268315</ele>
        <time>2020-06-06T15:43:04.000Z</time>
      </trkpt>
      <trkpt lat="43.65175" lon="3.8707">
        <ele>45.415870032355</ele>
        <time>2020-06-06T15:43:05.000Z</time>
      </trkpt>
      <trkpt lat="43.65173" lon="3.87066">
        <ele>45.320267796395</ele>
        <time>2020-06-06T15:43:06.000Z</time>
      </trkpt>
      <trkpt lat="43.65172" lon="3.87063">
        <ele>45.224665560434</ele>
        <time>2020-06-06T15:43:07.000Z</time>
      </trkpt>
      <trkpt lat="43.65171" lon="3.87059">
        <ele>45.129063324474</ele>
        <time>2020-06-06T15:43:08.000Z</time>
      </trkpt>
      <trkpt lat="43.65169" lon="3.87055">
        <ele>45.033461088513</ele>
        <time>2020-06-06T15:43:09.000Z</time>
      </trkpt>
      <trkpt lat="43.65167" lon="3.87052">
        <ele>45</ele>
        <time>2020-06-06T15:43:10.000Z</time>
      </trkpt>
      <trkpt lat="43.65166" lon="3.87049">
        <ele>45</ele>
        <time>2020-06-06T15:43:11.000Z</time>
      </trkpt>
      <trkpt lat="43.65164" lon="3.87047">
        <ele>45</ele>
        <time>2020-06-06T15:43:13.000Z</time>
      </trkpt>
      <trkpt lat="43.65164" lon="3.87047">
        <ele>45</ele>
        <time>2020-06-06T15:43:18.000Z</time>
      </trkpt>
      <trkpt lat="43.65161" lon="3.87039">
        <ele>45</ele>
        <time>2020-06-06T15:43:51.000Z</time>
      </trkpt>
      <trkpt lat="43.6516" lon="3.87035">
        <ele>45</ele>
        <time>2020-06-06T15:43:52.000Z</time>
      </trkpt>
      <trkpt lat="43.65159" lon="3.87031">
        <ele>45</ele>
        <time>2020-06-06T15:43:53.000Z</time>
      </trkpt>
      <trkpt lat="43.65157" lon="3.87027">
        <ele>45</ele>
        <time>2020-06-06T15:43:54.000Z</time>
      </trkpt>
      <trkpt lat="43.65155" lon="3.87023">
        <ele>45</ele>
        <time>2020-06-06T15:43:55.000Z</time>
      </trkpt>
      <trkpt lat="43.65153" lon="3.87018">
        <ele>45</ele>
        <time>2020-06-06T15:43:56.000Z</time>
      </trkpt>
      <trkpt lat="43.65152" lon="3.87013">
        <ele>45</ele>
        <time>2020-06-06T15:43:57.000Z</time>
      </trkpt>
      <trkpt lat="43.65151" lon="3.87008">
        <ele>45</ele>
        <time>2020-06-06T15:43:58.000Z</time>
      </trkpt>
      <trkpt lat="43.65149" lon="3.87003">
        <ele>45</ele>
        <time>2020-06-06T15:43:59.000Z</time>
      </trkpt>
      <trkpt lat="43.65148" lon="3.86999">
        <ele>45</ele>
        <time>2020-06-06T15:44:00.000Z</time>
      </trkpt>
      <trkpt lat="43.65146" lon="3.86995">
        <ele>45</ele>
        <time>2020-06-06T15:44:01.000Z</time>
      </trkpt>
      <trkpt lat="43.65145" lon="3.8699">
        <ele>45</ele>
        <time>2020-06-06T15:44:02.000Z</time>
      </trkpt>
      <trkpt lat="43.65143" lon="3.86986">
        <ele>45</ele>
        <time>2020-06-06T15:44:03.000Z</time>
      </trkpt>
      <trkpt lat="43.65141" lon="3.86982">
        <ele>45</ele>
        <time>2020-06-06T15:44:04.000Z</time>
      </trkpt>
      <trkpt lat="43.6514" lon="3.86978">
        <ele>45</ele>
        <time>2020-06-06T15:44:05.000Z</time>
      </trkpt>
      <trkpt lat="43.65138" lon="3.86974">
        <ele>45</ele>
        <time>2020-06-06T15:44:06.000Z</time>
      </trkpt>
      <trkpt lat="43.65137" lon="3.86969">
        <ele>45</ele>
        <time>2020-06-06T15:44:07.000Z</time>
      </trkpt>
      <trkpt lat="43.65135" lon="3.86965">
        <ele>45</ele>
        <time>2020-06-06T15:44:08.000Z</time>
      </trkpt>
      <trkpt lat="43.65133" lon="3.8696">
        <ele>45</ele>
        <time>2020-06-06T15:44:09.000Z</time>
      </trkpt>
      <trkpt lat="43.65132" lon="3.86955">
        <ele>45</ele>
        <time>2020-06-06T15:44:10.000Z</time>
      </trkpt>
      <trkpt lat="43.6513" lon="3.86951">
        <ele>45</ele>
        <time>2020-06-06T15:44:11.000Z</time>
      </trkpt>
      <trkpt lat="43.65128" lon="3.86946">
        <ele>45.08539127572</ele>
        <time>2020-06-06T15:44:12.000Z</time>
      </trkpt>
      <trkpt lat="43.65127" lon="3.86942">
        <ele>45.188271934156</ele>
        <time>2020-06-06T15:44:13.000Z</time>
      </trkpt>
      <trkpt lat="43.65125" lon="3.86937">
        <ele>45.291152592593</ele>
        <time>2020-06-06T15:44:14.000Z</time>
      </trkpt>
      <trkpt lat="43.65124" lon="3.86933">
        <ele>45.394033251029</ele>
        <time>2020-06-06T15:44:15.000Z</time>
      </trkpt>
      <trkpt lat="43.65122" lon="3.86928">
        <ele>45.496913909465</ele>
        <time>2020-06-06T15:44:16.000Z</time>
      </trkpt>
      <trkpt lat="43.65121" lon="3.86924">
        <ele>45.599794567901</ele>
        <time>2020-06-06T15:44:17.000Z</time>
      </trkpt>
      <trkpt lat="43.65119" lon="3.8692">
        <ele>45.702675226337</ele>
        <time>2020-06-06T15:44:18.000Z</time>
      </trkpt>
      <trkpt lat="43.65118" lon="3.86916">
        <ele>45.805555884774</ele>
        <time>2020-06-06T15:44:19.000Z</time>
      </trkpt>
      <trkpt lat="43.65117" lon="3.86911">
        <ele>45.90843654321</ele>
        <time>2020-06-06T15:44:20.000Z</time>
      </trkpt>
      <trkpt lat="43.65115" lon="3.86907">
        <ele>46</ele>
        <time>2020-06-06T15:44:21.000Z</time>
      </trkpt>
      <trkpt lat="43.65114" lon="3.86903">
        <ele>46</ele>
        <time>2020-06-06T15:44:22.000Z</time>
      </trkpt>
      <trkpt lat="43.65113" lon="3.86899">
        <ele>46</ele>
        <time>2020-06-06T15:44:23.000Z</time>
      </trkpt>
      <trkpt lat="43.65112" lon="3.86894">
        <ele>46</ele>
        <time>2020-06-06T15:44:24.000Z</time>
      </trkpt>
      <trkpt lat="43.65111" lon="3.8689">
        <ele>46</ele>
        <time>2020-06-06T15:44:25.000Z</time>
      </trkpt>
      <trkpt lat="43.6511" lon="3.86886">
        <ele>46</ele>
        <time>2020-06-06T15:44:26.000Z</time>
      </trkpt>
      <trkpt lat="43.6511" lon="3.86882">
        <ele>46</ele>
        <time>2020-06-06T15:44:27.000Z</time>
      </trkpt>
      <trkpt lat="43.65109" lon="3.86878">
        <ele>46</ele>
        <time>2020-06-06T15:44:28.000Z</time>
      </trkpt>
      <trkpt lat="43.65108" lon="3.86873">
        <ele>46</ele>
        <time>2020-06-06T15:44:29.000Z</time>
      </trkpt>
      <trkpt lat="43.65107" lon="3.86869">
        <ele>46</ele>
        <time>2020-06-06T15:44:30.000Z</time>
      </trkpt>
      <trkpt lat="43.65105" lon="3.86864">
        <ele>46</ele>
        <time>2020-06-06T15:44:31.000Z</time>
      </trkpt>
      <trkpt lat="43.65104" lon="3.86859">
        <ele>45.916503208804</ele>
        <time>2020-06-06T15:44:32.000Z</time>
      </trkpt>
      <trkpt lat="43.65102" lon="3.86855">
        <ele>45.818271319935</ele>
        <time>2020-06-06T15:44:33.000Z</time>
      </trkpt>
      <trkpt lat="43.65101" lon="3.8685">
        <ele>45.720039431066</ele>
        <time>2020-06-06T15:44:34.000Z</time>
      </trkpt>
      <trkpt lat="43.651" lon="3.86846">
        <ele>45.621807542197</ele>
        <time>2020-06-06T15:44:35.000Z</time>
      </trkpt>
      <trkpt lat="43.65098" lon="3.86841">
        <ele>45.523575653328</ele>
        <time>2020-06-06T15:44:36.000Z</time>
      </trkpt>
      <trkpt lat="43.65097" lon="3.86836">
        <ele>45.42534376446</ele>
        <time>2020-06-06T15:44:37.000Z</time>
      </trkpt>
      <trkpt lat="43.65096" lon="3.86832">
        <ele>45.327111875591</ele>
        <time>2020-06-06T15:44:38.000Z</time>
      </trkpt>
      <trkpt lat="43.65095" lon="3.86827">
        <ele>45.228879986722</ele>
        <time>2020-06-06T15:44:39.000Z</time>
      </trkpt>
      <trkpt lat="43.65095" lon="3.86822">
        <ele>45.130648097853</ele>
        <time>2020-06-06T15:44:40.000Z</time>
      </trkpt>
      <trkpt lat="43.65094" lon="3.86818">
        <ele>45.032416208985</ele>
        <time>2020-06-06T15:44:41.000Z</time>
      </trkpt>
      <trkpt lat="43.65093" lon="3.86814">
        <ele>45.140168033473</ele>
        <time>2020-06-06T15:44:42.000Z</time>
      </trkpt>
      <trkpt lat="43.65092" lon="3.8681">
        <ele>45.349373054393</ele>
        <time>2020-06-06T15:44:43.000Z</time>
      </trkpt>
      <trkpt lat="43.65091" lon="3.86805">
        <ele>45.558578075314</ele>
        <time>2020-06-06T15:44:44.000Z</time>
      </trkpt>
      <trkpt lat="43.6509" lon="3.86801">
        <ele>45.767783096234</ele>
        <time>2020-06-06T15:44:45.000Z</time>
      </trkpt>
      <trkpt lat="43.65089" lon="3.86797">
        <ele>45.976988117155</ele>
        <time>2020-06-06T15:44:46.000Z</time>
      </trkpt>
      <trkpt lat="43.65089" lon="3.86792">
        <ele>46.186193138075</ele>
        <time>2020-06-06T15:44:47.000Z</time>
      </trkpt>
      <trkpt lat="43.65088" lon="3.86788">
        <ele>46.395398158996</ele>
        <time>2020-06-06T15:44:48.000Z</time>
      </trkpt>
      <trkpt lat="43.65088" lon="3.86784">
        <ele>46.604603179916</ele>
        <time>2020-06-06T15:44:49.000Z</time>
      </trkpt>
      <trkpt lat="43.65087" lon="3.86779">
        <ele>46.813808200837</ele>
        <time>2020-06-06T15:44:50.000Z</time>
      </trkpt>
      <trkpt lat="43.65086" lon="3.86775">
        <ele>46.989278447234</ele>
        <time>2020-06-06T15:44:51.000Z</time>
      </trkpt>
      <trkpt lat="43.65086" lon="3.8677">
        <ele>46.891812621092</ele>
        <time>2020-06-06T15:44:52.000Z</time>
      </trkpt>
      <trkpt lat="43.65085" lon="3.86765">
        <ele>46.794346794949</ele>
        <time>2020-06-06T15:44:53.000Z</time>
      </trkpt>
      <trkpt lat="43.65085" lon="3.86761">
        <ele>46.696880968807</ele>
        <time>2020-06-06T15:44:54.000Z</time>
      </trkpt>
      <trkpt lat="43.65085" lon="3.86756">
        <ele>46.599415142665</ele>
        <time>2020-06-06T15:44:55.000Z</time>
      </trkpt>
      <trkpt lat="43.65084" lon="3.86752">
        <ele>46.501949316523</ele>
        <time>2020-06-06T15:44:56.000Z</time>
      </trkpt>
      <trkpt lat="43.65084" lon="3.86747">
        <ele>46.404483490381</ele>
        <time>2020-06-06T15:44:57.000Z</time>
      </trkpt>
      <trkpt lat="43.65084" lon="3.86742">
        <ele>46.307017664239</ele>
        <time>2020-06-06T15:44:58.000Z</time>
      </trkpt>
      <trkpt lat="43.65083" lon="3.86738">
        <ele>46.209551838096</ele>
        <time>2020-06-06T15:44:59.000Z</time>
      </trkpt>
      <trkpt lat="43.65083" lon="3.86733">
        <ele>46.112086011954</ele>
        <time>2020-06-06T15:45:00.000Z</time>
      </trkpt>
      <trkpt lat="43.65082" lon="3.86728">
        <ele>46.014620185812</ele>
        <time>2020-06-06T15:45:01.000Z</time>
      </trkpt>
      <trkpt lat="43.65082" lon="3.86723">
        <ele>46.087268722641</ele>
        <time>2020-06-06T15:45:02.000Z</time>
      </trkpt>
      <trkpt lat="43.65082" lon="3.86718">
        <ele>46.189938194621</ele>
        <time>2020-06-06T15:45:03.000Z</time>
      </trkpt>
      <trkpt lat="43.65081" lon="3.86714">
        <ele>46.292607666601</ele>
        <time>2020-06-06T15:45:04.000Z</time>
      </trkpt>
      <trkpt lat="43.65081" lon="3.86709">
        <ele>46.39527713858</ele>
        <time>2020-06-06T15:45:05.000Z</time>
      </trkpt>
      <trkpt lat="43.6508" lon="3.86704">
        <ele>46.49794661056</ele>
        <time>2020-06-06T15:45:06.000Z</time>
      </trkpt>
      <trkpt lat="43.6508" lon="3.867">
        <ele>46.60061608254</ele>
        <time>2020-06-06T15:45:07.000Z</time>
      </trkpt>
      <trkpt lat="43.65079" lon="3.86695">
        <ele>46.70328555452</ele>
        <time>2020-06-06T15:45:08.000Z</time>
      </trkpt>
      <trkpt lat="43.65078" lon="3.8669">
        <ele>46.8059550265</ele>
        <time>2020-06-06T15:45:09.000Z</time>
      </trkpt>
      <trkpt lat="43.65077" lon="3.86685">
        <ele>46.90862449848</ele>
        <time>2020-06-06T15:45:10.000Z</time>
      </trkpt>
      <trkpt lat="43.65075" lon="3.86679">
        <ele>47</ele>
        <time>2020-06-06T15:45:11.000Z</time>
      </trkpt>
      <trkpt lat="43.65074" lon="3.86674">
        <ele>47</ele>
        <time>2020-06-06T15:45:12.000Z</time>
      </trkpt>
      <trkpt lat="43.65072" lon="3.86668">
        <ele>47</ele>
        <time>2020-06-06T15:45:13.000Z</time>
      </trkpt>
      <trkpt lat="43.65071" lon="3.86664">
        <ele>47</ele>
        <time>2020-06-06T15:45:14.000Z</time>
      </trkpt>
      <trkpt lat="43.6507" lon="3.86659">
        <ele>47</ele>
        <time>2020-06-06T15:45:15.000Z</time>
      </trkpt>
      <trkpt lat="43.65068" lon="3.86655">
        <ele>47</ele>
        <time>2020-06-06T15:45:16.000Z</time>
      </trkpt>
      <trkpt lat="43.65066" lon="3.86652">
        <ele>47</ele>
        <time>2020-06-06T15:45:17.000Z</time>
      </trkpt>
      <trkpt lat="43.65064" lon="3.8665">
        <ele>47</ele>
        <time>2020-06-06T15:45:18.000Z</time>
      </trkpt>
      <trkpt lat="43.65062" lon="3.86648">
        <ele>47</ele>
        <time>2020-06-06T15:45:19.000Z</time>
      </trkpt>
      <trkpt lat="43.65059" lon="3.86647">
        <ele>47</ele>
        <time>2020-06-06T15:45:20.000Z</time>
      </trkpt>
      <trkpt lat="43.65057" lon="3.86646">
        <ele>46.98899968</ele>
        <time>2020-06-06T15:45:21.000Z</time>
      </trkpt>
      <trkpt lat="43.65054" lon="3.86646">
        <ele>46.88899968</ele>
        <time>2020-06-06T15:45:22.000Z</time>
      </trkpt>
      <trkpt lat="43.65052" lon="3.86645">
        <ele>46.78899968</ele>
        <time>2020-06-06T15:45:23.000Z</time>
      </trkpt>
      <trkpt lat="43.6505" lon="3.86643">
        <ele>46.68899968</ele>
        <time>2020-06-06T15:45:24.000Z</time>
      </trkpt>
      <trkpt lat="43.65048" lon="3.86641">
        <ele>46.58899968</ele>
        <time>2020-06-06T15:45:25.000Z</time>
      </trkpt>
      <trkpt lat="43.65047" lon="3.86639">
        <ele>46.48899968</ele>
        <time>2020-06-06T15:45:26.000Z</time>
      </trkpt>
      <trkpt lat="43.65046" lon="3.86636">
        <ele>46.38899968</ele>
        <time>2020-06-06T15:45:27.000Z</time>
      </trkpt>
      <trkpt lat="43.65045" lon="3.86632">
        <ele>46.18899968</ele>
        <time>2020-06-06T15:45:29.000Z</time>
      </trkpt>
      <trkpt lat="43.65044" lon="3.86629">
        <ele>46.08899968</ele>
        <time>2020-06-06T15:45:30.000Z</time>
      </trkpt>
      <trkpt lat="43.65043" lon="3.86626">
        <ele>46</ele>
        <time>2020-06-06T15:45:31.000Z</time>
      </trkpt>
      <trkpt lat="43.65043" lon="3.86623">
        <ele>46</ele>
        <time>2020-06-06T15:45:32.000Z</time>
      </trkpt>
      <trkpt lat="43.65042" lon="3.8662">
        <ele>46</ele>
        <time>2020-06-06T15:45:33.000Z</time>
      </trkpt>
      <trkpt lat="43.65041" lon="3.86616">
        <ele>46</ele>
        <time>2020-06-06T15:45:34.000Z</time>
      </trkpt>
      <trkpt lat="43.65041" lon="3.86613">
        <ele>46</ele>
        <time>2020-06-06T15:45:35.000Z</time>
      </trkpt>
      <trkpt lat="43.65041" lon="3.8661">
        <ele>46</ele>
        <time>2020-06-06T15:45:36.000Z</time>
      </trkpt>
      <trkpt lat="43.6504" lon="3.86607">
        <ele>46</ele>
        <time>2020-06-06T15:45:37.000Z</time>
      </trkpt>
      <trkpt lat="43.65039" lon="3.86605">
        <ele>46</ele>
        <time>2020-06-06T15:45:38.000Z</time>
      </trkpt>
      <trkpt lat="43.65037" lon="3.86604">
        <ele>46</ele>
        <time>2020-06-06T15:45:39.000Z</time>
      </trkpt>
      <trkpt lat="43.65035" lon="3.86603">
        <ele>46</ele>
        <time>2020-06-06T15:45:40.000Z</time>
      </trkpt>
      <trkpt lat="43.65032" lon="3.86599">
        <ele>45.77799936</ele>
        <time>2020-06-06T15:45:42.000Z</time>
      </trkpt>
      <trkpt lat="43.65033" lon="3.86597">
        <ele>45.57799936</ele>
        <time>2020-06-06T15:45:43.000Z</time>
      </trkpt>
      <trkpt lat="43.65035" lon="3.86595">
        <ele>45.37799936</ele>
        <time>2020-06-06T15:45:44.000Z</time>
      </trkpt>
      <trkpt lat="43.65039" lon="3.86595">
        <ele>45.17799936</ele>
        <time>2020-06-06T15:45:45.000Z</time>
      </trkpt>
      <trkpt lat="43.65042" lon="3.86595">
        <ele>44.97799936</ele>
        <time>2020-06-06T15:45:46.000Z</time>
      </trkpt>
      <trkpt lat="43.65045" lon="3.86593">
        <ele>44.77799936</ele>
        <time>2020-06-06T15:45:47.000Z</time>
      </trkpt>
      <trkpt lat="43.65048" lon="3.86591">
        <ele>44.57799936</ele>
        <time>2020-06-06T15:45:48.000Z</time>
      </trkpt>
      <trkpt lat="43.65052" lon="3.86587">
        <ele>44.37799936</ele>
        <time>2020-06-06T15:45:49.000Z</time>
      </trkpt>
      <trkpt lat="43.65056" lon="3.86583">
        <ele>44.17799936</ele>
        <time>2020-06-06T15:45:50.000Z</time>
      </trkpt>
      <trkpt lat="43.6506" lon="3.86579">
        <ele>44</ele>
        <time>2020-06-06T15:45:51.000Z</time>
      </trkpt>
      <trkpt lat="43.65063" lon="3.86575">
        <ele>44</ele>
        <time>2020-06-06T15:45:52.000Z</time>
      </trkpt>
      <trkpt lat="43.65065" lon="3.86569">
        <ele>44</ele>
        <time>2020-06-06T15:45:53.000Z</time>
      </trkpt>
      <trkpt lat="43.65066" lon="3.86562">
        <ele>44</ele>
        <time>2020-06-06T15:45:54.000Z</time>
      </trkpt>
      <trkpt lat="43.65066" lon="3.86556">
        <ele>44</ele>
        <time>2020-06-06T15:45:55.000Z</time>
      </trkpt>
      <trkpt lat="43.65066" lon="3.86549">
        <ele>44</ele>
        <time>2020-06-06T15:45:56.000Z</time>
      </trkpt>
      <trkpt lat="43.65066" lon="3.86543">
        <ele>44</ele>
        <time>2020-06-06T15:45:57.000Z</time>
      </trkpt>
      <trkpt lat="43.65066" lon="3.86536">
        <ele>44</ele>
        <time>2020-06-06T15:45:58.000Z</time>
      </trkpt>
      <trkpt lat="43.65065" lon="3.86529">
        <ele>44</ele>
        <time>2020-06-06T15:45:59.000Z</time>
      </trkpt>
      <trkpt lat="43.65065" lon="3.86523">
        <ele>44</ele>
        <time>2020-06-06T15:46:00.000Z</time>
      </trkpt>
      <trkpt lat="43.65064" lon="3.86516">
        <ele>44</ele>
        <time>2020-06-06T15:46:01.000Z</time>
      </trkpt>
      <trkpt lat="43.65064" lon="3.86509">
        <ele>44</ele>
        <time>2020-06-06T15:46:02.000Z</time>
      </trkpt>
      <trkpt lat="43.65063" lon="3.86502">
        <ele>44</ele>
        <time>2020-06-06T15:46:03.000Z</time>
      </trkpt>
      <trkpt lat="43.65062" lon="3.86496">
        <ele>44</ele>
        <time>2020-06-06T15:46:04.000Z</time>
      </trkpt>
      <trkpt lat="43.65062" lon="3.86489">
        <ele>44</ele>
        <time>2020-06-06T15:46:05.000Z</time>
      </trkpt>
      <trkpt lat="43.65061" lon="3.86482">
        <ele>44</ele>
        <time>2020-06-06T15:46:06.000Z</time>
      </trkpt>
      <trkpt lat="43.6506" lon="3.86476">
        <ele>44</ele>
        <time>2020-06-06T15:46:07.000Z</time>
      </trkpt>
      <trkpt lat="43.6506" lon="3.86469">
        <ele>44</ele>
        <time>2020-06-06T15:46:08.000Z</time>
      </trkpt>
      <trkpt lat="43.65059" lon="3.86462">
        <ele>44</ele>
        <time>2020-06-06T15:46:09.000Z</time>
      </trkpt>
      <trkpt lat="43.65058" lon="3.86455">
        <ele>44</ele>
        <time>2020-06-06T15:46:10.000Z</time>
      </trkpt>
      <trkpt lat="43.65058" lon="3.86448">
        <ele>44</ele>
        <time>2020-06-06T15:46:11.000Z</time>
      </trkpt>
      <trkpt lat="43.65057" lon="3.86442">
        <ele>44</ele>
        <time>2020-06-06T15:46:12.000Z</time>
      </trkpt>
      <trkpt lat="43.65057" lon="3.86435">
        <ele>44</ele>
        <time>2020-06-06T15:46:13.000Z</time>
      </trkpt>
      <trkpt lat="43.65056" lon="3.86428">
        <ele>44</ele>
        <time>2020-06-06T15:46:14.000Z</time>
      </trkpt>
      <trkpt lat="43.65055" lon="3.86421">
        <ele>44</ele>
        <time>2020-06-06T15:46:15.000Z</time>
      </trkpt>
      <trkpt lat="43.65054" lon="3.86414">
        <ele>44</ele>
        <time>2020-06-06T15:46:16.000Z</time>
      </trkpt>
      <trkpt lat="43.65053" lon="3.86407">
        <ele>44</ele>
        <time>2020-06-06T15:46:17.000Z</time>
      </trkpt>
      <trkpt lat="43.65053" lon="3.864">
        <ele>44</ele>
        <time>2020-06-06T15:46:18.000Z</time>
      </trkpt>
      <trkpt lat="43.65052" lon="3.86392">
        <ele>44</ele>
        <time>2020-06-06T15:46:19.000Z</time>
      </trkpt>
      <trkpt lat="43.65052" lon="3.86385">
        <ele>44</ele>
        <time>2020-06-06T15:46:20.000Z</time>
      </trkpt>
      <trkpt lat="43.65051" lon="3.86378">
        <ele>44</ele>
        <time>2020-06-06T15:46:21.000Z</time>
      </trkpt>
      <trkpt lat="43.6505" lon="3.86371">
        <ele>44</ele>
        <time>2020-06-06T15:46:22.000Z</time>
      </trkpt>
      <trkpt lat="43.6505" lon="3.86364">
        <ele>44</ele>
        <time>2020-06-06T15:46:23.000Z</time>
      </trkpt>
      <trkpt lat="43.65049" lon="3.86357">
        <ele>44</ele>
        <time>2020-06-06T15:46:24.000Z</time>
      </trkpt>
      <trkpt lat="43.65049" lon="3.86351">
        <ele>44</ele>
        <time>2020-06-06T15:46:25.000Z</time>
      </trkpt>
      <trkpt lat="43.65048" lon="3.86345">
        <ele>44</ele>
        <time>2020-06-06T15:46:26.000Z</time>
      </trkpt>
      <trkpt lat="43.65048" lon="3.86339">
        <ele>44</ele>
        <time>2020-06-06T15:46:27.000Z</time>
      </trkpt>
      <trkpt lat="43.65047" lon="3.86333">
        <ele>44</ele>
        <time>2020-06-06T15:46:28.000Z</time>
      </trkpt>
      <trkpt lat="43.65047" lon="3.86328">
        <ele>44</ele>
        <time>2020-06-06T15:46:29.000Z</time>
      </trkpt>
      <trkpt lat="43.65047" lon="3.86322">
        <ele>44</ele>
        <time>2020-06-06T15:46:30.000Z</time>
      </trkpt>
      <trkpt lat="43.65046" lon="3.86316">
        <ele>44</ele>
        <time>2020-06-06T15:46:31.000Z</time>
      </trkpt>
      <trkpt lat="43.65046" lon="3.86311">
        <ele>44</ele>
        <time>2020-06-06T15:46:32.000Z</time>
      </trkpt>
      <trkpt lat="43.65045" lon="3.86305">
        <ele>44</ele>
        <time>2020-06-06T15:46:33.000Z</time>
      </trkpt>
      <trkpt lat="43.65045" lon="3.86299">
        <ele>44</ele>
        <time>2020-06-06T15:46:34.000Z</time>
      </trkpt>
      <trkpt lat="43.65044" lon="3.86294">
        <ele>44</ele>
        <time>2020-06-06T15:46:35.000Z</time>
      </trkpt>
      <trkpt lat="43.65044" lon="3.86288">
        <ele>44</ele>
        <time>2020-06-06T15:46:36.000Z</time>
      </trkpt>
      <trkpt lat="43.65043" lon="3.86283">
        <ele>44</ele>
        <time>2020-06-06T15:46:37.000Z</time>
      </trkpt>
      <trkpt lat="43.65043" lon="3.86277">
        <ele>44</ele>
        <time>2020-06-06T15:46:38.000Z</time>
      </trkpt>
      <trkpt lat="43.65043" lon="3.86272">
        <ele>44</ele>
        <time>2020-06-06T15:46:39.000Z</time>
      </trkpt>
      <trkpt lat="43.65042" lon="3.86267">
        <ele>44</ele>
        <time>2020-06-06T15:46:40.000Z</time>
      </trkpt>
      <trkpt lat="43.65042" lon="3.86262">
        <ele>44.01100032</ele>
        <time>2020-06-06T15:46:41.000Z</time>
      </trkpt>
      <trkpt lat="43.65042" lon="3.86257">
        <ele>44.11100032</ele>
        <time>2020-06-06T15:46:42.000Z</time>
      </trkpt>
      <trkpt lat="43.65042" lon="3.86252">
        <ele>44.21100032</ele>
        <time>2020-06-06T15:46:43.000Z</time>
      </trkpt>
      <trkpt lat="43.65041" lon="3.86247">
        <ele>44.31100032</ele>
        <time>2020-06-06T15:46:44.000Z</time>
      </trkpt>
      <trkpt lat="43.65041" lon="3.86242">
        <ele>44.41100032</ele>
        <time>2020-06-06T15:46:45.000Z</time>
      </trkpt>
      <trkpt lat="43.6504" lon="3.86237">
        <ele>44.51100032</ele>
        <time>2020-06-06T15:46:46.000Z</time>
      </trkpt>
      <trkpt lat="43.6504" lon="3.86232">
        <ele>44.61100032</ele>
        <time>2020-06-06T15:46:47.000Z</time>
      </trkpt>
      <trkpt lat="43.6504" lon="3.86228">
        <ele>44.71100032</ele>
        <time>2020-06-06T15:46:48.000Z</time>
      </trkpt>
      <trkpt lat="43.65039" lon="3.86223">
        <ele>44.81100032</ele>
        <time>2020-06-06T15:46:49.000Z</time>
      </trkpt>
      <trkpt lat="43.65039" lon="3.86218">
        <ele>44.91100032</ele>
        <time>2020-06-06T15:46:50.000Z</time>
      </trkpt>
      <trkpt lat="43.65038" lon="3.86214">
        <ele>45.010837750278</ele>
        <time>2020-06-06T15:46:51.000Z</time>
      </trkpt>
      <trkpt lat="43.65038" lon="3.86209">
        <ele>45.109359886704</ele>
        <time>2020-06-06T15:46:52.000Z</time>
      </trkpt>
      <trkpt lat="43.65037" lon="3.86205">
        <ele>45.207882023131</ele>
        <time>2020-06-06T15:46:53.000Z</time>
      </trkpt>
      <trkpt lat="43.65037" lon="3.862">
        <ele>45.306404159557</ele>
        <time>2020-06-06T15:46:54.000Z</time>
      </trkpt>
      <trkpt lat="43.65036" lon="3.86196">
        <ele>45.404926295984</ele>
        <time>2020-06-06T15:46:55.000Z</time>
      </trkpt>
      <trkpt lat="43.65036" lon="3.86191">
        <ele>45.50344843241</ele>
        <time>2020-06-06T15:46:56.000Z</time>
      </trkpt>
      <trkpt lat="43.65035" lon="3.86187">
        <ele>45.601970568837</ele>
        <time>2020-06-06T15:46:57.000Z</time>
      </trkpt>
      <trkpt lat="43.65035" lon="3.86183">
        <ele>45.700492705263</ele>
        <time>2020-06-06T15:46:58.000Z</time>
      </trkpt>
      <trkpt lat="43.65034" lon="3.86179">
        <ele>45.79901484169</ele>
        <time>2020-06-06T15:46:59.000Z</time>
      </trkpt>
      <trkpt lat="43.65034" lon="3.86174">
        <ele>45.897536978116</ele>
        <time>2020-06-06T15:47:00.000Z</time>
      </trkpt>
      <trkpt lat="43.65034" lon="3.8617">
        <ele>45.996059114543</ele>
        <time>2020-06-06T15:47:01.000Z</time>
      </trkpt>
      <trkpt lat="43.65033" lon="3.86166">
        <ele>46.194923921194</ele>
        <time>2020-06-06T15:47:02.000Z</time>
      </trkpt>
      <trkpt lat="43.65033" lon="3.86162">
        <ele>46.397969672437</ele>
        <time>2020-06-06T15:47:03.000Z</time>
      </trkpt>
      <trkpt lat="43.65032" lon="3.86158">
        <ele>46.60101542368</ele>
        <time>2020-06-06T15:47:04.000Z</time>
      </trkpt>
      <trkpt lat="43.65032" lon="3.86154">
        <ele>46.804061174923</ele>
        <time>2020-06-06T15:47:05.000Z</time>
      </trkpt>
      <trkpt lat="43.65032" lon="3.8615">
        <ele>47.007106926167</ele>
        <time>2020-06-06T15:47:06.000Z</time>
      </trkpt>
      <trkpt lat="43.65031" lon="3.86146">
        <ele>47.21015267741</ele>
        <time>2020-06-06T15:47:07.000Z</time>
      </trkpt>
      <trkpt lat="43.65031" lon="3.86142">
        <ele>47.413198428653</ele>
        <time>2020-06-06T15:47:08.000Z</time>
      </trkpt>
      <trkpt lat="43.6503" lon="3.86138">
        <ele>47.616244179897</ele>
        <time>2020-06-06T15:47:09.000Z</time>
      </trkpt>
      <trkpt lat="43.6503" lon="3.86134">
        <ele>47.81928993114</ele>
        <time>2020-06-06T15:47:10.000Z</time>
      </trkpt>
      <trkpt lat="43.65029" lon="3.8613">
        <ele>48.010700700389</ele>
        <time>2020-06-06T15:47:11.000Z</time>
      </trkpt>
      <trkpt lat="43.65029" lon="3.86126">
        <ele>48.107976964981</ele>
        <time>2020-06-06T15:47:12.000Z</time>
      </trkpt>
      <trkpt lat="43.65029" lon="3.86122">
        <ele>48.205253229572</ele>
        <time>2020-06-06T15:47:13.000Z</time>
      </trkpt>
      <trkpt lat="43.65029" lon="3.86118">
        <ele>48.302529494163</ele>
        <time>2020-06-06T15:47:14.000Z</time>
      </trkpt>
      <trkpt lat="43.65028" lon="3.86114">
        <ele>48.399805758755</ele>
        <time>2020-06-06T15:47:15.000Z</time>
      </trkpt>
      <trkpt lat="43.65028" lon="3.8611">
        <ele>48.497082023346</ele>
        <time>2020-06-06T15:47:16.000Z</time>
      </trkpt>
      <trkpt lat="43.65027" lon="3.86106">
        <ele>48.594358287938</ele>
        <time>2020-06-06T15:47:17.000Z</time>
      </trkpt>
      <trkpt lat="43.65027" lon="3.86103">
        <ele>48.691634552529</ele>
        <time>2020-06-06T15:47:18.000Z</time>
      </trkpt>
      <trkpt lat="43.65026" lon="3.86099">
        <ele>48.788910817121</ele>
        <time>2020-06-06T15:47:19.000Z</time>
      </trkpt>
      <trkpt lat="43.65026" lon="3.86095">
        <ele>48.886187081712</ele>
        <time>2020-06-06T15:47:20.000Z</time>
      </trkpt>
      <trkpt lat="43.65026" lon="3.86091">
        <ele>48.983463346304</ele>
        <time>2020-06-06T15:47:21.000Z</time>
      </trkpt>
      <trkpt lat="43.65025" lon="3.86087">
        <ele>49.084093508703</ele>
        <time>2020-06-06T15:47:22.000Z</time>
      </trkpt>
      <trkpt lat="43.65025" lon="3.86083">
        <ele>49.185410598448</ele>
        <time>2020-06-06T15:47:23.000Z</time>
      </trkpt>
      <trkpt lat="43.65024" lon="3.86079">
        <ele>49.286727688194</ele>
        <time>2020-06-06T15:47:24.000Z</time>
      </trkpt>
      <trkpt lat="43.65024" lon="3.86075">
        <ele>49.388044777939</ele>
        <time>2020-06-06T15:47:25.000Z</time>
      </trkpt>
      <trkpt lat="43.65024" lon="3.86071">
        <ele>49.489361867684</ele>
        <time>2020-06-06T15:47:26.000Z</time>
      </trkpt>
      <trkpt lat="43.65023" lon="3.86067">
        <ele>49.590678957429</ele>
        <time>2020-06-06T15:47:27.000Z</time>
      </trkpt>
      <trkpt lat="43.65023" lon="3.86063">
        <ele>49.691996047174</ele>
        <time>2020-06-06T15:47:28.000Z</time>
      </trkpt>
      <trkpt lat="43.65022" lon="3.86059">
        <ele>49.79331313692</ele>
        <time>2020-06-06T15:47:29.000Z</time>
      </trkpt>
      <trkpt lat="43.65022" lon="3.86055">
        <ele>49.894630226665</ele>
        <time>2020-06-06T15:47:30.000Z</time>
      </trkpt>
      <trkpt lat="43.65022" lon="3.86051">
        <ele>49.99594731641</ele>
        <time>2020-06-06T15:47:31.000Z</time>
      </trkpt>
      <trkpt lat="43.65022" lon="3.86047">
        <ele>50.189723320158</ele>
        <time>2020-06-06T15:47:32.000Z</time>
      </trkpt>
      <trkpt lat="43.65021" lon="3.86043">
        <ele>50.387351778656</ele>
        <time>2020-06-06T15:47:33.000Z</time>
      </trkpt>
      <trkpt lat="43.65021" lon="3.8604">
        <ele>50.584980237154</ele>
        <time>2020-06-06T15:47:34.000Z</time>
      </trkpt>
      <trkpt lat="43.6502" lon="3.86036">
        <ele>50.782608695652</ele>
        <time>2020-06-06T15:47:35.000Z</time>
      </trkpt>
      <trkpt lat="43.6502" lon="3.86032">
        <ele>50.98023715415</ele>
        <time>2020-06-06T15:47:36.000Z</time>
      </trkpt>
      <trkpt lat="43.65019" lon="3.86028">
        <ele>51.177865612648</ele>
        <time>2020-06-06T15:47:37.000Z</time>
      </trkpt>
      <trkpt lat="43.65019" lon="3.86024">
        <ele>51.375494071146</ele>
        <time>2020-06-06T15:47:38.000Z</time>
      </trkpt>
      <trkpt lat="43.65019" lon="3.8602">
        <ele>51.573122529644</ele>
        <time>2020-06-06T15:47:39.000Z</time>
      </trkpt>
      <trkpt lat="43.65018" lon="3.86016">
        <ele>51.770750988142</ele>
        <time>2020-06-06T15:47:40.000Z</time>
      </trkpt>
      <trkpt lat="43.65018" lon="3.86013">
        <ele>51.96837944664</ele>
        <time>2020-06-06T15:47:41.000Z</time>
      </trkpt>
      <trkpt lat="43.65017" lon="3.86009">
        <ele>52.086330963644</ele>
        <time>2020-06-06T15:47:42.000Z</time>
      </trkpt>
      <trkpt lat="43.65017" lon="3.86005">
        <ele>52.189105920364</ele>
        <time>2020-06-06T15:47:43.000Z</time>
      </trkpt>
      <trkpt lat="43.65016" lon="3.86001">
        <ele>52.291880877083</ele>
        <time>2020-06-06T15:47:44.000Z</time>
      </trkpt>
      <trkpt lat="43.65016" lon="3.85997">
        <ele>52.394655833803</ele>
        <time>2020-06-06T15:47:45.000Z</time>
      </trkpt>
      <trkpt lat="43.65016" lon="3.85993">
        <ele>52.497430790522</ele>
        <time>2020-06-06T15:47:46.000Z</time>
      </trkpt>
      <trkpt lat="43.65016" lon="3.85989">
        <ele>52.600205747241</ele>
        <time>2020-06-06T15:47:47.000Z</time>
      </trkpt>
      <trkpt lat="43.65015" lon="3.85986">
        <ele>52.702980703961</ele>
        <time>2020-06-06T15:47:48.000Z</time>
      </trkpt>
      <trkpt lat="43.65015" lon="3.85982">
        <ele>52.80575566068</ele>
        <time>2020-06-06T15:47:49.000Z</time>
      </trkpt>
      <trkpt lat="43.65015" lon="3.85978">
        <ele>52.9085306174</ele>
        <time>2020-06-06T15:47:50.000Z</time>
      </trkpt>
      <trkpt lat="43.65014" lon="3.85974">
        <ele>53.01100032</ele>
        <time>2020-06-06T15:47:51.000Z</time>
      </trkpt>
      <trkpt lat="43.65013" lon="3.8597">
        <ele>53.11100032</ele>
        <time>2020-06-06T15:47:52.000Z</time>
      </trkpt>
      <trkpt lat="43.65013" lon="3.85967">
        <ele>53.21100032</ele>
        <time>2020-06-06T15:47:53.000Z</time>
      </trkpt>
      <trkpt lat="43.65012" lon="3.85963">
        <ele>53.31100032</ele>
        <time>2020-06-06T15:47:54.000Z</time>
      </trkpt>
      <trkpt lat="43.65011" lon="3.85959">
        <ele>53.41100032</ele>
        <time>2020-06-06T15:47:55.000Z</time>
      </trkpt>
      <trkpt lat="43.65011" lon="3.85955">
        <ele>53.51100032</ele>
        <time>2020-06-06T15:47:56.000Z</time>
      </trkpt>
      <trkpt lat="43.6501" lon="3.85951">
        <ele>53.61100032</ele>
        <time>2020-06-06T15:47:57.000Z</time>
      </trkpt>
      <trkpt lat="43.65009" lon="3.85947">
        <ele>53.71100032</ele>
        <time>2020-06-06T15:47:58.000Z</time>
      </trkpt>
      <trkpt lat="43.65009" lon="3.85943">
        <ele>53.81100032</ele>
        <time>2020-06-06T15:47:59.000Z</time>
      </trkpt>
      <trkpt lat="43.65008" lon="3.85938">
        <ele>53.91100032</ele>
        <time>2020-06-06T15:48:00.000Z</time>
      </trkpt>
      <trkpt lat="43.65007" lon="3.85934">
        <ele>54.010816443915</ele>
        <time>2020-06-06T15:48:01.000Z</time>
      </trkpt>
      <trkpt lat="43.65006" lon="3.8593">
        <ele>54.109144891766</ele>
        <time>2020-06-06T15:48:02.000Z</time>
      </trkpt>
      <trkpt lat="43.65006" lon="3.85926">
        <ele>54.207473339618</ele>
        <time>2020-06-06T15:48:03.000Z</time>
      </trkpt>
      <trkpt lat="43.65005" lon="3.85923">
        <ele>54.30580178747</ele>
        <time>2020-06-06T15:48:04.000Z</time>
      </trkpt>
      <trkpt lat="43.65005" lon="3.85919">
        <ele>54.404130235321</ele>
        <time>2020-06-06T15:48:05.000Z</time>
      </trkpt>
      <trkpt lat="43.65004" lon="3.85915">
        <ele>54.502458683173</ele>
        <time>2020-06-06T15:48:06.000Z</time>
      </trkpt>
      <trkpt lat="43.65003" lon="3.85912">
        <ele>54.600787131024</ele>
        <time>2020-06-06T15:48:07.000Z</time>
      </trkpt>
      <trkpt lat="43.65002" lon="3.85908">
        <ele>54.699115578876</ele>
        <time>2020-06-06T15:48:08.000Z</time>
      </trkpt>
      <trkpt lat="43.65001" lon="3.85904">
        <ele>54.797444026728</ele>
        <time>2020-06-06T15:48:09.000Z</time>
      </trkpt>
      <trkpt lat="43.65" lon="3.859">
        <ele>54.895772474579</ele>
        <time>2020-06-06T15:48:10.000Z</time>
      </trkpt>
      <trkpt lat="43.64999" lon="3.85896">
        <ele>54.994100922431</ele>
        <time>2020-06-06T15:48:11.000Z</time>
      </trkpt>
      <trkpt lat="43.64998" lon="3.85892">
        <ele>55</ele>
        <time>2020-06-06T15:48:12.000Z</time>
      </trkpt>
      <trkpt lat="43.64997" lon="3.85888">
        <ele>55</ele>
        <time>2020-06-06T15:48:13.000Z</time>
      </trkpt>
      <trkpt lat="43.64996" lon="3.85884">
        <ele>55</ele>
        <time>2020-06-06T15:48:14.000Z</time>
      </trkpt>
      <trkpt lat="43.64995" lon="3.8588">
        <ele>55</ele>
        <time>2020-06-06T15:48:15.000Z</time>
      </trkpt>
      <trkpt lat="43.64994" lon="3.85877">
        <ele>55</ele>
        <time>2020-06-06T15:48:16.000Z</time>
      </trkpt>
      <trkpt lat="43.64993" lon="3.85873">
        <ele>55</ele>
        <time>2020-06-06T15:48:17.000Z</time>
      </trkpt>
      <trkpt lat="43.64992" lon="3.85869">
        <ele>55</ele>
        <time>2020-06-06T15:48:18.000Z</time>
      </trkpt>
      <trkpt lat="43.64991" lon="3.85865">
        <ele>55</ele>
        <time>2020-06-06T15:48:19.000Z</time>
      </trkpt>
      <trkpt lat="43.6499" lon="3.85861">
        <ele>55</ele>
        <time>2020-06-06T15:48:20.000Z</time>
      </trkpt>
      <trkpt lat="43.64989" lon="3.85857">
        <ele>55</ele>
        <time>2020-06-06T15:48:21.000Z</time>
      </trkpt>
      <trkpt lat="43.64987" lon="3.85853">
        <ele>55</ele>
        <time>2020-06-06T15:48:22.000Z</time>
      </trkpt>
      <trkpt lat="43.64986" lon="3.85849">
        <ele>55</ele>
        <time>2020-06-06T15:48:23.000Z</time>
      </trkpt>
      <trkpt lat="43.64985" lon="3.85844">
        <ele>55</ele>
        <time>2020-06-06T15:48:24.000Z</time>
      </trkpt>
      <trkpt lat="43.64984" lon="3.8584">
        <ele>55</ele>
        <time>2020-06-06T15:48:25.000Z</time>
      </trkpt>
      <trkpt lat="43.64983" lon="3.85836">
        <ele>55</ele>
        <time>2020-06-06T15:48:26.000Z</time>
      </trkpt>
      <trkpt lat="43.64982" lon="3.85831">
        <ele>55</ele>
        <time>2020-06-06T15:48:27.000Z</time>
      </trkpt>
      <trkpt lat="43.64981" lon="3.85827">
        <ele>55</ele>
        <time>2020-06-06T15:48:28.000Z</time>
      </trkpt>
      <trkpt lat="43.6498" lon="3.85823">
        <ele>55</ele>
        <time>2020-06-06T15:48:29.000Z</time>
      </trkpt>
      <trkpt lat="43.64979" lon="3.85818">
        <ele>55</ele>
        <time>2020-06-06T15:48:30.000Z</time>
      </trkpt>
      <trkpt lat="43.64977" lon="3.85813">
        <ele>55.01100032</ele>
        <time>2020-06-06T15:48:31.000Z</time>
      </trkpt>
      <trkpt lat="43.64976" lon="3.85808">
        <ele>55.11100032</ele>
        <time>2020-06-06T15:48:32.000Z</time>
      </trkpt>
      <trkpt lat="43.64975" lon="3.85804">
        <ele>55.21100032</ele>
        <time>2020-06-06T15:48:33.000Z</time>
      </trkpt>
      <trkpt lat="43.64974" lon="3.85799">
        <ele>55.31100032</ele>
        <time>2020-06-06T15:48:34.000Z</time>
      </trkpt>
      <trkpt lat="43.64973" lon="3.85795">
        <ele>55.41100032</ele>
        <time>2020-06-06T15:48:35.000Z</time>
      </trkpt>
      <trkpt lat="43.64972" lon="3.85791">
        <ele>55.51100032</ele>
        <time>2020-06-06T15:48:36.000Z</time>
      </trkpt>
      <trkpt lat="43.64971" lon="3.85786">
        <ele>55.61100032</ele>
        <time>2020-06-06T15:48:37.000Z</time>
      </trkpt>
      <trkpt lat="43.64969" lon="3.85782">
        <ele>55.71100032</ele>
        <time>2020-06-06T15:48:38.000Z</time>
      </trkpt>
      <trkpt lat="43.64968" lon="3.85777">
        <ele>55.81100032</ele>
        <time>2020-06-06T15:48:39.000Z</time>
      </trkpt>
      <trkpt lat="43.64967" lon="3.85773">
        <ele>55.91100032</ele>
        <time>2020-06-06T15:48:40.000Z</time>
      </trkpt>
      <trkpt lat="43.64966" lon="3.85769">
        <ele>56</ele>
        <time>2020-06-06T15:48:41.000Z</time>
      </trkpt>
      <trkpt lat="43.64965" lon="3.85764">
        <ele>56</ele>
        <time>2020-06-06T15:48:42.000Z</time>
      </trkpt>
      <trkpt lat="43.64964" lon="3.8576">
        <ele>56</ele>
        <time>2020-06-06T15:48:43.000Z</time>
      </trkpt>
      <trkpt lat="43.64962" lon="3.85756">
        <ele>56</ele>
        <time>2020-06-06T15:48:44.000Z</time>
      </trkpt>
      <trkpt lat="43.64961" lon="3.85751">
        <ele>56</ele>
        <time>2020-06-06T15:48:45.000Z</time>
      </trkpt>
      <trkpt lat="43.6496" lon="3.85747">
        <ele>56</ele>
        <time>2020-06-06T15:48:46.000Z</time>
      </trkpt>
      <trkpt lat="43.64959" lon="3.85742">
        <ele>56</ele>
        <time>2020-06-06T15:48:47.000Z</time>
      </trkpt>
      <trkpt lat="43.64958" lon="3.85738">
        <ele>56</ele>
        <time>2020-06-06T15:48:48.000Z</time>
      </trkpt>
      <trkpt lat="43.64956" lon="3.85734">
        <ele>56</ele>
        <time>2020-06-06T15:48:49.000Z</time>
      </trkpt>
      <trkpt lat="43.64955" lon="3.85729">
        <ele>56</ele>
        <time>2020-06-06T15:48:50.000Z</time>
      </trkpt>
      <trkpt lat="43.64953" lon="3.85725">
        <ele>56.01100032</ele>
        <time>2020-06-06T15:48:51.000Z</time>
      </trkpt>
      <trkpt lat="43.64952" lon="3.85721">
        <ele>56.11100032</ele>
        <time>2020-06-06T15:48:52.000Z</time>
      </trkpt>
      <trkpt lat="43.6495" lon="3.85716">
        <ele>56.21100032</ele>
        <time>2020-06-06T15:48:53.000Z</time>
      </trkpt>
      <trkpt lat="43.64949" lon="3.85712">
        <ele>56.31100032</ele>
        <time>2020-06-06T15:48:54.000Z</time>
      </trkpt>
      <trkpt lat="43.64947" lon="3.85708">
        <ele>56.41100032</ele>
        <time>2020-06-06T15:48:55.000Z</time>
      </trkpt>
      <trkpt lat="43.64946" lon="3.85704">
        <ele>56.51100032</ele>
        <time>2020-06-06T15:48:56.000Z</time>
      </trkpt>
      <trkpt lat="43.64945" lon="3.85701">
        <ele>56.61100032</ele>
        <time>2020-06-06T15:48:57.000Z</time>
      </trkpt>
      <trkpt lat="43.64943" lon="3.85697">
        <ele>56.71100032</ele>
        <time>2020-06-06T15:48:58.000Z</time>
      </trkpt>
      <trkpt lat="43.64941" lon="3.85693">
        <ele>56.81100032</ele>
        <time>2020-06-06T15:48:59.000Z</time>
      </trkpt>
      <trkpt lat="43.6494" lon="3.8569">
        <ele>56.91100032</ele>
        <time>2020-06-06T15:49:00.000Z</time>
      </trkpt>
      <trkpt lat="43.64938" lon="3.85686">
        <ele>56.98899968</ele>
        <time>2020-06-06T15:49:01.000Z</time>
      </trkpt>
      <trkpt lat="43.64937" lon="3.85682">
        <ele>56.88899968</ele>
        <time>2020-06-06T15:49:02.000Z</time>
      </trkpt>
      <trkpt lat="43.64935" lon="3.85678">
        <ele>56.78899968</ele>
        <time>2020-06-06T15:49:03.000Z</time>
      </trkpt>
      <trkpt lat="43.64933" lon="3.85674">
        <ele>56.68899968</ele>
        <time>2020-06-06T15:49:04.000Z</time>
      </trkpt>
      <trkpt lat="43.64932" lon="3.8567">
        <ele>56.58899968</ele>
        <time>2020-06-06T15:49:05.000Z</time>
      </trkpt>
      <trkpt lat="43.6493" lon="3.85666">
        <ele>56.48899968</ele>
        <time>2020-06-06T15:49:06.000Z</time>
      </trkpt>
      <trkpt lat="43.64928" lon="3.85662">
        <ele>56.38899968</ele>
        <time>2020-06-06T15:49:07.000Z</time>
      </trkpt>
      <trkpt lat="43.64927" lon="3.85659">
        <ele>56.28899968</ele>
        <time>2020-06-06T15:49:08.000Z</time>
      </trkpt>
      <trkpt lat="43.64925" lon="3.85655">
        <ele>56.18899968</ele>
        <time>2020-06-06T15:49:09.000Z</time>
      </trkpt>
      <trkpt lat="43.64923" lon="3.85651">
        <ele>56.08899968</ele>
        <time>2020-06-06T15:49:10.000Z</time>
      </trkpt>
      <trkpt lat="43.64921" lon="3.85648">
        <ele>56</ele>
        <time>2020-06-06T15:49:11.000Z</time>
      </trkpt>
      <trkpt lat="43.64919" lon="3.85644">
        <ele>56</ele>
        <time>2020-06-06T15:49:12.000Z</time>
      </trkpt>
      <trkpt lat="43.64917" lon="3.85641">
        <ele>56</ele>
        <time>2020-06-06T15:49:13.000Z</time>
      </trkpt>
      <trkpt lat="43.64915" lon="3.85637">
        <ele>56</ele>
        <time>2020-06-06T15:49:14.000Z</time>
      </trkpt>
      <trkpt lat="43.64913" lon="3.85634">
        <ele>56</ele>
        <time>2020-06-06T15:49:15.000Z</time>
      </trkpt>
      <trkpt lat="43.64911" lon="3.8563">
        <ele>56</ele>
        <time>2020-06-06T15:49:16.000Z</time>
      </trkpt>
      <trkpt lat="43.64908" lon="3.85626">
        <ele>56</ele>
        <time>2020-06-06T15:49:17.000Z</time>
      </trkpt>
      <trkpt lat="43.64906" lon="3.85622">
        <ele>56</ele>
        <time>2020-06-06T15:49:18.000Z</time>
      </trkpt>
      <trkpt lat="43.64904" lon="3.85619">
        <ele>56</ele>
        <time>2020-06-06T15:49:19.000Z</time>
      </trkpt>
      <trkpt lat="43.64902" lon="3.85615">
        <ele>56</ele>
        <time>2020-06-06T15:49:20.000Z</time>
      </trkpt>
      <trkpt lat="43.649" lon="3.85612">
        <ele>56</ele>
        <time>2020-06-06T15:49:21.000Z</time>
      </trkpt>
      <trkpt lat="43.64898" lon="3.85608">
        <ele>56</ele>
        <time>2020-06-06T15:49:22.000Z</time>
      </trkpt>
      <trkpt lat="43.64896" lon="3.85605">
        <ele>56</ele>
        <time>2020-06-06T15:49:23.000Z</time>
      </trkpt>
      <trkpt lat="43.64893" lon="3.85602">
        <ele>56</ele>
        <time>2020-06-06T15:49:24.000Z</time>
      </trkpt>
      <trkpt lat="43.64891" lon="3.85598">
        <ele>56</ele>
        <time>2020-06-06T15:49:25.000Z</time>
      </trkpt>
      <trkpt lat="43.64889" lon="3.85595">
        <ele>56</ele>
        <time>2020-06-06T15:49:26.000Z</time>
      </trkpt>
      <trkpt lat="43.64886" lon="3.85592">
        <ele>56</ele>
        <time>2020-06-06T15:49:27.000Z</time>
      </trkpt>
      <trkpt lat="43.64884" lon="3.85589">
        <ele>56</ele>
        <time>2020-06-06T15:49:28.000Z</time>
      </trkpt>
      <trkpt lat="43.64882" lon="3.85586">
        <ele>56</ele>
        <time>2020-06-06T15:49:29.000Z</time>
      </trkpt>
      <trkpt lat="43.6488" lon="3.85582">
        <ele>56</ele>
        <time>2020-06-06T15:49:30.000Z</time>
      </trkpt>
      <trkpt lat="43.64878" lon="3.85579">
        <ele>56.01100032</ele>
        <time>2020-06-06T15:49:31.000Z</time>
      </trkpt>
      <trkpt lat="43.64875" lon="3.85576">
        <ele>56.11100032</ele>
        <time>2020-06-06T15:49:32.000Z</time>
      </trkpt>
      <trkpt lat="43.64872" lon="3.85573">
        <ele>56.21100032</ele>
        <time>2020-06-06T15:49:33.000Z</time>
      </trkpt>
      <trkpt lat="43.64869" lon="3.8557">
        <ele>56.31100032</ele>
        <time>2020-06-06T15:49:34.000Z</time>
      </trkpt>
      <trkpt lat="43.64867" lon="3.85567">
        <ele>56.41100032</ele>
        <time>2020-06-06T15:49:35.000Z</time>
      </trkpt>
      <trkpt lat="43.64864" lon="3.85564">
        <ele>56.51100032</ele>
        <time>2020-06-06T15:49:36.000Z</time>
      </trkpt>
      <trkpt lat="43.64861" lon="3.85561">
        <ele>56.61100032</ele>
        <time>2020-06-06T15:49:37.000Z</time>
      </trkpt>
      <trkpt lat="43.64859" lon="3.85558">
        <ele>56.71100032</ele>
        <time>2020-06-06T15:49:38.000Z</time>
      </trkpt>
      <trkpt lat="43.64856" lon="3.85555">
        <ele>56.81100032</ele>
        <time>2020-06-06T15:49:39.000Z</time>
      </trkpt>
      <trkpt lat="43.64854" lon="3.85552">
        <ele>56.91100032</ele>
        <time>2020-06-06T15:49:40.000Z</time>
      </trkpt>
      <trkpt lat="43.64851" lon="3.8555">
        <ele>57</ele>
        <time>2020-06-06T15:49:41.000Z</time>
      </trkpt>
      <trkpt lat="43.64848" lon="3.85547">
        <ele>57</ele>
        <time>2020-06-06T15:49:42.000Z</time>
      </trkpt>
      <trkpt lat="43.64846" lon="3.85545">
        <ele>57</ele>
        <time>2020-06-06T15:49:43.000Z</time>
      </trkpt>
      <trkpt lat="43.64843" lon="3.85543">
        <ele>57</ele>
        <time>2020-06-06T15:49:44.000Z</time>
      </trkpt>
      <trkpt lat="43.64841" lon="3.85541">
        <ele>57</ele>
        <time>2020-06-06T15:49:45.000Z</time>
      </trkpt>
      <trkpt lat="43.64839" lon="3.85539">
        <ele>57</ele>
        <time>2020-06-06T15:49:46.000Z</time>
      </trkpt>
      <trkpt lat="43.64836" lon="3.85537">
        <ele>57</ele>
        <time>2020-06-06T15:49:47.000Z</time>
      </trkpt>
      <trkpt lat="43.64834" lon="3.85534">
        <ele>57</ele>
        <time>2020-06-06T15:49:48.000Z</time>
      </trkpt>
      <trkpt lat="43.64832" lon="3.85532">
        <ele>57</ele>
        <time>2020-06-06T15:49:49.000Z</time>
      </trkpt>
      <trkpt lat="43.6483" lon="3.85529">
        <ele>57</ele>
        <time>2020-06-06T15:49:50.000Z</time>
      </trkpt>
      <trkpt lat="43.64828" lon="3.85526">
        <ele>57.01100032</ele>
        <time>2020-06-06T15:49:51.000Z</time>
      </trkpt>
      <trkpt lat="43.64826" lon="3.85524">
        <ele>57.11100032</ele>
        <time>2020-06-06T15:49:52.000Z</time>
      </trkpt>
      <trkpt lat="43.64823" lon="3.85522">
        <ele>57.21100032</ele>
        <time>2020-06-06T15:49:53.000Z</time>
      </trkpt>
      <trkpt lat="43.64821" lon="3.8552">
        <ele>57.31100032</ele>
        <time>2020-06-06T15:49:54.000Z</time>
      </trkpt>
      <trkpt lat="43.64818" lon="3.85518">
        <ele>57.41100032</ele>
        <time>2020-06-06T15:49:55.000Z</time>
      </trkpt>
      <trkpt lat="43.64816" lon="3.85515">
        <ele>57.51100032</ele>
        <time>2020-06-06T15:49:56.000Z</time>
      </trkpt>
      <trkpt lat="43.64814" lon="3.85513">
        <ele>57.61100032</ele>
        <time>2020-06-06T15:49:57.000Z</time>
      </trkpt>
      <trkpt lat="43.64812" lon="3.85512">
        <ele>57.71100032</ele>
        <time>2020-06-06T15:49:58.000Z</time>
      </trkpt>
      <trkpt lat="43.64809" lon="3.8551">
        <ele>57.81100032</ele>
        <time>2020-06-06T15:49:59.000Z</time>
      </trkpt>
      <trkpt lat="43.64807" lon="3.85508">
        <ele>57.91100032</ele>
        <time>2020-06-06T15:50:00.000Z</time>
      </trkpt>
      <trkpt lat="43.64805" lon="3.85507">
        <ele>58.02200064</ele>
        <time>2020-06-06T15:50:01.000Z</time>
      </trkpt>
      <trkpt lat="43.64803" lon="3.85505">
        <ele>58.22200064</ele>
        <time>2020-06-06T15:50:02.000Z</time>
      </trkpt>
      <trkpt lat="43.64801" lon="3.85504">
        <ele>58.42200064</ele>
        <time>2020-06-06T15:50:03.000Z</time>
      </trkpt>
      <trkpt lat="43.64798" lon="3.85502">
        <ele>58.62200064</ele>
        <time>2020-06-06T15:50:04.000Z</time>
      </trkpt>
      <trkpt lat="43.64796" lon="3.85501">
        <ele>58.82200064</ele>
        <time>2020-06-06T15:50:05.000Z</time>
      </trkpt>
      <trkpt lat="43.64794" lon="3.85499">
        <ele>59.02200064</ele>
        <time>2020-06-06T15:50:06.000Z</time>
      </trkpt>
      <trkpt lat="43.64792" lon="3.85497">
        <ele>59.22200064</ele>
        <time>2020-06-06T15:50:07.000Z</time>
      </trkpt>
      <trkpt lat="43.64789" lon="3.85496">
        <ele>59.42200064</ele>
        <time>2020-06-06T15:50:08.000Z</time>
      </trkpt>
      <trkpt lat="43.64787" lon="3.85494">
        <ele>59.62200064</ele>
        <time>2020-06-06T15:50:09.000Z</time>
      </trkpt>
      <trkpt lat="43.64785" lon="3.85493">
        <ele>59.82200064</ele>
        <time>2020-06-06T15:50:10.000Z</time>
      </trkpt>
      <trkpt lat="43.64782" lon="3.85491">
        <ele>60.01100032</ele>
        <time>2020-06-06T15:50:11.000Z</time>
      </trkpt>
      <trkpt lat="43.6478" lon="3.8549">
        <ele>60.11100032</ele>
        <time>2020-06-06T15:50:12.000Z</time>
      </trkpt>
      <trkpt lat="43.64778" lon="3.85488">
        <ele>60.21100032</ele>
        <time>2020-06-06T15:50:13.000Z</time>
      </trkpt>
      <trkpt lat="43.64775" lon="3.85487">
        <ele>60.31100032</ele>
        <time>2020-06-06T15:50:14.000Z</time>
      </trkpt>
      <trkpt lat="43.64773" lon="3.85486">
        <ele>60.41100032</ele>
        <time>2020-06-06T15:50:15.000Z</time>
      </trkpt>
      <trkpt lat="43.64771" lon="3.85484">
        <ele>60.51100032</ele>
        <time>2020-06-06T15:50:16.000Z</time>
      </trkpt>
      <trkpt lat="43.64768" lon="3.85483">
        <ele>60.61100032</ele>
        <time>2020-06-06T15:50:17.000Z</time>
      </trkpt>
      <trkpt lat="43.64766" lon="3.85481">
        <ele>60.71100032</ele>
        <time>2020-06-06T15:50:18.000Z</time>
      </trkpt>
      <trkpt lat="43.64763" lon="3.8548">
        <ele>60.81100032</ele>
        <time>2020-06-06T15:50:19.000Z</time>
      </trkpt>
      <trkpt lat="43.64761" lon="3.85479">
        <ele>60.91100032</ele>
        <time>2020-06-06T15:50:20.000Z</time>
      </trkpt>
      <trkpt lat="43.64759" lon="3.85477">
        <ele>61.021401400778</ele>
        <time>2020-06-06T15:50:21.000Z</time>
      </trkpt>
      <trkpt lat="43.64756" lon="3.85476">
        <ele>61.215953929961</ele>
        <time>2020-06-06T15:50:22.000Z</time>
      </trkpt>
      <trkpt lat="43.64754" lon="3.85475">
        <ele>61.410506459144</ele>
        <time>2020-06-06T15:50:23.000Z</time>
      </trkpt>
      <trkpt lat="43.64751" lon="3.85474">
        <ele>61.605058988327</ele>
        <time>2020-06-06T15:50:24.000Z</time>
      </trkpt>
      <trkpt lat="43.64749" lon="3.85473">
        <ele>61.79961151751</ele>
        <time>2020-06-06T15:50:25.000Z</time>
      </trkpt>
      <trkpt lat="43.64746" lon="3.85472">
        <ele>61.994164046693</ele>
        <time>2020-06-06T15:50:26.000Z</time>
      </trkpt>
      <trkpt lat="43.64744" lon="3.85471">
        <ele>62.188716575876</ele>
        <time>2020-06-06T15:50:27.000Z</time>
      </trkpt>
      <trkpt lat="43.64741" lon="3.85469">
        <ele>62.383269105058</ele>
        <time>2020-06-06T15:50:28.000Z</time>
      </trkpt>
      <trkpt lat="43.64739" lon="3.85468">
        <ele>62.577821634241</ele>
        <time>2020-06-06T15:50:29.000Z</time>
      </trkpt>
      <trkpt lat="43.64736" lon="3.85467">
        <ele>62.772374163424</ele>
        <time>2020-06-06T15:50:30.000Z</time>
      </trkpt>
      <trkpt lat="43.64733" lon="3.85466">
        <ele>62.966926692607</ele>
        <time>2020-06-06T15:50:31.000Z</time>
      </trkpt>
      <trkpt lat="43.6473" lon="3.85465">
        <ele>63.16616675358</ele>
        <time>2020-06-06T15:50:32.000Z</time>
      </trkpt>
      <trkpt lat="43.64728" lon="3.85464">
        <ele>63.366366889652</ele>
        <time>2020-06-06T15:50:33.000Z</time>
      </trkpt>
      <trkpt lat="43.64725" lon="3.85463">
        <ele>63.566567025724</ele>
        <time>2020-06-06T15:50:34.000Z</time>
      </trkpt>
      <trkpt lat="43.64722" lon="3.85462">
        <ele>63.766767161796</ele>
        <time>2020-06-06T15:50:35.000Z</time>
      </trkpt>
      <trkpt lat="43.64719" lon="3.8546">
        <ele>63.966967297868</ele>
        <time>2020-06-06T15:50:36.000Z</time>
      </trkpt>
      <trkpt lat="43.64716" lon="3.85459">
        <ele>64.16716743394</ele>
        <time>2020-06-06T15:50:37.000Z</time>
      </trkpt>
      <trkpt lat="43.64713" lon="3.85458">
        <ele>64.367367570012</ele>
        <time>2020-06-06T15:50:38.000Z</time>
      </trkpt>
      <trkpt lat="43.6471" lon="3.85457">
        <ele>64.567567706084</ele>
        <time>2020-06-06T15:50:39.000Z</time>
      </trkpt>
      <trkpt lat="43.64708" lon="3.85456">
        <ele>64.767767842156</ele>
        <time>2020-06-06T15:50:40.000Z</time>
      </trkpt>
      <trkpt lat="43.64705" lon="3.85455">
        <ele>64.967967978229</ele>
        <time>2020-06-06T15:50:41.000Z</time>
      </trkpt>
      <trkpt lat="43.64702" lon="3.85453">
        <ele>65.084337349398</ele>
        <time>2020-06-06T15:50:42.000Z</time>
      </trkpt>
      <trkpt lat="43.647" lon="3.85452">
        <ele>65.184738955823</ele>
        <time>2020-06-06T15:50:43.000Z</time>
      </trkpt>
      <trkpt lat="43.64697" lon="3.85451">
        <ele>65.285140562249</ele>
        <time>2020-06-06T15:50:44.000Z</time>
      </trkpt>
      <trkpt lat="43.64694" lon="3.8545">
        <ele>65.385542168675</ele>
        <time>2020-06-06T15:50:45.000Z</time>
      </trkpt>
      <trkpt lat="43.64692" lon="3.85448">
        <ele>65.4859437751</ele>
        <time>2020-06-06T15:50:46.000Z</time>
      </trkpt>
      <trkpt lat="43.64689" lon="3.85447">
        <ele>65.586345381526</ele>
        <time>2020-06-06T15:50:47.000Z</time>
      </trkpt>
      <trkpt lat="43.64686" lon="3.85446">
        <ele>65.686746987952</ele>
        <time>2020-06-06T15:50:48.000Z</time>
      </trkpt>
      <trkpt lat="43.64683" lon="3.85445">
        <ele>65.787148594377</ele>
        <time>2020-06-06T15:50:49.000Z</time>
      </trkpt>
      <trkpt lat="43.6468" lon="3.85443">
        <ele>65.887550200803</ele>
        <time>2020-06-06T15:50:50.000Z</time>
      </trkpt>
      <trkpt lat="43.64677" lon="3.85442">
        <ele>65.987951807229</ele>
        <time>2020-06-06T15:50:51.000Z</time>
      </trkpt>
      <trkpt lat="43.64674" lon="3.8544">
        <ele>66.090071677403</ele>
        <time>2020-06-06T15:50:52.000Z</time>
      </trkpt>
      <trkpt lat="43.64671" lon="3.85438">
        <ele>66.192425856271</ele>
        <time>2020-06-06T15:50:53.000Z</time>
      </trkpt>
      <trkpt lat="43.64668" lon="3.85436">
        <ele>66.294780035138</ele>
        <time>2020-06-06T15:50:54.000Z</time>
      </trkpt>
      <trkpt lat="43.64664" lon="3.85434">
        <ele>66.397134214005</ele>
        <time>2020-06-06T15:50:55.000Z</time>
      </trkpt>
      <trkpt lat="43.64661" lon="3.85433">
        <ele>66.499488392872</ele>
        <time>2020-06-06T15:50:56.000Z</time>
      </trkpt>
      <trkpt lat="43.64657" lon="3.85431">
        <ele>66.60184257174</ele>
        <time>2020-06-06T15:50:57.000Z</time>
      </trkpt>
      <trkpt lat="43.64654" lon="3.85429">
        <ele>66.704196750607</ele>
        <time>2020-06-06T15:50:58.000Z</time>
      </trkpt>
      <trkpt lat="43.64651" lon="3.85428">
        <ele>66.806550929474</ele>
        <time>2020-06-06T15:50:59.000Z</time>
      </trkpt>
      <trkpt lat="43.64648" lon="3.85427">
        <ele>66.908905108342</ele>
        <time>2020-06-06T15:51:00.000Z</time>
      </trkpt>
      <trkpt lat="43.64645" lon="3.85425">
        <ele>67</ele>
        <time>2020-06-06T15:51:01.000Z</time>
      </trkpt>
      <trkpt lat="43.64642" lon="3.85423">
        <ele>67</ele>
        <time>2020-06-06T15:51:02.000Z</time>
      </trkpt>
      <trkpt lat="43.64639" lon="3.85421">
        <ele>67</ele>
        <time>2020-06-06T15:51:03.000Z</time>
      </trkpt>
      <trkpt lat="43.64636" lon="3.85419">
        <ele>67</ele>
        <time>2020-06-06T15:51:04.000Z</time>
      </trkpt>
      <trkpt lat="43.64632" lon="3.85417">
        <ele>67</ele>
        <time>2020-06-06T15:51:05.000Z</time>
      </trkpt>
      <trkpt lat="43.64629" lon="3.85415">
        <ele>67</ele>
        <time>2020-06-06T15:51:06.000Z</time>
      </trkpt>
      <trkpt lat="43.64625" lon="3.85414">
        <ele>67</ele>
        <time>2020-06-06T15:51:07.000Z</time>
      </trkpt>
      <trkpt lat="43.64622" lon="3.85412">
        <ele>67</ele>
        <time>2020-06-06T15:51:08.000Z</time>
      </trkpt>
      <trkpt lat="43.64619" lon="3.8541">
        <ele>67</ele>
        <time>2020-06-06T15:51:09.000Z</time>
      </trkpt>
      <trkpt lat="43.64616" lon="3.85409">
        <ele>67</ele>
        <time>2020-06-06T15:51:10.000Z</time>
      </trkpt>
      <trkpt lat="43.64613" lon="3.85407">
        <ele>67</ele>
        <time>2020-06-06T15:51:11.000Z</time>
      </trkpt>
      <trkpt lat="43.6461" lon="3.85406">
        <ele>67.200405506073</ele>
        <time>2020-06-06T15:51:12.000Z</time>
      </trkpt>
      <trkpt lat="43.64607" lon="3.85404">
        <ele>67.40283465587</ele>
        <time>2020-06-06T15:51:13.000Z</time>
      </trkpt>
      <trkpt lat="43.64604" lon="3.85402">
        <ele>67.605263805668</ele>
        <time>2020-06-06T15:51:14.000Z</time>
      </trkpt>
      <trkpt lat="43.64601" lon="3.85399">
        <ele>67.807692955466</ele>
        <time>2020-06-06T15:51:15.000Z</time>
      </trkpt>
      <trkpt lat="43.64599" lon="3.85397">
        <ele>68.010122105263</ele>
        <time>2020-06-06T15:51:16.000Z</time>
      </trkpt>
      <trkpt lat="43.64596" lon="3.85395">
        <ele>68.212551255061</ele>
        <time>2020-06-06T15:51:17.000Z</time>
      </trkpt>
      <trkpt lat="43.64593" lon="3.85392">
        <ele>68.414980404858</ele>
        <time>2020-06-06T15:51:18.000Z</time>
      </trkpt>
      <trkpt lat="43.6459" lon="3.8539">
        <ele>68.617409554656</ele>
        <time>2020-06-06T15:51:19.000Z</time>
      </trkpt>
      <trkpt lat="43.64588" lon="3.85387">
        <ele>68.819838704453</ele>
        <time>2020-06-06T15:51:20.000Z</time>
      </trkpt>
      <trkpt lat="43.64585" lon="3.85385">
        <ele>69.02200064</ele>
        <time>2020-06-06T15:51:21.000Z</time>
      </trkpt>
      <trkpt lat="43.64582" lon="3.85383">
        <ele>69.22200064</ele>
        <time>2020-06-06T15:51:22.000Z</time>
      </trkpt>
      <trkpt lat="43.6458" lon="3.85381">
        <ele>69.42200064</ele>
        <time>2020-06-06T15:51:23.000Z</time>
      </trkpt>
      <trkpt lat="43.64577" lon="3.85378">
        <ele>69.62200064</ele>
        <time>2020-06-06T15:51:24.000Z</time>
      </trkpt>
      <trkpt lat="43.64575" lon="3.85376">
        <ele>69.82200064</ele>
        <time>2020-06-06T15:51:25.000Z</time>
      </trkpt>
      <trkpt lat="43.64573" lon="3.85373">
        <ele>70.02200064</ele>
        <time>2020-06-06T15:51:26.000Z</time>
      </trkpt>
      <trkpt lat="43.64571" lon="3.85371">
        <ele>70.22200064</ele>
        <time>2020-06-06T15:51:27.000Z</time>
      </trkpt>
      <trkpt lat="43.64568" lon="3.85368">
        <ele>70.42200064</ele>
        <time>2020-06-06T15:51:28.000Z</time>
      </trkpt>
      <trkpt lat="43.64566" lon="3.85365">
        <ele>70.62200064</ele>
        <time>2020-06-06T15:51:29.000Z</time>
      </trkpt>
      <trkpt lat="43.64564" lon="3.85363">
        <ele>70.82200064</ele>
        <time>2020-06-06T15:51:30.000Z</time>
      </trkpt>
      <trkpt lat="43.64561" lon="3.8536">
        <ele>71.010784627451</ele>
        <time>2020-06-06T15:51:31.000Z</time>
      </trkpt>
      <trkpt lat="43.64559" lon="3.85357">
        <ele>71.108823843137</ele>
        <time>2020-06-06T15:51:32.000Z</time>
      </trkpt>
      <trkpt lat="43.64557" lon="3.85355">
        <ele>71.206863058824</ele>
        <time>2020-06-06T15:51:33.000Z</time>
      </trkpt>
      <trkpt lat="43.64555" lon="3.85351">
        <ele>71.30490227451</ele>
        <time>2020-06-06T15:51:34.000Z</time>
      </trkpt>
      <trkpt lat="43.64553" lon="3.85348">
        <ele>71.402941490196</ele>
        <time>2020-06-06T15:51:35.000Z</time>
      </trkpt>
      <trkpt lat="43.64551" lon="3.85345">
        <ele>71.500980705882</ele>
        <time>2020-06-06T15:51:36.000Z</time>
      </trkpt>
      <trkpt lat="43.64549" lon="3.85342">
        <ele>71.599019921569</ele>
        <time>2020-06-06T15:51:37.000Z</time>
      </trkpt>
      <trkpt lat="43.64547" lon="3.85339">
        <ele>71.697059137255</ele>
        <time>2020-06-06T15:51:38.000Z</time>
      </trkpt>
      <trkpt lat="43.64545" lon="3.85336">
        <ele>71.795098352941</ele>
        <time>2020-06-06T15:51:39.000Z</time>
      </trkpt>
      <trkpt lat="43.64543" lon="3.85333">
        <ele>71.893137568627</ele>
        <time>2020-06-06T15:51:40.000Z</time>
      </trkpt>
      <trkpt lat="43.64541" lon="3.85329">
        <ele>71.991176784314</ele>
        <time>2020-06-06T15:51:41.000Z</time>
      </trkpt>
      <trkpt lat="43.64539" lon="3.85326">
        <ele>72.09018853659</ele>
        <time>2020-06-06T15:51:42.000Z</time>
      </trkpt>
      <trkpt lat="43.64537" lon="3.85323">
        <ele>72.189296470045</ele>
        <time>2020-06-06T15:51:43.000Z</time>
      </trkpt>
      <trkpt lat="43.64535" lon="3.8532">
        <ele>72.2884044035</ele>
        <time>2020-06-06T15:51:44.000Z</time>
      </trkpt>
      <trkpt lat="43.64533" lon="3.85317">
        <ele>72.387512336956</ele>
        <time>2020-06-06T15:51:45.000Z</time>
      </trkpt>
      <trkpt lat="43.6453" lon="3.85313">
        <ele>72.486620270411</ele>
        <time>2020-06-06T15:51:46.000Z</time>
      </trkpt>
      <trkpt lat="43.64528" lon="3.8531">
        <ele>72.585728203866</ele>
        <time>2020-06-06T15:51:47.000Z</time>
      </trkpt>
      <trkpt lat="43.64526" lon="3.85307">
        <ele>72.684836137321</ele>
        <time>2020-06-06T15:51:48.000Z</time>
      </trkpt>
      <trkpt lat="43.64524" lon="3.85303">
        <ele>72.783944070777</ele>
        <time>2020-06-06T15:51:49.000Z</time>
      </trkpt>
      <trkpt lat="43.64521" lon="3.853">
        <ele>72.883052004232</ele>
        <time>2020-06-06T15:51:50.000Z</time>
      </trkpt>
      <trkpt lat="43.64519" lon="3.85298">
        <ele>72.982159937687</ele>
        <time>2020-06-06T15:51:51.000Z</time>
      </trkpt>
      <trkpt lat="43.64516" lon="3.85296">
        <ele>73.084448446005</ele>
        <time>2020-06-06T15:51:52.000Z</time>
      </trkpt>
      <trkpt lat="43.64512" lon="3.85295">
        <ele>73.187435159565</ele>
        <time>2020-06-06T15:51:53.000Z</time>
      </trkpt>
      <trkpt lat="43.64509" lon="3.85295">
        <ele>73.290421873126</ele>
        <time>2020-06-06T15:51:54.000Z</time>
      </trkpt>
      <trkpt lat="43.64506" lon="3.85295">
        <ele>73.393408586686</ele>
        <time>2020-06-06T15:51:55.000Z</time>
      </trkpt>
      <trkpt lat="43.64503" lon="3.85296">
        <ele>73.496395300247</ele>
        <time>2020-06-06T15:51:56.000Z</time>
      </trkpt>
      <trkpt lat="43.645" lon="3.85298">
        <ele>73.599382013807</ele>
        <time>2020-06-06T15:51:57.000Z</time>
      </trkpt>
      <trkpt lat="43.64497" lon="3.85299">
        <ele>73.702368727368</ele>
        <time>2020-06-06T15:51:58.000Z</time>
      </trkpt>
      <trkpt lat="43.64495" lon="3.853">
        <ele>73.805355440928</ele>
        <time>2020-06-06T15:51:59.000Z</time>
      </trkpt>
      <trkpt lat="43.64492" lon="3.85298">
        <ele>73.908342154489</ele>
        <time>2020-06-06T15:52:00.000Z</time>
      </trkpt>
      <trkpt lat="43.64489" lon="3.85296">
        <ele>73.989140859255</ele>
        <time>2020-06-06T15:52:01.000Z</time>
      </trkpt>
      <trkpt lat="43.64487" lon="3.85293">
        <ele>73.890424269687</ele>
        <time>2020-06-06T15:52:02.000Z</time>
      </trkpt>
      <trkpt lat="43.64484" lon="3.8529">
        <ele>73.791707680119</ele>
        <time>2020-06-06T15:52:03.000Z</time>
      </trkpt>
      <trkpt lat="43.64483" lon="3.85286">
        <ele>73.692991090551</ele>
        <time>2020-06-06T15:52:04.000Z</time>
      </trkpt>
      <trkpt lat="43.64483" lon="3.85281">
        <ele>73.594274500984</ele>
        <time>2020-06-06T15:52:05.000Z</time>
      </trkpt>
      <trkpt lat="43.64483" lon="3.85276">
        <ele>73.495557911416</ele>
        <time>2020-06-06T15:52:06.000Z</time>
      </trkpt>
      <trkpt lat="43.64483" lon="3.85272">
        <ele>73.396841321848</ele>
        <time>2020-06-06T15:52:07.000Z</time>
      </trkpt>
      <trkpt lat="43.64483" lon="3.85267">
        <ele>73.298124732281</ele>
        <time>2020-06-06T15:52:08.000Z</time>
      </trkpt>
      <trkpt lat="43.64482" lon="3.85263">
        <ele>73.199408142713</ele>
        <time>2020-06-06T15:52:09.000Z</time>
      </trkpt>
      <trkpt lat="43.64482" lon="3.85258">
        <ele>73.100691553145</ele>
        <time>2020-06-06T15:52:10.000Z</time>
      </trkpt>
      <trkpt lat="43.64481" lon="3.85253">
        <ele>73.001974963577</ele>
        <time>2020-06-06T15:52:11.000Z</time>
      </trkpt>
      <trkpt lat="43.64481" lon="3.85248">
        <ele>72.903638750407</ele>
        <time>2020-06-06T15:52:12.000Z</time>
      </trkpt>
      <trkpt lat="43.64481" lon="3.85243">
        <ele>72.805310302556</ele>
        <time>2020-06-06T15:52:13.000Z</time>
      </trkpt>
      <trkpt lat="43.64481" lon="3.85238">
        <ele>72.706981854704</ele>
        <time>2020-06-06T15:52:14.000Z</time>
      </trkpt>
      <trkpt lat="43.64481" lon="3.85234">
        <ele>72.608653406853</ele>
        <time>2020-06-06T15:52:15.000Z</time>
      </trkpt>
      <trkpt lat="43.6448" lon="3.85229">
        <ele>72.510324959001</ele>
        <time>2020-06-06T15:52:16.000Z</time>
      </trkpt>
      <trkpt lat="43.64478" lon="3.85224">
        <ele>72.411996511149</ele>
        <time>2020-06-06T15:52:17.000Z</time>
      </trkpt>
      <trkpt lat="43.64476" lon="3.8522">
        <ele>72.313668063298</ele>
        <time>2020-06-06T15:52:18.000Z</time>
      </trkpt>
      <trkpt lat="43.64474" lon="3.85215">
        <ele>72.215339615446</ele>
        <time>2020-06-06T15:52:19.000Z</time>
      </trkpt>
      <trkpt lat="43.64472" lon="3.85211">
        <ele>72.117011167594</ele>
        <time>2020-06-06T15:52:20.000Z</time>
      </trkpt>
      <trkpt lat="43.6447" lon="3.85206">
        <ele>72.018682719743</ele>
        <time>2020-06-06T15:52:21.000Z</time>
      </trkpt>
      <trkpt lat="43.64468" lon="3.85201">
        <ele>72</ele>
        <time>2020-06-06T15:52:22.000Z</time>
      </trkpt>
      <trkpt lat="43.64466" lon="3.85196">
        <ele>72</ele>
        <time>2020-06-06T15:52:23.000Z</time>
      </trkpt>
      <trkpt lat="43.64463" lon="3.85191">
        <ele>72</ele>
        <time>2020-06-06T15:52:24.000Z</time>
      </trkpt>
      <trkpt lat="43.64461" lon="3.85187">
        <ele>72</ele>
        <time>2020-06-06T15:52:25.000Z</time>
      </trkpt>
      <trkpt lat="43.64459" lon="3.85183">
        <ele>72</ele>
        <time>2020-06-06T15:52:26.000Z</time>
      </trkpt>
      <trkpt lat="43.64456" lon="3.85179">
        <ele>72</ele>
        <time>2020-06-06T15:52:27.000Z</time>
      </trkpt>
      <trkpt lat="43.64454" lon="3.85175">
        <ele>72</ele>
        <time>2020-06-06T15:52:28.000Z</time>
      </trkpt>
      <trkpt lat="43.64452" lon="3.85171">
        <ele>72</ele>
        <time>2020-06-06T15:52:29.000Z</time>
      </trkpt>
      <trkpt lat="43.6445" lon="3.85167">
        <ele>72</ele>
        <time>2020-06-06T15:52:30.000Z</time>
      </trkpt>
      <trkpt lat="43.64447" lon="3.85163">
        <ele>72</ele>
        <time>2020-06-06T15:52:31.000Z</time>
      </trkpt>
      <trkpt lat="43.64445" lon="3.85159">
        <ele>72</ele>
        <time>2020-06-06T15:52:32.000Z</time>
      </trkpt>
      <trkpt lat="43.64442" lon="3.85155">
        <ele>72</ele>
        <time>2020-06-06T15:52:33.000Z</time>
      </trkpt>
      <trkpt lat="43.6444" lon="3.85151">
        <ele>72</ele>
        <time>2020-06-06T15:52:34.000Z</time>
      </trkpt>
      <trkpt lat="43.64438" lon="3.85147">
        <ele>72</ele>
        <time>2020-06-06T15:52:35.000Z</time>
      </trkpt>
      <trkpt lat="43.64435" lon="3.85144">
        <ele>72</ele>
        <time>2020-06-06T15:52:36.000Z</time>
      </trkpt>
      <trkpt lat="43.64433" lon="3.8514">
        <ele>72</ele>
        <time>2020-06-06T15:52:37.000Z</time>
      </trkpt>
      <trkpt lat="43.64431" lon="3.85136">
        <ele>72</ele>
        <time>2020-06-06T15:52:38.000Z</time>
      </trkpt>
      <trkpt lat="43.64428" lon="3.85132">
        <ele>72</ele>
        <time>2020-06-06T15:52:39.000Z</time>
      </trkpt>
      <trkpt lat="43.64426" lon="3.85128">
        <ele>72</ele>
        <time>2020-06-06T15:52:40.000Z</time>
      </trkpt>
      <trkpt lat="43.64424" lon="3.85124">
        <ele>72.010010647444</ele>
        <time>2020-06-06T15:52:41.000Z</time>
      </trkpt>
      <trkpt lat="43.64422" lon="3.8512">
        <ele>72.11011071548</ele>
        <time>2020-06-06T15:52:42.000Z</time>
      </trkpt>
      <trkpt lat="43.64419" lon="3.85116">
        <ele>72.210210783516</ele>
        <time>2020-06-06T15:52:43.000Z</time>
      </trkpt>
      <trkpt lat="43.64417" lon="3.85113">
        <ele>72.310310851552</ele>
        <time>2020-06-06T15:52:44.000Z</time>
      </trkpt>
      <trkpt lat="43.64415" lon="3.85109">
        <ele>72.410410919588</ele>
        <time>2020-06-06T15:52:45.000Z</time>
      </trkpt>
      <trkpt lat="43.64413" lon="3.85105">
        <ele>72.510510987624</ele>
        <time>2020-06-06T15:52:46.000Z</time>
      </trkpt>
      <trkpt lat="43.6441" lon="3.85101">
        <ele>72.61061105566</ele>
        <time>2020-06-06T15:52:47.000Z</time>
      </trkpt>
      <trkpt lat="43.64408" lon="3.85097">
        <ele>72.710711123696</ele>
        <time>2020-06-06T15:52:48.000Z</time>
      </trkpt>
      <trkpt lat="43.64406" lon="3.85093">
        <ele>72.810811191732</ele>
        <time>2020-06-06T15:52:49.000Z</time>
      </trkpt>
      <trkpt lat="43.64404" lon="3.8509">
        <ele>72.910911259768</ele>
        <time>2020-06-06T15:52:50.000Z</time>
      </trkpt>
      <trkpt lat="43.64401" lon="3.85086">
        <ele>73.02200064</ele>
        <time>2020-06-06T15:52:51.000Z</time>
      </trkpt>
      <trkpt lat="43.64399" lon="3.85082">
        <ele>73.22200064</ele>
        <time>2020-06-06T15:52:52.000Z</time>
      </trkpt>
      <trkpt lat="43.64397" lon="3.85078">
        <ele>73.42200064</ele>
        <time>2020-06-06T15:52:53.000Z</time>
      </trkpt>
      <trkpt lat="43.64395" lon="3.85074">
        <ele>73.62200064</ele>
        <time>2020-06-06T15:52:54.000Z</time>
      </trkpt>
      <trkpt lat="43.64392" lon="3.8507">
        <ele>73.82200064</ele>
        <time>2020-06-06T15:52:55.000Z</time>
      </trkpt>
      <trkpt lat="43.6439" lon="3.85066">
        <ele>74.02200064</ele>
        <time>2020-06-06T15:52:56.000Z</time>
      </trkpt>
      <trkpt lat="43.64388" lon="3.85063">
        <ele>74.22200064</ele>
        <time>2020-06-06T15:52:57.000Z</time>
      </trkpt>
      <trkpt lat="43.64386" lon="3.85059">
        <ele>74.42200064</ele>
        <time>2020-06-06T15:52:58.000Z</time>
      </trkpt>
      <trkpt lat="43.64384" lon="3.85055">
        <ele>74.62200064</ele>
        <time>2020-06-06T15:52:59.000Z</time>
      </trkpt>
      <trkpt lat="43.64382" lon="3.85052">
        <ele>74.82200064</ele>
        <time>2020-06-06T15:53:00.000Z</time>
      </trkpt>
      <trkpt lat="43.6438" lon="3.85049">
        <ele>75.01100032</ele>
        <time>2020-06-06T15:53:01.000Z</time>
      </trkpt>
      <trkpt lat="43.64379" lon="3.85045">
        <ele>75.11100032</ele>
        <time>2020-06-06T15:53:02.000Z</time>
      </trkpt>
      <trkpt lat="43.64377" lon="3.85041">
        <ele>75.21100032</ele>
        <time>2020-06-06T15:53:03.000Z</time>
      </trkpt>
      <trkpt lat="43.64375" lon="3.85038">
        <ele>75.31100032</ele>
        <time>2020-06-06T15:53:04.000Z</time>
      </trkpt>
      <trkpt lat="43.64373" lon="3.85034">
        <ele>75.41100032</ele>
        <time>2020-06-06T15:53:05.000Z</time>
      </trkpt>
      <trkpt lat="43.64371" lon="3.8503">
        <ele>75.51100032</ele>
        <time>2020-06-06T15:53:06.000Z</time>
      </trkpt>
      <trkpt lat="43.64369" lon="3.85026">
        <ele>75.61100032</ele>
        <time>2020-06-06T15:53:07.000Z</time>
      </trkpt>
      <trkpt lat="43.64367" lon="3.85022">
        <ele>75.71100032</ele>
        <time>2020-06-06T15:53:08.000Z</time>
      </trkpt>
      <trkpt lat="43.64365" lon="3.85018">
        <ele>75.81100032</ele>
        <time>2020-06-06T15:53:09.000Z</time>
      </trkpt>
      <trkpt lat="43.64364" lon="3.85014">
        <ele>75.91100032</ele>
        <time>2020-06-06T15:53:10.000Z</time>
      </trkpt>
      <trkpt lat="43.64362" lon="3.8501">
        <ele>76.02200064</ele>
        <time>2020-06-06T15:53:11.000Z</time>
      </trkpt>
      <trkpt lat="43.6436" lon="3.85007">
        <ele>76.22200064</ele>
        <time>2020-06-06T15:53:12.000Z</time>
      </trkpt>
      <trkpt lat="43.64358" lon="3.85003">
        <ele>76.42200064</ele>
        <time>2020-06-06T15:53:13.000Z</time>
      </trkpt>
      <trkpt lat="43.64357" lon="3.85">
        <ele>76.62200064</ele>
        <time>2020-06-06T15:53:14.000Z</time>
      </trkpt>
      <trkpt lat="43.64355" lon="3.84996">
        <ele>76.82200064</ele>
        <time>2020-06-06T15:53:15.000Z</time>
      </trkpt>
      <trkpt lat="43.64353" lon="3.84993">
        <ele>77.02200064</ele>
        <time>2020-06-06T15:53:16.000Z</time>
      </trkpt>
      <trkpt lat="43.64352" lon="3.84989">
        <ele>77.22200064</ele>
        <time>2020-06-06T15:53:17.000Z</time>
      </trkpt>
      <trkpt lat="43.6435" lon="3.84986">
        <ele>77.42200064</ele>
        <time>2020-06-06T15:53:18.000Z</time>
      </trkpt>
      <trkpt lat="43.64348" lon="3.84983">
        <ele>77.62200064</ele>
        <time>2020-06-06T15:53:19.000Z</time>
      </trkpt>
      <trkpt lat="43.64347" lon="3.84979">
        <ele>77.82200064</ele>
        <time>2020-06-06T15:53:20.000Z</time>
      </trkpt>
      <trkpt lat="43.64345" lon="3.84976">
        <ele>78</ele>
        <time>2020-06-06T15:53:21.000Z</time>
      </trkpt>
      <trkpt lat="43.64344" lon="3.84973">
        <ele>78</ele>
        <time>2020-06-06T15:53:22.000Z</time>
      </trkpt>
      <trkpt lat="43.64343" lon="3.84969">
        <ele>78</ele>
        <time>2020-06-06T15:53:23.000Z</time>
      </trkpt>
      <trkpt lat="43.64341" lon="3.84966">
        <ele>78</ele>
        <time>2020-06-06T15:53:24.000Z</time>
      </trkpt>
      <trkpt lat="43.6434" lon="3.84963">
        <ele>78</ele>
        <time>2020-06-06T15:53:25.000Z</time>
      </trkpt>
      <trkpt lat="43.64338" lon="3.8496">
        <ele>78</ele>
        <time>2020-06-06T15:53:26.000Z</time>
      </trkpt>
      <trkpt lat="43.64337" lon="3.84956">
        <ele>78</ele>
        <time>2020-06-06T15:53:27.000Z</time>
      </trkpt>
      <trkpt lat="43.64335" lon="3.84953">
        <ele>78</ele>
        <time>2020-06-06T15:53:28.000Z</time>
      </trkpt>
      <trkpt lat="43.64334" lon="3.84949">
        <ele>78</ele>
        <time>2020-06-06T15:53:29.000Z</time>
      </trkpt>
      <trkpt lat="43.64333" lon="3.84945">
        <ele>78</ele>
        <time>2020-06-06T15:53:30.000Z</time>
      </trkpt>
      <trkpt lat="43.64331" lon="3.84942">
        <ele>77.989299299611</ele>
        <time>2020-06-06T15:53:31.000Z</time>
      </trkpt>
      <trkpt lat="43.64329" lon="3.84938">
        <ele>77.892023035019</ele>
        <time>2020-06-06T15:53:32.000Z</time>
      </trkpt>
      <trkpt lat="43.64328" lon="3.84934">
        <ele>77.794746770428</ele>
        <time>2020-06-06T15:53:33.000Z</time>
      </trkpt>
      <trkpt lat="43.64326" lon="3.84929">
        <ele>77.697470505837</ele>
        <time>2020-06-06T15:53:34.000Z</time>
      </trkpt>
      <trkpt lat="43.64324" lon="3.84925">
        <ele>77.600194241245</ele>
        <time>2020-06-06T15:53:35.000Z</time>
      </trkpt>
      <trkpt lat="43.64322" lon="3.8492">
        <ele>77.502917976654</ele>
        <time>2020-06-06T15:53:36.000Z</time>
      </trkpt>
      <trkpt lat="43.6432" lon="3.84915">
        <ele>77.405641712062</ele>
        <time>2020-06-06T15:53:37.000Z</time>
      </trkpt>
      <trkpt lat="43.64318" lon="3.8491">
        <ele>77.308365447471</ele>
        <time>2020-06-06T15:53:38.000Z</time>
      </trkpt>
      <trkpt lat="43.64316" lon="3.84906">
        <ele>77.211089182879</ele>
        <time>2020-06-06T15:53:39.000Z</time>
      </trkpt>
      <trkpt lat="43.64313" lon="3.84901">
        <ele>77.113812918288</ele>
        <time>2020-06-06T15:53:40.000Z</time>
      </trkpt>
      <trkpt lat="43.6431" lon="3.84895">
        <ele>77.016536653697</ele>
        <time>2020-06-06T15:53:41.000Z</time>
      </trkpt>
      <trkpt lat="43.64308" lon="3.8489">
        <ele>76.74382617284</ele>
        <time>2020-06-06T15:53:42.000Z</time>
      </trkpt>
      <trkpt lat="43.64305" lon="3.84884">
        <ele>76.435184197531</ele>
        <time>2020-06-06T15:53:43.000Z</time>
      </trkpt>
      <trkpt lat="43.64302" lon="3.84878">
        <ele>76.126542222222</ele>
        <time>2020-06-06T15:53:44.000Z</time>
      </trkpt>
      <trkpt lat="43.64298" lon="3.84872">
        <ele>75.817900246914</ele>
        <time>2020-06-06T15:53:45.000Z</time>
      </trkpt>
      <trkpt lat="43.64295" lon="3.84867">
        <ele>75.509258271605</ele>
        <time>2020-06-06T15:53:46.000Z</time>
      </trkpt>
      <trkpt lat="43.64291" lon="3.84861">
        <ele>75.200616296296</ele>
        <time>2020-06-06T15:53:47.000Z</time>
      </trkpt>
      <trkpt lat="43.64287" lon="3.84855">
        <ele>74.891974320988</ele>
        <time>2020-06-06T15:53:48.000Z</time>
      </trkpt>
      <trkpt lat="43.64283" lon="3.8485">
        <ele>74.583332345679</ele>
        <time>2020-06-06T15:53:49.000Z</time>
      </trkpt>
      <trkpt lat="43.64279" lon="3.84845">
        <ele>74.27469037037</ele>
        <time>2020-06-06T15:53:50.000Z</time>
      </trkpt>
      <trkpt lat="43.64275" lon="3.8484">
        <ele>73.97799936</ele>
        <time>2020-06-06T15:53:51.000Z</time>
      </trkpt>
      <trkpt lat="43.64271" lon="3.84835">
        <ele>73.77799936</ele>
        <time>2020-06-06T15:53:52.000Z</time>
      </trkpt>
      <trkpt lat="43.64266" lon="3.84831">
        <ele>73.57799936</ele>
        <time>2020-06-06T15:53:53.000Z</time>
      </trkpt>
      <trkpt lat="43.64262" lon="3.84827">
        <ele>73.37799936</ele>
        <time>2020-06-06T15:53:54.000Z</time>
      </trkpt>
      <trkpt lat="43.64258" lon="3.84823">
        <ele>73.17799936</ele>
        <time>2020-06-06T15:53:55.000Z</time>
      </trkpt>
      <trkpt lat="43.64254" lon="3.84819">
        <ele>72.97799936</ele>
        <time>2020-06-06T15:53:56.000Z</time>
      </trkpt>
      <trkpt lat="43.64249" lon="3.84815">
        <ele>72.77799936</ele>
        <time>2020-06-06T15:53:57.000Z</time>
      </trkpt>
      <trkpt lat="43.64245" lon="3.84811">
        <ele>72.57799936</ele>
        <time>2020-06-06T15:53:58.000Z</time>
      </trkpt>
      <trkpt lat="43.6424" lon="3.84807">
        <ele>72.37799936</ele>
        <time>2020-06-06T15:53:59.000Z</time>
      </trkpt>
      <trkpt lat="43.64235" lon="3.84804">
        <ele>72.17799936</ele>
        <time>2020-06-06T15:54:00.000Z</time>
      </trkpt>
      <trkpt lat="43.6423" lon="3.848">
        <ele>71.957280337224</ele>
        <time>2020-06-06T15:54:01.000Z</time>
      </trkpt>
      <trkpt lat="43.64224" lon="3.84796">
        <ele>71.568931063965</ele>
        <time>2020-06-06T15:54:02.000Z</time>
      </trkpt>
      <trkpt lat="43.64218" lon="3.84792">
        <ele>71.180581790706</ele>
        <time>2020-06-06T15:54:03.000Z</time>
      </trkpt>
      <trkpt lat="43.64212" lon="3.84788">
        <ele>70.792232517448</ele>
        <time>2020-06-06T15:54:04.000Z</time>
      </trkpt>
      <trkpt lat="43.64206" lon="3.84785">
        <ele>70.403883244189</ele>
        <time>2020-06-06T15:54:05.000Z</time>
      </trkpt>
      <trkpt lat="43.64199" lon="3.84782">
        <ele>70.01553397093</ele>
        <time>2020-06-06T15:54:06.000Z</time>
      </trkpt>
      <trkpt lat="43.64192" lon="3.84779">
        <ele>69.627184697672</ele>
        <time>2020-06-06T15:54:07.000Z</time>
      </trkpt>
      <trkpt lat="43.64185" lon="3.84778">
        <ele>69.238835424413</ele>
        <time>2020-06-06T15:54:08.000Z</time>
      </trkpt>
      <trkpt lat="43.64178" lon="3.84776">
        <ele>68.850486151154</ele>
        <time>2020-06-06T15:54:09.000Z</time>
      </trkpt>
      <trkpt lat="43.64171" lon="3.84776">
        <ele>68.462136877896</ele>
        <time>2020-06-06T15:54:10.000Z</time>
      </trkpt>
      <trkpt lat="43.64163" lon="3.84775">
        <ele>68.073787604637</ele>
        <time>2020-06-06T15:54:11.000Z</time>
      </trkpt>
      <trkpt lat="43.64156" lon="3.84773">
        <ele>67.916495120162</ele>
        <time>2020-06-06T15:54:12.000Z</time>
      </trkpt>
      <trkpt lat="43.64149" lon="3.84771">
        <ele>67.813402268637</ele>
        <time>2020-06-06T15:54:13.000Z</time>
      </trkpt>
      <trkpt lat="43.64142" lon="3.84769">
        <ele>67.710309417111</ele>
        <time>2020-06-06T15:54:14.000Z</time>
      </trkpt>
      <trkpt lat="43.64135" lon="3.84769">
        <ele>67.607216565586</ele>
        <time>2020-06-06T15:54:15.000Z</time>
      </trkpt>
      <trkpt lat="43.64129" lon="3.84769">
        <ele>67.504123714061</ele>
        <time>2020-06-06T15:54:16.000Z</time>
      </trkpt>
      <trkpt lat="43.64123" lon="3.84768">
        <ele>67.401030862536</ele>
        <time>2020-06-06T15:54:17.000Z</time>
      </trkpt>
      <trkpt lat="43.64118" lon="3.84768">
        <ele>67.297938011011</ele>
        <time>2020-06-06T15:54:18.000Z</time>
      </trkpt>
      <trkpt lat="43.64112" lon="3.84769">
        <ele>67.194845159485</ele>
        <time>2020-06-06T15:54:19.000Z</time>
      </trkpt>
      <trkpt lat="43.64108" lon="3.84771">
        <ele>67.09175230796</ele>
        <time>2020-06-06T15:54:20.000Z</time>
      </trkpt>
      <trkpt lat="43.64103" lon="3.84773">
        <ele>66.97799936</ele>
        <time>2020-06-06T15:54:21.000Z</time>
      </trkpt>
      <trkpt lat="43.64099" lon="3.84775">
        <ele>66.77799936</ele>
        <time>2020-06-06T15:54:22.000Z</time>
      </trkpt>
      <trkpt lat="43.64095" lon="3.84778">
        <ele>66.57799936</ele>
        <time>2020-06-06T15:54:23.000Z</time>
      </trkpt>
      <trkpt lat="43.64091" lon="3.8478">
        <ele>66.37799936</ele>
        <time>2020-06-06T15:54:24.000Z</time>
      </trkpt>
      <trkpt lat="43.64087" lon="3.84782">
        <ele>66.17799936</ele>
        <time>2020-06-06T15:54:25.000Z</time>
      </trkpt>
      <trkpt lat="43.64083" lon="3.84785">
        <ele>65.97799936</ele>
        <time>2020-06-06T15:54:26.000Z</time>
      </trkpt>
      <trkpt lat="43.6408" lon="3.84787">
        <ele>65.77799936</ele>
        <time>2020-06-06T15:54:27.000Z</time>
      </trkpt>
      <trkpt lat="43.64077" lon="3.84789">
        <ele>65.57799936</ele>
        <time>2020-06-06T15:54:28.000Z</time>
      </trkpt>
      <trkpt lat="43.64073" lon="3.84789">
        <ele>65.37799936</ele>
        <time>2020-06-06T15:54:29.000Z</time>
      </trkpt>
      <trkpt lat="43.6407" lon="3.84787">
        <ele>65.17799936</ele>
        <time>2020-06-06T15:54:30.000Z</time>
      </trkpt>
      <trkpt lat="43.64067" lon="3.84784">
        <ele>64.98899968</ele>
        <time>2020-06-06T15:54:31.000Z</time>
      </trkpt>
      <trkpt lat="43.64065" lon="3.84781">
        <ele>64.88899968</ele>
        <time>2020-06-06T15:54:32.000Z</time>
      </trkpt>
      <trkpt lat="43.64062" lon="3.84779">
        <ele>64.78899968</ele>
        <time>2020-06-06T15:54:33.000Z</time>
      </trkpt>
      <trkpt lat="43.64059" lon="3.84777">
        <ele>64.68899968</ele>
        <time>2020-06-06T15:54:34.000Z</time>
      </trkpt>
      <trkpt lat="43.64055" lon="3.84774">
        <ele>64.58899968</ele>
        <time>2020-06-06T15:54:35.000Z</time>
      </trkpt>
      <trkpt lat="43.64052" lon="3.84772">
        <ele>64.48899968</ele>
        <time>2020-06-06T15:54:36.000Z</time>
      </trkpt>
      <trkpt lat="43.64048" lon="3.84769">
        <ele>64.38899968</ele>
        <time>2020-06-06T15:54:37.000Z</time>
      </trkpt>
      <trkpt lat="43.64045" lon="3.84766">
        <ele>64.28899968</ele>
        <time>2020-06-06T15:54:38.000Z</time>
      </trkpt>
      <trkpt lat="43.64042" lon="3.84763">
        <ele>64.18899968</ele>
        <time>2020-06-06T15:54:39.000Z</time>
      </trkpt>
      <trkpt lat="43.64038" lon="3.84762">
        <ele>64.08899968</ele>
        <time>2020-06-06T15:54:40.000Z</time>
      </trkpt>
      <trkpt lat="43.64033" lon="3.84762">
        <ele>63.98899968</ele>
        <time>2020-06-06T15:54:41.000Z</time>
      </trkpt>
      <trkpt lat="43.64029" lon="3.84762">
        <ele>63.88899968</ele>
        <time>2020-06-06T15:54:42.000Z</time>
      </trkpt>
      <trkpt lat="43.64024" lon="3.84762">
        <ele>63.78899968</ele>
        <time>2020-06-06T15:54:43.000Z</time>
      </trkpt>
      <trkpt lat="43.6402" lon="3.84762">
        <ele>63.68899968</ele>
        <time>2020-06-06T15:54:44.000Z</time>
      </trkpt>
      <trkpt lat="43.64015" lon="3.84762">
        <ele>63.58899968</ele>
        <time>2020-06-06T15:54:45.000Z</time>
      </trkpt>
      <trkpt lat="43.6401" lon="3.84762">
        <ele>63.48899968</ele>
        <time>2020-06-06T15:54:46.000Z</time>
      </trkpt>
      <trkpt lat="43.64004" lon="3.84762">
        <ele>63.38899968</ele>
        <time>2020-06-06T15:54:47.000Z</time>
      </trkpt>
      <trkpt lat="43.63999" lon="3.84762">
        <ele>63.28899968</ele>
        <time>2020-06-06T15:54:48.000Z</time>
      </trkpt>
      <trkpt lat="43.63993" lon="3.84762">
        <ele>63.18899968</ele>
        <time>2020-06-06T15:54:49.000Z</time>
      </trkpt>
      <trkpt lat="43.63988" lon="3.84762">
        <ele>63.08899968</ele>
        <time>2020-06-06T15:54:50.000Z</time>
      </trkpt>
      <trkpt lat="43.63982" lon="3.84761">
        <ele>62.978660879562</ele>
        <time>2020-06-06T15:54:51.000Z</time>
      </trkpt>
      <trkpt lat="43.63977" lon="3.84761">
        <ele>62.784674518821</ele>
        <time>2020-06-06T15:54:52.000Z</time>
      </trkpt>
      <trkpt lat="43.63971" lon="3.84761">
        <ele>62.590688158079</ele>
        <time>2020-06-06T15:54:53.000Z</time>
      </trkpt>
      <trkpt lat="43.63965" lon="3.84761">
        <ele>62.396701797338</ele>
        <time>2020-06-06T15:54:54.000Z</time>
      </trkpt>
      <trkpt lat="43.6396" lon="3.84761">
        <ele>62.202715436597</ele>
        <time>2020-06-06T15:54:55.000Z</time>
      </trkpt>
      <trkpt lat="43.63954" lon="3.84762">
        <ele>62.008729075855</ele>
        <time>2020-06-06T15:54:56.000Z</time>
      </trkpt>
      <trkpt lat="43.63948" lon="3.84762">
        <ele>61.814742715114</ele>
        <time>2020-06-06T15:54:57.000Z</time>
      </trkpt>
      <trkpt lat="43.63942" lon="3.84761">
        <ele>61.620756354372</ele>
        <time>2020-06-06T15:54:58.000Z</time>
      </trkpt>
      <trkpt lat="43.63936" lon="3.84761">
        <ele>61.426769993631</ele>
        <time>2020-06-06T15:54:59.000Z</time>
      </trkpt>
      <trkpt lat="43.63929" lon="3.84761">
        <ele>61.23278363289</ele>
        <time>2020-06-06T15:55:00.000Z</time>
      </trkpt>
      <trkpt lat="43.63923" lon="3.84761">
        <ele>61.038797272148</ele>
        <time>2020-06-06T15:55:01.000Z</time>
      </trkpt>
      <trkpt lat="43.63918" lon="3.84761">
        <ele>60.91744063321</ele>
        <time>2020-06-06T15:55:02.000Z</time>
      </trkpt>
      <trkpt lat="43.63912" lon="3.84761">
        <ele>60.814241424724</ele>
        <time>2020-06-06T15:55:03.000Z</time>
      </trkpt>
      <trkpt lat="43.63906" lon="3.84761">
        <ele>60.711042216237</ele>
        <time>2020-06-06T15:55:04.000Z</time>
      </trkpt>
      <trkpt lat="43.639" lon="3.84761">
        <ele>60.60784300775</ele>
        <time>2020-06-06T15:55:05.000Z</time>
      </trkpt>
      <trkpt lat="43.63895" lon="3.84763">
        <ele>60.504643799263</ele>
        <time>2020-06-06T15:55:06.000Z</time>
      </trkpt>
      <trkpt lat="43.63891" lon="3.84766">
        <ele>60.401444590776</ele>
        <time>2020-06-06T15:55:07.000Z</time>
      </trkpt>
      <trkpt lat="43.63886" lon="3.84766">
        <ele>60.29824538229</ele>
        <time>2020-06-06T15:55:08.000Z</time>
      </trkpt>
      <trkpt lat="43.63881" lon="3.84764">
        <ele>60.195046173803</ele>
        <time>2020-06-06T15:55:09.000Z</time>
      </trkpt>
      <trkpt lat="43.63878" lon="3.84761">
        <ele>60.091846965316</ele>
        <time>2020-06-06T15:55:10.000Z</time>
      </trkpt>
      <trkpt lat="43.63874" lon="3.84761">
        <ele>59.98899968</ele>
        <time>2020-06-06T15:55:11.000Z</time>
      </trkpt>
      <trkpt lat="43.6387" lon="3.84761">
        <ele>59.88899968</ele>
        <time>2020-06-06T15:55:12.000Z</time>
      </trkpt>
      <trkpt lat="43.63868" lon="3.84761">
        <ele>59.78899968</ele>
        <time>2020-06-06T15:55:13.000Z</time>
      </trkpt>
      <trkpt lat="43.63866" lon="3.84758">
        <ele>59.68899968</ele>
        <time>2020-06-06T15:55:14.000Z</time>
      </trkpt>
      <trkpt lat="43.63865" lon="3.84754">
        <ele>59.58899968</ele>
        <time>2020-06-06T15:55:15.000Z</time>
      </trkpt>
      <trkpt lat="43.63866" lon="3.84749">
        <ele>59.48899968</ele>
        <time>2020-06-06T15:55:16.000Z</time>
      </trkpt>
      <trkpt lat="43.63866" lon="3.84744">
        <ele>59.38899968</ele>
        <time>2020-06-06T15:55:17.000Z</time>
      </trkpt>
      <trkpt lat="43.63866" lon="3.84738">
        <ele>59.28899968</ele>
        <time>2020-06-06T15:55:18.000Z</time>
      </trkpt>
      <trkpt lat="43.63865" lon="3.84732">
        <ele>59.18899968</ele>
        <time>2020-06-06T15:55:19.000Z</time>
      </trkpt>
      <trkpt lat="43.63863" lon="3.84727">
        <ele>59.08899968</ele>
        <time>2020-06-06T15:55:20.000Z</time>
      </trkpt>
      <trkpt lat="43.6386" lon="3.84723">
        <ele>59</ele>
        <time>2020-06-06T15:55:21.000Z</time>
      </trkpt>
      <trkpt lat="43.63856" lon="3.84721">
        <ele>59</ele>
        <time>2020-06-06T15:55:22.000Z</time>
      </trkpt>
      <trkpt lat="43.63852" lon="3.8472">
        <ele>59</ele>
        <time>2020-06-06T15:55:23.000Z</time>
      </trkpt>
      <trkpt lat="43.63847" lon="3.8472">
        <ele>59</ele>
        <time>2020-06-06T15:55:24.000Z</time>
      </trkpt>
      <trkpt lat="43.63842" lon="3.84719">
        <ele>59</ele>
        <time>2020-06-06T15:55:25.000Z</time>
      </trkpt>
      <trkpt lat="43.63838" lon="3.84717">
        <ele>59</ele>
        <time>2020-06-06T15:55:26.000Z</time>
      </trkpt>
      <trkpt lat="43.63834" lon="3.84714">
        <ele>59</ele>
        <time>2020-06-06T15:55:27.000Z</time>
      </trkpt>
      <trkpt lat="43.6383" lon="3.84711">
        <ele>59</ele>
        <time>2020-06-06T15:55:28.000Z</time>
      </trkpt>
      <trkpt lat="43.63827" lon="3.84707">
        <ele>59</ele>
        <time>2020-06-06T15:55:29.000Z</time>
      </trkpt>
      <trkpt lat="43.63824" lon="3.84701">
        <ele>59</ele>
        <time>2020-06-06T15:55:30.000Z</time>
      </trkpt>
      <trkpt lat="43.63821" lon="3.84693">
        <ele>58.978640168612</ele>
        <time>2020-06-06T15:55:31.000Z</time>
      </trkpt>
      <trkpt lat="43.63818" lon="3.84684">
        <ele>58.784465531983</ele>
        <time>2020-06-06T15:55:32.000Z</time>
      </trkpt>
      <trkpt lat="43.63816" lon="3.84675">
        <ele>58.590290895353</ele>
        <time>2020-06-06T15:55:33.000Z</time>
      </trkpt>
      <trkpt lat="43.63813" lon="3.84666">
        <ele>58.396116258724</ele>
        <time>2020-06-06T15:55:34.000Z</time>
      </trkpt>
      <trkpt lat="43.6381" lon="3.84658">
        <ele>58.201941622095</ele>
        <time>2020-06-06T15:55:35.000Z</time>
      </trkpt>
      <trkpt lat="43.63808" lon="3.8465">
        <ele>58.007766985465</ele>
        <time>2020-06-06T15:55:36.000Z</time>
      </trkpt>
      <trkpt lat="43.63805" lon="3.84643">
        <ele>57.813592348836</ele>
        <time>2020-06-06T15:55:37.000Z</time>
      </trkpt>
      <trkpt lat="43.63801" lon="3.84636">
        <ele>57.619417712206</ele>
        <time>2020-06-06T15:55:38.000Z</time>
      </trkpt>
      <trkpt lat="43.63797" lon="3.8463">
        <ele>57.425243075577</ele>
        <time>2020-06-06T15:55:39.000Z</time>
      </trkpt>
      <trkpt lat="43.63793" lon="3.84625">
        <ele>57.231068438948</ele>
        <time>2020-06-06T15:55:40.000Z</time>
      </trkpt>
      <trkpt lat="43.63789" lon="3.8462">
        <ele>57.036893802318</ele>
        <time>2020-06-06T15:55:41.000Z</time>
      </trkpt>
      <trkpt lat="43.63784" lon="3.84616">
        <ele>57</ele>
        <time>2020-06-06T15:55:42.000Z</time>
      </trkpt>
      <trkpt lat="43.6378" lon="3.84612">
        <ele>57</ele>
        <time>2020-06-06T15:55:43.000Z</time>
      </trkpt>
      <trkpt lat="43.63776" lon="3.84608">
        <ele>57</ele>
        <time>2020-06-06T15:55:44.000Z</time>
      </trkpt>
      <trkpt lat="43.63772" lon="3.84605">
        <ele>57</ele>
        <time>2020-06-06T15:55:45.000Z</time>
      </trkpt>
      <trkpt lat="43.63769" lon="3.84602">
        <ele>57</ele>
        <time>2020-06-06T15:55:46.000Z</time>
      </trkpt>
      <trkpt lat="43.63765" lon="3.84598">
        <ele>57</ele>
        <time>2020-06-06T15:55:47.000Z</time>
      </trkpt>
      <trkpt lat="43.63762" lon="3.84594">
        <ele>57</ele>
        <time>2020-06-06T15:55:48.000Z</time>
      </trkpt>
      <trkpt lat="43.63759" lon="3.8459">
        <ele>57</ele>
        <time>2020-06-06T15:55:49.000Z</time>
      </trkpt>
      <trkpt lat="43.63755" lon="3.84586">
        <ele>57</ele>
        <time>2020-06-06T15:55:50.000Z</time>
      </trkpt>
      <trkpt lat="43.63752" lon="3.84581">
        <ele>57</ele>
        <time>2020-06-06T15:55:51.000Z</time>
      </trkpt>
      <trkpt lat="43.63749" lon="3.84577">
        <ele>57</ele>
        <time>2020-06-06T15:55:52.000Z</time>
      </trkpt>
      <trkpt lat="43.63745" lon="3.84574">
        <ele>57</ele>
        <time>2020-06-06T15:55:53.000Z</time>
      </trkpt>
      <trkpt lat="43.63742" lon="3.84571">
        <ele>57</ele>
        <time>2020-06-06T15:55:54.000Z</time>
      </trkpt>
      <trkpt lat="43.63738" lon="3.84568">
        <ele>57</ele>
        <time>2020-06-06T15:55:55.000Z</time>
      </trkpt>
      <trkpt lat="43.63735" lon="3.84565">
        <ele>57</ele>
        <time>2020-06-06T15:55:56.000Z</time>
      </trkpt>
      <trkpt lat="43.63731" lon="3.84561">
        <ele>57</ele>
        <time>2020-06-06T15:55:57.000Z</time>
      </trkpt>
      <trkpt lat="43.63728" lon="3.84558">
        <ele>57</ele>
        <time>2020-06-06T15:55:58.000Z</time>
      </trkpt>
      <trkpt lat="43.63725" lon="3.84554">
        <ele>57</ele>
        <time>2020-06-06T15:55:59.000Z</time>
      </trkpt>
      <trkpt lat="43.63722" lon="3.84551">
        <ele>57</ele>
        <time>2020-06-06T15:56:00.000Z</time>
      </trkpt>
      <trkpt lat="43.63719" lon="3.84547">
        <ele>57</ele>
        <time>2020-06-06T15:56:01.000Z</time>
      </trkpt>
      <trkpt lat="43.63716" lon="3.84544">
        <ele>57</ele>
        <time>2020-06-06T15:56:02.000Z</time>
      </trkpt>
      <trkpt lat="43.63713" lon="3.84541">
        <ele>57</ele>
        <time>2020-06-06T15:56:03.000Z</time>
      </trkpt>
      <trkpt lat="43.63711" lon="3.84539">
        <ele>57</ele>
        <time>2020-06-06T15:56:04.000Z</time>
      </trkpt>
      <trkpt lat="43.63708" lon="3.84536">
        <ele>57</ele>
        <time>2020-06-06T15:56:05.000Z</time>
      </trkpt>
      <trkpt lat="43.63705" lon="3.84533">
        <ele>57</ele>
        <time>2020-06-06T15:56:06.000Z</time>
      </trkpt>
      <trkpt lat="43.63702" lon="3.84531">
        <ele>57</ele>
        <time>2020-06-06T15:56:07.000Z</time>
      </trkpt>
      <trkpt lat="43.637" lon="3.84528">
        <ele>57</ele>
        <time>2020-06-06T15:56:08.000Z</time>
      </trkpt>
      <trkpt lat="43.63697" lon="3.84526">
        <ele>57</ele>
        <time>2020-06-06T15:56:09.000Z</time>
      </trkpt>
      <trkpt lat="43.63695" lon="3.84524">
        <ele>57</ele>
        <time>2020-06-06T15:56:10.000Z</time>
      </trkpt>
      <trkpt lat="43.63692" lon="3.84521">
        <ele>57</ele>
        <time>2020-06-06T15:56:11.000Z</time>
      </trkpt>
      <trkpt lat="43.63689" lon="3.84519">
        <ele>57</ele>
        <time>2020-06-06T15:56:12.000Z</time>
      </trkpt>
      <trkpt lat="43.63686" lon="3.84517">
        <ele>57</ele>
        <time>2020-06-06T15:56:13.000Z</time>
      </trkpt>
      <trkpt lat="43.63683" lon="3.84514">
        <ele>57</ele>
        <time>2020-06-06T15:56:14.000Z</time>
      </trkpt>
      <trkpt lat="43.6368" lon="3.84511">
        <ele>57</ele>
        <time>2020-06-06T15:56:15.000Z</time>
      </trkpt>
      <trkpt lat="43.63677" lon="3.84508">
        <ele>57</ele>
        <time>2020-06-06T15:56:16.000Z</time>
      </trkpt>
      <trkpt lat="43.63674" lon="3.84505">
        <ele>57</ele>
        <time>2020-06-06T15:56:17.000Z</time>
      </trkpt>
      <trkpt lat="43.63671" lon="3.84503">
        <ele>57</ele>
        <time>2020-06-06T15:56:18.000Z</time>
      </trkpt>
      <trkpt lat="43.63668" lon="3.845">
        <ele>57</ele>
        <time>2020-06-06T15:56:19.000Z</time>
      </trkpt>
      <trkpt lat="43.63665" lon="3.84497">
        <ele>57</ele>
        <time>2020-06-06T15:56:20.000Z</time>
      </trkpt>
      <trkpt lat="43.63661" lon="3.84494">
        <ele>56.97799936</ele>
        <time>2020-06-06T15:56:21.000Z</time>
      </trkpt>
      <trkpt lat="43.63658" lon="3.84491">
        <ele>56.77799936</ele>
        <time>2020-06-06T15:56:22.000Z</time>
      </trkpt>
      <trkpt lat="43.63654" lon="3.84488">
        <ele>56.57799936</ele>
        <time>2020-06-06T15:56:23.000Z</time>
      </trkpt>
      <trkpt lat="43.63649" lon="3.84486">
        <ele>56.37799936</ele>
        <time>2020-06-06T15:56:24.000Z</time>
      </trkpt>
      <trkpt lat="43.63645" lon="3.84485">
        <ele>56.17799936</ele>
        <time>2020-06-06T15:56:25.000Z</time>
      </trkpt>
      <trkpt lat="43.6364" lon="3.84484">
        <ele>55.97799936</ele>
        <time>2020-06-06T15:56:26.000Z</time>
      </trkpt>
      <trkpt lat="43.63636" lon="3.84481">
        <ele>55.77799936</ele>
        <time>2020-06-06T15:56:27.000Z</time>
      </trkpt>
      <trkpt lat="43.63631" lon="3.84478">
        <ele>55.57799936</ele>
        <time>2020-06-06T15:56:28.000Z</time>
      </trkpt>
      <trkpt lat="43.63627" lon="3.84474">
        <ele>55.37799936</ele>
        <time>2020-06-06T15:56:29.000Z</time>
      </trkpt>
      <trkpt lat="43.63622" lon="3.84471">
        <ele>55.17799936</ele>
        <time>2020-06-06T15:56:30.000Z</time>
      </trkpt>
      <trkpt lat="43.63617" lon="3.84468">
        <ele>55</ele>
        <time>2020-06-06T15:56:31.000Z</time>
      </trkpt>
      <trkpt lat="43.63612" lon="3.84466">
        <ele>55</ele>
        <time>2020-06-06T15:56:32.000Z</time>
      </trkpt>
      <trkpt lat="43.63608" lon="3.84462">
        <ele>55</ele>
        <time>2020-06-06T15:56:33.000Z</time>
      </trkpt>
      <trkpt lat="43.63604" lon="3.84459">
        <ele>55</ele>
        <time>2020-06-06T15:56:34.000Z</time>
      </trkpt>
      <trkpt lat="43.636" lon="3.84456">
        <ele>55</ele>
        <time>2020-06-06T15:56:35.000Z</time>
      </trkpt>
      <trkpt lat="43.63595" lon="3.84453">
        <ele>55</ele>
        <time>2020-06-06T15:56:36.000Z</time>
      </trkpt>
      <trkpt lat="43.6359" lon="3.84451">
        <ele>55</ele>
        <time>2020-06-06T15:56:37.000Z</time>
      </trkpt>
      <trkpt lat="43.63586" lon="3.84448">
        <ele>55</ele>
        <time>2020-06-06T15:56:38.000Z</time>
      </trkpt>
      <trkpt lat="43.63581" lon="3.84446">
        <ele>55</ele>
        <time>2020-06-06T15:56:39.000Z</time>
      </trkpt>
      <trkpt lat="43.63576" lon="3.84443">
        <ele>55</ele>
        <time>2020-06-06T15:56:40.000Z</time>
      </trkpt>
      <trkpt lat="43.63572" lon="3.84441">
        <ele>55</ele>
        <time>2020-06-06T15:56:41.000Z</time>
      </trkpt>
      <trkpt lat="43.63567" lon="3.84439">
        <ele>55.094768045731</ele>
        <time>2020-06-06T15:56:42.000Z</time>
      </trkpt>
      <trkpt lat="43.63563" lon="3.84437">
        <ele>55.193484760035</ele>
        <time>2020-06-06T15:56:43.000Z</time>
      </trkpt>
      <trkpt lat="43.63559" lon="3.84435">
        <ele>55.292201474338</ele>
        <time>2020-06-06T15:56:44.000Z</time>
      </trkpt>
      <trkpt lat="43.63555" lon="3.84432">
        <ele>55.390918188641</ele>
        <time>2020-06-06T15:56:45.000Z</time>
      </trkpt>
      <trkpt lat="43.63551" lon="3.8443">
        <ele>55.489634902945</ele>
        <time>2020-06-06T15:56:46.000Z</time>
      </trkpt>
      <trkpt lat="43.63548" lon="3.84428">
        <ele>55.588351617248</ele>
        <time>2020-06-06T15:56:47.000Z</time>
      </trkpt>
      <trkpt lat="43.63544" lon="3.84426">
        <ele>55.687068331552</ele>
        <time>2020-06-06T15:56:48.000Z</time>
      </trkpt>
      <trkpt lat="43.63541" lon="3.84424">
        <ele>55.785785045855</ele>
        <time>2020-06-06T15:56:49.000Z</time>
      </trkpt>
      <trkpt lat="43.63538" lon="3.84422">
        <ele>55.884501760158</ele>
        <time>2020-06-06T15:56:50.000Z</time>
      </trkpt>
      <trkpt lat="43.63535" lon="3.8442">
        <ele>55.983218474462</ele>
        <time>2020-06-06T15:56:51.000Z</time>
      </trkpt>
      <trkpt lat="43.63531" lon="3.84417">
        <ele>56</ele>
        <time>2020-06-06T15:56:52.000Z</time>
      </trkpt>
      <trkpt lat="43.63528" lon="3.84416">
        <ele>56</ele>
        <time>2020-06-06T15:56:53.000Z</time>
      </trkpt>
      <trkpt lat="43.63525" lon="3.84414">
        <ele>56</ele>
        <time>2020-06-06T15:56:54.000Z</time>
      </trkpt>
      <trkpt lat="43.63522" lon="3.84414">
        <ele>56</ele>
        <time>2020-06-06T15:56:55.000Z</time>
      </trkpt>
      <trkpt lat="43.63519" lon="3.84413">
        <ele>56</ele>
        <time>2020-06-06T15:56:56.000Z</time>
      </trkpt>
      <trkpt lat="43.63516" lon="3.84412">
        <ele>56</ele>
        <time>2020-06-06T15:56:57.000Z</time>
      </trkpt>
      <trkpt lat="43.63514" lon="3.8441">
        <ele>56</ele>
        <time>2020-06-06T15:56:58.000Z</time>
      </trkpt>
      <trkpt lat="43.63513" lon="3.84408">
        <ele>56</ele>
        <time>2020-06-06T15:56:59.000Z</time>
      </trkpt>
      <trkpt lat="43.6351" lon="3.84407">
        <ele>56</ele>
        <time>2020-06-06T15:57:01.000Z</time>
      </trkpt>
      <trkpt lat="43.63508" lon="3.84406">
        <ele>56</ele>
        <time>2020-06-06T15:57:03.000Z</time>
      </trkpt>
      <trkpt lat="43.63505" lon="3.84405">
        <ele>56</ele>
        <time>2020-06-06T15:57:05.000Z</time>
      </trkpt>
      <trkpt lat="43.63503" lon="3.84404">
        <ele>56</ele>
        <time>2020-06-06T15:57:06.000Z</time>
      </trkpt>
      <trkpt lat="43.63501" lon="3.84405">
        <ele>56</ele>
        <time>2020-06-06T15:57:07.000Z</time>
      </trkpt>
      <trkpt lat="43.63499" lon="3.84406">
        <ele>56</ele>
        <time>2020-06-06T15:57:08.000Z</time>
      </trkpt>
      <trkpt lat="43.63496" lon="3.84408">
        <ele>56</ele>
        <time>2020-06-06T15:57:09.000Z</time>
      </trkpt>
      <trkpt lat="43.63494" lon="3.84409">
        <ele>56</ele>
        <time>2020-06-06T15:57:10.000Z</time>
      </trkpt>
      <trkpt lat="43.63491" lon="3.8441">
        <ele>56</ele>
        <time>2020-06-06T15:57:11.000Z</time>
      </trkpt>
      <trkpt lat="43.63489" lon="3.8441">
        <ele>56</ele>
        <time>2020-06-06T15:57:12.000Z</time>
      </trkpt>
      <trkpt lat="43.63486" lon="3.84409">
        <ele>56</ele>
        <time>2020-06-06T15:57:13.000Z</time>
      </trkpt>
      <trkpt lat="43.63484" lon="3.84406">
        <ele>56</ele>
        <time>2020-06-06T15:57:14.000Z</time>
      </trkpt>
      <trkpt lat="43.63483" lon="3.84403">
        <ele>56</ele>
        <time>2020-06-06T15:57:15.000Z</time>
      </trkpt>
      <trkpt lat="43.63481" lon="3.84399">
        <ele>56</ele>
        <time>2020-06-06T15:57:16.000Z</time>
      </trkpt>
      <trkpt lat="43.63479" lon="3.84396">
        <ele>56</ele>
        <time>2020-06-06T15:57:17.000Z</time>
      </trkpt>
      <trkpt lat="43.63476" lon="3.84394">
        <ele>56</ele>
        <time>2020-06-06T15:57:18.000Z</time>
      </trkpt>
      <trkpt lat="43.63473" lon="3.84391">
        <ele>56</ele>
        <time>2020-06-06T15:57:19.000Z</time>
      </trkpt>
      <trkpt lat="43.6347" lon="3.84389">
        <ele>56</ele>
        <time>2020-06-06T15:57:20.000Z</time>
      </trkpt>
      <trkpt lat="43.63467" lon="3.84387">
        <ele>56.01100032</ele>
        <time>2020-06-06T15:57:21.000Z</time>
      </trkpt>
      <trkpt lat="43.63464" lon="3.84385">
        <ele>56.11100032</ele>
        <time>2020-06-06T15:57:22.000Z</time>
      </trkpt>
      <trkpt lat="43.63461" lon="3.84383">
        <ele>56.21100032</ele>
        <time>2020-06-06T15:57:23.000Z</time>
      </trkpt>
      <trkpt lat="43.63457" lon="3.84381">
        <ele>56.31100032</ele>
        <time>2020-06-06T15:57:24.000Z</time>
      </trkpt>
      <trkpt lat="43.63454" lon="3.8438">
        <ele>56.41100032</ele>
        <time>2020-06-06T15:57:25.000Z</time>
      </trkpt>
      <trkpt lat="43.63451" lon="3.84378">
        <ele>56.51100032</ele>
        <time>2020-06-06T15:57:26.000Z</time>
      </trkpt>
      <trkpt lat="43.63448" lon="3.84376">
        <ele>56.61100032</ele>
        <time>2020-06-06T15:57:27.000Z</time>
      </trkpt>
      <trkpt lat="43.63444" lon="3.84375">
        <ele>56.71100032</ele>
        <time>2020-06-06T15:57:28.000Z</time>
      </trkpt>
      <trkpt lat="43.63441" lon="3.84374">
        <ele>56.81100032</ele>
        <time>2020-06-06T15:57:29.000Z</time>
      </trkpt>
      <trkpt lat="43.63438" lon="3.84372">
        <ele>56.91100032</ele>
        <time>2020-06-06T15:57:30.000Z</time>
      </trkpt>
      <trkpt lat="43.63434" lon="3.8437">
        <ele>57</ele>
        <time>2020-06-06T15:57:31.000Z</time>
      </trkpt>
      <trkpt lat="43.63431" lon="3.84369">
        <ele>57</ele>
        <time>2020-06-06T15:57:32.000Z</time>
      </trkpt>
      <trkpt lat="43.63427" lon="3.84367">
        <ele>57</ele>
        <time>2020-06-06T15:57:33.000Z</time>
      </trkpt>
      <trkpt lat="43.63424" lon="3.84365">
        <ele>57</ele>
        <time>2020-06-06T15:57:34.000Z</time>
      </trkpt>
      <trkpt lat="43.6342" lon="3.84364">
        <ele>57</ele>
        <time>2020-06-06T15:57:35.000Z</time>
      </trkpt>
      <trkpt lat="43.63417" lon="3.84362">
        <ele>57</ele>
        <time>2020-06-06T15:57:36.000Z</time>
      </trkpt>
      <trkpt lat="43.63413" lon="3.8436">
        <ele>57</ele>
        <time>2020-06-06T15:57:37.000Z</time>
      </trkpt>
      <trkpt lat="43.63409" lon="3.84359">
        <ele>57</ele>
        <time>2020-06-06T15:57:38.000Z</time>
      </trkpt>
      <trkpt lat="43.63406" lon="3.84358">
        <ele>57</ele>
        <time>2020-06-06T15:57:39.000Z</time>
      </trkpt>
      <trkpt lat="43.63402" lon="3.84357">
        <ele>57</ele>
        <time>2020-06-06T15:57:40.000Z</time>
      </trkpt>
      <trkpt lat="43.63398" lon="3.84355">
        <ele>57.01100032</ele>
        <time>2020-06-06T15:57:41.000Z</time>
      </trkpt>
      <trkpt lat="43.63394" lon="3.84354">
        <ele>57.11100032</ele>
        <time>2020-06-06T15:57:42.000Z</time>
      </trkpt>
      <trkpt lat="43.63391" lon="3.84354">
        <ele>57.21100032</ele>
        <time>2020-06-06T15:57:43.000Z</time>
      </trkpt>
      <trkpt lat="43.63388" lon="3.84353">
        <ele>57.31100032</ele>
        <time>2020-06-06T15:57:44.000Z</time>
      </trkpt>
      <trkpt lat="43.63384" lon="3.84352">
        <ele>57.41100032</ele>
        <time>2020-06-06T15:57:45.000Z</time>
      </trkpt>
      <trkpt lat="43.63381" lon="3.84351">
        <ele>57.51100032</ele>
        <time>2020-06-06T15:57:46.000Z</time>
      </trkpt>
      <trkpt lat="43.63377" lon="3.8435">
        <ele>57.61100032</ele>
        <time>2020-06-06T15:57:47.000Z</time>
      </trkpt>
      <trkpt lat="43.63374" lon="3.8435">
        <ele>57.71100032</ele>
        <time>2020-06-06T15:57:48.000Z</time>
      </trkpt>
      <trkpt lat="43.6337" lon="3.84349">
        <ele>57.81100032</ele>
        <time>2020-06-06T15:57:49.000Z</time>
      </trkpt>
      <trkpt lat="43.63367" lon="3.84348">
        <ele>57.91100032</ele>
        <time>2020-06-06T15:57:50.000Z</time>
      </trkpt>
      <trkpt lat="43.63364" lon="3.84348">
        <ele>58</ele>
        <time>2020-06-06T15:57:51.000Z</time>
      </trkpt>
      <trkpt lat="43.63361" lon="3.84347">
        <ele>58</ele>
        <time>2020-06-06T15:57:52.000Z</time>
      </trkpt>
      <trkpt lat="43.63358" lon="3.84347">
        <ele>58</ele>
        <time>2020-06-06T15:57:53.000Z</time>
      </trkpt>
      <trkpt lat="43.63355" lon="3.84347">
        <ele>58</ele>
        <time>2020-06-06T15:57:54.000Z</time>
      </trkpt>
      <trkpt lat="43.63352" lon="3.84347">
        <ele>58</ele>
        <time>2020-06-06T15:57:55.000Z</time>
      </trkpt>
      <trkpt lat="43.6335" lon="3.84347">
        <ele>58</ele>
        <time>2020-06-06T15:57:56.000Z</time>
      </trkpt>
      <trkpt lat="43.63347" lon="3.84347">
        <ele>58</ele>
        <time>2020-06-06T15:57:57.000Z</time>
      </trkpt>
      <trkpt lat="43.63344" lon="3.84346">
        <ele>58</ele>
        <time>2020-06-06T15:57:58.000Z</time>
      </trkpt>
      <trkpt lat="43.63341" lon="3.84346">
        <ele>58</ele>
        <time>2020-06-06T15:57:59.000Z</time>
      </trkpt>
      <trkpt lat="43.63338" lon="3.84345">
        <ele>58</ele>
        <time>2020-06-06T15:58:00.000Z</time>
      </trkpt>
      <trkpt lat="43.63336" lon="3.84345">
        <ele>57.98899968</ele>
        <time>2020-06-06T15:58:01.000Z</time>
      </trkpt>
      <trkpt lat="43.63333" lon="3.84345">
        <ele>57.88899968</ele>
        <time>2020-06-06T15:58:02.000Z</time>
      </trkpt>
      <trkpt lat="43.63331" lon="3.84344">
        <ele>57.78899968</ele>
        <time>2020-06-06T15:58:03.000Z</time>
      </trkpt>
      <trkpt lat="43.63328" lon="3.84343">
        <ele>57.68899968</ele>
        <time>2020-06-06T15:58:04.000Z</time>
      </trkpt>
      <trkpt lat="43.63325" lon="3.84342">
        <ele>57.58899968</ele>
        <time>2020-06-06T15:58:05.000Z</time>
      </trkpt>
      <trkpt lat="43.63322" lon="3.84341">
        <ele>57.48899968</ele>
        <time>2020-06-06T15:58:06.000Z</time>
      </trkpt>
      <trkpt lat="43.63319" lon="3.8434">
        <ele>57.38899968</ele>
        <time>2020-06-06T15:58:07.000Z</time>
      </trkpt>
      <trkpt lat="43.63316" lon="3.84339">
        <ele>57.28899968</ele>
        <time>2020-06-06T15:58:08.000Z</time>
      </trkpt>
      <trkpt lat="43.63313" lon="3.84338">
        <ele>57.18899968</ele>
        <time>2020-06-06T15:58:09.000Z</time>
      </trkpt>
      <trkpt lat="43.6331" lon="3.84337">
        <ele>57.08899968</ele>
        <time>2020-06-06T15:58:10.000Z</time>
      </trkpt>
      <trkpt lat="43.63306" lon="3.84336">
        <ele>56.98899968</ele>
        <time>2020-06-06T15:58:11.000Z</time>
      </trkpt>
      <trkpt lat="43.63303" lon="3.84335">
        <ele>56.88899968</ele>
        <time>2020-06-06T15:58:12.000Z</time>
      </trkpt>
      <trkpt lat="43.63299" lon="3.84333">
        <ele>56.78899968</ele>
        <time>2020-06-06T15:58:13.000Z</time>
      </trkpt>
      <trkpt lat="43.63296" lon="3.84332">
        <ele>56.68899968</ele>
        <time>2020-06-06T15:58:14.000Z</time>
      </trkpt>
      <trkpt lat="43.63293" lon="3.84331">
        <ele>56.58899968</ele>
        <time>2020-06-06T15:58:15.000Z</time>
      </trkpt>
      <trkpt lat="43.6329" lon="3.8433">
        <ele>56.48899968</ele>
        <time>2020-06-06T15:58:16.000Z</time>
      </trkpt>
      <trkpt lat="43.63287" lon="3.84329">
        <ele>56.38899968</ele>
        <time>2020-06-06T15:58:17.000Z</time>
      </trkpt>
      <trkpt lat="43.63284" lon="3.84328">
        <ele>56.28899968</ele>
        <time>2020-06-06T15:58:18.000Z</time>
      </trkpt>
      <trkpt lat="43.63281" lon="3.84327">
        <ele>56.18899968</ele>
        <time>2020-06-06T15:58:19.000Z</time>
      </trkpt>
      <trkpt lat="43.63277" lon="3.84326">
        <ele>56.08899968</ele>
        <time>2020-06-06T15:58:20.000Z</time>
      </trkpt>
      <trkpt lat="43.63274" lon="3.84325">
        <ele>56</ele>
        <time>2020-06-06T15:58:21.000Z</time>
      </trkpt>
      <trkpt lat="43.63272" lon="3.84323">
        <ele>56</ele>
        <time>2020-06-06T15:58:22.000Z</time>
      </trkpt>
      <trkpt lat="43.63269" lon="3.84322">
        <ele>56</ele>
        <time>2020-06-06T15:58:23.000Z</time>
      </trkpt>
      <trkpt lat="43.63266" lon="3.84321">
        <ele>56</ele>
        <time>2020-06-06T15:58:24.000Z</time>
      </trkpt>
      <trkpt lat="43.63263" lon="3.8432">
        <ele>56</ele>
        <time>2020-06-06T15:58:25.000Z</time>
      </trkpt>
      <trkpt lat="43.6326" lon="3.8432">
        <ele>56</ele>
        <time>2020-06-06T15:58:26.000Z</time>
      </trkpt>
      <trkpt lat="43.63257" lon="3.84319">
        <ele>56</ele>
        <time>2020-06-06T15:58:27.000Z</time>
      </trkpt>
      <trkpt lat="43.63254" lon="3.84318">
        <ele>56</ele>
        <time>2020-06-06T15:58:28.000Z</time>
      </trkpt>
      <trkpt lat="43.6325" lon="3.84317">
        <ele>56</ele>
        <time>2020-06-06T15:58:29.000Z</time>
      </trkpt>
      <trkpt lat="43.63247" lon="3.84316">
        <ele>56</ele>
        <time>2020-06-06T15:58:30.000Z</time>
      </trkpt>
      <trkpt lat="43.63244" lon="3.84315">
        <ele>56</ele>
        <time>2020-06-06T15:58:31.000Z</time>
      </trkpt>
      <trkpt lat="43.63241" lon="3.84313">
        <ele>56</ele>
        <time>2020-06-06T15:58:32.000Z</time>
      </trkpt>
      <trkpt lat="43.63238" lon="3.84312">
        <ele>56</ele>
        <time>2020-06-06T15:58:33.000Z</time>
      </trkpt>
      <trkpt lat="43.63234" lon="3.84311">
        <ele>56</ele>
        <time>2020-06-06T15:58:34.000Z</time>
      </trkpt>
      <trkpt lat="43.63231" lon="3.8431">
        <ele>56</ele>
        <time>2020-06-06T15:58:35.000Z</time>
      </trkpt>
      <trkpt lat="43.63228" lon="3.8431">
        <ele>56</ele>
        <time>2020-06-06T15:58:36.000Z</time>
      </trkpt>
      <trkpt lat="43.63225" lon="3.84309">
        <ele>56</ele>
        <time>2020-06-06T15:58:37.000Z</time>
      </trkpt>
      <trkpt lat="43.63221" lon="3.84309">
        <ele>56</ele>
        <time>2020-06-06T15:58:38.000Z</time>
      </trkpt>
      <trkpt lat="43.63218" lon="3.8431">
        <ele>56</ele>
        <time>2020-06-06T15:58:39.000Z</time>
      </trkpt>
      <trkpt lat="43.63215" lon="3.8431">
        <ele>56</ele>
        <time>2020-06-06T15:58:40.000Z</time>
      </trkpt>
      <trkpt lat="43.63211" lon="3.8431">
        <ele>56</ele>
        <time>2020-06-06T15:58:41.000Z</time>
      </trkpt>
      <trkpt lat="43.63207" lon="3.84311">
        <ele>56</ele>
        <time>2020-06-06T15:58:42.000Z</time>
      </trkpt>
      <trkpt lat="43.63204" lon="3.84311">
        <ele>56</ele>
        <time>2020-06-06T15:58:43.000Z</time>
      </trkpt>
      <trkpt lat="43.632" lon="3.84311">
        <ele>56</ele>
        <time>2020-06-06T15:58:44.000Z</time>
      </trkpt>
      <trkpt lat="43.63197" lon="3.84311">
        <ele>56</ele>
        <time>2020-06-06T15:58:45.000Z</time>
      </trkpt>
      <trkpt lat="43.63193" lon="3.84311">
        <ele>56</ele>
        <time>2020-06-06T15:58:46.000Z</time>
      </trkpt>
      <trkpt lat="43.6319" lon="3.84312">
        <ele>56</ele>
        <time>2020-06-06T15:58:47.000Z</time>
      </trkpt>
      <trkpt lat="43.63186" lon="3.84313">
        <ele>56</ele>
        <time>2020-06-06T15:58:48.000Z</time>
      </trkpt>
      <trkpt lat="43.63183" lon="3.84314">
        <ele>56</ele>
        <time>2020-06-06T15:58:49.000Z</time>
      </trkpt>
      <trkpt lat="43.63179" lon="3.84316">
        <ele>56</ele>
        <time>2020-06-06T15:58:50.000Z</time>
      </trkpt>
      <trkpt lat="43.63176" lon="3.84317">
        <ele>56</ele>
        <time>2020-06-06T15:58:51.000Z</time>
      </trkpt>
      <trkpt lat="43.63172" lon="3.84318">
        <ele>56</ele>
        <time>2020-06-06T15:58:52.000Z</time>
      </trkpt>
      <trkpt lat="43.63169" lon="3.84319">
        <ele>56</ele>
        <time>2020-06-06T15:58:53.000Z</time>
      </trkpt>
      <trkpt lat="43.63166" lon="3.8432">
        <ele>56</ele>
        <time>2020-06-06T15:58:54.000Z</time>
      </trkpt>
      <trkpt lat="43.63162" lon="3.84321">
        <ele>56</ele>
        <time>2020-06-06T15:58:55.000Z</time>
      </trkpt>
      <trkpt lat="43.63158" lon="3.84321">
        <ele>56</ele>
        <time>2020-06-06T15:58:56.000Z</time>
      </trkpt>
      <trkpt lat="43.63155" lon="3.84322">
        <ele>56</ele>
        <time>2020-06-06T15:58:57.000Z</time>
      </trkpt>
      <trkpt lat="43.63151" lon="3.84322">
        <ele>56</ele>
        <time>2020-06-06T15:58:58.000Z</time>
      </trkpt>
      <trkpt lat="43.63147" lon="3.84322">
        <ele>56</ele>
        <time>2020-06-06T15:58:59.000Z</time>
      </trkpt>
      <trkpt lat="43.63144" lon="3.84322">
        <ele>56</ele>
        <time>2020-06-06T15:59:00.000Z</time>
      </trkpt>
      <trkpt lat="43.63141" lon="3.84322">
        <ele>56</ele>
        <time>2020-06-06T15:59:01.000Z</time>
      </trkpt>
      <trkpt lat="43.63137" lon="3.84321">
        <ele>56</ele>
        <time>2020-06-06T15:59:02.000Z</time>
      </trkpt>
      <trkpt lat="43.63133" lon="3.8432">
        <ele>56</ele>
        <time>2020-06-06T15:59:03.000Z</time>
      </trkpt>
      <trkpt lat="43.63129" lon="3.8432">
        <ele>56</ele>
        <time>2020-06-06T15:59:04.000Z</time>
      </trkpt>
      <trkpt lat="43.63125" lon="3.8432">
        <ele>56</ele>
        <time>2020-06-06T15:59:05.000Z</time>
      </trkpt>
      <trkpt lat="43.63122" lon="3.84321">
        <ele>56</ele>
        <time>2020-06-06T15:59:06.000Z</time>
      </trkpt>
      <trkpt lat="43.63118" lon="3.84321">
        <ele>56</ele>
        <time>2020-06-06T15:59:07.000Z</time>
      </trkpt>
      <trkpt lat="43.63114" lon="3.84322">
        <ele>56</ele>
        <time>2020-06-06T15:59:08.000Z</time>
      </trkpt>
      <trkpt lat="43.63111" lon="3.84323">
        <ele>56</ele>
        <time>2020-06-06T15:59:09.000Z</time>
      </trkpt>
      <trkpt lat="43.63107" lon="3.84324">
        <ele>56</ele>
        <time>2020-06-06T15:59:10.000Z</time>
      </trkpt>
      <trkpt lat="43.63104" lon="3.84324">
        <ele>55.98899968</ele>
        <time>2020-06-06T15:59:11.000Z</time>
      </trkpt>
      <trkpt lat="43.63101" lon="3.84324">
        <ele>55.88899968</ele>
        <time>2020-06-06T15:59:12.000Z</time>
      </trkpt>
      <trkpt lat="43.63098" lon="3.84324">
        <ele>55.78899968</ele>
        <time>2020-06-06T15:59:13.000Z</time>
      </trkpt>
      <trkpt lat="43.63095" lon="3.84324">
        <ele>55.68899968</ele>
        <time>2020-06-06T15:59:14.000Z</time>
      </trkpt>
      <trkpt lat="43.63092" lon="3.84324">
        <ele>55.58899968</ele>
        <time>2020-06-06T15:59:15.000Z</time>
      </trkpt>
      <trkpt lat="43.63089" lon="3.84324">
        <ele>55.48899968</ele>
        <time>2020-06-06T15:59:16.000Z</time>
      </trkpt>
      <trkpt lat="43.63086" lon="3.84323">
        <ele>55.38899968</ele>
        <time>2020-06-06T15:59:17.000Z</time>
      </trkpt>
      <trkpt lat="43.63083" lon="3.84322">
        <ele>55.28899968</ele>
        <time>2020-06-06T15:59:18.000Z</time>
      </trkpt>
      <trkpt lat="43.63081" lon="3.84321">
        <ele>55.18899968</ele>
        <time>2020-06-06T15:59:19.000Z</time>
      </trkpt>
      <trkpt lat="43.63078" lon="3.8432">
        <ele>55.08899968</ele>
        <time>2020-06-06T15:59:20.000Z</time>
      </trkpt>
      <trkpt lat="43.63076" lon="3.84318">
        <ele>55</ele>
        <time>2020-06-06T15:59:21.000Z</time>
      </trkpt>
      <trkpt lat="43.63074" lon="3.84317">
        <ele>55</ele>
        <time>2020-06-06T15:59:22.000Z</time>
      </trkpt>
      <trkpt lat="43.63071" lon="3.84314">
        <ele>55</ele>
        <time>2020-06-06T15:59:24.000Z</time>
      </trkpt>
      <trkpt lat="43.63069" lon="3.84313">
        <ele>55</ele>
        <time>2020-06-06T15:59:25.000Z</time>
      </trkpt>
      <trkpt lat="43.63067" lon="3.8431">
        <ele>55</ele>
        <time>2020-06-06T15:59:27.000Z</time>
      </trkpt>
      <trkpt lat="43.63065" lon="3.84307">
        <ele>55</ele>
        <time>2020-06-06T15:59:29.000Z</time>
      </trkpt>
      <trkpt lat="43.63063" lon="3.84305">
        <ele>55</ele>
        <time>2020-06-06T15:59:31.000Z</time>
      </trkpt>
      <trkpt lat="43.63061" lon="3.84304">
        <ele>55</ele>
        <time>2020-06-06T15:59:33.000Z</time>
      </trkpt>
      <trkpt lat="43.63058" lon="3.84305">
        <ele>55</ele>
        <time>2020-06-06T15:59:36.000Z</time>
      </trkpt>
      <trkpt lat="43.63058" lon="3.84305">
        <ele>55</ele>
        <time>2020-06-06T15:59:41.000Z</time>
      </trkpt>
      <trkpt lat="43.6305" lon="3.8431">
        <ele>55</ele>
        <time>2020-06-06T15:59:52.000Z</time>
      </trkpt>
      <trkpt lat="43.63048" lon="3.84311">
        <ele>55</ele>
        <time>2020-06-06T15:59:53.000Z</time>
      </trkpt>
      <trkpt lat="43.63045" lon="3.84313">
        <ele>55</ele>
        <time>2020-06-06T15:59:54.000Z</time>
      </trkpt>
      <trkpt lat="43.63043" lon="3.84314">
        <ele>55</ele>
        <time>2020-06-06T15:59:55.000Z</time>
      </trkpt>
      <trkpt lat="43.63041" lon="3.84316">
        <ele>55</ele>
        <time>2020-06-06T15:59:56.000Z</time>
      </trkpt>
      <trkpt lat="43.63038" lon="3.84317">
        <ele>55</ele>
        <time>2020-06-06T15:59:57.000Z</time>
      </trkpt>
      <trkpt lat="43.63036" lon="3.84319">
        <ele>55</ele>
        <time>2020-06-06T15:59:58.000Z</time>
      </trkpt>
      <trkpt lat="43.63033" lon="3.84321">
        <ele>55</ele>
        <time>2020-06-06T15:59:59.000Z</time>
      </trkpt>
      <trkpt lat="43.6303" lon="3.84323">
        <ele>55</ele>
        <time>2020-06-06T16:00:00.000Z</time>
      </trkpt>
      <trkpt lat="43.63028" lon="3.84325">
        <ele>55</ele>
        <time>2020-06-06T16:00:01.000Z</time>
      </trkpt>
      <trkpt lat="43.63025" lon="3.84327">
        <ele>55</ele>
        <time>2020-06-06T16:00:02.000Z</time>
      </trkpt>
      <trkpt lat="43.63023" lon="3.84329">
        <ele>55</ele>
        <time>2020-06-06T16:00:03.000Z</time>
      </trkpt>
      <trkpt lat="43.63021" lon="3.84331">
        <ele>55</ele>
        <time>2020-06-06T16:00:04.000Z</time>
      </trkpt>
      <trkpt lat="43.63019" lon="3.84334">
        <ele>55</ele>
        <time>2020-06-06T16:00:05.000Z</time>
      </trkpt>
      <trkpt lat="43.63016" lon="3.84336">
        <ele>55</ele>
        <time>2020-06-06T16:00:06.000Z</time>
      </trkpt>
      <trkpt lat="43.63014" lon="3.84338">
        <ele>55</ele>
        <time>2020-06-06T16:00:07.000Z</time>
      </trkpt>
      <trkpt lat="43.63012" lon="3.84341">
        <ele>55</ele>
        <time>2020-06-06T16:00:08.000Z</time>
      </trkpt>
      <trkpt lat="43.6301" lon="3.84344">
        <ele>55</ele>
        <time>2020-06-06T16:00:09.000Z</time>
      </trkpt>
      <trkpt lat="43.63008" lon="3.84347">
        <ele>55</ele>
        <time>2020-06-06T16:00:10.000Z</time>
      </trkpt>
      <trkpt lat="43.63005" lon="3.8435">
        <ele>55</ele>
        <time>2020-06-06T16:00:11.000Z</time>
      </trkpt>
      <trkpt lat="43.63002" lon="3.84353">
        <ele>55</ele>
        <time>2020-06-06T16:00:12.000Z</time>
      </trkpt>
      <trkpt lat="43.62999" lon="3.84356">
        <ele>55</ele>
        <time>2020-06-06T16:00:13.000Z</time>
      </trkpt>
      <trkpt lat="43.62996" lon="3.84358">
        <ele>55</ele>
        <time>2020-06-06T16:00:14.000Z</time>
      </trkpt>
      <trkpt lat="43.62994" lon="3.8436">
        <ele>55</ele>
        <time>2020-06-06T16:00:15.000Z</time>
      </trkpt>
      <trkpt lat="43.62991" lon="3.84361">
        <ele>55</ele>
        <time>2020-06-06T16:00:16.000Z</time>
      </trkpt>
      <trkpt lat="43.62989" lon="3.84361">
        <ele>55</ele>
        <time>2020-06-06T16:00:17.000Z</time>
      </trkpt>
      <trkpt lat="43.62986" lon="3.8436">
        <ele>55</ele>
        <time>2020-06-06T16:00:18.000Z</time>
      </trkpt>
      <trkpt lat="43.62983" lon="3.84359">
        <ele>55</ele>
        <time>2020-06-06T16:00:19.000Z</time>
      </trkpt>
      <trkpt lat="43.62981" lon="3.84359">
        <ele>55</ele>
        <time>2020-06-06T16:00:20.000Z</time>
      </trkpt>
      <trkpt lat="43.62978" lon="3.8436">
        <ele>55</ele>
        <time>2020-06-06T16:00:21.000Z</time>
      </trkpt>
      <trkpt lat="43.62975" lon="3.84361">
        <ele>54.98899968</ele>
        <time>2020-06-06T16:00:22.000Z</time>
      </trkpt>
      <trkpt lat="43.62973" lon="3.84363">
        <ele>54.88899968</ele>
        <time>2020-06-06T16:00:23.000Z</time>
      </trkpt>
      <trkpt lat="43.62971" lon="3.84366">
        <ele>54.78899968</ele>
        <time>2020-06-06T16:00:24.000Z</time>
      </trkpt>
      <trkpt lat="43.62969" lon="3.84369">
        <ele>54.68899968</ele>
        <time>2020-06-06T16:00:25.000Z</time>
      </trkpt>
      <trkpt lat="43.62967" lon="3.84372">
        <ele>54.58899968</ele>
        <time>2020-06-06T16:00:26.000Z</time>
      </trkpt>
      <trkpt lat="43.62965" lon="3.84375">
        <ele>54.48899968</ele>
        <time>2020-06-06T16:00:27.000Z</time>
      </trkpt>
      <trkpt lat="43.62963" lon="3.84378">
        <ele>54.38899968</ele>
        <time>2020-06-06T16:00:28.000Z</time>
      </trkpt>
      <trkpt lat="43.62962" lon="3.8438">
        <ele>54.28899968</ele>
        <time>2020-06-06T16:00:29.000Z</time>
      </trkpt>
      <trkpt lat="43.6296" lon="3.84383">
        <ele>54.08899968</ele>
        <time>2020-06-06T16:00:31.000Z</time>
      </trkpt>
      <trkpt lat="43.62961" lon="3.84383">
        <ele>54</ele>
        <time>2020-06-06T16:00:35.000Z</time>
      </trkpt>
      <trkpt lat="43.62953" lon="3.84394">
        <ele>53.000439415562</ele>
        <time>2020-06-06T16:02:06.000Z</time>
      </trkpt>
      <trkpt lat="43.62952" lon="3.84399">
        <ele>52.90345495935</ele>
        <time>2020-06-06T16:02:07.000Z</time>
      </trkpt>
      <trkpt lat="43.6295" lon="3.84404">
        <ele>52.801828943089</ele>
        <time>2020-06-06T16:02:08.000Z</time>
      </trkpt>
      <trkpt lat="43.62948" lon="3.84409">
        <ele>52.700202926829</ele>
        <time>2020-06-06T16:02:09.000Z</time>
      </trkpt>
      <trkpt lat="43.62946" lon="3.84414">
        <ele>52.598576910569</ele>
        <time>2020-06-06T16:02:10.000Z</time>
      </trkpt>
      <trkpt lat="43.62943" lon="3.84419">
        <ele>52.496950894309</ele>
        <time>2020-06-06T16:02:11.000Z</time>
      </trkpt>
      <trkpt lat="43.6294" lon="3.84425">
        <ele>52.395324878049</ele>
        <time>2020-06-06T16:02:12.000Z</time>
      </trkpt>
      <trkpt lat="43.62938" lon="3.8443">
        <ele>52.293698861789</ele>
        <time>2020-06-06T16:02:13.000Z</time>
      </trkpt>
      <trkpt lat="43.62935" lon="3.84436">
        <ele>52.192072845529</ele>
        <time>2020-06-06T16:02:14.000Z</time>
      </trkpt>
      <trkpt lat="43.62932" lon="3.84441">
        <ele>52.090446829268</ele>
        <time>2020-06-06T16:02:15.000Z</time>
      </trkpt>
      <trkpt lat="43.62929" lon="3.84447">
        <ele>51.989632117514</ele>
        <time>2020-06-06T16:02:16.000Z</time>
      </trkpt>
      <trkpt lat="43.62926" lon="3.84453">
        <ele>51.895381382207</ele>
        <time>2020-06-06T16:02:17.000Z</time>
      </trkpt>
      <trkpt lat="43.62923" lon="3.84459">
        <ele>51.801130646901</ele>
        <time>2020-06-06T16:02:18.000Z</time>
      </trkpt>
      <trkpt lat="43.6292" lon="3.84465">
        <ele>51.706879911594</ele>
        <time>2020-06-06T16:02:19.000Z</time>
      </trkpt>
      <trkpt lat="43.62916" lon="3.84471">
        <ele>51.612629176288</ele>
        <time>2020-06-06T16:02:20.000Z</time>
      </trkpt>
      <trkpt lat="43.62913" lon="3.84477">
        <ele>51.518378440981</ele>
        <time>2020-06-06T16:02:21.000Z</time>
      </trkpt>
      <trkpt lat="43.6291" lon="3.84483">
        <ele>51.424127705675</ele>
        <time>2020-06-06T16:02:22.000Z</time>
      </trkpt>
      <trkpt lat="43.62906" lon="3.84489">
        <ele>51.329876970368</ele>
        <time>2020-06-06T16:02:23.000Z</time>
      </trkpt>
      <trkpt lat="43.62903" lon="3.84495">
        <ele>51.235626235062</ele>
        <time>2020-06-06T16:02:24.000Z</time>
      </trkpt>
      <trkpt lat="43.629" lon="3.84501">
        <ele>51.141375499755</ele>
        <time>2020-06-06T16:02:25.000Z</time>
      </trkpt>
      <trkpt lat="43.62896" lon="3.84507">
        <ele>51.047124764449</ele>
        <time>2020-06-06T16:02:26.000Z</time>
      </trkpt>
      <trkpt lat="43.62893" lon="3.84513">
        <ele>50.948185916831</ele>
        <time>2020-06-06T16:02:27.000Z</time>
      </trkpt>
      <trkpt lat="43.6289" lon="3.8452">
        <ele>50.844559076915</ele>
        <time>2020-06-06T16:02:28.000Z</time>
      </trkpt>
      <trkpt lat="43.62886" lon="3.84526">
        <ele>50.740932237</ele>
        <time>2020-06-06T16:02:29.000Z</time>
      </trkpt>
      <trkpt lat="43.62883" lon="3.84532">
        <ele>50.637305397085</ele>
        <time>2020-06-06T16:02:30.000Z</time>
      </trkpt>
      <trkpt lat="43.62879" lon="3.84538">
        <ele>50.53367855717</ele>
        <time>2020-06-06T16:02:31.000Z</time>
      </trkpt>
      <trkpt lat="43.62875" lon="3.84543">
        <ele>50.430051717254</ele>
        <time>2020-06-06T16:02:32.000Z</time>
      </trkpt>
      <trkpt lat="43.62872" lon="3.84549">
        <ele>50.326424877339</ele>
        <time>2020-06-06T16:02:33.000Z</time>
      </trkpt>
      <trkpt lat="43.62868" lon="3.84555">
        <ele>50.222798037424</ele>
        <time>2020-06-06T16:02:34.000Z</time>
      </trkpt>
      <trkpt lat="43.62864" lon="3.8456">
        <ele>50.119171197508</ele>
        <time>2020-06-06T16:02:35.000Z</time>
      </trkpt>
      <trkpt lat="43.6286" lon="3.84565">
        <ele>50.015544357593</ele>
        <time>2020-06-06T16:02:36.000Z</time>
      </trkpt>
      <trkpt lat="43.62856" lon="3.8457">
        <ele>49.914141681869</ele>
        <time>2020-06-06T16:02:37.000Z</time>
      </trkpt>
      <trkpt lat="43.62852" lon="3.84575">
        <ele>49.81313151556</ele>
        <time>2020-06-06T16:02:38.000Z</time>
      </trkpt>
      <trkpt lat="43.62848" lon="3.84579">
        <ele>49.71212134925</ele>
        <time>2020-06-06T16:02:39.000Z</time>
      </trkpt>
      <trkpt lat="43.62844" lon="3.84583">
        <ele>49.611111182941</ele>
        <time>2020-06-06T16:02:40.000Z</time>
      </trkpt>
      <trkpt lat="43.6284" lon="3.84587">
        <ele>49.510101016631</ele>
        <time>2020-06-06T16:02:41.000Z</time>
      </trkpt>
      <trkpt lat="43.62835" lon="3.8459">
        <ele>49.409090850321</ele>
        <time>2020-06-06T16:02:42.000Z</time>
      </trkpt>
      <trkpt lat="43.62831" lon="3.84594">
        <ele>49.308080684012</ele>
        <time>2020-06-06T16:02:43.000Z</time>
      </trkpt>
      <trkpt lat="43.62827" lon="3.84597">
        <ele>49.207070517702</ele>
        <time>2020-06-06T16:02:44.000Z</time>
      </trkpt>
      <trkpt lat="43.62823" lon="3.84601">
        <ele>49.106060351393</ele>
        <time>2020-06-06T16:02:45.000Z</time>
      </trkpt>
      <trkpt lat="43.62819" lon="3.84604">
        <ele>49.005050185083</ele>
        <time>2020-06-06T16:02:46.000Z</time>
      </trkpt>
      <trkpt lat="43.62815" lon="3.84606">
        <ele>49</ele>
        <time>2020-06-06T16:02:47.000Z</time>
      </trkpt>
      <trkpt lat="43.62811" lon="3.84609">
        <ele>49</ele>
        <time>2020-06-06T16:02:48.000Z</time>
      </trkpt>
      <trkpt lat="43.62807" lon="3.84612">
        <ele>49</ele>
        <time>2020-06-06T16:02:49.000Z</time>
      </trkpt>
      <trkpt lat="43.62803" lon="3.84615">
        <ele>49</ele>
        <time>2020-06-06T16:02:50.000Z</time>
      </trkpt>
      <trkpt lat="43.62799" lon="3.84618">
        <ele>49</ele>
        <time>2020-06-06T16:02:51.000Z</time>
      </trkpt>
      <trkpt lat="43.62796" lon="3.8462">
        <ele>49</ele>
        <time>2020-06-06T16:02:52.000Z</time>
      </trkpt>
      <trkpt lat="43.62792" lon="3.84622">
        <ele>49</ele>
        <time>2020-06-06T16:02:53.000Z</time>
      </trkpt>
      <trkpt lat="43.62788" lon="3.84625">
        <ele>49</ele>
        <time>2020-06-06T16:02:54.000Z</time>
      </trkpt>
      <trkpt lat="43.62785" lon="3.84627">
        <ele>49</ele>
        <time>2020-06-06T16:02:55.000Z</time>
      </trkpt>
      <trkpt lat="43.62782" lon="3.8463">
        <ele>49</ele>
        <time>2020-06-06T16:02:56.000Z</time>
      </trkpt>
      <trkpt lat="43.62779" lon="3.84633">
        <ele>48.915550347089</ele>
        <time>2020-06-06T16:02:57.000Z</time>
      </trkpt>
      <trkpt lat="43.62776" lon="3.84635">
        <ele>48.812563769289</ele>
        <time>2020-06-06T16:02:58.000Z</time>
      </trkpt>
      <trkpt lat="43.62773" lon="3.84638">
        <ele>48.709577191488</ele>
        <time>2020-06-06T16:02:59.000Z</time>
      </trkpt>
      <trkpt lat="43.6277" lon="3.84641">
        <ele>48.606590613688</ele>
        <time>2020-06-06T16:03:00.000Z</time>
      </trkpt>
      <trkpt lat="43.62767" lon="3.84644">
        <ele>48.503604035887</ele>
        <time>2020-06-06T16:03:01.000Z</time>
      </trkpt>
      <trkpt lat="43.62764" lon="3.84647">
        <ele>48.400617458087</ele>
        <time>2020-06-06T16:03:02.000Z</time>
      </trkpt>
      <trkpt lat="43.62761" lon="3.84651">
        <ele>48.297630880286</ele>
        <time>2020-06-06T16:03:03.000Z</time>
      </trkpt>
      <trkpt lat="43.62758" lon="3.84656">
        <ele>48.194644302486</ele>
        <time>2020-06-06T16:03:04.000Z</time>
      </trkpt>
      <trkpt lat="43.62755" lon="3.8466">
        <ele>48.091657724685</ele>
        <time>2020-06-06T16:03:05.000Z</time>
      </trkpt>
      <trkpt lat="43.62752" lon="3.84664">
        <ele>47.989288883571</ele>
        <time>2020-06-06T16:03:06.000Z</time>
      </trkpt>
      <trkpt lat="43.62749" lon="3.84669">
        <ele>47.891917930464</ele>
        <time>2020-06-06T16:03:07.000Z</time>
      </trkpt>
      <trkpt lat="43.62746" lon="3.84674">
        <ele>47.794546977356</ele>
        <time>2020-06-06T16:03:08.000Z</time>
      </trkpt>
      <trkpt lat="43.62744" lon="3.84678">
        <ele>47.697176024249</ele>
        <time>2020-06-06T16:03:09.000Z</time>
      </trkpt>
      <trkpt lat="43.62741" lon="3.84683">
        <ele>47.599805071142</ele>
        <time>2020-06-06T16:03:10.000Z</time>
      </trkpt>
      <trkpt lat="43.62739" lon="3.84688">
        <ele>47.502434118034</ele>
        <time>2020-06-06T16:03:11.000Z</time>
      </trkpt>
      <trkpt lat="43.62736" lon="3.84692">
        <ele>47.405063164927</ele>
        <time>2020-06-06T16:03:12.000Z</time>
      </trkpt>
      <trkpt lat="43.62734" lon="3.84697">
        <ele>47.307692211819</ele>
        <time>2020-06-06T16:03:13.000Z</time>
      </trkpt>
      <trkpt lat="43.62731" lon="3.84702">
        <ele>47.210321258712</ele>
        <time>2020-06-06T16:03:14.000Z</time>
      </trkpt>
      <trkpt lat="43.62728" lon="3.84707">
        <ele>47.112950305605</ele>
        <time>2020-06-06T16:03:15.000Z</time>
      </trkpt>
      <trkpt lat="43.62725" lon="3.84711">
        <ele>47.015579352497</ele>
        <time>2020-06-06T16:03:16.000Z</time>
      </trkpt>
      <trkpt lat="43.62722" lon="3.84716">
        <ele>46.913846182122</ele>
        <time>2020-06-06T16:03:17.000Z</time>
      </trkpt>
      <trkpt lat="43.6272" lon="3.84721">
        <ele>46.81128211322</ele>
        <time>2020-06-06T16:03:18.000Z</time>
      </trkpt>
      <trkpt lat="43.62717" lon="3.84727">
        <ele>46.708718044318</ele>
        <time>2020-06-06T16:03:19.000Z</time>
      </trkpt>
      <trkpt lat="43.62715" lon="3.84733">
        <ele>46.606153975416</ele>
        <time>2020-06-06T16:03:20.000Z</time>
      </trkpt>
      <trkpt lat="43.62712" lon="3.84739">
        <ele>46.503589906514</ele>
        <time>2020-06-06T16:03:21.000Z</time>
      </trkpt>
      <trkpt lat="43.62709" lon="3.84745">
        <ele>46.401025837612</ele>
        <time>2020-06-06T16:03:22.000Z</time>
      </trkpt>
      <trkpt lat="43.62706" lon="3.84751">
        <ele>46.29846176871</ele>
        <time>2020-06-06T16:03:23.000Z</time>
      </trkpt>
      <trkpt lat="43.62704" lon="3.84757">
        <ele>46.195897699808</ele>
        <time>2020-06-06T16:03:24.000Z</time>
      </trkpt>
      <trkpt lat="43.62701" lon="3.84763">
        <ele>46.093333630906</ele>
        <time>2020-06-06T16:03:25.000Z</time>
      </trkpt>
      <trkpt lat="43.62698" lon="3.84769">
        <ele>46</ele>
        <time>2020-06-06T16:03:26.000Z</time>
      </trkpt>
      <trkpt lat="43.62696" lon="3.84775">
        <ele>46</ele>
        <time>2020-06-06T16:03:27.000Z</time>
      </trkpt>
      <trkpt lat="43.62693" lon="3.84781">
        <ele>46</ele>
        <time>2020-06-06T16:03:28.000Z</time>
      </trkpt>
      <trkpt lat="43.62691" lon="3.84787">
        <ele>46</ele>
        <time>2020-06-06T16:03:29.000Z</time>
      </trkpt>
      <trkpt lat="43.62689" lon="3.84792">
        <ele>46</ele>
        <time>2020-06-06T16:03:30.000Z</time>
      </trkpt>
      <trkpt lat="43.62687" lon="3.84798">
        <ele>46</ele>
        <time>2020-06-06T16:03:31.000Z</time>
      </trkpt>
      <trkpt lat="43.62685" lon="3.84803">
        <ele>46</ele>
        <time>2020-06-06T16:03:32.000Z</time>
      </trkpt>
      <trkpt lat="43.62683" lon="3.84809">
        <ele>46</ele>
        <time>2020-06-06T16:03:33.000Z</time>
      </trkpt>
      <trkpt lat="43.6268" lon="3.84814">
        <ele>46</ele>
        <time>2020-06-06T16:03:34.000Z</time>
      </trkpt>
      <trkpt lat="43.62678" lon="3.84819">
        <ele>46</ele>
        <time>2020-06-06T16:03:35.000Z</time>
      </trkpt>
      <trkpt lat="43.62675" lon="3.84825">
        <ele>45.98899968</ele>
        <time>2020-06-06T16:03:36.000Z</time>
      </trkpt>
      <trkpt lat="43.62672" lon="3.8483">
        <ele>45.88899968</ele>
        <time>2020-06-06T16:03:37.000Z</time>
      </trkpt>
      <trkpt lat="43.6267" lon="3.84835">
        <ele>45.78899968</ele>
        <time>2020-06-06T16:03:38.000Z</time>
      </trkpt>
      <trkpt lat="43.62667" lon="3.84839">
        <ele>45.68899968</ele>
        <time>2020-06-06T16:03:39.000Z</time>
      </trkpt>
      <trkpt lat="43.62665" lon="3.84844">
        <ele>45.58899968</ele>
        <time>2020-06-06T16:03:40.000Z</time>
      </trkpt>
      <trkpt lat="43.62662" lon="3.84848">
        <ele>45.48899968</ele>
        <time>2020-06-06T16:03:41.000Z</time>
      </trkpt>
      <trkpt lat="43.6266" lon="3.84853">
        <ele>45.38899968</ele>
        <time>2020-06-06T16:03:42.000Z</time>
      </trkpt>
      <trkpt lat="43.62657" lon="3.84858">
        <ele>45.28899968</ele>
        <time>2020-06-06T16:03:43.000Z</time>
      </trkpt>
      <trkpt lat="43.62654" lon="3.84863">
        <ele>45.18899968</ele>
        <time>2020-06-06T16:03:44.000Z</time>
      </trkpt>
      <trkpt lat="43.6265" lon="3.84867">
        <ele>45.08899968</ele>
        <time>2020-06-06T16:03:45.000Z</time>
      </trkpt>
      <trkpt lat="43.62647" lon="3.84872">
        <ele>44.989267990539</ele>
        <time>2020-06-06T16:03:46.000Z</time>
      </trkpt>
      <trkpt lat="43.62644" lon="3.84877">
        <ele>44.891707106304</ele>
        <time>2020-06-06T16:03:47.000Z</time>
      </trkpt>
      <trkpt lat="43.6264" lon="3.84881">
        <ele>44.794146222068</ele>
        <time>2020-06-06T16:03:48.000Z</time>
      </trkpt>
      <trkpt lat="43.62637" lon="3.84886">
        <ele>44.696585337832</ele>
        <time>2020-06-06T16:03:49.000Z</time>
      </trkpt>
      <trkpt lat="43.62633" lon="3.8489">
        <ele>44.599024453597</ele>
        <time>2020-06-06T16:03:50.000Z</time>
      </trkpt>
      <trkpt lat="43.6263" lon="3.84895">
        <ele>44.501463569361</ele>
        <time>2020-06-06T16:03:51.000Z</time>
      </trkpt>
      <trkpt lat="43.62627" lon="3.849">
        <ele>44.403902685125</ele>
        <time>2020-06-06T16:03:52.000Z</time>
      </trkpt>
      <trkpt lat="43.62623" lon="3.84906">
        <ele>44.30634180089</ele>
        <time>2020-06-06T16:03:53.000Z</time>
      </trkpt>
      <trkpt lat="43.6262" lon="3.8491">
        <ele>44.208780916654</ele>
        <time>2020-06-06T16:03:54.000Z</time>
      </trkpt>
      <trkpt lat="43.62616" lon="3.84915">
        <ele>44.111220032418</ele>
        <time>2020-06-06T16:03:55.000Z</time>
      </trkpt>
      <trkpt lat="43.62613" lon="3.8492">
        <ele>44.013659148183</ele>
        <time>2020-06-06T16:03:56.000Z</time>
      </trkpt>
      <trkpt lat="43.62609" lon="3.84925">
        <ele>44</ele>
        <time>2020-06-06T16:03:57.000Z</time>
      </trkpt>
      <trkpt lat="43.62606" lon="3.8493">
        <ele>44</ele>
        <time>2020-06-06T16:03:58.000Z</time>
      </trkpt>
      <trkpt lat="43.62603" lon="3.84935">
        <ele>44</ele>
        <time>2020-06-06T16:03:59.000Z</time>
      </trkpt>
      <trkpt lat="43.62599" lon="3.84939">
        <ele>44</ele>
        <time>2020-06-06T16:04:00.000Z</time>
      </trkpt>
      <trkpt lat="43.62595" lon="3.84944">
        <ele>44</ele>
        <time>2020-06-06T16:04:01.000Z</time>
      </trkpt>
      <trkpt lat="43.62592" lon="3.84949">
        <ele>44</ele>
        <time>2020-06-06T16:04:02.000Z</time>
      </trkpt>
      <trkpt lat="43.62589" lon="3.84954">
        <ele>44</ele>
        <time>2020-06-06T16:04:03.000Z</time>
      </trkpt>
      <trkpt lat="43.62585" lon="3.84959">
        <ele>44</ele>
        <time>2020-06-06T16:04:04.000Z</time>
      </trkpt>
      <trkpt lat="43.62582" lon="3.84964">
        <ele>44</ele>
        <time>2020-06-06T16:04:05.000Z</time>
      </trkpt>
      <trkpt lat="43.62578" lon="3.84969">
        <ele>44</ele>
        <time>2020-06-06T16:04:06.000Z</time>
      </trkpt>
      <trkpt lat="43.62575" lon="3.84973">
        <ele>44</ele>
        <time>2020-06-06T16:04:07.000Z</time>
      </trkpt>
      <trkpt lat="43.62571" lon="3.84977">
        <ele>44</ele>
        <time>2020-06-06T16:04:08.000Z</time>
      </trkpt>
      <trkpt lat="43.62567" lon="3.84981">
        <ele>44</ele>
        <time>2020-06-06T16:04:09.000Z</time>
      </trkpt>
      <trkpt lat="43.62564" lon="3.84985">
        <ele>44</ele>
        <time>2020-06-06T16:04:10.000Z</time>
      </trkpt>
      <trkpt lat="43.62561" lon="3.84989">
        <ele>44</ele>
        <time>2020-06-06T16:04:11.000Z</time>
      </trkpt>
      <trkpt lat="43.62558" lon="3.84993">
        <ele>44</ele>
        <time>2020-06-06T16:04:12.000Z</time>
      </trkpt>
      <trkpt lat="43.62554" lon="3.84998">
        <ele>44</ele>
        <time>2020-06-06T16:04:13.000Z</time>
      </trkpt>
      <trkpt lat="43.6255" lon="3.85002">
        <ele>44</ele>
        <time>2020-06-06T16:04:14.000Z</time>
      </trkpt>
      <trkpt lat="43.62547" lon="3.85006">
        <ele>44</ele>
        <time>2020-06-06T16:04:15.000Z</time>
      </trkpt>
      <trkpt lat="43.62544" lon="3.85011">
        <ele>43.98899968</ele>
        <time>2020-06-06T16:04:16.000Z</time>
      </trkpt>
      <trkpt lat="43.6254" lon="3.85016">
        <ele>43.88899968</ele>
        <time>2020-06-06T16:04:17.000Z</time>
      </trkpt>
      <trkpt lat="43.62537" lon="3.85021">
        <ele>43.78899968</ele>
        <time>2020-06-06T16:04:18.000Z</time>
      </trkpt>
      <trkpt lat="43.62534" lon="3.85026">
        <ele>43.68899968</ele>
        <time>2020-06-06T16:04:19.000Z</time>
      </trkpt>
      <trkpt lat="43.62532" lon="3.85033">
        <ele>43.58899968</ele>
        <time>2020-06-06T16:04:20.000Z</time>
      </trkpt>
      <trkpt lat="43.6253" lon="3.85039">
        <ele>43.48899968</ele>
        <time>2020-06-06T16:04:21.000Z</time>
      </trkpt>
      <trkpt lat="43.62527" lon="3.85046">
        <ele>43.38899968</ele>
        <time>2020-06-06T16:04:22.000Z</time>
      </trkpt>
      <trkpt lat="43.62525" lon="3.85053">
        <ele>43.28899968</ele>
        <time>2020-06-06T16:04:23.000Z</time>
      </trkpt>
      <trkpt lat="43.62522" lon="3.8506">
        <ele>43.18899968</ele>
        <time>2020-06-06T16:04:24.000Z</time>
      </trkpt>
      <trkpt lat="43.62519" lon="3.85066">
        <ele>43.08899968</ele>
        <time>2020-06-06T16:04:25.000Z</time>
      </trkpt>
      <trkpt lat="43.62515" lon="3.85073">
        <ele>43</ele>
        <time>2020-06-06T16:04:26.000Z</time>
      </trkpt>
      <trkpt lat="43.62512" lon="3.8508">
        <ele>43</ele>
        <time>2020-06-06T16:04:27.000Z</time>
      </trkpt>
      <trkpt lat="43.62509" lon="3.85087">
        <ele>43</ele>
        <time>2020-06-06T16:04:28.000Z</time>
      </trkpt>
      <trkpt lat="43.62506" lon="3.85095">
        <ele>43</ele>
        <time>2020-06-06T16:04:29.000Z</time>
      </trkpt>
      <trkpt lat="43.62503" lon="3.85102">
        <ele>43</ele>
        <time>2020-06-06T16:04:30.000Z</time>
      </trkpt>
      <trkpt lat="43.625" lon="3.85109">
        <ele>43</ele>
        <time>2020-06-06T16:04:31.000Z</time>
      </trkpt>
      <trkpt lat="43.62497" lon="3.85116">
        <ele>43</ele>
        <time>2020-06-06T16:04:32.000Z</time>
      </trkpt>
      <trkpt lat="43.62494" lon="3.85123">
        <ele>43</ele>
        <time>2020-06-06T16:04:33.000Z</time>
      </trkpt>
      <trkpt lat="43.62492" lon="3.8513">
        <ele>43</ele>
        <time>2020-06-06T16:04:34.000Z</time>
      </trkpt>
      <trkpt lat="43.62489" lon="3.85137">
        <ele>43</ele>
        <time>2020-06-06T16:04:35.000Z</time>
      </trkpt>
      <trkpt lat="43.62486" lon="3.85145">
        <ele>42.97799936</ele>
        <time>2020-06-06T16:04:36.000Z</time>
      </trkpt>
      <trkpt lat="43.62484" lon="3.85152">
        <ele>42.77799936</ele>
        <time>2020-06-06T16:04:37.000Z</time>
      </trkpt>
      <trkpt lat="43.62481" lon="3.85159">
        <ele>42.57799936</ele>
        <time>2020-06-06T16:04:38.000Z</time>
      </trkpt>
      <trkpt lat="43.62478" lon="3.85166">
        <ele>42.37799936</ele>
        <time>2020-06-06T16:04:39.000Z</time>
      </trkpt>
      <trkpt lat="43.62475" lon="3.85174">
        <ele>42.17799936</ele>
        <time>2020-06-06T16:04:40.000Z</time>
      </trkpt>
      <trkpt lat="43.62472" lon="3.85181">
        <ele>41.97799936</ele>
        <time>2020-06-06T16:04:41.000Z</time>
      </trkpt>
      <trkpt lat="43.62469" lon="3.85188">
        <ele>41.77799936</ele>
        <time>2020-06-06T16:04:42.000Z</time>
      </trkpt>
      <trkpt lat="43.62466" lon="3.85196">
        <ele>41.57799936</ele>
        <time>2020-06-06T16:04:43.000Z</time>
      </trkpt>
      <trkpt lat="43.62463" lon="3.85203">
        <ele>41.37799936</ele>
        <time>2020-06-06T16:04:44.000Z</time>
      </trkpt>
      <trkpt lat="43.6246" lon="3.85211">
        <ele>41.17799936</ele>
        <time>2020-06-06T16:04:45.000Z</time>
      </trkpt>
      <trkpt lat="43.62458" lon="3.85218">
        <ele>41</ele>
        <time>2020-06-06T16:04:46.000Z</time>
      </trkpt>
      <trkpt lat="43.62455" lon="3.85225">
        <ele>41</ele>
        <time>2020-06-06T16:04:47.000Z</time>
      </trkpt>
      <trkpt lat="43.62452" lon="3.85232">
        <ele>41</ele>
        <time>2020-06-06T16:04:48.000Z</time>
      </trkpt>
      <trkpt lat="43.62448" lon="3.85239">
        <ele>41</ele>
        <time>2020-06-06T16:04:49.000Z</time>
      </trkpt>
      <trkpt lat="43.62445" lon="3.85246">
        <ele>41</ele>
        <time>2020-06-06T16:04:50.000Z</time>
      </trkpt>
      <trkpt lat="43.62442" lon="3.85253">
        <ele>41</ele>
        <time>2020-06-06T16:04:51.000Z</time>
      </trkpt>
      <trkpt lat="43.62438" lon="3.8526">
        <ele>41</ele>
        <time>2020-06-06T16:04:52.000Z</time>
      </trkpt>
      <trkpt lat="43.62435" lon="3.85267">
        <ele>41</ele>
        <time>2020-06-06T16:04:53.000Z</time>
      </trkpt>
      <trkpt lat="43.62431" lon="3.85273">
        <ele>41</ele>
        <time>2020-06-06T16:04:54.000Z</time>
      </trkpt>
      <trkpt lat="43.62428" lon="3.8528">
        <ele>41</ele>
        <time>2020-06-06T16:04:55.000Z</time>
      </trkpt>
      <trkpt lat="43.62424" lon="3.85287">
        <ele>41</ele>
        <time>2020-06-06T16:04:56.000Z</time>
      </trkpt>
      <trkpt lat="43.62421" lon="3.85293">
        <ele>41.053774542701</ele>
        <time>2020-06-06T16:04:57.000Z</time>
      </trkpt>
      <trkpt lat="43.62417" lon="3.853">
        <ele>41.157187124819</ele>
        <time>2020-06-06T16:04:58.000Z</time>
      </trkpt>
      <trkpt lat="43.62413" lon="3.85306">
        <ele>41.260599706937</ele>
        <time>2020-06-06T16:04:59.000Z</time>
      </trkpt>
      <trkpt lat="43.6241" lon="3.85313">
        <ele>41.364012289055</ele>
        <time>2020-06-06T16:05:00.000Z</time>
      </trkpt>
      <trkpt lat="43.62406" lon="3.85319">
        <ele>41.467424871173</ele>
        <time>2020-06-06T16:05:01.000Z</time>
      </trkpt>
      <trkpt lat="43.62402" lon="3.85325">
        <ele>41.570837453291</ele>
        <time>2020-06-06T16:05:02.000Z</time>
      </trkpt>
      <trkpt lat="43.62399" lon="3.85331">
        <ele>41.674250035408</ele>
        <time>2020-06-06T16:05:03.000Z</time>
      </trkpt>
      <trkpt lat="43.62395" lon="3.85337">
        <ele>41.777662617526</ele>
        <time>2020-06-06T16:05:04.000Z</time>
      </trkpt>
      <trkpt lat="43.62391" lon="3.85344">
        <ele>41.881075199644</ele>
        <time>2020-06-06T16:05:05.000Z</time>
      </trkpt>
      <trkpt lat="43.62387" lon="3.8535">
        <ele>41.984487781762</ele>
        <time>2020-06-06T16:05:06.000Z</time>
      </trkpt>
      <trkpt lat="43.62384" lon="3.85356">
        <ele>41.912731277359</ele>
        <time>2020-06-06T16:05:07.000Z</time>
      </trkpt>
      <trkpt lat="43.6238" lon="3.85362">
        <ele>41.810061805379</ele>
        <time>2020-06-06T16:05:08.000Z</time>
      </trkpt>
      <trkpt lat="43.62376" lon="3.85367">
        <ele>41.707392333399</ele>
        <time>2020-06-06T16:05:09.000Z</time>
      </trkpt>
      <trkpt lat="43.62372" lon="3.85372">
        <ele>41.60472286142</ele>
        <time>2020-06-06T16:05:10.000Z</time>
      </trkpt>
      <trkpt lat="43.62368" lon="3.85377">
        <ele>41.50205338944</ele>
        <time>2020-06-06T16:05:11.000Z</time>
      </trkpt>
      <trkpt lat="43.62364" lon="3.85382">
        <ele>41.39938391746</ele>
        <time>2020-06-06T16:05:12.000Z</time>
      </trkpt>
      <trkpt lat="43.62361" lon="3.85387">
        <ele>41.29671444548</ele>
        <time>2020-06-06T16:05:13.000Z</time>
      </trkpt>
      <trkpt lat="43.62357" lon="3.85392">
        <ele>41.1940449735</ele>
        <time>2020-06-06T16:05:14.000Z</time>
      </trkpt>
      <trkpt lat="43.62354" lon="3.85397">
        <ele>41.09137550152</ele>
        <time>2020-06-06T16:05:15.000Z</time>
      </trkpt>
      <trkpt lat="43.6235" lon="3.85402">
        <ele>40.98899968</ele>
        <time>2020-06-06T16:05:16.000Z</time>
      </trkpt>
      <trkpt lat="43.62346" lon="3.85407">
        <ele>40.88899968</ele>
        <time>2020-06-06T16:05:17.000Z</time>
      </trkpt>
      <trkpt lat="43.62342" lon="3.85411">
        <ele>40.78899968</ele>
        <time>2020-06-06T16:05:18.000Z</time>
      </trkpt>
      <trkpt lat="43.62337" lon="3.85416">
        <ele>40.68899968</ele>
        <time>2020-06-06T16:05:19.000Z</time>
      </trkpt>
      <trkpt lat="43.62333" lon="3.8542">
        <ele>40.58899968</ele>
        <time>2020-06-06T16:05:20.000Z</time>
      </trkpt>
      <trkpt lat="43.62328" lon="3.85424">
        <ele>40.48899968</ele>
        <time>2020-06-06T16:05:21.000Z</time>
      </trkpt>
      <trkpt lat="43.62324" lon="3.85429">
        <ele>40.38899968</ele>
        <time>2020-06-06T16:05:22.000Z</time>
      </trkpt>
      <trkpt lat="43.62318" lon="3.85432">
        <ele>40.28899968</ele>
        <time>2020-06-06T16:05:23.000Z</time>
      </trkpt>
      <trkpt lat="43.62313" lon="3.85435">
        <ele>40.18899968</ele>
        <time>2020-06-06T16:05:24.000Z</time>
      </trkpt>
      <trkpt lat="43.62309" lon="3.85439">
        <ele>40.08899968</ele>
        <time>2020-06-06T16:05:25.000Z</time>
      </trkpt>
      <trkpt lat="43.62304" lon="3.85442">
        <ele>40</ele>
        <time>2020-06-06T16:05:26.000Z</time>
      </trkpt>
      <trkpt lat="43.62299" lon="3.85444">
        <ele>40</ele>
        <time>2020-06-06T16:05:27.000Z</time>
      </trkpt>
      <trkpt lat="43.62295" lon="3.85447">
        <ele>40</ele>
        <time>2020-06-06T16:05:28.000Z</time>
      </trkpt>
      <trkpt lat="43.62291" lon="3.8545">
        <ele>40</ele>
        <time>2020-06-06T16:05:29.000Z</time>
      </trkpt>
      <trkpt lat="43.62287" lon="3.85452">
        <ele>40</ele>
        <time>2020-06-06T16:05:30.000Z</time>
      </trkpt>
      <trkpt lat="43.62283" lon="3.85454">
        <ele>40</ele>
        <time>2020-06-06T16:05:31.000Z</time>
      </trkpt>
      <trkpt lat="43.62279" lon="3.85456">
        <ele>40</ele>
        <time>2020-06-06T16:05:32.000Z</time>
      </trkpt>
      <trkpt lat="43.62276" lon="3.85456">
        <ele>40</ele>
        <time>2020-06-06T16:05:33.000Z</time>
      </trkpt>
      <trkpt lat="43.62273" lon="3.85456">
        <ele>40</ele>
        <time>2020-06-06T16:05:34.000Z</time>
      </trkpt>
      <trkpt lat="43.6227" lon="3.85456">
        <ele>40</ele>
        <time>2020-06-06T16:05:35.000Z</time>
      </trkpt>
      <trkpt lat="43.62267" lon="3.85457">
        <ele>40</ele>
        <time>2020-06-06T16:05:36.000Z</time>
      </trkpt>
      <trkpt lat="43.62263" lon="3.8546">
        <ele>40</ele>
        <time>2020-06-06T16:05:37.000Z</time>
      </trkpt>
      <trkpt lat="43.62259" lon="3.85462">
        <ele>40</ele>
        <time>2020-06-06T16:05:38.000Z</time>
      </trkpt>
      <trkpt lat="43.62256" lon="3.85465">
        <ele>40</ele>
        <time>2020-06-06T16:05:39.000Z</time>
      </trkpt>
      <trkpt lat="43.62252" lon="3.85469">
        <ele>40</ele>
        <time>2020-06-06T16:05:40.000Z</time>
      </trkpt>
      <trkpt lat="43.62248" lon="3.85472">
        <ele>40</ele>
        <time>2020-06-06T16:05:41.000Z</time>
      </trkpt>
      <trkpt lat="43.62244" lon="3.85477">
        <ele>40</ele>
        <time>2020-06-06T16:05:42.000Z</time>
      </trkpt>
      <trkpt lat="43.6224" lon="3.85481">
        <ele>40</ele>
        <time>2020-06-06T16:05:43.000Z</time>
      </trkpt>
      <trkpt lat="43.62236" lon="3.85486">
        <ele>40</ele>
        <time>2020-06-06T16:05:44.000Z</time>
      </trkpt>
      <trkpt lat="43.62233" lon="3.85491">
        <ele>40</ele>
        <time>2020-06-06T16:05:45.000Z</time>
      </trkpt>
      <trkpt lat="43.62229" lon="3.85497">
        <ele>39.98899968</ele>
        <time>2020-06-06T16:05:46.000Z</time>
      </trkpt>
      <trkpt lat="43.62226" lon="3.85502">
        <ele>39.88899968</ele>
        <time>2020-06-06T16:05:47.000Z</time>
      </trkpt>
      <trkpt lat="43.62222" lon="3.85508">
        <ele>39.78899968</ele>
        <time>2020-06-06T16:05:48.000Z</time>
      </trkpt>
      <trkpt lat="43.62219" lon="3.85514">
        <ele>39.68899968</ele>
        <time>2020-06-06T16:05:49.000Z</time>
      </trkpt>
      <trkpt lat="43.62215" lon="3.85519">
        <ele>39.58899968</ele>
        <time>2020-06-06T16:05:50.000Z</time>
      </trkpt>
      <trkpt lat="43.62211" lon="3.85525">
        <ele>39.48899968</ele>
        <time>2020-06-06T16:05:51.000Z</time>
      </trkpt>
      <trkpt lat="43.62207" lon="3.85531">
        <ele>39.38899968</ele>
        <time>2020-06-06T16:05:52.000Z</time>
      </trkpt>
      <trkpt lat="43.62204" lon="3.85537">
        <ele>39.28899968</ele>
        <time>2020-06-06T16:05:53.000Z</time>
      </trkpt>
      <trkpt lat="43.622" lon="3.85543">
        <ele>39.18899968</ele>
        <time>2020-06-06T16:05:54.000Z</time>
      </trkpt>
      <trkpt lat="43.62196" lon="3.85548">
        <ele>39.08899968</ele>
        <time>2020-06-06T16:05:55.000Z</time>
      </trkpt>
      <trkpt lat="43.62193" lon="3.85555">
        <ele>39</ele>
        <time>2020-06-06T16:05:56.000Z</time>
      </trkpt>
      <trkpt lat="43.62189" lon="3.85561">
        <ele>39</ele>
        <time>2020-06-06T16:05:57.000Z</time>
      </trkpt>
      <trkpt lat="43.62186" lon="3.85567">
        <ele>39</ele>
        <time>2020-06-06T16:05:58.000Z</time>
      </trkpt>
      <trkpt lat="43.62182" lon="3.85572">
        <ele>39</ele>
        <time>2020-06-06T16:05:59.000Z</time>
      </trkpt>
      <trkpt lat="43.62179" lon="3.85578">
        <ele>39</ele>
        <time>2020-06-06T16:06:00.000Z</time>
      </trkpt>
      <trkpt lat="43.62175" lon="3.85584">
        <ele>39</ele>
        <time>2020-06-06T16:06:01.000Z</time>
      </trkpt>
      <trkpt lat="43.62172" lon="3.85589">
        <ele>39</ele>
        <time>2020-06-06T16:06:02.000Z</time>
      </trkpt>
      <trkpt lat="43.62168" lon="3.85594">
        <ele>39</ele>
        <time>2020-06-06T16:06:03.000Z</time>
      </trkpt>
      <trkpt lat="43.62165" lon="3.856">
        <ele>39</ele>
        <time>2020-06-06T16:06:04.000Z</time>
      </trkpt>
      <trkpt lat="43.62162" lon="3.85605">
        <ele>39</ele>
        <time>2020-06-06T16:06:05.000Z</time>
      </trkpt>
      <trkpt lat="43.62158" lon="3.85611">
        <ele>39</ele>
        <time>2020-06-06T16:06:06.000Z</time>
      </trkpt>
      <trkpt lat="43.62155" lon="3.85616">
        <ele>38.911795441358</ele>
        <time>2020-06-06T16:06:07.000Z</time>
      </trkpt>
      <trkpt lat="43.62151" lon="3.85621">
        <ele>38.809231237807</ele>
        <time>2020-06-06T16:06:08.000Z</time>
      </trkpt>
      <trkpt lat="43.62147" lon="3.85626">
        <ele>38.706667034257</ele>
        <time>2020-06-06T16:06:09.000Z</time>
      </trkpt>
      <trkpt lat="43.62143" lon="3.85631">
        <ele>38.604102830706</ele>
        <time>2020-06-06T16:06:10.000Z</time>
      </trkpt>
      <trkpt lat="43.62139" lon="3.85636">
        <ele>38.501538627156</ele>
        <time>2020-06-06T16:06:11.000Z</time>
      </trkpt>
      <trkpt lat="43.62136" lon="3.85642">
        <ele>38.398974423606</ele>
        <time>2020-06-06T16:06:12.000Z</time>
      </trkpt>
      <trkpt lat="43.62133" lon="3.85648">
        <ele>38.296410220055</ele>
        <time>2020-06-06T16:06:13.000Z</time>
      </trkpt>
      <trkpt lat="43.62129" lon="3.85654">
        <ele>38.193846016505</ele>
        <time>2020-06-06T16:06:14.000Z</time>
      </trkpt>
      <trkpt lat="43.62125" lon="3.85659">
        <ele>38.091281812954</ele>
        <time>2020-06-06T16:06:15.000Z</time>
      </trkpt>
      <trkpt lat="43.62122" lon="3.85665">
        <ele>37.98899968</ele>
        <time>2020-06-06T16:06:16.000Z</time>
      </trkpt>
      <trkpt lat="43.62118" lon="3.85671">
        <ele>37.88899968</ele>
        <time>2020-06-06T16:06:17.000Z</time>
      </trkpt>
      <trkpt lat="43.62115" lon="3.85677">
        <ele>37.78899968</ele>
        <time>2020-06-06T16:06:18.000Z</time>
      </trkpt>
      <trkpt lat="43.62112" lon="3.85684">
        <ele>37.68899968</ele>
        <time>2020-06-06T16:06:19.000Z</time>
      </trkpt>
      <trkpt lat="43.62109" lon="3.8569">
        <ele>37.58899968</ele>
        <time>2020-06-06T16:06:20.000Z</time>
      </trkpt>
      <trkpt lat="43.62106" lon="3.85696">
        <ele>37.48899968</ele>
        <time>2020-06-06T16:06:21.000Z</time>
      </trkpt>
      <trkpt lat="43.62103" lon="3.85702">
        <ele>37.38899968</ele>
        <time>2020-06-06T16:06:22.000Z</time>
      </trkpt>
      <trkpt lat="43.621" lon="3.85707">
        <ele>37.28899968</ele>
        <time>2020-06-06T16:06:23.000Z</time>
      </trkpt>
      <trkpt lat="43.62097" lon="3.85713">
        <ele>37.18899968</ele>
        <time>2020-06-06T16:06:24.000Z</time>
      </trkpt>
      <trkpt lat="43.62095" lon="3.85718">
        <ele>37.08899968</ele>
        <time>2020-06-06T16:06:25.000Z</time>
      </trkpt>
      <trkpt lat="43.62093" lon="3.85724">
        <ele>37</ele>
        <time>2020-06-06T16:06:26.000Z</time>
      </trkpt>
      <trkpt lat="43.62091" lon="3.8573">
        <ele>37</ele>
        <time>2020-06-06T16:06:27.000Z</time>
      </trkpt>
      <trkpt lat="43.62088" lon="3.85735">
        <ele>37</ele>
        <time>2020-06-06T16:06:28.000Z</time>
      </trkpt>
      <trkpt lat="43.62086" lon="3.8574">
        <ele>37</ele>
        <time>2020-06-06T16:06:29.000Z</time>
      </trkpt>
      <trkpt lat="43.62082" lon="3.85743">
        <ele>37</ele>
        <time>2020-06-06T16:06:30.000Z</time>
      </trkpt>
      <trkpt lat="43.62078" lon="3.85745">
        <ele>37</ele>
        <time>2020-06-06T16:06:31.000Z</time>
      </trkpt>
      <trkpt lat="43.62076" lon="3.85748">
        <ele>37</ele>
        <time>2020-06-06T16:06:32.000Z</time>
      </trkpt>
      <trkpt lat="43.62075" lon="3.85751">
        <ele>37</ele>
        <time>2020-06-06T16:06:33.000Z</time>
      </trkpt>
      <trkpt lat="43.62075" lon="3.85755">
        <ele>37</ele>
        <time>2020-06-06T16:06:35.000Z</time>
      </trkpt>
      <trkpt lat="43.62075" lon="3.85758">
        <ele>36.78899968</ele>
        <time>2020-06-06T16:06:38.000Z</time>
      </trkpt>
      <trkpt lat="43.62072" lon="3.8576">
        <ele>36.58899968</ele>
        <time>2020-06-06T16:06:40.000Z</time>
      </trkpt>
      <trkpt lat="43.62069" lon="3.85761">
        <ele>36.48899968</ele>
        <time>2020-06-06T16:06:41.000Z</time>
      </trkpt>
      <trkpt lat="43.62067" lon="3.85763">
        <ele>36.38899968</ele>
        <time>2020-06-06T16:06:42.000Z</time>
      </trkpt>
      <trkpt lat="43.62064" lon="3.85767">
        <ele>36.28899968</ele>
        <time>2020-06-06T16:06:43.000Z</time>
      </trkpt>
      <trkpt lat="43.62061" lon="3.85771">
        <ele>36.18899968</ele>
        <time>2020-06-06T16:06:44.000Z</time>
      </trkpt>
      <trkpt lat="43.62061" lon="3.85776">
        <ele>36.08899968</ele>
        <time>2020-06-06T16:06:45.000Z</time>
      </trkpt>
      <trkpt lat="43.6206" lon="3.85781">
        <ele>36</ele>
        <time>2020-06-06T16:06:46.000Z</time>
      </trkpt>
      <trkpt lat="43.62059" lon="3.85787">
        <ele>36</ele>
        <time>2020-06-06T16:06:47.000Z</time>
      </trkpt>
      <trkpt lat="43.62057" lon="3.85792">
        <ele>36</ele>
        <time>2020-06-06T16:06:48.000Z</time>
      </trkpt>
      <trkpt lat="43.62055" lon="3.85798">
        <ele>36</ele>
        <time>2020-06-06T16:06:49.000Z</time>
      </trkpt>
      <trkpt lat="43.62052" lon="3.85803">
        <ele>36</ele>
        <time>2020-06-06T16:06:50.000Z</time>
      </trkpt>
      <trkpt lat="43.6205" lon="3.85808">
        <ele>36</ele>
        <time>2020-06-06T16:06:51.000Z</time>
      </trkpt>
      <trkpt lat="43.62048" lon="3.85813">
        <ele>36</ele>
        <time>2020-06-06T16:06:52.000Z</time>
      </trkpt>
      <trkpt lat="43.62046" lon="3.85819">
        <ele>36</ele>
        <time>2020-06-06T16:06:53.000Z</time>
      </trkpt>
      <trkpt lat="43.62044" lon="3.85824">
        <ele>36</ele>
        <time>2020-06-06T16:06:54.000Z</time>
      </trkpt>
      <trkpt lat="43.62043" lon="3.85829">
        <ele>36</ele>
        <time>2020-06-06T16:06:55.000Z</time>
      </trkpt>
      <trkpt lat="43.62041" lon="3.85833">
        <ele>36.01100032</ele>
        <time>2020-06-06T16:06:56.000Z</time>
      </trkpt>
      <trkpt lat="43.62039" lon="3.85837">
        <ele>36.11100032</ele>
        <time>2020-06-06T16:06:57.000Z</time>
      </trkpt>
      <trkpt lat="43.62037" lon="3.8584">
        <ele>36.21100032</ele>
        <time>2020-06-06T16:06:58.000Z</time>
      </trkpt>
      <trkpt lat="43.62036" lon="3.85844">
        <ele>36.31100032</ele>
        <time>2020-06-06T16:06:59.000Z</time>
      </trkpt>
      <trkpt lat="43.62033" lon="3.85848">
        <ele>36.41100032</ele>
        <time>2020-06-06T16:07:00.000Z</time>
      </trkpt>
      <trkpt lat="43.62031" lon="3.85852">
        <ele>36.51100032</ele>
        <time>2020-06-06T16:07:01.000Z</time>
      </trkpt>
      <trkpt lat="43.62028" lon="3.85855">
        <ele>36.61100032</ele>
        <time>2020-06-06T16:07:02.000Z</time>
      </trkpt>
      <trkpt lat="43.62025" lon="3.85858">
        <ele>36.71100032</ele>
        <time>2020-06-06T16:07:03.000Z</time>
      </trkpt>
      <trkpt lat="43.62022" lon="3.85861">
        <ele>36.81100032</ele>
        <time>2020-06-06T16:07:04.000Z</time>
      </trkpt>
      <trkpt lat="43.62019" lon="3.85863">
        <ele>36.91100032</ele>
        <time>2020-06-06T16:07:05.000Z</time>
      </trkpt>
      <trkpt lat="43.62015" lon="3.85865">
        <ele>37</ele>
        <time>2020-06-06T16:07:06.000Z</time>
      </trkpt>
      <trkpt lat="43.62012" lon="3.85867">
        <ele>37</ele>
        <time>2020-06-06T16:07:07.000Z</time>
      </trkpt>
      <trkpt lat="43.62008" lon="3.85869">
        <ele>37</ele>
        <time>2020-06-06T16:07:08.000Z</time>
      </trkpt>
      <trkpt lat="43.62004" lon="3.8587">
        <ele>37</ele>
        <time>2020-06-06T16:07:09.000Z</time>
      </trkpt>
      <trkpt lat="43.62" lon="3.85871">
        <ele>37</ele>
        <time>2020-06-06T16:07:10.000Z</time>
      </trkpt>
      <trkpt lat="43.61996" lon="3.85872">
        <ele>37</ele>
        <time>2020-06-06T16:07:11.000Z</time>
      </trkpt>
      <trkpt lat="43.61993" lon="3.85875">
        <ele>37</ele>
        <time>2020-06-06T16:07:12.000Z</time>
      </trkpt>
      <trkpt lat="43.61991" lon="3.8588">
        <ele>37</ele>
        <time>2020-06-06T16:07:13.000Z</time>
      </trkpt>
      <trkpt lat="43.6199" lon="3.85885">
        <ele>37</ele>
        <time>2020-06-06T16:07:14.000Z</time>
      </trkpt>
      <trkpt lat="43.61989" lon="3.8589">
        <ele>37</ele>
        <time>2020-06-06T16:07:15.000Z</time>
      </trkpt>
      <trkpt lat="43.61988" lon="3.85895">
        <ele>37</ele>
        <time>2020-06-06T16:07:16.000Z</time>
      </trkpt>
      <trkpt lat="43.61988" lon="3.859">
        <ele>37</ele>
        <time>2020-06-06T16:07:17.000Z</time>
      </trkpt>
      <trkpt lat="43.6199" lon="3.85903">
        <ele>37</ele>
        <time>2020-06-06T16:07:18.000Z</time>
      </trkpt>
      <trkpt lat="43.61992" lon="3.85907">
        <ele>37</ele>
        <time>2020-06-06T16:07:19.000Z</time>
      </trkpt>
      <trkpt lat="43.61995" lon="3.85911">
        <ele>37</ele>
        <time>2020-06-06T16:07:20.000Z</time>
      </trkpt>
      <trkpt lat="43.61997" lon="3.85916">
        <ele>37</ele>
        <time>2020-06-06T16:07:21.000Z</time>
      </trkpt>
      <trkpt lat="43.61999" lon="3.85922">
        <ele>37</ele>
        <time>2020-06-06T16:07:22.000Z</time>
      </trkpt>
      <trkpt lat="43.62" lon="3.85928">
        <ele>37</ele>
        <time>2020-06-06T16:07:23.000Z</time>
      </trkpt>
      <trkpt lat="43.62001" lon="3.85933">
        <ele>37</ele>
        <time>2020-06-06T16:07:24.000Z</time>
      </trkpt>
      <trkpt lat="43.62001" lon="3.85939">
        <ele>37</ele>
        <time>2020-06-06T16:07:25.000Z</time>
      </trkpt>
      <trkpt lat="43.62" lon="3.85945">
        <ele>37.01100032</ele>
        <time>2020-06-06T16:07:26.000Z</time>
      </trkpt>
      <trkpt lat="43.61998" lon="3.8595">
        <ele>37.11100032</ele>
        <time>2020-06-06T16:07:27.000Z</time>
      </trkpt>
      <trkpt lat="43.61996" lon="3.85955">
        <ele>37.21100032</ele>
        <time>2020-06-06T16:07:28.000Z</time>
      </trkpt>
      <trkpt lat="43.61994" lon="3.85961">
        <ele>37.31100032</ele>
        <time>2020-06-06T16:07:29.000Z</time>
      </trkpt>
      <trkpt lat="43.61992" lon="3.85966">
        <ele>37.41100032</ele>
        <time>2020-06-06T16:07:30.000Z</time>
      </trkpt>
      <trkpt lat="43.6199" lon="3.85971">
        <ele>37.51100032</ele>
        <time>2020-06-06T16:07:31.000Z</time>
      </trkpt>
      <trkpt lat="43.61988" lon="3.85976">
        <ele>37.61100032</ele>
        <time>2020-06-06T16:07:32.000Z</time>
      </trkpt>
      <trkpt lat="43.61985" lon="3.85981">
        <ele>37.71100032</ele>
        <time>2020-06-06T16:07:33.000Z</time>
      </trkpt>
      <trkpt lat="43.61983" lon="3.85986">
        <ele>37.81100032</ele>
        <time>2020-06-06T16:07:34.000Z</time>
      </trkpt>
      <trkpt lat="43.61981" lon="3.85991">
        <ele>37.91100032</ele>
        <time>2020-06-06T16:07:35.000Z</time>
      </trkpt>
      <trkpt lat="43.61979" lon="3.85996">
        <ele>38</ele>
        <time>2020-06-06T16:07:36.000Z</time>
      </trkpt>
      <trkpt lat="43.61977" lon="3.86001">
        <ele>38</ele>
        <time>2020-06-06T16:07:37.000Z</time>
      </trkpt>
      <trkpt lat="43.61975" lon="3.86006">
        <ele>38</ele>
        <time>2020-06-06T16:07:38.000Z</time>
      </trkpt>
      <trkpt lat="43.61973" lon="3.86011">
        <ele>38</ele>
        <time>2020-06-06T16:07:39.000Z</time>
      </trkpt>
      <trkpt lat="43.61971" lon="3.86016">
        <ele>38</ele>
        <time>2020-06-06T16:07:40.000Z</time>
      </trkpt>
      <trkpt lat="43.61969" lon="3.86021">
        <ele>38</ele>
        <time>2020-06-06T16:07:41.000Z</time>
      </trkpt>
      <trkpt lat="43.61967" lon="3.86026">
        <ele>38</ele>
        <time>2020-06-06T16:07:42.000Z</time>
      </trkpt>
      <trkpt lat="43.61965" lon="3.86032">
        <ele>38</ele>
        <time>2020-06-06T16:07:43.000Z</time>
      </trkpt>
      <trkpt lat="43.61963" lon="3.86037">
        <ele>38</ele>
        <time>2020-06-06T16:07:44.000Z</time>
      </trkpt>
      <trkpt lat="43.61961" lon="3.86042">
        <ele>38</ele>
        <time>2020-06-06T16:07:45.000Z</time>
      </trkpt>
      <trkpt lat="43.61959" lon="3.86047">
        <ele>38.005029862393</ele>
        <time>2020-06-06T16:07:46.000Z</time>
      </trkpt>
      <trkpt lat="43.61957" lon="3.86052">
        <ele>38.105633548899</ele>
        <time>2020-06-06T16:07:47.000Z</time>
      </trkpt>
      <trkpt lat="43.61955" lon="3.86057">
        <ele>38.206237235404</ele>
        <time>2020-06-06T16:07:48.000Z</time>
      </trkpt>
      <trkpt lat="43.61953" lon="3.86061">
        <ele>38.30684092191</ele>
        <time>2020-06-06T16:07:49.000Z</time>
      </trkpt>
      <trkpt lat="43.61952" lon="3.86066">
        <ele>38.407444608415</ele>
        <time>2020-06-06T16:07:50.000Z</time>
      </trkpt>
      <trkpt lat="43.6195" lon="3.86071">
        <ele>38.50804829492</ele>
        <time>2020-06-06T16:07:51.000Z</time>
      </trkpt>
      <trkpt lat="43.61948" lon="3.86076">
        <ele>38.608651981426</ele>
        <time>2020-06-06T16:07:52.000Z</time>
      </trkpt>
      <trkpt lat="43.61946" lon="3.86081">
        <ele>38.709255667931</ele>
        <time>2020-06-06T16:07:53.000Z</time>
      </trkpt>
      <trkpt lat="43.61944" lon="3.86086">
        <ele>38.809859354437</ele>
        <time>2020-06-06T16:07:54.000Z</time>
      </trkpt>
      <trkpt lat="43.61942" lon="3.86091">
        <ele>38.910463040942</ele>
        <time>2020-06-06T16:07:55.000Z</time>
      </trkpt>
      <trkpt lat="43.6194" lon="3.86096">
        <ele>39.01098932013</ele>
        <time>2020-06-06T16:07:56.000Z</time>
      </trkpt>
      <trkpt lat="43.61938" lon="3.86101">
        <ele>39.110889324222</ele>
        <time>2020-06-06T16:07:57.000Z</time>
      </trkpt>
      <trkpt lat="43.61936" lon="3.86105">
        <ele>39.210789328314</ele>
        <time>2020-06-06T16:07:58.000Z</time>
      </trkpt>
      <trkpt lat="43.61934" lon="3.8611">
        <ele>39.310689332406</ele>
        <time>2020-06-06T16:07:59.000Z</time>
      </trkpt>
      <trkpt lat="43.61933" lon="3.86114">
        <ele>39.410589336498</ele>
        <time>2020-06-06T16:08:00.000Z</time>
      </trkpt>
      <trkpt lat="43.61931" lon="3.86119">
        <ele>39.51048934059</ele>
        <time>2020-06-06T16:08:01.000Z</time>
      </trkpt>
      <trkpt lat="43.61929" lon="3.86124">
        <ele>39.610389344682</ele>
        <time>2020-06-06T16:08:02.000Z</time>
      </trkpt>
      <trkpt lat="43.61927" lon="3.86128">
        <ele>39.710289348774</ele>
        <time>2020-06-06T16:08:03.000Z</time>
      </trkpt>
      <trkpt lat="43.61925" lon="3.86132">
        <ele>39.810189352865</ele>
        <time>2020-06-06T16:08:04.000Z</time>
      </trkpt>
      <trkpt lat="43.61924" lon="3.86137">
        <ele>39.910089356957</ele>
        <time>2020-06-06T16:08:05.000Z</time>
      </trkpt>
      <trkpt lat="43.61922" lon="3.86141">
        <ele>40.019800725418</ele>
        <time>2020-06-06T16:08:06.000Z</time>
      </trkpt>
      <trkpt lat="43.61921" lon="3.86146">
        <ele>40.217820652876</ele>
        <time>2020-06-06T16:08:07.000Z</time>
      </trkpt>
      <trkpt lat="43.61919" lon="3.8615">
        <ele>40.415840580335</ele>
        <time>2020-06-06T16:08:08.000Z</time>
      </trkpt>
      <trkpt lat="43.61918" lon="3.86155">
        <ele>40.613860507793</ele>
        <time>2020-06-06T16:08:09.000Z</time>
      </trkpt>
      <trkpt lat="43.61916" lon="3.8616">
        <ele>40.811880435251</ele>
        <time>2020-06-06T16:08:10.000Z</time>
      </trkpt>
      <trkpt lat="43.61915" lon="3.86164">
        <ele>41.009900362709</ele>
        <time>2020-06-06T16:08:11.000Z</time>
      </trkpt>
      <trkpt lat="43.61913" lon="3.86169">
        <ele>41.207920290167</ele>
        <time>2020-06-06T16:08:12.000Z</time>
      </trkpt>
      <trkpt lat="43.61912" lon="3.86173">
        <ele>41.405940217625</ele>
        <time>2020-06-06T16:08:13.000Z</time>
      </trkpt>
      <trkpt lat="43.61911" lon="3.86178">
        <ele>41.603960145084</ele>
        <time>2020-06-06T16:08:14.000Z</time>
      </trkpt>
      <trkpt lat="43.61909" lon="3.86183">
        <ele>41.801980072542</ele>
        <time>2020-06-06T16:08:15.000Z</time>
      </trkpt>
      <trkpt lat="43.61908" lon="3.86187">
        <ele>42</ele>
        <time>2020-06-06T16:08:16.000Z</time>
      </trkpt>
      <trkpt lat="43.61906" lon="3.86192">
        <ele>42.101112267296</ele>
        <time>2020-06-06T16:08:17.000Z</time>
      </trkpt>
      <trkpt lat="43.61904" lon="3.86196">
        <ele>42.202224534592</ele>
        <time>2020-06-06T16:08:18.000Z</time>
      </trkpt>
      <trkpt lat="43.61902" lon="3.862">
        <ele>42.303336801888</ele>
        <time>2020-06-06T16:08:19.000Z</time>
      </trkpt>
      <trkpt lat="43.619" lon="3.86205">
        <ele>42.404449069185</ele>
        <time>2020-06-06T16:08:20.000Z</time>
      </trkpt>
      <trkpt lat="43.61899" lon="3.8621">
        <ele>42.505561336481</ele>
        <time>2020-06-06T16:08:21.000Z</time>
      </trkpt>
      <trkpt lat="43.61897" lon="3.86214">
        <ele>42.606673603777</ele>
        <time>2020-06-06T16:08:22.000Z</time>
      </trkpt>
      <trkpt lat="43.61895" lon="3.86219">
        <ele>42.707785871073</ele>
        <time>2020-06-06T16:08:23.000Z</time>
      </trkpt>
      <trkpt lat="43.61893" lon="3.86223">
        <ele>42.808898138369</ele>
        <time>2020-06-06T16:08:24.000Z</time>
      </trkpt>
      <trkpt lat="43.61891" lon="3.86228">
        <ele>42.910010405666</ele>
        <time>2020-06-06T16:08:25.000Z</time>
      </trkpt>
      <trkpt lat="43.61889" lon="3.86232">
        <ele>43</ele>
        <time>2020-06-06T16:08:26.000Z</time>
      </trkpt>
      <trkpt lat="43.61887" lon="3.86236">
        <ele>43</ele>
        <time>2020-06-06T16:08:27.000Z</time>
      </trkpt>
      <trkpt lat="43.61884" lon="3.86241">
        <ele>43</ele>
        <time>2020-06-06T16:08:28.000Z</time>
      </trkpt>
      <trkpt lat="43.61882" lon="3.86245">
        <ele>43</ele>
        <time>2020-06-06T16:08:29.000Z</time>
      </trkpt>
      <trkpt lat="43.61879" lon="3.86249">
        <ele>43</ele>
        <time>2020-06-06T16:08:30.000Z</time>
      </trkpt>
      <trkpt lat="43.61877" lon="3.86253">
        <ele>43</ele>
        <time>2020-06-06T16:08:31.000Z</time>
      </trkpt>
      <trkpt lat="43.61874" lon="3.86257">
        <ele>43</ele>
        <time>2020-06-06T16:08:32.000Z</time>
      </trkpt>
      <trkpt lat="43.61872" lon="3.86261">
        <ele>43</ele>
        <time>2020-06-06T16:08:33.000Z</time>
      </trkpt>
      <trkpt lat="43.61869" lon="3.86265">
        <ele>43</ele>
        <time>2020-06-06T16:08:34.000Z</time>
      </trkpt>
      <trkpt lat="43.61867" lon="3.86269">
        <ele>43</ele>
        <time>2020-06-06T16:08:35.000Z</time>
      </trkpt>
      <trkpt lat="43.61864" lon="3.86273">
        <ele>43.010648896202</ele>
        <time>2020-06-06T16:08:36.000Z</time>
      </trkpt>
      <trkpt lat="43.61862" lon="3.86277">
        <ele>43.107454227342</ele>
        <time>2020-06-06T16:08:37.000Z</time>
      </trkpt>
      <trkpt lat="43.6186" lon="3.86282">
        <ele>43.204259558481</ele>
        <time>2020-06-06T16:08:38.000Z</time>
      </trkpt>
      <trkpt lat="43.61857" lon="3.86286">
        <ele>43.30106488962</ele>
        <time>2020-06-06T16:08:39.000Z</time>
      </trkpt>
      <trkpt lat="43.61855" lon="3.86291">
        <ele>43.39787022076</ele>
        <time>2020-06-06T16:08:40.000Z</time>
      </trkpt>
      <trkpt lat="43.61853" lon="3.86295">
        <ele>43.494675551899</ele>
        <time>2020-06-06T16:08:41.000Z</time>
      </trkpt>
      <trkpt lat="43.6185" lon="3.863">
        <ele>43.591480883038</ele>
        <time>2020-06-06T16:08:42.000Z</time>
      </trkpt>
      <trkpt lat="43.61846" lon="3.86304">
        <ele>43.688286214177</ele>
        <time>2020-06-06T16:08:43.000Z</time>
      </trkpt>
      <trkpt lat="43.61843" lon="3.86308">
        <ele>43.785091545317</ele>
        <time>2020-06-06T16:08:44.000Z</time>
      </trkpt>
      <trkpt lat="43.61839" lon="3.86312">
        <ele>43.881896876456</ele>
        <time>2020-06-06T16:08:45.000Z</time>
      </trkpt>
      <trkpt lat="43.61835" lon="3.86316">
        <ele>43.978702207595</ele>
        <time>2020-06-06T16:08:46.000Z</time>
      </trkpt>
      <trkpt lat="43.61832" lon="3.86321">
        <ele>43.919338741019</ele>
        <time>2020-06-06T16:08:47.000Z</time>
      </trkpt>
      <trkpt lat="43.6183" lon="3.86326">
        <ele>43.815926022016</ele>
        <time>2020-06-06T16:08:48.000Z</time>
      </trkpt>
      <trkpt lat="43.6183" lon="3.86333">
        <ele>43.712513303012</ele>
        <time>2020-06-06T16:08:49.000Z</time>
      </trkpt>
      <trkpt lat="43.6183" lon="3.86341">
        <ele>43.609100584009</ele>
        <time>2020-06-06T16:08:50.000Z</time>
      </trkpt>
      <trkpt lat="43.6183" lon="3.86349">
        <ele>43.505687865005</ele>
        <time>2020-06-06T16:08:51.000Z</time>
      </trkpt>
      <trkpt lat="43.61831" lon="3.86357">
        <ele>43.402275146002</ele>
        <time>2020-06-06T16:08:52.000Z</time>
      </trkpt>
      <trkpt lat="43.61832" lon="3.86366">
        <ele>43.298862426999</ele>
        <time>2020-06-06T16:08:53.000Z</time>
      </trkpt>
      <trkpt lat="43.61832" lon="3.86374">
        <ele>43.195449707996</ele>
        <time>2020-06-06T16:08:54.000Z</time>
      </trkpt>
      <trkpt lat="43.61833" lon="3.86383">
        <ele>43.092036988992</ele>
        <time>2020-06-06T16:08:55.000Z</time>
      </trkpt>
      <trkpt lat="43.61834" lon="3.86393">
        <ele>42.97799936</ele>
        <time>2020-06-06T16:08:56.000Z</time>
      </trkpt>
      <trkpt lat="43.61834" lon="3.86402">
        <ele>42.77799936</ele>
        <time>2020-06-06T16:08:57.000Z</time>
      </trkpt>
      <trkpt lat="43.61835" lon="3.86412">
        <ele>42.57799936</ele>
        <time>2020-06-06T16:08:58.000Z</time>
      </trkpt>
      <trkpt lat="43.61836" lon="3.86422">
        <ele>42.37799936</ele>
        <time>2020-06-06T16:08:59.000Z</time>
      </trkpt>
      <trkpt lat="43.61837" lon="3.86432">
        <ele>42.17799936</ele>
        <time>2020-06-06T16:09:00.000Z</time>
      </trkpt>
      <trkpt lat="43.61838" lon="3.86443">
        <ele>41.97799936</ele>
        <time>2020-06-06T16:09:01.000Z</time>
      </trkpt>
      <trkpt lat="43.61838" lon="3.86454">
        <ele>41.77799936</ele>
        <time>2020-06-06T16:09:02.000Z</time>
      </trkpt>
      <trkpt lat="43.61839" lon="3.86464">
        <ele>41.57799936</ele>
        <time>2020-06-06T16:09:03.000Z</time>
      </trkpt>
      <trkpt lat="43.6184" lon="3.86476">
        <ele>41.37799936</ele>
        <time>2020-06-06T16:09:04.000Z</time>
      </trkpt>
      <trkpt lat="43.61839" lon="3.86488">
        <ele>41.17799936</ele>
        <time>2020-06-06T16:09:05.000Z</time>
      </trkpt>
      <trkpt lat="43.61837" lon="3.865">
        <ele>40.98901067987</ele>
        <time>2020-06-06T16:09:06.000Z</time>
      </trkpt>
      <trkpt lat="43.61835" lon="3.86511">
        <ele>40.889110675778</ele>
        <time>2020-06-06T16:09:07.000Z</time>
      </trkpt>
      <trkpt lat="43.61832" lon="3.86522">
        <ele>40.789210671686</ele>
        <time>2020-06-06T16:09:08.000Z</time>
      </trkpt>
      <trkpt lat="43.61828" lon="3.86532">
        <ele>40.689310667594</ele>
        <time>2020-06-06T16:09:09.000Z</time>
      </trkpt>
      <trkpt lat="43.61825" lon="3.86543">
        <ele>40.589410663502</ele>
        <time>2020-06-06T16:09:10.000Z</time>
      </trkpt>
      <trkpt lat="43.61822" lon="3.86553">
        <ele>40.48951065941</ele>
        <time>2020-06-06T16:09:11.000Z</time>
      </trkpt>
      <trkpt lat="43.61818" lon="3.86562">
        <ele>40.389610655318</ele>
        <time>2020-06-06T16:09:12.000Z</time>
      </trkpt>
      <trkpt lat="43.61815" lon="3.86572">
        <ele>40.289710651226</ele>
        <time>2020-06-06T16:09:13.000Z</time>
      </trkpt>
      <trkpt lat="43.61811" lon="3.86581">
        <ele>40.189810647135</ele>
        <time>2020-06-06T16:09:14.000Z</time>
      </trkpt>
      <trkpt lat="43.61808" lon="3.8659">
        <ele>40.089910643043</ele>
        <time>2020-06-06T16:09:15.000Z</time>
      </trkpt>
      <trkpt lat="43.61803" lon="3.86599">
        <ele>39.989990621012</ele>
        <time>2020-06-06T16:09:16.000Z</time>
      </trkpt>
      <trkpt lat="43.61799" lon="3.86607">
        <ele>39.88989042472</ele>
        <time>2020-06-06T16:09:17.000Z</time>
      </trkpt>
      <trkpt lat="43.61795" lon="3.86615">
        <ele>39.789790228427</ele>
        <time>2020-06-06T16:09:18.000Z</time>
      </trkpt>
      <trkpt lat="43.61791" lon="3.86623">
        <ele>39.689690032135</ele>
        <time>2020-06-06T16:09:19.000Z</time>
      </trkpt>
      <trkpt lat="43.61787" lon="3.8663">
        <ele>39.589589835842</ele>
        <time>2020-06-06T16:09:20.000Z</time>
      </trkpt>
      <trkpt lat="43.61784" lon="3.86638">
        <ele>39.48948963955</ele>
        <time>2020-06-06T16:09:21.000Z</time>
      </trkpt>
      <trkpt lat="43.61781" lon="3.86644">
        <ele>39.389389443257</ele>
        <time>2020-06-06T16:09:22.000Z</time>
      </trkpt>
      <trkpt lat="43.61779" lon="3.86649">
        <ele>39.289289246965</ele>
        <time>2020-06-06T16:09:23.000Z</time>
      </trkpt>
      <trkpt lat="43.61777" lon="3.86654">
        <ele>39.189189050672</ele>
        <time>2020-06-06T16:09:24.000Z</time>
      </trkpt>
      <trkpt lat="43.61775" lon="3.86657">
        <ele>39.08908885438</ele>
        <time>2020-06-06T16:09:25.000Z</time>
      </trkpt>
      <trkpt lat="43.61774" lon="3.8666">
        <ele>38.98899968</ele>
        <time>2020-06-06T16:09:26.000Z</time>
      </trkpt>
      <trkpt lat="43.61774" lon="3.86663">
        <ele>38.78899968</ele>
        <time>2020-06-06T16:09:28.000Z</time>
      </trkpt>
      <trkpt lat="43.61772" lon="3.86665">
        <ele>38.48899968</ele>
        <time>2020-06-06T16:09:31.000Z</time>
      </trkpt>
      <trkpt lat="43.61772" lon="3.86668">
        <ele>38.08899968</ele>
        <time>2020-06-06T16:09:35.000Z</time>
      </trkpt>
      <trkpt lat="43.61772" lon="3.86671">
        <ele>38</ele>
        <time>2020-06-06T16:09:39.000Z</time>
      </trkpt>
      <trkpt lat="43.61771" lon="3.86673">
        <ele>38</ele>
        <time>2020-06-06T16:09:44.000Z</time>
      </trkpt>
      <trkpt lat="43.61771" lon="3.86675">
        <ele>38</ele>
        <time>2020-06-06T16:09:46.000Z</time>
      </trkpt>
      <trkpt lat="43.61763" lon="3.86686">
        <ele>38</ele>
        <time>2020-06-06T16:09:49.000Z</time>
      </trkpt>
      <trkpt lat="43.61761" lon="3.86691">
        <ele>37.938754573606</ele>
        <time>2020-06-06T16:09:50.000Z</time>
      </trkpt>
      <trkpt lat="43.61759" lon="3.86698">
        <ele>37.833157845651</ele>
        <time>2020-06-06T16:09:51.000Z</time>
      </trkpt>
      <trkpt lat="43.61757" lon="3.86705">
        <ele>37.727561117697</ele>
        <time>2020-06-06T16:09:52.000Z</time>
      </trkpt>
      <trkpt lat="43.61755" lon="3.86712">
        <ele>37.621964389742</ele>
        <time>2020-06-06T16:09:53.000Z</time>
      </trkpt>
      <trkpt lat="43.61753" lon="3.8672">
        <ele>37.516367661788</ele>
        <time>2020-06-06T16:09:54.000Z</time>
      </trkpt>
      <trkpt lat="43.61751" lon="3.86728">
        <ele>37.410770933833</ele>
        <time>2020-06-06T16:09:55.000Z</time>
      </trkpt>
      <trkpt lat="43.6175" lon="3.86736">
        <ele>37.305174205879</ele>
        <time>2020-06-06T16:09:56.000Z</time>
      </trkpt>
      <trkpt lat="43.61748" lon="3.86744">
        <ele>37.199577477924</ele>
        <time>2020-06-06T16:09:57.000Z</time>
      </trkpt>
      <trkpt lat="43.61746" lon="3.86751">
        <ele>37.09398074997</ele>
        <time>2020-06-06T16:09:58.000Z</time>
      </trkpt>
      <trkpt lat="43.61743" lon="3.86758">
        <ele>36.989572172723</ele>
        <time>2020-06-06T16:09:59.000Z</time>
      </trkpt>
      <trkpt lat="43.6174" lon="3.86765">
        <ele>36.894776500623</ele>
        <time>2020-06-06T16:10:00.000Z</time>
      </trkpt>
      <trkpt lat="43.61737" lon="3.86771">
        <ele>36.799980828523</ele>
        <time>2020-06-06T16:10:01.000Z</time>
      </trkpt>
      <trkpt lat="43.61733" lon="3.86777">
        <ele>36.705185156423</ele>
        <time>2020-06-06T16:10:02.000Z</time>
      </trkpt>
      <trkpt lat="43.61729" lon="3.86782">
        <ele>36.610389484324</ele>
        <time>2020-06-06T16:10:03.000Z</time>
      </trkpt>
      <trkpt lat="43.61724" lon="3.86787">
        <ele>36.515593812224</ele>
        <time>2020-06-06T16:10:04.000Z</time>
      </trkpt>
      <trkpt lat="43.6172" lon="3.86791">
        <ele>36.420798140124</ele>
        <time>2020-06-06T16:10:05.000Z</time>
      </trkpt>
      <trkpt lat="43.61715" lon="3.86795">
        <ele>36.326002468024</ele>
        <time>2020-06-06T16:10:06.000Z</time>
      </trkpt>
      <trkpt lat="43.6171" lon="3.86799">
        <ele>36.231206795924</ele>
        <time>2020-06-06T16:10:07.000Z</time>
      </trkpt>
      <trkpt lat="43.61705" lon="3.86803">
        <ele>36.136411123825</ele>
        <time>2020-06-06T16:10:08.000Z</time>
      </trkpt>
      <trkpt lat="43.617" lon="3.86807">
        <ele>36.041615451725</ele>
        <time>2020-06-06T16:10:09.000Z</time>
      </trkpt>
      <trkpt lat="43.61695" lon="3.86811">
        <ele>36.057538278551</ele>
        <time>2020-06-06T16:10:10.000Z</time>
      </trkpt>
      <trkpt lat="43.6169" lon="3.86816">
        <ele>36.160102347454</ele>
        <time>2020-06-06T16:10:11.000Z</time>
      </trkpt>
      <trkpt lat="43.61684" lon="3.8682">
        <ele>36.262666416356</ele>
        <time>2020-06-06T16:10:12.000Z</time>
      </trkpt>
      <trkpt lat="43.61679" lon="3.86824">
        <ele>36.365230485258</ele>
        <time>2020-06-06T16:10:13.000Z</time>
      </trkpt>
      <trkpt lat="43.61674" lon="3.86828">
        <ele>36.46779455416</ele>
        <time>2020-06-06T16:10:14.000Z</time>
      </trkpt>
      <trkpt lat="43.61669" lon="3.86832">
        <ele>36.570358623062</ele>
        <time>2020-06-06T16:10:15.000Z</time>
      </trkpt>
      <trkpt lat="43.61664" lon="3.86836">
        <ele>36.672922691964</ele>
        <time>2020-06-06T16:10:16.000Z</time>
      </trkpt>
      <trkpt lat="43.61659" lon="3.86841">
        <ele>36.775486760866</ele>
        <time>2020-06-06T16:10:17.000Z</time>
      </trkpt>
      <trkpt lat="43.61654" lon="3.86844">
        <ele>36.878050829768</ele>
        <time>2020-06-06T16:10:18.000Z</time>
      </trkpt>
      <trkpt lat="43.61649" lon="3.86848">
        <ele>36.98061489867</ele>
        <time>2020-06-06T16:10:19.000Z</time>
      </trkpt>
      <trkpt lat="43.61644" lon="3.86852">
        <ele>37</ele>
        <time>2020-06-06T16:10:20.000Z</time>
      </trkpt>
      <trkpt lat="43.61639" lon="3.86857">
        <ele>37</ele>
        <time>2020-06-06T16:10:21.000Z</time>
      </trkpt>
      <trkpt lat="43.61634" lon="3.86861">
        <ele>37</ele>
        <time>2020-06-06T16:10:22.000Z</time>
      </trkpt>
      <trkpt lat="43.61629" lon="3.86866">
        <ele>37</ele>
        <time>2020-06-06T16:10:23.000Z</time>
      </trkpt>
      <trkpt lat="43.61624" lon="3.8687">
        <ele>37</ele>
        <time>2020-06-06T16:10:24.000Z</time>
      </trkpt>
      <trkpt lat="43.61619" lon="3.86875">
        <ele>37</ele>
        <time>2020-06-06T16:10:25.000Z</time>
      </trkpt>
      <trkpt lat="43.61614" lon="3.86879">
        <ele>37</ele>
        <time>2020-06-06T16:10:26.000Z</time>
      </trkpt>
      <trkpt lat="43.61609" lon="3.86884">
        <ele>37</ele>
        <time>2020-06-06T16:10:27.000Z</time>
      </trkpt>
      <trkpt lat="43.61604" lon="3.86888">
        <ele>37</ele>
        <time>2020-06-06T16:10:28.000Z</time>
      </trkpt>
      <trkpt lat="43.616" lon="3.86893">
        <ele>37</ele>
        <time>2020-06-06T16:10:29.000Z</time>
      </trkpt>
      <trkpt lat="43.61595" lon="3.86897">
        <ele>37.087268722641</ele>
        <time>2020-06-06T16:10:30.000Z</time>
      </trkpt>
      <trkpt lat="43.61589" lon="3.86901">
        <ele>37.189938194621</ele>
        <time>2020-06-06T16:10:31.000Z</time>
      </trkpt>
      <trkpt lat="43.61584" lon="3.86905">
        <ele>37.292607666601</ele>
        <time>2020-06-06T16:10:32.000Z</time>
      </trkpt>
      <trkpt lat="43.61579" lon="3.86909">
        <ele>37.39527713858</ele>
        <time>2020-06-06T16:10:33.000Z</time>
      </trkpt>
      <trkpt lat="43.61574" lon="3.86914">
        <ele>37.49794661056</ele>
        <time>2020-06-06T16:10:34.000Z</time>
      </trkpt>
      <trkpt lat="43.61569" lon="3.86918">
        <ele>37.60061608254</ele>
        <time>2020-06-06T16:10:35.000Z</time>
      </trkpt>
      <trkpt lat="43.61565" lon="3.86922">
        <ele>37.70328555452</ele>
        <time>2020-06-06T16:10:36.000Z</time>
      </trkpt>
      <trkpt lat="43.61559" lon="3.86927">
        <ele>37.8059550265</ele>
        <time>2020-06-06T16:10:37.000Z</time>
      </trkpt>
      <trkpt lat="43.61554" lon="3.86931">
        <ele>37.90862449848</ele>
        <time>2020-06-06T16:10:38.000Z</time>
      </trkpt>
      <trkpt lat="43.61549" lon="3.86936">
        <ele>38</ele>
        <time>2020-06-06T16:10:39.000Z</time>
      </trkpt>
      <trkpt lat="43.61545" lon="3.86942">
        <ele>38</ele>
        <time>2020-06-06T16:10:40.000Z</time>
      </trkpt>
      <trkpt lat="43.61541" lon="3.86947">
        <ele>38</ele>
        <time>2020-06-06T16:10:41.000Z</time>
      </trkpt>
      <trkpt lat="43.61537" lon="3.86951">
        <ele>38</ele>
        <time>2020-06-06T16:10:42.000Z</time>
      </trkpt>
      <trkpt lat="43.61533" lon="3.86955">
        <ele>38</ele>
        <time>2020-06-06T16:10:43.000Z</time>
      </trkpt>
      <trkpt lat="43.61529" lon="3.8696">
        <ele>38</ele>
        <time>2020-06-06T16:10:44.000Z</time>
      </trkpt>
      <trkpt lat="43.61525" lon="3.86963">
        <ele>38</ele>
        <time>2020-06-06T16:10:45.000Z</time>
      </trkpt>
      <trkpt lat="43.61521" lon="3.86968">
        <ele>38</ele>
        <time>2020-06-06T16:10:46.000Z</time>
      </trkpt>
      <trkpt lat="43.61517" lon="3.86971">
        <ele>38</ele>
        <time>2020-06-06T16:10:47.000Z</time>
      </trkpt>
      <trkpt lat="43.61514" lon="3.86974">
        <ele>38</ele>
        <time>2020-06-06T16:10:48.000Z</time>
      </trkpt>
      <trkpt lat="43.61511" lon="3.86977">
        <ele>38</ele>
        <time>2020-06-06T16:10:49.000Z</time>
      </trkpt>
      <trkpt lat="43.61507" lon="3.86979">
        <ele>38</ele>
        <time>2020-06-06T16:10:50.000Z</time>
      </trkpt>
      <trkpt lat="43.61503" lon="3.86983">
        <ele>38</ele>
        <time>2020-06-06T16:10:51.000Z</time>
      </trkpt>
      <trkpt lat="43.61498" lon="3.86986">
        <ele>38</ele>
        <time>2020-06-06T16:10:52.000Z</time>
      </trkpt>
      <trkpt lat="43.61494" lon="3.86989">
        <ele>38</ele>
        <time>2020-06-06T16:10:53.000Z</time>
      </trkpt>
      <trkpt lat="43.6149" lon="3.86992">
        <ele>38</ele>
        <time>2020-06-06T16:10:54.000Z</time>
      </trkpt>
      <trkpt lat="43.61485" lon="3.86996">
        <ele>38</ele>
        <time>2020-06-06T16:10:55.000Z</time>
      </trkpt>
      <trkpt lat="43.61481" lon="3.86999">
        <ele>38</ele>
        <time>2020-06-06T16:10:56.000Z</time>
      </trkpt>
      <trkpt lat="43.61476" lon="3.87002">
        <ele>38</ele>
        <time>2020-06-06T16:10:57.000Z</time>
      </trkpt>
      <trkpt lat="43.61471" lon="3.87004">
        <ele>38</ele>
        <time>2020-06-06T16:10:58.000Z</time>
      </trkpt>
      <trkpt lat="43.61466" lon="3.87007">
        <ele>38.01100032</ele>
        <time>2020-06-06T16:10:59.000Z</time>
      </trkpt>
      <trkpt lat="43.61462" lon="3.8701">
        <ele>38.11100032</ele>
        <time>2020-06-06T16:11:00.000Z</time>
      </trkpt>
      <trkpt lat="43.61458" lon="3.87013">
        <ele>38.21100032</ele>
        <time>2020-06-06T16:11:01.000Z</time>
      </trkpt>
      <trkpt lat="43.61453" lon="3.87016">
        <ele>38.31100032</ele>
        <time>2020-06-06T16:11:02.000Z</time>
      </trkpt>
      <trkpt lat="43.61448" lon="3.87018">
        <ele>38.41100032</ele>
        <time>2020-06-06T16:11:03.000Z</time>
      </trkpt>
      <trkpt lat="43.61443" lon="3.87021">
        <ele>38.51100032</ele>
        <time>2020-06-06T16:11:04.000Z</time>
      </trkpt>
      <trkpt lat="43.61438" lon="3.87024">
        <ele>38.61100032</ele>
        <time>2020-06-06T16:11:05.000Z</time>
      </trkpt>
      <trkpt lat="43.61434" lon="3.87028">
        <ele>38.71100032</ele>
        <time>2020-06-06T16:11:06.000Z</time>
      </trkpt>
      <trkpt lat="43.61429" lon="3.87031">
        <ele>38.81100032</ele>
        <time>2020-06-06T16:11:07.000Z</time>
      </trkpt>
      <trkpt lat="43.61424" lon="3.87034">
        <ele>38.91100032</ele>
        <time>2020-06-06T16:11:08.000Z</time>
      </trkpt>
      <trkpt lat="43.6142" lon="3.87037">
        <ele>39</ele>
        <time>2020-06-06T16:11:09.000Z</time>
      </trkpt>
      <trkpt lat="43.61415" lon="3.8704">
        <ele>39</ele>
        <time>2020-06-06T16:11:10.000Z</time>
      </trkpt>
      <trkpt lat="43.61411" lon="3.87043">
        <ele>39</ele>
        <time>2020-06-06T16:11:11.000Z</time>
      </trkpt>
      <trkpt lat="43.61406" lon="3.87045">
        <ele>39</ele>
        <time>2020-06-06T16:11:12.000Z</time>
      </trkpt>
      <trkpt lat="43.61402" lon="3.87047">
        <ele>39</ele>
        <time>2020-06-06T16:11:13.000Z</time>
      </trkpt>
      <trkpt lat="43.61397" lon="3.87049">
        <ele>39</ele>
        <time>2020-06-06T16:11:14.000Z</time>
      </trkpt>
      <trkpt lat="43.61393" lon="3.87051">
        <ele>39</ele>
        <time>2020-06-06T16:11:15.000Z</time>
      </trkpt>
      <trkpt lat="43.61388" lon="3.87053">
        <ele>39</ele>
        <time>2020-06-06T16:11:16.000Z</time>
      </trkpt>
      <trkpt lat="43.61384" lon="3.87055">
        <ele>39</ele>
        <time>2020-06-06T16:11:17.000Z</time>
      </trkpt>
      <trkpt lat="43.6138" lon="3.87058">
        <ele>39</ele>
        <time>2020-06-06T16:11:18.000Z</time>
      </trkpt>
      <trkpt lat="43.61375" lon="3.8706">
        <ele>39</ele>
        <time>2020-06-06T16:11:19.000Z</time>
      </trkpt>
      <trkpt lat="43.61371" lon="3.87062">
        <ele>39</ele>
        <time>2020-06-06T16:11:20.000Z</time>
      </trkpt>
      <trkpt lat="43.61367" lon="3.87065">
        <ele>39</ele>
        <time>2020-06-06T16:11:21.000Z</time>
      </trkpt>
      <trkpt lat="43.61363" lon="3.87068">
        <ele>39</ele>
        <time>2020-06-06T16:11:22.000Z</time>
      </trkpt>
      <trkpt lat="43.6136" lon="3.87071">
        <ele>39</ele>
        <time>2020-06-06T16:11:23.000Z</time>
      </trkpt>
      <trkpt lat="43.61356" lon="3.87074">
        <ele>39</ele>
        <time>2020-06-06T16:11:24.000Z</time>
      </trkpt>
      <trkpt lat="43.61353" lon="3.87078">
        <ele>39</ele>
        <time>2020-06-06T16:11:25.000Z</time>
      </trkpt>
      <trkpt lat="43.61349" lon="3.87082">
        <ele>39</ele>
        <time>2020-06-06T16:11:26.000Z</time>
      </trkpt>
      <trkpt lat="43.61346" lon="3.87085">
        <ele>39</ele>
        <time>2020-06-06T16:11:27.000Z</time>
      </trkpt>
      <trkpt lat="43.61343" lon="3.87088">
        <ele>39</ele>
        <time>2020-06-06T16:11:28.000Z</time>
      </trkpt>
      <trkpt lat="43.61339" lon="3.87092">
        <ele>39</ele>
        <time>2020-06-06T16:11:29.000Z</time>
      </trkpt>
      <trkpt lat="43.61336" lon="3.87096">
        <ele>39</ele>
        <time>2020-06-06T16:11:30.000Z</time>
      </trkpt>
      <trkpt lat="43.61334" lon="3.87099">
        <ele>39</ele>
        <time>2020-06-06T16:11:31.000Z</time>
      </trkpt>
      <trkpt lat="43.61331" lon="3.87102">
        <ele>39</ele>
        <time>2020-06-06T16:11:32.000Z</time>
      </trkpt>
      <trkpt lat="43.61328" lon="3.87105">
        <ele>39</ele>
        <time>2020-06-06T16:11:33.000Z</time>
      </trkpt>
      <trkpt lat="43.61325" lon="3.87108">
        <ele>39</ele>
        <time>2020-06-06T16:11:34.000Z</time>
      </trkpt>
      <trkpt lat="43.61322" lon="3.8711">
        <ele>39</ele>
        <time>2020-06-06T16:11:35.000Z</time>
      </trkpt>
      <trkpt lat="43.6132" lon="3.87113">
        <ele>39</ele>
        <time>2020-06-06T16:11:36.000Z</time>
      </trkpt>
      <trkpt lat="43.61318" lon="3.87117">
        <ele>39</ele>
        <time>2020-06-06T16:11:37.000Z</time>
      </trkpt>
      <trkpt lat="43.61316" lon="3.8712">
        <ele>39</ele>
        <time>2020-06-06T16:11:38.000Z</time>
      </trkpt>
      <trkpt lat="43.61314" lon="3.87123">
        <ele>39.01100032</ele>
        <time>2020-06-06T16:11:39.000Z</time>
      </trkpt>
      <trkpt lat="43.61312" lon="3.87127">
        <ele>39.11100032</ele>
        <time>2020-06-06T16:11:40.000Z</time>
      </trkpt>
      <trkpt lat="43.6131" lon="3.8713">
        <ele>39.21100032</ele>
        <time>2020-06-06T16:11:41.000Z</time>
      </trkpt>
      <trkpt lat="43.61308" lon="3.87132">
        <ele>39.31100032</ele>
        <time>2020-06-06T16:11:42.000Z</time>
      </trkpt>
      <trkpt lat="43.61306" lon="3.87135">
        <ele>39.41100032</ele>
        <time>2020-06-06T16:11:43.000Z</time>
      </trkpt>
      <trkpt lat="43.61304" lon="3.87139">
        <ele>39.51100032</ele>
        <time>2020-06-06T16:11:44.000Z</time>
      </trkpt>
      <trkpt lat="43.61301" lon="3.87141">
        <ele>39.61100032</ele>
        <time>2020-06-06T16:11:45.000Z</time>
      </trkpt>
      <trkpt lat="43.61299" lon="3.87144">
        <ele>39.71100032</ele>
        <time>2020-06-06T16:11:46.000Z</time>
      </trkpt>
      <trkpt lat="43.61297" lon="3.87146">
        <ele>39.81100032</ele>
        <time>2020-06-06T16:11:47.000Z</time>
      </trkpt>
      <trkpt lat="43.61296" lon="3.87149">
        <ele>39.91100032</ele>
        <time>2020-06-06T16:11:48.000Z</time>
      </trkpt>
      <trkpt lat="43.61294" lon="3.87152">
        <ele>40.021093608102</ele>
        <time>2020-06-06T16:11:49.000Z</time>
      </trkpt>
      <trkpt lat="43.61292" lon="3.87155">
        <ele>40.212848103441</ele>
        <time>2020-06-06T16:11:50.000Z</time>
      </trkpt>
      <trkpt lat="43.6129" lon="3.87158">
        <ele>40.40460259878</ele>
        <time>2020-06-06T16:11:51.000Z</time>
      </trkpt>
      <trkpt lat="43.61288" lon="3.8716">
        <ele>40.596357094119</ele>
        <time>2020-06-06T16:11:52.000Z</time>
      </trkpt>
      <trkpt lat="43.61287" lon="3.87162">
        <ele>40.788111589458</ele>
        <time>2020-06-06T16:11:53.000Z</time>
      </trkpt>
      <trkpt lat="43.61285" lon="3.87165">
        <ele>40.979866084797</ele>
        <time>2020-06-06T16:11:54.000Z</time>
      </trkpt>
      <trkpt lat="43.61283" lon="3.87167">
        <ele>41.171620580136</ele>
        <time>2020-06-06T16:11:55.000Z</time>
      </trkpt>
      <trkpt lat="43.61281" lon="3.87169">
        <ele>41.363375075475</ele>
        <time>2020-06-06T16:11:56.000Z</time>
      </trkpt>
      <trkpt lat="43.61279" lon="3.87172">
        <ele>41.555129570814</ele>
        <time>2020-06-06T16:11:57.000Z</time>
      </trkpt>
      <trkpt lat="43.61278" lon="3.87174">
        <ele>41.746884066152</ele>
        <time>2020-06-06T16:11:58.000Z</time>
      </trkpt>
      <trkpt lat="43.61276" lon="3.87177">
        <ele>41.938638561492</ele>
        <time>2020-06-06T16:11:59.000Z</time>
      </trkpt>
      <trkpt lat="43.61274" lon="3.87178">
        <ele>42</ele>
        <time>2020-06-06T16:12:00.000Z</time>
      </trkpt>
      <trkpt lat="43.61272" lon="3.8718">
        <ele>42</ele>
        <time>2020-06-06T16:12:01.000Z</time>
      </trkpt>
      <trkpt lat="43.6127" lon="3.87182">
        <ele>42</ele>
        <time>2020-06-06T16:12:02.000Z</time>
      </trkpt>
      <trkpt lat="43.61268" lon="3.87183">
        <ele>42</ele>
        <time>2020-06-06T16:12:03.000Z</time>
      </trkpt>
      <trkpt lat="43.61266" lon="3.87184">
        <ele>42</ele>
        <time>2020-06-06T16:12:04.000Z</time>
      </trkpt>
      <trkpt lat="43.61265" lon="3.87187">
        <ele>42</ele>
        <time>2020-06-06T16:12:05.000Z</time>
      </trkpt>
      <trkpt lat="43.61263" lon="3.87189">
        <ele>42</ele>
        <time>2020-06-06T16:12:06.000Z</time>
      </trkpt>
      <trkpt lat="43.61262" lon="3.87191">
        <ele>42</ele>
        <time>2020-06-06T16:12:07.000Z</time>
      </trkpt>
      <trkpt lat="43.6126" lon="3.87193">
        <ele>42</ele>
        <time>2020-06-06T16:12:08.000Z</time>
      </trkpt>
      <trkpt lat="43.61258" lon="3.87195">
        <ele>42.03300096</ele>
        <time>2020-06-06T16:12:09.000Z</time>
      </trkpt>
      <trkpt lat="43.61256" lon="3.87197">
        <ele>42.33300096</ele>
        <time>2020-06-06T16:12:10.000Z</time>
      </trkpt>
      <trkpt lat="43.61254" lon="3.872">
        <ele>42.63300096</ele>
        <time>2020-06-06T16:12:11.000Z</time>
      </trkpt>
      <trkpt lat="43.61253" lon="3.87203">
        <ele>42.93300096</ele>
        <time>2020-06-06T16:12:12.000Z</time>
      </trkpt>
      <trkpt lat="43.61252" lon="3.87206">
        <ele>43.23300096</ele>
        <time>2020-06-06T16:12:13.000Z</time>
      </trkpt>
      <trkpt lat="43.61251" lon="3.87209">
        <ele>43.53300096</ele>
        <time>2020-06-06T16:12:14.000Z</time>
      </trkpt>
      <trkpt lat="43.6125" lon="3.87211">
        <ele>43.83300096</ele>
        <time>2020-06-06T16:12:15.000Z</time>
      </trkpt>
      <trkpt lat="43.61249" lon="3.87215">
        <ele>44.13300096</ele>
        <time>2020-06-06T16:12:16.000Z</time>
      </trkpt>
      <trkpt lat="43.61248" lon="3.87217">
        <ele>44.43300096</ele>
        <time>2020-06-06T16:12:17.000Z</time>
      </trkpt>
      <trkpt lat="43.61248" lon="3.8722">
        <ele>44.73300096</ele>
        <time>2020-06-06T16:12:18.000Z</time>
      </trkpt>
      <trkpt lat="43.61247" lon="3.87223">
        <ele>45.02200064</ele>
        <time>2020-06-06T16:12:19.000Z</time>
      </trkpt>
      <trkpt lat="43.61246" lon="3.87226">
        <ele>45.22200064</ele>
        <time>2020-06-06T16:12:20.000Z</time>
      </trkpt>
      <trkpt lat="43.61245" lon="3.87229">
        <ele>45.42200064</ele>
        <time>2020-06-06T16:12:21.000Z</time>
      </trkpt>
      <trkpt lat="43.61244" lon="3.87232">
        <ele>45.62200064</ele>
        <time>2020-06-06T16:12:22.000Z</time>
      </trkpt>
      <trkpt lat="43.61242" lon="3.87234">
        <ele>45.82200064</ele>
        <time>2020-06-06T16:12:23.000Z</time>
      </trkpt>
      <trkpt lat="43.6124" lon="3.87235">
        <ele>46.02200064</ele>
        <time>2020-06-06T16:12:24.000Z</time>
      </trkpt>
      <trkpt lat="43.61237" lon="3.87237">
        <ele>46.42200064</ele>
        <time>2020-06-06T16:12:26.000Z</time>
      </trkpt>
      <trkpt lat="43.61233" lon="3.87237">
        <ele>46.82200064</ele>
        <time>2020-06-06T16:12:28.000Z</time>
      </trkpt>
      <trkpt lat="43.61232" lon="3.87236">
        <ele>47</ele>
        <time>2020-06-06T16:12:29.000Z</time>
      </trkpt>
      <trkpt lat="43.6123" lon="3.87236">
        <ele>47</ele>
        <time>2020-06-06T16:12:30.000Z</time>
      </trkpt>
      <trkpt lat="43.61226" lon="3.87235">
        <ele>47</ele>
        <time>2020-06-06T16:12:32.000Z</time>
      </trkpt>
      <trkpt lat="43.61224" lon="3.87234">
        <ele>47</ele>
        <time>2020-06-06T16:12:33.000Z</time>
      </trkpt>
      <trkpt lat="43.61222" lon="3.87233">
        <ele>47</ele>
        <time>2020-06-06T16:12:34.000Z</time>
      </trkpt>
      <trkpt lat="43.6122" lon="3.87232">
        <ele>47</ele>
        <time>2020-06-06T16:12:35.000Z</time>
      </trkpt>
      <trkpt lat="43.61219" lon="3.87231">
        <ele>47</ele>
        <time>2020-06-06T16:12:36.000Z</time>
      </trkpt>
      <trkpt lat="43.61217" lon="3.8723">
        <ele>47</ele>
        <time>2020-06-06T16:12:37.000Z</time>
      </trkpt>
      <trkpt lat="43.61215" lon="3.87229">
        <ele>47</ele>
        <time>2020-06-06T16:12:38.000Z</time>
      </trkpt>
      <trkpt lat="43.61214" lon="3.87228">
        <ele>47.02200064</ele>
        <time>2020-06-06T16:12:39.000Z</time>
      </trkpt>
      <trkpt lat="43.61212" lon="3.87227">
        <ele>47.22200064</ele>
        <time>2020-06-06T16:12:40.000Z</time>
      </trkpt>
      <trkpt lat="43.61209" lon="3.87225">
        <ele>47.62200064</ele>
        <time>2020-06-06T16:12:42.000Z</time>
      </trkpt>
      <trkpt lat="43.61205" lon="3.87224">
        <ele>48.02200064</ele>
        <time>2020-06-06T16:12:44.000Z</time>
      </trkpt>
      <trkpt lat="43.61202" lon="3.87223">
        <ele>48.42200064</ele>
        <time>2020-06-06T16:12:46.000Z</time>
      </trkpt>
      <trkpt lat="43.61199" lon="3.87222">
        <ele>48.82200064</ele>
        <time>2020-06-06T16:12:48.000Z</time>
      </trkpt>
      <trkpt lat="43.61197" lon="3.87222">
        <ele>49.01100032</ele>
        <time>2020-06-06T16:12:49.000Z</time>
      </trkpt>
      <trkpt lat="43.61195" lon="3.87222">
        <ele>49.11100032</ele>
        <time>2020-06-06T16:12:50.000Z</time>
      </trkpt>
      <trkpt lat="43.61192" lon="3.87221">
        <ele>49.31100032</ele>
        <time>2020-06-06T16:12:52.000Z</time>
      </trkpt>
      <trkpt lat="43.61188" lon="3.87223">
        <ele>49.51100032</ele>
        <time>2020-06-06T16:12:54.000Z</time>
      </trkpt>
      <trkpt lat="43.61186" lon="3.87224">
        <ele>49.61100032</ele>
        <time>2020-06-06T16:12:55.000Z</time>
      </trkpt>
      <trkpt lat="43.61184" lon="3.87223">
        <ele>49.71100032</ele>
        <time>2020-06-06T16:12:56.000Z</time>
      </trkpt>
      <trkpt lat="43.61182" lon="3.87222">
        <ele>49.81100032</ele>
        <time>2020-06-06T16:12:57.000Z</time>
      </trkpt>
      <trkpt lat="43.61179" lon="3.87221">
        <ele>50.01100032</ele>
        <time>2020-06-06T16:12:59.000Z</time>
      </trkpt>
      <trkpt lat="43.61176" lon="3.8722">
        <ele>50.21100032</ele>
        <time>2020-06-06T16:13:01.000Z</time>
      </trkpt>
      <trkpt lat="43.61173" lon="3.87219">
        <ele>50.41100032</ele>
        <time>2020-06-06T16:13:03.000Z</time>
      </trkpt>
      <trkpt lat="43.61169" lon="3.87218">
        <ele>50.61100032</ele>
        <time>2020-06-06T16:13:05.000Z</time>
      </trkpt>
      <trkpt lat="43.61166" lon="3.87216">
        <ele>50.81100032</ele>
        <time>2020-06-06T16:13:07.000Z</time>
      </trkpt>
      <trkpt lat="43.61163" lon="3.87214">
        <ele>51.010701739749</ele>
        <time>2020-06-06T16:13:09.000Z</time>
      </trkpt>
      <trkpt lat="43.6116" lon="3.87213">
        <ele>51.20527316583</ele>
        <time>2020-06-06T16:13:11.000Z</time>
      </trkpt>
      <trkpt lat="43.61156" lon="3.87212">
        <ele>51.399844591911</ele>
        <time>2020-06-06T16:13:13.000Z</time>
      </trkpt>
      <trkpt lat="43.61153" lon="3.87211">
        <ele>51.594416017991</ele>
        <time>2020-06-06T16:13:15.000Z</time>
      </trkpt>
      <trkpt lat="43.6115" lon="3.87211">
        <ele>51.788987444072</ele>
        <time>2020-06-06T16:13:17.000Z</time>
      </trkpt>
      <trkpt lat="43.61146" lon="3.87211">
        <ele>51.983558870153</ele>
        <time>2020-06-06T16:13:19.000Z</time>
      </trkpt>
      <trkpt lat="43.61145" lon="3.87211">
        <ele>52.085485211066</ele>
        <time>2020-06-06T16:13:20.000Z</time>
      </trkpt>
      <trkpt lat="43.61141" lon="3.8721">
        <ele>52.29122539512</ele>
        <time>2020-06-06T16:13:22.000Z</time>
      </trkpt>
      <trkpt lat="43.61138" lon="3.87208">
        <ele>52.496965579173</ele>
        <time>2020-06-06T16:13:24.000Z</time>
      </trkpt>
      <trkpt lat="43.61135" lon="3.87207">
        <ele>52.702705763227</ele>
        <time>2020-06-06T16:13:26.000Z</time>
      </trkpt>
      <trkpt lat="43.61132" lon="3.87209">
        <ele>52.90844594728</ele>
        <time>2020-06-06T16:13:28.000Z</time>
      </trkpt>
      <trkpt lat="43.61129" lon="3.87211">
        <ele>53.108187378908</ele>
        <time>2020-06-06T16:13:30.000Z</time>
      </trkpt>
      <trkpt lat="43.61127" lon="3.87213">
        <ele>53.205653205051</ele>
        <time>2020-06-06T16:13:31.000Z</time>
      </trkpt>
      <trkpt lat="43.61126" lon="3.87215">
        <ele>53.303119031193</ele>
        <time>2020-06-06T16:13:32.000Z</time>
      </trkpt>
      <trkpt lat="43.61125" lon="3.87217">
        <ele>53.400584857335</ele>
        <time>2020-06-06T16:13:33.000Z</time>
      </trkpt>
      <trkpt lat="43.61124" lon="3.8722">
        <ele>53.498050683477</ele>
        <time>2020-06-06T16:13:34.000Z</time>
      </trkpt>
      <trkpt lat="43.61123" lon="3.87223">
        <ele>53.595516509619</ele>
        <time>2020-06-06T16:13:35.000Z</time>
      </trkpt>
      <trkpt lat="43.61123" lon="3.87227">
        <ele>53.692982335761</ele>
        <time>2020-06-06T16:13:36.000Z</time>
      </trkpt>
      <trkpt lat="43.61122" lon="3.87231">
        <ele>53.790448161904</ele>
        <time>2020-06-06T16:13:37.000Z</time>
      </trkpt>
      <trkpt lat="43.61123" lon="3.87235">
        <ele>53.887913988046</ele>
        <time>2020-06-06T16:13:38.000Z</time>
      </trkpt>
      <trkpt lat="43.61123" lon="3.87239">
        <ele>53.985379814188</ele>
        <time>2020-06-06T16:13:39.000Z</time>
      </trkpt>
      <trkpt lat="43.61123" lon="3.87243">
        <ele>53.912731277359</ele>
        <time>2020-06-06T16:13:40.000Z</time>
      </trkpt>
      <trkpt lat="43.61124" lon="3.87246">
        <ele>53.810061805379</ele>
        <time>2020-06-06T16:13:41.000Z</time>
      </trkpt>
      <trkpt lat="43.61124" lon="3.8725">
        <ele>53.707392333399</ele>
        <time>2020-06-06T16:13:42.000Z</time>
      </trkpt>
      <trkpt lat="43.61125" lon="3.87254">
        <ele>53.60472286142</ele>
        <time>2020-06-06T16:13:43.000Z</time>
      </trkpt>
      <trkpt lat="43.61125" lon="3.87258">
        <ele>53.50205338944</ele>
        <time>2020-06-06T16:13:44.000Z</time>
      </trkpt>
      <trkpt lat="43.61124" lon="3.87262">
        <ele>53.39938391746</ele>
        <time>2020-06-06T16:13:45.000Z</time>
      </trkpt>
      <trkpt lat="43.61124" lon="3.87265">
        <ele>53.29671444548</ele>
        <time>2020-06-06T16:13:46.000Z</time>
      </trkpt>
      <trkpt lat="43.61123" lon="3.8727">
        <ele>53.1940449735</ele>
        <time>2020-06-06T16:13:47.000Z</time>
      </trkpt>
      <trkpt lat="43.61123" lon="3.87274">
        <ele>53.09137550152</ele>
        <time>2020-06-06T16:13:48.000Z</time>
      </trkpt>
      <trkpt lat="43.61122" lon="3.87278">
        <ele>53.010763515765</ele>
        <time>2020-06-06T16:13:49.000Z</time>
      </trkpt>
      <trkpt lat="43.61122" lon="3.87281">
        <ele>53.108610812612</ele>
        <time>2020-06-06T16:13:50.000Z</time>
      </trkpt>
      <trkpt lat="43.61122" lon="3.87286">
        <ele>53.206458109459</ele>
        <time>2020-06-06T16:13:51.000Z</time>
      </trkpt>
      <trkpt lat="43.61122" lon="3.8729">
        <ele>53.304305406306</ele>
        <time>2020-06-06T16:13:52.000Z</time>
      </trkpt>
      <trkpt lat="43.61122" lon="3.87294">
        <ele>53.402152703153</ele>
        <time>2020-06-06T16:13:53.000Z</time>
      </trkpt>
      <trkpt lat="43.61123" lon="3.87298">
        <ele>53.5</ele>
        <time>2020-06-06T16:13:54.000Z</time>
      </trkpt>
      <trkpt lat="43.61122" lon="3.87303">
        <ele>53.597847296847</ele>
        <time>2020-06-06T16:13:55.000Z</time>
      </trkpt>
      <trkpt lat="43.61122" lon="3.87307">
        <ele>53.695694593694</ele>
        <time>2020-06-06T16:13:56.000Z</time>
      </trkpt>
      <trkpt lat="43.61121" lon="3.87311">
        <ele>53.793541890541</ele>
        <time>2020-06-06T16:13:57.000Z</time>
      </trkpt>
      <trkpt lat="43.61121" lon="3.87315">
        <ele>53.891389187388</ele>
        <time>2020-06-06T16:13:58.000Z</time>
      </trkpt>
      <trkpt lat="43.61121" lon="3.87319">
        <ele>53.989236484235</ele>
        <time>2020-06-06T16:13:59.000Z</time>
      </trkpt>
      <trkpt lat="43.61121" lon="3.87324">
        <ele>54.091001777343</ele>
        <time>2020-06-06T16:14:00.000Z</time>
      </trkpt>
      <trkpt lat="43.6112" lon="3.87329">
        <ele>54.193251333007</ele>
        <time>2020-06-06T16:14:01.000Z</time>
      </trkpt>
      <trkpt lat="43.6112" lon="3.87333">
        <ele>54.295500888671</ele>
        <time>2020-06-06T16:14:02.000Z</time>
      </trkpt>
      <trkpt lat="43.61119" lon="3.87337">
        <ele>54.397750444336</ele>
        <time>2020-06-06T16:14:03.000Z</time>
      </trkpt>
      <trkpt lat="43.61118" lon="3.87341">
        <ele>54.5</ele>
        <time>2020-06-06T16:14:04.000Z</time>
      </trkpt>
      <trkpt lat="43.61117" lon="3.87345">
        <ele>54.602249555664</ele>
        <time>2020-06-06T16:14:05.000Z</time>
      </trkpt>
      <trkpt lat="43.61117" lon="3.87348">
        <ele>54.704499111329</ele>
        <time>2020-06-06T16:14:06.000Z</time>
      </trkpt>
      <trkpt lat="43.61119" lon="3.87353">
        <ele>54.908998222657</ele>
        <time>2020-06-06T16:14:08.000Z</time>
      </trkpt>
      <trkpt lat="43.61121" lon="3.87355">
        <ele>55</ele>
        <time>2020-06-06T16:14:09.000Z</time>
      </trkpt>
      <trkpt lat="43.61124" lon="3.87357">
        <ele>55</ele>
        <time>2020-06-06T16:14:10.000Z</time>
      </trkpt>
      <trkpt lat="43.61126" lon="3.87359">
        <ele>55</ele>
        <time>2020-06-06T16:14:11.000Z</time>
      </trkpt>
      <trkpt lat="43.61128" lon="3.8736">
        <ele>55</ele>
        <time>2020-06-06T16:14:12.000Z</time>
      </trkpt>
      <trkpt lat="43.61141" lon="3.87365">
        <ele>55</ele>
        <time>2020-06-06T16:14:15.000Z</time>
      </trkpt>
      <trkpt lat="43.6115" lon="3.8737">
        <ele>55</ele>
        <time>2020-06-06T16:14:18.000Z</time>
      </trkpt>
      <trkpt lat="43.61153" lon="3.87373">
        <ele>55.01100032</ele>
        <time>2020-06-06T16:14:19.000Z</time>
      </trkpt>
      <trkpt lat="43.61154" lon="3.87378">
        <ele>55.11100032</ele>
        <time>2020-06-06T16:14:20.000Z</time>
      </trkpt>
      <trkpt lat="43.61153" lon="3.87383">
        <ele>55.21100032</ele>
        <time>2020-06-06T16:14:21.000Z</time>
      </trkpt>
      <trkpt lat="43.61153" lon="3.87388">
        <ele>55.31100032</ele>
        <time>2020-06-06T16:14:22.000Z</time>
      </trkpt>
      <trkpt lat="43.61152" lon="3.87393">
        <ele>55.41100032</ele>
        <time>2020-06-06T16:14:23.000Z</time>
      </trkpt>
      <trkpt lat="43.61151" lon="3.87399">
        <ele>55.51100032</ele>
        <time>2020-06-06T16:14:24.000Z</time>
      </trkpt>
      <trkpt lat="43.6115" lon="3.87404">
        <ele>55.61100032</ele>
        <time>2020-06-06T16:14:25.000Z</time>
      </trkpt>
      <trkpt lat="43.61149" lon="3.87409">
        <ele>55.71100032</ele>
        <time>2020-06-06T16:14:26.000Z</time>
      </trkpt>
      <trkpt lat="43.61149" lon="3.87414">
        <ele>55.81100032</ele>
        <time>2020-06-06T16:14:27.000Z</time>
      </trkpt>
      <trkpt lat="43.61147" lon="3.87418">
        <ele>55.91100032</ele>
        <time>2020-06-06T16:14:28.000Z</time>
      </trkpt>
      <trkpt lat="43.61147" lon="3.87423">
        <ele>56.01100032</ele>
        <time>2020-06-06T16:14:29.000Z</time>
      </trkpt>
      <trkpt lat="43.61147" lon="3.87428">
        <ele>56.11100032</ele>
        <time>2020-06-06T16:14:30.000Z</time>
      </trkpt>
      <trkpt lat="43.61147" lon="3.87432">
        <ele>56.21100032</ele>
        <time>2020-06-06T16:14:31.000Z</time>
      </trkpt>
      <trkpt lat="43.61147" lon="3.87436">
        <ele>56.31100032</ele>
        <time>2020-06-06T16:14:32.000Z</time>
      </trkpt>
      <trkpt lat="43.61146" lon="3.87441">
        <ele>56.41100032</ele>
        <time>2020-06-06T16:14:33.000Z</time>
      </trkpt>
      <trkpt lat="43.61146" lon="3.87446">
        <ele>56.51100032</ele>
        <time>2020-06-06T16:14:34.000Z</time>
      </trkpt>
      <trkpt lat="43.61145" lon="3.87451">
        <ele>56.61100032</ele>
        <time>2020-06-06T16:14:35.000Z</time>
      </trkpt>
      <trkpt lat="43.61144" lon="3.87455">
        <ele>56.71100032</ele>
        <time>2020-06-06T16:14:36.000Z</time>
      </trkpt>
      <trkpt lat="43.61143" lon="3.8746">
        <ele>56.81100032</ele>
        <time>2020-06-06T16:14:37.000Z</time>
      </trkpt>
      <trkpt lat="43.61143" lon="3.87464">
        <ele>56.91100032</ele>
        <time>2020-06-06T16:14:38.000Z</time>
      </trkpt>
      <trkpt lat="43.61142" lon="3.87469">
        <ele>56.98899968</ele>
        <time>2020-06-06T16:14:39.000Z</time>
      </trkpt>
      <trkpt lat="43.61141" lon="3.87474">
        <ele>56.88899968</ele>
        <time>2020-06-06T16:14:40.000Z</time>
      </trkpt>
      <trkpt lat="43.6114" lon="3.87478">
        <ele>56.78899968</ele>
        <time>2020-06-06T16:14:41.000Z</time>
      </trkpt>
      <trkpt lat="43.61139" lon="3.87483">
        <ele>56.68899968</ele>
        <time>2020-06-06T16:14:42.000Z</time>
      </trkpt>
      <trkpt lat="43.61138" lon="3.87488">
        <ele>56.58899968</ele>
        <time>2020-06-06T16:14:43.000Z</time>
      </trkpt>
      <trkpt lat="43.61137" lon="3.87492">
        <ele>56.48899968</ele>
        <time>2020-06-06T16:14:44.000Z</time>
      </trkpt>
      <trkpt lat="43.61135" lon="3.87506">
        <ele>56.18899968</ele>
        <time>2020-06-06T16:14:47.000Z</time>
      </trkpt>
      <trkpt lat="43.61133" lon="3.87515">
        <ele>55.98899968</ele>
        <time>2020-06-06T16:14:49.000Z</time>
      </trkpt>
      <trkpt lat="43.61132" lon="3.87528">
        <ele>55.68899968</ele>
        <time>2020-06-06T16:14:52.000Z</time>
      </trkpt>
      <trkpt lat="43.61131" lon="3.87535">
        <ele>55.48899968</ele>
        <time>2020-06-06T16:14:54.000Z</time>
      </trkpt>
      <trkpt lat="43.61131" lon="3.87538">
        <ele>55.38899968</ele>
        <time>2020-06-06T16:14:55.000Z</time>
      </trkpt>
      <trkpt lat="43.61131" lon="3.8754">
        <ele>55.28899968</ele>
        <time>2020-06-06T16:14:56.000Z</time>
      </trkpt>
      <trkpt lat="43.61132" lon="3.87544">
        <ele>55</ele>
        <time>2020-06-06T16:15:02.000Z</time>
      </trkpt>
      <trkpt lat="43.61133" lon="3.87547">
        <ele>55</ele>
        <time>2020-06-06T16:15:04.000Z</time>
      </trkpt>
      <trkpt lat="43.61134" lon="3.87549">
        <ele>55</ele>
        <time>2020-06-06T16:15:05.000Z</time>
      </trkpt>
      <trkpt lat="43.61135" lon="3.87552">
        <ele>55</ele>
        <time>2020-06-06T16:15:06.000Z</time>
      </trkpt>
      <trkpt lat="43.61137" lon="3.87564">
        <ele>54.88899968</ele>
        <time>2020-06-06T16:15:10.000Z</time>
      </trkpt>
      <trkpt lat="43.6114" lon="3.87578">
        <ele>54.58899968</ele>
        <time>2020-06-06T16:15:13.000Z</time>
      </trkpt>
      <trkpt lat="43.61138" lon="3.87584">
        <ele>54.48899968</ele>
        <time>2020-06-06T16:15:14.000Z</time>
      </trkpt>
      <trkpt lat="43.61136" lon="3.8759">
        <ele>54.38899968</ele>
        <time>2020-06-06T16:15:15.000Z</time>
      </trkpt>
      <trkpt lat="43.61133" lon="3.87594">
        <ele>54.28899968</ele>
        <time>2020-06-06T16:15:16.000Z</time>
      </trkpt>
      <trkpt lat="43.61131" lon="3.87598">
        <ele>54.18899968</ele>
        <time>2020-06-06T16:15:17.000Z</time>
      </trkpt>
      <trkpt lat="43.61129" lon="3.87602">
        <ele>54.08899968</ele>
        <time>2020-06-06T16:15:18.000Z</time>
      </trkpt>
      <trkpt lat="43.61128" lon="3.87606">
        <ele>54</ele>
        <time>2020-06-06T16:15:19.000Z</time>
      </trkpt>
      <trkpt lat="43.61126" lon="3.8761">
        <ele>54</ele>
        <time>2020-06-06T16:15:20.000Z</time>
      </trkpt>
      <trkpt lat="43.61125" lon="3.87614">
        <ele>54</ele>
        <time>2020-06-06T16:15:21.000Z</time>
      </trkpt>
      <trkpt lat="43.61124" lon="3.87618">
        <ele>54</ele>
        <time>2020-06-06T16:15:22.000Z</time>
      </trkpt>
      <trkpt lat="43.61123" lon="3.87621">
        <ele>54</ele>
        <time>2020-06-06T16:15:23.000Z</time>
      </trkpt>
      <trkpt lat="43.61122" lon="3.87624">
        <ele>54</ele>
        <time>2020-06-06T16:15:24.000Z</time>
      </trkpt>
      <trkpt lat="43.6112" lon="3.87626">
        <ele>54</ele>
        <time>2020-06-06T16:15:25.000Z</time>
      </trkpt>
      <trkpt lat="43.61117" lon="3.87629">
        <ele>54</ele>
        <time>2020-06-06T16:15:27.000Z</time>
      </trkpt>
      <trkpt lat="43.61116" lon="3.8763">
        <ele>54</ele>
        <time>2020-06-06T16:15:29.000Z</time>
      </trkpt>
      <trkpt lat="43.61118" lon="3.87629">
        <ele>54.563617694548</ele>
        <time>2020-06-06T16:15:31.000Z</time>
      </trkpt>
      <trkpt lat="43.6112" lon="3.87627">
        <ele>54.861828619851</ele>
        <time>2020-06-06T16:15:32.000Z</time>
      </trkpt>
      <trkpt lat="43.61122" lon="3.87626">
        <ele>55.160039545154</ele>
        <time>2020-06-06T16:15:33.000Z</time>
      </trkpt>
      <trkpt lat="43.61124" lon="3.87624">
        <ele>55.458250470458</ele>
        <time>2020-06-06T16:15:34.000Z</time>
      </trkpt>
      <trkpt lat="43.61126" lon="3.87622">
        <ele>55.756461395761</ele>
        <time>2020-06-06T16:15:35.000Z</time>
      </trkpt>
      <trkpt lat="43.61129" lon="3.8762">
        <ele>56.054672321064</ele>
        <time>2020-06-06T16:15:36.000Z</time>
      </trkpt>
      <trkpt lat="43.61132" lon="3.87618">
        <ele>56.352883246367</ele>
        <time>2020-06-06T16:15:37.000Z</time>
      </trkpt>
      <trkpt lat="43.61135" lon="3.87619">
        <ele>56.65109417167</ele>
        <time>2020-06-06T16:15:38.000Z</time>
      </trkpt>
      <trkpt lat="43.6114" lon="3.87621">
        <ele>56.949305096973</ele>
        <time>2020-06-06T16:15:39.000Z</time>
      </trkpt>
      <trkpt lat="43.61143" lon="3.87623">
        <ele>57.255910628871</ele>
        <time>2020-06-06T16:15:40.000Z</time>
      </trkpt>
      <trkpt lat="43.6115" lon="3.87626">
        <ele>57.872560369187</ele>
        <time>2020-06-06T16:15:42.000Z</time>
      </trkpt>
      <trkpt lat="43.61152" lon="3.87627">
        <ele>58.180885239346</ele>
        <time>2020-06-06T16:15:43.000Z</time>
      </trkpt>
      <trkpt lat="43.61157" lon="3.87627">
        <ele>58.797534979662</ele>
        <time>2020-06-06T16:15:45.000Z</time>
      </trkpt>
      <trkpt lat="43.61161" lon="3.87626">
        <ele>59.10585984982</ele>
        <time>2020-06-06T16:15:46.000Z</time>
      </trkpt>
      <trkpt lat="43.61164" lon="3.87626">
        <ele>59.414184719979</ele>
        <time>2020-06-06T16:15:47.000Z</time>
      </trkpt>
      <trkpt lat="43.61167" lon="3.87627">
        <ele>59.722509590137</ele>
        <time>2020-06-06T16:15:48.000Z</time>
      </trkpt>
      <trkpt lat="43.6117" lon="3.87627">
        <ele>60</ele>
        <time>2020-06-06T16:15:49.000Z</time>
      </trkpt>
      <trkpt lat="43.61172" lon="3.87627">
        <ele>60</ele>
        <time>2020-06-06T16:15:50.000Z</time>
      </trkpt>
      <trkpt lat="43.61174" lon="3.87629">
        <ele>60</ele>
        <time>2020-06-06T16:15:51.000Z</time>
      </trkpt>
      <trkpt lat="43.61177" lon="3.87632">
        <ele>60</ele>
        <time>2020-06-06T16:15:52.000Z</time>
      </trkpt>
      <trkpt lat="43.61179" lon="3.87634">
        <ele>60</ele>
        <time>2020-06-06T16:15:53.000Z</time>
      </trkpt>
      <trkpt lat="43.6118" lon="3.87638">
        <ele>60</ele>
        <time>2020-06-06T16:15:54.000Z</time>
      </trkpt>
      <trkpt lat="43.6118" lon="3.87641">
        <ele>60</ele>
        <time>2020-06-06T16:15:55.000Z</time>
      </trkpt>
      <trkpt lat="43.6118" lon="3.87645">
        <ele>60</ele>
        <time>2020-06-06T16:15:56.000Z</time>
      </trkpt>
      <trkpt lat="43.6118" lon="3.87649">
        <ele>60</ele>
        <time>2020-06-06T16:15:57.000Z</time>
      </trkpt>
      <trkpt lat="43.6118" lon="3.87654">
        <ele>60</ele>
        <time>2020-06-06T16:15:58.000Z</time>
      </trkpt>
      <trkpt lat="43.6118" lon="3.87657">
        <ele>60</ele>
        <time>2020-06-06T16:15:59.000Z</time>
      </trkpt>
      <trkpt lat="43.61179" lon="3.87661">
        <ele>60</ele>
        <time>2020-06-06T16:16:00.000Z</time>
      </trkpt>
      <trkpt lat="43.61179" lon="3.87664">
        <ele>60</ele>
        <time>2020-06-06T16:16:01.000Z</time>
      </trkpt>
      <trkpt lat="43.61178" lon="3.87667">
        <ele>60</ele>
        <time>2020-06-06T16:16:02.000Z</time>
      </trkpt>
      <trkpt lat="43.61178" lon="3.8767">
        <ele>60</ele>
        <time>2020-06-06T16:16:03.000Z</time>
      </trkpt>
      <trkpt lat="43.61178" lon="3.87673">
        <ele>60</ele>
        <time>2020-06-06T16:16:04.000Z</time>
      </trkpt>
      <trkpt lat="43.61177" lon="3.87675">
        <ele>60</ele>
        <time>2020-06-06T16:16:05.000Z</time>
      </trkpt>
      <trkpt lat="43.61176" lon="3.87679">
        <ele>60</ele>
        <time>2020-06-06T16:16:07.000Z</time>
      </trkpt>
      <trkpt lat="43.61176" lon="3.87683">
        <ele>60</ele>
        <time>2020-06-06T16:16:09.000Z</time>
      </trkpt>
      <trkpt lat="43.61174" lon="3.87685">
        <ele>60</ele>
        <time>2020-06-06T16:16:11.000Z</time>
      </trkpt>
      <trkpt lat="43.61174" lon="3.8769">
        <ele>60</ele>
        <time>2020-06-06T16:16:13.000Z</time>
      </trkpt>
      <trkpt lat="43.61174" lon="3.87694">
        <ele>60</ele>
        <time>2020-06-06T16:16:15.000Z</time>
      </trkpt>
      <trkpt lat="43.61173" lon="3.87697">
        <ele>60</ele>
        <time>2020-06-06T16:16:16.000Z</time>
      </trkpt>
      <trkpt lat="43.61173" lon="3.87699">
        <ele>60</ele>
        <time>2020-06-06T16:16:17.000Z</time>
      </trkpt>
      <trkpt lat="43.61172" lon="3.87702">
        <ele>60</ele>
        <time>2020-06-06T16:16:18.000Z</time>
      </trkpt>
      <trkpt lat="43.61171" lon="3.87706">
        <ele>59.989299299611</ele>
        <time>2020-06-06T16:16:19.000Z</time>
      </trkpt>
      <trkpt lat="43.6117" lon="3.87709">
        <ele>59.892023035019</ele>
        <time>2020-06-06T16:16:20.000Z</time>
      </trkpt>
      <trkpt lat="43.6117" lon="3.87712">
        <ele>59.794746770428</ele>
        <time>2020-06-06T16:16:21.000Z</time>
      </trkpt>
      <trkpt lat="43.61169" lon="3.87714">
        <ele>59.697470505837</ele>
        <time>2020-06-06T16:16:22.000Z</time>
      </trkpt>
      <trkpt lat="43.61169" lon="3.87717">
        <ele>59.600194241245</ele>
        <time>2020-06-06T16:16:23.000Z</time>
      </trkpt>
      <trkpt lat="43.61168" lon="3.8772">
        <ele>59.502917976654</ele>
        <time>2020-06-06T16:16:24.000Z</time>
      </trkpt>
      <trkpt lat="43.61167" lon="3.87722">
        <ele>59.405641712062</ele>
        <time>2020-06-06T16:16:25.000Z</time>
      </trkpt>
      <trkpt lat="43.61166" lon="3.87726">
        <ele>59.308365447471</ele>
        <time>2020-06-06T16:16:26.000Z</time>
      </trkpt>
      <trkpt lat="43.61165" lon="3.87729">
        <ele>59.211089182879</ele>
        <time>2020-06-06T16:16:27.000Z</time>
      </trkpt>
      <trkpt lat="43.61165" lon="3.87732">
        <ele>59.113812918288</ele>
        <time>2020-06-06T16:16:28.000Z</time>
      </trkpt>
      <trkpt lat="43.61163" lon="3.87736">
        <ele>59.016536653696</ele>
        <time>2020-06-06T16:16:29.000Z</time>
      </trkpt>
      <trkpt lat="43.61162" lon="3.87739">
        <ele>58.914696457043</ele>
        <time>2020-06-06T16:16:30.000Z</time>
      </trkpt>
      <trkpt lat="43.61162" lon="3.87743">
        <ele>58.811921500324</ele>
        <time>2020-06-06T16:16:31.000Z</time>
      </trkpt>
      <trkpt lat="43.61161" lon="3.87746">
        <ele>58.709146543604</ele>
        <time>2020-06-06T16:16:32.000Z</time>
      </trkpt>
      <trkpt lat="43.61162" lon="3.87749">
        <ele>58.606371586885</ele>
        <time>2020-06-06T16:16:33.000Z</time>
      </trkpt>
      <trkpt lat="43.61161" lon="3.87748">
        <ele>58</ele>
        <time>2020-06-06T16:16:41.000Z</time>
      </trkpt>
    </trkseg>
  </trk>
</gpx>